<?xml version="1.0" encoding="UTF-8" standalone="no" ?>
<gpx xmlns="http://www.topografix.com/GPX/1/1" xmlns:xsi="http://www.w3.org/2001/XMLSchema-instance" xsi:schemaLocation="http://www.topografix.com/GPX/1/1 http://www.topografix.com/GPX/1/1/gpx.xsd" version="1.1" creator="VisuGPX - https://www.visugpx.com">
  <metadata>
    <name>2009 LAGAHL</name>
    <desc><![CDATA[Lozère-Aveyron-Gard-Ardèche-Haute Loire]]></desc>
  </metadata>
  <trk>
    <name><![CDATA[A01]]></name>
    <trkseg>
      <trkpt lat="44.81475" lon="3.44106">
        <ele>1173</ele>
        <time>2009-07-06T06:36:32Z</time>
      </trkpt>
      <trkpt lat="44.81475" lon="3.44106">
        <ele>1177</ele>
        <time>2009-07-06T06:36:33Z</time>
      </trkpt>
      <trkpt lat="44.81475" lon="3.44106">
        <ele>1176</ele>
        <time>2009-07-06T06:36:34Z</time>
      </trkpt>
      <trkpt lat="44.81475" lon="3.44104">
        <ele>1176</ele>
        <time>2009-07-06T06:37:45Z</time>
      </trkpt>
      <trkpt lat="44.81478" lon="3.44106">
        <ele>1176</ele>
        <time>2009-07-06T06:40:07Z</time>
      </trkpt>
      <trkpt lat="44.81481" lon="3.44105">
        <ele>1172</ele>
        <time>2009-07-06T06:44:36Z</time>
      </trkpt>
      <trkpt lat="44.8148" lon="3.44105">
        <ele>1174</ele>
        <time>2009-07-06T06:44:45Z</time>
      </trkpt>
      <trkpt lat="44.81481" lon="3.4411">
        <ele>1176</ele>
        <time>2009-07-06T06:45:26Z</time>
      </trkpt>
      <trkpt lat="44.81481" lon="3.44111">
        <ele>1177</ele>
        <time>2009-07-06T06:46:07Z</time>
      </trkpt>
      <trkpt lat="44.8148" lon="3.44111">
        <ele>1176</ele>
        <time>2009-07-06T06:47:29Z</time>
      </trkpt>
      <trkpt lat="44.8148" lon="3.44112">
        <ele>1176</ele>
        <time>2009-07-06T06:47:38Z</time>
      </trkpt>
      <trkpt lat="44.81489" lon="3.44131">
        <ele>1178</ele>
        <time>2009-07-06T06:47:48Z</time>
      </trkpt>
      <trkpt lat="44.81489" lon="3.44136">
        <ele>1178</ele>
        <time>2009-07-06T06:47:50Z</time>
      </trkpt>
      <trkpt lat="44.81478" lon="3.44185">
        <ele>1176</ele>
        <time>2009-07-06T06:48:03Z</time>
      </trkpt>
      <trkpt lat="44.81478" lon="3.44186">
        <ele>1177</ele>
        <time>2009-07-06T06:48:34Z</time>
      </trkpt>
      <trkpt lat="44.81473" lon="3.44211">
        <ele>1175</ele>
        <time>2009-07-06T06:48:44Z</time>
      </trkpt>
      <trkpt lat="44.81464" lon="3.44245">
        <ele>1172</ele>
        <time>2009-07-06T06:48:49Z</time>
      </trkpt>
      <trkpt lat="44.81458" lon="3.44261">
        <ele>1170</ele>
        <time>2009-07-06T06:48:51Z</time>
      </trkpt>
      <trkpt lat="44.81449" lon="3.44277">
        <ele>1170</ele>
        <time>2009-07-06T06:48:53Z</time>
      </trkpt>
      <trkpt lat="44.81425" lon="3.44305">
        <ele>1168</ele>
        <time>2009-07-06T06:48:57Z</time>
      </trkpt>
      <trkpt lat="44.81403" lon="3.44346">
        <ele>1168</ele>
        <time>2009-07-06T06:49:03Z</time>
      </trkpt>
      <trkpt lat="44.81403" lon="3.4436">
        <ele>1168</ele>
        <time>2009-07-06T06:49:05Z</time>
      </trkpt>
      <trkpt lat="44.81397" lon="3.44428">
        <ele>1165</ele>
        <time>2009-07-06T06:49:16Z</time>
      </trkpt>
      <trkpt lat="44.81394" lon="3.44441">
        <ele>1166</ele>
        <time>2009-07-06T06:49:18Z</time>
      </trkpt>
      <trkpt lat="44.81376" lon="3.44465">
        <ele>1165</ele>
        <time>2009-07-06T06:49:24Z</time>
      </trkpt>
      <trkpt lat="44.8134" lon="3.44499">
        <ele>1167</ele>
        <time>2009-07-06T06:49:37Z</time>
      </trkpt>
      <trkpt lat="44.8132" lon="3.44535">
        <ele>1170</ele>
        <time>2009-07-06T06:49:50Z</time>
      </trkpt>
      <trkpt lat="44.81319" lon="3.44538">
        <ele>1171</ele>
        <time>2009-07-06T06:49:51Z</time>
      </trkpt>
      <trkpt lat="44.81298" lon="3.44549">
        <ele>1174</ele>
        <time>2009-07-06T06:50:03Z</time>
      </trkpt>
      <trkpt lat="44.81281" lon="3.44568">
        <ele>1177</ele>
        <time>2009-07-06T06:50:14Z</time>
      </trkpt>
      <trkpt lat="44.81261" lon="3.446">
        <ele>1181</ele>
        <time>2009-07-06T06:50:30Z</time>
      </trkpt>
      <trkpt lat="44.81259" lon="3.44604">
        <ele>1181</ele>
        <time>2009-07-06T06:50:32Z</time>
      </trkpt>
      <trkpt lat="44.81236" lon="3.44634">
        <ele>1184</ele>
        <time>2009-07-06T06:50:49Z</time>
      </trkpt>
      <trkpt lat="44.81211" lon="3.44671">
        <ele>1186</ele>
        <time>2009-07-06T06:51:08Z</time>
      </trkpt>
      <trkpt lat="44.81209" lon="3.44675">
        <ele>1187</ele>
        <time>2009-07-06T06:51:10Z</time>
      </trkpt>
      <trkpt lat="44.81183" lon="3.44701">
        <ele>1189</ele>
        <time>2009-07-06T06:51:26Z</time>
      </trkpt>
      <trkpt lat="44.81151" lon="3.44728">
        <ele>1193</ele>
        <time>2009-07-06T06:51:45Z</time>
      </trkpt>
      <trkpt lat="44.8112" lon="3.44747">
        <ele>1196</ele>
        <time>2009-07-06T06:52:01Z</time>
      </trkpt>
      <trkpt lat="44.81088" lon="3.44773">
        <ele>1198</ele>
        <time>2009-07-06T06:52:19Z</time>
      </trkpt>
      <trkpt lat="44.81054" lon="3.44814">
        <ele>1199</ele>
        <time>2009-07-06T06:52:38Z</time>
      </trkpt>
      <trkpt lat="44.81018" lon="3.44843">
        <ele>1200</ele>
        <time>2009-07-06T06:52:55Z</time>
      </trkpt>
      <trkpt lat="44.80973" lon="3.44869">
        <ele>1203</ele>
        <time>2009-07-06T06:53:16Z</time>
      </trkpt>
      <trkpt lat="44.8094" lon="3.44893">
        <ele>1206</ele>
        <time>2009-07-06T06:53:32Z</time>
      </trkpt>
      <trkpt lat="44.80916" lon="3.44916">
        <ele>1207</ele>
        <time>2009-07-06T06:53:49Z</time>
      </trkpt>
      <trkpt lat="44.80893" lon="3.44933">
        <ele>1208</ele>
        <time>2009-07-06T06:54:01Z</time>
      </trkpt>
      <trkpt lat="44.80856" lon="3.4494">
        <ele>1207</ele>
        <time>2009-07-06T06:54:15Z</time>
      </trkpt>
      <trkpt lat="44.80832" lon="3.44953">
        <ele>1206</ele>
        <time>2009-07-06T06:54:21Z</time>
      </trkpt>
      <trkpt lat="44.80805" lon="3.44979">
        <ele>1208</ele>
        <time>2009-07-06T06:54:31Z</time>
      </trkpt>
      <trkpt lat="44.80773" lon="3.45013">
        <ele>1210</ele>
        <time>2009-07-06T06:54:48Z</time>
      </trkpt>
      <trkpt lat="44.80751" lon="3.45037">
        <ele>1213</ele>
        <time>2009-07-06T06:55:00Z</time>
      </trkpt>
      <trkpt lat="44.80734" lon="3.45073">
        <ele>1214</ele>
        <time>2009-07-06T06:55:13Z</time>
      </trkpt>
      <trkpt lat="44.80717" lon="3.4512">
        <ele>1216</ele>
        <time>2009-07-06T06:55:29Z</time>
      </trkpt>
      <trkpt lat="44.80696" lon="3.45153">
        <ele>1217</ele>
        <time>2009-07-06T06:55:42Z</time>
      </trkpt>
      <trkpt lat="44.80666" lon="3.4518">
        <ele>1219</ele>
        <time>2009-07-06T06:55:55Z</time>
      </trkpt>
      <trkpt lat="44.80635" lon="3.45201">
        <ele>1218</ele>
        <time>2009-07-06T06:56:06Z</time>
      </trkpt>
      <trkpt lat="44.80604" lon="3.45212">
        <ele>1219</ele>
        <time>2009-07-06T06:56:18Z</time>
      </trkpt>
      <trkpt lat="44.8059" lon="3.45223">
        <ele>1222</ele>
        <time>2009-07-06T06:56:24Z</time>
      </trkpt>
      <trkpt lat="44.80578" lon="3.45232">
        <ele>1223</ele>
        <time>2009-07-06T06:56:31Z</time>
      </trkpt>
      <trkpt lat="44.80555" lon="3.45252">
        <ele>1225</ele>
        <time>2009-07-06T06:56:44Z</time>
      </trkpt>
      <trkpt lat="44.80527" lon="3.45277">
        <ele>1228</ele>
        <time>2009-07-06T06:57:00Z</time>
      </trkpt>
      <trkpt lat="44.80505" lon="3.45295">
        <ele>1229</ele>
        <time>2009-07-06T06:57:13Z</time>
      </trkpt>
      <trkpt lat="44.80489" lon="3.45308">
        <ele>1231</ele>
        <time>2009-07-06T06:57:22Z</time>
      </trkpt>
      <trkpt lat="44.80481" lon="3.45317">
        <ele>1232</ele>
        <time>2009-07-06T06:57:26Z</time>
      </trkpt>
      <trkpt lat="44.80451" lon="3.45334">
        <ele>1235</ele>
        <time>2009-07-06T06:57:41Z</time>
      </trkpt>
      <trkpt lat="44.80425" lon="3.45362">
        <ele>1236</ele>
        <time>2009-07-06T06:57:55Z</time>
      </trkpt>
      <trkpt lat="44.80392" lon="3.454">
        <ele>1238</ele>
        <time>2009-07-06T06:58:14Z</time>
      </trkpt>
      <trkpt lat="44.80379" lon="3.45425">
        <ele>1241</ele>
        <time>2009-07-06T06:58:24Z</time>
      </trkpt>
      <trkpt lat="44.80361" lon="3.45476">
        <ele>1242</ele>
        <time>2009-07-06T06:58:40Z</time>
      </trkpt>
      <trkpt lat="44.80335" lon="3.45521">
        <ele>1244</ele>
        <time>2009-07-06T06:58:58Z</time>
      </trkpt>
      <trkpt lat="44.80309" lon="3.45547">
        <ele>1247</ele>
        <time>2009-07-06T06:59:11Z</time>
      </trkpt>
      <trkpt lat="44.80279" lon="3.45573">
        <ele>1249</ele>
        <time>2009-07-06T06:59:26Z</time>
      </trkpt>
      <trkpt lat="44.80244" lon="3.45606">
        <ele>1252</ele>
        <time>2009-07-06T06:59:44Z</time>
      </trkpt>
      <trkpt lat="44.8022" lon="3.4562">
        <ele>1256</ele>
        <time>2009-07-06T06:59:56Z</time>
      </trkpt>
      <trkpt lat="44.80186" lon="3.45622">
        <ele>1258</ele>
        <time>2009-07-06T07:00:12Z</time>
      </trkpt>
      <trkpt lat="44.8015" lon="3.45639">
        <ele>1260</ele>
        <time>2009-07-06T07:00:29Z</time>
      </trkpt>
      <trkpt lat="44.80116" lon="3.45679">
        <ele>1263</ele>
        <time>2009-07-06T07:00:48Z</time>
      </trkpt>
      <trkpt lat="44.80098" lon="3.45707">
        <ele>1266</ele>
        <time>2009-07-06T07:01:00Z</time>
      </trkpt>
      <trkpt lat="44.80086" lon="3.45723">
        <ele>1269</ele>
        <time>2009-07-06T07:01:09Z</time>
      </trkpt>
      <trkpt lat="44.80071" lon="3.45751">
        <ele>1272</ele>
        <time>2009-07-06T07:01:23Z</time>
      </trkpt>
      <trkpt lat="44.80045" lon="3.45761">
        <ele>1275</ele>
        <time>2009-07-06T07:01:38Z</time>
      </trkpt>
      <trkpt lat="44.80015" lon="3.45769">
        <ele>1277</ele>
        <time>2009-07-06T07:01:53Z</time>
      </trkpt>
      <trkpt lat="44.79984" lon="3.45778">
        <ele>1279</ele>
        <time>2009-07-06T07:02:09Z</time>
      </trkpt>
      <trkpt lat="44.79964" lon="3.45788">
        <ele>1282</ele>
        <time>2009-07-06T07:02:20Z</time>
      </trkpt>
      <trkpt lat="44.79938" lon="3.4581">
        <ele>1285</ele>
        <time>2009-07-06T07:02:35Z</time>
      </trkpt>
      <trkpt lat="44.79908" lon="3.45837">
        <ele>1288</ele>
        <time>2009-07-06T07:02:52Z</time>
      </trkpt>
      <trkpt lat="44.79873" lon="3.45864">
        <ele>1289</ele>
        <time>2009-07-06T07:03:10Z</time>
      </trkpt>
      <trkpt lat="44.79838" lon="3.4589">
        <ele>1292</ele>
        <time>2009-07-06T07:03:26Z</time>
      </trkpt>
      <trkpt lat="44.79836" lon="3.45891">
        <ele>1290</ele>
        <time>2009-07-06T07:03:29Z</time>
      </trkpt>
      <trkpt lat="44.79836" lon="3.45893">
        <ele>1292</ele>
        <time>2009-07-06T07:05:14Z</time>
      </trkpt>
      <trkpt lat="44.79824" lon="3.45882">
        <ele>1292</ele>
        <time>2009-07-06T07:05:29Z</time>
      </trkpt>
      <trkpt lat="44.79823" lon="3.45883">
        <ele>1292</ele>
        <time>2009-07-06T07:06:33Z</time>
      </trkpt>
      <trkpt lat="44.79823" lon="3.45883">
        <ele>1293</ele>
        <time>2009-07-06T07:07:15Z</time>
      </trkpt>
      <trkpt lat="44.79824" lon="3.45883">
        <ele>1293</ele>
        <time>2009-07-06T07:08:03Z</time>
      </trkpt>
      <trkpt lat="44.79824" lon="3.45882">
        <ele>1292</ele>
        <time>2009-07-06T07:08:42Z</time>
      </trkpt>
      <trkpt lat="44.79807" lon="3.45891">
        <ele>1293</ele>
        <time>2009-07-06T07:08:51Z</time>
      </trkpt>
      <trkpt lat="44.79755" lon="3.45943">
        <ele>1289</ele>
        <time>2009-07-06T07:09:07Z</time>
      </trkpt>
      <trkpt lat="44.79722" lon="3.45983">
        <ele>1286</ele>
        <time>2009-07-06T07:09:15Z</time>
      </trkpt>
      <trkpt lat="44.79702" lon="3.46004">
        <ele>1283</ele>
        <time>2009-07-06T07:09:19Z</time>
      </trkpt>
      <trkpt lat="44.79693" lon="3.46016">
        <ele>1282</ele>
        <time>2009-07-06T07:09:21Z</time>
      </trkpt>
      <trkpt lat="44.79663" lon="3.46048">
        <ele>1278</ele>
        <time>2009-07-06T07:09:26Z</time>
      </trkpt>
      <trkpt lat="44.79643" lon="3.46065">
        <ele>1276</ele>
        <time>2009-07-06T07:09:29Z</time>
      </trkpt>
      <trkpt lat="44.79618" lon="3.46106">
        <ele>1272</ele>
        <time>2009-07-06T07:09:34Z</time>
      </trkpt>
      <trkpt lat="44.79606" lon="3.46123">
        <ele>1270</ele>
        <time>2009-07-06T07:09:36Z</time>
      </trkpt>
      <trkpt lat="44.79599" lon="3.4613">
        <ele>1269</ele>
        <time>2009-07-06T07:09:37Z</time>
      </trkpt>
      <trkpt lat="44.79543" lon="3.46175">
        <ele>1269</ele>
        <time>2009-07-06T07:09:45Z</time>
      </trkpt>
      <trkpt lat="44.79449" lon="3.46243">
        <ele>1267</ele>
        <time>2009-07-06T07:10:00Z</time>
      </trkpt>
      <trkpt lat="44.79403" lon="3.46276">
        <ele>1264</ele>
        <time>2009-07-06T07:10:07Z</time>
      </trkpt>
      <trkpt lat="44.79388" lon="3.46286">
        <ele>1262</ele>
        <time>2009-07-06T07:10:09Z</time>
      </trkpt>
      <trkpt lat="44.79361" lon="3.46316">
        <ele>1258</ele>
        <time>2009-07-06T07:10:13Z</time>
      </trkpt>
      <trkpt lat="44.79347" lon="3.46335">
        <ele>1256</ele>
        <time>2009-07-06T07:10:15Z</time>
      </trkpt>
      <trkpt lat="44.7933" lon="3.46351">
        <ele>1255</ele>
        <time>2009-07-06T07:10:17Z</time>
      </trkpt>
      <trkpt lat="44.793" lon="3.46383">
        <ele>1254</ele>
        <time>2009-07-06T07:10:21Z</time>
      </trkpt>
      <trkpt lat="44.79261" lon="3.46409">
        <ele>1256</ele>
        <time>2009-07-06T07:10:27Z</time>
      </trkpt>
      <trkpt lat="44.79248" lon="3.46422">
        <ele>1258</ele>
        <time>2009-07-06T07:10:30Z</time>
      </trkpt>
      <trkpt lat="44.79199" lon="3.46473">
        <ele>1261</ele>
        <time>2009-07-06T07:10:43Z</time>
      </trkpt>
      <trkpt lat="44.79154" lon="3.46534">
        <ele>1259</ele>
        <time>2009-07-06T07:10:56Z</time>
      </trkpt>
      <trkpt lat="44.79144" lon="3.46548">
        <ele>1256</ele>
        <time>2009-07-06T07:10:58Z</time>
      </trkpt>
      <trkpt lat="44.79139" lon="3.46554">
        <ele>1256</ele>
        <time>2009-07-06T07:10:59Z</time>
      </trkpt>
      <trkpt lat="44.79111" lon="3.46586">
        <ele>1252</ele>
        <time>2009-07-06T07:11:04Z</time>
      </trkpt>
      <trkpt lat="44.791" lon="3.46601">
        <ele>1252</ele>
        <time>2009-07-06T07:11:06Z</time>
      </trkpt>
      <trkpt lat="44.79084" lon="3.46624">
        <ele>1251</ele>
        <time>2009-07-06T07:11:10Z</time>
      </trkpt>
      <trkpt lat="44.79081" lon="3.46624">
        <ele>1252</ele>
        <time>2009-07-06T07:11:24Z</time>
      </trkpt>
      <trkpt lat="44.79083" lon="3.46622">
        <ele>1252</ele>
        <time>2009-07-06T07:12:51Z</time>
      </trkpt>
      <trkpt lat="44.79081" lon="3.46622">
        <ele>1250</ele>
        <time>2009-07-06T07:13:24Z</time>
      </trkpt>
      <trkpt lat="44.79076" lon="3.46625">
        <ele>1251</ele>
        <time>2009-07-06T07:13:35Z</time>
      </trkpt>
      <trkpt lat="44.79076" lon="3.46625">
        <ele>1251</ele>
        <time>2009-07-06T07:13:38Z</time>
      </trkpt>
      <trkpt lat="44.79081" lon="3.46569">
        <ele>1251</ele>
        <time>2009-07-06T07:13:51Z</time>
      </trkpt>
      <trkpt lat="44.79087" lon="3.46491">
        <ele>1250</ele>
        <time>2009-07-06T07:14:04Z</time>
      </trkpt>
      <trkpt lat="44.79083" lon="3.46389">
        <ele>1250</ele>
        <time>2009-07-06T07:14:20Z</time>
      </trkpt>
      <trkpt lat="44.79093" lon="3.46351">
        <ele>1252</ele>
        <time>2009-07-06T07:14:31Z</time>
      </trkpt>
      <trkpt lat="44.79093" lon="3.46352">
        <ele>1251</ele>
        <time>2009-07-06T07:14:44Z</time>
      </trkpt>
      <trkpt lat="44.79099" lon="3.46348">
        <ele>1251</ele>
        <time>2009-07-06T07:14:48Z</time>
      </trkpt>
      <trkpt lat="44.79142" lon="3.46329">
        <ele>1252</ele>
        <time>2009-07-06T07:15:01Z</time>
      </trkpt>
      <trkpt lat="44.79169" lon="3.4632">
        <ele>1251</ele>
        <time>2009-07-06T07:15:10Z</time>
      </trkpt>
      <trkpt lat="44.79163" lon="3.46318">
        <ele>1252</ele>
        <time>2009-07-06T07:15:15Z</time>
      </trkpt>
      <trkpt lat="44.79119" lon="3.46337">
        <ele>1251</ele>
        <time>2009-07-06T07:15:25Z</time>
      </trkpt>
      <trkpt lat="44.79106" lon="3.46346">
        <ele>1251</ele>
        <time>2009-07-06T07:15:28Z</time>
      </trkpt>
      <trkpt lat="44.79098" lon="3.46352">
        <ele>1252</ele>
        <time>2009-07-06T07:15:30Z</time>
      </trkpt>
      <trkpt lat="44.79096" lon="3.46336">
        <ele>1249</ele>
        <time>2009-07-06T07:15:35Z</time>
      </trkpt>
      <trkpt lat="44.79118" lon="3.4627">
        <ele>1247</ele>
        <time>2009-07-06T07:15:45Z</time>
      </trkpt>
      <trkpt lat="44.79133" lon="3.46246">
        <ele>1245</ele>
        <time>2009-07-06T07:15:49Z</time>
      </trkpt>
      <trkpt lat="44.79136" lon="3.46241">
        <ele>1245</ele>
        <time>2009-07-06T07:15:50Z</time>
      </trkpt>
      <trkpt lat="44.79124" lon="3.46208">
        <ele>1244</ele>
        <time>2009-07-06T07:15:56Z</time>
      </trkpt>
      <trkpt lat="44.79105" lon="3.4618">
        <ele>1242</ele>
        <time>2009-07-06T07:16:00Z</time>
      </trkpt>
      <trkpt lat="44.79097" lon="3.46139">
        <ele>1239</ele>
        <time>2009-07-06T07:16:04Z</time>
      </trkpt>
      <trkpt lat="44.79074" lon="3.46048">
        <ele>1233</ele>
        <time>2009-07-06T07:16:12Z</time>
      </trkpt>
      <trkpt lat="44.79067" lon="3.46021">
        <ele>1229</ele>
        <time>2009-07-06T07:16:14Z</time>
      </trkpt>
      <trkpt lat="44.79062" lon="3.45977">
        <ele>1226</ele>
        <time>2009-07-06T07:16:17Z</time>
      </trkpt>
      <trkpt lat="44.79044" lon="3.45901">
        <ele>1222</ele>
        <time>2009-07-06T07:16:22Z</time>
      </trkpt>
      <trkpt lat="44.79036" lon="3.45872">
        <ele>1223</ele>
        <time>2009-07-06T07:16:24Z</time>
      </trkpt>
      <trkpt lat="44.79015" lon="3.45826">
        <ele>1227</ele>
        <time>2009-07-06T07:16:29Z</time>
      </trkpt>
      <trkpt lat="44.79008" lon="3.45814">
        <ele>1229</ele>
        <time>2009-07-06T07:16:31Z</time>
      </trkpt>
      <trkpt lat="44.79003" lon="3.45804">
        <ele>1230</ele>
        <time>2009-07-06T07:16:33Z</time>
      </trkpt>
      <trkpt lat="44.78997" lon="3.45791">
        <ele>1232</ele>
        <time>2009-07-06T07:16:36Z</time>
      </trkpt>
      <trkpt lat="44.78992" lon="3.45783">
        <ele>1234</ele>
        <time>2009-07-06T07:16:38Z</time>
      </trkpt>
      <trkpt lat="44.78965" lon="3.4573">
        <ele>1235</ele>
        <time>2009-07-06T07:16:52Z</time>
      </trkpt>
      <trkpt lat="44.78928" lon="3.45681">
        <ele>1236</ele>
        <time>2009-07-06T07:17:07Z</time>
      </trkpt>
      <trkpt lat="44.78888" lon="3.45657">
        <ele>1235</ele>
        <time>2009-07-06T07:17:17Z</time>
      </trkpt>
      <trkpt lat="44.78868" lon="3.45644">
        <ele>1232</ele>
        <time>2009-07-06T07:17:21Z</time>
      </trkpt>
      <trkpt lat="44.78832" lon="3.45607">
        <ele>1229</ele>
        <time>2009-07-06T07:17:29Z</time>
      </trkpt>
      <trkpt lat="44.78826" lon="3.45603">
        <ele>1229</ele>
        <time>2009-07-06T07:17:30Z</time>
      </trkpt>
      <trkpt lat="44.7882" lon="3.45598">
        <ele>1228</ele>
        <time>2009-07-06T07:17:31Z</time>
      </trkpt>
      <trkpt lat="44.78786" lon="3.45572">
        <ele>1224</ele>
        <time>2009-07-06T07:17:36Z</time>
      </trkpt>
      <trkpt lat="44.78732" lon="3.45513">
        <ele>1223</ele>
        <time>2009-07-06T07:17:45Z</time>
      </trkpt>
      <trkpt lat="44.78689" lon="3.45469">
        <ele>1225</ele>
        <time>2009-07-06T07:17:55Z</time>
      </trkpt>
      <trkpt lat="44.78638" lon="3.45418">
        <ele>1223</ele>
        <time>2009-07-06T07:18:07Z</time>
      </trkpt>
      <trkpt lat="44.78628" lon="3.45408">
        <ele>1222</ele>
        <time>2009-07-06T07:18:09Z</time>
      </trkpt>
      <trkpt lat="44.78605" lon="3.45402">
        <ele>1216</ele>
        <time>2009-07-06T07:18:13Z</time>
      </trkpt>
      <trkpt lat="44.78588" lon="3.45399">
        <ele>1215</ele>
        <time>2009-07-06T07:18:15Z</time>
      </trkpt>
      <trkpt lat="44.78558" lon="3.454">
        <ele>1217</ele>
        <time>2009-07-06T07:18:19Z</time>
      </trkpt>
      <trkpt lat="44.78536" lon="3.45397">
        <ele>1218</ele>
        <time>2009-07-06T07:18:23Z</time>
      </trkpt>
      <trkpt lat="44.78529" lon="3.45389">
        <ele>1220</ele>
        <time>2009-07-06T07:18:25Z</time>
      </trkpt>
      <trkpt lat="44.78509" lon="3.45332">
        <ele>1223</ele>
        <time>2009-07-06T07:18:38Z</time>
      </trkpt>
      <trkpt lat="44.78491" lon="3.45257">
        <ele>1224</ele>
        <time>2009-07-06T07:18:57Z</time>
      </trkpt>
      <trkpt lat="44.78477" lon="3.45198">
        <ele>1225</ele>
        <time>2009-07-06T07:19:11Z</time>
      </trkpt>
      <trkpt lat="44.78465" lon="3.4514">
        <ele>1225</ele>
        <time>2009-07-06T07:19:24Z</time>
      </trkpt>
      <trkpt lat="44.78449" lon="3.4506">
        <ele>1224</ele>
        <time>2009-07-06T07:19:40Z</time>
      </trkpt>
      <trkpt lat="44.78431" lon="3.44998">
        <ele>1226</ele>
        <time>2009-07-06T07:19:54Z</time>
      </trkpt>
      <trkpt lat="44.78385" lon="3.44943">
        <ele>1228</ele>
        <time>2009-07-06T07:20:11Z</time>
      </trkpt>
      <trkpt lat="44.78345" lon="3.449">
        <ele>1229</ele>
        <time>2009-07-06T07:20:27Z</time>
      </trkpt>
      <trkpt lat="44.7831" lon="3.44876">
        <ele>1230</ele>
        <time>2009-07-06T07:20:42Z</time>
      </trkpt>
      <trkpt lat="44.78269" lon="3.44857">
        <ele>1230</ele>
        <time>2009-07-06T07:20:57Z</time>
      </trkpt>
      <trkpt lat="44.78223" lon="3.44837">
        <ele>1230</ele>
        <time>2009-07-06T07:21:14Z</time>
      </trkpt>
      <trkpt lat="44.78182" lon="3.44807">
        <ele>1231</ele>
        <time>2009-07-06T07:21:31Z</time>
      </trkpt>
      <trkpt lat="44.78163" lon="3.44781">
        <ele>1234</ele>
        <time>2009-07-06T07:21:41Z</time>
      </trkpt>
      <trkpt lat="44.78132" lon="3.4473">
        <ele>1237</ele>
        <time>2009-07-06T07:21:56Z</time>
      </trkpt>
      <trkpt lat="44.7809" lon="3.44666">
        <ele>1239</ele>
        <time>2009-07-06T07:22:16Z</time>
      </trkpt>
      <trkpt lat="44.7807" lon="3.4464">
        <ele>1242</ele>
        <time>2009-07-06T07:22:28Z</time>
      </trkpt>
      <trkpt lat="44.78047" lon="3.44607">
        <ele>1245</ele>
        <time>2009-07-06T07:22:42Z</time>
      </trkpt>
      <trkpt lat="44.78028" lon="3.44573">
        <ele>1246</ele>
        <time>2009-07-06T07:22:56Z</time>
      </trkpt>
      <trkpt lat="44.78013" lon="3.44546">
        <ele>1247</ele>
        <time>2009-07-06T07:23:08Z</time>
      </trkpt>
      <trkpt lat="44.78013" lon="3.44545">
        <ele>1247</ele>
        <time>2009-07-06T07:23:26Z</time>
      </trkpt>
      <trkpt lat="44.78032" lon="3.44528">
        <ele>1247</ele>
        <time>2009-07-06T07:23:38Z</time>
      </trkpt>
      <trkpt lat="44.7806" lon="3.44488">
        <ele>1249</ele>
        <time>2009-07-06T07:23:54Z</time>
      </trkpt>
      <trkpt lat="44.78068" lon="3.44436">
        <ele>1249</ele>
        <time>2009-07-06T07:24:06Z</time>
      </trkpt>
      <trkpt lat="44.78073" lon="3.44413">
        <ele>1249</ele>
        <time>2009-07-06T07:24:11Z</time>
      </trkpt>
      <trkpt lat="44.78073" lon="3.4439">
        <ele>1248</ele>
        <time>2009-07-06T07:24:15Z</time>
      </trkpt>
      <trkpt lat="44.78086" lon="3.44322">
        <ele>1246</ele>
        <time>2009-07-06T07:24:29Z</time>
      </trkpt>
      <trkpt lat="44.78105" lon="3.4427">
        <ele>1246</ele>
        <time>2009-07-06T07:24:43Z</time>
      </trkpt>
      <trkpt lat="44.78107" lon="3.44266">
        <ele>1245</ele>
        <time>2009-07-06T07:24:44Z</time>
      </trkpt>
      <trkpt lat="44.781" lon="3.44251">
        <ele>1244</ele>
        <time>2009-07-06T07:24:49Z</time>
      </trkpt>
      <trkpt lat="44.78072" lon="3.44203">
        <ele>1241</ele>
        <time>2009-07-06T07:25:02Z</time>
      </trkpt>
      <trkpt lat="44.78042" lon="3.44138">
        <ele>1242</ele>
        <time>2009-07-06T07:25:19Z</time>
      </trkpt>
      <trkpt lat="44.78021" lon="3.44082">
        <ele>1242</ele>
        <time>2009-07-06T07:25:33Z</time>
      </trkpt>
      <trkpt lat="44.78006" lon="3.44003">
        <ele>1243</ele>
        <time>2009-07-06T07:25:50Z</time>
      </trkpt>
      <trkpt lat="44.78028" lon="3.43939">
        <ele>1243</ele>
        <time>2009-07-06T07:26:04Z</time>
      </trkpt>
      <trkpt lat="44.78048" lon="3.43902">
        <ele>1243</ele>
        <time>2009-07-06T07:26:12Z</time>
      </trkpt>
      <trkpt lat="44.78058" lon="3.43876">
        <ele>1240</ele>
        <time>2009-07-06T07:26:16Z</time>
      </trkpt>
      <trkpt lat="44.78065" lon="3.4386">
        <ele>1238</ele>
        <time>2009-07-06T07:26:18Z</time>
      </trkpt>
      <trkpt lat="44.78063" lon="3.4382">
        <ele>1234</ele>
        <time>2009-07-06T07:26:23Z</time>
      </trkpt>
      <trkpt lat="44.78049" lon="3.43806">
        <ele>1231</ele>
        <time>2009-07-06T07:26:25Z</time>
      </trkpt>
      <trkpt lat="44.78027" lon="3.43759">
        <ele>1226</ele>
        <time>2009-07-06T07:26:31Z</time>
      </trkpt>
      <trkpt lat="44.78026" lon="3.43749">
        <ele>1226</ele>
        <time>2009-07-06T07:26:32Z</time>
      </trkpt>
      <trkpt lat="44.78016" lon="3.43734">
        <ele>1226</ele>
        <time>2009-07-06T07:26:34Z</time>
      </trkpt>
      <trkpt lat="44.7799" lon="3.43698">
        <ele>1222</ele>
        <time>2009-07-06T07:26:39Z</time>
      </trkpt>
      <trkpt lat="44.77989" lon="3.43686">
        <ele>1221</ele>
        <time>2009-07-06T07:26:41Z</time>
      </trkpt>
      <trkpt lat="44.77996" lon="3.43659">
        <ele>1221</ele>
        <time>2009-07-06T07:26:47Z</time>
      </trkpt>
      <trkpt lat="44.77996" lon="3.43662">
        <ele>1221</ele>
        <time>2009-07-06T07:26:54Z</time>
      </trkpt>
      <trkpt lat="44.77996" lon="3.43674">
        <ele>1219</ele>
        <time>2009-07-06T07:26:58Z</time>
      </trkpt>
      <trkpt lat="44.77991" lon="3.4369">
        <ele>1221</ele>
        <time>2009-07-06T07:27:04Z</time>
      </trkpt>
      <trkpt lat="44.77993" lon="3.43704">
        <ele>1222</ele>
        <time>2009-07-06T07:27:09Z</time>
      </trkpt>
      <trkpt lat="44.78004" lon="3.43724">
        <ele>1225</ele>
        <time>2009-07-06T07:27:17Z</time>
      </trkpt>
      <trkpt lat="44.78031" lon="3.43765">
        <ele>1228</ele>
        <time>2009-07-06T07:27:32Z</time>
      </trkpt>
      <trkpt lat="44.78029" lon="3.43783">
        <ele>1230</ele>
        <time>2009-07-06T07:27:37Z</time>
      </trkpt>
      <trkpt lat="44.78039" lon="3.43803">
        <ele>1232</ele>
        <time>2009-07-06T07:27:45Z</time>
      </trkpt>
      <trkpt lat="44.78048" lon="3.4381">
        <ele>1233</ele>
        <time>2009-07-06T07:27:49Z</time>
      </trkpt>
      <trkpt lat="44.78063" lon="3.43826">
        <ele>1236</ele>
        <time>2009-07-06T07:27:58Z</time>
      </trkpt>
      <trkpt lat="44.7807" lon="3.43847">
        <ele>1238</ele>
        <time>2009-07-06T07:28:10Z</time>
      </trkpt>
      <trkpt lat="44.78058" lon="3.43876">
        <ele>1240</ele>
        <time>2009-07-06T07:28:23Z</time>
      </trkpt>
      <trkpt lat="44.78052" lon="3.43894">
        <ele>1242</ele>
        <time>2009-07-06T07:28:29Z</time>
      </trkpt>
      <trkpt lat="44.78049" lon="3.43899">
        <ele>1243</ele>
        <time>2009-07-06T07:28:40Z</time>
      </trkpt>
      <trkpt lat="44.78049" lon="3.43898">
        <ele>1243</ele>
        <time>2009-07-06T07:28:51Z</time>
      </trkpt>
      <trkpt lat="44.78062" lon="3.43862">
        <ele>1239</ele>
        <time>2009-07-06T07:29:01Z</time>
      </trkpt>
      <trkpt lat="44.78067" lon="3.43852">
        <ele>1238</ele>
        <time>2009-07-06T07:29:03Z</time>
      </trkpt>
      <trkpt lat="44.78072" lon="3.43837">
        <ele>1238</ele>
        <time>2009-07-06T07:29:11Z</time>
      </trkpt>
      <trkpt lat="44.78072" lon="3.43836">
        <ele>1238</ele>
        <time>2009-07-06T07:29:33Z</time>
      </trkpt>
      <trkpt lat="44.78063" lon="3.43823">
        <ele>1234</ele>
        <time>2009-07-06T07:29:38Z</time>
      </trkpt>
      <trkpt lat="44.78058" lon="3.43818">
        <ele>1233</ele>
        <time>2009-07-06T07:29:39Z</time>
      </trkpt>
      <trkpt lat="44.78038" lon="3.43799">
        <ele>1231</ele>
        <time>2009-07-06T07:29:43Z</time>
      </trkpt>
      <trkpt lat="44.78029" lon="3.4378">
        <ele>1227</ele>
        <time>2009-07-06T07:29:46Z</time>
      </trkpt>
      <trkpt lat="44.78017" lon="3.43737">
        <ele>1226</ele>
        <time>2009-07-06T07:29:51Z</time>
      </trkpt>
      <trkpt lat="44.7799" lon="3.43686">
        <ele>1223</ele>
        <time>2009-07-06T07:29:58Z</time>
      </trkpt>
      <trkpt lat="44.77994" lon="3.43671">
        <ele>1222</ele>
        <time>2009-07-06T07:30:00Z</time>
      </trkpt>
      <trkpt lat="44.77996" lon="3.43656">
        <ele>1222</ele>
        <time>2009-07-06T07:30:02Z</time>
      </trkpt>
      <trkpt lat="44.77987" lon="3.43591">
        <ele>1221</ele>
        <time>2009-07-06T07:30:12Z</time>
      </trkpt>
      <trkpt lat="44.7799" lon="3.43535">
        <ele>1220</ele>
        <time>2009-07-06T07:30:21Z</time>
      </trkpt>
      <trkpt lat="44.78" lon="3.43513">
        <ele>1220</ele>
        <time>2009-07-06T07:30:25Z</time>
      </trkpt>
      <trkpt lat="44.78014" lon="3.43489">
        <ele>1221</ele>
        <time>2009-07-06T07:30:31Z</time>
      </trkpt>
      <trkpt lat="44.78046" lon="3.43453">
        <ele>1221</ele>
        <time>2009-07-06T07:30:40Z</time>
      </trkpt>
      <trkpt lat="44.78056" lon="3.4343">
        <ele>1220</ele>
        <time>2009-07-06T07:30:44Z</time>
      </trkpt>
      <trkpt lat="44.78078" lon="3.4339">
        <ele>1221</ele>
        <time>2009-07-06T07:30:52Z</time>
      </trkpt>
      <trkpt lat="44.78114" lon="3.43334">
        <ele>1220</ele>
        <time>2009-07-06T07:31:04Z</time>
      </trkpt>
      <trkpt lat="44.78132" lon="3.43315">
        <ele>1219</ele>
        <time>2009-07-06T07:31:08Z</time>
      </trkpt>
      <trkpt lat="44.78146" lon="3.43305">
        <ele>1220</ele>
        <time>2009-07-06T07:31:11Z</time>
      </trkpt>
      <trkpt lat="44.78154" lon="3.43298">
        <ele>1220</ele>
        <time>2009-07-06T07:31:13Z</time>
      </trkpt>
      <trkpt lat="44.78166" lon="3.43281">
        <ele>1217</ele>
        <time>2009-07-06T07:31:16Z</time>
      </trkpt>
      <trkpt lat="44.78177" lon="3.43259">
        <ele>1215</ele>
        <time>2009-07-06T07:31:19Z</time>
      </trkpt>
      <trkpt lat="44.78192" lon="3.43225">
        <ele>1212</ele>
        <time>2009-07-06T07:31:23Z</time>
      </trkpt>
      <trkpt lat="44.78216" lon="3.43156">
        <ele>1205</ele>
        <time>2009-07-06T07:31:29Z</time>
      </trkpt>
      <trkpt lat="44.78219" lon="3.43143">
        <ele>1205</ele>
        <time>2009-07-06T07:31:30Z</time>
      </trkpt>
      <trkpt lat="44.78238" lon="3.43096">
        <ele>1203</ele>
        <time>2009-07-06T07:31:34Z</time>
      </trkpt>
      <trkpt lat="44.78249" lon="3.43076">
        <ele>1202</ele>
        <time>2009-07-06T07:31:36Z</time>
      </trkpt>
      <trkpt lat="44.7826" lon="3.43055">
        <ele>1200</ele>
        <time>2009-07-06T07:31:38Z</time>
      </trkpt>
      <trkpt lat="44.78277" lon="3.42998">
        <ele>1199</ele>
        <time>2009-07-06T07:31:43Z</time>
      </trkpt>
      <trkpt lat="44.78311" lon="3.42938">
        <ele>1195</ele>
        <time>2009-07-06T07:31:49Z</time>
      </trkpt>
      <trkpt lat="44.78327" lon="3.4289">
        <ele>1191</ele>
        <time>2009-07-06T07:31:53Z</time>
      </trkpt>
      <trkpt lat="44.78329" lon="3.42877">
        <ele>1191</ele>
        <time>2009-07-06T07:31:54Z</time>
      </trkpt>
      <trkpt lat="44.7833" lon="3.42831">
        <ele>1191</ele>
        <time>2009-07-06T07:31:58Z</time>
      </trkpt>
      <trkpt lat="44.78349" lon="3.42786">
        <ele>1186</ele>
        <time>2009-07-06T07:32:04Z</time>
      </trkpt>
      <trkpt lat="44.78356" lon="3.42779">
        <ele>1186</ele>
        <time>2009-07-06T07:32:05Z</time>
      </trkpt>
      <trkpt lat="44.78371" lon="3.42769">
        <ele>1183</ele>
        <time>2009-07-06T07:32:07Z</time>
      </trkpt>
      <trkpt lat="44.78387" lon="3.42762">
        <ele>1182</ele>
        <time>2009-07-06T07:32:09Z</time>
      </trkpt>
      <trkpt lat="44.78422" lon="3.42749">
        <ele>1181</ele>
        <time>2009-07-06T07:32:16Z</time>
      </trkpt>
      <trkpt lat="44.78422" lon="3.4275">
        <ele>1182</ele>
        <time>2009-07-06T07:32:36Z</time>
      </trkpt>
      <trkpt lat="44.78426" lon="3.4275">
        <ele>1182</ele>
        <time>2009-07-06T07:32:45Z</time>
      </trkpt>
      <trkpt lat="44.78428" lon="3.4275">
        <ele>1181</ele>
        <time>2009-07-06T07:33:58Z</time>
      </trkpt>
      <trkpt lat="44.78428" lon="3.42749">
        <ele>1182</ele>
        <time>2009-07-06T07:34:28Z</time>
      </trkpt>
      <trkpt lat="44.78428" lon="3.42751">
        <ele>1182</ele>
        <time>2009-07-06T07:35:53Z</time>
      </trkpt>
      <trkpt lat="44.78427" lon="3.42751">
        <ele>1182</ele>
        <time>2009-07-06T07:36:51Z</time>
      </trkpt>
      <trkpt lat="44.78438" lon="3.42756">
        <ele>1181</ele>
        <time>2009-07-06T07:37:17Z</time>
      </trkpt>
      <trkpt lat="44.78487" lon="3.42781">
        <ele>1180</ele>
        <time>2009-07-06T07:37:31Z</time>
      </trkpt>
      <trkpt lat="44.78512" lon="3.4279">
        <ele>1176</ele>
        <time>2009-07-06T07:37:39Z</time>
      </trkpt>
      <trkpt lat="44.78515" lon="3.4279">
        <ele>1176</ele>
        <time>2009-07-06T07:37:40Z</time>
      </trkpt>
      <trkpt lat="44.78532" lon="3.42791">
        <ele>1174</ele>
        <time>2009-07-06T07:37:46Z</time>
      </trkpt>
      <trkpt lat="44.78575" lon="3.42788">
        <ele>1173</ele>
        <time>2009-07-06T07:37:58Z</time>
      </trkpt>
      <trkpt lat="44.78582" lon="3.42788">
        <ele>1174</ele>
        <time>2009-07-06T07:38:01Z</time>
      </trkpt>
      <trkpt lat="44.7858" lon="3.42783">
        <ele>1173</ele>
        <time>2009-07-06T07:38:05Z</time>
      </trkpt>
      <trkpt lat="44.78548" lon="3.42783">
        <ele>1174</ele>
        <time>2009-07-06T07:38:17Z</time>
      </trkpt>
      <trkpt lat="44.78541" lon="3.42785">
        <ele>1174</ele>
        <time>2009-07-06T07:38:30Z</time>
      </trkpt>
      <trkpt lat="44.78539" lon="3.42786">
        <ele>1175</ele>
        <time>2009-07-06T07:38:31Z</time>
      </trkpt>
      <trkpt lat="44.78535" lon="3.42773">
        <ele>1173</ele>
        <time>2009-07-06T07:38:36Z</time>
      </trkpt>
      <trkpt lat="44.78533" lon="3.42768">
        <ele>1173</ele>
        <time>2009-07-06T07:38:37Z</time>
      </trkpt>
      <trkpt lat="44.78507" lon="3.42742">
        <ele>1172</ele>
        <time>2009-07-06T07:38:44Z</time>
      </trkpt>
      <trkpt lat="44.78499" lon="3.42739">
        <ele>1173</ele>
        <time>2009-07-06T07:38:46Z</time>
      </trkpt>
      <trkpt lat="44.78456" lon="3.42702">
        <ele>1174</ele>
        <time>2009-07-06T07:39:01Z</time>
      </trkpt>
      <trkpt lat="44.78451" lon="3.42687">
        <ele>1170</ele>
        <time>2009-07-06T07:39:05Z</time>
      </trkpt>
      <trkpt lat="44.78448" lon="3.42658">
        <ele>1166</ele>
        <time>2009-07-06T07:39:09Z</time>
      </trkpt>
      <trkpt lat="44.78447" lon="3.42649">
        <ele>1165</ele>
        <time>2009-07-06T07:39:10Z</time>
      </trkpt>
      <trkpt lat="44.78443" lon="3.42627">
        <ele>1161</ele>
        <time>2009-07-06T07:39:12Z</time>
      </trkpt>
      <trkpt lat="44.78426" lon="3.42597">
        <ele>1158</ele>
        <time>2009-07-06T07:39:15Z</time>
      </trkpt>
      <trkpt lat="44.78413" lon="3.42579">
        <ele>1155</ele>
        <time>2009-07-06T07:39:17Z</time>
      </trkpt>
      <trkpt lat="44.78409" lon="3.42572">
        <ele>1155</ele>
        <time>2009-07-06T07:39:18Z</time>
      </trkpt>
      <trkpt lat="44.784" lon="3.42543">
        <ele>1148</ele>
        <time>2009-07-06T07:39:21Z</time>
      </trkpt>
      <trkpt lat="44.78397" lon="3.42511">
        <ele>1146</ele>
        <time>2009-07-06T07:39:24Z</time>
      </trkpt>
      <trkpt lat="44.78391" lon="3.42497">
        <ele>1146</ele>
        <time>2009-07-06T07:39:28Z</time>
      </trkpt>
      <trkpt lat="44.78382" lon="3.42493">
        <ele>1144</ele>
        <time>2009-07-06T07:39:36Z</time>
      </trkpt>
      <trkpt lat="44.78382" lon="3.42493">
        <ele>1144</ele>
        <time>2009-07-06T07:39:44Z</time>
      </trkpt>
      <trkpt lat="44.78387" lon="3.42497">
        <ele>1145</ele>
        <time>2009-07-06T07:39:49Z</time>
      </trkpt>
      <trkpt lat="44.78396" lon="3.42506">
        <ele>1146</ele>
        <time>2009-07-06T07:39:58Z</time>
      </trkpt>
      <trkpt lat="44.78403" lon="3.42502">
        <ele>1144</ele>
        <time>2009-07-06T07:40:02Z</time>
      </trkpt>
      <trkpt lat="44.78413" lon="3.42496">
        <ele>1142</ele>
        <time>2009-07-06T07:40:05Z</time>
      </trkpt>
      <trkpt lat="44.78416" lon="3.42488">
        <ele>1141</ele>
        <time>2009-07-06T07:40:07Z</time>
      </trkpt>
      <trkpt lat="44.78417" lon="3.42469">
        <ele>1139</ele>
        <time>2009-07-06T07:40:11Z</time>
      </trkpt>
      <trkpt lat="44.78417" lon="3.42441">
        <ele>1136</ele>
        <time>2009-07-06T07:40:16Z</time>
      </trkpt>
      <trkpt lat="44.78412" lon="3.42414">
        <ele>1133</ele>
        <time>2009-07-06T07:40:22Z</time>
      </trkpt>
      <trkpt lat="44.78403" lon="3.42391">
        <ele>1132</ele>
        <time>2009-07-06T07:40:34Z</time>
      </trkpt>
      <trkpt lat="44.78401" lon="3.42384">
        <ele>1131</ele>
        <time>2009-07-06T07:40:46Z</time>
      </trkpt>
      <trkpt lat="44.78397" lon="3.42373">
        <ele>1131</ele>
        <time>2009-07-06T07:41:00Z</time>
      </trkpt>
      <trkpt lat="44.78395" lon="3.42366">
        <ele>1131</ele>
        <time>2009-07-06T07:41:08Z</time>
      </trkpt>
      <trkpt lat="44.78393" lon="3.42336">
        <ele>1131</ele>
        <time>2009-07-06T07:41:20Z</time>
      </trkpt>
      <trkpt lat="44.78395" lon="3.42332">
        <ele>1130</ele>
        <time>2009-07-06T07:41:22Z</time>
      </trkpt>
      <trkpt lat="44.78399" lon="3.42325">
        <ele>1131</ele>
        <time>2009-07-06T07:41:34Z</time>
      </trkpt>
      <trkpt lat="44.78401" lon="3.42315">
        <ele>1131</ele>
        <time>2009-07-06T07:41:47Z</time>
      </trkpt>
      <trkpt lat="44.784" lon="3.42314">
        <ele>1130</ele>
        <time>2009-07-06T07:42:05Z</time>
      </trkpt>
      <trkpt lat="44.78397" lon="3.42311">
        <ele>1131</ele>
        <time>2009-07-06T07:43:53Z</time>
      </trkpt>
      <trkpt lat="44.78398" lon="3.4231">
        <ele>1130</ele>
        <time>2009-07-06T07:44:23Z</time>
      </trkpt>
      <trkpt lat="44.78397" lon="3.42311">
        <ele>1130</ele>
        <time>2009-07-06T07:45:19Z</time>
      </trkpt>
      <trkpt lat="44.78399" lon="3.42312">
        <ele>1130</ele>
        <time>2009-07-06T07:46:58Z</time>
      </trkpt>
      <trkpt lat="44.78399" lon="3.42309">
        <ele>1131</ele>
        <time>2009-07-06T07:47:28Z</time>
      </trkpt>
      <trkpt lat="44.78399" lon="3.42309">
        <ele>1131</ele>
        <time>2009-07-06T07:48:01Z</time>
      </trkpt>
      <trkpt lat="44.78402" lon="3.423">
        <ele>1131</ele>
        <time>2009-07-06T07:48:06Z</time>
      </trkpt>
      <trkpt lat="44.78404" lon="3.42296">
        <ele>1131</ele>
        <time>2009-07-06T07:48:08Z</time>
      </trkpt>
      <trkpt lat="44.78412" lon="3.42293">
        <ele>1129</ele>
        <time>2009-07-06T07:48:11Z</time>
      </trkpt>
      <trkpt lat="44.78417" lon="3.42283">
        <ele>1128</ele>
        <time>2009-07-06T07:48:14Z</time>
      </trkpt>
      <trkpt lat="44.78421" lon="3.42268">
        <ele>1127</ele>
        <time>2009-07-06T07:48:17Z</time>
      </trkpt>
      <trkpt lat="44.78424" lon="3.42258">
        <ele>1126</ele>
        <time>2009-07-06T07:48:20Z</time>
      </trkpt>
      <trkpt lat="44.78432" lon="3.42247">
        <ele>1123</ele>
        <time>2009-07-06T07:48:25Z</time>
      </trkpt>
      <trkpt lat="44.78434" lon="3.42244">
        <ele>1123</ele>
        <time>2009-07-06T07:48:26Z</time>
      </trkpt>
      <trkpt lat="44.78438" lon="3.42237">
        <ele>1121</ele>
        <time>2009-07-06T07:48:28Z</time>
      </trkpt>
      <trkpt lat="44.78445" lon="3.42221">
        <ele>1118</ele>
        <time>2009-07-06T07:48:32Z</time>
      </trkpt>
      <trkpt lat="44.78447" lon="3.422">
        <ele>1115</ele>
        <time>2009-07-06T07:48:36Z</time>
      </trkpt>
      <trkpt lat="44.78444" lon="3.42182">
        <ele>1114</ele>
        <time>2009-07-06T07:48:39Z</time>
      </trkpt>
      <trkpt lat="44.78426" lon="3.42132">
        <ele>1113</ele>
        <time>2009-07-06T07:48:51Z</time>
      </trkpt>
      <trkpt lat="44.78419" lon="3.42118">
        <ele>1111</ele>
        <time>2009-07-06T07:48:56Z</time>
      </trkpt>
      <trkpt lat="44.78418" lon="3.42107">
        <ele>1109</ele>
        <time>2009-07-06T07:48:59Z</time>
      </trkpt>
      <trkpt lat="44.78416" lon="3.42096">
        <ele>1108</ele>
        <time>2009-07-06T07:49:02Z</time>
      </trkpt>
      <trkpt lat="44.784" lon="3.42074">
        <ele>1105</ele>
        <time>2009-07-06T07:49:13Z</time>
      </trkpt>
      <trkpt lat="44.7839" lon="3.42066">
        <ele>1105</ele>
        <time>2009-07-06T07:49:19Z</time>
      </trkpt>
      <trkpt lat="44.78384" lon="3.42059">
        <ele>1104</ele>
        <time>2009-07-06T07:49:22Z</time>
      </trkpt>
      <trkpt lat="44.78375" lon="3.42044">
        <ele>1098</ele>
        <time>2009-07-06T07:49:26Z</time>
      </trkpt>
      <trkpt lat="44.78373" lon="3.4204">
        <ele>1098</ele>
        <time>2009-07-06T07:49:27Z</time>
      </trkpt>
      <trkpt lat="44.78372" lon="3.42037">
        <ele>1097</ele>
        <time>2009-07-06T07:49:28Z</time>
      </trkpt>
      <trkpt lat="44.78366" lon="3.42028">
        <ele>1096</ele>
        <time>2009-07-06T07:49:40Z</time>
      </trkpt>
      <trkpt lat="44.78362" lon="3.42026">
        <ele>1096</ele>
        <time>2009-07-06T07:49:56Z</time>
      </trkpt>
      <trkpt lat="44.7836" lon="3.42029">
        <ele>1095</ele>
        <time>2009-07-06T07:50:15Z</time>
      </trkpt>
      <trkpt lat="44.7836" lon="3.42026">
        <ele>1096</ele>
        <time>2009-07-06T07:50:28Z</time>
      </trkpt>
      <trkpt lat="44.78357" lon="3.42022">
        <ele>1096</ele>
        <time>2009-07-06T07:50:48Z</time>
      </trkpt>
      <trkpt lat="44.78349" lon="3.42008">
        <ele>1093</ele>
        <time>2009-07-06T07:51:26Z</time>
      </trkpt>
      <trkpt lat="44.78341" lon="3.41998">
        <ele>1089</ele>
        <time>2009-07-06T07:51:29Z</time>
      </trkpt>
      <trkpt lat="44.78339" lon="3.41994">
        <ele>1088</ele>
        <time>2009-07-06T07:51:30Z</time>
      </trkpt>
      <trkpt lat="44.78334" lon="3.41984">
        <ele>1087</ele>
        <time>2009-07-06T07:51:32Z</time>
      </trkpt>
      <trkpt lat="44.78329" lon="3.41972">
        <ele>1084</ele>
        <time>2009-07-06T07:51:34Z</time>
      </trkpt>
      <trkpt lat="44.78317" lon="3.41955">
        <ele>1079</ele>
        <time>2009-07-06T07:51:37Z</time>
      </trkpt>
      <trkpt lat="44.78312" lon="3.41949">
        <ele>1075</ele>
        <time>2009-07-06T07:51:38Z</time>
      </trkpt>
      <trkpt lat="44.78307" lon="3.41943">
        <ele>1075</ele>
        <time>2009-07-06T07:51:39Z</time>
      </trkpt>
      <trkpt lat="44.78301" lon="3.41937">
        <ele>1075</ele>
        <time>2009-07-06T07:51:40Z</time>
      </trkpt>
      <trkpt lat="44.78277" lon="3.41916">
        <ele>1072</ele>
        <time>2009-07-06T07:51:45Z</time>
      </trkpt>
      <trkpt lat="44.78271" lon="3.41902">
        <ele>1071</ele>
        <time>2009-07-06T07:51:51Z</time>
      </trkpt>
      <trkpt lat="44.78269" lon="3.41891">
        <ele>1069</ele>
        <time>2009-07-06T07:51:54Z</time>
      </trkpt>
      <trkpt lat="44.78261" lon="3.41871">
        <ele>1067</ele>
        <time>2009-07-06T07:52:02Z</time>
      </trkpt>
      <trkpt lat="44.78258" lon="3.41859">
        <ele>1065</ele>
        <time>2009-07-06T07:52:06Z</time>
      </trkpt>
      <trkpt lat="44.78256" lon="3.41856">
        <ele>1065</ele>
        <time>2009-07-06T07:52:08Z</time>
      </trkpt>
      <trkpt lat="44.78248" lon="3.41826">
        <ele>1062</ele>
        <time>2009-07-06T07:52:21Z</time>
      </trkpt>
      <trkpt lat="44.78247" lon="3.41826">
        <ele>1062</ele>
        <time>2009-07-06T07:52:37Z</time>
      </trkpt>
      <trkpt lat="44.78246" lon="3.41818">
        <ele>1062</ele>
        <time>2009-07-06T07:52:45Z</time>
      </trkpt>
      <trkpt lat="44.78245" lon="3.41815">
        <ele>1059</ele>
        <time>2009-07-06T07:53:00Z</time>
      </trkpt>
      <trkpt lat="44.78244" lon="3.41813">
        <ele>1061</ele>
        <time>2009-07-06T07:53:45Z</time>
      </trkpt>
      <trkpt lat="44.78244" lon="3.41812">
        <ele>1060</ele>
        <time>2009-07-06T07:53:52Z</time>
      </trkpt>
      <trkpt lat="44.78244" lon="3.41795">
        <ele>1059</ele>
        <time>2009-07-06T07:54:03Z</time>
      </trkpt>
      <trkpt lat="44.78245" lon="3.4175">
        <ele>1055</ele>
        <time>2009-07-06T07:54:14Z</time>
      </trkpt>
      <trkpt lat="44.78245" lon="3.41743">
        <ele>1055</ele>
        <time>2009-07-06T07:54:15Z</time>
      </trkpt>
      <trkpt lat="44.78248" lon="3.41728">
        <ele>1052</ele>
        <time>2009-07-06T07:54:17Z</time>
      </trkpt>
      <trkpt lat="44.78251" lon="3.41701">
        <ele>1047</ele>
        <time>2009-07-06T07:54:21Z</time>
      </trkpt>
      <trkpt lat="44.78251" lon="3.41694">
        <ele>1047</ele>
        <time>2009-07-06T07:54:22Z</time>
      </trkpt>
      <trkpt lat="44.78253" lon="3.41679">
        <ele>1042</ele>
        <time>2009-07-06T07:54:24Z</time>
      </trkpt>
      <trkpt lat="44.78253" lon="3.4166">
        <ele>1040</ele>
        <time>2009-07-06T07:54:26Z</time>
      </trkpt>
      <trkpt lat="44.78264" lon="3.41624">
        <ele>1040</ele>
        <time>2009-07-06T07:54:33Z</time>
      </trkpt>
      <trkpt lat="44.78263" lon="3.41619">
        <ele>1040</ele>
        <time>2009-07-06T07:54:34Z</time>
      </trkpt>
      <trkpt lat="44.78255" lon="3.41586">
        <ele>1037</ele>
        <time>2009-07-06T07:54:39Z</time>
      </trkpt>
      <trkpt lat="44.78265" lon="3.41551">
        <ele>1033</ele>
        <time>2009-07-06T07:54:45Z</time>
      </trkpt>
      <trkpt lat="44.78269" lon="3.41533">
        <ele>1029</ele>
        <time>2009-07-06T07:54:48Z</time>
      </trkpt>
      <trkpt lat="44.78272" lon="3.41517">
        <ele>1028</ele>
        <time>2009-07-06T07:54:50Z</time>
      </trkpt>
      <trkpt lat="44.7828" lon="3.41491">
        <ele>1025</ele>
        <time>2009-07-06T07:54:54Z</time>
      </trkpt>
      <trkpt lat="44.78283" lon="3.41484">
        <ele>1024</ele>
        <time>2009-07-06T07:54:55Z</time>
      </trkpt>
      <trkpt lat="44.78293" lon="3.41459">
        <ele>1019</ele>
        <time>2009-07-06T07:55:00Z</time>
      </trkpt>
      <trkpt lat="44.78287" lon="3.41464">
        <ele>1018</ele>
        <time>2009-07-06T07:55:10Z</time>
      </trkpt>
      <trkpt lat="44.7829" lon="3.41461">
        <ele>1019</ele>
        <time>2009-07-06T07:55:26Z</time>
      </trkpt>
      <trkpt lat="44.7829" lon="3.41461">
        <ele>1019</ele>
        <time>2009-07-06T07:55:59Z</time>
      </trkpt>
      <trkpt lat="44.78291" lon="3.41461">
        <ele>1020</ele>
        <time>2009-07-06T07:56:59Z</time>
      </trkpt>
      <trkpt lat="44.78287" lon="3.41466">
        <ele>1020</ele>
        <time>2009-07-06T07:58:36Z</time>
      </trkpt>
      <trkpt lat="44.78274" lon="3.41472">
        <ele>1016</ele>
        <time>2009-07-06T07:58:42Z</time>
      </trkpt>
      <trkpt lat="44.7826" lon="3.41484">
        <ele>1013</ele>
        <time>2009-07-06T07:58:46Z</time>
      </trkpt>
      <trkpt lat="44.78242" lon="3.41473">
        <ele>1009</ele>
        <time>2009-07-06T07:58:52Z</time>
      </trkpt>
      <trkpt lat="44.78241" lon="3.41466">
        <ele>1008</ele>
        <time>2009-07-06T07:58:53Z</time>
      </trkpt>
      <trkpt lat="44.78239" lon="3.4143">
        <ele>1003</ele>
        <time>2009-07-06T07:58:57Z</time>
      </trkpt>
      <trkpt lat="44.78237" lon="3.41412">
        <ele>1001</ele>
        <time>2009-07-06T07:58:59Z</time>
      </trkpt>
      <trkpt lat="44.78226" lon="3.41386">
        <ele>996</ele>
        <time>2009-07-06T07:59:03Z</time>
      </trkpt>
      <trkpt lat="44.78209" lon="3.41335">
        <ele>992</ele>
        <time>2009-07-06T07:59:11Z</time>
      </trkpt>
      <trkpt lat="44.78205" lon="3.41324">
        <ele>991</ele>
        <time>2009-07-06T07:59:13Z</time>
      </trkpt>
      <trkpt lat="44.78199" lon="3.4132">
        <ele>992</ele>
        <time>2009-07-06T07:59:18Z</time>
      </trkpt>
      <trkpt lat="44.78178" lon="3.41318">
        <ele>990</ele>
        <time>2009-07-06T07:59:25Z</time>
      </trkpt>
      <trkpt lat="44.78169" lon="3.41298">
        <ele>988</ele>
        <time>2009-07-06T07:59:29Z</time>
      </trkpt>
      <trkpt lat="44.78154" lon="3.4123">
        <ele>984</ele>
        <time>2009-07-06T07:59:38Z</time>
      </trkpt>
      <trkpt lat="44.78142" lon="3.41186">
        <ele>980</ele>
        <time>2009-07-06T07:59:43Z</time>
      </trkpt>
      <trkpt lat="44.78131" lon="3.41146">
        <ele>979</ele>
        <time>2009-07-06T07:59:47Z</time>
      </trkpt>
      <trkpt lat="44.78079" lon="3.41021">
        <ele>976</ele>
        <time>2009-07-06T08:00:00Z</time>
      </trkpt>
      <trkpt lat="44.78015" lon="3.40904">
        <ele>974</ele>
        <time>2009-07-06T08:00:13Z</time>
      </trkpt>
      <trkpt lat="44.78005" lon="3.40885">
        <ele>973</ele>
        <time>2009-07-06T08:00:15Z</time>
      </trkpt>
      <trkpt lat="44.77997" lon="3.40865">
        <ele>973</ele>
        <time>2009-07-06T08:00:17Z</time>
      </trkpt>
      <trkpt lat="44.77991" lon="3.4081">
        <ele>971</ele>
        <time>2009-07-06T08:00:22Z</time>
      </trkpt>
      <trkpt lat="44.77993" lon="3.40776">
        <ele>970</ele>
        <time>2009-07-06T08:00:25Z</time>
      </trkpt>
      <trkpt lat="44.77986" lon="3.40646">
        <ele>967</ele>
        <time>2009-07-06T08:00:37Z</time>
      </trkpt>
      <trkpt lat="44.78016" lon="3.40571">
        <ele>966</ele>
        <time>2009-07-06T08:00:46Z</time>
      </trkpt>
      <trkpt lat="44.78029" lon="3.40563">
        <ele>965</ele>
        <time>2009-07-06T08:00:48Z</time>
      </trkpt>
      <trkpt lat="44.78099" lon="3.40523">
        <ele>965</ele>
        <time>2009-07-06T08:01:01Z</time>
      </trkpt>
      <trkpt lat="44.78118" lon="3.40483">
        <ele>966</ele>
        <time>2009-07-06T08:01:07Z</time>
      </trkpt>
      <trkpt lat="44.78147" lon="3.40293">
        <ele>965</ele>
        <time>2009-07-06T08:01:30Z</time>
      </trkpt>
      <trkpt lat="44.78157" lon="3.40238">
        <ele>968</ele>
        <time>2009-07-06T08:01:39Z</time>
      </trkpt>
      <trkpt lat="44.78171" lon="3.4018">
        <ele>972</ele>
        <time>2009-07-06T08:01:51Z</time>
      </trkpt>
      <trkpt lat="44.78203" lon="3.40127">
        <ele>973</ele>
        <time>2009-07-06T08:02:08Z</time>
      </trkpt>
      <trkpt lat="44.78205" lon="3.40086">
        <ele>976</ele>
        <time>2009-07-06T08:02:19Z</time>
      </trkpt>
      <trkpt lat="44.78206" lon="3.40068">
        <ele>978</ele>
        <time>2009-07-06T08:02:24Z</time>
      </trkpt>
      <trkpt lat="44.78227" lon="3.40038">
        <ele>981</ele>
        <time>2009-07-06T08:02:37Z</time>
      </trkpt>
      <trkpt lat="44.78236" lon="3.40027">
        <ele>984</ele>
        <time>2009-07-06T08:02:43Z</time>
      </trkpt>
      <trkpt lat="44.78262" lon="3.40012">
        <ele>987</ele>
        <time>2009-07-06T08:02:56Z</time>
      </trkpt>
      <trkpt lat="44.78307" lon="3.40014">
        <ele>988</ele>
        <time>2009-07-06T08:03:14Z</time>
      </trkpt>
      <trkpt lat="44.78351" lon="3.4">
        <ele>991</ele>
        <time>2009-07-06T08:03:31Z</time>
      </trkpt>
      <trkpt lat="44.7839" lon="3.39966">
        <ele>993</ele>
        <time>2009-07-06T08:03:48Z</time>
      </trkpt>
      <trkpt lat="44.78395" lon="3.39959">
        <ele>994</ele>
        <time>2009-07-06T08:03:51Z</time>
      </trkpt>
      <trkpt lat="44.78402" lon="3.3995">
        <ele>997</ele>
        <time>2009-07-06T08:03:55Z</time>
      </trkpt>
      <trkpt lat="44.784" lon="3.3993">
        <ele>999</ele>
        <time>2009-07-06T08:04:03Z</time>
      </trkpt>
      <trkpt lat="44.78374" lon="3.3993">
        <ele>1002</ele>
        <time>2009-07-06T08:04:15Z</time>
      </trkpt>
      <trkpt lat="44.78355" lon="3.39924">
        <ele>1006</ele>
        <time>2009-07-06T08:04:25Z</time>
      </trkpt>
      <trkpt lat="44.78328" lon="3.39917">
        <ele>1009</ele>
        <time>2009-07-06T08:04:38Z</time>
      </trkpt>
      <trkpt lat="44.78322" lon="3.39915">
        <ele>1011</ele>
        <time>2009-07-06T08:04:41Z</time>
      </trkpt>
      <trkpt lat="44.78295" lon="3.39903">
        <ele>1012</ele>
        <time>2009-07-06T08:04:54Z</time>
      </trkpt>
      <trkpt lat="44.78279" lon="3.39884">
        <ele>1015</ele>
        <time>2009-07-06T08:05:03Z</time>
      </trkpt>
      <trkpt lat="44.78261" lon="3.39831">
        <ele>1017</ele>
        <time>2009-07-06T08:05:20Z</time>
      </trkpt>
      <trkpt lat="44.7826" lon="3.39824">
        <ele>1018</ele>
        <time>2009-07-06T08:05:22Z</time>
      </trkpt>
      <trkpt lat="44.78257" lon="3.398">
        <ele>1019</ele>
        <time>2009-07-06T08:05:29Z</time>
      </trkpt>
      <trkpt lat="44.78255" lon="3.39758">
        <ele>1023</ele>
        <time>2009-07-06T08:05:42Z</time>
      </trkpt>
      <trkpt lat="44.78261" lon="3.39716">
        <ele>1025</ele>
        <time>2009-07-06T08:05:54Z</time>
      </trkpt>
      <trkpt lat="44.78279" lon="3.39644">
        <ele>1025</ele>
        <time>2009-07-06T08:06:11Z</time>
      </trkpt>
      <trkpt lat="44.783" lon="3.39545">
        <ele>1025</ele>
        <time>2009-07-06T08:06:29Z</time>
      </trkpt>
      <trkpt lat="44.78307" lon="3.39504">
        <ele>1026</ele>
        <time>2009-07-06T08:06:36Z</time>
      </trkpt>
      <trkpt lat="44.78343" lon="3.39457">
        <ele>1026</ele>
        <time>2009-07-06T08:06:49Z</time>
      </trkpt>
      <trkpt lat="44.78346" lon="3.39454">
        <ele>1026</ele>
        <time>2009-07-06T08:06:50Z</time>
      </trkpt>
      <trkpt lat="44.78346" lon="3.39431">
        <ele>1027</ele>
        <time>2009-07-06T08:07:00Z</time>
      </trkpt>
      <trkpt lat="44.78346" lon="3.39433">
        <ele>1027</ele>
        <time>2009-07-06T08:07:18Z</time>
      </trkpt>
      <trkpt lat="44.78345" lon="3.39433">
        <ele>1028</ele>
        <time>2009-07-06T08:08:03Z</time>
      </trkpt>
      <trkpt lat="44.78344" lon="3.39433">
        <ele>1028</ele>
        <time>2009-07-06T08:08:36Z</time>
      </trkpt>
      <trkpt lat="44.78344" lon="3.39433">
        <ele>1028</ele>
        <time>2009-07-06T08:09:04Z</time>
      </trkpt>
      <trkpt lat="44.78345" lon="3.39432">
        <ele>1027</ele>
        <time>2009-07-06T08:09:33Z</time>
      </trkpt>
      <trkpt lat="44.78344" lon="3.39433">
        <ele>1028</ele>
        <time>2009-07-06T08:10:13Z</time>
      </trkpt>
      <trkpt lat="44.78344" lon="3.39434">
        <ele>1028</ele>
        <time>2009-07-06T08:10:34Z</time>
      </trkpt>
      <trkpt lat="44.78346" lon="3.39435">
        <ele>1027</ele>
        <time>2009-07-06T08:17:12Z</time>
      </trkpt>
      <trkpt lat="44.78347" lon="3.39434">
        <ele>1026</ele>
        <time>2009-07-06T08:18:16Z</time>
      </trkpt>
      <trkpt lat="44.7834" lon="3.39435">
        <ele>1026</ele>
        <time>2009-07-06T08:20:11Z</time>
      </trkpt>
      <trkpt lat="44.78338" lon="3.39434">
        <ele>1026</ele>
        <time>2009-07-06T08:20:28Z</time>
      </trkpt>
      <trkpt lat="44.78341" lon="3.39429">
        <ele>1026</ele>
        <time>2009-07-06T08:21:40Z</time>
      </trkpt>
      <trkpt lat="44.78341" lon="3.39429">
        <ele>1025</ele>
        <time>2009-07-06T08:21:59Z</time>
      </trkpt>
      <trkpt lat="44.78341" lon="3.39429">
        <ele>1026</ele>
        <time>2009-07-06T08:22:18Z</time>
      </trkpt>
      <trkpt lat="44.78335" lon="3.39411">
        <ele>1026</ele>
        <time>2009-07-06T08:22:31Z</time>
      </trkpt>
      <trkpt lat="44.78319" lon="3.39364">
        <ele>1025</ele>
        <time>2009-07-06T08:22:43Z</time>
      </trkpt>
      <trkpt lat="44.78311" lon="3.39337">
        <ele>1024</ele>
        <time>2009-07-06T08:22:50Z</time>
      </trkpt>
      <trkpt lat="44.78271" lon="3.39262">
        <ele>1023</ele>
        <time>2009-07-06T08:23:06Z</time>
      </trkpt>
      <trkpt lat="44.78232" lon="3.39213">
        <ele>1024</ele>
        <time>2009-07-06T08:23:18Z</time>
      </trkpt>
      <trkpt lat="44.78168" lon="3.39204">
        <ele>1025</ele>
        <time>2009-07-06T08:23:33Z</time>
      </trkpt>
      <trkpt lat="44.78101" lon="3.39205">
        <ele>1026</ele>
        <time>2009-07-06T08:23:49Z</time>
      </trkpt>
      <trkpt lat="44.78038" lon="3.39214">
        <ele>1025</ele>
        <time>2009-07-06T08:24:03Z</time>
      </trkpt>
      <trkpt lat="44.78006" lon="3.39194">
        <ele>1022</ele>
        <time>2009-07-06T08:24:09Z</time>
      </trkpt>
      <trkpt lat="44.78001" lon="3.39188">
        <ele>1021</ele>
        <time>2009-07-06T08:24:10Z</time>
      </trkpt>
      <trkpt lat="44.77975" lon="3.39155">
        <ele>1020</ele>
        <time>2009-07-06T08:24:15Z</time>
      </trkpt>
      <trkpt lat="44.77967" lon="3.39112">
        <ele>1016</ele>
        <time>2009-07-06T08:24:20Z</time>
      </trkpt>
      <trkpt lat="44.7797" lon="3.39102">
        <ele>1015</ele>
        <time>2009-07-06T08:24:21Z</time>
      </trkpt>
      <trkpt lat="44.77985" lon="3.3906">
        <ele>1011</ele>
        <time>2009-07-06T08:24:25Z</time>
      </trkpt>
      <trkpt lat="44.77989" lon="3.39049">
        <ele>1011</ele>
        <time>2009-07-06T08:24:26Z</time>
      </trkpt>
      <trkpt lat="44.78018" lon="3.39006">
        <ele>1008</ele>
        <time>2009-07-06T08:24:31Z</time>
      </trkpt>
      <trkpt lat="44.78048" lon="3.38978">
        <ele>1003</ele>
        <time>2009-07-06T08:24:35Z</time>
      </trkpt>
      <trkpt lat="44.78055" lon="3.38971">
        <ele>1004</ele>
        <time>2009-07-06T08:24:36Z</time>
      </trkpt>
      <trkpt lat="44.78063" lon="3.38964">
        <ele>1003</ele>
        <time>2009-07-06T08:24:37Z</time>
      </trkpt>
      <trkpt lat="44.78096" lon="3.38943">
        <ele>1001</ele>
        <time>2009-07-06T08:24:41Z</time>
      </trkpt>
      <trkpt lat="44.78107" lon="3.38911">
        <ele>998</ele>
        <time>2009-07-06T08:24:45Z</time>
      </trkpt>
      <trkpt lat="44.78107" lon="3.38897">
        <ele>998</ele>
        <time>2009-07-06T08:24:47Z</time>
      </trkpt>
      <trkpt lat="44.78119" lon="3.38868">
        <ele>995</ele>
        <time>2009-07-06T08:24:52Z</time>
      </trkpt>
      <trkpt lat="44.78125" lon="3.38855">
        <ele>995</ele>
        <time>2009-07-06T08:24:54Z</time>
      </trkpt>
      <trkpt lat="44.78132" lon="3.38833">
        <ele>995</ele>
        <time>2009-07-06T08:24:59Z</time>
      </trkpt>
      <trkpt lat="44.78134" lon="3.38831">
        <ele>994</ele>
        <time>2009-07-06T08:25:01Z</time>
      </trkpt>
      <trkpt lat="44.78127" lon="3.38833">
        <ele>995</ele>
        <time>2009-07-06T08:25:08Z</time>
      </trkpt>
      <trkpt lat="44.78124" lon="3.38837">
        <ele>995</ele>
        <time>2009-07-06T08:25:10Z</time>
      </trkpt>
      <trkpt lat="44.78116" lon="3.38841">
        <ele>993</ele>
        <time>2009-07-06T08:25:15Z</time>
      </trkpt>
      <trkpt lat="44.78107" lon="3.38842">
        <ele>989</ele>
        <time>2009-07-06T08:25:19Z</time>
      </trkpt>
      <trkpt lat="44.78085" lon="3.38846">
        <ele>985</ele>
        <time>2009-07-06T08:25:23Z</time>
      </trkpt>
      <trkpt lat="44.78064" lon="3.38851">
        <ele>984</ele>
        <time>2009-07-06T08:25:31Z</time>
      </trkpt>
      <trkpt lat="44.78061" lon="3.3885">
        <ele>983</ele>
        <time>2009-07-06T08:25:33Z</time>
      </trkpt>
      <trkpt lat="44.78061" lon="3.3885">
        <ele>983</ele>
        <time>2009-07-06T08:25:42Z</time>
      </trkpt>
      <trkpt lat="44.78069" lon="3.38853">
        <ele>985</ele>
        <time>2009-07-06T08:25:49Z</time>
      </trkpt>
      <trkpt lat="44.78071" lon="3.38851">
        <ele>984</ele>
        <time>2009-07-06T08:25:52Z</time>
      </trkpt>
      <trkpt lat="44.78076" lon="3.38833">
        <ele>984</ele>
        <time>2009-07-06T08:25:58Z</time>
      </trkpt>
      <trkpt lat="44.78084" lon="3.38816">
        <ele>979</ele>
        <time>2009-07-06T08:26:01Z</time>
      </trkpt>
      <trkpt lat="44.78088" lon="3.3881">
        <ele>979</ele>
        <time>2009-07-06T08:26:02Z</time>
      </trkpt>
      <trkpt lat="44.781" lon="3.38782">
        <ele>976</ele>
        <time>2009-07-06T08:26:10Z</time>
      </trkpt>
      <trkpt lat="44.781" lon="3.38781">
        <ele>977</ele>
        <time>2009-07-06T08:26:11Z</time>
      </trkpt>
      <trkpt lat="44.78104" lon="3.38778">
        <ele>977</ele>
        <time>2009-07-06T08:26:28Z</time>
      </trkpt>
      <trkpt lat="44.78105" lon="3.38778">
        <ele>977</ele>
        <time>2009-07-06T08:26:46Z</time>
      </trkpt>
      <trkpt lat="44.78104" lon="3.38778">
        <ele>977</ele>
        <time>2009-07-06T08:26:55Z</time>
      </trkpt>
      <trkpt lat="44.78101" lon="3.38777">
        <ele>977</ele>
        <time>2009-07-06T08:27:09Z</time>
      </trkpt>
      <trkpt lat="44.78101" lon="3.38778">
        <ele>976</ele>
        <time>2009-07-06T08:27:42Z</time>
      </trkpt>
      <trkpt lat="44.78101" lon="3.38779">
        <ele>976</ele>
        <time>2009-07-06T08:28:00Z</time>
      </trkpt>
      <trkpt lat="44.78103" lon="3.3878">
        <ele>976</ele>
        <time>2009-07-06T08:29:39Z</time>
      </trkpt>
      <trkpt lat="44.78091" lon="3.38777">
        <ele>975</ele>
        <time>2009-07-06T08:30:02Z</time>
      </trkpt>
      <trkpt lat="44.7809" lon="3.38771">
        <ele>975</ele>
        <time>2009-07-06T08:30:16Z</time>
      </trkpt>
      <trkpt lat="44.78098" lon="3.38758">
        <ele>973</ele>
        <time>2009-07-06T08:30:21Z</time>
      </trkpt>
      <trkpt lat="44.78111" lon="3.38746">
        <ele>972</ele>
        <time>2009-07-06T08:30:25Z</time>
      </trkpt>
      <trkpt lat="44.78113" lon="3.38732">
        <ele>971</ele>
        <time>2009-07-06T08:30:29Z</time>
      </trkpt>
      <trkpt lat="44.78119" lon="3.38734">
        <ele>971</ele>
        <time>2009-07-06T08:30:31Z</time>
      </trkpt>
      <trkpt lat="44.78134" lon="3.38712">
        <ele>970</ele>
        <time>2009-07-06T08:30:37Z</time>
      </trkpt>
      <trkpt lat="44.78136" lon="3.38698">
        <ele>967</ele>
        <time>2009-07-06T08:30:39Z</time>
      </trkpt>
      <trkpt lat="44.78126" lon="3.38666">
        <ele>965</ele>
        <time>2009-07-06T08:30:44Z</time>
      </trkpt>
      <trkpt lat="44.78116" lon="3.38638">
        <ele>964</ele>
        <time>2009-07-06T08:30:49Z</time>
      </trkpt>
      <trkpt lat="44.78053" lon="3.38592">
        <ele>963</ele>
        <time>2009-07-06T08:31:04Z</time>
      </trkpt>
      <trkpt lat="44.77998" lon="3.38544">
        <ele>960</ele>
        <time>2009-07-06T08:31:15Z</time>
      </trkpt>
      <trkpt lat="44.77979" lon="3.38533">
        <ele>958</ele>
        <time>2009-07-06T08:31:18Z</time>
      </trkpt>
      <trkpt lat="44.77951" lon="3.38513">
        <ele>955</ele>
        <time>2009-07-06T08:31:23Z</time>
      </trkpt>
      <trkpt lat="44.77935" lon="3.38485">
        <ele>954</ele>
        <time>2009-07-06T08:31:27Z</time>
      </trkpt>
      <trkpt lat="44.77917" lon="3.38427">
        <ele>950</ele>
        <time>2009-07-06T08:31:33Z</time>
      </trkpt>
      <trkpt lat="44.77914" lon="3.38416">
        <ele>950</ele>
        <time>2009-07-06T08:31:34Z</time>
      </trkpt>
      <trkpt lat="44.77885" lon="3.38325">
        <ele>945</ele>
        <time>2009-07-06T08:31:42Z</time>
      </trkpt>
      <trkpt lat="44.77874" lon="3.38289">
        <ele>942</ele>
        <time>2009-07-06T08:31:45Z</time>
      </trkpt>
      <trkpt lat="44.7786" lon="3.38244">
        <ele>942</ele>
        <time>2009-07-06T08:31:49Z</time>
      </trkpt>
      <trkpt lat="44.77821" lon="3.3812">
        <ele>942</ele>
        <time>2009-07-06T08:32:03Z</time>
      </trkpt>
      <trkpt lat="44.7777" lon="3.37964">
        <ele>942</ele>
        <time>2009-07-06T08:32:23Z</time>
      </trkpt>
      <trkpt lat="44.77759" lon="3.37944">
        <ele>941</ele>
        <time>2009-07-06T08:32:26Z</time>
      </trkpt>
      <trkpt lat="44.77767" lon="3.37919">
        <ele>942</ele>
        <time>2009-07-06T08:32:32Z</time>
      </trkpt>
      <trkpt lat="44.77771" lon="3.37918">
        <ele>942</ele>
        <time>2009-07-06T08:32:33Z</time>
      </trkpt>
      <trkpt lat="44.77816" lon="3.37905">
        <ele>943</ele>
        <time>2009-07-06T08:32:43Z</time>
      </trkpt>
      <trkpt lat="44.77824" lon="3.379">
        <ele>944</ele>
        <time>2009-07-06T08:32:45Z</time>
      </trkpt>
      <trkpt lat="44.77846" lon="3.37867">
        <ele>944</ele>
        <time>2009-07-06T08:32:52Z</time>
      </trkpt>
      <trkpt lat="44.77858" lon="3.37848">
        <ele>943</ele>
        <time>2009-07-06T08:32:56Z</time>
      </trkpt>
      <trkpt lat="44.77872" lon="3.37823">
        <ele>943</ele>
        <time>2009-07-06T08:33:01Z</time>
      </trkpt>
      <trkpt lat="44.77879" lon="3.37774">
        <ele>945</ele>
        <time>2009-07-06T08:33:10Z</time>
      </trkpt>
      <trkpt lat="44.77841" lon="3.37695">
        <ele>948</ele>
        <time>2009-07-06T08:33:27Z</time>
      </trkpt>
      <trkpt lat="44.77833" lon="3.37678">
        <ele>950</ele>
        <time>2009-07-06T08:33:32Z</time>
      </trkpt>
      <trkpt lat="44.77827" lon="3.37673">
        <ele>951</ele>
        <time>2009-07-06T08:33:35Z</time>
      </trkpt>
      <trkpt lat="44.77822" lon="3.37669">
        <ele>952</ele>
        <time>2009-07-06T08:33:38Z</time>
      </trkpt>
      <trkpt lat="44.77808" lon="3.37643">
        <ele>956</ele>
        <time>2009-07-06T08:33:49Z</time>
      </trkpt>
      <trkpt lat="44.77783" lon="3.37594">
        <ele>959</ele>
        <time>2009-07-06T08:34:05Z</time>
      </trkpt>
      <trkpt lat="44.77758" lon="3.3752">
        <ele>962</ele>
        <time>2009-07-06T08:34:26Z</time>
      </trkpt>
      <trkpt lat="44.77741" lon="3.37439">
        <ele>965</ele>
        <time>2009-07-06T08:34:48Z</time>
      </trkpt>
      <trkpt lat="44.77745" lon="3.37364">
        <ele>967</ele>
        <time>2009-07-06T08:35:07Z</time>
      </trkpt>
      <trkpt lat="44.77753" lon="3.37334">
        <ele>968</ele>
        <time>2009-07-06T08:35:16Z</time>
      </trkpt>
      <trkpt lat="44.77754" lon="3.37326">
        <ele>971</ele>
        <time>2009-07-06T08:35:19Z</time>
      </trkpt>
      <trkpt lat="44.77753" lon="3.37317">
        <ele>972</ele>
        <time>2009-07-06T08:35:22Z</time>
      </trkpt>
      <trkpt lat="44.77748" lon="3.37286">
        <ele>975</ele>
        <time>2009-07-06T08:35:34Z</time>
      </trkpt>
      <trkpt lat="44.77747" lon="3.3727">
        <ele>979</ele>
        <time>2009-07-06T08:35:40Z</time>
      </trkpt>
      <trkpt lat="44.77746" lon="3.37267">
        <ele>979</ele>
        <time>2009-07-06T08:35:41Z</time>
      </trkpt>
      <trkpt lat="44.77742" lon="3.37225">
        <ele>982</ele>
        <time>2009-07-06T08:35:57Z</time>
      </trkpt>
      <trkpt lat="44.77741" lon="3.37201">
        <ele>985</ele>
        <time>2009-07-06T08:36:06Z</time>
      </trkpt>
      <trkpt lat="44.77737" lon="3.37168">
        <ele>988</ele>
        <time>2009-07-06T08:36:18Z</time>
      </trkpt>
      <trkpt lat="44.77736" lon="3.37128">
        <ele>991</ele>
        <time>2009-07-06T08:36:33Z</time>
      </trkpt>
      <trkpt lat="44.77728" lon="3.37084">
        <ele>994</ele>
        <time>2009-07-06T08:36:50Z</time>
      </trkpt>
      <trkpt lat="44.77726" lon="3.3707">
        <ele>995</ele>
        <time>2009-07-06T08:36:55Z</time>
      </trkpt>
      <trkpt lat="44.77725" lon="3.37065">
        <ele>996</ele>
        <time>2009-07-06T08:36:57Z</time>
      </trkpt>
      <trkpt lat="44.77717" lon="3.37037">
        <ele>996</ele>
        <time>2009-07-06T08:37:09Z</time>
      </trkpt>
      <trkpt lat="44.77715" lon="3.37031">
        <ele>995</ele>
        <time>2009-07-06T08:37:25Z</time>
      </trkpt>
      <trkpt lat="44.77717" lon="3.37038">
        <ele>996</ele>
        <time>2009-07-06T08:37:37Z</time>
      </trkpt>
      <trkpt lat="44.77716" lon="3.37039">
        <ele>996</ele>
        <time>2009-07-06T08:37:56Z</time>
      </trkpt>
      <trkpt lat="44.77711" lon="3.37018">
        <ele>995</ele>
        <time>2009-07-06T08:38:53Z</time>
      </trkpt>
      <trkpt lat="44.77698" lon="3.36991">
        <ele>993</ele>
        <time>2009-07-06T08:38:58Z</time>
      </trkpt>
      <trkpt lat="44.77709" lon="3.36966">
        <ele>989</ele>
        <time>2009-07-06T08:39:02Z</time>
      </trkpt>
      <trkpt lat="44.7773" lon="3.36948">
        <ele>983</ele>
        <time>2009-07-06T08:39:05Z</time>
      </trkpt>
      <trkpt lat="44.77752" lon="3.36928">
        <ele>982</ele>
        <time>2009-07-06T08:39:08Z</time>
      </trkpt>
      <trkpt lat="44.77772" lon="3.36908">
        <ele>980</ele>
        <time>2009-07-06T08:39:11Z</time>
      </trkpt>
      <trkpt lat="44.77786" lon="3.36893">
        <ele>977</ele>
        <time>2009-07-06T08:39:13Z</time>
      </trkpt>
      <trkpt lat="44.77794" lon="3.36886">
        <ele>975</ele>
        <time>2009-07-06T08:39:14Z</time>
      </trkpt>
      <trkpt lat="44.77818" lon="3.36872">
        <ele>971</ele>
        <time>2009-07-06T08:39:17Z</time>
      </trkpt>
      <trkpt lat="44.77842" lon="3.36864">
        <ele>972</ele>
        <time>2009-07-06T08:39:20Z</time>
      </trkpt>
      <trkpt lat="44.77877" lon="3.3684">
        <ele>972</ele>
        <time>2009-07-06T08:39:25Z</time>
      </trkpt>
      <trkpt lat="44.77898" lon="3.36812">
        <ele>970</ele>
        <time>2009-07-06T08:39:29Z</time>
      </trkpt>
      <trkpt lat="44.7791" lon="3.36793">
        <ele>969</ele>
        <time>2009-07-06T08:39:32Z</time>
      </trkpt>
      <trkpt lat="44.77898" lon="3.36785">
        <ele>967</ele>
        <time>2009-07-06T08:39:36Z</time>
      </trkpt>
      <trkpt lat="44.77863" lon="3.36795">
        <ele>960</ele>
        <time>2009-07-06T08:39:41Z</time>
      </trkpt>
      <trkpt lat="44.77856" lon="3.36798">
        <ele>959</ele>
        <time>2009-07-06T08:39:42Z</time>
      </trkpt>
      <trkpt lat="44.77832" lon="3.36784">
        <ele>955</ele>
        <time>2009-07-06T08:39:46Z</time>
      </trkpt>
      <trkpt lat="44.77812" lon="3.36765">
        <ele>954</ele>
        <time>2009-07-06T08:39:49Z</time>
      </trkpt>
      <trkpt lat="44.77797" lon="3.3676">
        <ele>953</ele>
        <time>2009-07-06T08:39:52Z</time>
      </trkpt>
      <trkpt lat="44.7778" lon="3.36752">
        <ele>950</ele>
        <time>2009-07-06T08:39:55Z</time>
      </trkpt>
      <trkpt lat="44.7777" lon="3.36718">
        <ele>947</ele>
        <time>2009-07-06T08:40:00Z</time>
      </trkpt>
      <trkpt lat="44.77773" lon="3.36714">
        <ele>946</ele>
        <time>2009-07-06T08:40:01Z</time>
      </trkpt>
      <trkpt lat="44.77779" lon="3.36707">
        <ele>945</ele>
        <time>2009-07-06T08:40:03Z</time>
      </trkpt>
      <trkpt lat="44.77763" lon="3.36702">
        <ele>944</ele>
        <time>2009-07-06T08:40:09Z</time>
      </trkpt>
      <trkpt lat="44.77724" lon="3.36707">
        <ele>942</ele>
        <time>2009-07-06T08:40:18Z</time>
      </trkpt>
      <trkpt lat="44.77718" lon="3.36686">
        <ele>938</ele>
        <time>2009-07-06T08:40:22Z</time>
      </trkpt>
      <trkpt lat="44.77726" lon="3.36638">
        <ele>934</ele>
        <time>2009-07-06T08:40:27Z</time>
      </trkpt>
      <trkpt lat="44.77729" lon="3.36617">
        <ele>933</ele>
        <time>2009-07-06T08:40:29Z</time>
      </trkpt>
      <trkpt lat="44.7773" lon="3.36595">
        <ele>932</ele>
        <time>2009-07-06T08:40:31Z</time>
      </trkpt>
      <trkpt lat="44.77728" lon="3.36539">
        <ele>932</ele>
        <time>2009-07-06T08:40:36Z</time>
      </trkpt>
      <trkpt lat="44.7771" lon="3.36503">
        <ele>932</ele>
        <time>2009-07-06T08:40:41Z</time>
      </trkpt>
      <trkpt lat="44.77683" lon="3.36492">
        <ele>930</ele>
        <time>2009-07-06T08:40:45Z</time>
      </trkpt>
      <trkpt lat="44.77669" lon="3.36491">
        <ele>932</ele>
        <time>2009-07-06T08:40:47Z</time>
      </trkpt>
      <trkpt lat="44.77646" lon="3.36464">
        <ele>932</ele>
        <time>2009-07-06T08:40:55Z</time>
      </trkpt>
      <trkpt lat="44.77643" lon="3.36439">
        <ele>932</ele>
        <time>2009-07-06T08:41:01Z</time>
      </trkpt>
      <trkpt lat="44.7762" lon="3.36461">
        <ele>933</ele>
        <time>2009-07-06T08:41:10Z</time>
      </trkpt>
      <trkpt lat="44.77613" lon="3.36471">
        <ele>933</ele>
        <time>2009-07-06T08:41:13Z</time>
      </trkpt>
      <trkpt lat="44.77609" lon="3.36463">
        <ele>933</ele>
        <time>2009-07-06T08:41:17Z</time>
      </trkpt>
      <trkpt lat="44.77609" lon="3.36457">
        <ele>933</ele>
        <time>2009-07-06T08:41:19Z</time>
      </trkpt>
      <trkpt lat="44.77623" lon="3.36433">
        <ele>936</ele>
        <time>2009-07-06T08:41:29Z</time>
      </trkpt>
      <trkpt lat="44.77631" lon="3.36418">
        <ele>939</ele>
        <time>2009-07-06T08:41:36Z</time>
      </trkpt>
      <trkpt lat="44.77632" lon="3.36417">
        <ele>940</ele>
        <time>2009-07-06T08:41:37Z</time>
      </trkpt>
      <trkpt lat="44.77633" lon="3.36416">
        <ele>940</ele>
        <time>2009-07-06T08:41:38Z</time>
      </trkpt>
      <trkpt lat="44.7764" lon="3.36387">
        <ele>943</ele>
        <time>2009-07-06T08:41:49Z</time>
      </trkpt>
      <trkpt lat="44.77632" lon="3.36365">
        <ele>945</ele>
        <time>2009-07-06T08:41:58Z</time>
      </trkpt>
      <trkpt lat="44.77627" lon="3.36384">
        <ele>947</ele>
        <time>2009-07-06T08:42:08Z</time>
      </trkpt>
      <trkpt lat="44.77622" lon="3.364">
        <ele>949</ele>
        <time>2009-07-06T08:42:15Z</time>
      </trkpt>
      <trkpt lat="44.77604" lon="3.36398">
        <ele>951</ele>
        <time>2009-07-06T08:42:26Z</time>
      </trkpt>
      <trkpt lat="44.776" lon="3.36398">
        <ele>952</ele>
        <time>2009-07-06T08:42:28Z</time>
      </trkpt>
      <trkpt lat="44.77595" lon="3.36397">
        <ele>953</ele>
        <time>2009-07-06T08:42:30Z</time>
      </trkpt>
      <trkpt lat="44.77559" lon="3.36405">
        <ele>955</ele>
        <time>2009-07-06T08:42:43Z</time>
      </trkpt>
      <trkpt lat="44.77558" lon="3.36403">
        <ele>955</ele>
        <time>2009-07-06T08:43:03Z</time>
      </trkpt>
      <trkpt lat="44.77533" lon="3.36399">
        <ele>957</ele>
        <time>2009-07-06T08:43:14Z</time>
      </trkpt>
      <trkpt lat="44.77494" lon="3.36399">
        <ele>959</ele>
        <time>2009-07-06T08:43:30Z</time>
      </trkpt>
      <trkpt lat="44.77473" lon="3.36406">
        <ele>960</ele>
        <time>2009-07-06T08:43:39Z</time>
      </trkpt>
      <trkpt lat="44.77448" lon="3.364">
        <ele>964</ele>
        <time>2009-07-06T08:43:52Z</time>
      </trkpt>
      <trkpt lat="44.77429" lon="3.36397">
        <ele>967</ele>
        <time>2009-07-06T08:44:01Z</time>
      </trkpt>
      <trkpt lat="44.77412" lon="3.36398">
        <ele>969</ele>
        <time>2009-07-06T08:44:10Z</time>
      </trkpt>
      <trkpt lat="44.77408" lon="3.36399">
        <ele>970</ele>
        <time>2009-07-06T08:44:13Z</time>
      </trkpt>
      <trkpt lat="44.77391" lon="3.36391">
        <ele>974</ele>
        <time>2009-07-06T08:44:26Z</time>
      </trkpt>
      <trkpt lat="44.77373" lon="3.36384">
        <ele>975</ele>
        <time>2009-07-06T08:44:37Z</time>
      </trkpt>
      <trkpt lat="44.77366" lon="3.36379">
        <ele>976</ele>
        <time>2009-07-06T08:44:42Z</time>
      </trkpt>
      <trkpt lat="44.77349" lon="3.36374">
        <ele>978</ele>
        <time>2009-07-06T08:44:50Z</time>
      </trkpt>
      <trkpt lat="44.77321" lon="3.36347">
        <ele>982</ele>
        <time>2009-07-06T08:45:05Z</time>
      </trkpt>
      <trkpt lat="44.77312" lon="3.36309">
        <ele>982</ele>
        <time>2009-07-06T08:45:17Z</time>
      </trkpt>
      <trkpt lat="44.77307" lon="3.36278">
        <ele>986</ele>
        <time>2009-07-06T08:45:28Z</time>
      </trkpt>
      <trkpt lat="44.77306" lon="3.36276">
        <ele>985</ele>
        <time>2009-07-06T08:45:29Z</time>
      </trkpt>
      <trkpt lat="44.77305" lon="3.36275">
        <ele>987</ele>
        <time>2009-07-06T08:45:32Z</time>
      </trkpt>
      <trkpt lat="44.77305" lon="3.36274">
        <ele>986</ele>
        <time>2009-07-06T08:45:33Z</time>
      </trkpt>
      <trkpt lat="44.77291" lon="3.3624">
        <ele>989</ele>
        <time>2009-07-06T08:45:47Z</time>
      </trkpt>
      <trkpt lat="44.77289" lon="3.36238">
        <ele>989</ele>
        <time>2009-07-06T08:45:48Z</time>
      </trkpt>
      <trkpt lat="44.7728" lon="3.36233">
        <ele>989</ele>
        <time>2009-07-06T08:45:52Z</time>
      </trkpt>
      <trkpt lat="44.77256" lon="3.36211">
        <ele>990</ele>
        <time>2009-07-06T08:46:03Z</time>
      </trkpt>
      <trkpt lat="44.77249" lon="3.36209">
        <ele>990</ele>
        <time>2009-07-06T08:46:06Z</time>
      </trkpt>
      <trkpt lat="44.77232" lon="3.36193">
        <ele>994</ele>
        <time>2009-07-06T08:46:15Z</time>
      </trkpt>
      <trkpt lat="44.77225" lon="3.36186">
        <ele>995</ele>
        <time>2009-07-06T08:46:19Z</time>
      </trkpt>
      <trkpt lat="44.77219" lon="3.36181">
        <ele>996</ele>
        <time>2009-07-06T08:46:24Z</time>
      </trkpt>
      <trkpt lat="44.77203" lon="3.36158">
        <ele>999</ele>
        <time>2009-07-06T08:46:34Z</time>
      </trkpt>
      <trkpt lat="44.77177" lon="3.36135">
        <ele>1001</ele>
        <time>2009-07-06T08:46:48Z</time>
      </trkpt>
      <trkpt lat="44.77154" lon="3.36109">
        <ele>1004</ele>
        <time>2009-07-06T08:47:01Z</time>
      </trkpt>
      <trkpt lat="44.77128" lon="3.36082">
        <ele>1006</ele>
        <time>2009-07-06T08:47:15Z</time>
      </trkpt>
      <trkpt lat="44.77109" lon="3.36056">
        <ele>1009</ele>
        <time>2009-07-06T08:47:27Z</time>
      </trkpt>
      <trkpt lat="44.77108" lon="3.36056">
        <ele>1010</ele>
        <time>2009-07-06T08:47:28Z</time>
      </trkpt>
      <trkpt lat="44.77107" lon="3.36055">
        <ele>1010</ele>
        <time>2009-07-06T08:47:30Z</time>
      </trkpt>
      <trkpt lat="44.77097" lon="3.36045">
        <ele>1010</ele>
        <time>2009-07-06T08:47:38Z</time>
      </trkpt>
      <trkpt lat="44.77082" lon="3.36029">
        <ele>1013</ele>
        <time>2009-07-06T08:47:47Z</time>
      </trkpt>
      <trkpt lat="44.77081" lon="3.36027">
        <ele>1015</ele>
        <time>2009-07-06T08:47:49Z</time>
      </trkpt>
      <trkpt lat="44.77076" lon="3.36015">
        <ele>1016</ele>
        <time>2009-07-06T08:47:56Z</time>
      </trkpt>
      <trkpt lat="44.77067" lon="3.36008">
        <ele>1017</ele>
        <time>2009-07-06T08:48:02Z</time>
      </trkpt>
      <trkpt lat="44.77052" lon="3.3599">
        <ele>1019</ele>
        <time>2009-07-06T08:48:12Z</time>
      </trkpt>
      <trkpt lat="44.77042" lon="3.35977">
        <ele>1022</ele>
        <time>2009-07-06T08:48:19Z</time>
      </trkpt>
      <trkpt lat="44.77034" lon="3.35968">
        <ele>1024</ele>
        <time>2009-07-06T08:48:25Z</time>
      </trkpt>
      <trkpt lat="44.77017" lon="3.35947">
        <ele>1027</ele>
        <time>2009-07-06T08:48:38Z</time>
      </trkpt>
      <trkpt lat="44.77008" lon="3.35939">
        <ele>1027</ele>
        <time>2009-07-06T08:48:52Z</time>
      </trkpt>
      <trkpt lat="44.7701" lon="3.3594">
        <ele>1027</ele>
        <time>2009-07-06T08:49:04Z</time>
      </trkpt>
      <trkpt lat="44.7701" lon="3.35939">
        <ele>1026</ele>
        <time>2009-07-06T08:54:15Z</time>
      </trkpt>
      <trkpt lat="44.77008" lon="3.35945">
        <ele>1026</ele>
        <time>2009-07-06T08:55:25Z</time>
      </trkpt>
      <trkpt lat="44.77006" lon="3.35943">
        <ele>1027</ele>
        <time>2009-07-06T08:55:47Z</time>
      </trkpt>
      <trkpt lat="44.77005" lon="3.35941">
        <ele>1027</ele>
        <time>2009-07-06T08:55:57Z</time>
      </trkpt>
      <trkpt lat="44.77004" lon="3.35938">
        <ele>1027</ele>
        <time>2009-07-06T08:55:59Z</time>
      </trkpt>
      <trkpt lat="44.76992" lon="3.35925">
        <ele>1027</ele>
        <time>2009-07-06T08:56:07Z</time>
      </trkpt>
      <trkpt lat="44.76963" lon="3.35905">
        <ele>1028</ele>
        <time>2009-07-06T08:56:18Z</time>
      </trkpt>
      <trkpt lat="44.76928" lon="3.35892">
        <ele>1029</ele>
        <time>2009-07-06T08:56:31Z</time>
      </trkpt>
      <trkpt lat="44.76895" lon="3.35891">
        <ele>1030</ele>
        <time>2009-07-06T08:56:43Z</time>
      </trkpt>
      <trkpt lat="44.7687" lon="3.35891">
        <ele>1033</ele>
        <time>2009-07-06T08:56:52Z</time>
      </trkpt>
      <trkpt lat="44.7684" lon="3.35879">
        <ele>1037</ele>
        <time>2009-07-06T08:57:04Z</time>
      </trkpt>
      <trkpt lat="44.76805" lon="3.35861">
        <ele>1039</ele>
        <time>2009-07-06T08:57:18Z</time>
      </trkpt>
      <trkpt lat="44.76767" lon="3.35846">
        <ele>1041</ele>
        <time>2009-07-06T08:57:31Z</time>
      </trkpt>
      <trkpt lat="44.76752" lon="3.35836">
        <ele>1043</ele>
        <time>2009-07-06T08:57:36Z</time>
      </trkpt>
      <trkpt lat="44.76707" lon="3.35809">
        <ele>1046</ele>
        <time>2009-07-06T08:57:51Z</time>
      </trkpt>
      <trkpt lat="44.76644" lon="3.3579">
        <ele>1047</ele>
        <time>2009-07-06T08:58:09Z</time>
      </trkpt>
      <trkpt lat="44.76633" lon="3.35791">
        <ele>1047</ele>
        <time>2009-07-06T08:58:12Z</time>
      </trkpt>
      <trkpt lat="44.76588" lon="3.35783">
        <ele>1046</ele>
        <time>2009-07-06T08:58:22Z</time>
      </trkpt>
      <trkpt lat="44.76506" lon="3.35782">
        <ele>1043</ele>
        <time>2009-07-06T08:58:37Z</time>
      </trkpt>
      <trkpt lat="44.76486" lon="3.3577">
        <ele>1042</ele>
        <time>2009-07-06T08:58:41Z</time>
      </trkpt>
      <trkpt lat="44.76439" lon="3.35725">
        <ele>1040</ele>
        <time>2009-07-06T08:58:50Z</time>
      </trkpt>
      <trkpt lat="44.7641" lon="3.35712">
        <ele>1039</ele>
        <time>2009-07-06T08:58:55Z</time>
      </trkpt>
      <trkpt lat="44.76319" lon="3.35698">
        <ele>1038</ele>
        <time>2009-07-06T08:59:10Z</time>
      </trkpt>
      <trkpt lat="44.7623" lon="3.357">
        <ele>1036</ele>
        <time>2009-07-06T08:59:23Z</time>
      </trkpt>
      <trkpt lat="44.76162" lon="3.35688">
        <ele>1036</ele>
        <time>2009-07-06T08:59:35Z</time>
      </trkpt>
      <trkpt lat="44.76148" lon="3.35688">
        <ele>1038</ele>
        <time>2009-07-06T08:59:38Z</time>
      </trkpt>
      <trkpt lat="44.76121" lon="3.35684">
        <ele>1037</ele>
        <time>2009-07-06T08:59:46Z</time>
      </trkpt>
      <trkpt lat="44.7612" lon="3.35677">
        <ele>1037</ele>
        <time>2009-07-06T08:59:48Z</time>
      </trkpt>
      <trkpt lat="44.76122" lon="3.3564">
        <ele>1035</ele>
        <time>2009-07-06T08:59:56Z</time>
      </trkpt>
      <trkpt lat="44.76121" lon="3.35595">
        <ele>1033</ele>
        <time>2009-07-06T09:00:08Z</time>
      </trkpt>
      <trkpt lat="44.76116" lon="3.35588">
        <ele>1032</ele>
        <time>2009-07-06T09:00:10Z</time>
      </trkpt>
      <trkpt lat="44.76103" lon="3.35582">
        <ele>1030</ele>
        <time>2009-07-06T09:00:13Z</time>
      </trkpt>
      <trkpt lat="44.76077" lon="3.35577">
        <ele>1028</ele>
        <time>2009-07-06T09:00:17Z</time>
      </trkpt>
      <trkpt lat="44.76053" lon="3.35582">
        <ele>1027</ele>
        <time>2009-07-06T09:00:21Z</time>
      </trkpt>
      <trkpt lat="44.7603" lon="3.356">
        <ele>1025</ele>
        <time>2009-07-06T09:00:25Z</time>
      </trkpt>
      <trkpt lat="44.76024" lon="3.35605">
        <ele>1024</ele>
        <time>2009-07-06T09:00:26Z</time>
      </trkpt>
      <trkpt lat="44.7601" lon="3.35614">
        <ele>1022</ele>
        <time>2009-07-06T09:00:28Z</time>
      </trkpt>
      <trkpt lat="44.75973" lon="3.35632">
        <ele>1023</ele>
        <time>2009-07-06T09:00:33Z</time>
      </trkpt>
      <trkpt lat="44.75939" lon="3.35664">
        <ele>1025</ele>
        <time>2009-07-06T09:00:40Z</time>
      </trkpt>
      <trkpt lat="44.75895" lon="3.35695">
        <ele>1028</ele>
        <time>2009-07-06T09:00:53Z</time>
      </trkpt>
      <trkpt lat="44.75846" lon="3.35726">
        <ele>1031</ele>
        <time>2009-07-06T09:01:07Z</time>
      </trkpt>
      <trkpt lat="44.75801" lon="3.35751">
        <ele>1034</ele>
        <time>2009-07-06T09:01:20Z</time>
      </trkpt>
      <trkpt lat="44.75732" lon="3.35785">
        <ele>1038</ele>
        <time>2009-07-06T09:01:39Z</time>
      </trkpt>
      <trkpt lat="44.75728" lon="3.35787">
        <ele>1038</ele>
        <time>2009-07-06T09:01:40Z</time>
      </trkpt>
      <trkpt lat="44.7565" lon="3.35826">
        <ele>1040</ele>
        <time>2009-07-06T09:02:00Z</time>
      </trkpt>
      <trkpt lat="44.75628" lon="3.35836">
        <ele>1040</ele>
        <time>2009-07-06T09:02:05Z</time>
      </trkpt>
      <trkpt lat="44.75566" lon="3.35849">
        <ele>1041</ele>
        <time>2009-07-06T09:02:21Z</time>
      </trkpt>
      <trkpt lat="44.75533" lon="3.35851">
        <ele>1040</ele>
        <time>2009-07-06T09:02:35Z</time>
      </trkpt>
      <trkpt lat="44.75524" lon="3.35851">
        <ele>1040</ele>
        <time>2009-07-06T09:02:44Z</time>
      </trkpt>
      <trkpt lat="44.75523" lon="3.3585">
        <ele>1040</ele>
        <time>2009-07-06T09:03:40Z</time>
      </trkpt>
      <trkpt lat="44.75501" lon="3.35846">
        <ele>1038</ele>
        <time>2009-07-06T09:03:46Z</time>
      </trkpt>
      <trkpt lat="44.7545" lon="3.35844">
        <ele>1034</ele>
        <time>2009-07-06T09:03:54Z</time>
      </trkpt>
      <trkpt lat="44.75398" lon="3.35828">
        <ele>1033</ele>
        <time>2009-07-06T09:04:01Z</time>
      </trkpt>
      <trkpt lat="44.75386" lon="3.35827">
        <ele>1034</ele>
        <time>2009-07-06T09:04:03Z</time>
      </trkpt>
      <trkpt lat="44.7536" lon="3.35809">
        <ele>1035</ele>
        <time>2009-07-06T09:04:11Z</time>
      </trkpt>
      <trkpt lat="44.75326" lon="3.35765">
        <ele>1035</ele>
        <time>2009-07-06T09:04:25Z</time>
      </trkpt>
      <trkpt lat="44.75297" lon="3.35726">
        <ele>1036</ele>
        <time>2009-07-06T09:04:35Z</time>
      </trkpt>
      <trkpt lat="44.75281" lon="3.35707">
        <ele>1037</ele>
        <time>2009-07-06T09:04:40Z</time>
      </trkpt>
      <trkpt lat="44.75263" lon="3.35692">
        <ele>1038</ele>
        <time>2009-07-06T09:04:45Z</time>
      </trkpt>
      <trkpt lat="44.752" lon="3.35619">
        <ele>1040</ele>
        <time>2009-07-06T09:05:04Z</time>
      </trkpt>
      <trkpt lat="44.75176" lon="3.35591">
        <ele>1042</ele>
        <time>2009-07-06T09:05:11Z</time>
      </trkpt>
      <trkpt lat="44.75165" lon="3.35559">
        <ele>1043</ele>
        <time>2009-07-06T09:05:17Z</time>
      </trkpt>
      <trkpt lat="44.75161" lon="3.35549">
        <ele>1044</ele>
        <time>2009-07-06T09:05:19Z</time>
      </trkpt>
      <trkpt lat="44.7514" lon="3.35526">
        <ele>1044</ele>
        <time>2009-07-06T09:05:25Z</time>
      </trkpt>
      <trkpt lat="44.7506" lon="3.35478">
        <ele>1044</ele>
        <time>2009-07-06T09:05:44Z</time>
      </trkpt>
      <trkpt lat="44.75046" lon="3.3547">
        <ele>1044</ele>
        <time>2009-07-06T09:05:47Z</time>
      </trkpt>
      <trkpt lat="44.74987" lon="3.35443">
        <ele>1043</ele>
        <time>2009-07-06T09:06:00Z</time>
      </trkpt>
      <trkpt lat="44.74928" lon="3.3541">
        <ele>1041</ele>
        <time>2009-07-06T09:06:12Z</time>
      </trkpt>
      <trkpt lat="44.7488" lon="3.35345">
        <ele>1037</ele>
        <time>2009-07-06T09:06:23Z</time>
      </trkpt>
      <trkpt lat="44.74876" lon="3.35337">
        <ele>1038</ele>
        <time>2009-07-06T09:06:24Z</time>
      </trkpt>
      <trkpt lat="44.74863" lon="3.35303">
        <ele>1037</ele>
        <time>2009-07-06T09:06:28Z</time>
      </trkpt>
      <trkpt lat="44.74843" lon="3.35258">
        <ele>1033</ele>
        <time>2009-07-06T09:06:33Z</time>
      </trkpt>
      <trkpt lat="44.74785" lon="3.35148">
        <ele>1030</ele>
        <time>2009-07-06T09:06:44Z</time>
      </trkpt>
      <trkpt lat="44.74713" lon="3.35068">
        <ele>1031</ele>
        <time>2009-07-06T09:06:58Z</time>
      </trkpt>
      <trkpt lat="44.74686" lon="3.35051">
        <ele>1031</ele>
        <time>2009-07-06T09:07:03Z</time>
      </trkpt>
      <trkpt lat="44.74676" lon="3.35043">
        <ele>1031</ele>
        <time>2009-07-06T09:07:05Z</time>
      </trkpt>
      <trkpt lat="44.74576" lon="3.3501">
        <ele>1031</ele>
        <time>2009-07-06T09:07:22Z</time>
      </trkpt>
      <trkpt lat="44.74516" lon="3.3503">
        <ele>1031</ele>
        <time>2009-07-06T09:07:32Z</time>
      </trkpt>
      <trkpt lat="44.74492" lon="3.35055">
        <ele>1030</ele>
        <time>2009-07-06T09:07:37Z</time>
      </trkpt>
      <trkpt lat="44.74464" lon="3.35122">
        <ele>1027</ele>
        <time>2009-07-06T09:07:47Z</time>
      </trkpt>
      <trkpt lat="44.7445" lon="3.35171">
        <ele>1023</ele>
        <time>2009-07-06T09:07:52Z</time>
      </trkpt>
      <trkpt lat="44.74443" lon="3.35206">
        <ele>1019</ele>
        <time>2009-07-06T09:07:55Z</time>
      </trkpt>
      <trkpt lat="44.74425" lon="3.35246">
        <ele>1016</ele>
        <time>2009-07-06T09:07:59Z</time>
      </trkpt>
      <trkpt lat="44.7442" lon="3.35253">
        <ele>1016</ele>
        <time>2009-07-06T09:08:00Z</time>
      </trkpt>
      <trkpt lat="44.74393" lon="3.3529">
        <ele>1014</ele>
        <time>2009-07-06T09:08:09Z</time>
      </trkpt>
      <trkpt lat="44.74392" lon="3.35292">
        <ele>1014</ele>
        <time>2009-07-06T09:08:44Z</time>
      </trkpt>
      <trkpt lat="44.74373" lon="3.35302">
        <ele>1010</ele>
        <time>2009-07-06T09:08:53Z</time>
      </trkpt>
      <trkpt lat="44.74363" lon="3.35306">
        <ele>1007</ele>
        <time>2009-07-06T09:08:56Z</time>
      </trkpt>
      <trkpt lat="44.74354" lon="3.35308">
        <ele>1004</ele>
        <time>2009-07-06T09:08:59Z</time>
      </trkpt>
      <trkpt lat="44.74347" lon="3.35309">
        <ele>1001</ele>
        <time>2009-07-06T09:09:01Z</time>
      </trkpt>
      <trkpt lat="44.74328" lon="3.35299">
        <ele>998</ele>
        <time>2009-07-06T09:09:08Z</time>
      </trkpt>
      <trkpt lat="44.74323" lon="3.35299">
        <ele>997</ele>
        <time>2009-07-06T09:09:09Z</time>
      </trkpt>
      <trkpt lat="44.74309" lon="3.35295">
        <ele>995</ele>
        <time>2009-07-06T09:09:12Z</time>
      </trkpt>
      <trkpt lat="44.74293" lon="3.35296">
        <ele>992</ele>
        <time>2009-07-06T09:09:15Z</time>
      </trkpt>
      <trkpt lat="44.74279" lon="3.35298">
        <ele>988</ele>
        <time>2009-07-06T09:09:18Z</time>
      </trkpt>
      <trkpt lat="44.74274" lon="3.35298">
        <ele>988</ele>
        <time>2009-07-06T09:09:19Z</time>
      </trkpt>
      <trkpt lat="44.74267" lon="3.353">
        <ele>986</ele>
        <time>2009-07-06T09:09:21Z</time>
      </trkpt>
      <trkpt lat="44.74246" lon="3.35301">
        <ele>982</ele>
        <time>2009-07-06T09:09:26Z</time>
      </trkpt>
      <trkpt lat="44.74223" lon="3.35298">
        <ele>977</ele>
        <time>2009-07-06T09:09:31Z</time>
      </trkpt>
      <trkpt lat="44.74212" lon="3.35302">
        <ele>975</ele>
        <time>2009-07-06T09:09:34Z</time>
      </trkpt>
      <trkpt lat="44.74196" lon="3.35302">
        <ele>972</ele>
        <time>2009-07-06T09:09:38Z</time>
      </trkpt>
      <trkpt lat="44.74178" lon="3.35302">
        <ele>968</ele>
        <time>2009-07-06T09:09:41Z</time>
      </trkpt>
      <trkpt lat="44.74159" lon="3.35304">
        <ele>965</ele>
        <time>2009-07-06T09:09:44Z</time>
      </trkpt>
      <trkpt lat="44.74147" lon="3.35314">
        <ele>962</ele>
        <time>2009-07-06T09:09:47Z</time>
      </trkpt>
      <trkpt lat="44.74141" lon="3.35315">
        <ele>962</ele>
        <time>2009-07-06T09:09:52Z</time>
      </trkpt>
      <trkpt lat="44.74141" lon="3.35314">
        <ele>962</ele>
        <time>2009-07-06T09:09:53Z</time>
      </trkpt>
      <trkpt lat="44.7415" lon="3.35305">
        <ele>963</ele>
        <time>2009-07-06T09:10:01Z</time>
      </trkpt>
      <trkpt lat="44.74146" lon="3.35303">
        <ele>963</ele>
        <time>2009-07-06T09:10:03Z</time>
      </trkpt>
      <trkpt lat="44.74142" lon="3.35302">
        <ele>962</ele>
        <time>2009-07-06T09:10:05Z</time>
      </trkpt>
      <trkpt lat="44.74133" lon="3.35308">
        <ele>960</ele>
        <time>2009-07-06T09:10:11Z</time>
      </trkpt>
      <trkpt lat="44.74134" lon="3.35307">
        <ele>960</ele>
        <time>2009-07-06T09:10:28Z</time>
      </trkpt>
      <trkpt lat="44.74136" lon="3.35308">
        <ele>961</ele>
        <time>2009-07-06T09:10:57Z</time>
      </trkpt>
      <trkpt lat="44.74139" lon="3.35307">
        <ele>960</ele>
        <time>2009-07-06T09:11:09Z</time>
      </trkpt>
      <trkpt lat="44.74139" lon="3.35307">
        <ele>960</ele>
        <time>2009-07-06T09:12:10Z</time>
      </trkpt>
      <trkpt lat="44.74141" lon="3.35307">
        <ele>960</ele>
        <time>2009-07-06T09:13:14Z</time>
      </trkpt>
      <trkpt lat="44.74138" lon="3.35309">
        <ele>960</ele>
        <time>2009-07-06T09:26:51Z</time>
      </trkpt>
      <trkpt lat="44.74138" lon="3.35308">
        <ele>961</ele>
        <time>2009-07-06T09:27:04Z</time>
      </trkpt>
      <trkpt lat="44.74129" lon="3.35293">
        <ele>958</ele>
        <time>2009-07-06T09:27:10Z</time>
      </trkpt>
      <trkpt lat="44.74127" lon="3.35291">
        <ele>957</ele>
        <time>2009-07-06T09:27:11Z</time>
      </trkpt>
      <trkpt lat="44.74118" lon="3.35301">
        <ele>954</ele>
        <time>2009-07-06T09:27:16Z</time>
      </trkpt>
      <trkpt lat="44.74115" lon="3.35317">
        <ele>953</ele>
        <time>2009-07-06T09:27:19Z</time>
      </trkpt>
      <trkpt lat="44.74103" lon="3.35304">
        <ele>952</ele>
        <time>2009-07-06T09:27:24Z</time>
      </trkpt>
      <trkpt lat="44.74101" lon="3.35219">
        <ele>949</ele>
        <time>2009-07-06T09:27:35Z</time>
      </trkpt>
      <trkpt lat="44.74102" lon="3.35205">
        <ele>950</ele>
        <time>2009-07-06T09:27:37Z</time>
      </trkpt>
      <trkpt lat="44.74102" lon="3.35167">
        <ele>946</ele>
        <time>2009-07-06T09:27:42Z</time>
      </trkpt>
      <trkpt lat="44.74103" lon="3.3512">
        <ele>945</ele>
        <time>2009-07-06T09:27:48Z</time>
      </trkpt>
      <trkpt lat="44.7409" lon="3.35088">
        <ele>943</ele>
        <time>2009-07-06T09:27:52Z</time>
      </trkpt>
      <trkpt lat="44.74044" lon="3.35033">
        <ele>942</ele>
        <time>2009-07-06T09:28:00Z</time>
      </trkpt>
      <trkpt lat="44.74012" lon="3.34983">
        <ele>943</ele>
        <time>2009-07-06T09:28:07Z</time>
      </trkpt>
      <trkpt lat="44.7399" lon="3.34916">
        <ele>943</ele>
        <time>2009-07-06T09:28:18Z</time>
      </trkpt>
      <trkpt lat="44.73988" lon="3.3491">
        <ele>943</ele>
        <time>2009-07-06T09:28:19Z</time>
      </trkpt>
      <trkpt lat="44.73991" lon="3.34886">
        <ele>943</ele>
        <time>2009-07-06T09:28:23Z</time>
      </trkpt>
      <trkpt lat="44.74017" lon="3.34831">
        <ele>944</ele>
        <time>2009-07-06T09:28:33Z</time>
      </trkpt>
      <trkpt lat="44.7405" lon="3.34783">
        <ele>942</ele>
        <time>2009-07-06T09:28:44Z</time>
      </trkpt>
      <trkpt lat="44.74054" lon="3.34778">
        <ele>942</ele>
        <time>2009-07-06T09:28:45Z</time>
      </trkpt>
      <trkpt lat="44.74063" lon="3.34748">
        <ele>944</ele>
        <time>2009-07-06T09:28:51Z</time>
      </trkpt>
      <trkpt lat="44.74057" lon="3.34725">
        <ele>945</ele>
        <time>2009-07-06T09:28:57Z</time>
      </trkpt>
      <trkpt lat="44.74064" lon="3.347">
        <ele>949</ele>
        <time>2009-07-06T09:29:05Z</time>
      </trkpt>
      <trkpt lat="44.74066" lon="3.34697">
        <ele>948</ele>
        <time>2009-07-06T09:29:06Z</time>
      </trkpt>
      <trkpt lat="44.74083" lon="3.34643">
        <ele>952</ele>
        <time>2009-07-06T09:29:23Z</time>
      </trkpt>
      <trkpt lat="44.74089" lon="3.34595">
        <ele>955</ele>
        <time>2009-07-06T09:29:39Z</time>
      </trkpt>
      <trkpt lat="44.74082" lon="3.34568">
        <ele>958</ele>
        <time>2009-07-06T09:29:50Z</time>
      </trkpt>
      <trkpt lat="44.74059" lon="3.34551">
        <ele>962</ele>
        <time>2009-07-06T09:30:04Z</time>
      </trkpt>
      <trkpt lat="44.74043" lon="3.34546">
        <ele>965</ele>
        <time>2009-07-06T09:30:13Z</time>
      </trkpt>
      <trkpt lat="44.74036" lon="3.34544">
        <ele>966</ele>
        <time>2009-07-06T09:30:17Z</time>
      </trkpt>
      <trkpt lat="44.74001" lon="3.34548">
        <ele>969</ele>
        <time>2009-07-06T09:30:34Z</time>
      </trkpt>
      <trkpt lat="44.73965" lon="3.34563">
        <ele>973</ele>
        <time>2009-07-06T09:30:51Z</time>
      </trkpt>
      <trkpt lat="44.73935" lon="3.34566">
        <ele>976</ele>
        <time>2009-07-06T09:31:07Z</time>
      </trkpt>
      <trkpt lat="44.73918" lon="3.3455">
        <ele>979</ele>
        <time>2009-07-06T09:31:18Z</time>
      </trkpt>
      <trkpt lat="44.73895" lon="3.34531">
        <ele>983</ele>
        <time>2009-07-06T09:31:32Z</time>
      </trkpt>
      <trkpt lat="44.73878" lon="3.34516">
        <ele>986</ele>
        <time>2009-07-06T09:31:43Z</time>
      </trkpt>
      <trkpt lat="44.73858" lon="3.34498">
        <ele>990</ele>
        <time>2009-07-06T09:31:55Z</time>
      </trkpt>
      <trkpt lat="44.73842" lon="3.34485">
        <ele>993</ele>
        <time>2009-07-06T09:32:04Z</time>
      </trkpt>
      <trkpt lat="44.73815" lon="3.34464">
        <ele>996</ele>
        <time>2009-07-06T09:32:18Z</time>
      </trkpt>
      <trkpt lat="44.73774" lon="3.34436">
        <ele>997</ele>
        <time>2009-07-06T09:32:36Z</time>
      </trkpt>
      <trkpt lat="44.73754" lon="3.34412">
        <ele>1000</ele>
        <time>2009-07-06T09:32:47Z</time>
      </trkpt>
      <trkpt lat="44.73752" lon="3.3441">
        <ele>1001</ele>
        <time>2009-07-06T09:32:48Z</time>
      </trkpt>
      <trkpt lat="44.73733" lon="3.34371">
        <ele>1004</ele>
        <time>2009-07-06T09:33:02Z</time>
      </trkpt>
      <trkpt lat="44.73715" lon="3.34333">
        <ele>1007</ele>
        <time>2009-07-06T09:33:15Z</time>
      </trkpt>
      <trkpt lat="44.7369" lon="3.34286">
        <ele>1008</ele>
        <time>2009-07-06T09:33:33Z</time>
      </trkpt>
      <trkpt lat="44.73672" lon="3.34259">
        <ele>1008</ele>
        <time>2009-07-06T09:33:45Z</time>
      </trkpt>
      <trkpt lat="44.73671" lon="3.34258">
        <ele>1008</ele>
        <time>2009-07-06T09:34:16Z</time>
      </trkpt>
      <trkpt lat="44.7367" lon="3.34256">
        <ele>1008</ele>
        <time>2009-07-06T09:35:12Z</time>
      </trkpt>
      <trkpt lat="44.73669" lon="3.34257">
        <ele>1008</ele>
        <time>2009-07-06T09:36:01Z</time>
      </trkpt>
      <trkpt lat="44.73669" lon="3.34256">
        <ele>1007</ele>
        <time>2009-07-06T09:36:26Z</time>
      </trkpt>
      <trkpt lat="44.7367" lon="3.34256">
        <ele>1006</ele>
        <time>2009-07-06T09:37:07Z</time>
      </trkpt>
      <trkpt lat="44.73649" lon="3.34221">
        <ele>1006</ele>
        <time>2009-07-06T09:37:19Z</time>
      </trkpt>
      <trkpt lat="44.73643" lon="3.3421">
        <ele>1005</ele>
        <time>2009-07-06T09:37:21Z</time>
      </trkpt>
      <trkpt lat="44.73611" lon="3.3413">
        <ele>1004</ele>
        <time>2009-07-06T09:37:36Z</time>
      </trkpt>
      <trkpt lat="44.73583" lon="3.34103">
        <ele>1004</ele>
        <time>2009-07-06T09:37:47Z</time>
      </trkpt>
      <trkpt lat="44.73578" lon="3.34102">
        <ele>1004</ele>
        <time>2009-07-06T09:37:50Z</time>
      </trkpt>
      <trkpt lat="44.73563" lon="3.34088">
        <ele>1000</ele>
        <time>2009-07-06T09:37:54Z</time>
      </trkpt>
      <trkpt lat="44.73551" lon="3.34077">
        <ele>995</ele>
        <time>2009-07-06T09:37:56Z</time>
      </trkpt>
      <trkpt lat="44.73537" lon="3.34065">
        <ele>993</ele>
        <time>2009-07-06T09:37:58Z</time>
      </trkpt>
      <trkpt lat="44.7344" lon="3.34003">
        <ele>989</ele>
        <time>2009-07-06T09:38:10Z</time>
      </trkpt>
      <trkpt lat="44.73421" lon="3.33997">
        <ele>987</ele>
        <time>2009-07-06T09:38:13Z</time>
      </trkpt>
      <trkpt lat="44.73416" lon="3.33995">
        <ele>988</ele>
        <time>2009-07-06T09:38:14Z</time>
      </trkpt>
      <trkpt lat="44.73406" lon="3.33975">
        <ele>985</ele>
        <time>2009-07-06T09:38:19Z</time>
      </trkpt>
      <trkpt lat="44.7341" lon="3.33953">
        <ele>984</ele>
        <time>2009-07-06T09:38:23Z</time>
      </trkpt>
      <trkpt lat="44.73414" lon="3.33929">
        <ele>984</ele>
        <time>2009-07-06T09:38:27Z</time>
      </trkpt>
      <trkpt lat="44.73416" lon="3.33872">
        <ele>985</ele>
        <time>2009-07-06T09:38:41Z</time>
      </trkpt>
      <trkpt lat="44.7344" lon="3.33832">
        <ele>988</ele>
        <time>2009-07-06T09:38:52Z</time>
      </trkpt>
      <trkpt lat="44.73456" lon="3.33804">
        <ele>990</ele>
        <time>2009-07-06T09:39:00Z</time>
      </trkpt>
      <trkpt lat="44.73463" lon="3.33742">
        <ele>990</ele>
        <time>2009-07-06T09:39:13Z</time>
      </trkpt>
      <trkpt lat="44.73459" lon="3.33716">
        <ele>989</ele>
        <time>2009-07-06T09:39:18Z</time>
      </trkpt>
      <trkpt lat="44.7345" lon="3.33684">
        <ele>988</ele>
        <time>2009-07-06T09:39:23Z</time>
      </trkpt>
      <trkpt lat="44.73447" lon="3.33656">
        <ele>987</ele>
        <time>2009-07-06T09:39:27Z</time>
      </trkpt>
      <trkpt lat="44.73447" lon="3.33592">
        <ele>987</ele>
        <time>2009-07-06T09:39:37Z</time>
      </trkpt>
      <trkpt lat="44.73469" lon="3.33509">
        <ele>990</ele>
        <time>2009-07-06T09:39:53Z</time>
      </trkpt>
      <trkpt lat="44.7348" lon="3.33472">
        <ele>994</ele>
        <time>2009-07-06T09:40:02Z</time>
      </trkpt>
      <trkpt lat="44.73473" lon="3.3341">
        <ele>996</ele>
        <time>2009-07-06T09:40:16Z</time>
      </trkpt>
      <trkpt lat="44.73472" lon="3.33405">
        <ele>995</ele>
        <time>2009-07-06T09:40:17Z</time>
      </trkpt>
      <trkpt lat="44.73455" lon="3.33351">
        <ele>991</ele>
        <time>2009-07-06T09:40:24Z</time>
      </trkpt>
      <trkpt lat="44.7343" lon="3.33289">
        <ele>991</ele>
        <time>2009-07-06T09:40:32Z</time>
      </trkpt>
      <trkpt lat="44.73397" lon="3.33255">
        <ele>990</ele>
        <time>2009-07-06T09:40:39Z</time>
      </trkpt>
      <trkpt lat="44.7338" lon="3.33249">
        <ele>990</ele>
        <time>2009-07-06T09:40:42Z</time>
      </trkpt>
      <trkpt lat="44.73362" lon="3.33237">
        <ele>990</ele>
        <time>2009-07-06T09:40:46Z</time>
      </trkpt>
      <trkpt lat="44.73339" lon="3.33214">
        <ele>991</ele>
        <time>2009-07-06T09:40:52Z</time>
      </trkpt>
      <trkpt lat="44.73327" lon="3.33193">
        <ele>991</ele>
        <time>2009-07-06T09:40:56Z</time>
      </trkpt>
      <trkpt lat="44.73296" lon="3.33127">
        <ele>993</ele>
        <time>2009-07-06T09:41:09Z</time>
      </trkpt>
      <trkpt lat="44.73272" lon="3.33061">
        <ele>996</ele>
        <time>2009-07-06T09:41:21Z</time>
      </trkpt>
      <trkpt lat="44.73263" lon="3.33047">
        <ele>996</ele>
        <time>2009-07-06T09:41:24Z</time>
      </trkpt>
      <trkpt lat="44.73245" lon="3.33027">
        <ele>995</ele>
        <time>2009-07-06T09:41:29Z</time>
      </trkpt>
      <trkpt lat="44.73239" lon="3.33018">
        <ele>996</ele>
        <time>2009-07-06T09:41:31Z</time>
      </trkpt>
      <trkpt lat="44.73199" lon="3.32995">
        <ele>997</ele>
        <time>2009-07-06T09:41:41Z</time>
      </trkpt>
      <trkpt lat="44.73171" lon="3.32998">
        <ele>1001</ele>
        <time>2009-07-06T09:41:52Z</time>
      </trkpt>
      <trkpt lat="44.73169" lon="3.33">
        <ele>1001</ele>
        <time>2009-07-06T09:41:53Z</time>
      </trkpt>
      <trkpt lat="44.73156" lon="3.33018">
        <ele>1004</ele>
        <time>2009-07-06T09:42:01Z</time>
      </trkpt>
      <trkpt lat="44.73131" lon="3.33042">
        <ele>1008</ele>
        <time>2009-07-06T09:42:14Z</time>
      </trkpt>
      <trkpt lat="44.73122" lon="3.3304">
        <ele>1010</ele>
        <time>2009-07-06T09:42:18Z</time>
      </trkpt>
      <trkpt lat="44.73097" lon="3.33023">
        <ele>1013</ele>
        <time>2009-07-06T09:42:32Z</time>
      </trkpt>
      <trkpt lat="44.73079" lon="3.33005">
        <ele>1016</ele>
        <time>2009-07-06T09:42:42Z</time>
      </trkpt>
      <trkpt lat="44.73077" lon="3.33003">
        <ele>1016</ele>
        <time>2009-07-06T09:42:43Z</time>
      </trkpt>
      <trkpt lat="44.73047" lon="3.32993">
        <ele>1019</ele>
        <time>2009-07-06T09:42:57Z</time>
      </trkpt>
      <trkpt lat="44.7302" lon="3.32994">
        <ele>1022</ele>
        <time>2009-07-06T09:43:09Z</time>
      </trkpt>
      <trkpt lat="44.72987" lon="3.32995">
        <ele>1025</ele>
        <time>2009-07-06T09:43:23Z</time>
      </trkpt>
      <trkpt lat="44.72956" lon="3.32997">
        <ele>1028</ele>
        <time>2009-07-06T09:43:37Z</time>
      </trkpt>
      <trkpt lat="44.72948" lon="3.32995">
        <ele>1029</ele>
        <time>2009-07-06T09:43:41Z</time>
      </trkpt>
      <trkpt lat="44.72939" lon="3.32996">
        <ele>1030</ele>
        <time>2009-07-06T09:43:45Z</time>
      </trkpt>
      <trkpt lat="44.72921" lon="3.33008">
        <ele>1033</ele>
        <time>2009-07-06T09:43:54Z</time>
      </trkpt>
      <trkpt lat="44.72886" lon="3.33025">
        <ele>1037</ele>
        <time>2009-07-06T09:44:10Z</time>
      </trkpt>
      <trkpt lat="44.7286" lon="3.33037">
        <ele>1040</ele>
        <time>2009-07-06T09:44:22Z</time>
      </trkpt>
      <trkpt lat="44.72834" lon="3.33064">
        <ele>1043</ele>
        <time>2009-07-06T09:44:36Z</time>
      </trkpt>
      <trkpt lat="44.72807" lon="3.3309">
        <ele>1046</ele>
        <time>2009-07-06T09:44:49Z</time>
      </trkpt>
      <trkpt lat="44.72784" lon="3.33113">
        <ele>1050</ele>
        <time>2009-07-06T09:45:00Z</time>
      </trkpt>
      <trkpt lat="44.72742" lon="3.33141">
        <ele>1051</ele>
        <time>2009-07-06T09:45:16Z</time>
      </trkpt>
      <trkpt lat="44.72695" lon="3.3315">
        <ele>1049</ele>
        <time>2009-07-06T09:45:29Z</time>
      </trkpt>
      <trkpt lat="44.72691" lon="3.33152">
        <ele>1049</ele>
        <time>2009-07-06T09:45:30Z</time>
      </trkpt>
      <trkpt lat="44.72645" lon="3.33171">
        <ele>1048</ele>
        <time>2009-07-06T09:45:41Z</time>
      </trkpt>
      <trkpt lat="44.7262" lon="3.3318">
        <ele>1048</ele>
        <time>2009-07-06T09:45:47Z</time>
      </trkpt>
      <trkpt lat="44.72592" lon="3.33159">
        <ele>1049</ele>
        <time>2009-07-06T09:45:56Z</time>
      </trkpt>
      <trkpt lat="44.72585" lon="3.33147">
        <ele>1051</ele>
        <time>2009-07-06T09:45:59Z</time>
      </trkpt>
      <trkpt lat="44.72572" lon="3.33118">
        <ele>1055</ele>
        <time>2009-07-06T09:46:06Z</time>
      </trkpt>
      <trkpt lat="44.7257" lon="3.33115">
        <ele>1055</ele>
        <time>2009-07-06T09:46:07Z</time>
      </trkpt>
      <trkpt lat="44.72562" lon="3.33102">
        <ele>1056</ele>
        <time>2009-07-06T09:46:11Z</time>
      </trkpt>
      <trkpt lat="44.72558" lon="3.33096">
        <ele>1058</ele>
        <time>2009-07-06T09:46:13Z</time>
      </trkpt>
      <trkpt lat="44.72547" lon="3.3308">
        <ele>1060</ele>
        <time>2009-07-06T09:46:18Z</time>
      </trkpt>
      <trkpt lat="44.7253" lon="3.33051">
        <ele>1062</ele>
        <time>2009-07-06T09:46:26Z</time>
      </trkpt>
      <trkpt lat="44.72523" lon="3.33042">
        <ele>1063</ele>
        <time>2009-07-06T09:46:30Z</time>
      </trkpt>
      <trkpt lat="44.72514" lon="3.33026">
        <ele>1063</ele>
        <time>2009-07-06T09:46:35Z</time>
      </trkpt>
      <trkpt lat="44.72508" lon="3.3302">
        <ele>1063</ele>
        <time>2009-07-06T09:46:37Z</time>
      </trkpt>
      <trkpt lat="44.72502" lon="3.33011">
        <ele>1063</ele>
        <time>2009-07-06T09:46:40Z</time>
      </trkpt>
      <trkpt lat="44.72467" lon="3.32942">
        <ele>1062</ele>
        <time>2009-07-06T09:46:56Z</time>
      </trkpt>
      <trkpt lat="44.72453" lon="3.329">
        <ele>1060</ele>
        <time>2009-07-06T09:47:07Z</time>
      </trkpt>
      <trkpt lat="44.72437" lon="3.32856">
        <ele>1061</ele>
        <time>2009-07-06T09:47:19Z</time>
      </trkpt>
      <trkpt lat="44.72437" lon="3.32854">
        <ele>1061</ele>
        <time>2009-07-06T09:47:29Z</time>
      </trkpt>
      <trkpt lat="44.72438" lon="3.32855">
        <ele>1061</ele>
        <time>2009-07-06T09:47:46Z</time>
      </trkpt>
      <trkpt lat="44.7244" lon="3.32855">
        <ele>1061</ele>
        <time>2009-07-06T09:50:13Z</time>
      </trkpt>
      <trkpt lat="44.72441" lon="3.32854">
        <ele>1061</ele>
        <time>2009-07-06T09:50:30Z</time>
      </trkpt>
      <trkpt lat="44.72441" lon="3.32845">
        <ele>1060</ele>
        <time>2009-07-06T09:50:34Z</time>
      </trkpt>
      <trkpt lat="44.72422" lon="3.32779">
        <ele>1057</ele>
        <time>2009-07-06T09:50:49Z</time>
      </trkpt>
      <trkpt lat="44.72421" lon="3.32773">
        <ele>1057</ele>
        <time>2009-07-06T09:50:50Z</time>
      </trkpt>
      <trkpt lat="44.72393" lon="3.32677">
        <ele>1055</ele>
        <time>2009-07-06T09:51:04Z</time>
      </trkpt>
      <trkpt lat="44.72394" lon="3.32616">
        <ele>1055</ele>
        <time>2009-07-06T09:51:13Z</time>
      </trkpt>
      <trkpt lat="44.72396" lon="3.32582">
        <ele>1056</ele>
        <time>2009-07-06T09:51:18Z</time>
      </trkpt>
      <trkpt lat="44.72397" lon="3.32568">
        <ele>1056</ele>
        <time>2009-07-06T09:51:20Z</time>
      </trkpt>
      <trkpt lat="44.72413" lon="3.3244">
        <ele>1058</ele>
        <time>2009-07-06T09:51:41Z</time>
      </trkpt>
      <trkpt lat="44.72419" lon="3.32399">
        <ele>1059</ele>
        <time>2009-07-06T09:51:48Z</time>
      </trkpt>
      <trkpt lat="44.7243" lon="3.32324">
        <ele>1063</ele>
        <time>2009-07-06T09:52:01Z</time>
      </trkpt>
      <trkpt lat="44.72434" lon="3.32294">
        <ele>1060</ele>
        <time>2009-07-06T09:52:06Z</time>
      </trkpt>
      <trkpt lat="44.72433" lon="3.32184">
        <ele>1060</ele>
        <time>2009-07-06T09:52:21Z</time>
      </trkpt>
      <trkpt lat="44.72432" lon="3.32162">
        <ele>1058</ele>
        <time>2009-07-06T09:52:24Z</time>
      </trkpt>
      <trkpt lat="44.72432" lon="3.32148">
        <ele>1059</ele>
        <time>2009-07-06T09:52:26Z</time>
      </trkpt>
      <trkpt lat="44.7245" lon="3.32099">
        <ele>1059</ele>
        <time>2009-07-06T09:52:34Z</time>
      </trkpt>
      <trkpt lat="44.72481" lon="3.32052">
        <ele>1061</ele>
        <time>2009-07-06T09:52:44Z</time>
      </trkpt>
      <trkpt lat="44.72487" lon="3.32018">
        <ele>1060</ele>
        <time>2009-07-06T09:52:50Z</time>
      </trkpt>
      <trkpt lat="44.72498" lon="3.31928">
        <ele>1065</ele>
        <time>2009-07-06T09:53:07Z</time>
      </trkpt>
      <trkpt lat="44.725" lon="3.31922">
        <ele>1065</ele>
        <time>2009-07-06T09:53:08Z</time>
      </trkpt>
      <trkpt lat="44.72502" lon="3.31906">
        <ele>1065</ele>
        <time>2009-07-06T09:53:11Z</time>
      </trkpt>
      <trkpt lat="44.72506" lon="3.31849">
        <ele>1067</ele>
        <time>2009-07-06T09:53:21Z</time>
      </trkpt>
      <trkpt lat="44.72518" lon="3.31732">
        <ele>1066</ele>
        <time>2009-07-06T09:53:39Z</time>
      </trkpt>
      <trkpt lat="44.72517" lon="3.31688">
        <ele>1067</ele>
        <time>2009-07-06T09:53:49Z</time>
      </trkpt>
      <trkpt lat="44.72524" lon="3.3161">
        <ele>1071</ele>
        <time>2009-07-06T09:54:05Z</time>
      </trkpt>
      <trkpt lat="44.72525" lon="3.31606">
        <ele>1071</ele>
        <time>2009-07-06T09:54:06Z</time>
      </trkpt>
      <trkpt lat="44.72539" lon="3.31519">
        <ele>1073</ele>
        <time>2009-07-06T09:54:23Z</time>
      </trkpt>
      <trkpt lat="44.72541" lon="3.31439">
        <ele>1077</ele>
        <time>2009-07-06T09:54:38Z</time>
      </trkpt>
      <trkpt lat="44.72545" lon="3.31397">
        <ele>1078</ele>
        <time>2009-07-06T09:54:46Z</time>
      </trkpt>
      <trkpt lat="44.72552" lon="3.31303">
        <ele>1080</ele>
        <time>2009-07-06T09:55:04Z</time>
      </trkpt>
      <trkpt lat="44.72554" lon="3.31232">
        <ele>1083</ele>
        <time>2009-07-06T09:55:20Z</time>
      </trkpt>
      <trkpt lat="44.72557" lon="3.31178">
        <ele>1087</ele>
        <time>2009-07-06T09:55:33Z</time>
      </trkpt>
      <trkpt lat="44.72557" lon="3.31174">
        <ele>1087</ele>
        <time>2009-07-06T09:55:34Z</time>
      </trkpt>
      <trkpt lat="44.72556" lon="3.3114">
        <ele>1089</ele>
        <time>2009-07-06T09:55:44Z</time>
      </trkpt>
      <trkpt lat="44.72557" lon="3.3111">
        <ele>1093</ele>
        <time>2009-07-06T09:55:53Z</time>
      </trkpt>
      <trkpt lat="44.72557" lon="3.31106">
        <ele>1093</ele>
        <time>2009-07-06T09:55:54Z</time>
      </trkpt>
      <trkpt lat="44.72557" lon="3.31036">
        <ele>1092</ele>
        <time>2009-07-06T09:56:13Z</time>
      </trkpt>
      <trkpt lat="44.72557" lon="3.3095">
        <ele>1093</ele>
        <time>2009-07-06T09:56:31Z</time>
      </trkpt>
      <trkpt lat="44.72547" lon="3.30879">
        <ele>1096</ele>
        <time>2009-07-06T09:56:46Z</time>
      </trkpt>
      <trkpt lat="44.72531" lon="3.30808">
        <ele>1098</ele>
        <time>2009-07-06T09:57:02Z</time>
      </trkpt>
      <trkpt lat="44.72514" lon="3.3075">
        <ele>1101</ele>
        <time>2009-07-06T09:57:19Z</time>
      </trkpt>
      <trkpt lat="44.72483" lon="3.30747">
        <ele>1102</ele>
        <time>2009-07-06T09:57:31Z</time>
      </trkpt>
      <trkpt lat="44.72443" lon="3.3072">
        <ele>1103</ele>
        <time>2009-07-06T09:57:46Z</time>
      </trkpt>
      <trkpt lat="44.72406" lon="3.30658">
        <ele>1103</ele>
        <time>2009-07-06T09:58:03Z</time>
      </trkpt>
      <trkpt lat="44.72353" lon="3.30628">
        <ele>1104</ele>
        <time>2009-07-06T09:58:19Z</time>
      </trkpt>
      <trkpt lat="44.72287" lon="3.3059">
        <ele>1104</ele>
        <time>2009-07-06T09:58:38Z</time>
      </trkpt>
      <trkpt lat="44.72237" lon="3.30511">
        <ele>1104</ele>
        <time>2009-07-06T09:58:57Z</time>
      </trkpt>
      <trkpt lat="44.72197" lon="3.30441">
        <ele>1101</ele>
        <time>2009-07-06T09:59:09Z</time>
      </trkpt>
      <trkpt lat="44.72126" lon="3.30372">
        <ele>1100</ele>
        <time>2009-07-06T09:59:22Z</time>
      </trkpt>
      <trkpt lat="44.72105" lon="3.30342">
        <ele>1097</ele>
        <time>2009-07-06T09:59:26Z</time>
      </trkpt>
      <trkpt lat="44.72098" lon="3.30269">
        <ele>1096</ele>
        <time>2009-07-06T09:59:34Z</time>
      </trkpt>
      <trkpt lat="44.72101" lon="3.30255">
        <ele>1098</ele>
        <time>2009-07-06T09:59:36Z</time>
      </trkpt>
      <trkpt lat="44.72138" lon="3.30168">
        <ele>1099</ele>
        <time>2009-07-06T09:59:50Z</time>
      </trkpt>
      <trkpt lat="44.72137" lon="3.3015">
        <ele>1098</ele>
        <time>2009-07-06T09:59:58Z</time>
      </trkpt>
      <trkpt lat="44.72137" lon="3.30151">
        <ele>1098</ele>
        <time>2009-07-06T10:00:21Z</time>
      </trkpt>
      <trkpt lat="44.72124" lon="3.30161">
        <ele>1096</ele>
        <time>2009-07-06T10:00:44Z</time>
      </trkpt>
      <trkpt lat="44.72113" lon="3.30169">
        <ele>1093</ele>
        <time>2009-07-06T10:00:47Z</time>
      </trkpt>
      <trkpt lat="44.72093" lon="3.30189">
        <ele>1089</ele>
        <time>2009-07-06T10:00:51Z</time>
      </trkpt>
      <trkpt lat="44.72086" lon="3.30196">
        <ele>1088</ele>
        <time>2009-07-06T10:00:52Z</time>
      </trkpt>
      <trkpt lat="44.72063" lon="3.30231">
        <ele>1088</ele>
        <time>2009-07-06T10:00:56Z</time>
      </trkpt>
      <trkpt lat="44.72035" lon="3.30307">
        <ele>1084</ele>
        <time>2009-07-06T10:01:03Z</time>
      </trkpt>
      <trkpt lat="44.7203" lon="3.30377">
        <ele>1083</ele>
        <time>2009-07-06T10:01:09Z</time>
      </trkpt>
      <trkpt lat="44.72037" lon="3.30411">
        <ele>1081</ele>
        <time>2009-07-06T10:01:12Z</time>
      </trkpt>
      <trkpt lat="44.72047" lon="3.30457">
        <ele>1078</ele>
        <time>2009-07-06T10:01:16Z</time>
      </trkpt>
      <trkpt lat="44.72056" lon="3.30492">
        <ele>1075</ele>
        <time>2009-07-06T10:01:19Z</time>
      </trkpt>
      <trkpt lat="44.72059" lon="3.30503">
        <ele>1075</ele>
        <time>2009-07-06T10:01:20Z</time>
      </trkpt>
      <trkpt lat="44.72076" lon="3.30624">
        <ele>1077</ele>
        <time>2009-07-06T10:01:32Z</time>
      </trkpt>
      <trkpt lat="44.72078" lon="3.30633">
        <ele>1077</ele>
        <time>2009-07-06T10:01:33Z</time>
      </trkpt>
      <trkpt lat="44.72124" lon="3.30749">
        <ele>1073</ele>
        <time>2009-07-06T10:01:48Z</time>
      </trkpt>
      <trkpt lat="44.72133" lon="3.30769">
        <ele>1075</ele>
        <time>2009-07-06T10:01:51Z</time>
      </trkpt>
      <trkpt lat="44.72137" lon="3.30805">
        <ele>1076</ele>
        <time>2009-07-06T10:01:56Z</time>
      </trkpt>
      <trkpt lat="44.72133" lon="3.30826">
        <ele>1077</ele>
        <time>2009-07-06T10:01:59Z</time>
      </trkpt>
      <trkpt lat="44.72127" lon="3.30912">
        <ele>1080</ele>
        <time>2009-07-06T10:02:11Z</time>
      </trkpt>
      <trkpt lat="44.72123" lon="3.31001">
        <ele>1083</ele>
        <time>2009-07-06T10:02:25Z</time>
      </trkpt>
      <trkpt lat="44.72123" lon="3.31025">
        <ele>1085</ele>
        <time>2009-07-06T10:02:29Z</time>
      </trkpt>
      <trkpt lat="44.72139" lon="3.31074">
        <ele>1080</ele>
        <time>2009-07-06T10:02:37Z</time>
      </trkpt>
      <trkpt lat="44.72142" lon="3.31081">
        <ele>1080</ele>
        <time>2009-07-06T10:02:38Z</time>
      </trkpt>
      <trkpt lat="44.72166" lon="3.31148">
        <ele>1077</ele>
        <time>2009-07-06T10:02:46Z</time>
      </trkpt>
      <trkpt lat="44.72172" lon="3.31176">
        <ele>1076</ele>
        <time>2009-07-06T10:02:49Z</time>
      </trkpt>
      <trkpt lat="44.72165" lon="3.31233">
        <ele>1074</ele>
        <time>2009-07-06T10:02:55Z</time>
      </trkpt>
      <trkpt lat="44.72148" lon="3.31269">
        <ele>1074</ele>
        <time>2009-07-06T10:03:02Z</time>
      </trkpt>
      <trkpt lat="44.72139" lon="3.31261">
        <ele>1073</ele>
        <time>2009-07-06T10:03:15Z</time>
      </trkpt>
      <trkpt lat="44.7213" lon="3.31254">
        <ele>1073</ele>
        <time>2009-07-06T10:03:38Z</time>
      </trkpt>
      <trkpt lat="44.72089" lon="3.31301">
        <ele>1071</ele>
        <time>2009-07-06T10:03:52Z</time>
      </trkpt>
      <trkpt lat="44.7206" lon="3.31335">
        <ele>1068</ele>
        <time>2009-07-06T10:03:59Z</time>
      </trkpt>
      <trkpt lat="44.72044" lon="3.31354">
        <ele>1066</ele>
        <time>2009-07-06T10:04:02Z</time>
      </trkpt>
      <trkpt lat="44.72032" lon="3.31367">
        <ele>1067</ele>
        <time>2009-07-06T10:04:08Z</time>
      </trkpt>
      <trkpt lat="44.7203" lon="3.31366">
        <ele>1068</ele>
        <time>2009-07-06T10:04:11Z</time>
      </trkpt>
      <trkpt lat="44.72025" lon="3.31366">
        <ele>1066</ele>
        <time>2009-07-06T10:04:25Z</time>
      </trkpt>
      <trkpt lat="44.72025" lon="3.31367">
        <ele>1066</ele>
        <time>2009-07-06T10:04:27Z</time>
      </trkpt>
      <trkpt lat="44.72016" lon="3.31379">
        <ele>1066</ele>
        <time>2009-07-06T10:04:33Z</time>
      </trkpt>
      <trkpt lat="44.71996" lon="3.31402">
        <ele>1062</ele>
        <time>2009-07-06T10:04:39Z</time>
      </trkpt>
      <trkpt lat="44.71992" lon="3.31408">
        <ele>1061</ele>
        <time>2009-07-06T10:04:40Z</time>
      </trkpt>
      <trkpt lat="44.71975" lon="3.3143">
        <ele>1061</ele>
        <time>2009-07-06T10:04:44Z</time>
      </trkpt>
      <trkpt lat="44.71961" lon="3.3145">
        <ele>1061</ele>
        <time>2009-07-06T10:04:47Z</time>
      </trkpt>
      <trkpt lat="44.71954" lon="3.31481">
        <ele>1060</ele>
        <time>2009-07-06T10:04:51Z</time>
      </trkpt>
      <trkpt lat="44.71938" lon="3.31503">
        <ele>1060</ele>
        <time>2009-07-06T10:04:56Z</time>
      </trkpt>
      <trkpt lat="44.71906" lon="3.31521">
        <ele>1061</ele>
        <time>2009-07-06T10:05:04Z</time>
      </trkpt>
      <trkpt lat="44.71832" lon="3.31539">
        <ele>1062</ele>
        <time>2009-07-06T10:05:23Z</time>
      </trkpt>
      <trkpt lat="44.71812" lon="3.31562">
        <ele>1059</ele>
        <time>2009-07-06T10:05:28Z</time>
      </trkpt>
      <trkpt lat="44.71803" lon="3.31576">
        <ele>1058</ele>
        <time>2009-07-06T10:05:30Z</time>
      </trkpt>
      <trkpt lat="44.71774" lon="3.316">
        <ele>1059</ele>
        <time>2009-07-06T10:05:37Z</time>
      </trkpt>
      <trkpt lat="44.71769" lon="3.31601">
        <ele>1057</ele>
        <time>2009-07-06T10:05:50Z</time>
      </trkpt>
      <trkpt lat="44.71759" lon="3.31606">
        <ele>1054</ele>
        <time>2009-07-06T10:06:00Z</time>
      </trkpt>
      <trkpt lat="44.71753" lon="3.31609">
        <ele>1053</ele>
        <time>2009-07-06T10:06:02Z</time>
      </trkpt>
      <trkpt lat="44.71732" lon="3.31618">
        <ele>1049</ele>
        <time>2009-07-06T10:06:06Z</time>
      </trkpt>
      <trkpt lat="44.71726" lon="3.31621">
        <ele>1048</ele>
        <time>2009-07-06T10:06:07Z</time>
      </trkpt>
      <trkpt lat="44.71691" lon="3.31632">
        <ele>1045</ele>
        <time>2009-07-06T10:06:13Z</time>
      </trkpt>
      <trkpt lat="44.71684" lon="3.31628">
        <ele>1045</ele>
        <time>2009-07-06T10:06:22Z</time>
      </trkpt>
      <trkpt lat="44.71684" lon="3.31628">
        <ele>1045</ele>
        <time>2009-07-06T10:06:44Z</time>
      </trkpt>
      <trkpt lat="44.71683" lon="3.31627">
        <ele>1044</ele>
        <time>2009-07-06T10:06:54Z</time>
      </trkpt>
      <trkpt lat="44.71671" lon="3.31653">
        <ele>1043</ele>
        <time>2009-07-06T10:07:06Z</time>
      </trkpt>
      <trkpt lat="44.71638" lon="3.31721">
        <ele>1043</ele>
        <time>2009-07-06T10:07:21Z</time>
      </trkpt>
      <trkpt lat="44.71588" lon="3.31806">
        <ele>1046</ele>
        <time>2009-07-06T10:07:41Z</time>
      </trkpt>
      <trkpt lat="44.7156" lon="3.31835">
        <ele>1049</ele>
        <time>2009-07-06T10:07:53Z</time>
      </trkpt>
      <trkpt lat="44.7155" lon="3.31848">
        <ele>1052</ele>
        <time>2009-07-06T10:07:59Z</time>
      </trkpt>
      <trkpt lat="44.71534" lon="3.31873">
        <ele>1055</ele>
        <time>2009-07-06T10:08:10Z</time>
      </trkpt>
      <trkpt lat="44.71519" lon="3.31885">
        <ele>1057</ele>
        <time>2009-07-06T10:08:17Z</time>
      </trkpt>
      <trkpt lat="44.71492" lon="3.31904">
        <ele>1061</ele>
        <time>2009-07-06T10:08:29Z</time>
      </trkpt>
      <trkpt lat="44.71449" lon="3.3194">
        <ele>1063</ele>
        <time>2009-07-06T10:08:47Z</time>
      </trkpt>
      <trkpt lat="44.71419" lon="3.31994">
        <ele>1064</ele>
        <time>2009-07-06T10:09:03Z</time>
      </trkpt>
      <trkpt lat="44.71397" lon="3.32041">
        <ele>1062</ele>
        <time>2009-07-06T10:09:13Z</time>
      </trkpt>
      <trkpt lat="44.71391" lon="3.32062">
        <ele>1061</ele>
        <time>2009-07-06T10:09:16Z</time>
      </trkpt>
      <trkpt lat="44.71387" lon="3.32124">
        <ele>1060</ele>
        <time>2009-07-06T10:09:28Z</time>
      </trkpt>
      <trkpt lat="44.71388" lon="3.32148">
        <ele>1060</ele>
        <time>2009-07-06T10:10:12Z</time>
      </trkpt>
      <trkpt lat="44.71369" lon="3.32165">
        <ele>1058</ele>
        <time>2009-07-06T10:10:19Z</time>
      </trkpt>
      <trkpt lat="44.71362" lon="3.32161">
        <ele>1057</ele>
        <time>2009-07-06T10:10:21Z</time>
      </trkpt>
      <trkpt lat="44.71353" lon="3.32155">
        <ele>1057</ele>
        <time>2009-07-06T10:10:31Z</time>
      </trkpt>
      <trkpt lat="44.71335" lon="3.32166">
        <ele>1056</ele>
        <time>2009-07-06T10:10:47Z</time>
      </trkpt>
      <trkpt lat="44.7133" lon="3.32187">
        <ele>1054</ele>
        <time>2009-07-06T10:10:52Z</time>
      </trkpt>
      <trkpt lat="44.7131" lon="3.32203">
        <ele>1051</ele>
        <time>2009-07-06T10:10:58Z</time>
      </trkpt>
      <trkpt lat="44.713" lon="3.3221">
        <ele>1051</ele>
        <time>2009-07-06T10:11:00Z</time>
      </trkpt>
      <trkpt lat="44.71289" lon="3.32214">
        <ele>1050</ele>
        <time>2009-07-06T10:11:02Z</time>
      </trkpt>
      <trkpt lat="44.71267" lon="3.32215">
        <ele>1049</ele>
        <time>2009-07-06T10:11:06Z</time>
      </trkpt>
      <trkpt lat="44.7124" lon="3.32221">
        <ele>1048</ele>
        <time>2009-07-06T10:11:11Z</time>
      </trkpt>
      <trkpt lat="44.71201" lon="3.32258">
        <ele>1045</ele>
        <time>2009-07-06T10:11:18Z</time>
      </trkpt>
      <trkpt lat="44.71151" lon="3.32282">
        <ele>1042</ele>
        <time>2009-07-06T10:11:25Z</time>
      </trkpt>
      <trkpt lat="44.71129" lon="3.3229">
        <ele>1041</ele>
        <time>2009-07-06T10:11:28Z</time>
      </trkpt>
      <trkpt lat="44.71069" lon="3.32341">
        <ele>1037</ele>
        <time>2009-07-06T10:11:37Z</time>
      </trkpt>
      <trkpt lat="44.71062" lon="3.32349">
        <ele>1037</ele>
        <time>2009-07-06T10:11:38Z</time>
      </trkpt>
      <trkpt lat="44.71024" lon="3.32382">
        <ele>1034</ele>
        <time>2009-07-06T10:11:43Z</time>
      </trkpt>
      <trkpt lat="44.7097" lon="3.32461">
        <ele>1037</ele>
        <time>2009-07-06T10:11:54Z</time>
      </trkpt>
      <trkpt lat="44.70951" lon="3.32486">
        <ele>1039</ele>
        <time>2009-07-06T10:12:00Z</time>
      </trkpt>
      <trkpt lat="44.70931" lon="3.32506">
        <ele>1041</ele>
        <time>2009-07-06T10:12:06Z</time>
      </trkpt>
      <trkpt lat="44.70907" lon="3.32528">
        <ele>1043</ele>
        <time>2009-07-06T10:12:13Z</time>
      </trkpt>
      <trkpt lat="44.70837" lon="3.32542">
        <ele>1043</ele>
        <time>2009-07-06T10:12:29Z</time>
      </trkpt>
      <trkpt lat="44.70791" lon="3.32573">
        <ele>1045</ele>
        <time>2009-07-06T10:12:41Z</time>
      </trkpt>
      <trkpt lat="44.70772" lon="3.32584">
        <ele>1048</ele>
        <time>2009-07-06T10:12:48Z</time>
      </trkpt>
      <trkpt lat="44.70755" lon="3.32594">
        <ele>1051</ele>
        <time>2009-07-06T10:12:56Z</time>
      </trkpt>
      <trkpt lat="44.70739" lon="3.32603">
        <ele>1054</ele>
        <time>2009-07-06T10:13:03Z</time>
      </trkpt>
      <trkpt lat="44.70693" lon="3.32618">
        <ele>1057</ele>
        <time>2009-07-06T10:13:22Z</time>
      </trkpt>
      <trkpt lat="44.70649" lon="3.3265">
        <ele>1058</ele>
        <time>2009-07-06T10:13:38Z</time>
      </trkpt>
      <trkpt lat="44.70587" lon="3.32674">
        <ele>1060</ele>
        <time>2009-07-06T10:13:59Z</time>
      </trkpt>
      <trkpt lat="44.70549" lon="3.32689">
        <ele>1063</ele>
        <time>2009-07-06T10:14:12Z</time>
      </trkpt>
      <trkpt lat="44.70497" lon="3.32717">
        <ele>1065</ele>
        <time>2009-07-06T10:14:31Z</time>
      </trkpt>
      <trkpt lat="44.70462" lon="3.32716">
        <ele>1066</ele>
        <time>2009-07-06T10:14:42Z</time>
      </trkpt>
      <trkpt lat="44.70445" lon="3.32742">
        <ele>1066</ele>
        <time>2009-07-06T10:14:55Z</time>
      </trkpt>
      <trkpt lat="44.7041" lon="3.32793">
        <ele>1065</ele>
        <time>2009-07-06T10:15:09Z</time>
      </trkpt>
      <trkpt lat="44.70371" lon="3.32853">
        <ele>1062</ele>
        <time>2009-07-06T10:15:20Z</time>
      </trkpt>
      <trkpt lat="44.70364" lon="3.32865">
        <ele>1063</ele>
        <time>2009-07-06T10:15:22Z</time>
      </trkpt>
      <trkpt lat="44.70315" lon="3.32931">
        <ele>1063</ele>
        <time>2009-07-06T10:15:38Z</time>
      </trkpt>
      <trkpt lat="44.70264" lon="3.33011">
        <ele>1064</ele>
        <time>2009-07-06T10:15:55Z</time>
      </trkpt>
      <trkpt lat="44.7021" lon="3.33104">
        <ele>1062</ele>
        <time>2009-07-06T10:16:12Z</time>
      </trkpt>
      <trkpt lat="44.70137" lon="3.33207">
        <ele>1062</ele>
        <time>2009-07-06T10:16:33Z</time>
      </trkpt>
      <trkpt lat="44.7007" lon="3.33285">
        <ele>1064</ele>
        <time>2009-07-06T10:16:51Z</time>
      </trkpt>
      <trkpt lat="44.70062" lon="3.3329">
        <ele>1065</ele>
        <time>2009-07-06T10:16:53Z</time>
      </trkpt>
      <trkpt lat="44.70027" lon="3.33328">
        <ele>1067</ele>
        <time>2009-07-06T10:17:06Z</time>
      </trkpt>
      <trkpt lat="44.6998" lon="3.33389">
        <ele>1069</ele>
        <time>2009-07-06T10:17:25Z</time>
      </trkpt>
      <trkpt lat="44.69962" lon="3.33412">
        <ele>1068</ele>
        <time>2009-07-06T10:17:32Z</time>
      </trkpt>
      <trkpt lat="44.69954" lon="3.33432">
        <ele>1066</ele>
        <time>2009-07-06T10:17:36Z</time>
      </trkpt>
      <trkpt lat="44.69917" lon="3.33481">
        <ele>1065</ele>
        <time>2009-07-06T10:17:49Z</time>
      </trkpt>
      <trkpt lat="44.69905" lon="3.33491">
        <ele>1064</ele>
        <time>2009-07-06T10:17:52Z</time>
      </trkpt>
      <trkpt lat="44.6986" lon="3.33536">
        <ele>1060</ele>
        <time>2009-07-06T10:18:03Z</time>
      </trkpt>
      <trkpt lat="44.6984" lon="3.33557">
        <ele>1057</ele>
        <time>2009-07-06T10:18:07Z</time>
      </trkpt>
      <trkpt lat="44.69812" lon="3.3359">
        <ele>1057</ele>
        <time>2009-07-06T10:18:12Z</time>
      </trkpt>
      <trkpt lat="44.6979" lon="3.33617">
        <ele>1055</ele>
        <time>2009-07-06T10:18:16Z</time>
      </trkpt>
      <trkpt lat="44.69758" lon="3.33638">
        <ele>1052</ele>
        <time>2009-07-06T10:18:23Z</time>
      </trkpt>
      <trkpt lat="44.69752" lon="3.3364">
        <ele>1052</ele>
        <time>2009-07-06T10:18:24Z</time>
      </trkpt>
      <trkpt lat="44.69738" lon="3.33643">
        <ele>1050</ele>
        <time>2009-07-06T10:18:26Z</time>
      </trkpt>
      <trkpt lat="44.69707" lon="3.33649">
        <ele>1047</ele>
        <time>2009-07-06T10:18:30Z</time>
      </trkpt>
      <trkpt lat="44.69683" lon="3.33657">
        <ele>1045</ele>
        <time>2009-07-06T10:18:33Z</time>
      </trkpt>
      <trkpt lat="44.69661" lon="3.33665">
        <ele>1045</ele>
        <time>2009-07-06T10:18:36Z</time>
      </trkpt>
      <trkpt lat="44.69636" lon="3.3368">
        <ele>1045</ele>
        <time>2009-07-06T10:18:41Z</time>
      </trkpt>
      <trkpt lat="44.69601" lon="3.33699">
        <ele>1041</ele>
        <time>2009-07-06T10:18:47Z</time>
      </trkpt>
      <trkpt lat="44.69543" lon="3.33738">
        <ele>1038</ele>
        <time>2009-07-06T10:18:55Z</time>
      </trkpt>
      <trkpt lat="44.69535" lon="3.33746">
        <ele>1036</ele>
        <time>2009-07-06T10:18:56Z</time>
      </trkpt>
      <trkpt lat="44.69522" lon="3.33765">
        <ele>1034</ele>
        <time>2009-07-06T10:18:58Z</time>
      </trkpt>
      <trkpt lat="44.69506" lon="3.33799">
        <ele>1031</ele>
        <time>2009-07-06T10:19:01Z</time>
      </trkpt>
      <trkpt lat="44.69492" lon="3.33835">
        <ele>1030</ele>
        <time>2009-07-06T10:19:04Z</time>
      </trkpt>
      <trkpt lat="44.69486" lon="3.33885">
        <ele>1029</ele>
        <time>2009-07-06T10:19:08Z</time>
      </trkpt>
      <trkpt lat="44.69487" lon="3.33919">
        <ele>1030</ele>
        <time>2009-07-06T10:19:15Z</time>
      </trkpt>
      <trkpt lat="44.69488" lon="3.33924">
        <ele>1030</ele>
        <time>2009-07-06T10:19:31Z</time>
      </trkpt>
      <trkpt lat="44.69478" lon="3.33956">
        <ele>1028</ele>
        <time>2009-07-06T10:19:44Z</time>
      </trkpt>
      <trkpt lat="44.69473" lon="3.33967">
        <ele>1027</ele>
        <time>2009-07-06T10:19:46Z</time>
      </trkpt>
      <trkpt lat="44.69462" lon="3.34">
        <ele>1024</ele>
        <time>2009-07-06T10:19:51Z</time>
      </trkpt>
      <trkpt lat="44.69459" lon="3.34006">
        <ele>1024</ele>
        <time>2009-07-06T10:19:52Z</time>
      </trkpt>
      <trkpt lat="44.6945" lon="3.34027">
        <ele>1023</ele>
        <time>2009-07-06T10:19:55Z</time>
      </trkpt>
      <trkpt lat="44.69425" lon="3.34075">
        <ele>1020</ele>
        <time>2009-07-06T10:20:04Z</time>
      </trkpt>
      <trkpt lat="44.69422" lon="3.34078">
        <ele>1020</ele>
        <time>2009-07-06T10:20:06Z</time>
      </trkpt>
      <trkpt lat="44.69419" lon="3.34079">
        <ele>1020</ele>
        <time>2009-07-06T10:20:16Z</time>
      </trkpt>
      <trkpt lat="44.69415" lon="3.34083">
        <ele>1017</ele>
        <time>2009-07-06T10:20:28Z</time>
      </trkpt>
      <trkpt lat="44.69413" lon="3.34085">
        <ele>1015</ele>
        <time>2009-07-06T10:20:39Z</time>
      </trkpt>
      <trkpt lat="44.69412" lon="3.34087">
        <ele>1015</ele>
        <time>2009-07-06T10:20:41Z</time>
      </trkpt>
      <trkpt lat="44.69411" lon="3.34099">
        <ele>1013</ele>
        <time>2009-07-06T10:20:45Z</time>
      </trkpt>
      <trkpt lat="44.69412" lon="3.34107">
        <ele>1012</ele>
        <time>2009-07-06T10:20:47Z</time>
      </trkpt>
      <trkpt lat="44.6941" lon="3.3412">
        <ele>1009</ele>
        <time>2009-07-06T10:20:50Z</time>
      </trkpt>
      <trkpt lat="44.69405" lon="3.34138">
        <ele>1006</ele>
        <time>2009-07-06T10:20:55Z</time>
      </trkpt>
      <trkpt lat="44.69403" lon="3.34144">
        <ele>1005</ele>
        <time>2009-07-06T10:20:57Z</time>
      </trkpt>
      <trkpt lat="44.69401" lon="3.34148">
        <ele>1003</ele>
        <time>2009-07-06T10:21:09Z</time>
      </trkpt>
      <trkpt lat="44.69401" lon="3.3415">
        <ele>1002</ele>
        <time>2009-07-06T10:21:11Z</time>
      </trkpt>
      <trkpt lat="44.69395" lon="3.34169">
        <ele>999</ele>
        <time>2009-07-06T10:21:18Z</time>
      </trkpt>
      <trkpt lat="44.69393" lon="3.34173">
        <ele>999</ele>
        <time>2009-07-06T10:21:28Z</time>
      </trkpt>
      <trkpt lat="44.69393" lon="3.34177">
        <ele>999</ele>
        <time>2009-07-06T10:21:40Z</time>
      </trkpt>
      <trkpt lat="44.69388" lon="3.34188">
        <ele>995</ele>
        <time>2009-07-06T10:21:44Z</time>
      </trkpt>
      <trkpt lat="44.69384" lon="3.34197">
        <ele>994</ele>
        <time>2009-07-06T10:21:51Z</time>
      </trkpt>
      <trkpt lat="44.69379" lon="3.34199">
        <ele>993</ele>
        <time>2009-07-06T10:21:55Z</time>
      </trkpt>
      <trkpt lat="44.69366" lon="3.34196">
        <ele>992</ele>
        <time>2009-07-06T10:22:00Z</time>
      </trkpt>
      <trkpt lat="44.69359" lon="3.34204">
        <ele>991</ele>
        <time>2009-07-06T10:22:02Z</time>
      </trkpt>
      <trkpt lat="44.69356" lon="3.34217">
        <ele>989</ele>
        <time>2009-07-06T10:22:04Z</time>
      </trkpt>
      <trkpt lat="44.69349" lon="3.34251">
        <ele>989</ele>
        <time>2009-07-06T10:22:14Z</time>
      </trkpt>
      <trkpt lat="44.69349" lon="3.34253">
        <ele>989</ele>
        <time>2009-07-06T10:22:15Z</time>
      </trkpt>
      <trkpt lat="44.69358" lon="3.34258">
        <ele>988</ele>
        <time>2009-07-06T10:22:20Z</time>
      </trkpt>
      <trkpt lat="44.69399" lon="3.34279">
        <ele>989</ele>
        <time>2009-07-06T10:22:34Z</time>
      </trkpt>
      <trkpt lat="44.69426" lon="3.34285">
        <ele>990</ele>
        <time>2009-07-06T10:22:49Z</time>
      </trkpt>
      <trkpt lat="44.69419" lon="3.34281">
        <ele>990</ele>
        <time>2009-07-06T10:22:55Z</time>
      </trkpt>
      <trkpt lat="44.69389" lon="3.3428">
        <ele>989</ele>
        <time>2009-07-06T10:23:04Z</time>
      </trkpt>
      <trkpt lat="44.6937" lon="3.34294">
        <ele>987</ele>
        <time>2009-07-06T10:23:10Z</time>
      </trkpt>
      <trkpt lat="44.69357" lon="3.34293">
        <ele>987</ele>
        <time>2009-07-06T10:23:13Z</time>
      </trkpt>
      <trkpt lat="44.69347" lon="3.34314">
        <ele>986</ele>
        <time>2009-07-06T10:23:18Z</time>
      </trkpt>
      <trkpt lat="44.69352" lon="3.3433">
        <ele>986</ele>
        <time>2009-07-06T10:23:21Z</time>
      </trkpt>
      <trkpt lat="44.69351" lon="3.34361">
        <ele>987</ele>
        <time>2009-07-06T10:23:29Z</time>
      </trkpt>
      <trkpt lat="44.69354" lon="3.34374">
        <ele>986</ele>
        <time>2009-07-06T10:23:33Z</time>
      </trkpt>
      <trkpt lat="44.69357" lon="3.34377">
        <ele>985</ele>
        <time>2009-07-06T10:23:34Z</time>
      </trkpt>
      <trkpt lat="44.69376" lon="3.34393">
        <ele>985</ele>
        <time>2009-07-06T10:23:43Z</time>
      </trkpt>
    </trkseg>
  </trk>
  <trk>
    <name><![CDATA[A02]]></name>
    <trkseg>
      <trkpt lat="44.69379" lon="3.34402">
        <ele>986</ele>
        <time>2009-07-06T11:24:34Z</time>
      </trkpt>
      <trkpt lat="44.6938" lon="3.34404">
        <ele>982</ele>
        <time>2009-07-06T11:24:58Z</time>
      </trkpt>
      <trkpt lat="44.69379" lon="3.34404">
        <ele>981</ele>
        <time>2009-07-06T11:25:42Z</time>
      </trkpt>
      <trkpt lat="44.69379" lon="3.34404">
        <ele>980</ele>
        <time>2009-07-06T11:25:49Z</time>
      </trkpt>
      <trkpt lat="44.69379" lon="3.34404">
        <ele>981</ele>
        <time>2009-07-06T11:26:06Z</time>
      </trkpt>
      <trkpt lat="44.69379" lon="3.34404">
        <ele>979</ele>
        <time>2009-07-06T11:26:09Z</time>
      </trkpt>
      <trkpt lat="44.69379" lon="3.34404">
        <ele>981</ele>
        <time>2009-07-06T11:26:11Z</time>
      </trkpt>
      <trkpt lat="44.69379" lon="3.34404">
        <ele>980</ele>
        <time>2009-07-06T11:26:13Z</time>
      </trkpt>
      <trkpt lat="44.69378" lon="3.34407">
        <ele>980</ele>
        <time>2009-07-06T11:27:46Z</time>
      </trkpt>
      <trkpt lat="44.69376" lon="3.34404">
        <ele>978</ele>
        <time>2009-07-06T11:31:54Z</time>
      </trkpt>
      <trkpt lat="44.69374" lon="3.34402">
        <ele>979</ele>
        <time>2009-07-06T11:32:04Z</time>
      </trkpt>
      <trkpt lat="44.69367" lon="3.34392">
        <ele>980</ele>
        <time>2009-07-06T11:32:24Z</time>
      </trkpt>
      <trkpt lat="44.69369" lon="3.3439">
        <ele>981</ele>
        <time>2009-07-06T11:32:45Z</time>
      </trkpt>
      <trkpt lat="44.69362" lon="3.34379">
        <ele>982</ele>
        <time>2009-07-06T11:33:24Z</time>
      </trkpt>
      <trkpt lat="44.69337" lon="3.34375">
        <ele>983</ele>
        <time>2009-07-06T11:33:36Z</time>
      </trkpt>
      <trkpt lat="44.69309" lon="3.34389">
        <ele>981</ele>
        <time>2009-07-06T11:33:50Z</time>
      </trkpt>
      <trkpt lat="44.69291" lon="3.34419">
        <ele>985</ele>
        <time>2009-07-06T11:34:03Z</time>
      </trkpt>
      <trkpt lat="44.69281" lon="3.34464">
        <ele>988</ele>
        <time>2009-07-06T11:34:18Z</time>
      </trkpt>
      <trkpt lat="44.69254" lon="3.34502">
        <ele>989</ele>
        <time>2009-07-06T11:34:34Z</time>
      </trkpt>
      <trkpt lat="44.69252" lon="3.34503">
        <ele>988</ele>
        <time>2009-07-06T11:34:35Z</time>
      </trkpt>
      <trkpt lat="44.69241" lon="3.34496">
        <ele>989</ele>
        <time>2009-07-06T11:34:40Z</time>
      </trkpt>
      <trkpt lat="44.69214" lon="3.34484">
        <ele>990</ele>
        <time>2009-07-06T11:34:53Z</time>
      </trkpt>
      <trkpt lat="44.69178" lon="3.34521">
        <ele>993</ele>
        <time>2009-07-06T11:35:11Z</time>
      </trkpt>
      <trkpt lat="44.69138" lon="3.34582">
        <ele>995</ele>
        <time>2009-07-06T11:35:34Z</time>
      </trkpt>
      <trkpt lat="44.69122" lon="3.3461">
        <ele>998</ele>
        <time>2009-07-06T11:35:44Z</time>
      </trkpt>
      <trkpt lat="44.69095" lon="3.34655">
        <ele>1001</ele>
        <time>2009-07-06T11:36:02Z</time>
      </trkpt>
      <trkpt lat="44.69079" lon="3.34676">
        <ele>1004</ele>
        <time>2009-07-06T11:36:12Z</time>
      </trkpt>
      <trkpt lat="44.69066" lon="3.34708">
        <ele>1008</ele>
        <time>2009-07-06T11:36:26Z</time>
      </trkpt>
      <trkpt lat="44.69039" lon="3.34734">
        <ele>1010</ele>
        <time>2009-07-06T11:36:44Z</time>
      </trkpt>
      <trkpt lat="44.69015" lon="3.34718">
        <ele>1013</ele>
        <time>2009-07-06T11:36:58Z</time>
      </trkpt>
      <trkpt lat="44.68988" lon="3.3472">
        <ele>1016</ele>
        <time>2009-07-06T11:37:13Z</time>
      </trkpt>
      <trkpt lat="44.68973" lon="3.34737">
        <ele>1019</ele>
        <time>2009-07-06T11:37:25Z</time>
      </trkpt>
      <trkpt lat="44.68961" lon="3.34764">
        <ele>1023</ele>
        <time>2009-07-06T11:37:38Z</time>
      </trkpt>
      <trkpt lat="44.68957" lon="3.34771">
        <ele>1024</ele>
        <time>2009-07-06T11:37:42Z</time>
      </trkpt>
      <trkpt lat="44.68948" lon="3.34787">
        <ele>1027</ele>
        <time>2009-07-06T11:37:51Z</time>
      </trkpt>
      <trkpt lat="44.68934" lon="3.34806">
        <ele>1031</ele>
        <time>2009-07-06T11:38:03Z</time>
      </trkpt>
      <trkpt lat="44.68916" lon="3.34844">
        <ele>1033</ele>
        <time>2009-07-06T11:38:22Z</time>
      </trkpt>
      <trkpt lat="44.68904" lon="3.34899">
        <ele>1036</ele>
        <time>2009-07-06T11:38:42Z</time>
      </trkpt>
      <trkpt lat="44.6889" lon="3.3494">
        <ele>1039</ele>
        <time>2009-07-06T11:38:56Z</time>
      </trkpt>
      <trkpt lat="44.6886" lon="3.34979">
        <ele>1040</ele>
        <time>2009-07-06T11:39:13Z</time>
      </trkpt>
      <trkpt lat="44.68824" lon="3.35037">
        <ele>1042</ele>
        <time>2009-07-06T11:39:32Z</time>
      </trkpt>
      <trkpt lat="44.6881" lon="3.35101">
        <ele>1045</ele>
        <time>2009-07-06T11:39:49Z</time>
      </trkpt>
      <trkpt lat="44.68792" lon="3.35179">
        <ele>1047</ele>
        <time>2009-07-06T11:40:08Z</time>
      </trkpt>
      <trkpt lat="44.68776" lon="3.35264">
        <ele>1049</ele>
        <time>2009-07-06T11:40:28Z</time>
      </trkpt>
      <trkpt lat="44.68772" lon="3.35288">
        <ele>1049</ele>
        <time>2009-07-06T11:40:35Z</time>
      </trkpt>
      <trkpt lat="44.68774" lon="3.35294">
        <ele>1051</ele>
        <time>2009-07-06T11:40:51Z</time>
      </trkpt>
      <trkpt lat="44.68774" lon="3.35295">
        <ele>1051</ele>
        <time>2009-07-06T11:41:37Z</time>
      </trkpt>
      <trkpt lat="44.68774" lon="3.35297">
        <ele>1050</ele>
        <time>2009-07-06T11:42:02Z</time>
      </trkpt>
      <trkpt lat="44.68773" lon="3.35298">
        <ele>1050</ele>
        <time>2009-07-06T11:43:19Z</time>
      </trkpt>
      <trkpt lat="44.68773" lon="3.35298">
        <ele>1051</ele>
        <time>2009-07-06T11:43:49Z</time>
      </trkpt>
      <trkpt lat="44.68773" lon="3.353">
        <ele>1052</ele>
        <time>2009-07-06T11:44:14Z</time>
      </trkpt>
      <trkpt lat="44.68762" lon="3.35339">
        <ele>1052</ele>
        <time>2009-07-06T11:44:28Z</time>
      </trkpt>
      <trkpt lat="44.68744" lon="3.35405">
        <ele>1054</ele>
        <time>2009-07-06T11:44:46Z</time>
      </trkpt>
      <trkpt lat="44.68717" lon="3.35466">
        <ele>1057</ele>
        <time>2009-07-06T11:45:04Z</time>
      </trkpt>
      <trkpt lat="44.68691" lon="3.35508">
        <ele>1059</ele>
        <time>2009-07-06T11:45:20Z</time>
      </trkpt>
      <trkpt lat="44.68664" lon="3.35545">
        <ele>1061</ele>
        <time>2009-07-06T11:45:36Z</time>
      </trkpt>
      <trkpt lat="44.68631" lon="3.35586">
        <ele>1065</ele>
        <time>2009-07-06T11:45:53Z</time>
      </trkpt>
      <trkpt lat="44.68599" lon="3.35649">
        <ele>1066</ele>
        <time>2009-07-06T11:46:12Z</time>
      </trkpt>
      <trkpt lat="44.68559" lon="3.35763">
        <ele>1065</ele>
        <time>2009-07-06T11:46:34Z</time>
      </trkpt>
      <trkpt lat="44.68535" lon="3.3586">
        <ele>1063</ele>
        <time>2009-07-06T11:46:53Z</time>
      </trkpt>
      <trkpt lat="44.68505" lon="3.35952">
        <ele>1064</ele>
        <time>2009-07-06T11:47:13Z</time>
      </trkpt>
      <trkpt lat="44.68471" lon="3.36045">
        <ele>1066</ele>
        <time>2009-07-06T11:47:34Z</time>
      </trkpt>
      <trkpt lat="44.68448" lon="3.36093">
        <ele>1069</ele>
        <time>2009-07-06T11:47:47Z</time>
      </trkpt>
      <trkpt lat="44.68421" lon="3.3614">
        <ele>1072</ele>
        <time>2009-07-06T11:48:00Z</time>
      </trkpt>
      <trkpt lat="44.68395" lon="3.36178">
        <ele>1074</ele>
        <time>2009-07-06T11:48:11Z</time>
      </trkpt>
      <trkpt lat="44.68369" lon="3.36221">
        <ele>1075</ele>
        <time>2009-07-06T11:48:23Z</time>
      </trkpt>
      <trkpt lat="44.68352" lon="3.36268">
        <ele>1078</ele>
        <time>2009-07-06T11:48:35Z</time>
      </trkpt>
      <trkpt lat="44.68347" lon="3.36311">
        <ele>1081</ele>
        <time>2009-07-06T11:48:45Z</time>
      </trkpt>
      <trkpt lat="44.68345" lon="3.3634">
        <ele>1080</ele>
        <time>2009-07-06T11:48:51Z</time>
      </trkpt>
      <trkpt lat="44.68337" lon="3.36357">
        <ele>1079</ele>
        <time>2009-07-06T11:48:54Z</time>
      </trkpt>
      <trkpt lat="44.68331" lon="3.36369">
        <ele>1078</ele>
        <time>2009-07-06T11:48:56Z</time>
      </trkpt>
      <trkpt lat="44.68329" lon="3.36377">
        <ele>1078</ele>
        <time>2009-07-06T11:48:57Z</time>
      </trkpt>
      <trkpt lat="44.68327" lon="3.36393">
        <ele>1078</ele>
        <time>2009-07-06T11:48:59Z</time>
      </trkpt>
      <trkpt lat="44.68324" lon="3.36406">
        <ele>1078</ele>
        <time>2009-07-06T11:49:01Z</time>
      </trkpt>
      <trkpt lat="44.68299" lon="3.3646">
        <ele>1079</ele>
        <time>2009-07-06T11:49:11Z</time>
      </trkpt>
      <trkpt lat="44.68229" lon="3.36528">
        <ele>1081</ele>
        <time>2009-07-06T11:49:29Z</time>
      </trkpt>
      <trkpt lat="44.68226" lon="3.36531">
        <ele>1081</ele>
        <time>2009-07-06T11:49:30Z</time>
      </trkpt>
      <trkpt lat="44.68186" lon="3.3657">
        <ele>1082</ele>
        <time>2009-07-06T11:49:41Z</time>
      </trkpt>
      <trkpt lat="44.68169" lon="3.3659">
        <ele>1082</ele>
        <time>2009-07-06T11:49:46Z</time>
      </trkpt>
      <trkpt lat="44.68161" lon="3.36599">
        <ele>1080</ele>
        <time>2009-07-06T11:49:48Z</time>
      </trkpt>
      <trkpt lat="44.68133" lon="3.36628">
        <ele>1079</ele>
        <time>2009-07-06T11:49:54Z</time>
      </trkpt>
      <trkpt lat="44.68055" lon="3.36716">
        <ele>1075</ele>
        <time>2009-07-06T11:50:11Z</time>
      </trkpt>
      <trkpt lat="44.6805" lon="3.36721">
        <ele>1075</ele>
        <time>2009-07-06T11:50:12Z</time>
      </trkpt>
      <trkpt lat="44.68032" lon="3.3673">
        <ele>1074</ele>
        <time>2009-07-06T11:50:15Z</time>
      </trkpt>
      <trkpt lat="44.6802" lon="3.36732">
        <ele>1073</ele>
        <time>2009-07-06T11:50:17Z</time>
      </trkpt>
      <trkpt lat="44.67916" lon="3.36776">
        <ele>1074</ele>
        <time>2009-07-06T11:50:36Z</time>
      </trkpt>
      <trkpt lat="44.67905" lon="3.36782">
        <ele>1072</ele>
        <time>2009-07-06T11:50:38Z</time>
      </trkpt>
      <trkpt lat="44.67787" lon="3.36841">
        <ele>1070</ele>
        <time>2009-07-06T11:51:00Z</time>
      </trkpt>
      <trkpt lat="44.67703" lon="3.36909">
        <ele>1072</ele>
        <time>2009-07-06T11:51:18Z</time>
      </trkpt>
      <trkpt lat="44.67645" lon="3.36972">
        <ele>1072</ele>
        <time>2009-07-06T11:51:31Z</time>
      </trkpt>
      <trkpt lat="44.67625" lon="3.36989">
        <ele>1072</ele>
        <time>2009-07-06T11:51:35Z</time>
      </trkpt>
      <trkpt lat="44.67612" lon="3.37006">
        <ele>1072</ele>
        <time>2009-07-06T11:51:38Z</time>
      </trkpt>
      <trkpt lat="44.67532" lon="3.3711">
        <ele>1073</ele>
        <time>2009-07-06T11:51:57Z</time>
      </trkpt>
      <trkpt lat="44.67475" lon="3.37222">
        <ele>1073</ele>
        <time>2009-07-06T11:52:15Z</time>
      </trkpt>
      <trkpt lat="44.67455" lon="3.37274">
        <ele>1070</ele>
        <time>2009-07-06T11:52:22Z</time>
      </trkpt>
      <trkpt lat="44.67452" lon="3.37281">
        <ele>1070</ele>
        <time>2009-07-06T11:52:23Z</time>
      </trkpt>
      <trkpt lat="44.67435" lon="3.3732">
        <ele>1070</ele>
        <time>2009-07-06T11:52:31Z</time>
      </trkpt>
      <trkpt lat="44.67422" lon="3.37365">
        <ele>1070</ele>
        <time>2009-07-06T11:52:42Z</time>
      </trkpt>
      <trkpt lat="44.67427" lon="3.37437">
        <ele>1073</ele>
        <time>2009-07-06T11:52:56Z</time>
      </trkpt>
      <trkpt lat="44.67425" lon="3.37484">
        <ele>1076</ele>
        <time>2009-07-06T11:53:07Z</time>
      </trkpt>
      <trkpt lat="44.6742" lon="3.37534">
        <ele>1079</ele>
        <time>2009-07-06T11:53:21Z</time>
      </trkpt>
      <trkpt lat="44.67416" lon="3.37563">
        <ele>1082</ele>
        <time>2009-07-06T11:53:30Z</time>
      </trkpt>
      <trkpt lat="44.67416" lon="3.37567">
        <ele>1082</ele>
        <time>2009-07-06T11:53:31Z</time>
      </trkpt>
      <trkpt lat="44.67419" lon="3.37594">
        <ele>1086</ele>
        <time>2009-07-06T11:53:39Z</time>
      </trkpt>
      <trkpt lat="44.67419" lon="3.37597">
        <ele>1086</ele>
        <time>2009-07-06T11:53:40Z</time>
      </trkpt>
      <trkpt lat="44.67417" lon="3.37641">
        <ele>1087</ele>
        <time>2009-07-06T11:53:52Z</time>
      </trkpt>
      <trkpt lat="44.6742" lon="3.3768">
        <ele>1088</ele>
        <time>2009-07-06T11:54:03Z</time>
      </trkpt>
      <trkpt lat="44.67413" lon="3.37724">
        <ele>1090</ele>
        <time>2009-07-06T11:54:15Z</time>
      </trkpt>
      <trkpt lat="44.67393" lon="3.37774">
        <ele>1092</ele>
        <time>2009-07-06T11:54:28Z</time>
      </trkpt>
      <trkpt lat="44.67375" lon="3.37828">
        <ele>1094</ele>
        <time>2009-07-06T11:54:42Z</time>
      </trkpt>
      <trkpt lat="44.67351" lon="3.37882">
        <ele>1096</ele>
        <time>2009-07-06T11:54:56Z</time>
      </trkpt>
      <trkpt lat="44.67307" lon="3.37934">
        <ele>1098</ele>
        <time>2009-07-06T11:55:13Z</time>
      </trkpt>
      <trkpt lat="44.67259" lon="3.37977">
        <ele>1101</ele>
        <time>2009-07-06T11:55:30Z</time>
      </trkpt>
      <trkpt lat="44.67239" lon="3.3801">
        <ele>1104</ele>
        <time>2009-07-06T11:55:40Z</time>
      </trkpt>
      <trkpt lat="44.67203" lon="3.38093">
        <ele>1105</ele>
        <time>2009-07-06T11:56:00Z</time>
      </trkpt>
      <trkpt lat="44.67172" lon="3.38183">
        <ele>1107</ele>
        <time>2009-07-06T11:56:18Z</time>
      </trkpt>
      <trkpt lat="44.67168" lon="3.38193">
        <ele>1108</ele>
        <time>2009-07-06T11:56:20Z</time>
      </trkpt>
      <trkpt lat="44.67121" lon="3.38291">
        <ele>1109</ele>
        <time>2009-07-06T11:56:41Z</time>
      </trkpt>
      <trkpt lat="44.6709" lon="3.3839">
        <ele>1105</ele>
        <time>2009-07-06T11:56:58Z</time>
      </trkpt>
      <trkpt lat="44.67069" lon="3.38457">
        <ele>1102</ele>
        <time>2009-07-06T11:57:07Z</time>
      </trkpt>
      <trkpt lat="44.67027" lon="3.38564">
        <ele>1099</ele>
        <time>2009-07-06T11:57:21Z</time>
      </trkpt>
      <trkpt lat="44.67012" lon="3.38587">
        <ele>1099</ele>
        <time>2009-07-06T11:57:25Z</time>
      </trkpt>
      <trkpt lat="44.6699" lon="3.38607">
        <ele>1100</ele>
        <time>2009-07-06T11:57:34Z</time>
      </trkpt>
      <trkpt lat="44.66993" lon="3.38605">
        <ele>1100</ele>
        <time>2009-07-06T11:58:00Z</time>
      </trkpt>
      <trkpt lat="44.66994" lon="3.38607">
        <ele>1102</ele>
        <time>2009-07-06T11:58:34Z</time>
      </trkpt>
      <trkpt lat="44.66993" lon="3.38607">
        <ele>1101</ele>
        <time>2009-07-06T11:58:57Z</time>
      </trkpt>
      <trkpt lat="44.6699" lon="3.38607">
        <ele>1100</ele>
        <time>2009-07-06T12:01:26Z</time>
      </trkpt>
      <trkpt lat="44.66963" lon="3.38631">
        <ele>1101</ele>
        <time>2009-07-06T12:01:41Z</time>
      </trkpt>
      <trkpt lat="44.6692" lon="3.38655">
        <ele>1102</ele>
        <time>2009-07-06T12:01:57Z</time>
      </trkpt>
      <trkpt lat="44.66861" lon="3.38669">
        <ele>1104</ele>
        <time>2009-07-06T12:02:15Z</time>
      </trkpt>
      <trkpt lat="44.66839" lon="3.38708">
        <ele>1105</ele>
        <time>2009-07-06T12:02:25Z</time>
      </trkpt>
      <trkpt lat="44.66805" lon="3.38752">
        <ele>1107</ele>
        <time>2009-07-06T12:02:38Z</time>
      </trkpt>
      <trkpt lat="44.66759" lon="3.38835">
        <ele>1109</ele>
        <time>2009-07-06T12:02:58Z</time>
      </trkpt>
      <trkpt lat="44.6674" lon="3.38858">
        <ele>1109</ele>
        <time>2009-07-06T12:03:05Z</time>
      </trkpt>
      <trkpt lat="44.66724" lon="3.38866">
        <ele>1109</ele>
        <time>2009-07-06T12:03:09Z</time>
      </trkpt>
      <trkpt lat="44.66667" lon="3.38888">
        <ele>1107</ele>
        <time>2009-07-06T12:03:20Z</time>
      </trkpt>
      <trkpt lat="44.66642" lon="3.38904">
        <ele>1107</ele>
        <time>2009-07-06T12:03:25Z</time>
      </trkpt>
      <trkpt lat="44.66569" lon="3.38947">
        <ele>1107</ele>
        <time>2009-07-06T12:03:40Z</time>
      </trkpt>
      <trkpt lat="44.66559" lon="3.38953">
        <ele>1108</ele>
        <time>2009-07-06T12:03:42Z</time>
      </trkpt>
      <trkpt lat="44.66509" lon="3.38983">
        <ele>1107</ele>
        <time>2009-07-06T12:03:52Z</time>
      </trkpt>
      <trkpt lat="44.66464" lon="3.39026">
        <ele>1107</ele>
        <time>2009-07-06T12:04:02Z</time>
      </trkpt>
      <trkpt lat="44.66418" lon="3.39059">
        <ele>1107</ele>
        <time>2009-07-06T12:04:12Z</time>
      </trkpt>
      <trkpt lat="44.66365" lon="3.3907">
        <ele>1107</ele>
        <time>2009-07-06T12:04:22Z</time>
      </trkpt>
      <trkpt lat="44.66337" lon="3.39071">
        <ele>1108</ele>
        <time>2009-07-06T12:04:27Z</time>
      </trkpt>
      <trkpt lat="44.66239" lon="3.39074">
        <ele>1107</ele>
        <time>2009-07-06T12:04:44Z</time>
      </trkpt>
      <trkpt lat="44.66201" lon="3.3908">
        <ele>1108</ele>
        <time>2009-07-06T12:04:51Z</time>
      </trkpt>
      <trkpt lat="44.66174" lon="3.39096">
        <ele>1109</ele>
        <time>2009-07-06T12:04:57Z</time>
      </trkpt>
      <trkpt lat="44.66166" lon="3.39103">
        <ele>1109</ele>
        <time>2009-07-06T12:04:59Z</time>
      </trkpt>
      <trkpt lat="44.66159" lon="3.39111">
        <ele>1110</ele>
        <time>2009-07-06T12:05:01Z</time>
      </trkpt>
      <trkpt lat="44.6615" lon="3.39125">
        <ele>1112</ele>
        <time>2009-07-06T12:05:04Z</time>
      </trkpt>
      <trkpt lat="44.66143" lon="3.39134">
        <ele>1113</ele>
        <time>2009-07-06T12:05:06Z</time>
      </trkpt>
      <trkpt lat="44.66136" lon="3.39142">
        <ele>1114</ele>
        <time>2009-07-06T12:05:08Z</time>
      </trkpt>
      <trkpt lat="44.6612" lon="3.39155">
        <ele>1114</ele>
        <time>2009-07-06T12:05:12Z</time>
      </trkpt>
      <trkpt lat="44.66099" lon="3.39175">
        <ele>1113</ele>
        <time>2009-07-06T12:05:17Z</time>
      </trkpt>
      <trkpt lat="44.66088" lon="3.39181">
        <ele>1112</ele>
        <time>2009-07-06T12:05:19Z</time>
      </trkpt>
      <trkpt lat="44.66077" lon="3.39185">
        <ele>1112</ele>
        <time>2009-07-06T12:05:21Z</time>
      </trkpt>
      <trkpt lat="44.66049" lon="3.3921">
        <ele>1112</ele>
        <time>2009-07-06T12:05:27Z</time>
      </trkpt>
      <trkpt lat="44.66024" lon="3.39253">
        <ele>1111</ele>
        <time>2009-07-06T12:05:38Z</time>
      </trkpt>
      <trkpt lat="44.66014" lon="3.39288">
        <ele>1111</ele>
        <time>2009-07-06T12:05:52Z</time>
      </trkpt>
      <trkpt lat="44.66002" lon="3.39328">
        <ele>1110</ele>
        <time>2009-07-06T12:06:05Z</time>
      </trkpt>
      <trkpt lat="44.65985" lon="3.39389">
        <ele>1109</ele>
        <time>2009-07-06T12:06:18Z</time>
      </trkpt>
      <trkpt lat="44.65966" lon="3.39451">
        <ele>1108</ele>
        <time>2009-07-06T12:06:31Z</time>
      </trkpt>
      <trkpt lat="44.65946" lon="3.39495">
        <ele>1107</ele>
        <time>2009-07-06T12:06:40Z</time>
      </trkpt>
      <trkpt lat="44.65907" lon="3.39586">
        <ele>1106</ele>
        <time>2009-07-06T12:06:55Z</time>
      </trkpt>
      <trkpt lat="44.65856" lon="3.39651">
        <ele>1107</ele>
        <time>2009-07-06T12:07:09Z</time>
      </trkpt>
      <trkpt lat="44.65817" lon="3.39683">
        <ele>1108</ele>
        <time>2009-07-06T12:07:19Z</time>
      </trkpt>
      <trkpt lat="44.65788" lon="3.39697">
        <ele>1109</ele>
        <time>2009-07-06T12:07:26Z</time>
      </trkpt>
      <trkpt lat="44.65776" lon="3.39706">
        <ele>1110</ele>
        <time>2009-07-06T12:07:29Z</time>
      </trkpt>
      <trkpt lat="44.65765" lon="3.3972">
        <ele>1108</ele>
        <time>2009-07-06T12:07:32Z</time>
      </trkpt>
      <trkpt lat="44.65703" lon="3.39761">
        <ele>1105</ele>
        <time>2009-07-06T12:07:43Z</time>
      </trkpt>
      <trkpt lat="44.65618" lon="3.39847">
        <ele>1103</ele>
        <time>2009-07-06T12:07:59Z</time>
      </trkpt>
      <trkpt lat="44.65549" lon="3.39906">
        <ele>1102</ele>
        <time>2009-07-06T12:08:12Z</time>
      </trkpt>
      <trkpt lat="44.6549" lon="3.39943">
        <ele>1104</ele>
        <time>2009-07-06T12:08:24Z</time>
      </trkpt>
      <trkpt lat="44.65473" lon="3.39956">
        <ele>1104</ele>
        <time>2009-07-06T12:08:33Z</time>
      </trkpt>
      <trkpt lat="44.65473" lon="3.39956">
        <ele>1103</ele>
        <time>2009-07-06T12:09:08Z</time>
      </trkpt>
      <trkpt lat="44.65454" lon="3.39969">
        <ele>1102</ele>
        <time>2009-07-06T12:09:29Z</time>
      </trkpt>
      <trkpt lat="44.6545" lon="3.39971">
        <ele>1102</ele>
        <time>2009-07-06T12:09:30Z</time>
      </trkpt>
      <trkpt lat="44.65443" lon="3.39977">
        <ele>1101</ele>
        <time>2009-07-06T12:09:32Z</time>
      </trkpt>
      <trkpt lat="44.65423" lon="3.39997">
        <ele>1101</ele>
        <time>2009-07-06T12:09:37Z</time>
      </trkpt>
      <trkpt lat="44.65413" lon="3.40013">
        <ele>1101</ele>
        <time>2009-07-06T12:09:40Z</time>
      </trkpt>
      <trkpt lat="44.65407" lon="3.40023">
        <ele>1101</ele>
        <time>2009-07-06T12:09:42Z</time>
      </trkpt>
      <trkpt lat="44.65395" lon="3.40047">
        <ele>1100</ele>
        <time>2009-07-06T12:09:46Z</time>
      </trkpt>
      <trkpt lat="44.65348" lon="3.4011">
        <ele>1097</ele>
        <time>2009-07-06T12:09:57Z</time>
      </trkpt>
      <trkpt lat="44.65329" lon="3.40137">
        <ele>1097</ele>
        <time>2009-07-06T12:10:02Z</time>
      </trkpt>
      <trkpt lat="44.65315" lon="3.40158">
        <ele>1096</ele>
        <time>2009-07-06T12:10:06Z</time>
      </trkpt>
      <trkpt lat="44.65263" lon="3.40237">
        <ele>1096</ele>
        <time>2009-07-06T12:10:21Z</time>
      </trkpt>
      <trkpt lat="44.65252" lon="3.4026">
        <ele>1095</ele>
        <time>2009-07-06T12:10:25Z</time>
      </trkpt>
      <trkpt lat="44.65244" lon="3.40288">
        <ele>1095</ele>
        <time>2009-07-06T12:10:29Z</time>
      </trkpt>
      <trkpt lat="44.65244" lon="3.40316">
        <ele>1095</ele>
        <time>2009-07-06T12:10:33Z</time>
      </trkpt>
      <trkpt lat="44.65243" lon="3.40347">
        <ele>1093</ele>
        <time>2009-07-06T12:10:37Z</time>
      </trkpt>
      <trkpt lat="44.65247" lon="3.40407">
        <ele>1091</ele>
        <time>2009-07-06T12:10:44Z</time>
      </trkpt>
      <trkpt lat="44.65241" lon="3.4046">
        <ele>1091</ele>
        <time>2009-07-06T12:10:50Z</time>
      </trkpt>
      <trkpt lat="44.65233" lon="3.40547">
        <ele>1090</ele>
        <time>2009-07-06T12:11:01Z</time>
      </trkpt>
      <trkpt lat="44.65228" lon="3.40588">
        <ele>1091</ele>
        <time>2009-07-06T12:11:07Z</time>
      </trkpt>
      <trkpt lat="44.65223" lon="3.40607">
        <ele>1092</ele>
        <time>2009-07-06T12:11:10Z</time>
      </trkpt>
      <trkpt lat="44.65219" lon="3.40618">
        <ele>1093</ele>
        <time>2009-07-06T12:11:12Z</time>
      </trkpt>
      <trkpt lat="44.65216" lon="3.40636">
        <ele>1092</ele>
        <time>2009-07-06T12:11:15Z</time>
      </trkpt>
      <trkpt lat="44.65209" lon="3.40657">
        <ele>1090</ele>
        <time>2009-07-06T12:11:18Z</time>
      </trkpt>
      <trkpt lat="44.65206" lon="3.40664">
        <ele>1089</ele>
        <time>2009-07-06T12:11:19Z</time>
      </trkpt>
      <trkpt lat="44.65188" lon="3.40691">
        <ele>1086</ele>
        <time>2009-07-06T12:11:23Z</time>
      </trkpt>
      <trkpt lat="44.65179" lon="3.40709">
        <ele>1085</ele>
        <time>2009-07-06T12:11:25Z</time>
      </trkpt>
      <trkpt lat="44.65157" lon="3.40741">
        <ele>1085</ele>
        <time>2009-07-06T12:11:29Z</time>
      </trkpt>
      <trkpt lat="44.65104" lon="3.40796">
        <ele>1086</ele>
        <time>2009-07-06T12:11:39Z</time>
      </trkpt>
      <trkpt lat="44.65082" lon="3.40829">
        <ele>1086</ele>
        <time>2009-07-06T12:11:45Z</time>
      </trkpt>
      <trkpt lat="44.65068" lon="3.40843">
        <ele>1086</ele>
        <time>2009-07-06T12:11:49Z</time>
      </trkpt>
      <trkpt lat="44.65047" lon="3.40872">
        <ele>1085</ele>
        <time>2009-07-06T12:11:55Z</time>
      </trkpt>
      <trkpt lat="44.65014" lon="3.40928">
        <ele>1081</ele>
        <time>2009-07-06T12:12:04Z</time>
      </trkpt>
      <trkpt lat="44.64986" lon="3.40975">
        <ele>1078</ele>
        <time>2009-07-06T12:12:10Z</time>
      </trkpt>
      <trkpt lat="44.64968" lon="3.41007">
        <ele>1076</ele>
        <time>2009-07-06T12:12:14Z</time>
      </trkpt>
      <trkpt lat="44.64948" lon="3.41038">
        <ele>1074</ele>
        <time>2009-07-06T12:12:18Z</time>
      </trkpt>
      <trkpt lat="44.64942" lon="3.41065">
        <ele>1072</ele>
        <time>2009-07-06T12:12:21Z</time>
      </trkpt>
      <trkpt lat="44.64941" lon="3.41087">
        <ele>1070</ele>
        <time>2009-07-06T12:12:23Z</time>
      </trkpt>
      <trkpt lat="44.64929" lon="3.41154">
        <ele>1065</ele>
        <time>2009-07-06T12:12:29Z</time>
      </trkpt>
      <trkpt lat="44.64919" lon="3.4119">
        <ele>1063</ele>
        <time>2009-07-06T12:12:32Z</time>
      </trkpt>
      <trkpt lat="44.64916" lon="3.412">
        <ele>1063</ele>
        <time>2009-07-06T12:12:33Z</time>
      </trkpt>
      <trkpt lat="44.64915" lon="3.41235">
        <ele>1062</ele>
        <time>2009-07-06T12:12:37Z</time>
      </trkpt>
      <trkpt lat="44.64916" lon="3.41262">
        <ele>1058</ele>
        <time>2009-07-06T12:12:41Z</time>
      </trkpt>
      <trkpt lat="44.64915" lon="3.41266">
        <ele>1058</ele>
        <time>2009-07-06T12:12:42Z</time>
      </trkpt>
      <trkpt lat="44.64909" lon="3.4127">
        <ele>1058</ele>
        <time>2009-07-06T12:12:45Z</time>
      </trkpt>
      <trkpt lat="44.64883" lon="3.41281">
        <ele>1057</ele>
        <time>2009-07-06T12:12:59Z</time>
      </trkpt>
      <trkpt lat="44.6487" lon="3.41289">
        <ele>1054</ele>
        <time>2009-07-06T12:13:05Z</time>
      </trkpt>
      <trkpt lat="44.64867" lon="3.4129">
        <ele>1054</ele>
        <time>2009-07-06T12:13:06Z</time>
      </trkpt>
      <trkpt lat="44.6486" lon="3.41295">
        <ele>1054</ele>
        <time>2009-07-06T12:13:09Z</time>
      </trkpt>
      <trkpt lat="44.64859" lon="3.41324">
        <ele>1053</ele>
        <time>2009-07-06T12:13:21Z</time>
      </trkpt>
      <trkpt lat="44.64859" lon="3.41325">
        <ele>1054</ele>
        <time>2009-07-06T12:13:48Z</time>
      </trkpt>
      <trkpt lat="44.64859" lon="3.41327">
        <ele>1053</ele>
        <time>2009-07-06T12:14:27Z</time>
      </trkpt>
      <trkpt lat="44.64861" lon="3.4134">
        <ele>1052</ele>
        <time>2009-07-06T12:14:55Z</time>
      </trkpt>
      <trkpt lat="44.64864" lon="3.41391">
        <ele>1052</ele>
        <time>2009-07-06T12:15:09Z</time>
      </trkpt>
      <trkpt lat="44.64873" lon="3.41449">
        <ele>1054</ele>
        <time>2009-07-06T12:15:22Z</time>
      </trkpt>
      <trkpt lat="44.6488" lon="3.41465">
        <ele>1058</ele>
        <time>2009-07-06T12:15:26Z</time>
      </trkpt>
      <trkpt lat="44.64899" lon="3.41515">
        <ele>1061</ele>
        <time>2009-07-06T12:15:39Z</time>
      </trkpt>
      <trkpt lat="44.64894" lon="3.41568">
        <ele>1061</ele>
        <time>2009-07-06T12:15:50Z</time>
      </trkpt>
      <trkpt lat="44.64892" lon="3.41581">
        <ele>1060</ele>
        <time>2009-07-06T12:15:52Z</time>
      </trkpt>
      <trkpt lat="44.64878" lon="3.41641">
        <ele>1053</ele>
        <time>2009-07-06T12:15:59Z</time>
      </trkpt>
      <trkpt lat="44.64875" lon="3.41652">
        <ele>1053</ele>
        <time>2009-07-06T12:16:00Z</time>
      </trkpt>
      <trkpt lat="44.64843" lon="3.41757">
        <ele>1052</ele>
        <time>2009-07-06T12:16:10Z</time>
      </trkpt>
      <trkpt lat="44.64833" lon="3.41773">
        <ele>1053</ele>
        <time>2009-07-06T12:16:12Z</time>
      </trkpt>
      <trkpt lat="44.64793" lon="3.41847">
        <ele>1053</ele>
        <time>2009-07-06T12:16:23Z</time>
      </trkpt>
      <trkpt lat="44.64764" lon="3.41917">
        <ele>1053</ele>
        <time>2009-07-06T12:16:38Z</time>
      </trkpt>
      <trkpt lat="44.64769" lon="3.41968">
        <ele>1053</ele>
        <time>2009-07-06T12:16:48Z</time>
      </trkpt>
      <trkpt lat="44.6477" lon="3.42026">
        <ele>1055</ele>
        <time>2009-07-06T12:17:00Z</time>
      </trkpt>
      <trkpt lat="44.64764" lon="3.4208">
        <ele>1056</ele>
        <time>2009-07-06T12:17:12Z</time>
      </trkpt>
      <trkpt lat="44.64784" lon="3.42127">
        <ele>1057</ele>
        <time>2009-07-06T12:17:24Z</time>
      </trkpt>
      <trkpt lat="44.64785" lon="3.42128">
        <ele>1057</ele>
        <time>2009-07-06T12:17:31Z</time>
      </trkpt>
      <trkpt lat="44.64786" lon="3.42135">
        <ele>1056</ele>
        <time>2009-07-06T12:17:34Z</time>
      </trkpt>
      <trkpt lat="44.64789" lon="3.42142">
        <ele>1055</ele>
        <time>2009-07-06T12:17:36Z</time>
      </trkpt>
      <trkpt lat="44.64808" lon="3.42216">
        <ele>1056</ele>
        <time>2009-07-06T12:17:52Z</time>
      </trkpt>
      <trkpt lat="44.64829" lon="3.42292">
        <ele>1057</ele>
        <time>2009-07-06T12:18:08Z</time>
      </trkpt>
      <trkpt lat="44.64835" lon="3.42301">
        <ele>1058</ele>
        <time>2009-07-06T12:18:11Z</time>
      </trkpt>
      <trkpt lat="44.64849" lon="3.4235">
        <ele>1058</ele>
        <time>2009-07-06T12:18:22Z</time>
      </trkpt>
      <trkpt lat="44.64842" lon="3.42388">
        <ele>1058</ele>
        <time>2009-07-06T12:18:29Z</time>
      </trkpt>
      <trkpt lat="44.6484" lon="3.42388">
        <ele>1058</ele>
        <time>2009-07-06T12:18:39Z</time>
      </trkpt>
      <trkpt lat="44.64835" lon="3.42395">
        <ele>1059</ele>
        <time>2009-07-06T12:18:52Z</time>
      </trkpt>
      <trkpt lat="44.64826" lon="3.42408">
        <ele>1059</ele>
        <time>2009-07-06T12:19:09Z</time>
      </trkpt>
      <trkpt lat="44.64818" lon="3.42439">
        <ele>1058</ele>
        <time>2009-07-06T12:19:19Z</time>
      </trkpt>
      <trkpt lat="44.64817" lon="3.42443">
        <ele>1058</ele>
        <time>2009-07-06T12:19:20Z</time>
      </trkpt>
      <trkpt lat="44.6481" lon="3.42518">
        <ele>1058</ele>
        <time>2009-07-06T12:19:36Z</time>
      </trkpt>
      <trkpt lat="44.64791" lon="3.42579">
        <ele>1058</ele>
        <time>2009-07-06T12:19:49Z</time>
      </trkpt>
      <trkpt lat="44.64778" lon="3.42636">
        <ele>1059</ele>
        <time>2009-07-06T12:20:02Z</time>
      </trkpt>
      <trkpt lat="44.64757" lon="3.42654">
        <ele>1062</ele>
        <time>2009-07-06T12:20:12Z</time>
      </trkpt>
      <trkpt lat="44.64753" lon="3.42657">
        <ele>1062</ele>
        <time>2009-07-06T12:20:15Z</time>
      </trkpt>
      <trkpt lat="44.64742" lon="3.42658">
        <ele>1061</ele>
        <time>2009-07-06T12:20:25Z</time>
      </trkpt>
      <trkpt lat="44.64738" lon="3.42661">
        <ele>1061</ele>
        <time>2009-07-06T12:21:34Z</time>
      </trkpt>
      <trkpt lat="44.64704" lon="3.42659">
        <ele>1059</ele>
        <time>2009-07-06T12:21:45Z</time>
      </trkpt>
      <trkpt lat="44.64664" lon="3.42674">
        <ele>1060</ele>
        <time>2009-07-06T12:21:57Z</time>
      </trkpt>
      <trkpt lat="44.64636" lon="3.42726">
        <ele>1060</ele>
        <time>2009-07-06T12:22:10Z</time>
      </trkpt>
      <trkpt lat="44.64628" lon="3.42763">
        <ele>1062</ele>
        <time>2009-07-06T12:22:17Z</time>
      </trkpt>
      <trkpt lat="44.64614" lon="3.42837">
        <ele>1065</ele>
        <time>2009-07-06T12:22:32Z</time>
      </trkpt>
      <trkpt lat="44.64605" lon="3.42891">
        <ele>1068</ele>
        <time>2009-07-06T12:22:43Z</time>
      </trkpt>
      <trkpt lat="44.64594" lon="3.42958">
        <ele>1071</ele>
        <time>2009-07-06T12:22:57Z</time>
      </trkpt>
      <trkpt lat="44.64587" lon="3.43001">
        <ele>1073</ele>
        <time>2009-07-06T12:23:06Z</time>
      </trkpt>
      <trkpt lat="44.64571" lon="3.43077">
        <ele>1076</ele>
        <time>2009-07-06T12:23:22Z</time>
      </trkpt>
      <trkpt lat="44.64537" lon="3.4316">
        <ele>1076</ele>
        <time>2009-07-06T12:23:41Z</time>
      </trkpt>
      <trkpt lat="44.64525" lon="3.43237">
        <ele>1079</ele>
        <time>2009-07-06T12:23:56Z</time>
      </trkpt>
      <trkpt lat="44.64523" lon="3.43241">
        <ele>1079</ele>
        <time>2009-07-06T12:23:57Z</time>
      </trkpt>
      <trkpt lat="44.64506" lon="3.43271">
        <ele>1082</ele>
        <time>2009-07-06T12:24:04Z</time>
      </trkpt>
      <trkpt lat="44.64503" lon="3.43331">
        <ele>1084</ele>
        <time>2009-07-06T12:24:16Z</time>
      </trkpt>
      <trkpt lat="44.64517" lon="3.43357">
        <ele>1085</ele>
        <time>2009-07-06T12:24:22Z</time>
      </trkpt>
      <trkpt lat="44.6455" lon="3.43413">
        <ele>1088</ele>
        <time>2009-07-06T12:24:35Z</time>
      </trkpt>
      <trkpt lat="44.64564" lon="3.4344">
        <ele>1089</ele>
        <time>2009-07-06T12:24:41Z</time>
      </trkpt>
      <trkpt lat="44.64579" lon="3.43459">
        <ele>1087</ele>
        <time>2009-07-06T12:24:45Z</time>
      </trkpt>
      <trkpt lat="44.64612" lon="3.435">
        <ele>1084</ele>
        <time>2009-07-06T12:24:52Z</time>
      </trkpt>
      <trkpt lat="44.64653" lon="3.43547">
        <ele>1080</ele>
        <time>2009-07-06T12:24:59Z</time>
      </trkpt>
      <trkpt lat="44.64659" lon="3.43554">
        <ele>1080</ele>
        <time>2009-07-06T12:25:00Z</time>
      </trkpt>
      <trkpt lat="44.64709" lon="3.43611">
        <ele>1078</ele>
        <time>2009-07-06T12:25:08Z</time>
      </trkpt>
      <trkpt lat="44.64721" lon="3.43639">
        <ele>1076</ele>
        <time>2009-07-06T12:25:12Z</time>
      </trkpt>
      <trkpt lat="44.64728" lon="3.43667">
        <ele>1076</ele>
        <time>2009-07-06T12:25:16Z</time>
      </trkpt>
      <trkpt lat="44.64731" lon="3.437">
        <ele>1075</ele>
        <time>2009-07-06T12:25:21Z</time>
      </trkpt>
      <trkpt lat="44.64733" lon="3.43727">
        <ele>1076</ele>
        <time>2009-07-06T12:25:26Z</time>
      </trkpt>
      <trkpt lat="44.64722" lon="3.4376">
        <ele>1075</ele>
        <time>2009-07-06T12:25:32Z</time>
      </trkpt>
      <trkpt lat="44.64721" lon="3.43772">
        <ele>1076</ele>
        <time>2009-07-06T12:25:34Z</time>
      </trkpt>
      <trkpt lat="44.64701" lon="3.43807">
        <ele>1076</ele>
        <time>2009-07-06T12:25:41Z</time>
      </trkpt>
      <trkpt lat="44.64682" lon="3.43815">
        <ele>1077</ele>
        <time>2009-07-06T12:25:54Z</time>
      </trkpt>
      <trkpt lat="44.6468" lon="3.43814">
        <ele>1078</ele>
        <time>2009-07-06T12:26:19Z</time>
      </trkpt>
      <trkpt lat="44.6468" lon="3.43813">
        <ele>1078</ele>
        <time>2009-07-06T12:26:36Z</time>
      </trkpt>
      <trkpt lat="44.64652" lon="3.43809">
        <ele>1078</ele>
        <time>2009-07-06T12:26:47Z</time>
      </trkpt>
      <trkpt lat="44.64646" lon="3.4377">
        <ele>1078</ele>
        <time>2009-07-06T12:26:57Z</time>
      </trkpt>
      <trkpt lat="44.64635" lon="3.43734">
        <ele>1080</ele>
        <time>2009-07-06T12:27:08Z</time>
      </trkpt>
      <trkpt lat="44.64621" lon="3.43728">
        <ele>1082</ele>
        <time>2009-07-06T12:27:14Z</time>
      </trkpt>
      <trkpt lat="44.6459" lon="3.43733">
        <ele>1085</ele>
        <time>2009-07-06T12:27:28Z</time>
      </trkpt>
      <trkpt lat="44.64584" lon="3.43732">
        <ele>1086</ele>
        <time>2009-07-06T12:27:31Z</time>
      </trkpt>
      <trkpt lat="44.64576" lon="3.4373">
        <ele>1088</ele>
        <time>2009-07-06T12:27:35Z</time>
      </trkpt>
      <trkpt lat="44.64553" lon="3.43716">
        <ele>1091</ele>
        <time>2009-07-06T12:27:47Z</time>
      </trkpt>
      <trkpt lat="44.64527" lon="3.43711">
        <ele>1094</ele>
        <time>2009-07-06T12:27:59Z</time>
      </trkpt>
      <trkpt lat="44.64492" lon="3.43708">
        <ele>1098</ele>
        <time>2009-07-06T12:28:14Z</time>
      </trkpt>
      <trkpt lat="44.64489" lon="3.43708">
        <ele>1098</ele>
        <time>2009-07-06T12:28:15Z</time>
      </trkpt>
      <trkpt lat="44.64453" lon="3.43693">
        <ele>1101</ele>
        <time>2009-07-06T12:28:32Z</time>
      </trkpt>
      <trkpt lat="44.64433" lon="3.43686">
        <ele>1104</ele>
        <time>2009-07-06T12:28:42Z</time>
      </trkpt>
      <trkpt lat="44.64412" lon="3.4369">
        <ele>1107</ele>
        <time>2009-07-06T12:28:52Z</time>
      </trkpt>
      <trkpt lat="44.64408" lon="3.43691">
        <ele>1109</ele>
        <time>2009-07-06T12:28:54Z</time>
      </trkpt>
      <trkpt lat="44.64382" lon="3.43707">
        <ele>1111</ele>
        <time>2009-07-06T12:29:07Z</time>
      </trkpt>
      <trkpt lat="44.64354" lon="3.4374">
        <ele>1115</ele>
        <time>2009-07-06T12:29:25Z</time>
      </trkpt>
      <trkpt lat="44.64351" lon="3.43744">
        <ele>1116</ele>
        <time>2009-07-06T12:29:27Z</time>
      </trkpt>
      <trkpt lat="44.64303" lon="3.43769">
        <ele>1118</ele>
        <time>2009-07-06T12:29:44Z</time>
      </trkpt>
      <trkpt lat="44.64246" lon="3.43776">
        <ele>1119</ele>
        <time>2009-07-06T12:30:02Z</time>
      </trkpt>
      <trkpt lat="44.64203" lon="3.43765">
        <ele>1121</ele>
        <time>2009-07-06T12:30:16Z</time>
      </trkpt>
      <trkpt lat="44.64181" lon="3.43759">
        <ele>1123</ele>
        <time>2009-07-06T12:30:23Z</time>
      </trkpt>
      <trkpt lat="44.64143" lon="3.43736">
        <ele>1125</ele>
        <time>2009-07-06T12:30:36Z</time>
      </trkpt>
      <trkpt lat="44.64124" lon="3.43709">
        <ele>1129</ele>
        <time>2009-07-06T12:30:45Z</time>
      </trkpt>
      <trkpt lat="44.64117" lon="3.43701">
        <ele>1130</ele>
        <time>2009-07-06T12:30:48Z</time>
      </trkpt>
      <trkpt lat="44.64074" lon="3.43688">
        <ele>1132</ele>
        <time>2009-07-06T12:31:01Z</time>
      </trkpt>
      <trkpt lat="44.64046" lon="3.43696">
        <ele>1135</ele>
        <time>2009-07-06T12:31:10Z</time>
      </trkpt>
      <trkpt lat="44.64043" lon="3.43696">
        <ele>1135</ele>
        <time>2009-07-06T12:31:11Z</time>
      </trkpt>
      <trkpt lat="44.63997" lon="3.43696">
        <ele>1138</ele>
        <time>2009-07-06T12:31:28Z</time>
      </trkpt>
      <trkpt lat="44.63961" lon="3.43695">
        <ele>1142</ele>
        <time>2009-07-06T12:31:41Z</time>
      </trkpt>
      <trkpt lat="44.63958" lon="3.43696">
        <ele>1142</ele>
        <time>2009-07-06T12:31:42Z</time>
      </trkpt>
      <trkpt lat="44.63906" lon="3.43707">
        <ele>1144</ele>
        <time>2009-07-06T12:32:00Z</time>
      </trkpt>
      <trkpt lat="44.63864" lon="3.43709">
        <ele>1145</ele>
        <time>2009-07-06T12:32:14Z</time>
      </trkpt>
      <trkpt lat="44.63837" lon="3.43707">
        <ele>1148</ele>
        <time>2009-07-06T12:32:24Z</time>
      </trkpt>
      <trkpt lat="44.63792" lon="3.43712">
        <ele>1151</ele>
        <time>2009-07-06T12:32:42Z</time>
      </trkpt>
      <trkpt lat="44.63765" lon="3.43714">
        <ele>1153</ele>
        <time>2009-07-06T12:32:55Z</time>
      </trkpt>
      <trkpt lat="44.63726" lon="3.43712">
        <ele>1156</ele>
        <time>2009-07-06T12:33:10Z</time>
      </trkpt>
      <trkpt lat="44.63703" lon="3.43709">
        <ele>1160</ele>
        <time>2009-07-06T12:33:19Z</time>
      </trkpt>
      <trkpt lat="44.6367" lon="3.43718">
        <ele>1164</ele>
        <time>2009-07-06T12:33:34Z</time>
      </trkpt>
      <trkpt lat="44.63664" lon="3.43727">
        <ele>1164</ele>
        <time>2009-07-06T12:33:38Z</time>
      </trkpt>
      <trkpt lat="44.63655" lon="3.4374">
        <ele>1166</ele>
        <time>2009-07-06T12:33:44Z</time>
      </trkpt>
      <trkpt lat="44.63625" lon="3.43764">
        <ele>1169</ele>
        <time>2009-07-06T12:34:00Z</time>
      </trkpt>
      <trkpt lat="44.63599" lon="3.43776">
        <ele>1173</ele>
        <time>2009-07-06T12:34:11Z</time>
      </trkpt>
      <trkpt lat="44.63595" lon="3.43779">
        <ele>1174</ele>
        <time>2009-07-06T12:34:13Z</time>
      </trkpt>
      <trkpt lat="44.63549" lon="3.43805">
        <ele>1175</ele>
        <time>2009-07-06T12:34:30Z</time>
      </trkpt>
      <trkpt lat="44.63485" lon="3.43856">
        <ele>1174</ele>
        <time>2009-07-06T12:34:49Z</time>
      </trkpt>
      <trkpt lat="44.63436" lon="3.43872">
        <ele>1175</ele>
        <time>2009-07-06T12:35:01Z</time>
      </trkpt>
      <trkpt lat="44.63377" lon="3.43878">
        <ele>1179</ele>
        <time>2009-07-06T12:35:16Z</time>
      </trkpt>
      <trkpt lat="44.63345" lon="3.43912">
        <ele>1181</ele>
        <time>2009-07-06T12:35:29Z</time>
      </trkpt>
      <trkpt lat="44.6335" lon="3.43942">
        <ele>1181</ele>
        <time>2009-07-06T12:35:40Z</time>
      </trkpt>
      <trkpt lat="44.63352" lon="3.43941">
        <ele>1182</ele>
        <time>2009-07-06T12:36:31Z</time>
      </trkpt>
      <trkpt lat="44.63363" lon="3.43955">
        <ele>1182</ele>
        <time>2009-07-06T12:36:50Z</time>
      </trkpt>
      <trkpt lat="44.6337" lon="3.43964">
        <ele>1184</ele>
        <time>2009-07-06T12:37:02Z</time>
      </trkpt>
      <trkpt lat="44.63372" lon="3.43963">
        <ele>1182</ele>
        <time>2009-07-06T12:39:07Z</time>
      </trkpt>
      <trkpt lat="44.63372" lon="3.4396">
        <ele>1183</ele>
        <time>2009-07-06T12:39:55Z</time>
      </trkpt>
      <trkpt lat="44.63373" lon="3.43963">
        <ele>1183</ele>
        <time>2009-07-06T12:40:34Z</time>
      </trkpt>
      <trkpt lat="44.63382" lon="3.43974">
        <ele>1183</ele>
        <time>2009-07-06T12:40:46Z</time>
      </trkpt>
      <trkpt lat="44.63386" lon="3.43983">
        <ele>1184</ele>
        <time>2009-07-06T12:41:01Z</time>
      </trkpt>
      <trkpt lat="44.6339" lon="3.43983">
        <ele>1184</ele>
        <time>2009-07-06T12:41:23Z</time>
      </trkpt>
      <trkpt lat="44.63398" lon="3.43998">
        <ele>1184</ele>
        <time>2009-07-06T12:41:37Z</time>
      </trkpt>
      <trkpt lat="44.63404" lon="3.44007">
        <ele>1184</ele>
        <time>2009-07-06T12:41:49Z</time>
      </trkpt>
      <trkpt lat="44.63412" lon="3.44019">
        <ele>1182</ele>
        <time>2009-07-06T12:42:03Z</time>
      </trkpt>
      <trkpt lat="44.63443" lon="3.44067">
        <ele>1181</ele>
        <time>2009-07-06T12:42:18Z</time>
      </trkpt>
      <trkpt lat="44.63494" lon="3.44132">
        <ele>1180</ele>
        <time>2009-07-06T12:42:34Z</time>
      </trkpt>
      <trkpt lat="44.63539" lon="3.44232">
        <ele>1180</ele>
        <time>2009-07-06T12:42:53Z</time>
      </trkpt>
      <trkpt lat="44.63558" lon="3.44274">
        <ele>1181</ele>
        <time>2009-07-06T12:43:01Z</time>
      </trkpt>
      <trkpt lat="44.6357" lon="3.44328">
        <ele>1182</ele>
        <time>2009-07-06T12:43:10Z</time>
      </trkpt>
      <trkpt lat="44.63583" lon="3.44367">
        <ele>1180</ele>
        <time>2009-07-06T12:43:17Z</time>
      </trkpt>
      <trkpt lat="44.63582" lon="3.4441">
        <ele>1178</ele>
        <time>2009-07-06T12:43:23Z</time>
      </trkpt>
      <trkpt lat="44.63573" lon="3.44452">
        <ele>1176</ele>
        <time>2009-07-06T12:43:29Z</time>
      </trkpt>
      <trkpt lat="44.63567" lon="3.4448">
        <ele>1173</ele>
        <time>2009-07-06T12:43:32Z</time>
      </trkpt>
      <trkpt lat="44.63564" lon="3.44528">
        <ele>1169</ele>
        <time>2009-07-06T12:43:37Z</time>
      </trkpt>
      <trkpt lat="44.63564" lon="3.44537">
        <ele>1168</ele>
        <time>2009-07-06T12:43:38Z</time>
      </trkpt>
      <trkpt lat="44.63565" lon="3.44551">
        <ele>1167</ele>
        <time>2009-07-06T12:43:40Z</time>
      </trkpt>
      <trkpt lat="44.63575" lon="3.44575">
        <ele>1162</ele>
        <time>2009-07-06T12:43:44Z</time>
      </trkpt>
      <trkpt lat="44.6358" lon="3.44584">
        <ele>1158</ele>
        <time>2009-07-06T12:43:45Z</time>
      </trkpt>
      <trkpt lat="44.63593" lon="3.44602">
        <ele>1157</ele>
        <time>2009-07-06T12:43:47Z</time>
      </trkpt>
      <trkpt lat="44.63606" lon="3.44615">
        <ele>1155</ele>
        <time>2009-07-06T12:43:49Z</time>
      </trkpt>
      <trkpt lat="44.63615" lon="3.44647">
        <ele>1152</ele>
        <time>2009-07-06T12:43:53Z</time>
      </trkpt>
      <trkpt lat="44.63614" lon="3.44667">
        <ele>1151</ele>
        <time>2009-07-06T12:43:55Z</time>
      </trkpt>
      <trkpt lat="44.63615" lon="3.4471">
        <ele>1149</ele>
        <time>2009-07-06T12:43:59Z</time>
      </trkpt>
      <trkpt lat="44.63618" lon="3.44733">
        <ele>1147</ele>
        <time>2009-07-06T12:44:01Z</time>
      </trkpt>
      <trkpt lat="44.63626" lon="3.44769">
        <ele>1145</ele>
        <time>2009-07-06T12:44:04Z</time>
      </trkpt>
      <trkpt lat="44.63632" lon="3.44807">
        <ele>1141</ele>
        <time>2009-07-06T12:44:07Z</time>
      </trkpt>
      <trkpt lat="44.63633" lon="3.44862">
        <ele>1140</ele>
        <time>2009-07-06T12:44:13Z</time>
      </trkpt>
      <trkpt lat="44.6361" lon="3.44893">
        <ele>1137</ele>
        <time>2009-07-06T12:44:19Z</time>
      </trkpt>
      <trkpt lat="44.63589" lon="3.44902">
        <ele>1134</ele>
        <time>2009-07-06T12:44:23Z</time>
      </trkpt>
      <trkpt lat="44.6358" lon="3.44914">
        <ele>1132</ele>
        <time>2009-07-06T12:44:25Z</time>
      </trkpt>
      <trkpt lat="44.63567" lon="3.44955">
        <ele>1129</ele>
        <time>2009-07-06T12:44:29Z</time>
      </trkpt>
      <trkpt lat="44.63563" lon="3.4498">
        <ele>1127</ele>
        <time>2009-07-06T12:44:31Z</time>
      </trkpt>
      <trkpt lat="44.63561" lon="3.45015">
        <ele>1128</ele>
        <time>2009-07-06T12:44:34Z</time>
      </trkpt>
      <trkpt lat="44.63562" lon="3.45028">
        <ele>1129</ele>
        <time>2009-07-06T12:44:36Z</time>
      </trkpt>
      <trkpt lat="44.63568" lon="3.45028">
        <ele>1128</ele>
        <time>2009-07-06T12:44:38Z</time>
      </trkpt>
      <trkpt lat="44.63606" lon="3.45052">
        <ele>1129</ele>
        <time>2009-07-06T12:44:50Z</time>
      </trkpt>
      <trkpt lat="44.63646" lon="3.45102">
        <ele>1131</ele>
        <time>2009-07-06T12:45:06Z</time>
      </trkpt>
      <trkpt lat="44.63688" lon="3.45138">
        <ele>1134</ele>
        <time>2009-07-06T12:45:22Z</time>
      </trkpt>
      <trkpt lat="44.63712" lon="3.45148">
        <ele>1137</ele>
        <time>2009-07-06T12:45:31Z</time>
      </trkpt>
      <trkpt lat="44.63715" lon="3.45149">
        <ele>1138</ele>
        <time>2009-07-06T12:45:32Z</time>
      </trkpt>
      <trkpt lat="44.63728" lon="3.45161">
        <ele>1140</ele>
        <time>2009-07-06T12:45:38Z</time>
      </trkpt>
      <trkpt lat="44.63733" lon="3.45185">
        <ele>1143</ele>
        <time>2009-07-06T12:45:45Z</time>
      </trkpt>
      <trkpt lat="44.63728" lon="3.45239">
        <ele>1146</ele>
        <time>2009-07-06T12:46:01Z</time>
      </trkpt>
      <trkpt lat="44.6372" lon="3.45296">
        <ele>1150</ele>
        <time>2009-07-06T12:46:18Z</time>
      </trkpt>
      <trkpt lat="44.63712" lon="3.45343">
        <ele>1153</ele>
        <time>2009-07-06T12:46:32Z</time>
      </trkpt>
      <trkpt lat="44.63705" lon="3.4538">
        <ele>1157</ele>
        <time>2009-07-06T12:46:43Z</time>
      </trkpt>
      <trkpt lat="44.63698" lon="3.4542">
        <ele>1160</ele>
        <time>2009-07-06T12:46:56Z</time>
      </trkpt>
      <trkpt lat="44.63692" lon="3.45457">
        <ele>1163</ele>
        <time>2009-07-06T12:47:08Z</time>
      </trkpt>
      <trkpt lat="44.63687" lon="3.45498">
        <ele>1167</ele>
        <time>2009-07-06T12:47:21Z</time>
      </trkpt>
      <trkpt lat="44.63684" lon="3.45534">
        <ele>1170</ele>
        <time>2009-07-06T12:47:32Z</time>
      </trkpt>
      <trkpt lat="44.6368" lon="3.45599">
        <ele>1173</ele>
        <time>2009-07-06T12:47:51Z</time>
      </trkpt>
      <trkpt lat="44.63695" lon="3.45654">
        <ele>1175</ele>
        <time>2009-07-06T12:48:07Z</time>
      </trkpt>
      <trkpt lat="44.63694" lon="3.45747">
        <ele>1175</ele>
        <time>2009-07-06T12:48:27Z</time>
      </trkpt>
      <trkpt lat="44.63693" lon="3.45759">
        <ele>1175</ele>
        <time>2009-07-06T12:48:29Z</time>
      </trkpt>
      <trkpt lat="44.63691" lon="3.45779">
        <ele>1173</ele>
        <time>2009-07-06T12:48:32Z</time>
      </trkpt>
      <trkpt lat="44.63675" lon="3.45852">
        <ele>1172</ele>
        <time>2009-07-06T12:48:45Z</time>
      </trkpt>
      <trkpt lat="44.63671" lon="3.45862">
        <ele>1172</ele>
        <time>2009-07-06T12:48:58Z</time>
      </trkpt>
      <trkpt lat="44.63676" lon="3.45859">
        <ele>1172</ele>
        <time>2009-07-06T12:49:50Z</time>
      </trkpt>
      <trkpt lat="44.63671" lon="3.45874">
        <ele>1171</ele>
        <time>2009-07-06T12:50:33Z</time>
      </trkpt>
      <trkpt lat="44.63669" lon="3.4591">
        <ele>1167</ele>
        <time>2009-07-06T12:50:38Z</time>
      </trkpt>
      <trkpt lat="44.63673" lon="3.4595">
        <ele>1163</ele>
        <time>2009-07-06T12:50:42Z</time>
      </trkpt>
      <trkpt lat="44.63678" lon="3.45975">
        <ele>1159</ele>
        <time>2009-07-06T12:50:44Z</time>
      </trkpt>
      <trkpt lat="44.63687" lon="3.46016">
        <ele>1156</ele>
        <time>2009-07-06T12:50:47Z</time>
      </trkpt>
      <trkpt lat="44.63691" lon="3.46029">
        <ele>1155</ele>
        <time>2009-07-06T12:50:48Z</time>
      </trkpt>
      <trkpt lat="44.63676" lon="3.46124">
        <ele>1152</ele>
        <time>2009-07-06T12:50:55Z</time>
      </trkpt>
      <trkpt lat="44.63655" lon="3.46155">
        <ele>1150</ele>
        <time>2009-07-06T12:50:58Z</time>
      </trkpt>
      <trkpt lat="44.63648" lon="3.46166">
        <ele>1149</ele>
        <time>2009-07-06T12:50:59Z</time>
      </trkpt>
      <trkpt lat="44.63634" lon="3.46218">
        <ele>1147</ele>
        <time>2009-07-06T12:51:03Z</time>
      </trkpt>
      <trkpt lat="44.63605" lon="3.46304">
        <ele>1144</ele>
        <time>2009-07-06T12:51:10Z</time>
      </trkpt>
      <trkpt lat="44.63597" lon="3.4638">
        <ele>1143</ele>
        <time>2009-07-06T12:51:16Z</time>
      </trkpt>
      <trkpt lat="44.63609" lon="3.46536">
        <ele>1143</ele>
        <time>2009-07-06T12:51:30Z</time>
      </trkpt>
      <trkpt lat="44.6361" lon="3.46573">
        <ele>1143</ele>
        <time>2009-07-06T12:51:34Z</time>
      </trkpt>
      <trkpt lat="44.6363" lon="3.46622">
        <ele>1142</ele>
        <time>2009-07-06T12:51:41Z</time>
      </trkpt>
      <trkpt lat="44.63699" lon="3.46704">
        <ele>1141</ele>
        <time>2009-07-06T12:51:57Z</time>
      </trkpt>
      <trkpt lat="44.6371" lon="3.46714">
        <ele>1140</ele>
        <time>2009-07-06T12:52:00Z</time>
      </trkpt>
      <trkpt lat="44.63724" lon="3.46737">
        <ele>1137</ele>
        <time>2009-07-06T12:52:04Z</time>
      </trkpt>
      <trkpt lat="44.6373" lon="3.46775">
        <ele>1133</ele>
        <time>2009-07-06T12:52:08Z</time>
      </trkpt>
      <trkpt lat="44.63718" lon="3.46815">
        <ele>1129</ele>
        <time>2009-07-06T12:52:12Z</time>
      </trkpt>
      <trkpt lat="44.6371" lon="3.46824">
        <ele>1125</ele>
        <time>2009-07-06T12:52:13Z</time>
      </trkpt>
      <trkpt lat="44.63689" lon="3.46857">
        <ele>1121</ele>
        <time>2009-07-06T12:52:16Z</time>
      </trkpt>
      <trkpt lat="44.63684" lon="3.4687">
        <ele>1121</ele>
        <time>2009-07-06T12:52:17Z</time>
      </trkpt>
      <trkpt lat="44.63685" lon="3.46927">
        <ele>1117</ele>
        <time>2009-07-06T12:52:21Z</time>
      </trkpt>
      <trkpt lat="44.63697" lon="3.46951">
        <ele>1114</ele>
        <time>2009-07-06T12:52:23Z</time>
      </trkpt>
      <trkpt lat="44.63714" lon="3.47025">
        <ele>1111</ele>
        <time>2009-07-06T12:52:29Z</time>
      </trkpt>
      <trkpt lat="44.63697" lon="3.47054">
        <ele>1107</ele>
        <time>2009-07-06T12:52:33Z</time>
      </trkpt>
      <trkpt lat="44.63689" lon="3.47057">
        <ele>1106</ele>
        <time>2009-07-06T12:52:34Z</time>
      </trkpt>
      <trkpt lat="44.6366" lon="3.47096">
        <ele>1107</ele>
        <time>2009-07-06T12:52:42Z</time>
      </trkpt>
      <trkpt lat="44.63659" lon="3.47104">
        <ele>1109</ele>
        <time>2009-07-06T12:52:44Z</time>
      </trkpt>
      <trkpt lat="44.6365" lon="3.47148">
        <ele>1111</ele>
        <time>2009-07-06T12:52:58Z</time>
      </trkpt>
      <trkpt lat="44.63643" lon="3.47189">
        <ele>1114</ele>
        <time>2009-07-06T12:53:10Z</time>
      </trkpt>
      <trkpt lat="44.63651" lon="3.47213">
        <ele>1117</ele>
        <time>2009-07-06T12:53:18Z</time>
      </trkpt>
      <trkpt lat="44.63675" lon="3.47272">
        <ele>1119</ele>
        <time>2009-07-06T12:53:36Z</time>
      </trkpt>
      <trkpt lat="44.63707" lon="3.47329">
        <ele>1118</ele>
        <time>2009-07-06T12:53:52Z</time>
      </trkpt>
      <trkpt lat="44.63726" lon="3.47354">
        <ele>1115</ele>
        <time>2009-07-06T12:53:58Z</time>
      </trkpt>
      <trkpt lat="44.6373" lon="3.47361">
        <ele>1114</ele>
        <time>2009-07-06T12:53:59Z</time>
      </trkpt>
      <trkpt lat="44.63735" lon="3.47416">
        <ele>1110</ele>
        <time>2009-07-06T12:54:06Z</time>
      </trkpt>
      <trkpt lat="44.63733" lon="3.4745">
        <ele>1107</ele>
        <time>2009-07-06T12:54:11Z</time>
      </trkpt>
      <trkpt lat="44.6374" lon="3.47462">
        <ele>1106</ele>
        <time>2009-07-06T12:54:13Z</time>
      </trkpt>
      <trkpt lat="44.63745" lon="3.47502">
        <ele>1107</ele>
        <time>2009-07-06T12:54:20Z</time>
      </trkpt>
      <trkpt lat="44.63738" lon="3.47505">
        <ele>1107</ele>
        <time>2009-07-06T12:54:22Z</time>
      </trkpt>
      <trkpt lat="44.63678" lon="3.47512">
        <ele>1110</ele>
        <time>2009-07-06T12:54:41Z</time>
      </trkpt>
      <trkpt lat="44.63655" lon="3.47504">
        <ele>1114</ele>
        <time>2009-07-06T12:54:50Z</time>
      </trkpt>
      <trkpt lat="44.63635" lon="3.47506">
        <ele>1117</ele>
        <time>2009-07-06T12:54:59Z</time>
      </trkpt>
      <trkpt lat="44.63635" lon="3.47509">
        <ele>1117</ele>
        <time>2009-07-06T12:55:11Z</time>
      </trkpt>
      <trkpt lat="44.63635" lon="3.4751">
        <ele>1115</ele>
        <time>2009-07-06T12:55:41Z</time>
      </trkpt>
      <trkpt lat="44.63644" lon="3.47532">
        <ele>1115</ele>
        <time>2009-07-06T12:55:52Z</time>
      </trkpt>
      <trkpt lat="44.63637" lon="3.47535">
        <ele>1117</ele>
        <time>2009-07-06T12:55:56Z</time>
      </trkpt>
      <trkpt lat="44.6361" lon="3.47535">
        <ele>1120</ele>
        <time>2009-07-06T12:56:08Z</time>
      </trkpt>
      <trkpt lat="44.63608" lon="3.47535">
        <ele>1120</ele>
        <time>2009-07-06T12:56:09Z</time>
      </trkpt>
      <trkpt lat="44.6359" lon="3.47545">
        <ele>1123</ele>
        <time>2009-07-06T12:56:18Z</time>
      </trkpt>
      <trkpt lat="44.63569" lon="3.47562">
        <ele>1126</ele>
        <time>2009-07-06T12:56:30Z</time>
      </trkpt>
      <trkpt lat="44.63547" lon="3.47587">
        <ele>1129</ele>
        <time>2009-07-06T12:56:44Z</time>
      </trkpt>
      <trkpt lat="44.63529" lon="3.47612">
        <ele>1133</ele>
        <time>2009-07-06T12:56:57Z</time>
      </trkpt>
      <trkpt lat="44.63514" lon="3.47643">
        <ele>1136</ele>
        <time>2009-07-06T12:57:13Z</time>
      </trkpt>
      <trkpt lat="44.63498" lon="3.47678">
        <ele>1139</ele>
        <time>2009-07-06T12:57:29Z</time>
      </trkpt>
      <trkpt lat="44.6348" lon="3.47719">
        <ele>1142</ele>
        <time>2009-07-06T12:57:46Z</time>
      </trkpt>
      <trkpt lat="44.63459" lon="3.47761">
        <ele>1142</ele>
        <time>2009-07-06T12:58:04Z</time>
      </trkpt>
      <trkpt lat="44.63444" lon="3.47792">
        <ele>1145</ele>
        <time>2009-07-06T12:58:16Z</time>
      </trkpt>
      <trkpt lat="44.63439" lon="3.47807">
        <ele>1146</ele>
        <time>2009-07-06T12:58:23Z</time>
      </trkpt>
      <trkpt lat="44.63444" lon="3.47814">
        <ele>1145</ele>
        <time>2009-07-06T12:58:27Z</time>
      </trkpt>
      <trkpt lat="44.63468" lon="3.47829">
        <ele>1148</ele>
        <time>2009-07-06T12:58:44Z</time>
      </trkpt>
      <trkpt lat="44.6349" lon="3.47848">
        <ele>1152</ele>
        <time>2009-07-06T12:58:57Z</time>
      </trkpt>
      <trkpt lat="44.63494" lon="3.47851">
        <ele>1153</ele>
        <time>2009-07-06T12:58:59Z</time>
      </trkpt>
      <trkpt lat="44.63522" lon="3.47875">
        <ele>1156</ele>
        <time>2009-07-06T12:59:16Z</time>
      </trkpt>
      <trkpt lat="44.63553" lon="3.47896">
        <ele>1158</ele>
        <time>2009-07-06T12:59:33Z</time>
      </trkpt>
      <trkpt lat="44.63591" lon="3.47911">
        <ele>1158</ele>
        <time>2009-07-06T12:59:50Z</time>
      </trkpt>
      <trkpt lat="44.6363" lon="3.47928">
        <ele>1159</ele>
        <time>2009-07-06T13:00:08Z</time>
      </trkpt>
      <trkpt lat="44.63665" lon="3.47949">
        <ele>1159</ele>
        <time>2009-07-06T13:00:25Z</time>
      </trkpt>
      <trkpt lat="44.63694" lon="3.47973">
        <ele>1162</ele>
        <time>2009-07-06T13:00:42Z</time>
      </trkpt>
      <trkpt lat="44.63713" lon="3.47992">
        <ele>1164</ele>
        <time>2009-07-06T13:00:57Z</time>
      </trkpt>
      <trkpt lat="44.6373" lon="3.4801">
        <ele>1164</ele>
        <time>2009-07-06T13:01:14Z</time>
      </trkpt>
      <trkpt lat="44.63744" lon="3.48028">
        <ele>1166</ele>
        <time>2009-07-06T13:01:31Z</time>
      </trkpt>
      <trkpt lat="44.63756" lon="3.48048">
        <ele>1167</ele>
        <time>2009-07-06T13:01:48Z</time>
      </trkpt>
      <trkpt lat="44.63759" lon="3.48058">
        <ele>1169</ele>
        <time>2009-07-06T13:01:55Z</time>
      </trkpt>
      <trkpt lat="44.63765" lon="3.48079">
        <ele>1167</ele>
        <time>2009-07-06T13:02:09Z</time>
      </trkpt>
      <trkpt lat="44.63781" lon="3.48108">
        <ele>1164</ele>
        <time>2009-07-06T13:02:18Z</time>
      </trkpt>
      <trkpt lat="44.63783" lon="3.48113">
        <ele>1164</ele>
        <time>2009-07-06T13:02:19Z</time>
      </trkpt>
      <trkpt lat="44.63785" lon="3.48119">
        <ele>1163</ele>
        <time>2009-07-06T13:02:20Z</time>
      </trkpt>
      <trkpt lat="44.6379" lon="3.48138">
        <ele>1162</ele>
        <time>2009-07-06T13:02:23Z</time>
      </trkpt>
      <trkpt lat="44.63795" lon="3.4815">
        <ele>1160</ele>
        <time>2009-07-06T13:02:25Z</time>
      </trkpt>
      <trkpt lat="44.63808" lon="3.48204">
        <ele>1157</ele>
        <time>2009-07-06T13:02:31Z</time>
      </trkpt>
      <trkpt lat="44.63813" lon="3.48225">
        <ele>1155</ele>
        <time>2009-07-06T13:02:33Z</time>
      </trkpt>
      <trkpt lat="44.63848" lon="3.48304">
        <ele>1152</ele>
        <time>2009-07-06T13:02:42Z</time>
      </trkpt>
      <trkpt lat="44.63855" lon="3.48321">
        <ele>1150</ele>
        <time>2009-07-06T13:02:44Z</time>
      </trkpt>
      <trkpt lat="44.63874" lon="3.48379">
        <ele>1145</ele>
        <time>2009-07-06T13:02:50Z</time>
      </trkpt>
      <trkpt lat="44.63892" lon="3.48418">
        <ele>1144</ele>
        <time>2009-07-06T13:02:55Z</time>
      </trkpt>
      <trkpt lat="44.63917" lon="3.48441">
        <ele>1145</ele>
        <time>2009-07-06T13:03:01Z</time>
      </trkpt>
      <trkpt lat="44.63938" lon="3.48457">
        <ele>1144</ele>
        <time>2009-07-06T13:03:06Z</time>
      </trkpt>
      <trkpt lat="44.63968" lon="3.48487">
        <ele>1144</ele>
        <time>2009-07-06T13:03:12Z</time>
      </trkpt>
      <trkpt lat="44.63995" lon="3.48529">
        <ele>1138</ele>
        <time>2009-07-06T13:03:18Z</time>
      </trkpt>
      <trkpt lat="44.64013" lon="3.48557">
        <ele>1134</ele>
        <time>2009-07-06T13:03:22Z</time>
      </trkpt>
      <trkpt lat="44.64045" lon="3.48576">
        <ele>1127</ele>
        <time>2009-07-06T13:03:26Z</time>
      </trkpt>
      <trkpt lat="44.64053" lon="3.48584">
        <ele>1126</ele>
        <time>2009-07-06T13:03:27Z</time>
      </trkpt>
      <trkpt lat="44.64068" lon="3.48598">
        <ele>1125</ele>
        <time>2009-07-06T13:03:29Z</time>
      </trkpt>
      <trkpt lat="44.641" lon="3.48638">
        <ele>1125</ele>
        <time>2009-07-06T13:03:35Z</time>
      </trkpt>
      <trkpt lat="44.64128" lon="3.48652">
        <ele>1123</ele>
        <time>2009-07-06T13:03:40Z</time>
      </trkpt>
      <trkpt lat="44.6416" lon="3.48716">
        <ele>1121</ele>
        <time>2009-07-06T13:03:48Z</time>
      </trkpt>
      <trkpt lat="44.6417" lon="3.4873">
        <ele>1120</ele>
        <time>2009-07-06T13:03:50Z</time>
      </trkpt>
      <trkpt lat="44.64188" lon="3.48782">
        <ele>1118</ele>
        <time>2009-07-06T13:03:56Z</time>
      </trkpt>
      <trkpt lat="44.64195" lon="3.48795">
        <ele>1118</ele>
        <time>2009-07-06T13:03:58Z</time>
      </trkpt>
      <trkpt lat="44.64227" lon="3.48824">
        <ele>1119</ele>
        <time>2009-07-06T13:04:05Z</time>
      </trkpt>
      <trkpt lat="44.64238" lon="3.48829">
        <ele>1120</ele>
        <time>2009-07-06T13:04:08Z</time>
      </trkpt>
      <trkpt lat="44.64242" lon="3.48828">
        <ele>1121</ele>
        <time>2009-07-06T13:04:10Z</time>
      </trkpt>
      <trkpt lat="44.64244" lon="3.48827">
        <ele>1120</ele>
        <time>2009-07-06T13:04:11Z</time>
      </trkpt>
      <trkpt lat="44.64249" lon="3.48828">
        <ele>1120</ele>
        <time>2009-07-06T13:04:28Z</time>
      </trkpt>
      <trkpt lat="44.6425" lon="3.48829">
        <ele>1120</ele>
        <time>2009-07-06T13:04:42Z</time>
      </trkpt>
      <trkpt lat="44.64251" lon="3.48829">
        <ele>1120</ele>
        <time>2009-07-06T13:05:11Z</time>
      </trkpt>
      <trkpt lat="44.6425" lon="3.48828">
        <ele>1120</ele>
        <time>2009-07-06T13:05:46Z</time>
      </trkpt>
      <trkpt lat="44.64256" lon="3.48846">
        <ele>1120</ele>
        <time>2009-07-06T13:05:53Z</time>
      </trkpt>
      <trkpt lat="44.64254" lon="3.48913">
        <ele>1121</ele>
        <time>2009-07-06T13:06:10Z</time>
      </trkpt>
      <trkpt lat="44.64257" lon="3.48961">
        <ele>1123</ele>
        <time>2009-07-06T13:06:29Z</time>
      </trkpt>
      <trkpt lat="44.64238" lon="3.48983">
        <ele>1127</ele>
        <time>2009-07-06T13:06:42Z</time>
      </trkpt>
      <trkpt lat="44.64223" lon="3.49002">
        <ele>1130</ele>
        <time>2009-07-06T13:06:54Z</time>
      </trkpt>
      <trkpt lat="44.64226" lon="3.49038">
        <ele>1133</ele>
        <time>2009-07-06T13:07:09Z</time>
      </trkpt>
      <trkpt lat="44.64237" lon="3.49071">
        <ele>1136</ele>
        <time>2009-07-06T13:07:24Z</time>
      </trkpt>
      <trkpt lat="44.64252" lon="3.49103">
        <ele>1139</ele>
        <time>2009-07-06T13:07:40Z</time>
      </trkpt>
      <trkpt lat="44.64264" lon="3.49135">
        <ele>1142</ele>
        <time>2009-07-06T13:07:55Z</time>
      </trkpt>
      <trkpt lat="44.64265" lon="3.49145">
        <ele>1145</ele>
        <time>2009-07-06T13:07:59Z</time>
      </trkpt>
      <trkpt lat="44.64263" lon="3.49184">
        <ele>1148</ele>
        <time>2009-07-06T13:08:15Z</time>
      </trkpt>
      <trkpt lat="44.64261" lon="3.49223">
        <ele>1152</ele>
        <time>2009-07-06T13:08:31Z</time>
      </trkpt>
      <trkpt lat="44.64258" lon="3.49256">
        <ele>1154</ele>
        <time>2009-07-06T13:08:45Z</time>
      </trkpt>
      <trkpt lat="44.64256" lon="3.49266">
        <ele>1156</ele>
        <time>2009-07-06T13:08:49Z</time>
      </trkpt>
      <trkpt lat="44.64255" lon="3.49273">
        <ele>1158</ele>
        <time>2009-07-06T13:08:52Z</time>
      </trkpt>
      <trkpt lat="44.64251" lon="3.49304">
        <ele>1160</ele>
        <time>2009-07-06T13:09:05Z</time>
      </trkpt>
      <trkpt lat="44.64252" lon="3.49333">
        <ele>1164</ele>
        <time>2009-07-06T13:09:17Z</time>
      </trkpt>
      <trkpt lat="44.64259" lon="3.4936">
        <ele>1167</ele>
        <time>2009-07-06T13:09:28Z</time>
      </trkpt>
      <trkpt lat="44.64273" lon="3.49424">
        <ele>1168</ele>
        <time>2009-07-06T13:09:52Z</time>
      </trkpt>
      <trkpt lat="44.6427" lon="3.49465">
        <ele>1172</ele>
        <time>2009-07-06T13:10:06Z</time>
      </trkpt>
      <trkpt lat="44.64269" lon="3.4947">
        <ele>1173</ele>
        <time>2009-07-06T13:10:08Z</time>
      </trkpt>
      <trkpt lat="44.64262" lon="3.49531">
        <ele>1176</ele>
        <time>2009-07-06T13:10:29Z</time>
      </trkpt>
      <trkpt lat="44.64261" lon="3.49576">
        <ele>1177</ele>
        <time>2009-07-06T13:10:45Z</time>
      </trkpt>
      <trkpt lat="44.64266" lon="3.49625">
        <ele>1181</ele>
        <time>2009-07-06T13:11:02Z</time>
      </trkpt>
      <trkpt lat="44.64278" lon="3.4966">
        <ele>1184</ele>
        <time>2009-07-06T13:11:17Z</time>
      </trkpt>
      <trkpt lat="44.64291" lon="3.49699">
        <ele>1187</ele>
        <time>2009-07-06T13:11:32Z</time>
      </trkpt>
      <trkpt lat="44.64299" lon="3.49712">
        <ele>1189</ele>
        <time>2009-07-06T13:11:39Z</time>
      </trkpt>
      <trkpt lat="44.64324" lon="3.49757">
        <ele>1190</ele>
        <time>2009-07-06T13:11:58Z</time>
      </trkpt>
      <trkpt lat="44.64332" lon="3.49821">
        <ele>1190</ele>
        <time>2009-07-06T13:12:11Z</time>
      </trkpt>
      <trkpt lat="44.6432" lon="3.49847">
        <ele>1191</ele>
        <time>2009-07-06T13:12:23Z</time>
      </trkpt>
      <trkpt lat="44.64317" lon="3.49852">
        <ele>1192</ele>
        <time>2009-07-06T13:12:35Z</time>
      </trkpt>
      <trkpt lat="44.64317" lon="3.49853">
        <ele>1192</ele>
        <time>2009-07-06T13:13:08Z</time>
      </trkpt>
      <trkpt lat="44.64315" lon="3.49845">
        <ele>1192</ele>
        <time>2009-07-06T13:13:33Z</time>
      </trkpt>
      <trkpt lat="44.64318" lon="3.49846">
        <ele>1191</ele>
        <time>2009-07-06T13:13:57Z</time>
      </trkpt>
      <trkpt lat="44.64334" lon="3.49829">
        <ele>1192</ele>
        <time>2009-07-06T13:14:06Z</time>
      </trkpt>
      <trkpt lat="44.64336" lon="3.49814">
        <ele>1190</ele>
        <time>2009-07-06T13:14:21Z</time>
      </trkpt>
      <trkpt lat="44.64337" lon="3.49814">
        <ele>1190</ele>
        <time>2009-07-06T13:14:44Z</time>
      </trkpt>
      <trkpt lat="44.64337" lon="3.49813">
        <ele>1189</ele>
        <time>2009-07-06T13:15:46Z</time>
      </trkpt>
      <trkpt lat="44.6432" lon="3.49847">
        <ele>1191</ele>
        <time>2009-07-06T13:15:59Z</time>
      </trkpt>
      <trkpt lat="44.64311" lon="3.49857">
        <ele>1189</ele>
        <time>2009-07-06T13:16:03Z</time>
      </trkpt>
      <trkpt lat="44.64301" lon="3.49878">
        <ele>1192</ele>
        <time>2009-07-06T13:16:11Z</time>
      </trkpt>
      <trkpt lat="44.6429" lon="3.49899">
        <ele>1195</ele>
        <time>2009-07-06T13:16:22Z</time>
      </trkpt>
      <trkpt lat="44.64278" lon="3.49917">
        <ele>1198</ele>
        <time>2009-07-06T13:16:33Z</time>
      </trkpt>
      <trkpt lat="44.64263" lon="3.49938">
        <ele>1202</ele>
        <time>2009-07-06T13:16:46Z</time>
      </trkpt>
      <trkpt lat="44.64246" lon="3.49961">
        <ele>1205</ele>
        <time>2009-07-06T13:17:02Z</time>
      </trkpt>
      <trkpt lat="44.64245" lon="3.49963">
        <ele>1205</ele>
        <time>2009-07-06T13:17:03Z</time>
      </trkpt>
      <trkpt lat="44.64244" lon="3.4999">
        <ele>1209</ele>
        <time>2009-07-06T13:17:16Z</time>
      </trkpt>
      <trkpt lat="44.64243" lon="3.49993">
        <ele>1209</ele>
        <time>2009-07-06T13:17:17Z</time>
      </trkpt>
      <trkpt lat="44.64241" lon="3.50012">
        <ele>1212</ele>
        <time>2009-07-06T13:17:27Z</time>
      </trkpt>
      <trkpt lat="44.64236" lon="3.50047">
        <ele>1215</ele>
        <time>2009-07-06T13:17:45Z</time>
      </trkpt>
      <trkpt lat="44.64227" lon="3.50076">
        <ele>1217</ele>
        <time>2009-07-06T13:18:01Z</time>
      </trkpt>
      <trkpt lat="44.64224" lon="3.50097">
        <ele>1218</ele>
        <time>2009-07-06T13:18:19Z</time>
      </trkpt>
      <trkpt lat="44.6421" lon="3.50114">
        <ele>1217</ele>
        <time>2009-07-06T13:18:37Z</time>
      </trkpt>
      <trkpt lat="44.64157" lon="3.50143">
        <ele>1214</ele>
        <time>2009-07-06T13:18:53Z</time>
      </trkpt>
      <trkpt lat="44.64098" lon="3.50153">
        <ele>1218</ele>
        <time>2009-07-06T13:19:10Z</time>
      </trkpt>
      <trkpt lat="44.64095" lon="3.50154">
        <ele>1218</ele>
        <time>2009-07-06T13:19:11Z</time>
      </trkpt>
      <trkpt lat="44.64043" lon="3.50155">
        <ele>1220</ele>
        <time>2009-07-06T13:19:27Z</time>
      </trkpt>
      <trkpt lat="44.64004" lon="3.50169">
        <ele>1221</ele>
        <time>2009-07-06T13:19:41Z</time>
      </trkpt>
      <trkpt lat="44.63995" lon="3.50183">
        <ele>1222</ele>
        <time>2009-07-06T13:19:57Z</time>
      </trkpt>
      <trkpt lat="44.63994" lon="3.50184">
        <ele>1221</ele>
        <time>2009-07-06T13:20:16Z</time>
      </trkpt>
      <trkpt lat="44.63985" lon="3.50205">
        <ele>1223</ele>
        <time>2009-07-06T13:20:44Z</time>
      </trkpt>
      <trkpt lat="44.63979" lon="3.50236">
        <ele>1226</ele>
        <time>2009-07-06T13:20:54Z</time>
      </trkpt>
      <trkpt lat="44.63972" lon="3.5027">
        <ele>1229</ele>
        <time>2009-07-06T13:21:07Z</time>
      </trkpt>
      <trkpt lat="44.63972" lon="3.50287">
        <ele>1230</ele>
        <time>2009-07-06T13:21:13Z</time>
      </trkpt>
      <trkpt lat="44.63987" lon="3.50287">
        <ele>1233</ele>
        <time>2009-07-06T13:21:23Z</time>
      </trkpt>
      <trkpt lat="44.64016" lon="3.50259">
        <ele>1236</ele>
        <time>2009-07-06T13:21:40Z</time>
      </trkpt>
      <trkpt lat="44.64042" lon="3.50254">
        <ele>1240</ele>
        <time>2009-07-06T13:21:52Z</time>
      </trkpt>
      <trkpt lat="44.64049" lon="3.50259">
        <ele>1240</ele>
        <time>2009-07-06T13:21:56Z</time>
      </trkpt>
      <trkpt lat="44.64057" lon="3.5029">
        <ele>1243</ele>
        <time>2009-07-06T13:22:09Z</time>
      </trkpt>
      <trkpt lat="44.64074" lon="3.50328">
        <ele>1246</ele>
        <time>2009-07-06T13:22:26Z</time>
      </trkpt>
      <trkpt lat="44.6409" lon="3.50359">
        <ele>1249</ele>
        <time>2009-07-06T13:22:40Z</time>
      </trkpt>
      <trkpt lat="44.64122" lon="3.50374">
        <ele>1251</ele>
        <time>2009-07-06T13:22:57Z</time>
      </trkpt>
      <trkpt lat="44.64134" lon="3.50379">
        <ele>1255</ele>
        <time>2009-07-06T13:23:03Z</time>
      </trkpt>
      <trkpt lat="44.64168" lon="3.50389">
        <ele>1258</ele>
        <time>2009-07-06T13:23:21Z</time>
      </trkpt>
      <trkpt lat="44.6417" lon="3.50389">
        <ele>1258</ele>
        <time>2009-07-06T13:23:22Z</time>
      </trkpt>
      <trkpt lat="44.64174" lon="3.50387">
        <ele>1259</ele>
        <time>2009-07-06T13:23:24Z</time>
      </trkpt>
      <trkpt lat="44.64201" lon="3.50368">
        <ele>1262</ele>
        <time>2009-07-06T13:23:39Z</time>
      </trkpt>
      <trkpt lat="44.6424" lon="3.50362">
        <ele>1264</ele>
        <time>2009-07-06T13:23:57Z</time>
      </trkpt>
      <trkpt lat="44.64262" lon="3.50363">
        <ele>1267</ele>
        <time>2009-07-06T13:24:07Z</time>
      </trkpt>
      <trkpt lat="44.64267" lon="3.50368">
        <ele>1267</ele>
        <time>2009-07-06T13:24:10Z</time>
      </trkpt>
      <trkpt lat="44.64255" lon="3.5039">
        <ele>1269</ele>
        <time>2009-07-06T13:24:20Z</time>
      </trkpt>
      <trkpt lat="44.64243" lon="3.50411">
        <ele>1272</ele>
        <time>2009-07-06T13:24:29Z</time>
      </trkpt>
      <trkpt lat="44.64236" lon="3.5045">
        <ele>1275</ele>
        <time>2009-07-06T13:24:44Z</time>
      </trkpt>
      <trkpt lat="44.64235" lon="3.50479">
        <ele>1278</ele>
        <time>2009-07-06T13:24:54Z</time>
      </trkpt>
      <trkpt lat="44.64226" lon="3.50524">
        <ele>1281</ele>
        <time>2009-07-06T13:25:10Z</time>
      </trkpt>
      <trkpt lat="44.64207" lon="3.50587">
        <ele>1283</ele>
        <time>2009-07-06T13:25:32Z</time>
      </trkpt>
      <trkpt lat="44.64203" lon="3.5062">
        <ele>1285</ele>
        <time>2009-07-06T13:25:44Z</time>
      </trkpt>
      <trkpt lat="44.64207" lon="3.50621">
        <ele>1286</ele>
        <time>2009-07-06T13:25:46Z</time>
      </trkpt>
      <trkpt lat="44.64212" lon="3.50616">
        <ele>1287</ele>
        <time>2009-07-06T13:25:49Z</time>
      </trkpt>
      <trkpt lat="44.64233" lon="3.50587">
        <ele>1291</ele>
        <time>2009-07-06T13:26:03Z</time>
      </trkpt>
      <trkpt lat="44.64236" lon="3.50583">
        <ele>1290</ele>
        <time>2009-07-06T13:26:05Z</time>
      </trkpt>
      <trkpt lat="44.64243" lon="3.50604">
        <ele>1293</ele>
        <time>2009-07-06T13:26:16Z</time>
      </trkpt>
      <trkpt lat="44.64243" lon="3.50616">
        <ele>1293</ele>
        <time>2009-07-06T13:26:20Z</time>
      </trkpt>
      <trkpt lat="44.64245" lon="3.50638">
        <ele>1297</ele>
        <time>2009-07-06T13:26:27Z</time>
      </trkpt>
      <trkpt lat="44.64249" lon="3.50691">
        <ele>1300</ele>
        <time>2009-07-06T13:26:44Z</time>
      </trkpt>
      <trkpt lat="44.6425" lon="3.50698">
        <ele>1301</ele>
        <time>2009-07-06T13:26:46Z</time>
      </trkpt>
      <trkpt lat="44.6425" lon="3.50777">
        <ele>1303</ele>
        <time>2009-07-06T13:27:09Z</time>
      </trkpt>
      <trkpt lat="44.64238" lon="3.5084">
        <ele>1306</ele>
        <time>2009-07-06T13:27:27Z</time>
      </trkpt>
      <trkpt lat="44.64236" lon="3.50882">
        <ele>1309</ele>
        <time>2009-07-06T13:27:39Z</time>
      </trkpt>
      <trkpt lat="44.64243" lon="3.50945">
        <ele>1312</ele>
        <time>2009-07-06T13:27:56Z</time>
      </trkpt>
      <trkpt lat="44.64257" lon="3.51026">
        <ele>1314</ele>
        <time>2009-07-06T13:28:17Z</time>
      </trkpt>
      <trkpt lat="44.64282" lon="3.51082">
        <ele>1317</ele>
        <time>2009-07-06T13:28:35Z</time>
      </trkpt>
      <trkpt lat="44.64285" lon="3.51087">
        <ele>1318</ele>
        <time>2009-07-06T13:28:37Z</time>
      </trkpt>
      <trkpt lat="44.6431" lon="3.5112">
        <ele>1321</ele>
        <time>2009-07-06T13:28:51Z</time>
      </trkpt>
      <trkpt lat="44.64327" lon="3.51142">
        <ele>1324</ele>
        <time>2009-07-06T13:29:01Z</time>
      </trkpt>
      <trkpt lat="44.64364" lon="3.51185">
        <ele>1328</ele>
        <time>2009-07-06T13:29:21Z</time>
      </trkpt>
      <trkpt lat="44.64366" lon="3.51187">
        <ele>1328</ele>
        <time>2009-07-06T13:29:22Z</time>
      </trkpt>
      <trkpt lat="44.64401" lon="3.5121">
        <ele>1331</ele>
        <time>2009-07-06T13:29:38Z</time>
      </trkpt>
      <trkpt lat="44.64417" lon="3.51228">
        <ele>1333</ele>
        <time>2009-07-06T13:29:47Z</time>
      </trkpt>
      <trkpt lat="44.6443" lon="3.51258">
        <ele>1336</ele>
        <time>2009-07-06T13:29:58Z</time>
      </trkpt>
      <trkpt lat="44.64447" lon="3.51277">
        <ele>1339</ele>
        <time>2009-07-06T13:30:07Z</time>
      </trkpt>
      <trkpt lat="44.64485" lon="3.51316">
        <ele>1341</ele>
        <time>2009-07-06T13:30:25Z</time>
      </trkpt>
      <trkpt lat="44.64515" lon="3.51365">
        <ele>1342</ele>
        <time>2009-07-06T13:30:41Z</time>
      </trkpt>
      <trkpt lat="44.64534" lon="3.51432">
        <ele>1343</ele>
        <time>2009-07-06T13:30:57Z</time>
      </trkpt>
      <trkpt lat="44.64547" lon="3.51476">
        <ele>1347</ele>
        <time>2009-07-06T13:31:09Z</time>
      </trkpt>
      <trkpt lat="44.64552" lon="3.51488">
        <ele>1348</ele>
        <time>2009-07-06T13:31:13Z</time>
      </trkpt>
      <trkpt lat="44.64582" lon="3.51544">
        <ele>1350</ele>
        <time>2009-07-06T13:31:30Z</time>
      </trkpt>
      <trkpt lat="44.64594" lon="3.51565">
        <ele>1349</ele>
        <time>2009-07-06T13:31:35Z</time>
      </trkpt>
      <trkpt lat="44.64601" lon="3.51627">
        <ele>1348</ele>
        <time>2009-07-06T13:31:46Z</time>
      </trkpt>
      <trkpt lat="44.64604" lon="3.51717">
        <ele>1350</ele>
        <time>2009-07-06T13:32:03Z</time>
      </trkpt>
      <trkpt lat="44.64609" lon="3.51767">
        <ele>1353</ele>
        <time>2009-07-06T13:32:14Z</time>
      </trkpt>
      <trkpt lat="44.64613" lon="3.51796">
        <ele>1354</ele>
        <time>2009-07-06T13:32:21Z</time>
      </trkpt>
      <trkpt lat="44.64623" lon="3.51848">
        <ele>1357</ele>
        <time>2009-07-06T13:32:35Z</time>
      </trkpt>
      <trkpt lat="44.64629" lon="3.51871">
        <ele>1360</ele>
        <time>2009-07-06T13:32:42Z</time>
      </trkpt>
      <trkpt lat="44.64634" lon="3.519">
        <ele>1362</ele>
        <time>2009-07-06T13:32:51Z</time>
      </trkpt>
      <trkpt lat="44.64644" lon="3.51945">
        <ele>1365</ele>
        <time>2009-07-06T13:33:06Z</time>
      </trkpt>
      <trkpt lat="44.64656" lon="3.51975">
        <ele>1368</ele>
        <time>2009-07-06T13:33:17Z</time>
      </trkpt>
      <trkpt lat="44.64672" lon="3.52008">
        <ele>1371</ele>
        <time>2009-07-06T13:33:29Z</time>
      </trkpt>
      <trkpt lat="44.64661" lon="3.52045">
        <ele>1372</ele>
        <time>2009-07-06T13:33:40Z</time>
      </trkpt>
      <trkpt lat="44.64642" lon="3.5209">
        <ele>1372</ele>
        <time>2009-07-06T13:33:54Z</time>
      </trkpt>
      <trkpt lat="44.64614" lon="3.52131">
        <ele>1376</ele>
        <time>2009-07-06T13:34:11Z</time>
      </trkpt>
      <trkpt lat="44.64609" lon="3.52134">
        <ele>1376</ele>
        <time>2009-07-06T13:34:13Z</time>
      </trkpt>
      <trkpt lat="44.64573" lon="3.52156">
        <ele>1379</ele>
        <time>2009-07-06T13:34:30Z</time>
      </trkpt>
      <trkpt lat="44.64567" lon="3.52159">
        <ele>1380</ele>
        <time>2009-07-06T13:34:33Z</time>
      </trkpt>
      <trkpt lat="44.64554" lon="3.52168">
        <ele>1382</ele>
        <time>2009-07-06T13:34:40Z</time>
      </trkpt>
      <trkpt lat="44.64533" lon="3.52182">
        <ele>1385</ele>
        <time>2009-07-06T13:34:52Z</time>
      </trkpt>
      <trkpt lat="44.64532" lon="3.52184">
        <ele>1385</ele>
        <time>2009-07-06T13:34:53Z</time>
      </trkpt>
      <trkpt lat="44.64534" lon="3.52199">
        <ele>1385</ele>
        <time>2009-07-06T13:34:59Z</time>
      </trkpt>
      <trkpt lat="44.64549" lon="3.52206">
        <ele>1389</ele>
        <time>2009-07-06T13:35:07Z</time>
      </trkpt>
      <trkpt lat="44.6455" lon="3.52206">
        <ele>1389</ele>
        <time>2009-07-06T13:35:08Z</time>
      </trkpt>
      <trkpt lat="44.64574" lon="3.52217">
        <ele>1391</ele>
        <time>2009-07-06T13:35:22Z</time>
      </trkpt>
      <trkpt lat="44.64596" lon="3.52239">
        <ele>1395</ele>
        <time>2009-07-06T13:35:36Z</time>
      </trkpt>
      <trkpt lat="44.64622" lon="3.52264">
        <ele>1398</ele>
        <time>2009-07-06T13:35:53Z</time>
      </trkpt>
      <trkpt lat="44.64626" lon="3.52266">
        <ele>1399</ele>
        <time>2009-07-06T13:35:55Z</time>
      </trkpt>
      <trkpt lat="44.6464" lon="3.52275">
        <ele>1402</ele>
        <time>2009-07-06T13:36:03Z</time>
      </trkpt>
      <trkpt lat="44.64652" lon="3.52281">
        <ele>1405</ele>
        <time>2009-07-06T13:36:10Z</time>
      </trkpt>
      <trkpt lat="44.64653" lon="3.52285">
        <ele>1405</ele>
        <time>2009-07-06T13:36:12Z</time>
      </trkpt>
      <trkpt lat="44.64634" lon="3.52306">
        <ele>1405</ele>
        <time>2009-07-06T13:36:26Z</time>
      </trkpt>
      <trkpt lat="44.64623" lon="3.52306">
        <ele>1406</ele>
        <time>2009-07-06T13:36:31Z</time>
      </trkpt>
      <trkpt lat="44.64585" lon="3.523">
        <ele>1408</ele>
        <time>2009-07-06T13:36:46Z</time>
      </trkpt>
      <trkpt lat="44.64525" lon="3.52293">
        <ele>1409</ele>
        <time>2009-07-06T13:37:07Z</time>
      </trkpt>
      <trkpt lat="44.64478" lon="3.52298">
        <ele>1413</ele>
        <time>2009-07-06T13:37:23Z</time>
      </trkpt>
      <trkpt lat="44.64452" lon="3.52305">
        <ele>1415</ele>
        <time>2009-07-06T13:37:33Z</time>
      </trkpt>
      <trkpt lat="44.64432" lon="3.52311">
        <ele>1418</ele>
        <time>2009-07-06T13:37:42Z</time>
      </trkpt>
      <trkpt lat="44.64407" lon="3.52322">
        <ele>1420</ele>
        <time>2009-07-06T13:37:56Z</time>
      </trkpt>
      <trkpt lat="44.64396" lon="3.5233">
        <ele>1423</ele>
        <time>2009-07-06T13:38:03Z</time>
      </trkpt>
      <trkpt lat="44.64389" lon="3.52334">
        <ele>1424</ele>
        <time>2009-07-06T13:38:07Z</time>
      </trkpt>
      <trkpt lat="44.64372" lon="3.52339">
        <ele>1426</ele>
        <time>2009-07-06T13:38:16Z</time>
      </trkpt>
      <trkpt lat="44.64354" lon="3.52358">
        <ele>1430</ele>
        <time>2009-07-06T13:38:27Z</time>
      </trkpt>
      <trkpt lat="44.64325" lon="3.52391">
        <ele>1432</ele>
        <time>2009-07-06T13:38:43Z</time>
      </trkpt>
      <trkpt lat="44.64319" lon="3.52401">
        <ele>1434</ele>
        <time>2009-07-06T13:38:47Z</time>
      </trkpt>
      <trkpt lat="44.64294" lon="3.52438">
        <ele>1437</ele>
        <time>2009-07-06T13:39:05Z</time>
      </trkpt>
      <trkpt lat="44.64299" lon="3.52464">
        <ele>1440</ele>
        <time>2009-07-06T13:39:17Z</time>
      </trkpt>
      <trkpt lat="44.64319" lon="3.52457">
        <ele>1443</ele>
        <time>2009-07-06T13:39:26Z</time>
      </trkpt>
      <trkpt lat="44.64353" lon="3.5244">
        <ele>1444</ele>
        <time>2009-07-06T13:39:42Z</time>
      </trkpt>
      <trkpt lat="44.64369" lon="3.52448">
        <ele>1447</ele>
        <time>2009-07-06T13:39:53Z</time>
      </trkpt>
      <trkpt lat="44.64361" lon="3.52471">
        <ele>1450</ele>
        <time>2009-07-06T13:40:02Z</time>
      </trkpt>
      <trkpt lat="44.6436" lon="3.52474">
        <ele>1450</ele>
        <time>2009-07-06T13:40:03Z</time>
      </trkpt>
      <trkpt lat="44.64339" lon="3.52514">
        <ele>1452</ele>
        <time>2009-07-06T13:40:19Z</time>
      </trkpt>
      <trkpt lat="44.64327" lon="3.52545">
        <ele>1456</ele>
        <time>2009-07-06T13:40:33Z</time>
      </trkpt>
      <trkpt lat="44.64327" lon="3.5255">
        <ele>1457</ele>
        <time>2009-07-06T13:40:35Z</time>
      </trkpt>
      <trkpt lat="44.6433" lon="3.52561">
        <ele>1458</ele>
        <time>2009-07-06T13:40:41Z</time>
      </trkpt>
      <trkpt lat="44.64356" lon="3.52558">
        <ele>1461</ele>
        <time>2009-07-06T13:40:54Z</time>
      </trkpt>
      <trkpt lat="44.64383" lon="3.52552">
        <ele>1464</ele>
        <time>2009-07-06T13:41:10Z</time>
      </trkpt>
      <trkpt lat="44.64411" lon="3.52536">
        <ele>1467</ele>
        <time>2009-07-06T13:41:25Z</time>
      </trkpt>
      <trkpt lat="44.64442" lon="3.52515">
        <ele>1468</ele>
        <time>2009-07-06T13:41:40Z</time>
      </trkpt>
      <trkpt lat="44.64474" lon="3.52528">
        <ele>1472</ele>
        <time>2009-07-06T13:41:52Z</time>
      </trkpt>
      <trkpt lat="44.64495" lon="3.52562">
        <ele>1475</ele>
        <time>2009-07-06T13:42:07Z</time>
      </trkpt>
      <trkpt lat="44.64498" lon="3.52597">
        <ele>1478</ele>
        <time>2009-07-06T13:42:19Z</time>
      </trkpt>
      <trkpt lat="44.645" lon="3.52628">
        <ele>1479</ele>
        <time>2009-07-06T13:42:29Z</time>
      </trkpt>
      <trkpt lat="44.64484" lon="3.52667">
        <ele>1481</ele>
        <time>2009-07-06T13:42:44Z</time>
      </trkpt>
      <trkpt lat="44.64481" lon="3.52676">
        <ele>1482</ele>
        <time>2009-07-06T13:42:47Z</time>
      </trkpt>
      <trkpt lat="44.64462" lon="3.52725">
        <ele>1485</ele>
        <time>2009-07-06T13:43:03Z</time>
      </trkpt>
      <trkpt lat="44.64473" lon="3.52761">
        <ele>1488</ele>
        <time>2009-07-06T13:43:16Z</time>
      </trkpt>
      <trkpt lat="44.64488" lon="3.52771">
        <ele>1491</ele>
        <time>2009-07-06T13:43:23Z</time>
      </trkpt>
      <trkpt lat="44.64514" lon="3.52787">
        <ele>1493</ele>
        <time>2009-07-06T13:43:37Z</time>
      </trkpt>
      <trkpt lat="44.64517" lon="3.52791">
        <ele>1493</ele>
        <time>2009-07-06T13:43:39Z</time>
      </trkpt>
      <trkpt lat="44.64515" lon="3.52837">
        <ele>1495</ele>
        <time>2009-07-06T13:43:55Z</time>
      </trkpt>
      <trkpt lat="44.64508" lon="3.52876">
        <ele>1499</ele>
        <time>2009-07-06T13:44:11Z</time>
      </trkpt>
      <trkpt lat="44.64508" lon="3.52882">
        <ele>1499</ele>
        <time>2009-07-06T13:44:13Z</time>
      </trkpt>
      <trkpt lat="44.64514" lon="3.52912">
        <ele>1502</ele>
        <time>2009-07-06T13:44:25Z</time>
      </trkpt>
      <trkpt lat="44.64531" lon="3.5294">
        <ele>1504</ele>
        <time>2009-07-06T13:44:38Z</time>
      </trkpt>
      <trkpt lat="44.64546" lon="3.52958">
        <ele>1506</ele>
        <time>2009-07-06T13:44:47Z</time>
      </trkpt>
      <trkpt lat="44.64573" lon="3.52978">
        <ele>1507</ele>
        <time>2009-07-06T13:45:01Z</time>
      </trkpt>
      <trkpt lat="44.64595" lon="3.53001">
        <ele>1510</ele>
        <time>2009-07-06T13:45:13Z</time>
      </trkpt>
      <trkpt lat="44.64609" lon="3.5303">
        <ele>1513</ele>
        <time>2009-07-06T13:45:24Z</time>
      </trkpt>
      <trkpt lat="44.64624" lon="3.53073">
        <ele>1516</ele>
        <time>2009-07-06T13:45:39Z</time>
      </trkpt>
      <trkpt lat="44.64626" lon="3.53123">
        <ele>1518</ele>
        <time>2009-07-06T13:45:54Z</time>
      </trkpt>
      <trkpt lat="44.64612" lon="3.53155">
        <ele>1521</ele>
        <time>2009-07-06T13:46:06Z</time>
      </trkpt>
      <trkpt lat="44.64582" lon="3.53197">
        <ele>1523</ele>
        <time>2009-07-06T13:46:23Z</time>
      </trkpt>
      <trkpt lat="44.64552" lon="3.53242">
        <ele>1526</ele>
        <time>2009-07-06T13:46:39Z</time>
      </trkpt>
      <trkpt lat="44.64534" lon="3.53301">
        <ele>1526</ele>
        <time>2009-07-06T13:46:55Z</time>
      </trkpt>
      <trkpt lat="44.6453" lon="3.53326">
        <ele>1526</ele>
        <time>2009-07-06T13:47:03Z</time>
      </trkpt>
      <trkpt lat="44.64527" lon="3.5334">
        <ele>1526</ele>
        <time>2009-07-06T13:47:13Z</time>
      </trkpt>
      <trkpt lat="44.64528" lon="3.53338">
        <ele>1526</ele>
        <time>2009-07-06T13:47:31Z</time>
      </trkpt>
      <trkpt lat="44.6453" lon="3.53337">
        <ele>1525</ele>
        <time>2009-07-06T13:48:08Z</time>
      </trkpt>
      <trkpt lat="44.64531" lon="3.53336">
        <ele>1526</ele>
        <time>2009-07-06T13:49:28Z</time>
      </trkpt>
      <trkpt lat="44.64506" lon="3.53311">
        <ele>1528</ele>
        <time>2009-07-06T13:49:41Z</time>
      </trkpt>
      <trkpt lat="44.64459" lon="3.53264">
        <ele>1530</ele>
        <time>2009-07-06T13:50:01Z</time>
      </trkpt>
      <trkpt lat="44.64417" lon="3.5323">
        <ele>1533</ele>
        <time>2009-07-06T13:50:18Z</time>
      </trkpt>
      <trkpt lat="44.64373" lon="3.53222">
        <ele>1536</ele>
        <time>2009-07-06T13:50:34Z</time>
      </trkpt>
      <trkpt lat="44.64328" lon="3.53216">
        <ele>1537</ele>
        <time>2009-07-06T13:50:50Z</time>
      </trkpt>
      <trkpt lat="44.64322" lon="3.53214">
        <ele>1540</ele>
        <time>2009-07-06T13:50:59Z</time>
      </trkpt>
      <trkpt lat="44.64322" lon="3.53214">
        <ele>1540</ele>
        <time>2009-07-06T13:51:02Z</time>
      </trkpt>
      <trkpt lat="44.64322" lon="3.53214">
        <ele>1537</ele>
        <time>2009-07-06T13:51:06Z</time>
      </trkpt>
      <trkpt lat="44.64322" lon="3.53214">
        <ele>1537</ele>
        <time>2009-07-06T13:51:35Z</time>
      </trkpt>
      <trkpt lat="44.64309" lon="3.53213">
        <ele>1538</ele>
        <time>2009-07-06T13:52:36Z</time>
      </trkpt>
      <trkpt lat="44.64299" lon="3.53209">
        <ele>1539</ele>
        <time>2009-07-06T13:52:42Z</time>
      </trkpt>
      <trkpt lat="44.64295" lon="3.53218">
        <ele>1539</ele>
        <time>2009-07-06T13:52:47Z</time>
      </trkpt>
      <trkpt lat="44.6428" lon="3.53244">
        <ele>1543</ele>
        <time>2009-07-06T13:53:00Z</time>
      </trkpt>
      <trkpt lat="44.64265" lon="3.5326">
        <ele>1545</ele>
        <time>2009-07-06T13:53:10Z</time>
      </trkpt>
      <trkpt lat="44.64258" lon="3.53265">
        <ele>1546</ele>
        <time>2009-07-06T13:53:15Z</time>
      </trkpt>
      <trkpt lat="44.64254" lon="3.53271">
        <ele>1546</ele>
        <time>2009-07-06T13:53:27Z</time>
      </trkpt>
      <trkpt lat="44.64255" lon="3.53273">
        <ele>1549</ele>
        <time>2009-07-06T14:00:48Z</time>
      </trkpt>
      <trkpt lat="44.64258" lon="3.53268">
        <ele>1550</ele>
        <time>2009-07-06T14:03:46Z</time>
      </trkpt>
      <trkpt lat="44.64259" lon="3.53265">
        <ele>1549</ele>
        <time>2009-07-06T14:04:41Z</time>
      </trkpt>
      <trkpt lat="44.6426" lon="3.53265">
        <ele>1549</ele>
        <time>2009-07-06T14:05:16Z</time>
      </trkpt>
      <trkpt lat="44.64261" lon="3.53266">
        <ele>1550</ele>
        <time>2009-07-06T14:06:03Z</time>
      </trkpt>
      <trkpt lat="44.64261" lon="3.53265">
        <ele>1550</ele>
        <time>2009-07-06T14:06:07Z</time>
      </trkpt>
      <trkpt lat="44.64268" lon="3.5326">
        <ele>1549</ele>
        <time>2009-07-06T14:06:20Z</time>
      </trkpt>
      <trkpt lat="44.64278" lon="3.53249">
        <ele>1546</ele>
        <time>2009-07-06T14:06:25Z</time>
      </trkpt>
      <trkpt lat="44.64289" lon="3.53231">
        <ele>1543</ele>
        <time>2009-07-06T14:06:30Z</time>
      </trkpt>
      <trkpt lat="44.64292" lon="3.53227">
        <ele>1543</ele>
        <time>2009-07-06T14:06:31Z</time>
      </trkpt>
      <trkpt lat="44.64301" lon="3.53214">
        <ele>1542</ele>
        <time>2009-07-06T14:06:35Z</time>
      </trkpt>
      <trkpt lat="44.64352" lon="3.5322">
        <ele>1542</ele>
        <time>2009-07-06T14:06:50Z</time>
      </trkpt>
      <trkpt lat="44.64407" lon="3.53228">
        <ele>1539</ele>
        <time>2009-07-06T14:07:01Z</time>
      </trkpt>
      <trkpt lat="44.64424" lon="3.53234">
        <ele>1536</ele>
        <time>2009-07-06T14:07:04Z</time>
      </trkpt>
      <trkpt lat="44.64485" lon="3.5329">
        <ele>1533</ele>
        <time>2009-07-06T14:07:14Z</time>
      </trkpt>
      <trkpt lat="44.64492" lon="3.53296">
        <ele>1533</ele>
        <time>2009-07-06T14:07:15Z</time>
      </trkpt>
      <trkpt lat="44.64528" lon="3.53331">
        <ele>1534</ele>
        <time>2009-07-06T14:07:23Z</time>
      </trkpt>
      <trkpt lat="44.64529" lon="3.53332">
        <ele>1534</ele>
        <time>2009-07-06T14:07:34Z</time>
      </trkpt>
      <trkpt lat="44.6453" lon="3.53327">
        <ele>1534</ele>
        <time>2009-07-06T14:08:12Z</time>
      </trkpt>
      <trkpt lat="44.64528" lon="3.53328">
        <ele>1534</ele>
        <time>2009-07-06T14:11:45Z</time>
      </trkpt>
      <trkpt lat="44.64529" lon="3.53331">
        <ele>1534</ele>
        <time>2009-07-06T14:12:06Z</time>
      </trkpt>
      <trkpt lat="44.6453" lon="3.5333">
        <ele>1534</ele>
        <time>2009-07-06T14:12:39Z</time>
      </trkpt>
      <trkpt lat="44.6453" lon="3.53336">
        <ele>1534</ele>
        <time>2009-07-06T14:13:18Z</time>
      </trkpt>
      <trkpt lat="44.64535" lon="3.53343">
        <ele>1534</ele>
        <time>2009-07-06T14:13:24Z</time>
      </trkpt>
      <trkpt lat="44.64547" lon="3.53354">
        <ele>1534</ele>
        <time>2009-07-06T14:13:31Z</time>
      </trkpt>
      <trkpt lat="44.646" lon="3.53402">
        <ele>1534</ele>
        <time>2009-07-06T14:13:49Z</time>
      </trkpt>
      <trkpt lat="44.64648" lon="3.53427">
        <ele>1534</ele>
        <time>2009-07-06T14:14:03Z</time>
      </trkpt>
      <trkpt lat="44.64726" lon="3.53464">
        <ele>1532</ele>
        <time>2009-07-06T14:14:23Z</time>
      </trkpt>
      <trkpt lat="44.64738" lon="3.5347">
        <ele>1530</ele>
        <time>2009-07-06T14:14:25Z</time>
      </trkpt>
      <trkpt lat="44.64766" lon="3.53482">
        <ele>1527</ele>
        <time>2009-07-06T14:14:29Z</time>
      </trkpt>
      <trkpt lat="44.64782" lon="3.5349">
        <ele>1526</ele>
        <time>2009-07-06T14:14:31Z</time>
      </trkpt>
      <trkpt lat="44.648" lon="3.53499">
        <ele>1522</ele>
        <time>2009-07-06T14:14:33Z</time>
      </trkpt>
      <trkpt lat="44.64832" lon="3.53514">
        <ele>1514</ele>
        <time>2009-07-06T14:14:36Z</time>
      </trkpt>
      <trkpt lat="44.64862" lon="3.53529">
        <ele>1514</ele>
        <time>2009-07-06T14:14:39Z</time>
      </trkpt>
      <trkpt lat="44.64915" lon="3.53593">
        <ele>1513</ele>
        <time>2009-07-06T14:14:46Z</time>
      </trkpt>
      <trkpt lat="44.64939" lon="3.53615">
        <ele>1514</ele>
        <time>2009-07-06T14:14:49Z</time>
      </trkpt>
      <trkpt lat="44.64955" lon="3.53655">
        <ele>1514</ele>
        <time>2009-07-06T14:14:55Z</time>
      </trkpt>
      <trkpt lat="44.64959" lon="3.53665">
        <ele>1514</ele>
        <time>2009-07-06T14:14:57Z</time>
      </trkpt>
      <trkpt lat="44.64968" lon="3.537">
        <ele>1514</ele>
        <time>2009-07-06T14:15:03Z</time>
      </trkpt>
      <trkpt lat="44.64983" lon="3.53741">
        <ele>1513</ele>
        <time>2009-07-06T14:15:10Z</time>
      </trkpt>
      <trkpt lat="44.65003" lon="3.53772">
        <ele>1509</ele>
        <time>2009-07-06T14:15:15Z</time>
      </trkpt>
      <trkpt lat="44.65013" lon="3.53796">
        <ele>1508</ele>
        <time>2009-07-06T14:15:18Z</time>
      </trkpt>
      <trkpt lat="44.65014" lon="3.53841">
        <ele>1504</ele>
        <time>2009-07-06T14:15:23Z</time>
      </trkpt>
      <trkpt lat="44.65007" lon="3.53845">
        <ele>1504</ele>
        <time>2009-07-06T14:15:24Z</time>
      </trkpt>
      <trkpt lat="44.64997" lon="3.5386">
        <ele>1503</ele>
        <time>2009-07-06T14:15:26Z</time>
      </trkpt>
      <trkpt lat="44.64975" lon="3.53889">
        <ele>1501</ele>
        <time>2009-07-06T14:15:30Z</time>
      </trkpt>
      <trkpt lat="44.6493" lon="3.53944">
        <ele>1497</ele>
        <time>2009-07-06T14:15:37Z</time>
      </trkpt>
      <trkpt lat="44.64894" lon="3.53988">
        <ele>1496</ele>
        <time>2009-07-06T14:15:44Z</time>
      </trkpt>
      <trkpt lat="44.64873" lon="3.54009">
        <ele>1497</ele>
        <time>2009-07-06T14:15:48Z</time>
      </trkpt>
      <trkpt lat="44.64803" lon="3.54048">
        <ele>1500</ele>
        <time>2009-07-06T14:16:04Z</time>
      </trkpt>
      <trkpt lat="44.64798" lon="3.54052">
        <ele>1499</ele>
        <time>2009-07-06T14:16:05Z</time>
      </trkpt>
      <trkpt lat="44.64789" lon="3.54056">
        <ele>1500</ele>
        <time>2009-07-06T14:16:07Z</time>
      </trkpt>
      <trkpt lat="44.64751" lon="3.54053">
        <ele>1502</ele>
        <time>2009-07-06T14:16:16Z</time>
      </trkpt>
      <trkpt lat="44.64718" lon="3.54041">
        <ele>1500</ele>
        <time>2009-07-06T14:16:23Z</time>
      </trkpt>
      <trkpt lat="44.64712" lon="3.54039">
        <ele>1499</ele>
        <time>2009-07-06T14:16:24Z</time>
      </trkpt>
      <trkpt lat="44.64641" lon="3.54017">
        <ele>1496</ele>
        <time>2009-07-06T14:16:36Z</time>
      </trkpt>
      <trkpt lat="44.64594" lon="3.53994">
        <ele>1495</ele>
        <time>2009-07-06T14:16:45Z</time>
      </trkpt>
      <trkpt lat="44.64579" lon="3.53986">
        <ele>1495</ele>
        <time>2009-07-06T14:16:48Z</time>
      </trkpt>
      <trkpt lat="44.64499" lon="3.53946">
        <ele>1494</ele>
        <time>2009-07-06T14:17:02Z</time>
      </trkpt>
      <trkpt lat="44.64487" lon="3.53939">
        <ele>1493</ele>
        <time>2009-07-06T14:17:04Z</time>
      </trkpt>
      <trkpt lat="44.64465" lon="3.5392">
        <ele>1492</ele>
        <time>2009-07-06T14:17:08Z</time>
      </trkpt>
      <trkpt lat="44.64444" lon="3.53891">
        <ele>1492</ele>
        <time>2009-07-06T14:17:13Z</time>
      </trkpt>
      <trkpt lat="44.64416" lon="3.5386">
        <ele>1490</ele>
        <time>2009-07-06T14:17:19Z</time>
      </trkpt>
      <trkpt lat="44.64393" lon="3.53851">
        <ele>1489</ele>
        <time>2009-07-06T14:17:23Z</time>
      </trkpt>
      <trkpt lat="44.64379" lon="3.53855">
        <ele>1486</ele>
        <time>2009-07-06T14:17:26Z</time>
      </trkpt>
      <trkpt lat="44.64375" lon="3.53871">
        <ele>1485</ele>
        <time>2009-07-06T14:17:28Z</time>
      </trkpt>
      <trkpt lat="44.64369" lon="3.53916">
        <ele>1482</ele>
        <time>2009-07-06T14:17:32Z</time>
      </trkpt>
      <trkpt lat="44.64363" lon="3.53935">
        <ele>1481</ele>
        <time>2009-07-06T14:17:34Z</time>
      </trkpt>
      <trkpt lat="44.64362" lon="3.53956">
        <ele>1480</ele>
        <time>2009-07-06T14:17:36Z</time>
      </trkpt>
      <trkpt lat="44.64362" lon="3.53977">
        <ele>1479</ele>
        <time>2009-07-06T14:17:38Z</time>
      </trkpt>
      <trkpt lat="44.64368" lon="3.54043">
        <ele>1476</ele>
        <time>2009-07-06T14:17:44Z</time>
      </trkpt>
      <trkpt lat="44.64364" lon="3.54068">
        <ele>1473</ele>
        <time>2009-07-06T14:17:47Z</time>
      </trkpt>
      <trkpt lat="44.6436" lon="3.54083">
        <ele>1471</ele>
        <time>2009-07-06T14:17:49Z</time>
      </trkpt>
      <trkpt lat="44.64336" lon="3.54101">
        <ele>1468</ele>
        <time>2009-07-06T14:17:53Z</time>
      </trkpt>
      <trkpt lat="44.6432" lon="3.54105">
        <ele>1466</ele>
        <time>2009-07-06T14:17:55Z</time>
      </trkpt>
      <trkpt lat="44.64312" lon="3.54108">
        <ele>1466</ele>
        <time>2009-07-06T14:17:56Z</time>
      </trkpt>
      <trkpt lat="44.64296" lon="3.54112">
        <ele>1465</ele>
        <time>2009-07-06T14:17:58Z</time>
      </trkpt>
      <trkpt lat="44.64249" lon="3.54112">
        <ele>1464</ele>
        <time>2009-07-06T14:18:04Z</time>
      </trkpt>
      <trkpt lat="44.64226" lon="3.5412">
        <ele>1462</ele>
        <time>2009-07-06T14:18:07Z</time>
      </trkpt>
      <trkpt lat="44.6418" lon="3.54154">
        <ele>1458</ele>
        <time>2009-07-06T14:18:14Z</time>
      </trkpt>
      <trkpt lat="44.64173" lon="3.54159">
        <ele>1457</ele>
        <time>2009-07-06T14:18:15Z</time>
      </trkpt>
      <trkpt lat="44.64148" lon="3.54167">
        <ele>1456</ele>
        <time>2009-07-06T14:18:18Z</time>
      </trkpt>
      <trkpt lat="44.6414" lon="3.54166">
        <ele>1456</ele>
        <time>2009-07-06T14:18:19Z</time>
      </trkpt>
      <trkpt lat="44.64109" lon="3.54155">
        <ele>1453</ele>
        <time>2009-07-06T14:18:23Z</time>
      </trkpt>
      <trkpt lat="44.6408" lon="3.54164">
        <ele>1451</ele>
        <time>2009-07-06T14:18:27Z</time>
      </trkpt>
      <trkpt lat="44.64033" lon="3.5423">
        <ele>1446</ele>
        <time>2009-07-06T14:18:34Z</time>
      </trkpt>
      <trkpt lat="44.64013" lon="3.54254">
        <ele>1447</ele>
        <time>2009-07-06T14:18:37Z</time>
      </trkpt>
      <trkpt lat="44.63997" lon="3.54277">
        <ele>1447</ele>
        <time>2009-07-06T14:18:45Z</time>
      </trkpt>
      <trkpt lat="44.63992" lon="3.54281">
        <ele>1448</ele>
        <time>2009-07-06T14:18:47Z</time>
      </trkpt>
      <trkpt lat="44.63979" lon="3.54298">
        <ele>1447</ele>
        <time>2009-07-06T14:18:53Z</time>
      </trkpt>
      <trkpt lat="44.63966" lon="3.54345">
        <ele>1446</ele>
        <time>2009-07-06T14:19:00Z</time>
      </trkpt>
      <trkpt lat="44.63955" lon="3.54382">
        <ele>1446</ele>
        <time>2009-07-06T14:19:05Z</time>
      </trkpt>
      <trkpt lat="44.63948" lon="3.54405">
        <ele>1445</ele>
        <time>2009-07-06T14:19:08Z</time>
      </trkpt>
      <trkpt lat="44.63935" lon="3.54452">
        <ele>1443</ele>
        <time>2009-07-06T14:19:14Z</time>
      </trkpt>
      <trkpt lat="44.63924" lon="3.54508">
        <ele>1441</ele>
        <time>2009-07-06T14:19:20Z</time>
      </trkpt>
      <trkpt lat="44.63908" lon="3.54574">
        <ele>1440</ele>
        <time>2009-07-06T14:19:27Z</time>
      </trkpt>
      <trkpt lat="44.63897" lon="3.54669">
        <ele>1440</ele>
        <time>2009-07-06T14:19:37Z</time>
      </trkpt>
      <trkpt lat="44.63887" lon="3.54707">
        <ele>1439</ele>
        <time>2009-07-06T14:19:41Z</time>
      </trkpt>
      <trkpt lat="44.6386" lon="3.54791">
        <ele>1441</ele>
        <time>2009-07-06T14:19:51Z</time>
      </trkpt>
      <trkpt lat="44.63854" lon="3.54841">
        <ele>1442</ele>
        <time>2009-07-06T14:19:58Z</time>
      </trkpt>
      <trkpt lat="44.6386" lon="3.54914">
        <ele>1444</ele>
        <time>2009-07-06T14:20:11Z</time>
      </trkpt>
      <trkpt lat="44.63866" lon="3.54953">
        <ele>1445</ele>
        <time>2009-07-06T14:20:18Z</time>
      </trkpt>
      <trkpt lat="44.63873" lon="3.54986">
        <ele>1444</ele>
        <time>2009-07-06T14:20:24Z</time>
      </trkpt>
      <trkpt lat="44.63875" lon="3.55006">
        <ele>1445</ele>
        <time>2009-07-06T14:20:27Z</time>
      </trkpt>
      <trkpt lat="44.63856" lon="3.55055">
        <ele>1441</ele>
        <time>2009-07-06T14:20:35Z</time>
      </trkpt>
      <trkpt lat="44.63849" lon="3.55109">
        <ele>1437</ele>
        <time>2009-07-06T14:20:42Z</time>
      </trkpt>
      <trkpt lat="44.63854" lon="3.55115">
        <ele>1437</ele>
        <time>2009-07-06T14:20:43Z</time>
      </trkpt>
      <trkpt lat="44.63875" lon="3.5516">
        <ele>1431</ele>
        <time>2009-07-06T14:20:48Z</time>
      </trkpt>
      <trkpt lat="44.63884" lon="3.55182">
        <ele>1431</ele>
        <time>2009-07-06T14:20:50Z</time>
      </trkpt>
      <trkpt lat="44.63918" lon="3.55238">
        <ele>1428</ele>
        <time>2009-07-06T14:20:56Z</time>
      </trkpt>
      <trkpt lat="44.63929" lon="3.55282">
        <ele>1424</ele>
        <time>2009-07-06T14:21:00Z</time>
      </trkpt>
      <trkpt lat="44.63911" lon="3.55315">
        <ele>1422</ele>
        <time>2009-07-06T14:21:04Z</time>
      </trkpt>
      <trkpt lat="44.63895" lon="3.55329">
        <ele>1419</ele>
        <time>2009-07-06T14:21:07Z</time>
      </trkpt>
      <trkpt lat="44.63886" lon="3.55343">
        <ele>1419</ele>
        <time>2009-07-06T14:21:09Z</time>
      </trkpt>
      <trkpt lat="44.63876" lon="3.55367">
        <ele>1418</ele>
        <time>2009-07-06T14:21:12Z</time>
      </trkpt>
      <trkpt lat="44.63868" lon="3.55416">
        <ele>1413</ele>
        <time>2009-07-06T14:21:16Z</time>
      </trkpt>
      <trkpt lat="44.63855" lon="3.55473">
        <ele>1411</ele>
        <time>2009-07-06T14:21:21Z</time>
      </trkpt>
      <trkpt lat="44.6386" lon="3.55526">
        <ele>1407</ele>
        <time>2009-07-06T14:21:26Z</time>
      </trkpt>
      <trkpt lat="44.6386" lon="3.55538">
        <ele>1407</ele>
        <time>2009-07-06T14:21:27Z</time>
      </trkpt>
      <trkpt lat="44.63862" lon="3.55561">
        <ele>1407</ele>
        <time>2009-07-06T14:21:29Z</time>
      </trkpt>
      <trkpt lat="44.63871" lon="3.55602">
        <ele>1405</ele>
        <time>2009-07-06T14:21:33Z</time>
      </trkpt>
      <trkpt lat="44.63887" lon="3.55641">
        <ele>1401</ele>
        <time>2009-07-06T14:21:37Z</time>
      </trkpt>
      <trkpt lat="44.63894" lon="3.55659">
        <ele>1400</ele>
        <time>2009-07-06T14:21:39Z</time>
      </trkpt>
      <trkpt lat="44.63907" lon="3.55707">
        <ele>1398</ele>
        <time>2009-07-06T14:21:44Z</time>
      </trkpt>
      <trkpt lat="44.63903" lon="3.55761">
        <ele>1396</ele>
        <time>2009-07-06T14:21:50Z</time>
      </trkpt>
      <trkpt lat="44.63897" lon="3.55783">
        <ele>1394</ele>
        <time>2009-07-06T14:21:53Z</time>
      </trkpt>
      <trkpt lat="44.63884" lon="3.55817">
        <ele>1392</ele>
        <time>2009-07-06T14:21:57Z</time>
      </trkpt>
      <trkpt lat="44.63871" lon="3.55853">
        <ele>1390</ele>
        <time>2009-07-06T14:22:01Z</time>
      </trkpt>
      <trkpt lat="44.63867" lon="3.55862">
        <ele>1389</ele>
        <time>2009-07-06T14:22:02Z</time>
      </trkpt>
      <trkpt lat="44.63859" lon="3.55877">
        <ele>1389</ele>
        <time>2009-07-06T14:22:04Z</time>
      </trkpt>
      <trkpt lat="44.63831" lon="3.5591">
        <ele>1385</ele>
        <time>2009-07-06T14:22:09Z</time>
      </trkpt>
      <trkpt lat="44.63817" lon="3.55919">
        <ele>1386</ele>
        <time>2009-07-06T14:22:11Z</time>
      </trkpt>
      <trkpt lat="44.63799" lon="3.55941">
        <ele>1382</ele>
        <time>2009-07-06T14:22:14Z</time>
      </trkpt>
      <trkpt lat="44.63787" lon="3.55951">
        <ele>1382</ele>
        <time>2009-07-06T14:22:16Z</time>
      </trkpt>
      <trkpt lat="44.63768" lon="3.5597">
        <ele>1381</ele>
        <time>2009-07-06T14:22:19Z</time>
      </trkpt>
      <trkpt lat="44.63729" lon="3.56004">
        <ele>1379</ele>
        <time>2009-07-06T14:22:26Z</time>
      </trkpt>
      <trkpt lat="44.63703" lon="3.56017">
        <ele>1378</ele>
        <time>2009-07-06T14:22:31Z</time>
      </trkpt>
      <trkpt lat="44.63686" lon="3.56025">
        <ele>1376</ele>
        <time>2009-07-06T14:22:34Z</time>
      </trkpt>
      <trkpt lat="44.63674" lon="3.5603">
        <ele>1375</ele>
        <time>2009-07-06T14:22:36Z</time>
      </trkpt>
      <trkpt lat="44.63669" lon="3.56033">
        <ele>1374</ele>
        <time>2009-07-06T14:22:37Z</time>
      </trkpt>
      <trkpt lat="44.63659" lon="3.56037">
        <ele>1373</ele>
        <time>2009-07-06T14:22:39Z</time>
      </trkpt>
      <trkpt lat="44.63638" lon="3.56052">
        <ele>1373</ele>
        <time>2009-07-06T14:22:47Z</time>
      </trkpt>
      <trkpt lat="44.63639" lon="3.56055">
        <ele>1373</ele>
        <time>2009-07-06T14:23:03Z</time>
      </trkpt>
      <trkpt lat="44.63646" lon="3.56053">
        <ele>1374</ele>
        <time>2009-07-06T14:23:20Z</time>
      </trkpt>
      <trkpt lat="44.63649" lon="3.56052">
        <ele>1374</ele>
        <time>2009-07-06T14:23:54Z</time>
      </trkpt>
      <trkpt lat="44.63647" lon="3.56054">
        <ele>1374</ele>
        <time>2009-07-06T14:24:25Z</time>
      </trkpt>
      <trkpt lat="44.63647" lon="3.56057">
        <ele>1374</ele>
        <time>2009-07-06T14:24:45Z</time>
      </trkpt>
      <trkpt lat="44.63648" lon="3.56058">
        <ele>1373</ele>
        <time>2009-07-06T14:24:50Z</time>
      </trkpt>
      <trkpt lat="44.63649" lon="3.5606">
        <ele>1372</ele>
        <time>2009-07-06T14:25:27Z</time>
      </trkpt>
      <trkpt lat="44.63653" lon="3.56057">
        <ele>1373</ele>
        <time>2009-07-06T14:26:05Z</time>
      </trkpt>
      <trkpt lat="44.63655" lon="3.56055">
        <ele>1372</ele>
        <time>2009-07-06T14:26:28Z</time>
      </trkpt>
      <trkpt lat="44.63652" lon="3.56058">
        <ele>1374</ele>
        <time>2009-07-06T14:27:09Z</time>
      </trkpt>
      <trkpt lat="44.63653" lon="3.56057">
        <ele>1375</ele>
        <time>2009-07-06T14:27:40Z</time>
      </trkpt>
      <trkpt lat="44.63653" lon="3.56057">
        <ele>1374</ele>
        <time>2009-07-06T14:29:09Z</time>
      </trkpt>
      <trkpt lat="44.63653" lon="3.56052">
        <ele>1376</ele>
        <time>2009-07-06T14:29:50Z</time>
      </trkpt>
      <trkpt lat="44.63653" lon="3.56048">
        <ele>1376</ele>
        <time>2009-07-06T14:29:59Z</time>
      </trkpt>
      <trkpt lat="44.63654" lon="3.56048">
        <ele>1375</ele>
        <time>2009-07-06T14:30:07Z</time>
      </trkpt>
      <trkpt lat="44.63654" lon="3.5605">
        <ele>1375</ele>
        <time>2009-07-06T14:30:43Z</time>
      </trkpt>
      <trkpt lat="44.63652" lon="3.56054">
        <ele>1375</ele>
        <time>2009-07-06T14:30:59Z</time>
      </trkpt>
      <trkpt lat="44.6365" lon="3.56052">
        <ele>1376</ele>
        <time>2009-07-06T14:31:21Z</time>
      </trkpt>
      <trkpt lat="44.63648" lon="3.56052">
        <ele>1375</ele>
        <time>2009-07-06T14:31:57Z</time>
      </trkpt>
      <trkpt lat="44.63647" lon="3.56047">
        <ele>1374</ele>
        <time>2009-07-06T14:32:13Z</time>
      </trkpt>
      <trkpt lat="44.63645" lon="3.56046">
        <ele>1373</ele>
        <time>2009-07-06T14:32:55Z</time>
      </trkpt>
      <trkpt lat="44.63636" lon="3.56053">
        <ele>1373</ele>
        <time>2009-07-06T14:33:27Z</time>
      </trkpt>
      <trkpt lat="44.6364" lon="3.56042">
        <ele>1373</ele>
        <time>2009-07-06T14:34:02Z</time>
      </trkpt>
      <trkpt lat="44.63644" lon="3.56045">
        <ele>1373</ele>
        <time>2009-07-06T14:34:32Z</time>
      </trkpt>
      <trkpt lat="44.63644" lon="3.56043">
        <ele>1375</ele>
        <time>2009-07-06T14:35:12Z</time>
      </trkpt>
      <trkpt lat="44.63647" lon="3.56043">
        <ele>1374</ele>
        <time>2009-07-06T14:35:29Z</time>
      </trkpt>
      <trkpt lat="44.63648" lon="3.56044">
        <ele>1374</ele>
        <time>2009-07-06T14:35:53Z</time>
      </trkpt>
      <trkpt lat="44.63646" lon="3.56044">
        <ele>1375</ele>
        <time>2009-07-06T14:36:29Z</time>
      </trkpt>
      <trkpt lat="44.63649" lon="3.56046">
        <ele>1375</ele>
        <time>2009-07-06T14:37:05Z</time>
      </trkpt>
      <trkpt lat="44.6365" lon="3.56047">
        <ele>1375</ele>
        <time>2009-07-06T14:37:33Z</time>
      </trkpt>
      <trkpt lat="44.6365" lon="3.56047">
        <ele>1375</ele>
        <time>2009-07-06T14:37:45Z</time>
      </trkpt>
      <trkpt lat="44.63651" lon="3.56052">
        <ele>1374</ele>
        <time>2009-07-06T14:37:48Z</time>
      </trkpt>
      <trkpt lat="44.63656" lon="3.56075">
        <ele>1375</ele>
        <time>2009-07-06T14:37:59Z</time>
      </trkpt>
      <trkpt lat="44.6368" lon="3.56126">
        <ele>1375</ele>
        <time>2009-07-06T14:38:13Z</time>
      </trkpt>
      <trkpt lat="44.63712" lon="3.56195">
        <ele>1374</ele>
        <time>2009-07-06T14:38:28Z</time>
      </trkpt>
      <trkpt lat="44.63717" lon="3.56203">
        <ele>1373</ele>
        <time>2009-07-06T14:38:30Z</time>
      </trkpt>
      <trkpt lat="44.63729" lon="3.56233">
        <ele>1372</ele>
        <time>2009-07-06T14:38:36Z</time>
      </trkpt>
      <trkpt lat="44.63751" lon="3.56277">
        <ele>1368</ele>
        <time>2009-07-06T14:38:45Z</time>
      </trkpt>
      <trkpt lat="44.63775" lon="3.56317">
        <ele>1365</ele>
        <time>2009-07-06T14:38:52Z</time>
      </trkpt>
      <trkpt lat="44.63802" lon="3.5637">
        <ele>1363</ele>
        <time>2009-07-06T14:39:03Z</time>
      </trkpt>
      <trkpt lat="44.63807" lon="3.56382">
        <ele>1361</ele>
        <time>2009-07-06T14:39:06Z</time>
      </trkpt>
      <trkpt lat="44.63816" lon="3.5641">
        <ele>1358</ele>
        <time>2009-07-06T14:39:14Z</time>
      </trkpt>
      <trkpt lat="44.63832" lon="3.56444">
        <ele>1358</ele>
        <time>2009-07-06T14:39:25Z</time>
      </trkpt>
      <trkpt lat="44.63848" lon="3.5646">
        <ele>1357</ele>
        <time>2009-07-06T14:39:41Z</time>
      </trkpt>
      <trkpt lat="44.63852" lon="3.56464">
        <ele>1357</ele>
        <time>2009-07-06T14:39:54Z</time>
      </trkpt>
      <trkpt lat="44.63859" lon="3.56469">
        <ele>1357</ele>
        <time>2009-07-06T14:40:08Z</time>
      </trkpt>
      <trkpt lat="44.63859" lon="3.56469">
        <ele>1356</ele>
        <time>2009-07-06T14:40:12Z</time>
      </trkpt>
      <trkpt lat="44.63861" lon="3.5647">
        <ele>1357</ele>
        <time>2009-07-06T14:40:29Z</time>
      </trkpt>
      <trkpt lat="44.63862" lon="3.56469">
        <ele>1356</ele>
        <time>2009-07-06T14:40:42Z</time>
      </trkpt>
      <trkpt lat="44.63867" lon="3.5647">
        <ele>1356</ele>
        <time>2009-07-06T14:40:57Z</time>
      </trkpt>
      <trkpt lat="44.63868" lon="3.56475">
        <ele>1357</ele>
        <time>2009-07-06T14:41:10Z</time>
      </trkpt>
      <trkpt lat="44.63874" lon="3.56478">
        <ele>1357</ele>
        <time>2009-07-06T14:41:26Z</time>
      </trkpt>
      <trkpt lat="44.6388" lon="3.56485">
        <ele>1359</ele>
        <time>2009-07-06T14:41:37Z</time>
      </trkpt>
      <trkpt lat="44.63891" lon="3.56492">
        <ele>1358</ele>
        <time>2009-07-06T14:41:50Z</time>
      </trkpt>
      <trkpt lat="44.63894" lon="3.56496">
        <ele>1359</ele>
        <time>2009-07-06T14:41:57Z</time>
      </trkpt>
      <trkpt lat="44.63895" lon="3.56503">
        <ele>1359</ele>
        <time>2009-07-06T14:42:02Z</time>
      </trkpt>
      <trkpt lat="44.63902" lon="3.56504">
        <ele>1359</ele>
        <time>2009-07-06T14:42:14Z</time>
      </trkpt>
      <trkpt lat="44.63905" lon="3.56501">
        <ele>1359</ele>
        <time>2009-07-06T14:42:38Z</time>
      </trkpt>
      <trkpt lat="44.63907" lon="3.56499">
        <ele>1358</ele>
        <time>2009-07-06T14:43:19Z</time>
      </trkpt>
      <trkpt lat="44.63911" lon="3.56492">
        <ele>1358</ele>
        <time>2009-07-06T14:43:23Z</time>
      </trkpt>
      <trkpt lat="44.63947" lon="3.56425">
        <ele>1360</ele>
        <time>2009-07-06T14:43:44Z</time>
      </trkpt>
      <trkpt lat="44.63977" lon="3.56384">
        <ele>1363</ele>
        <time>2009-07-06T14:43:58Z</time>
      </trkpt>
      <trkpt lat="44.63981" lon="3.56379">
        <ele>1364</ele>
        <time>2009-07-06T14:44:00Z</time>
      </trkpt>
      <trkpt lat="44.6402" lon="3.56345">
        <ele>1368</ele>
        <time>2009-07-06T14:44:17Z</time>
      </trkpt>
      <trkpt lat="44.64055" lon="3.56325">
        <ele>1371</ele>
        <time>2009-07-06T14:44:33Z</time>
      </trkpt>
      <trkpt lat="44.64089" lon="3.56313">
        <ele>1374</ele>
        <time>2009-07-06T14:44:48Z</time>
      </trkpt>
      <trkpt lat="44.64091" lon="3.56313">
        <ele>1374</ele>
        <time>2009-07-06T14:44:49Z</time>
      </trkpt>
      <trkpt lat="44.64134" lon="3.56297">
        <ele>1377</ele>
        <time>2009-07-06T14:45:06Z</time>
      </trkpt>
      <trkpt lat="44.64186" lon="3.56287">
        <ele>1379</ele>
        <time>2009-07-06T14:45:25Z</time>
      </trkpt>
      <trkpt lat="44.64252" lon="3.56284">
        <ele>1381</ele>
        <time>2009-07-06T14:45:48Z</time>
      </trkpt>
      <trkpt lat="44.64313" lon="3.56281">
        <ele>1384</ele>
        <time>2009-07-06T14:46:09Z</time>
      </trkpt>
      <trkpt lat="44.64385" lon="3.56279">
        <ele>1387</ele>
        <time>2009-07-06T14:46:33Z</time>
      </trkpt>
      <trkpt lat="44.64436" lon="3.56277">
        <ele>1390</ele>
        <time>2009-07-06T14:46:50Z</time>
      </trkpt>
      <trkpt lat="44.64456" lon="3.56277">
        <ele>1392</ele>
        <time>2009-07-06T14:46:57Z</time>
      </trkpt>
      <trkpt lat="44.64482" lon="3.56276">
        <ele>1392</ele>
        <time>2009-07-06T14:47:06Z</time>
      </trkpt>
      <trkpt lat="44.64536" lon="3.56277">
        <ele>1395</ele>
        <time>2009-07-06T14:47:25Z</time>
      </trkpt>
      <trkpt lat="44.64576" lon="3.56278">
        <ele>1399</ele>
        <time>2009-07-06T14:47:40Z</time>
      </trkpt>
      <trkpt lat="44.64626" lon="3.56281">
        <ele>1402</ele>
        <time>2009-07-06T14:47:58Z</time>
      </trkpt>
      <trkpt lat="44.64692" lon="3.56284">
        <ele>1404</ele>
        <time>2009-07-06T14:48:20Z</time>
      </trkpt>
      <trkpt lat="44.6476" lon="3.56281">
        <ele>1405</ele>
        <time>2009-07-06T14:48:42Z</time>
      </trkpt>
      <trkpt lat="44.64812" lon="3.56278">
        <ele>1406</ele>
        <time>2009-07-06T14:48:57Z</time>
      </trkpt>
      <trkpt lat="44.64879" lon="3.5628">
        <ele>1408</ele>
        <time>2009-07-06T14:49:16Z</time>
      </trkpt>
      <trkpt lat="44.64951" lon="3.56289">
        <ele>1408</ele>
        <time>2009-07-06T14:49:37Z</time>
      </trkpt>
      <trkpt lat="44.65029" lon="3.56298">
        <ele>1410</ele>
        <time>2009-07-06T14:49:59Z</time>
      </trkpt>
      <trkpt lat="44.65067" lon="3.56302">
        <ele>1412</ele>
        <time>2009-07-06T14:50:10Z</time>
      </trkpt>
      <trkpt lat="44.65126" lon="3.56307">
        <ele>1415</ele>
        <time>2009-07-06T14:50:27Z</time>
      </trkpt>
      <trkpt lat="44.65162" lon="3.56312">
        <ele>1415</ele>
        <time>2009-07-06T14:50:37Z</time>
      </trkpt>
      <trkpt lat="44.6521" lon="3.56322">
        <ele>1415</ele>
        <time>2009-07-06T14:50:50Z</time>
      </trkpt>
      <trkpt lat="44.65261" lon="3.56334">
        <ele>1415</ele>
        <time>2009-07-06T14:51:04Z</time>
      </trkpt>
      <trkpt lat="44.65287" lon="3.56336">
        <ele>1412</ele>
        <time>2009-07-06T14:51:09Z</time>
      </trkpt>
      <trkpt lat="44.65294" lon="3.56336">
        <ele>1413</ele>
        <time>2009-07-06T14:51:10Z</time>
      </trkpt>
      <trkpt lat="44.65332" lon="3.56346">
        <ele>1410</ele>
        <time>2009-07-06T14:51:17Z</time>
      </trkpt>
      <trkpt lat="44.65384" lon="3.56354">
        <ele>1408</ele>
        <time>2009-07-06T14:51:25Z</time>
      </trkpt>
      <trkpt lat="44.654" lon="3.56358">
        <ele>1410</ele>
        <time>2009-07-06T14:51:28Z</time>
      </trkpt>
      <trkpt lat="44.65433" lon="3.5637">
        <ele>1413</ele>
        <time>2009-07-06T14:51:37Z</time>
      </trkpt>
      <trkpt lat="44.65439" lon="3.56371">
        <ele>1414</ele>
        <time>2009-07-06T14:51:39Z</time>
      </trkpt>
      <trkpt lat="44.65476" lon="3.5638">
        <ele>1418</ele>
        <time>2009-07-06T14:51:54Z</time>
      </trkpt>
      <trkpt lat="44.65478" lon="3.56381">
        <ele>1418</ele>
        <time>2009-07-06T14:51:55Z</time>
      </trkpt>
      <trkpt lat="44.65508" lon="3.56387">
        <ele>1420</ele>
        <time>2009-07-06T14:52:11Z</time>
      </trkpt>
      <trkpt lat="44.65526" lon="3.56391">
        <ele>1422</ele>
        <time>2009-07-06T14:52:24Z</time>
      </trkpt>
      <trkpt lat="44.65558" lon="3.56402">
        <ele>1422</ele>
        <time>2009-07-06T14:52:37Z</time>
      </trkpt>
      <trkpt lat="44.65595" lon="3.56417">
        <ele>1422</ele>
        <time>2009-07-06T14:52:51Z</time>
      </trkpt>
      <trkpt lat="44.65605" lon="3.56423">
        <ele>1424</ele>
        <time>2009-07-06T14:53:03Z</time>
      </trkpt>
      <trkpt lat="44.65606" lon="3.56422">
        <ele>1422</ele>
        <time>2009-07-06T14:53:13Z</time>
      </trkpt>
      <trkpt lat="44.65606" lon="3.56422">
        <ele>1423</ele>
        <time>2009-07-06T14:53:50Z</time>
      </trkpt>
      <trkpt lat="44.65605" lon="3.56422">
        <ele>1424</ele>
        <time>2009-07-06T14:55:27Z</time>
      </trkpt>
      <trkpt lat="44.65606" lon="3.56422">
        <ele>1423</ele>
        <time>2009-07-06T14:55:57Z</time>
      </trkpt>
      <trkpt lat="44.65608" lon="3.56421">
        <ele>1423</ele>
        <time>2009-07-06T14:56:43Z</time>
      </trkpt>
      <trkpt lat="44.65628" lon="3.56434">
        <ele>1421</ele>
        <time>2009-07-06T14:56:58Z</time>
      </trkpt>
      <trkpt lat="44.65654" lon="3.56449">
        <ele>1420</ele>
        <time>2009-07-06T14:57:06Z</time>
      </trkpt>
      <trkpt lat="44.65697" lon="3.56473">
        <ele>1416</ele>
        <time>2009-07-06T14:57:16Z</time>
      </trkpt>
      <trkpt lat="44.65702" lon="3.56476">
        <ele>1415</ele>
        <time>2009-07-06T14:57:17Z</time>
      </trkpt>
      <trkpt lat="44.65719" lon="3.56483">
        <ele>1414</ele>
        <time>2009-07-06T14:57:20Z</time>
      </trkpt>
      <trkpt lat="44.65762" lon="3.56504">
        <ele>1410</ele>
        <time>2009-07-06T14:57:27Z</time>
      </trkpt>
      <trkpt lat="44.65783" lon="3.56514">
        <ele>1407</ele>
        <time>2009-07-06T14:57:30Z</time>
      </trkpt>
      <trkpt lat="44.65791" lon="3.56518">
        <ele>1406</ele>
        <time>2009-07-06T14:57:31Z</time>
      </trkpt>
      <trkpt lat="44.65805" lon="3.5653">
        <ele>1405</ele>
        <time>2009-07-06T14:57:33Z</time>
      </trkpt>
      <trkpt lat="44.65818" lon="3.56549">
        <ele>1404</ele>
        <time>2009-07-06T14:57:35Z</time>
      </trkpt>
      <trkpt lat="44.65846" lon="3.5659">
        <ele>1405</ele>
        <time>2009-07-06T14:57:40Z</time>
      </trkpt>
      <trkpt lat="44.65878" lon="3.56608">
        <ele>1410</ele>
        <time>2009-07-06T14:57:47Z</time>
      </trkpt>
      <trkpt lat="44.65883" lon="3.56609">
        <ele>1410</ele>
        <time>2009-07-06T14:57:48Z</time>
      </trkpt>
      <trkpt lat="44.65887" lon="3.5661">
        <ele>1410</ele>
        <time>2009-07-06T14:57:49Z</time>
      </trkpt>
      <trkpt lat="44.65944" lon="3.56616">
        <ele>1411</ele>
        <time>2009-07-06T14:58:03Z</time>
      </trkpt>
      <trkpt lat="44.65972" lon="3.56617">
        <ele>1411</ele>
        <time>2009-07-06T14:58:10Z</time>
      </trkpt>
      <trkpt lat="44.66005" lon="3.56642">
        <ele>1408</ele>
        <time>2009-07-06T14:58:16Z</time>
      </trkpt>
      <trkpt lat="44.66014" lon="3.56662">
        <ele>1407</ele>
        <time>2009-07-06T14:58:18Z</time>
      </trkpt>
      <trkpt lat="44.66022" lon="3.56698">
        <ele>1408</ele>
        <time>2009-07-06T14:58:22Z</time>
      </trkpt>
      <trkpt lat="44.66022" lon="3.56712">
        <ele>1409</ele>
        <time>2009-07-06T14:58:32Z</time>
      </trkpt>
      <trkpt lat="44.66023" lon="3.56713">
        <ele>1409</ele>
        <time>2009-07-06T14:58:46Z</time>
      </trkpt>
      <trkpt lat="44.66023" lon="3.56713">
        <ele>1408</ele>
        <time>2009-07-06T14:59:13Z</time>
      </trkpt>
      <trkpt lat="44.66025" lon="3.56715">
        <ele>1409</ele>
        <time>2009-07-06T14:59:46Z</time>
      </trkpt>
      <trkpt lat="44.66025" lon="3.5673">
        <ele>1409</ele>
        <time>2009-07-06T14:59:52Z</time>
      </trkpt>
      <trkpt lat="44.66027" lon="3.56772">
        <ele>1411</ele>
        <time>2009-07-06T15:00:07Z</time>
      </trkpt>
      <trkpt lat="44.66011" lon="3.56815">
        <ele>1414</ele>
        <time>2009-07-06T15:00:22Z</time>
      </trkpt>
      <trkpt lat="44.65981" lon="3.56853">
        <ele>1416</ele>
        <time>2009-07-06T15:00:37Z</time>
      </trkpt>
      <trkpt lat="44.65945" lon="3.56886">
        <ele>1419</ele>
        <time>2009-07-06T15:00:53Z</time>
      </trkpt>
      <trkpt lat="44.65903" lon="3.56933">
        <ele>1422</ele>
        <time>2009-07-06T15:01:11Z</time>
      </trkpt>
      <trkpt lat="44.65875" lon="3.56983">
        <ele>1426</ele>
        <time>2009-07-06T15:01:26Z</time>
      </trkpt>
      <trkpt lat="44.65852" lon="3.57052">
        <ele>1428</ele>
        <time>2009-07-06T15:01:43Z</time>
      </trkpt>
      <trkpt lat="44.65826" lon="3.57132">
        <ele>1428</ele>
        <time>2009-07-06T15:01:59Z</time>
      </trkpt>
      <trkpt lat="44.65783" lon="3.57228">
        <ele>1428</ele>
        <time>2009-07-06T15:02:17Z</time>
      </trkpt>
      <trkpt lat="44.65759" lon="3.57316">
        <ele>1427</ele>
        <time>2009-07-06T15:02:34Z</time>
      </trkpt>
      <trkpt lat="44.65757" lon="3.57368">
        <ele>1425</ele>
        <time>2009-07-06T15:02:42Z</time>
      </trkpt>
      <trkpt lat="44.6576" lon="3.57444">
        <ele>1422</ele>
        <time>2009-07-06T15:02:51Z</time>
      </trkpt>
      <trkpt lat="44.65756" lon="3.57517">
        <ele>1421</ele>
        <time>2009-07-06T15:03:02Z</time>
      </trkpt>
      <trkpt lat="44.65751" lon="3.57559">
        <ele>1419</ele>
        <time>2009-07-06T15:03:15Z</time>
      </trkpt>
      <trkpt lat="44.65739" lon="3.57645">
        <ele>1419</ele>
        <time>2009-07-06T15:03:27Z</time>
      </trkpt>
      <trkpt lat="44.65737" lon="3.57667">
        <ele>1419</ele>
        <time>2009-07-06T15:03:31Z</time>
      </trkpt>
      <trkpt lat="44.65724" lon="3.57784">
        <ele>1418</ele>
        <time>2009-07-06T15:03:46Z</time>
      </trkpt>
      <trkpt lat="44.65716" lon="3.57835">
        <ele>1418</ele>
        <time>2009-07-06T15:03:53Z</time>
      </trkpt>
      <trkpt lat="44.65696" lon="3.57891">
        <ele>1419</ele>
        <time>2009-07-06T15:04:06Z</time>
      </trkpt>
      <trkpt lat="44.65676" lon="3.57934">
        <ele>1420</ele>
        <time>2009-07-06T15:04:19Z</time>
      </trkpt>
      <trkpt lat="44.65644" lon="3.57986">
        <ele>1421</ele>
        <time>2009-07-06T15:04:34Z</time>
      </trkpt>
      <trkpt lat="44.65622" lon="3.58035">
        <ele>1422</ele>
        <time>2009-07-06T15:04:47Z</time>
      </trkpt>
      <trkpt lat="44.65628" lon="3.58047">
        <ele>1423</ele>
        <time>2009-07-06T15:04:53Z</time>
      </trkpt>
      <trkpt lat="44.65636" lon="3.58053">
        <ele>1425</ele>
        <time>2009-07-06T15:05:08Z</time>
      </trkpt>
      <trkpt lat="44.65637" lon="3.58055">
        <ele>1424</ele>
        <time>2009-07-06T15:05:27Z</time>
      </trkpt>
      <trkpt lat="44.65644" lon="3.5808">
        <ele>1426</ele>
        <time>2009-07-06T15:05:41Z</time>
      </trkpt>
      <trkpt lat="44.65651" lon="3.58091">
        <ele>1426</ele>
        <time>2009-07-06T15:05:51Z</time>
      </trkpt>
      <trkpt lat="44.65664" lon="3.58119">
        <ele>1427</ele>
        <time>2009-07-06T15:06:05Z</time>
      </trkpt>
      <trkpt lat="44.65674" lon="3.5814">
        <ele>1429</ele>
        <time>2009-07-06T15:06:20Z</time>
      </trkpt>
      <trkpt lat="44.65676" lon="3.58141">
        <ele>1429</ele>
        <time>2009-07-06T15:06:21Z</time>
      </trkpt>
      <trkpt lat="44.65682" lon="3.58152">
        <ele>1430</ele>
        <time>2009-07-06T15:06:26Z</time>
      </trkpt>
      <trkpt lat="44.65694" lon="3.58164">
        <ele>1430</ele>
        <time>2009-07-06T15:06:39Z</time>
      </trkpt>
      <trkpt lat="44.65699" lon="3.58176">
        <ele>1430</ele>
        <time>2009-07-06T15:06:54Z</time>
      </trkpt>
      <trkpt lat="44.65707" lon="3.58191">
        <ele>1432</ele>
        <time>2009-07-06T15:07:01Z</time>
      </trkpt>
      <trkpt lat="44.65719" lon="3.58219">
        <ele>1433</ele>
        <time>2009-07-06T15:07:14Z</time>
      </trkpt>
      <trkpt lat="44.65723" lon="3.58227">
        <ele>1433</ele>
        <time>2009-07-06T15:07:18Z</time>
      </trkpt>
      <trkpt lat="44.65734" lon="3.58253">
        <ele>1433</ele>
        <time>2009-07-06T15:07:31Z</time>
      </trkpt>
      <trkpt lat="44.65739" lon="3.58262">
        <ele>1433</ele>
        <time>2009-07-06T15:07:35Z</time>
      </trkpt>
      <trkpt lat="44.65741" lon="3.58269">
        <ele>1433</ele>
        <time>2009-07-06T15:07:39Z</time>
      </trkpt>
      <trkpt lat="44.65749" lon="3.58282">
        <ele>1434</ele>
        <time>2009-07-06T15:07:47Z</time>
      </trkpt>
      <trkpt lat="44.65771" lon="3.58321">
        <ele>1433</ele>
        <time>2009-07-06T15:08:02Z</time>
      </trkpt>
      <trkpt lat="44.65788" lon="3.58358">
        <ele>1432</ele>
        <time>2009-07-06T15:08:16Z</time>
      </trkpt>
      <trkpt lat="44.65796" lon="3.58374">
        <ele>1431</ele>
        <time>2009-07-06T15:08:27Z</time>
      </trkpt>
      <trkpt lat="44.65801" lon="3.58392">
        <ele>1430</ele>
        <time>2009-07-06T15:08:43Z</time>
      </trkpt>
      <trkpt lat="44.65801" lon="3.58395">
        <ele>1430</ele>
        <time>2009-07-06T15:08:44Z</time>
      </trkpt>
      <trkpt lat="44.65813" lon="3.58417">
        <ele>1429</ele>
        <time>2009-07-06T15:08:55Z</time>
      </trkpt>
      <trkpt lat="44.65816" lon="3.58417">
        <ele>1428</ele>
        <time>2009-07-06T15:09:38Z</time>
      </trkpt>
      <trkpt lat="44.65816" lon="3.58416">
        <ele>1428</ele>
        <time>2009-07-06T15:09:56Z</time>
      </trkpt>
      <trkpt lat="44.65812" lon="3.58426">
        <ele>1428</ele>
        <time>2009-07-06T15:10:02Z</time>
      </trkpt>
      <trkpt lat="44.65803" lon="3.58453">
        <ele>1427</ele>
        <time>2009-07-06T15:10:14Z</time>
      </trkpt>
      <trkpt lat="44.65799" lon="3.58466">
        <ele>1427</ele>
        <time>2009-07-06T15:10:24Z</time>
      </trkpt>
      <trkpt lat="44.65799" lon="3.58459">
        <ele>1426</ele>
        <time>2009-07-06T15:11:12Z</time>
      </trkpt>
      <trkpt lat="44.65801" lon="3.58455">
        <ele>1427</ele>
        <time>2009-07-06T15:11:30Z</time>
      </trkpt>
      <trkpt lat="44.65803" lon="3.58453">
        <ele>1427</ele>
        <time>2009-07-06T15:11:50Z</time>
      </trkpt>
      <trkpt lat="44.65809" lon="3.5843">
        <ele>1428</ele>
        <time>2009-07-06T15:11:59Z</time>
      </trkpt>
      <trkpt lat="44.6582" lon="3.58416">
        <ele>1430</ele>
        <time>2009-07-06T15:12:13Z</time>
      </trkpt>
      <trkpt lat="44.65819" lon="3.58416">
        <ele>1429</ele>
        <time>2009-07-06T15:12:23Z</time>
      </trkpt>
      <trkpt lat="44.65814" lon="3.58418">
        <ele>1430</ele>
        <time>2009-07-06T15:12:30Z</time>
      </trkpt>
      <trkpt lat="44.65804" lon="3.58449">
        <ele>1428</ele>
        <time>2009-07-06T15:12:41Z</time>
      </trkpt>
      <trkpt lat="44.65797" lon="3.58475">
        <ele>1426</ele>
        <time>2009-07-06T15:12:52Z</time>
      </trkpt>
      <trkpt lat="44.65795" lon="3.58476">
        <ele>1428</ele>
        <time>2009-07-06T15:13:32Z</time>
      </trkpt>
      <trkpt lat="44.65801" lon="3.58477">
        <ele>1427</ele>
        <time>2009-07-06T15:14:36Z</time>
      </trkpt>
      <trkpt lat="44.65797" lon="3.58475">
        <ele>1426</ele>
        <time>2009-07-06T15:15:02Z</time>
      </trkpt>
      <trkpt lat="44.65798" lon="3.5847">
        <ele>1427</ele>
        <time>2009-07-06T15:15:26Z</time>
      </trkpt>
      <trkpt lat="44.65799" lon="3.58465">
        <ele>1426</ele>
        <time>2009-07-06T15:16:12Z</time>
      </trkpt>
      <trkpt lat="44.65799" lon="3.58468">
        <ele>1427</ele>
        <time>2009-07-06T15:16:52Z</time>
      </trkpt>
      <trkpt lat="44.658" lon="3.58464">
        <ele>1428</ele>
        <time>2009-07-06T15:17:53Z</time>
      </trkpt>
      <trkpt lat="44.65797" lon="3.58471">
        <ele>1426</ele>
        <time>2009-07-06T15:18:05Z</time>
      </trkpt>
      <trkpt lat="44.65797" lon="3.58472">
        <ele>1426</ele>
        <time>2009-07-06T15:18:06Z</time>
      </trkpt>
      <trkpt lat="44.65799" lon="3.58487">
        <ele>1426</ele>
        <time>2009-07-06T15:18:18Z</time>
      </trkpt>
      <trkpt lat="44.65803" lon="3.58499">
        <ele>1423</ele>
        <time>2009-07-06T15:18:28Z</time>
      </trkpt>
      <trkpt lat="44.65809" lon="3.58507">
        <ele>1422</ele>
        <time>2009-07-06T15:18:39Z</time>
      </trkpt>
      <trkpt lat="44.6581" lon="3.58519">
        <ele>1421</ele>
        <time>2009-07-06T15:18:51Z</time>
      </trkpt>
      <trkpt lat="44.65816" lon="3.58532">
        <ele>1420</ele>
        <time>2009-07-06T15:19:04Z</time>
      </trkpt>
      <trkpt lat="44.65817" lon="3.58534">
        <ele>1420</ele>
        <time>2009-07-06T15:19:06Z</time>
      </trkpt>
      <trkpt lat="44.65819" lon="3.58539">
        <ele>1419</ele>
        <time>2009-07-06T15:19:09Z</time>
      </trkpt>
      <trkpt lat="44.65824" lon="3.58546">
        <ele>1418</ele>
        <time>2009-07-06T15:19:14Z</time>
      </trkpt>
      <trkpt lat="44.65834" lon="3.58555">
        <ele>1416</ele>
        <time>2009-07-06T15:19:19Z</time>
      </trkpt>
      <trkpt lat="44.65837" lon="3.58562">
        <ele>1415</ele>
        <time>2009-07-06T15:19:22Z</time>
      </trkpt>
      <trkpt lat="44.65837" lon="3.58568">
        <ele>1414</ele>
        <time>2009-07-06T15:19:32Z</time>
      </trkpt>
      <trkpt lat="44.65838" lon="3.5857">
        <ele>1415</ele>
        <time>2009-07-06T15:19:40Z</time>
      </trkpt>
      <trkpt lat="44.65838" lon="3.5857">
        <ele>1414</ele>
        <time>2009-07-06T15:19:42Z</time>
      </trkpt>
      <trkpt lat="44.65839" lon="3.58573">
        <ele>1414</ele>
        <time>2009-07-06T15:20:10Z</time>
      </trkpt>
      <trkpt lat="44.6584" lon="3.58572">
        <ele>1414</ele>
        <time>2009-07-06T15:20:16Z</time>
      </trkpt>
      <trkpt lat="44.65842" lon="3.58578">
        <ele>1414</ele>
        <time>2009-07-06T15:20:47Z</time>
      </trkpt>
      <trkpt lat="44.65845" lon="3.58585">
        <ele>1412</ele>
        <time>2009-07-06T15:20:57Z</time>
      </trkpt>
      <trkpt lat="44.6584" lon="3.58596">
        <ele>1411</ele>
        <time>2009-07-06T15:21:09Z</time>
      </trkpt>
      <trkpt lat="44.6584" lon="3.586">
        <ele>1410</ele>
        <time>2009-07-06T15:21:14Z</time>
      </trkpt>
      <trkpt lat="44.65841" lon="3.58603">
        <ele>1410</ele>
        <time>2009-07-06T15:21:27Z</time>
      </trkpt>
      <trkpt lat="44.65843" lon="3.58606">
        <ele>1410</ele>
        <time>2009-07-06T15:21:41Z</time>
      </trkpt>
      <trkpt lat="44.65846" lon="3.58607">
        <ele>1410</ele>
        <time>2009-07-06T15:21:45Z</time>
      </trkpt>
      <trkpt lat="44.65859" lon="3.5861">
        <ele>1409</ele>
        <time>2009-07-06T15:22:02Z</time>
      </trkpt>
      <trkpt lat="44.65859" lon="3.58611">
        <ele>1409</ele>
        <time>2009-07-06T15:22:04Z</time>
      </trkpt>
      <trkpt lat="44.65863" lon="3.5862">
        <ele>1409</ele>
        <time>2009-07-06T15:22:20Z</time>
      </trkpt>
      <trkpt lat="44.65865" lon="3.5861">
        <ele>1409</ele>
        <time>2009-07-06T15:22:30Z</time>
      </trkpt>
      <trkpt lat="44.65868" lon="3.58604">
        <ele>1409</ele>
        <time>2009-07-06T15:22:38Z</time>
      </trkpt>
      <trkpt lat="44.65877" lon="3.58603">
        <ele>1408</ele>
        <time>2009-07-06T15:22:46Z</time>
      </trkpt>
      <trkpt lat="44.6588" lon="3.58603">
        <ele>1408</ele>
        <time>2009-07-06T15:22:48Z</time>
      </trkpt>
      <trkpt lat="44.65893" lon="3.58612">
        <ele>1406</ele>
        <time>2009-07-06T15:23:04Z</time>
      </trkpt>
      <trkpt lat="44.65897" lon="3.58614">
        <ele>1406</ele>
        <time>2009-07-06T15:23:09Z</time>
      </trkpt>
      <trkpt lat="44.65904" lon="3.58614">
        <ele>1406</ele>
        <time>2009-07-06T15:23:20Z</time>
      </trkpt>
      <trkpt lat="44.65906" lon="3.58616">
        <ele>1406</ele>
        <time>2009-07-06T15:23:22Z</time>
      </trkpt>
      <trkpt lat="44.65914" lon="3.58617">
        <ele>1405</ele>
        <time>2009-07-06T15:23:35Z</time>
      </trkpt>
      <trkpt lat="44.65919" lon="3.58626">
        <ele>1404</ele>
        <time>2009-07-06T15:23:49Z</time>
      </trkpt>
      <trkpt lat="44.65922" lon="3.58629">
        <ele>1403</ele>
        <time>2009-07-06T15:24:05Z</time>
      </trkpt>
      <trkpt lat="44.65925" lon="3.58631">
        <ele>1404</ele>
        <time>2009-07-06T15:24:17Z</time>
      </trkpt>
      <trkpt lat="44.65927" lon="3.5863">
        <ele>1403</ele>
        <time>2009-07-06T15:24:33Z</time>
      </trkpt>
      <trkpt lat="44.6593" lon="3.58626">
        <ele>1403</ele>
        <time>2009-07-06T15:24:40Z</time>
      </trkpt>
      <trkpt lat="44.65935" lon="3.5862">
        <ele>1403</ele>
        <time>2009-07-06T15:24:51Z</time>
      </trkpt>
      <trkpt lat="44.65942" lon="3.58623">
        <ele>1403</ele>
        <time>2009-07-06T15:25:05Z</time>
      </trkpt>
      <trkpt lat="44.65952" lon="3.5862">
        <ele>1403</ele>
        <time>2009-07-06T15:25:19Z</time>
      </trkpt>
      <trkpt lat="44.65954" lon="3.58621">
        <ele>1402</ele>
        <time>2009-07-06T15:25:26Z</time>
      </trkpt>
      <trkpt lat="44.65961" lon="3.58618">
        <ele>1402</ele>
        <time>2009-07-06T15:25:39Z</time>
      </trkpt>
      <trkpt lat="44.65961" lon="3.58618">
        <ele>1402</ele>
        <time>2009-07-06T15:25:41Z</time>
      </trkpt>
      <trkpt lat="44.65966" lon="3.58609">
        <ele>1402</ele>
        <time>2009-07-06T15:25:53Z</time>
      </trkpt>
      <trkpt lat="44.65974" lon="3.58603">
        <ele>1402</ele>
        <time>2009-07-06T15:25:58Z</time>
      </trkpt>
      <trkpt lat="44.66006" lon="3.58575">
        <ele>1401</ele>
        <time>2009-07-06T15:26:14Z</time>
      </trkpt>
      <trkpt lat="44.66009" lon="3.58573">
        <ele>1401</ele>
        <time>2009-07-06T15:26:26Z</time>
      </trkpt>
      <trkpt lat="44.66012" lon="3.58573">
        <ele>1401</ele>
        <time>2009-07-06T15:26:50Z</time>
      </trkpt>
      <trkpt lat="44.6601" lon="3.5857">
        <ele>1402</ele>
        <time>2009-07-06T15:27:01Z</time>
      </trkpt>
      <trkpt lat="44.66014" lon="3.5857">
        <ele>1400</ele>
        <time>2009-07-06T15:27:13Z</time>
      </trkpt>
      <trkpt lat="44.66015" lon="3.58566">
        <ele>1400</ele>
        <time>2009-07-06T15:27:32Z</time>
      </trkpt>
      <trkpt lat="44.66016" lon="3.58566">
        <ele>1400</ele>
        <time>2009-07-06T15:27:35Z</time>
      </trkpt>
      <trkpt lat="44.66047" lon="3.58559">
        <ele>1400</ele>
        <time>2009-07-06T15:27:51Z</time>
      </trkpt>
      <trkpt lat="44.66072" lon="3.58556">
        <ele>1401</ele>
        <time>2009-07-06T15:28:05Z</time>
      </trkpt>
      <trkpt lat="44.66076" lon="3.58557">
        <ele>1400</ele>
        <time>2009-07-06T15:28:17Z</time>
      </trkpt>
      <trkpt lat="44.66087" lon="3.58559">
        <ele>1399</ele>
        <time>2009-07-06T15:28:26Z</time>
      </trkpt>
      <trkpt lat="44.66107" lon="3.58569">
        <ele>1400</ele>
        <time>2009-07-06T15:28:37Z</time>
      </trkpt>
      <trkpt lat="44.66118" lon="3.58568">
        <ele>1399</ele>
        <time>2009-07-06T15:28:48Z</time>
      </trkpt>
      <trkpt lat="44.66119" lon="3.58568">
        <ele>1400</ele>
        <time>2009-07-06T15:29:12Z</time>
      </trkpt>
      <trkpt lat="44.6612" lon="3.58567">
        <ele>1400</ele>
        <time>2009-07-06T15:30:06Z</time>
      </trkpt>
      <trkpt lat="44.6612" lon="3.58566">
        <ele>1400</ele>
        <time>2009-07-06T15:30:52Z</time>
      </trkpt>
      <trkpt lat="44.6612" lon="3.58568">
        <ele>1400</ele>
        <time>2009-07-06T15:31:26Z</time>
      </trkpt>
      <trkpt lat="44.6612" lon="3.58568">
        <ele>1400</ele>
        <time>2009-07-06T15:31:44Z</time>
      </trkpt>
      <trkpt lat="44.66145" lon="3.58568">
        <ele>1400</ele>
        <time>2009-07-06T15:31:58Z</time>
      </trkpt>
      <trkpt lat="44.66175" lon="3.58567">
        <ele>1399</ele>
        <time>2009-07-06T15:32:12Z</time>
      </trkpt>
      <trkpt lat="44.66195" lon="3.5857">
        <ele>1396</ele>
        <time>2009-07-06T15:32:19Z</time>
      </trkpt>
      <trkpt lat="44.66202" lon="3.58571">
        <ele>1395</ele>
        <time>2009-07-06T15:32:21Z</time>
      </trkpt>
      <trkpt lat="44.66205" lon="3.58571">
        <ele>1395</ele>
        <time>2009-07-06T15:32:22Z</time>
      </trkpt>
      <trkpt lat="44.66213" lon="3.58564">
        <ele>1395</ele>
        <time>2009-07-06T15:32:26Z</time>
      </trkpt>
      <trkpt lat="44.66232" lon="3.58545">
        <ele>1392</ele>
        <time>2009-07-06T15:32:36Z</time>
      </trkpt>
      <trkpt lat="44.66239" lon="3.58536">
        <ele>1391</ele>
        <time>2009-07-06T15:32:46Z</time>
      </trkpt>
      <trkpt lat="44.66243" lon="3.58539">
        <ele>1391</ele>
        <time>2009-07-06T15:32:58Z</time>
      </trkpt>
      <trkpt lat="44.66251" lon="3.58541">
        <ele>1389</ele>
        <time>2009-07-06T15:33:06Z</time>
      </trkpt>
      <trkpt lat="44.66271" lon="3.58507">
        <ele>1389</ele>
        <time>2009-07-06T15:33:19Z</time>
      </trkpt>
      <trkpt lat="44.66296" lon="3.58486">
        <ele>1388</ele>
        <time>2009-07-06T15:33:31Z</time>
      </trkpt>
      <trkpt lat="44.66328" lon="3.58476">
        <ele>1385</ele>
        <time>2009-07-06T15:33:44Z</time>
      </trkpt>
      <trkpt lat="44.66343" lon="3.58478">
        <ele>1384</ele>
        <time>2009-07-06T15:33:49Z</time>
      </trkpt>
      <trkpt lat="44.6638" lon="3.58478">
        <ele>1383</ele>
        <time>2009-07-06T15:34:02Z</time>
      </trkpt>
      <trkpt lat="44.66417" lon="3.58481">
        <ele>1382</ele>
        <time>2009-07-06T15:34:16Z</time>
      </trkpt>
      <trkpt lat="44.66421" lon="3.58482">
        <ele>1382</ele>
        <time>2009-07-06T15:34:18Z</time>
      </trkpt>
      <trkpt lat="44.66432" lon="3.58479">
        <ele>1381</ele>
        <time>2009-07-06T15:34:30Z</time>
      </trkpt>
      <trkpt lat="44.66434" lon="3.5848">
        <ele>1382</ele>
        <time>2009-07-06T15:34:46Z</time>
      </trkpt>
      <trkpt lat="44.66434" lon="3.58482">
        <ele>1382</ele>
        <time>2009-07-06T15:35:01Z</time>
      </trkpt>
      <trkpt lat="44.66436" lon="3.58481">
        <ele>1382</ele>
        <time>2009-07-06T15:35:12Z</time>
      </trkpt>
      <trkpt lat="44.66442" lon="3.58476">
        <ele>1381</ele>
        <time>2009-07-06T15:35:25Z</time>
      </trkpt>
      <trkpt lat="44.66448" lon="3.58469">
        <ele>1382</ele>
        <time>2009-07-06T15:35:34Z</time>
      </trkpt>
      <trkpt lat="44.66453" lon="3.58455">
        <ele>1382</ele>
        <time>2009-07-06T15:35:44Z</time>
      </trkpt>
      <trkpt lat="44.66452" lon="3.58449">
        <ele>1382</ele>
        <time>2009-07-06T15:35:49Z</time>
      </trkpt>
      <trkpt lat="44.66463" lon="3.58429">
        <ele>1382</ele>
        <time>2009-07-06T15:36:05Z</time>
      </trkpt>
      <trkpt lat="44.66477" lon="3.58407">
        <ele>1382</ele>
        <time>2009-07-06T15:36:23Z</time>
      </trkpt>
      <trkpt lat="44.66489" lon="3.58386">
        <ele>1382</ele>
        <time>2009-07-06T15:36:41Z</time>
      </trkpt>
      <trkpt lat="44.66497" lon="3.58364">
        <ele>1383</ele>
        <time>2009-07-06T15:36:55Z</time>
      </trkpt>
      <trkpt lat="44.66507" lon="3.58334">
        <ele>1382</ele>
        <time>2009-07-06T15:37:14Z</time>
      </trkpt>
      <trkpt lat="44.66526" lon="3.58332">
        <ele>1382</ele>
        <time>2009-07-06T15:37:30Z</time>
      </trkpt>
      <trkpt lat="44.66526" lon="3.58332">
        <ele>1382</ele>
        <time>2009-07-06T15:37:31Z</time>
      </trkpt>
      <trkpt lat="44.66521" lon="3.58351">
        <ele>1382</ele>
        <time>2009-07-06T15:37:45Z</time>
      </trkpt>
      <trkpt lat="44.66519" lon="3.58355">
        <ele>1382</ele>
        <time>2009-07-06T15:38:00Z</time>
      </trkpt>
      <trkpt lat="44.6652" lon="3.58351">
        <ele>1383</ele>
        <time>2009-07-06T15:38:26Z</time>
      </trkpt>
      <trkpt lat="44.66526" lon="3.58339">
        <ele>1382</ele>
        <time>2009-07-06T15:38:47Z</time>
      </trkpt>
      <trkpt lat="44.66531" lon="3.58339">
        <ele>1382</ele>
        <time>2009-07-06T15:38:57Z</time>
      </trkpt>
      <trkpt lat="44.66531" lon="3.58339">
        <ele>1382</ele>
        <time>2009-07-06T15:39:03Z</time>
      </trkpt>
      <trkpt lat="44.6655" lon="3.58373">
        <ele>1382</ele>
        <time>2009-07-06T15:39:17Z</time>
      </trkpt>
      <trkpt lat="44.66588" lon="3.5845">
        <ele>1381</ele>
        <time>2009-07-06T15:39:36Z</time>
      </trkpt>
      <trkpt lat="44.66602" lon="3.58472">
        <ele>1377</ele>
        <time>2009-07-06T15:39:42Z</time>
      </trkpt>
      <trkpt lat="44.6661" lon="3.5848">
        <ele>1376</ele>
        <time>2009-07-06T15:39:52Z</time>
      </trkpt>
      <trkpt lat="44.66623" lon="3.58495">
        <ele>1374</ele>
        <time>2009-07-06T15:40:01Z</time>
      </trkpt>
      <trkpt lat="44.66629" lon="3.58504">
        <ele>1374</ele>
        <time>2009-07-06T15:40:04Z</time>
      </trkpt>
      <trkpt lat="44.66647" lon="3.58523">
        <ele>1372</ele>
        <time>2009-07-06T15:40:09Z</time>
      </trkpt>
      <trkpt lat="44.6666" lon="3.58533">
        <ele>1370</ele>
        <time>2009-07-06T15:40:12Z</time>
      </trkpt>
      <trkpt lat="44.66676" lon="3.58546">
        <ele>1367</ele>
        <time>2009-07-06T15:40:15Z</time>
      </trkpt>
      <trkpt lat="44.66689" lon="3.58563">
        <ele>1363</ele>
        <time>2009-07-06T15:40:18Z</time>
      </trkpt>
      <trkpt lat="44.667" lon="3.58586">
        <ele>1362</ele>
        <time>2009-07-06T15:40:21Z</time>
      </trkpt>
      <trkpt lat="44.66703" lon="3.58605">
        <ele>1360</ele>
        <time>2009-07-06T15:40:23Z</time>
      </trkpt>
      <trkpt lat="44.66706" lon="3.5863">
        <ele>1357</ele>
        <time>2009-07-06T15:40:26Z</time>
      </trkpt>
      <trkpt lat="44.66705" lon="3.58675">
        <ele>1352</ele>
        <time>2009-07-06T15:40:31Z</time>
      </trkpt>
      <trkpt lat="44.66704" lon="3.58696">
        <ele>1349</ele>
        <time>2009-07-06T15:40:33Z</time>
      </trkpt>
      <trkpt lat="44.66706" lon="3.58741">
        <ele>1344</ele>
        <time>2009-07-06T15:40:37Z</time>
      </trkpt>
      <trkpt lat="44.66706" lon="3.58792">
        <ele>1340</ele>
        <time>2009-07-06T15:40:42Z</time>
      </trkpt>
      <trkpt lat="44.66708" lon="3.58812">
        <ele>1338</ele>
        <time>2009-07-06T15:40:44Z</time>
      </trkpt>
      <trkpt lat="44.66711" lon="3.58867">
        <ele>1332</ele>
        <time>2009-07-06T15:40:49Z</time>
      </trkpt>
      <trkpt lat="44.66712" lon="3.58893">
        <ele>1330</ele>
        <time>2009-07-06T15:40:51Z</time>
      </trkpt>
      <trkpt lat="44.6671" lon="3.58931">
        <ele>1329</ele>
        <time>2009-07-06T15:40:54Z</time>
      </trkpt>
      <trkpt lat="44.66703" lon="3.58995">
        <ele>1325</ele>
        <time>2009-07-06T15:40:59Z</time>
      </trkpt>
      <trkpt lat="44.66703" lon="3.59034">
        <ele>1322</ele>
        <time>2009-07-06T15:41:02Z</time>
      </trkpt>
      <trkpt lat="44.66699" lon="3.59077">
        <ele>1317</ele>
        <time>2009-07-06T15:41:06Z</time>
      </trkpt>
      <trkpt lat="44.66699" lon="3.59087">
        <ele>1316</ele>
        <time>2009-07-06T15:41:07Z</time>
      </trkpt>
      <trkpt lat="44.667" lon="3.59121">
        <ele>1312</ele>
        <time>2009-07-06T15:41:10Z</time>
      </trkpt>
      <trkpt lat="44.667" lon="3.5917">
        <ele>1309</ele>
        <time>2009-07-06T15:41:14Z</time>
      </trkpt>
      <trkpt lat="44.66697" lon="3.59226">
        <ele>1305</ele>
        <time>2009-07-06T15:41:19Z</time>
      </trkpt>
      <trkpt lat="44.66696" lon="3.59235">
        <ele>1303</ele>
        <time>2009-07-06T15:41:20Z</time>
      </trkpt>
      <trkpt lat="44.66706" lon="3.59262">
        <ele>1299</ele>
        <time>2009-07-06T15:41:24Z</time>
      </trkpt>
      <trkpt lat="44.66713" lon="3.59266">
        <ele>1298</ele>
        <time>2009-07-06T15:41:25Z</time>
      </trkpt>
      <trkpt lat="44.66729" lon="3.59273">
        <ele>1297</ele>
        <time>2009-07-06T15:41:27Z</time>
      </trkpt>
      <trkpt lat="44.66745" lon="3.59281">
        <ele>1295</ele>
        <time>2009-07-06T15:41:29Z</time>
      </trkpt>
      <trkpt lat="44.66764" lon="3.59297">
        <ele>1293</ele>
        <time>2009-07-06T15:41:32Z</time>
      </trkpt>
      <trkpt lat="44.66772" lon="3.59311">
        <ele>1292</ele>
        <time>2009-07-06T15:41:34Z</time>
      </trkpt>
      <trkpt lat="44.6677" lon="3.59332">
        <ele>1290</ele>
        <time>2009-07-06T15:41:37Z</time>
      </trkpt>
      <trkpt lat="44.66743" lon="3.59389">
        <ele>1288</ele>
        <time>2009-07-06T15:41:51Z</time>
      </trkpt>
      <trkpt lat="44.66741" lon="3.59427">
        <ele>1287</ele>
        <time>2009-07-06T15:42:01Z</time>
      </trkpt>
      <trkpt lat="44.66745" lon="3.59448">
        <ele>1287</ele>
        <time>2009-07-06T15:42:06Z</time>
      </trkpt>
      <trkpt lat="44.66761" lon="3.59484">
        <ele>1287</ele>
        <time>2009-07-06T15:42:14Z</time>
      </trkpt>
      <trkpt lat="44.66778" lon="3.5953">
        <ele>1286</ele>
        <time>2009-07-06T15:42:24Z</time>
      </trkpt>
      <trkpt lat="44.66774" lon="3.59586">
        <ele>1286</ele>
        <time>2009-07-06T15:42:39Z</time>
      </trkpt>
      <trkpt lat="44.66764" lon="3.59646">
        <ele>1286</ele>
        <time>2009-07-06T15:42:51Z</time>
      </trkpt>
      <trkpt lat="44.66786" lon="3.59664">
        <ele>1287</ele>
        <time>2009-07-06T15:43:00Z</time>
      </trkpt>
      <trkpt lat="44.6681" lon="3.59665">
        <ele>1290</ele>
        <time>2009-07-06T15:43:09Z</time>
      </trkpt>
      <trkpt lat="44.66813" lon="3.59669">
        <ele>1291</ele>
        <time>2009-07-06T15:43:11Z</time>
      </trkpt>
      <trkpt lat="44.6682" lon="3.59675">
        <ele>1292</ele>
        <time>2009-07-06T15:43:21Z</time>
      </trkpt>
      <trkpt lat="44.66819" lon="3.5967">
        <ele>1292</ele>
        <time>2009-07-06T15:43:35Z</time>
      </trkpt>
    </trkseg>
  </trk>
  <trk>
    <name><![CDATA[B01]]></name>
    <trkseg>
      <trkpt lat="44.66805" lon="3.59678">
        <ele>1279</ele>
        <time>2009-07-07T06:37:28Z</time>
      </trkpt>
      <trkpt lat="44.66816" lon="3.59683">
        <ele>1282</ele>
        <time>2009-07-07T06:37:54Z</time>
      </trkpt>
      <trkpt lat="44.66815" lon="3.59682">
        <ele>1286</ele>
        <time>2009-07-07T06:38:08Z</time>
      </trkpt>
      <trkpt lat="44.66823" lon="3.59679">
        <ele>1287</ele>
        <time>2009-07-07T06:42:53Z</time>
      </trkpt>
      <trkpt lat="44.66819" lon="3.59676">
        <ele>1287</ele>
        <time>2009-07-07T06:42:56Z</time>
      </trkpt>
      <trkpt lat="44.6681" lon="3.59664">
        <ele>1283</ele>
        <time>2009-07-07T06:43:02Z</time>
      </trkpt>
      <trkpt lat="44.6679" lon="3.59662">
        <ele>1281</ele>
        <time>2009-07-07T06:43:08Z</time>
      </trkpt>
      <trkpt lat="44.66772" lon="3.59648">
        <ele>1281</ele>
        <time>2009-07-07T06:43:13Z</time>
      </trkpt>
      <trkpt lat="44.66773" lon="3.59632">
        <ele>1280</ele>
        <time>2009-07-07T06:43:17Z</time>
      </trkpt>
      <trkpt lat="44.66781" lon="3.59554">
        <ele>1281</ele>
        <time>2009-07-07T06:43:32Z</time>
      </trkpt>
      <trkpt lat="44.66781" lon="3.59543">
        <ele>1281</ele>
        <time>2009-07-07T06:43:34Z</time>
      </trkpt>
      <trkpt lat="44.66774" lon="3.59516">
        <ele>1281</ele>
        <time>2009-07-07T06:43:40Z</time>
      </trkpt>
      <trkpt lat="44.66765" lon="3.59482">
        <ele>1282</ele>
        <time>2009-07-07T06:43:52Z</time>
      </trkpt>
      <trkpt lat="44.66759" lon="3.59473">
        <ele>1282</ele>
        <time>2009-07-07T06:43:59Z</time>
      </trkpt>
      <trkpt lat="44.66744" lon="3.59421">
        <ele>1283</ele>
        <time>2009-07-07T06:44:12Z</time>
      </trkpt>
      <trkpt lat="44.66754" lon="3.59366">
        <ele>1284</ele>
        <time>2009-07-07T06:44:25Z</time>
      </trkpt>
      <trkpt lat="44.66774" lon="3.59308">
        <ele>1285</ele>
        <time>2009-07-07T06:44:43Z</time>
      </trkpt>
      <trkpt lat="44.66752" lon="3.59278">
        <ele>1289</ele>
        <time>2009-07-07T06:44:58Z</time>
      </trkpt>
      <trkpt lat="44.66723" lon="3.59264">
        <ele>1290</ele>
        <time>2009-07-07T06:45:14Z</time>
      </trkpt>
      <trkpt lat="44.66708" lon="3.59258">
        <ele>1291</ele>
        <time>2009-07-07T06:45:23Z</time>
      </trkpt>
      <trkpt lat="44.66697" lon="3.59233">
        <ele>1294</ele>
        <time>2009-07-07T06:45:38Z</time>
      </trkpt>
      <trkpt lat="44.66698" lon="3.59222">
        <ele>1295</ele>
        <time>2009-07-07T06:45:43Z</time>
      </trkpt>
      <trkpt lat="44.66698" lon="3.59218">
        <ele>1296</ele>
        <time>2009-07-07T06:45:45Z</time>
      </trkpt>
      <trkpt lat="44.66702" lon="3.59191">
        <ele>1300</ele>
        <time>2009-07-07T06:45:57Z</time>
      </trkpt>
      <trkpt lat="44.66701" lon="3.59146">
        <ele>1303</ele>
        <time>2009-07-07T06:46:16Z</time>
      </trkpt>
      <trkpt lat="44.66701" lon="3.59125">
        <ele>1306</ele>
        <time>2009-07-07T06:46:25Z</time>
      </trkpt>
      <trkpt lat="44.66701" lon="3.59123">
        <ele>1306</ele>
        <time>2009-07-07T06:46:26Z</time>
      </trkpt>
      <trkpt lat="44.66701" lon="3.59094">
        <ele>1309</ele>
        <time>2009-07-07T06:46:39Z</time>
      </trkpt>
      <trkpt lat="44.66701" lon="3.59086">
        <ele>1310</ele>
        <time>2009-07-07T06:46:43Z</time>
      </trkpt>
      <trkpt lat="44.66701" lon="3.59044">
        <ele>1313</ele>
        <time>2009-07-07T06:47:02Z</time>
      </trkpt>
      <trkpt lat="44.66701" lon="3.59017">
        <ele>1316</ele>
        <time>2009-07-07T06:47:13Z</time>
      </trkpt>
      <trkpt lat="44.66702" lon="3.58971">
        <ele>1319</ele>
        <time>2009-07-07T06:47:31Z</time>
      </trkpt>
      <trkpt lat="44.66707" lon="3.58929">
        <ele>1322</ele>
        <time>2009-07-07T06:47:47Z</time>
      </trkpt>
      <trkpt lat="44.66711" lon="3.58892">
        <ele>1324</ele>
        <time>2009-07-07T06:48:02Z</time>
      </trkpt>
      <trkpt lat="44.66709" lon="3.5885">
        <ele>1325</ele>
        <time>2009-07-07T06:48:19Z</time>
      </trkpt>
      <trkpt lat="44.66709" lon="3.58834">
        <ele>1327</ele>
        <time>2009-07-07T06:48:26Z</time>
      </trkpt>
      <trkpt lat="44.66708" lon="3.5881">
        <ele>1330</ele>
        <time>2009-07-07T06:48:37Z</time>
      </trkpt>
      <trkpt lat="44.66705" lon="3.58785">
        <ele>1333</ele>
        <time>2009-07-07T06:48:48Z</time>
      </trkpt>
      <trkpt lat="44.66705" lon="3.58754">
        <ele>1337</ele>
        <time>2009-07-07T06:49:01Z</time>
      </trkpt>
      <trkpt lat="44.66706" lon="3.58734">
        <ele>1340</ele>
        <time>2009-07-07T06:49:10Z</time>
      </trkpt>
      <trkpt lat="44.66705" lon="3.58709">
        <ele>1343</ele>
        <time>2009-07-07T06:49:22Z</time>
      </trkpt>
      <trkpt lat="44.66705" lon="3.58675">
        <ele>1346</ele>
        <time>2009-07-07T06:49:39Z</time>
      </trkpt>
      <trkpt lat="44.66706" lon="3.58653">
        <ele>1349</ele>
        <time>2009-07-07T06:49:51Z</time>
      </trkpt>
      <trkpt lat="44.66706" lon="3.58635">
        <ele>1351</ele>
        <time>2009-07-07T06:50:00Z</time>
      </trkpt>
      <trkpt lat="44.66704" lon="3.58618">
        <ele>1353</ele>
        <time>2009-07-07T06:50:09Z</time>
      </trkpt>
      <trkpt lat="44.66703" lon="3.5861">
        <ele>1355</ele>
        <time>2009-07-07T06:50:13Z</time>
      </trkpt>
      <trkpt lat="44.66694" lon="3.58568">
        <ele>1358</ele>
        <time>2009-07-07T06:50:34Z</time>
      </trkpt>
      <trkpt lat="44.66675" lon="3.58544">
        <ele>1361</ele>
        <time>2009-07-07T06:50:51Z</time>
      </trkpt>
      <trkpt lat="44.66656" lon="3.58528">
        <ele>1365</ele>
        <time>2009-07-07T06:51:06Z</time>
      </trkpt>
      <trkpt lat="44.66632" lon="3.58506">
        <ele>1369</ele>
        <time>2009-07-07T06:51:25Z</time>
      </trkpt>
      <trkpt lat="44.66631" lon="3.58504">
        <ele>1369</ele>
        <time>2009-07-07T06:51:26Z</time>
      </trkpt>
      <trkpt lat="44.66613" lon="3.58482">
        <ele>1372</ele>
        <time>2009-07-07T06:51:41Z</time>
      </trkpt>
      <trkpt lat="44.66596" lon="3.58461">
        <ele>1375</ele>
        <time>2009-07-07T06:51:55Z</time>
      </trkpt>
      <trkpt lat="44.66585" lon="3.58435">
        <ele>1376</ele>
        <time>2009-07-07T06:52:09Z</time>
      </trkpt>
      <trkpt lat="44.66585" lon="3.58435">
        <ele>1375</ele>
        <time>2009-07-07T06:52:54Z</time>
      </trkpt>
      <trkpt lat="44.66586" lon="3.58434">
        <ele>1377</ele>
        <time>2009-07-07T06:54:20Z</time>
      </trkpt>
      <trkpt lat="44.66578" lon="3.58417">
        <ele>1376</ele>
        <time>2009-07-07T06:55:02Z</time>
      </trkpt>
      <trkpt lat="44.66551" lon="3.58368">
        <ele>1378</ele>
        <time>2009-07-07T06:55:20Z</time>
      </trkpt>
      <trkpt lat="44.66528" lon="3.5833">
        <ele>1378</ele>
        <time>2009-07-07T06:55:35Z</time>
      </trkpt>
      <trkpt lat="44.66499" lon="3.58305">
        <ele>1378</ele>
        <time>2009-07-07T06:55:50Z</time>
      </trkpt>
      <trkpt lat="44.66457" lon="3.58324">
        <ele>1378</ele>
        <time>2009-07-07T06:56:05Z</time>
      </trkpt>
      <trkpt lat="44.66398" lon="3.58339">
        <ele>1380</ele>
        <time>2009-07-07T06:56:25Z</time>
      </trkpt>
      <trkpt lat="44.66373" lon="3.58345">
        <ele>1382</ele>
        <time>2009-07-07T06:56:35Z</time>
      </trkpt>
      <trkpt lat="44.66312" lon="3.58355">
        <ele>1384</ele>
        <time>2009-07-07T06:56:59Z</time>
      </trkpt>
      <trkpt lat="44.66305" lon="3.58355">
        <ele>1386</ele>
        <time>2009-07-07T06:57:02Z</time>
      </trkpt>
      <trkpt lat="44.66284" lon="3.58329">
        <ele>1388</ele>
        <time>2009-07-07T06:57:16Z</time>
      </trkpt>
      <trkpt lat="44.66284" lon="3.58325">
        <ele>1388</ele>
        <time>2009-07-07T06:57:17Z</time>
      </trkpt>
      <trkpt lat="44.6627" lon="3.58267">
        <ele>1389</ele>
        <time>2009-07-07T06:57:35Z</time>
      </trkpt>
      <trkpt lat="44.66261" lon="3.58222">
        <ele>1393</ele>
        <time>2009-07-07T06:57:49Z</time>
      </trkpt>
      <trkpt lat="44.66241" lon="3.58156">
        <ele>1395</ele>
        <time>2009-07-07T06:58:10Z</time>
      </trkpt>
      <trkpt lat="44.66228" lon="3.58134">
        <ele>1396</ele>
        <time>2009-07-07T06:58:18Z</time>
      </trkpt>
      <trkpt lat="44.66211" lon="3.58108">
        <ele>1399</ele>
        <time>2009-07-07T06:58:28Z</time>
      </trkpt>
      <trkpt lat="44.66175" lon="3.58069">
        <ele>1400</ele>
        <time>2009-07-07T06:58:45Z</time>
      </trkpt>
      <trkpt lat="44.66133" lon="3.58021">
        <ele>1403</ele>
        <time>2009-07-07T06:59:08Z</time>
      </trkpt>
      <trkpt lat="44.66131" lon="3.58019">
        <ele>1404</ele>
        <time>2009-07-07T06:59:09Z</time>
      </trkpt>
      <trkpt lat="44.66086" lon="3.57981">
        <ele>1406</ele>
        <time>2009-07-07T06:59:29Z</time>
      </trkpt>
      <trkpt lat="44.66028" lon="3.5795">
        <ele>1408</ele>
        <time>2009-07-07T06:59:50Z</time>
      </trkpt>
      <trkpt lat="44.65993" lon="3.5793">
        <ele>1412</ele>
        <time>2009-07-07T07:00:03Z</time>
      </trkpt>
      <trkpt lat="44.6596" lon="3.57889">
        <ele>1410</ele>
        <time>2009-07-07T07:00:17Z</time>
      </trkpt>
      <trkpt lat="44.65934" lon="3.57811">
        <ele>1414</ele>
        <time>2009-07-07T07:00:36Z</time>
      </trkpt>
      <trkpt lat="44.65895" lon="3.57733">
        <ele>1414</ele>
        <time>2009-07-07T07:00:55Z</time>
      </trkpt>
      <trkpt lat="44.65848" lon="3.57649">
        <ele>1415</ele>
        <time>2009-07-07T07:01:16Z</time>
      </trkpt>
      <trkpt lat="44.65839" lon="3.5764">
        <ele>1416</ele>
        <time>2009-07-07T07:01:19Z</time>
      </trkpt>
      <trkpt lat="44.6578" lon="3.57614">
        <ele>1418</ele>
        <time>2009-07-07T07:01:36Z</time>
      </trkpt>
      <trkpt lat="44.65735" lon="3.57594">
        <ele>1418</ele>
        <time>2009-07-07T07:01:52Z</time>
      </trkpt>
      <trkpt lat="44.65701" lon="3.57577">
        <ele>1417</ele>
        <time>2009-07-07T07:02:05Z</time>
      </trkpt>
      <trkpt lat="44.65644" lon="3.57549">
        <ele>1415</ele>
        <time>2009-07-07T07:02:21Z</time>
      </trkpt>
      <trkpt lat="44.65577" lon="3.57503">
        <ele>1414</ele>
        <time>2009-07-07T07:02:39Z</time>
      </trkpt>
      <trkpt lat="44.65506" lon="3.57461">
        <ele>1411</ele>
        <time>2009-07-07T07:02:54Z</time>
      </trkpt>
      <trkpt lat="44.65493" lon="3.57457">
        <ele>1410</ele>
        <time>2009-07-07T07:02:56Z</time>
      </trkpt>
      <trkpt lat="44.65425" lon="3.57438">
        <ele>1407</ele>
        <time>2009-07-07T07:03:06Z</time>
      </trkpt>
      <trkpt lat="44.65372" lon="3.57417">
        <ele>1404</ele>
        <time>2009-07-07T07:03:13Z</time>
      </trkpt>
      <trkpt lat="44.65347" lon="3.57412">
        <ele>1402</ele>
        <time>2009-07-07T07:03:16Z</time>
      </trkpt>
      <trkpt lat="44.65273" lon="3.57409">
        <ele>1399</ele>
        <time>2009-07-07T07:03:25Z</time>
      </trkpt>
      <trkpt lat="44.65175" lon="3.57405">
        <ele>1397</ele>
        <time>2009-07-07T07:03:38Z</time>
      </trkpt>
      <trkpt lat="44.65139" lon="3.57405">
        <ele>1395</ele>
        <time>2009-07-07T07:03:43Z</time>
      </trkpt>
      <trkpt lat="44.651" lon="3.5741">
        <ele>1394</ele>
        <time>2009-07-07T07:03:48Z</time>
      </trkpt>
      <trkpt lat="44.65046" lon="3.57414">
        <ele>1393</ele>
        <time>2009-07-07T07:03:55Z</time>
      </trkpt>
      <trkpt lat="44.64966" lon="3.5742">
        <ele>1389</ele>
        <time>2009-07-07T07:04:06Z</time>
      </trkpt>
      <trkpt lat="44.64911" lon="3.57439">
        <ele>1387</ele>
        <time>2009-07-07T07:04:14Z</time>
      </trkpt>
      <trkpt lat="44.6478" lon="3.57492">
        <ele>1385</ele>
        <time>2009-07-07T07:04:33Z</time>
      </trkpt>
      <trkpt lat="44.64774" lon="3.57496">
        <ele>1386</ele>
        <time>2009-07-07T07:04:34Z</time>
      </trkpt>
      <trkpt lat="44.64718" lon="3.57513">
        <ele>1386</ele>
        <time>2009-07-07T07:04:43Z</time>
      </trkpt>
      <trkpt lat="44.64693" lon="3.57504">
        <ele>1384</ele>
        <time>2009-07-07T07:04:47Z</time>
      </trkpt>
      <trkpt lat="44.64662" lon="3.57487">
        <ele>1383</ele>
        <time>2009-07-07T07:04:52Z</time>
      </trkpt>
      <trkpt lat="44.64623" lon="3.57493">
        <ele>1383</ele>
        <time>2009-07-07T07:04:58Z</time>
      </trkpt>
      <trkpt lat="44.64537" lon="3.57528">
        <ele>1380</ele>
        <time>2009-07-07T07:05:11Z</time>
      </trkpt>
      <trkpt lat="44.64447" lon="3.57567">
        <ele>1377</ele>
        <time>2009-07-07T07:05:24Z</time>
      </trkpt>
      <trkpt lat="44.6444" lon="3.57571">
        <ele>1377</ele>
        <time>2009-07-07T07:05:25Z</time>
      </trkpt>
      <trkpt lat="44.64345" lon="3.57619">
        <ele>1376</ele>
        <time>2009-07-07T07:05:39Z</time>
      </trkpt>
      <trkpt lat="44.64256" lon="3.57621">
        <ele>1374</ele>
        <time>2009-07-07T07:05:52Z</time>
      </trkpt>
      <trkpt lat="44.6423" lon="3.57608">
        <ele>1373</ele>
        <time>2009-07-07T07:05:56Z</time>
      </trkpt>
      <trkpt lat="44.64186" lon="3.57586">
        <ele>1373</ele>
        <time>2009-07-07T07:06:03Z</time>
      </trkpt>
      <trkpt lat="44.64148" lon="3.57577">
        <ele>1372</ele>
        <time>2009-07-07T07:06:09Z</time>
      </trkpt>
      <trkpt lat="44.64114" lon="3.57576">
        <ele>1371</ele>
        <time>2009-07-07T07:06:14Z</time>
      </trkpt>
      <trkpt lat="44.64053" lon="3.57581">
        <ele>1367</ele>
        <time>2009-07-07T07:06:22Z</time>
      </trkpt>
      <trkpt lat="44.64046" lon="3.57583">
        <ele>1367</ele>
        <time>2009-07-07T07:06:23Z</time>
      </trkpt>
      <trkpt lat="44.6403" lon="3.57588">
        <ele>1366</ele>
        <time>2009-07-07T07:06:25Z</time>
      </trkpt>
      <trkpt lat="44.64016" lon="3.57596">
        <ele>1365</ele>
        <time>2009-07-07T07:06:27Z</time>
      </trkpt>
      <trkpt lat="44.63988" lon="3.57627">
        <ele>1366</ele>
        <time>2009-07-07T07:06:32Z</time>
      </trkpt>
      <trkpt lat="44.63973" lon="3.57655">
        <ele>1368</ele>
        <time>2009-07-07T07:06:36Z</time>
      </trkpt>
      <trkpt lat="44.63939" lon="3.57711">
        <ele>1370</ele>
        <time>2009-07-07T07:06:48Z</time>
      </trkpt>
      <trkpt lat="44.63926" lon="3.5771">
        <ele>1369</ele>
        <time>2009-07-07T07:06:58Z</time>
      </trkpt>
      <trkpt lat="44.63916" lon="3.57697">
        <ele>1368</ele>
        <time>2009-07-07T07:07:27Z</time>
      </trkpt>
      <trkpt lat="44.6391" lon="3.57689">
        <ele>1368</ele>
        <time>2009-07-07T07:07:29Z</time>
      </trkpt>
      <trkpt lat="44.63897" lon="3.57674">
        <ele>1367</ele>
        <time>2009-07-07T07:07:32Z</time>
      </trkpt>
      <trkpt lat="44.63872" lon="3.57642">
        <ele>1365</ele>
        <time>2009-07-07T07:07:38Z</time>
      </trkpt>
      <trkpt lat="44.63854" lon="3.5762">
        <ele>1365</ele>
        <time>2009-07-07T07:07:42Z</time>
      </trkpt>
      <trkpt lat="44.6377" lon="3.57509">
        <ele>1363</ele>
        <time>2009-07-07T07:07:59Z</time>
      </trkpt>
      <trkpt lat="44.63705" lon="3.57402">
        <ele>1361</ele>
        <time>2009-07-07T07:08:14Z</time>
      </trkpt>
      <trkpt lat="44.63645" lon="3.57305">
        <ele>1358</ele>
        <time>2009-07-07T07:08:29Z</time>
      </trkpt>
      <trkpt lat="44.63581" lon="3.57211">
        <ele>1356</ele>
        <time>2009-07-07T07:08:45Z</time>
      </trkpt>
      <trkpt lat="44.63573" lon="3.572">
        <ele>1355</ele>
        <time>2009-07-07T07:08:47Z</time>
      </trkpt>
      <trkpt lat="44.63531" lon="3.57154">
        <ele>1353</ele>
        <time>2009-07-07T07:08:56Z</time>
      </trkpt>
      <trkpt lat="44.63516" lon="3.5714">
        <ele>1352</ele>
        <time>2009-07-07T07:08:59Z</time>
      </trkpt>
      <trkpt lat="44.63421" lon="3.57042">
        <ele>1350</ele>
        <time>2009-07-07T07:09:19Z</time>
      </trkpt>
      <trkpt lat="44.63357" lon="3.56977">
        <ele>1347</ele>
        <time>2009-07-07T07:09:32Z</time>
      </trkpt>
      <trkpt lat="44.63352" lon="3.56973">
        <ele>1348</ele>
        <time>2009-07-07T07:09:33Z</time>
      </trkpt>
      <trkpt lat="44.63342" lon="3.56938">
        <ele>1346</ele>
        <time>2009-07-07T07:09:38Z</time>
      </trkpt>
      <trkpt lat="44.63354" lon="3.5686">
        <ele>1343</ele>
        <time>2009-07-07T07:09:49Z</time>
      </trkpt>
      <trkpt lat="44.63355" lon="3.56853">
        <ele>1343</ele>
        <time>2009-07-07T07:09:50Z</time>
      </trkpt>
      <trkpt lat="44.6336" lon="3.56812">
        <ele>1339</ele>
        <time>2009-07-07T07:09:55Z</time>
      </trkpt>
      <trkpt lat="44.63362" lon="3.56803">
        <ele>1339</ele>
        <time>2009-07-07T07:09:56Z</time>
      </trkpt>
      <trkpt lat="44.63366" lon="3.56774">
        <ele>1337</ele>
        <time>2009-07-07T07:09:59Z</time>
      </trkpt>
      <trkpt lat="44.63368" lon="3.56753">
        <ele>1334</ele>
        <time>2009-07-07T07:10:01Z</time>
      </trkpt>
      <trkpt lat="44.63385" lon="3.56644">
        <ele>1338</ele>
        <time>2009-07-07T07:10:14Z</time>
      </trkpt>
      <trkpt lat="44.63366" lon="3.56598">
        <ele>1338</ele>
        <time>2009-07-07T07:10:23Z</time>
      </trkpt>
      <trkpt lat="44.63313" lon="3.56566">
        <ele>1339</ele>
        <time>2009-07-07T07:10:37Z</time>
      </trkpt>
      <trkpt lat="44.63287" lon="3.5655">
        <ele>1339</ele>
        <time>2009-07-07T07:10:43Z</time>
      </trkpt>
      <trkpt lat="44.6327" lon="3.56527">
        <ele>1339</ele>
        <time>2009-07-07T07:10:48Z</time>
      </trkpt>
      <trkpt lat="44.63255" lon="3.5649">
        <ele>1341</ele>
        <time>2009-07-07T07:10:56Z</time>
      </trkpt>
      <trkpt lat="44.63238" lon="3.56425">
        <ele>1344</ele>
        <time>2009-07-07T07:11:11Z</time>
      </trkpt>
      <trkpt lat="44.63227" lon="3.56359">
        <ele>1347</ele>
        <time>2009-07-07T07:11:27Z</time>
      </trkpt>
      <trkpt lat="44.6323" lon="3.56306">
        <ele>1350</ele>
        <time>2009-07-07T07:11:40Z</time>
      </trkpt>
      <trkpt lat="44.63241" lon="3.56248">
        <ele>1352</ele>
        <time>2009-07-07T07:11:57Z</time>
      </trkpt>
      <trkpt lat="44.63248" lon="3.56217">
        <ele>1353</ele>
        <time>2009-07-07T07:12:11Z</time>
      </trkpt>
      <trkpt lat="44.63249" lon="3.56214">
        <ele>1353</ele>
        <time>2009-07-07T07:12:23Z</time>
      </trkpt>
      <trkpt lat="44.63248" lon="3.56213">
        <ele>1352</ele>
        <time>2009-07-07T07:12:38Z</time>
      </trkpt>
      <trkpt lat="44.63242" lon="3.56206">
        <ele>1353</ele>
        <time>2009-07-07T07:12:43Z</time>
      </trkpt>
      <trkpt lat="44.63208" lon="3.56157">
        <ele>1351</ele>
        <time>2009-07-07T07:12:59Z</time>
      </trkpt>
      <trkpt lat="44.63149" lon="3.56117">
        <ele>1350</ele>
        <time>2009-07-07T07:13:14Z</time>
      </trkpt>
      <trkpt lat="44.63072" lon="3.56091">
        <ele>1347</ele>
        <time>2009-07-07T07:13:29Z</time>
      </trkpt>
      <trkpt lat="44.63067" lon="3.56089">
        <ele>1349</ele>
        <time>2009-07-07T07:13:30Z</time>
      </trkpt>
      <trkpt lat="44.63047" lon="3.56082">
        <ele>1348</ele>
        <time>2009-07-07T07:13:34Z</time>
      </trkpt>
      <trkpt lat="44.62984" lon="3.56067">
        <ele>1346</ele>
        <time>2009-07-07T07:13:45Z</time>
      </trkpt>
      <trkpt lat="44.62897" lon="3.56063">
        <ele>1344</ele>
        <time>2009-07-07T07:14:00Z</time>
      </trkpt>
      <trkpt lat="44.6285" lon="3.56069">
        <ele>1342</ele>
        <time>2009-07-07T07:14:08Z</time>
      </trkpt>
      <trkpt lat="44.62811" lon="3.56077">
        <ele>1341</ele>
        <time>2009-07-07T07:14:14Z</time>
      </trkpt>
      <trkpt lat="44.62798" lon="3.56076">
        <ele>1340</ele>
        <time>2009-07-07T07:14:16Z</time>
      </trkpt>
      <trkpt lat="44.62786" lon="3.56073">
        <ele>1340</ele>
        <time>2009-07-07T07:14:18Z</time>
      </trkpt>
      <trkpt lat="44.62755" lon="3.5607">
        <ele>1340</ele>
        <time>2009-07-07T07:14:23Z</time>
      </trkpt>
      <trkpt lat="44.6268" lon="3.56098">
        <ele>1338</ele>
        <time>2009-07-07T07:14:36Z</time>
      </trkpt>
      <trkpt lat="44.62658" lon="3.56107">
        <ele>1338</ele>
        <time>2009-07-07T07:14:40Z</time>
      </trkpt>
      <trkpt lat="44.62624" lon="3.56109">
        <ele>1336</ele>
        <time>2009-07-07T07:14:46Z</time>
      </trkpt>
      <trkpt lat="44.62591" lon="3.56121">
        <ele>1334</ele>
        <time>2009-07-07T07:14:55Z</time>
      </trkpt>
      <trkpt lat="44.62573" lon="3.56128">
        <ele>1333</ele>
        <time>2009-07-07T07:15:08Z</time>
      </trkpt>
      <trkpt lat="44.62567" lon="3.56128">
        <ele>1334</ele>
        <time>2009-07-07T07:15:24Z</time>
      </trkpt>
      <trkpt lat="44.62563" lon="3.5613">
        <ele>1334</ele>
        <time>2009-07-07T07:15:33Z</time>
      </trkpt>
      <trkpt lat="44.62547" lon="3.56129">
        <ele>1335</ele>
        <time>2009-07-07T07:15:43Z</time>
      </trkpt>
      <trkpt lat="44.62521" lon="3.56126">
        <ele>1336</ele>
        <time>2009-07-07T07:15:56Z</time>
      </trkpt>
      <trkpt lat="44.62501" lon="3.56123">
        <ele>1335</ele>
        <time>2009-07-07T07:16:08Z</time>
      </trkpt>
      <trkpt lat="44.62474" lon="3.56118">
        <ele>1334</ele>
        <time>2009-07-07T07:16:25Z</time>
      </trkpt>
      <trkpt lat="44.62467" lon="3.56115">
        <ele>1335</ele>
        <time>2009-07-07T07:16:42Z</time>
      </trkpt>
      <trkpt lat="44.62465" lon="3.56115">
        <ele>1335</ele>
        <time>2009-07-07T07:16:43Z</time>
      </trkpt>
      <trkpt lat="44.6243" lon="3.56105">
        <ele>1334</ele>
        <time>2009-07-07T07:16:58Z</time>
      </trkpt>
      <trkpt lat="44.62381" lon="3.56087">
        <ele>1333</ele>
        <time>2009-07-07T07:17:16Z</time>
      </trkpt>
      <trkpt lat="44.62377" lon="3.56084">
        <ele>1334</ele>
        <time>2009-07-07T07:17:27Z</time>
      </trkpt>
      <trkpt lat="44.62374" lon="3.56082">
        <ele>1334</ele>
        <time>2009-07-07T07:17:36Z</time>
      </trkpt>
      <trkpt lat="44.62371" lon="3.56076">
        <ele>1335</ele>
        <time>2009-07-07T07:17:54Z</time>
      </trkpt>
      <trkpt lat="44.62371" lon="3.56078">
        <ele>1335</ele>
        <time>2009-07-07T07:20:29Z</time>
      </trkpt>
      <trkpt lat="44.62371" lon="3.5608">
        <ele>1334</ele>
        <time>2009-07-07T07:21:17Z</time>
      </trkpt>
      <trkpt lat="44.62371" lon="3.5608">
        <ele>1335</ele>
        <time>2009-07-07T07:21:53Z</time>
      </trkpt>
      <trkpt lat="44.6237" lon="3.56081">
        <ele>1335</ele>
        <time>2009-07-07T07:22:02Z</time>
      </trkpt>
      <trkpt lat="44.62368" lon="3.56086">
        <ele>1335</ele>
        <time>2009-07-07T07:22:05Z</time>
      </trkpt>
      <trkpt lat="44.62371" lon="3.56113">
        <ele>1335</ele>
        <time>2009-07-07T07:22:18Z</time>
      </trkpt>
      <trkpt lat="44.62371" lon="3.56115">
        <ele>1335</ele>
        <time>2009-07-07T07:22:58Z</time>
      </trkpt>
      <trkpt lat="44.62372" lon="3.56116">
        <ele>1335</ele>
        <time>2009-07-07T07:23:24Z</time>
      </trkpt>
      <trkpt lat="44.62372" lon="3.56119">
        <ele>1334</ele>
        <time>2009-07-07T07:24:08Z</time>
      </trkpt>
      <trkpt lat="44.6237" lon="3.56167">
        <ele>1334</ele>
        <time>2009-07-07T07:24:20Z</time>
      </trkpt>
      <trkpt lat="44.62368" lon="3.56176">
        <ele>1334</ele>
        <time>2009-07-07T07:24:28Z</time>
      </trkpt>
      <trkpt lat="44.62368" lon="3.56174">
        <ele>1334</ele>
        <time>2009-07-07T07:24:47Z</time>
      </trkpt>
      <trkpt lat="44.62369" lon="3.56168">
        <ele>1334</ele>
        <time>2009-07-07T07:24:53Z</time>
      </trkpt>
      <trkpt lat="44.62368" lon="3.56154">
        <ele>1334</ele>
        <time>2009-07-07T07:25:00Z</time>
      </trkpt>
      <trkpt lat="44.62366" lon="3.56149">
        <ele>1335</ele>
        <time>2009-07-07T07:25:02Z</time>
      </trkpt>
      <trkpt lat="44.62358" lon="3.56147">
        <ele>1335</ele>
        <time>2009-07-07T07:25:07Z</time>
      </trkpt>
      <trkpt lat="44.62353" lon="3.56145">
        <ele>1335</ele>
        <time>2009-07-07T07:25:11Z</time>
      </trkpt>
      <trkpt lat="44.62351" lon="3.56136">
        <ele>1335</ele>
        <time>2009-07-07T07:25:17Z</time>
      </trkpt>
      <trkpt lat="44.62347" lon="3.56131">
        <ele>1335</ele>
        <time>2009-07-07T07:25:21Z</time>
      </trkpt>
      <trkpt lat="44.62344" lon="3.56123">
        <ele>1335</ele>
        <time>2009-07-07T07:25:25Z</time>
      </trkpt>
      <trkpt lat="44.62336" lon="3.56115">
        <ele>1335</ele>
        <time>2009-07-07T07:25:29Z</time>
      </trkpt>
      <trkpt lat="44.62302" lon="3.56094">
        <ele>1336</ele>
        <time>2009-07-07T07:25:42Z</time>
      </trkpt>
      <trkpt lat="44.62264" lon="3.56088">
        <ele>1337</ele>
        <time>2009-07-07T07:25:55Z</time>
      </trkpt>
      <trkpt lat="44.62256" lon="3.56087">
        <ele>1337</ele>
        <time>2009-07-07T07:26:00Z</time>
      </trkpt>
      <trkpt lat="44.62238" lon="3.56066">
        <ele>1339</ele>
        <time>2009-07-07T07:26:09Z</time>
      </trkpt>
      <trkpt lat="44.62233" lon="3.56073">
        <ele>1340</ele>
        <time>2009-07-07T07:26:16Z</time>
      </trkpt>
      <trkpt lat="44.62234" lon="3.56077">
        <ele>1340</ele>
        <time>2009-07-07T07:26:17Z</time>
      </trkpt>
      <trkpt lat="44.6223" lon="3.56119">
        <ele>1339</ele>
        <time>2009-07-07T07:26:28Z</time>
      </trkpt>
      <trkpt lat="44.62227" lon="3.56157">
        <ele>1338</ele>
        <time>2009-07-07T07:26:36Z</time>
      </trkpt>
      <trkpt lat="44.62213" lon="3.56198">
        <ele>1337</ele>
        <time>2009-07-07T07:26:43Z</time>
      </trkpt>
      <trkpt lat="44.62187" lon="3.56312">
        <ele>1334</ele>
        <time>2009-07-07T07:27:00Z</time>
      </trkpt>
      <trkpt lat="44.62172" lon="3.56371">
        <ele>1338</ele>
        <time>2009-07-07T07:27:13Z</time>
      </trkpt>
      <trkpt lat="44.62168" lon="3.56454">
        <ele>1339</ele>
        <time>2009-07-07T07:27:30Z</time>
      </trkpt>
      <trkpt lat="44.62162" lon="3.56523">
        <ele>1340</ele>
        <time>2009-07-07T07:27:43Z</time>
      </trkpt>
      <trkpt lat="44.62159" lon="3.56559">
        <ele>1339</ele>
        <time>2009-07-07T07:27:49Z</time>
      </trkpt>
      <trkpt lat="44.62152" lon="3.5664">
        <ele>1340</ele>
        <time>2009-07-07T07:28:02Z</time>
      </trkpt>
      <trkpt lat="44.62148" lon="3.56723">
        <ele>1340</ele>
        <time>2009-07-07T07:28:15Z</time>
      </trkpt>
      <trkpt lat="44.62145" lon="3.5681">
        <ele>1341</ele>
        <time>2009-07-07T07:28:28Z</time>
      </trkpt>
      <trkpt lat="44.6214" lon="3.56872">
        <ele>1340</ele>
        <time>2009-07-07T07:28:37Z</time>
      </trkpt>
      <trkpt lat="44.62127" lon="3.56999">
        <ele>1341</ele>
        <time>2009-07-07T07:28:55Z</time>
      </trkpt>
      <trkpt lat="44.62112" lon="3.57102">
        <ele>1341</ele>
        <time>2009-07-07T07:29:09Z</time>
      </trkpt>
      <trkpt lat="44.62104" lon="3.5713">
        <ele>1341</ele>
        <time>2009-07-07T07:29:13Z</time>
      </trkpt>
      <trkpt lat="44.62101" lon="3.57151">
        <ele>1340</ele>
        <time>2009-07-07T07:29:16Z</time>
      </trkpt>
      <trkpt lat="44.62068" lon="3.5727">
        <ele>1341</ele>
        <time>2009-07-07T07:29:34Z</time>
      </trkpt>
      <trkpt lat="44.6206" lon="3.57299">
        <ele>1341</ele>
        <time>2009-07-07T07:29:38Z</time>
      </trkpt>
      <trkpt lat="44.62049" lon="3.57332">
        <ele>1340</ele>
        <time>2009-07-07T07:29:43Z</time>
      </trkpt>
      <trkpt lat="44.62027" lon="3.57399">
        <ele>1340</ele>
        <time>2009-07-07T07:29:53Z</time>
      </trkpt>
      <trkpt lat="44.62013" lon="3.57471">
        <ele>1341</ele>
        <time>2009-07-07T07:30:03Z</time>
      </trkpt>
      <trkpt lat="44.62008" lon="3.57595">
        <ele>1340</ele>
        <time>2009-07-07T07:30:20Z</time>
      </trkpt>
      <trkpt lat="44.62013" lon="3.57733">
        <ele>1340</ele>
        <time>2009-07-07T07:30:38Z</time>
      </trkpt>
      <trkpt lat="44.62017" lon="3.57762">
        <ele>1341</ele>
        <time>2009-07-07T07:30:42Z</time>
      </trkpt>
      <trkpt lat="44.62004" lon="3.5788">
        <ele>1342</ele>
        <time>2009-07-07T07:30:59Z</time>
      </trkpt>
      <trkpt lat="44.61996" lon="3.57905">
        <ele>1343</ele>
        <time>2009-07-07T07:31:03Z</time>
      </trkpt>
      <trkpt lat="44.61956" lon="3.5796">
        <ele>1344</ele>
        <time>2009-07-07T07:31:14Z</time>
      </trkpt>
      <trkpt lat="44.61938" lon="3.57971">
        <ele>1344</ele>
        <time>2009-07-07T07:31:18Z</time>
      </trkpt>
      <trkpt lat="44.61872" lon="3.58001">
        <ele>1345</ele>
        <time>2009-07-07T07:31:33Z</time>
      </trkpt>
      <trkpt lat="44.61832" lon="3.58036">
        <ele>1346</ele>
        <time>2009-07-07T07:31:46Z</time>
      </trkpt>
      <trkpt lat="44.61796" lon="3.58095">
        <ele>1348</ele>
        <time>2009-07-07T07:32:01Z</time>
      </trkpt>
      <trkpt lat="44.61775" lon="3.58189">
        <ele>1349</ele>
        <time>2009-07-07T07:32:18Z</time>
      </trkpt>
      <trkpt lat="44.61772" lon="3.582">
        <ele>1349</ele>
        <time>2009-07-07T07:32:20Z</time>
      </trkpt>
      <trkpt lat="44.6174" lon="3.58284">
        <ele>1350</ele>
        <time>2009-07-07T07:32:36Z</time>
      </trkpt>
      <trkpt lat="44.61723" lon="3.58319">
        <ele>1352</ele>
        <time>2009-07-07T07:32:43Z</time>
      </trkpt>
      <trkpt lat="44.61682" lon="3.58388">
        <ele>1354</ele>
        <time>2009-07-07T07:32:58Z</time>
      </trkpt>
      <trkpt lat="44.61675" lon="3.58395">
        <ele>1354</ele>
        <time>2009-07-07T07:33:00Z</time>
      </trkpt>
      <trkpt lat="44.61596" lon="3.58436">
        <ele>1356</ele>
        <time>2009-07-07T07:33:19Z</time>
      </trkpt>
      <trkpt lat="44.61576" lon="3.5845">
        <ele>1357</ele>
        <time>2009-07-07T07:33:24Z</time>
      </trkpt>
      <trkpt lat="44.6156" lon="3.58462">
        <ele>1358</ele>
        <time>2009-07-07T07:33:28Z</time>
      </trkpt>
      <trkpt lat="44.61534" lon="3.58498">
        <ele>1359</ele>
        <time>2009-07-07T07:33:36Z</time>
      </trkpt>
      <trkpt lat="44.6151" lon="3.58581">
        <ele>1362</ele>
        <time>2009-07-07T07:33:50Z</time>
      </trkpt>
      <trkpt lat="44.61505" lon="3.58702">
        <ele>1364</ele>
        <time>2009-07-07T07:34:09Z</time>
      </trkpt>
      <trkpt lat="44.61494" lon="3.58805">
        <ele>1364</ele>
        <time>2009-07-07T07:34:24Z</time>
      </trkpt>
      <trkpt lat="44.61488" lon="3.58825">
        <ele>1363</ele>
        <time>2009-07-07T07:34:27Z</time>
      </trkpt>
      <trkpt lat="44.61481" lon="3.58844">
        <ele>1362</ele>
        <time>2009-07-07T07:34:30Z</time>
      </trkpt>
      <trkpt lat="44.61474" lon="3.58856">
        <ele>1362</ele>
        <time>2009-07-07T07:34:32Z</time>
      </trkpt>
      <trkpt lat="44.61467" lon="3.58867">
        <ele>1362</ele>
        <time>2009-07-07T07:34:34Z</time>
      </trkpt>
      <trkpt lat="44.61455" lon="3.58873">
        <ele>1362</ele>
        <time>2009-07-07T07:34:38Z</time>
      </trkpt>
      <trkpt lat="44.61453" lon="3.58869">
        <ele>1361</ele>
        <time>2009-07-07T07:34:54Z</time>
      </trkpt>
      <trkpt lat="44.6145" lon="3.58864">
        <ele>1363</ele>
        <time>2009-07-07T07:36:40Z</time>
      </trkpt>
      <trkpt lat="44.61455" lon="3.58864">
        <ele>1363</ele>
        <time>2009-07-07T07:37:57Z</time>
      </trkpt>
      <trkpt lat="44.61454" lon="3.58864">
        <ele>1363</ele>
        <time>2009-07-07T07:38:07Z</time>
      </trkpt>
      <trkpt lat="44.61447" lon="3.58888">
        <ele>1361</ele>
        <time>2009-07-07T07:38:14Z</time>
      </trkpt>
      <trkpt lat="44.61401" lon="3.58925">
        <ele>1359</ele>
        <time>2009-07-07T07:38:27Z</time>
      </trkpt>
      <trkpt lat="44.61334" lon="3.58981">
        <ele>1357</ele>
        <time>2009-07-07T07:38:42Z</time>
      </trkpt>
      <trkpt lat="44.61291" lon="3.59018">
        <ele>1360</ele>
        <time>2009-07-07T07:38:53Z</time>
      </trkpt>
      <trkpt lat="44.61233" lon="3.59076">
        <ele>1360</ele>
        <time>2009-07-07T07:39:08Z</time>
      </trkpt>
      <trkpt lat="44.61168" lon="3.59146">
        <ele>1362</ele>
        <time>2009-07-07T07:39:26Z</time>
      </trkpt>
      <trkpt lat="44.61118" lon="3.59202">
        <ele>1363</ele>
        <time>2009-07-07T07:39:40Z</time>
      </trkpt>
      <trkpt lat="44.61071" lon="3.59255">
        <ele>1364</ele>
        <time>2009-07-07T07:39:55Z</time>
      </trkpt>
      <trkpt lat="44.61045" lon="3.59293">
        <ele>1367</ele>
        <time>2009-07-07T07:40:05Z</time>
      </trkpt>
      <trkpt lat="44.60997" lon="3.59383">
        <ele>1368</ele>
        <time>2009-07-07T07:40:25Z</time>
      </trkpt>
      <trkpt lat="44.60981" lon="3.59421">
        <ele>1369</ele>
        <time>2009-07-07T07:40:33Z</time>
      </trkpt>
      <trkpt lat="44.60955" lon="3.59493">
        <ele>1371</ele>
        <time>2009-07-07T07:40:47Z</time>
      </trkpt>
      <trkpt lat="44.60951" lon="3.59577">
        <ele>1372</ele>
        <time>2009-07-07T07:41:02Z</time>
      </trkpt>
      <trkpt lat="44.60956" lon="3.5961">
        <ele>1373</ele>
        <time>2009-07-07T07:41:08Z</time>
      </trkpt>
      <trkpt lat="44.60967" lon="3.59641">
        <ele>1372</ele>
        <time>2009-07-07T07:41:14Z</time>
      </trkpt>
      <trkpt lat="44.60982" lon="3.59677">
        <ele>1373</ele>
        <time>2009-07-07T07:41:21Z</time>
      </trkpt>
      <trkpt lat="44.60996" lon="3.5973">
        <ele>1374</ele>
        <time>2009-07-07T07:41:31Z</time>
      </trkpt>
      <trkpt lat="44.61" lon="3.59797">
        <ele>1375</ele>
        <time>2009-07-07T07:41:43Z</time>
      </trkpt>
      <trkpt lat="44.60987" lon="3.59868">
        <ele>1378</ele>
        <time>2009-07-07T07:41:56Z</time>
      </trkpt>
      <trkpt lat="44.6098" lon="3.59901">
        <ele>1379</ele>
        <time>2009-07-07T07:42:02Z</time>
      </trkpt>
      <trkpt lat="44.60969" lon="3.59983">
        <ele>1380</ele>
        <time>2009-07-07T07:42:17Z</time>
      </trkpt>
      <trkpt lat="44.60965" lon="3.60051">
        <ele>1381</ele>
        <time>2009-07-07T07:42:30Z</time>
      </trkpt>
      <trkpt lat="44.60954" lon="3.6014">
        <ele>1384</ele>
        <time>2009-07-07T07:42:47Z</time>
      </trkpt>
      <trkpt lat="44.60945" lon="3.60251">
        <ele>1386</ele>
        <time>2009-07-07T07:43:08Z</time>
      </trkpt>
      <trkpt lat="44.60959" lon="3.60334">
        <ele>1387</ele>
        <time>2009-07-07T07:43:24Z</time>
      </trkpt>
      <trkpt lat="44.60963" lon="3.6038">
        <ele>1389</ele>
        <time>2009-07-07T07:43:33Z</time>
      </trkpt>
      <trkpt lat="44.60947" lon="3.60476">
        <ele>1392</ele>
        <time>2009-07-07T07:43:52Z</time>
      </trkpt>
      <trkpt lat="44.60943" lon="3.60495">
        <ele>1392</ele>
        <time>2009-07-07T07:43:57Z</time>
      </trkpt>
      <trkpt lat="44.60936" lon="3.60495">
        <ele>1393</ele>
        <time>2009-07-07T07:44:07Z</time>
      </trkpt>
      <trkpt lat="44.60937" lon="3.60492">
        <ele>1393</ele>
        <time>2009-07-07T07:44:49Z</time>
      </trkpt>
      <trkpt lat="44.60936" lon="3.60491">
        <ele>1389</ele>
        <time>2009-07-07T07:45:32Z</time>
      </trkpt>
      <trkpt lat="44.60937" lon="3.60491">
        <ele>1395</ele>
        <time>2009-07-07T07:45:33Z</time>
      </trkpt>
      <trkpt lat="44.60936" lon="3.60491">
        <ele>1392</ele>
        <time>2009-07-07T07:45:38Z</time>
      </trkpt>
      <trkpt lat="44.60936" lon="3.60491">
        <ele>1388</ele>
        <time>2009-07-07T07:45:47Z</time>
      </trkpt>
      <trkpt lat="44.60936" lon="3.60491">
        <ele>1396</ele>
        <time>2009-07-07T07:45:48Z</time>
      </trkpt>
      <trkpt lat="44.60936" lon="3.60491">
        <ele>1391</ele>
        <time>2009-07-07T07:45:49Z</time>
      </trkpt>
      <trkpt lat="44.60937" lon="3.6049">
        <ele>1391</ele>
        <time>2009-07-07T07:46:42Z</time>
      </trkpt>
      <trkpt lat="44.60921" lon="3.60468">
        <ele>1391</ele>
        <time>2009-07-07T07:47:11Z</time>
      </trkpt>
      <trkpt lat="44.60861" lon="3.60378">
        <ele>1389</ele>
        <time>2009-07-07T07:47:31Z</time>
      </trkpt>
      <trkpt lat="44.60832" lon="3.60294">
        <ele>1390</ele>
        <time>2009-07-07T07:47:45Z</time>
      </trkpt>
      <trkpt lat="44.60828" lon="3.6026">
        <ele>1391</ele>
        <time>2009-07-07T07:47:51Z</time>
      </trkpt>
      <trkpt lat="44.60824" lon="3.60227">
        <ele>1394</ele>
        <time>2009-07-07T07:47:57Z</time>
      </trkpt>
      <trkpt lat="44.6082" lon="3.602">
        <ele>1395</ele>
        <time>2009-07-07T07:48:02Z</time>
      </trkpt>
      <trkpt lat="44.60799" lon="3.60086">
        <ele>1398</ele>
        <time>2009-07-07T07:48:24Z</time>
      </trkpt>
      <trkpt lat="44.60769" lon="3.6003">
        <ele>1394</ele>
        <time>2009-07-07T07:48:34Z</time>
      </trkpt>
      <trkpt lat="44.6075" lon="3.60004">
        <ele>1391</ele>
        <time>2009-07-07T07:48:38Z</time>
      </trkpt>
      <trkpt lat="44.60745" lon="3.59996">
        <ele>1392</ele>
        <time>2009-07-07T07:48:39Z</time>
      </trkpt>
      <trkpt lat="44.60734" lon="3.59981">
        <ele>1388</ele>
        <time>2009-07-07T07:48:41Z</time>
      </trkpt>
      <trkpt lat="44.60728" lon="3.59973">
        <ele>1388</ele>
        <time>2009-07-07T07:48:42Z</time>
      </trkpt>
      <trkpt lat="44.60661" lon="3.59881">
        <ele>1385</ele>
        <time>2009-07-07T07:48:53Z</time>
      </trkpt>
      <trkpt lat="44.60599" lon="3.59791">
        <ele>1386</ele>
        <time>2009-07-07T07:49:06Z</time>
      </trkpt>
      <trkpt lat="44.60542" lon="3.59689">
        <ele>1388</ele>
        <time>2009-07-07T07:49:24Z</time>
      </trkpt>
      <trkpt lat="44.60508" lon="3.59611">
        <ele>1392</ele>
        <time>2009-07-07T07:49:40Z</time>
      </trkpt>
      <trkpt lat="44.60504" lon="3.59609">
        <ele>1391</ele>
        <time>2009-07-07T07:49:42Z</time>
      </trkpt>
      <trkpt lat="44.60491" lon="3.59628">
        <ele>1392</ele>
        <time>2009-07-07T07:49:54Z</time>
      </trkpt>
      <trkpt lat="44.60479" lon="3.59654">
        <ele>1391</ele>
        <time>2009-07-07T07:50:03Z</time>
      </trkpt>
      <trkpt lat="44.60448" lon="3.59729">
        <ele>1389</ele>
        <time>2009-07-07T07:50:17Z</time>
      </trkpt>
      <trkpt lat="44.60386" lon="3.59801">
        <ele>1386</ele>
        <time>2009-07-07T07:50:29Z</time>
      </trkpt>
      <trkpt lat="44.60365" lon="3.59819">
        <ele>1383</ele>
        <time>2009-07-07T07:50:32Z</time>
      </trkpt>
      <trkpt lat="44.60358" lon="3.59825">
        <ele>1383</ele>
        <time>2009-07-07T07:50:33Z</time>
      </trkpt>
      <trkpt lat="44.60287" lon="3.5991">
        <ele>1380</ele>
        <time>2009-07-07T07:50:43Z</time>
      </trkpt>
      <trkpt lat="44.60269" lon="3.59945">
        <ele>1376</ele>
        <time>2009-07-07T07:50:46Z</time>
      </trkpt>
      <trkpt lat="44.60218" lon="3.60031">
        <ele>1373</ele>
        <time>2009-07-07T07:50:53Z</time>
      </trkpt>
      <trkpt lat="44.60177" lon="3.60095">
        <ele>1368</ele>
        <time>2009-07-07T07:50:58Z</time>
      </trkpt>
      <trkpt lat="44.60159" lon="3.60123">
        <ele>1368</ele>
        <time>2009-07-07T07:51:00Z</time>
      </trkpt>
      <trkpt lat="44.6012" lon="3.60174">
        <ele>1364</ele>
        <time>2009-07-07T07:51:04Z</time>
      </trkpt>
      <trkpt lat="44.601" lon="3.60199">
        <ele>1362</ele>
        <time>2009-07-07T07:51:06Z</time>
      </trkpt>
      <trkpt lat="44.60091" lon="3.60212">
        <ele>1363</ele>
        <time>2009-07-07T07:51:07Z</time>
      </trkpt>
      <trkpt lat="44.60074" lon="3.60255">
        <ele>1360</ele>
        <time>2009-07-07T07:51:10Z</time>
      </trkpt>
      <trkpt lat="44.60056" lon="3.60291">
        <ele>1361</ele>
        <time>2009-07-07T07:51:13Z</time>
      </trkpt>
      <trkpt lat="44.60019" lon="3.60377">
        <ele>1361</ele>
        <time>2009-07-07T07:51:21Z</time>
      </trkpt>
      <trkpt lat="44.59966" lon="3.60434">
        <ele>1363</ele>
        <time>2009-07-07T07:51:30Z</time>
      </trkpt>
      <trkpt lat="44.5995" lon="3.60446">
        <ele>1364</ele>
        <time>2009-07-07T07:51:33Z</time>
      </trkpt>
      <trkpt lat="44.59869" lon="3.60503">
        <ele>1366</ele>
        <time>2009-07-07T07:51:50Z</time>
      </trkpt>
      <trkpt lat="44.59837" lon="3.6052">
        <ele>1366</ele>
        <time>2009-07-07T07:51:57Z</time>
      </trkpt>
      <trkpt lat="44.59808" lon="3.60519">
        <ele>1367</ele>
        <time>2009-07-07T07:52:03Z</time>
      </trkpt>
      <trkpt lat="44.59732" lon="3.60484">
        <ele>1369</ele>
        <time>2009-07-07T07:52:20Z</time>
      </trkpt>
      <trkpt lat="44.59719" lon="3.60473">
        <ele>1369</ele>
        <time>2009-07-07T07:52:23Z</time>
      </trkpt>
      <trkpt lat="44.59693" lon="3.60433">
        <ele>1370</ele>
        <time>2009-07-07T07:52:35Z</time>
      </trkpt>
      <trkpt lat="44.59677" lon="3.604">
        <ele>1368</ele>
        <time>2009-07-07T07:52:47Z</time>
      </trkpt>
      <trkpt lat="44.59671" lon="3.6034">
        <ele>1368</ele>
        <time>2009-07-07T07:52:57Z</time>
      </trkpt>
      <trkpt lat="44.59673" lon="3.60295">
        <ele>1365</ele>
        <time>2009-07-07T07:53:05Z</time>
      </trkpt>
      <trkpt lat="44.59673" lon="3.60246">
        <ele>1361</ele>
        <time>2009-07-07T07:53:11Z</time>
      </trkpt>
      <trkpt lat="44.59673" lon="3.60236">
        <ele>1363</ele>
        <time>2009-07-07T07:53:12Z</time>
      </trkpt>
      <trkpt lat="44.59674" lon="3.60207">
        <ele>1360</ele>
        <time>2009-07-07T07:53:15Z</time>
      </trkpt>
      <trkpt lat="44.59668" lon="3.6015">
        <ele>1360</ele>
        <time>2009-07-07T07:53:21Z</time>
      </trkpt>
      <trkpt lat="44.59653" lon="3.60119">
        <ele>1360</ele>
        <time>2009-07-07T07:53:26Z</time>
      </trkpt>
      <trkpt lat="44.59638" lon="3.60096">
        <ele>1358</ele>
        <time>2009-07-07T07:53:30Z</time>
      </trkpt>
      <trkpt lat="44.59624" lon="3.60082">
        <ele>1358</ele>
        <time>2009-07-07T07:53:33Z</time>
      </trkpt>
      <trkpt lat="44.59601" lon="3.60073">
        <ele>1358</ele>
        <time>2009-07-07T07:53:37Z</time>
      </trkpt>
      <trkpt lat="44.59583" lon="3.6007">
        <ele>1357</ele>
        <time>2009-07-07T07:53:40Z</time>
      </trkpt>
      <trkpt lat="44.59571" lon="3.60071">
        <ele>1356</ele>
        <time>2009-07-07T07:53:42Z</time>
      </trkpt>
      <trkpt lat="44.59508" lon="3.60071">
        <ele>1353</ele>
        <time>2009-07-07T07:53:51Z</time>
      </trkpt>
      <trkpt lat="44.59495" lon="3.60069">
        <ele>1352</ele>
        <time>2009-07-07T07:53:53Z</time>
      </trkpt>
      <trkpt lat="44.59476" lon="3.60071">
        <ele>1353</ele>
        <time>2009-07-07T07:53:56Z</time>
      </trkpt>
      <trkpt lat="44.59389" lon="3.6008">
        <ele>1349</ele>
        <time>2009-07-07T07:54:11Z</time>
      </trkpt>
      <trkpt lat="44.59338" lon="3.60073">
        <ele>1346</ele>
        <time>2009-07-07T07:54:19Z</time>
      </trkpt>
      <trkpt lat="44.59331" lon="3.60072">
        <ele>1346</ele>
        <time>2009-07-07T07:54:20Z</time>
      </trkpt>
      <trkpt lat="44.59269" lon="3.60055">
        <ele>1343</ele>
        <time>2009-07-07T07:54:28Z</time>
      </trkpt>
      <trkpt lat="44.59254" lon="3.60051">
        <ele>1342</ele>
        <time>2009-07-07T07:54:30Z</time>
      </trkpt>
      <trkpt lat="44.59148" lon="3.60037">
        <ele>1340</ele>
        <time>2009-07-07T07:54:45Z</time>
      </trkpt>
      <trkpt lat="44.59142" lon="3.60039">
        <ele>1339</ele>
        <time>2009-07-07T07:54:46Z</time>
      </trkpt>
      <trkpt lat="44.59128" lon="3.60045">
        <ele>1338</ele>
        <time>2009-07-07T07:54:48Z</time>
      </trkpt>
      <trkpt lat="44.59082" lon="3.60077">
        <ele>1336</ele>
        <time>2009-07-07T07:54:55Z</time>
      </trkpt>
      <trkpt lat="44.59056" lon="3.60099">
        <ele>1333</ele>
        <time>2009-07-07T07:54:59Z</time>
      </trkpt>
      <trkpt lat="44.58954" lon="3.60201">
        <ele>1328</ele>
        <time>2009-07-07T07:55:13Z</time>
      </trkpt>
      <trkpt lat="44.58946" lon="3.60209">
        <ele>1328</ele>
        <time>2009-07-07T07:55:14Z</time>
      </trkpt>
      <trkpt lat="44.58923" lon="3.60235">
        <ele>1324</ele>
        <time>2009-07-07T07:55:17Z</time>
      </trkpt>
      <trkpt lat="44.58916" lon="3.60243">
        <ele>1324</ele>
        <time>2009-07-07T07:55:18Z</time>
      </trkpt>
      <trkpt lat="44.58885" lon="3.60278">
        <ele>1321</ele>
        <time>2009-07-07T07:55:22Z</time>
      </trkpt>
      <trkpt lat="44.58857" lon="3.60318">
        <ele>1318</ele>
        <time>2009-07-07T07:55:26Z</time>
      </trkpt>
      <trkpt lat="44.58851" lon="3.60329">
        <ele>1316</ele>
        <time>2009-07-07T07:55:27Z</time>
      </trkpt>
      <trkpt lat="44.58815" lon="3.60415">
        <ele>1312</ele>
        <time>2009-07-07T07:55:33Z</time>
      </trkpt>
      <trkpt lat="44.58783" lon="3.60479">
        <ele>1309</ele>
        <time>2009-07-07T07:55:38Z</time>
      </trkpt>
      <trkpt lat="44.5877" lon="3.60504">
        <ele>1307</ele>
        <time>2009-07-07T07:55:40Z</time>
      </trkpt>
      <trkpt lat="44.58749" lon="3.60538">
        <ele>1306</ele>
        <time>2009-07-07T07:55:43Z</time>
      </trkpt>
      <trkpt lat="44.5871" lon="3.6059">
        <ele>1303</ele>
        <time>2009-07-07T07:55:48Z</time>
      </trkpt>
      <trkpt lat="44.58696" lon="3.60609">
        <ele>1303</ele>
        <time>2009-07-07T07:55:50Z</time>
      </trkpt>
      <trkpt lat="44.58644" lon="3.60709">
        <ele>1300</ele>
        <time>2009-07-07T07:55:59Z</time>
      </trkpt>
      <trkpt lat="44.58604" lon="3.60748">
        <ele>1297</ele>
        <time>2009-07-07T07:56:04Z</time>
      </trkpt>
      <trkpt lat="44.58579" lon="3.60765">
        <ele>1295</ele>
        <time>2009-07-07T07:56:07Z</time>
      </trkpt>
      <trkpt lat="44.58571" lon="3.60768">
        <ele>1295</ele>
        <time>2009-07-07T07:56:08Z</time>
      </trkpt>
      <trkpt lat="44.58524" lon="3.6075">
        <ele>1293</ele>
        <time>2009-07-07T07:56:14Z</time>
      </trkpt>
      <trkpt lat="44.58501" lon="3.60746">
        <ele>1291</ele>
        <time>2009-07-07T07:56:17Z</time>
      </trkpt>
      <trkpt lat="44.58477" lon="3.60751">
        <ele>1289</ele>
        <time>2009-07-07T07:56:20Z</time>
      </trkpt>
      <trkpt lat="44.58439" lon="3.60807">
        <ele>1286</ele>
        <time>2009-07-07T07:56:27Z</time>
      </trkpt>
      <trkpt lat="44.58434" lon="3.60817">
        <ele>1286</ele>
        <time>2009-07-07T07:56:28Z</time>
      </trkpt>
      <trkpt lat="44.58362" lon="3.60909">
        <ele>1282</ele>
        <time>2009-07-07T07:56:39Z</time>
      </trkpt>
      <trkpt lat="44.58343" lon="3.60945">
        <ele>1281</ele>
        <time>2009-07-07T07:56:43Z</time>
      </trkpt>
      <trkpt lat="44.5831" lon="3.60991">
        <ele>1277</ele>
        <time>2009-07-07T07:56:49Z</time>
      </trkpt>
      <trkpt lat="44.58285" lon="3.61001">
        <ele>1276</ele>
        <time>2009-07-07T07:56:52Z</time>
      </trkpt>
      <trkpt lat="44.58251" lon="3.6101">
        <ele>1275</ele>
        <time>2009-07-07T07:56:56Z</time>
      </trkpt>
      <trkpt lat="44.58236" lon="3.61019">
        <ele>1274</ele>
        <time>2009-07-07T07:56:58Z</time>
      </trkpt>
      <trkpt lat="44.58203" lon="3.61032">
        <ele>1273</ele>
        <time>2009-07-07T07:57:03Z</time>
      </trkpt>
      <trkpt lat="44.58166" lon="3.61039">
        <ele>1269</ele>
        <time>2009-07-07T07:57:08Z</time>
      </trkpt>
      <trkpt lat="44.58093" lon="3.61085">
        <ele>1265</ele>
        <time>2009-07-07T07:57:18Z</time>
      </trkpt>
      <trkpt lat="44.58034" lon="3.61118">
        <ele>1264</ele>
        <time>2009-07-07T07:57:28Z</time>
      </trkpt>
      <trkpt lat="44.58023" lon="3.61126">
        <ele>1262</ele>
        <time>2009-07-07T07:57:30Z</time>
      </trkpt>
      <trkpt lat="44.5797" lon="3.61154">
        <ele>1259</ele>
        <time>2009-07-07T07:57:39Z</time>
      </trkpt>
      <trkpt lat="44.57928" lon="3.61171">
        <ele>1258</ele>
        <time>2009-07-07T07:57:45Z</time>
      </trkpt>
      <trkpt lat="44.57881" lon="3.61193">
        <ele>1256</ele>
        <time>2009-07-07T07:57:52Z</time>
      </trkpt>
      <trkpt lat="44.57796" lon="3.61187">
        <ele>1252</ele>
        <time>2009-07-07T07:58:05Z</time>
      </trkpt>
      <trkpt lat="44.57762" lon="3.6118">
        <ele>1251</ele>
        <time>2009-07-07T07:58:10Z</time>
      </trkpt>
      <trkpt lat="44.57708" lon="3.61155">
        <ele>1249</ele>
        <time>2009-07-07T07:58:18Z</time>
      </trkpt>
      <trkpt lat="44.57671" lon="3.6115">
        <ele>1246</ele>
        <time>2009-07-07T07:58:23Z</time>
      </trkpt>
      <trkpt lat="44.57615" lon="3.61158">
        <ele>1242</ele>
        <time>2009-07-07T07:58:30Z</time>
      </trkpt>
      <trkpt lat="44.57607" lon="3.61159">
        <ele>1242</ele>
        <time>2009-07-07T07:58:31Z</time>
      </trkpt>
      <trkpt lat="44.57555" lon="3.61151">
        <ele>1239</ele>
        <time>2009-07-07T07:58:37Z</time>
      </trkpt>
      <trkpt lat="44.57526" lon="3.61151">
        <ele>1237</ele>
        <time>2009-07-07T07:58:40Z</time>
      </trkpt>
      <trkpt lat="44.57497" lon="3.61159">
        <ele>1234</ele>
        <time>2009-07-07T07:58:43Z</time>
      </trkpt>
      <trkpt lat="44.57487" lon="3.61163">
        <ele>1233</ele>
        <time>2009-07-07T07:58:44Z</time>
      </trkpt>
      <trkpt lat="44.57461" lon="3.61174">
        <ele>1231</ele>
        <time>2009-07-07T07:58:47Z</time>
      </trkpt>
      <trkpt lat="44.57438" lon="3.61182">
        <ele>1230</ele>
        <time>2009-07-07T07:58:50Z</time>
      </trkpt>
      <trkpt lat="44.57418" lon="3.61194">
        <ele>1229</ele>
        <time>2009-07-07T07:58:54Z</time>
      </trkpt>
      <trkpt lat="44.57411" lon="3.612">
        <ele>1227</ele>
        <time>2009-07-07T07:59:02Z</time>
      </trkpt>
      <trkpt lat="44.57412" lon="3.61202">
        <ele>1227</ele>
        <time>2009-07-07T07:59:54Z</time>
      </trkpt>
      <trkpt lat="44.57413" lon="3.61204">
        <ele>1228</ele>
        <time>2009-07-07T08:00:59Z</time>
      </trkpt>
      <trkpt lat="44.57414" lon="3.61204">
        <ele>1226</ele>
        <time>2009-07-07T08:01:13Z</time>
      </trkpt>
      <trkpt lat="44.57414" lon="3.61205">
        <ele>1228</ele>
        <time>2009-07-07T08:01:35Z</time>
      </trkpt>
      <trkpt lat="44.57407" lon="3.61216">
        <ele>1226</ele>
        <time>2009-07-07T08:01:40Z</time>
      </trkpt>
      <trkpt lat="44.57393" lon="3.61234">
        <ele>1222</ele>
        <time>2009-07-07T08:01:44Z</time>
      </trkpt>
      <trkpt lat="44.57388" lon="3.6124">
        <ele>1222</ele>
        <time>2009-07-07T08:01:45Z</time>
      </trkpt>
      <trkpt lat="44.57366" lon="3.61269">
        <ele>1219</ele>
        <time>2009-07-07T08:01:49Z</time>
      </trkpt>
      <trkpt lat="44.57341" lon="3.61307">
        <ele>1216</ele>
        <time>2009-07-07T08:01:53Z</time>
      </trkpt>
      <trkpt lat="44.57303" lon="3.61382">
        <ele>1214</ele>
        <time>2009-07-07T08:02:00Z</time>
      </trkpt>
      <trkpt lat="44.5724" lon="3.61505">
        <ele>1210</ele>
        <time>2009-07-07T08:02:12Z</time>
      </trkpt>
      <trkpt lat="44.57188" lon="3.61581">
        <ele>1207</ele>
        <time>2009-07-07T08:02:20Z</time>
      </trkpt>
      <trkpt lat="44.57174" lon="3.61596">
        <ele>1207</ele>
        <time>2009-07-07T08:02:22Z</time>
      </trkpt>
      <trkpt lat="44.57144" lon="3.61618">
        <ele>1202</ele>
        <time>2009-07-07T08:02:26Z</time>
      </trkpt>
      <trkpt lat="44.57137" lon="3.61623">
        <ele>1201</ele>
        <time>2009-07-07T08:02:27Z</time>
      </trkpt>
      <trkpt lat="44.57113" lon="3.61631">
        <ele>1196</ele>
        <time>2009-07-07T08:02:30Z</time>
      </trkpt>
      <trkpt lat="44.57103" lon="3.61633">
        <ele>1196</ele>
        <time>2009-07-07T08:02:31Z</time>
      </trkpt>
      <trkpt lat="44.57084" lon="3.61637">
        <ele>1192</ele>
        <time>2009-07-07T08:02:33Z</time>
      </trkpt>
      <trkpt lat="44.57044" lon="3.6164">
        <ele>1188</ele>
        <time>2009-07-07T08:02:37Z</time>
      </trkpt>
      <trkpt lat="44.57034" lon="3.61641">
        <ele>1188</ele>
        <time>2009-07-07T08:02:38Z</time>
      </trkpt>
      <trkpt lat="44.56978" lon="3.61646">
        <ele>1182</ele>
        <time>2009-07-07T08:02:43Z</time>
      </trkpt>
      <trkpt lat="44.56955" lon="3.61649">
        <ele>1179</ele>
        <time>2009-07-07T08:02:45Z</time>
      </trkpt>
      <trkpt lat="44.56924" lon="3.61651">
        <ele>1175</ele>
        <time>2009-07-07T08:02:48Z</time>
      </trkpt>
      <trkpt lat="44.56894" lon="3.61651">
        <ele>1175</ele>
        <time>2009-07-07T08:02:53Z</time>
      </trkpt>
      <trkpt lat="44.56881" lon="3.61658">
        <ele>1173</ele>
        <time>2009-07-07T08:02:56Z</time>
      </trkpt>
      <trkpt lat="44.56871" lon="3.61658">
        <ele>1173</ele>
        <time>2009-07-07T08:03:04Z</time>
      </trkpt>
      <trkpt lat="44.56873" lon="3.61655">
        <ele>1172</ele>
        <time>2009-07-07T08:03:45Z</time>
      </trkpt>
      <trkpt lat="44.56874" lon="3.61654">
        <ele>1172</ele>
        <time>2009-07-07T08:04:07Z</time>
      </trkpt>
      <trkpt lat="44.56874" lon="3.61654">
        <ele>1172</ele>
        <time>2009-07-07T08:04:17Z</time>
      </trkpt>
      <trkpt lat="44.56857" lon="3.61651">
        <ele>1171</ele>
        <time>2009-07-07T08:04:26Z</time>
      </trkpt>
      <trkpt lat="44.56852" lon="3.61652">
        <ele>1170</ele>
        <time>2009-07-07T08:04:29Z</time>
      </trkpt>
      <trkpt lat="44.56833" lon="3.61671">
        <ele>1168</ele>
        <time>2009-07-07T08:04:37Z</time>
      </trkpt>
      <trkpt lat="44.56827" lon="3.61705">
        <ele>1167</ele>
        <time>2009-07-07T08:04:43Z</time>
      </trkpt>
      <trkpt lat="44.5681" lon="3.61709">
        <ele>1165</ele>
        <time>2009-07-07T08:04:48Z</time>
      </trkpt>
      <trkpt lat="44.5677" lon="3.61691">
        <ele>1158</ele>
        <time>2009-07-07T08:04:55Z</time>
      </trkpt>
      <trkpt lat="44.56752" lon="3.61683">
        <ele>1156</ele>
        <time>2009-07-07T08:04:58Z</time>
      </trkpt>
      <trkpt lat="44.5673" lon="3.6169">
        <ele>1153</ele>
        <time>2009-07-07T08:05:04Z</time>
      </trkpt>
      <trkpt lat="44.5671" lon="3.61711">
        <ele>1152</ele>
        <time>2009-07-07T08:05:09Z</time>
      </trkpt>
      <trkpt lat="44.56695" lon="3.6171">
        <ele>1152</ele>
        <time>2009-07-07T08:05:13Z</time>
      </trkpt>
      <trkpt lat="44.56677" lon="3.61692">
        <ele>1154</ele>
        <time>2009-07-07T08:05:23Z</time>
      </trkpt>
      <trkpt lat="44.56668" lon="3.61699">
        <ele>1155</ele>
        <time>2009-07-07T08:05:29Z</time>
      </trkpt>
      <trkpt lat="44.56658" lon="3.61719">
        <ele>1159</ele>
        <time>2009-07-07T08:05:39Z</time>
      </trkpt>
      <trkpt lat="44.56656" lon="3.61722">
        <ele>1159</ele>
        <time>2009-07-07T08:05:41Z</time>
      </trkpt>
      <trkpt lat="44.56643" lon="3.61726">
        <ele>1160</ele>
        <time>2009-07-07T08:05:50Z</time>
      </trkpt>
      <trkpt lat="44.56635" lon="3.61739">
        <ele>1161</ele>
        <time>2009-07-07T08:05:56Z</time>
      </trkpt>
      <trkpt lat="44.56609" lon="3.618">
        <ele>1159</ele>
        <time>2009-07-07T08:06:10Z</time>
      </trkpt>
      <trkpt lat="44.56585" lon="3.61839">
        <ele>1160</ele>
        <time>2009-07-07T08:06:21Z</time>
      </trkpt>
      <trkpt lat="44.56554" lon="3.61856">
        <ele>1161</ele>
        <time>2009-07-07T08:06:33Z</time>
      </trkpt>
      <trkpt lat="44.56537" lon="3.61873">
        <ele>1163</ele>
        <time>2009-07-07T08:06:41Z</time>
      </trkpt>
      <trkpt lat="44.56535" lon="3.61878">
        <ele>1163</ele>
        <time>2009-07-07T08:06:43Z</time>
      </trkpt>
      <trkpt lat="44.56515" lon="3.61896">
        <ele>1165</ele>
        <time>2009-07-07T08:06:52Z</time>
      </trkpt>
      <trkpt lat="44.56498" lon="3.619">
        <ele>1168</ele>
        <time>2009-07-07T08:07:03Z</time>
      </trkpt>
      <trkpt lat="44.56478" lon="3.61912">
        <ele>1171</ele>
        <time>2009-07-07T08:07:17Z</time>
      </trkpt>
      <trkpt lat="44.56467" lon="3.61923">
        <ele>1175</ele>
        <time>2009-07-07T08:07:27Z</time>
      </trkpt>
      <trkpt lat="44.56459" lon="3.61931">
        <ele>1178</ele>
        <time>2009-07-07T08:07:35Z</time>
      </trkpt>
      <trkpt lat="44.56446" lon="3.61947">
        <ele>1181</ele>
        <time>2009-07-07T08:07:44Z</time>
      </trkpt>
      <trkpt lat="44.56426" lon="3.61959">
        <ele>1183</ele>
        <time>2009-07-07T08:07:58Z</time>
      </trkpt>
      <trkpt lat="44.56414" lon="3.61961">
        <ele>1184</ele>
        <time>2009-07-07T08:08:06Z</time>
      </trkpt>
      <trkpt lat="44.5639" lon="3.61972">
        <ele>1185</ele>
        <time>2009-07-07T08:08:21Z</time>
      </trkpt>
      <trkpt lat="44.56363" lon="3.6199">
        <ele>1187</ele>
        <time>2009-07-07T08:08:36Z</time>
      </trkpt>
      <trkpt lat="44.56344" lon="3.62002">
        <ele>1189</ele>
        <time>2009-07-07T08:08:44Z</time>
      </trkpt>
      <trkpt lat="44.56342" lon="3.62003">
        <ele>1188</ele>
        <time>2009-07-07T08:08:45Z</time>
      </trkpt>
      <trkpt lat="44.56318" lon="3.62013">
        <ele>1190</ele>
        <time>2009-07-07T08:08:56Z</time>
      </trkpt>
      <trkpt lat="44.5628" lon="3.62018">
        <ele>1193</ele>
        <time>2009-07-07T08:09:12Z</time>
      </trkpt>
      <trkpt lat="44.56251" lon="3.62006">
        <ele>1195</ele>
        <time>2009-07-07T08:09:24Z</time>
      </trkpt>
      <trkpt lat="44.56224" lon="3.61946">
        <ele>1196</ele>
        <time>2009-07-07T08:09:43Z</time>
      </trkpt>
      <trkpt lat="44.56203" lon="3.61896">
        <ele>1198</ele>
        <time>2009-07-07T08:10:00Z</time>
      </trkpt>
      <trkpt lat="44.56173" lon="3.61881">
        <ele>1197</ele>
        <time>2009-07-07T08:10:10Z</time>
      </trkpt>
      <trkpt lat="44.56161" lon="3.61877">
        <ele>1196</ele>
        <time>2009-07-07T08:10:13Z</time>
      </trkpt>
      <trkpt lat="44.56144" lon="3.61879">
        <ele>1196</ele>
        <time>2009-07-07T08:10:17Z</time>
      </trkpt>
      <trkpt lat="44.56105" lon="3.6189">
        <ele>1192</ele>
        <time>2009-07-07T08:10:26Z</time>
      </trkpt>
      <trkpt lat="44.56095" lon="3.61892">
        <ele>1190</ele>
        <time>2009-07-07T08:10:28Z</time>
      </trkpt>
      <trkpt lat="44.56085" lon="3.61897">
        <ele>1189</ele>
        <time>2009-07-07T08:10:30Z</time>
      </trkpt>
      <trkpt lat="44.5608" lon="3.61901">
        <ele>1190</ele>
        <time>2009-07-07T08:10:31Z</time>
      </trkpt>
      <trkpt lat="44.56027" lon="3.6193">
        <ele>1187</ele>
        <time>2009-07-07T08:10:40Z</time>
      </trkpt>
      <trkpt lat="44.55987" lon="3.61953">
        <ele>1184</ele>
        <time>2009-07-07T08:10:47Z</time>
      </trkpt>
      <trkpt lat="44.55981" lon="3.61957">
        <ele>1183</ele>
        <time>2009-07-07T08:10:48Z</time>
      </trkpt>
      <trkpt lat="44.55968" lon="3.61964">
        <ele>1182</ele>
        <time>2009-07-07T08:10:50Z</time>
      </trkpt>
      <trkpt lat="44.55956" lon="3.61972">
        <ele>1181</ele>
        <time>2009-07-07T08:10:52Z</time>
      </trkpt>
      <trkpt lat="44.55945" lon="3.61979">
        <ele>1180</ele>
        <time>2009-07-07T08:10:54Z</time>
      </trkpt>
      <trkpt lat="44.55939" lon="3.61982">
        <ele>1180</ele>
        <time>2009-07-07T08:10:55Z</time>
      </trkpt>
      <trkpt lat="44.55923" lon="3.61993">
        <ele>1179</ele>
        <time>2009-07-07T08:10:58Z</time>
      </trkpt>
      <trkpt lat="44.55906" lon="3.62002">
        <ele>1177</ele>
        <time>2009-07-07T08:11:01Z</time>
      </trkpt>
      <trkpt lat="44.55895" lon="3.62009">
        <ele>1178</ele>
        <time>2009-07-07T08:11:03Z</time>
      </trkpt>
      <trkpt lat="44.55835" lon="3.62034">
        <ele>1173</ele>
        <time>2009-07-07T08:11:13Z</time>
      </trkpt>
      <trkpt lat="44.55828" lon="3.62037">
        <ele>1173</ele>
        <time>2009-07-07T08:11:14Z</time>
      </trkpt>
      <trkpt lat="44.55807" lon="3.62039">
        <ele>1172</ele>
        <time>2009-07-07T08:11:17Z</time>
      </trkpt>
      <trkpt lat="44.55779" lon="3.62039">
        <ele>1170</ele>
        <time>2009-07-07T08:11:23Z</time>
      </trkpt>
      <trkpt lat="44.55772" lon="3.6204">
        <ele>1170</ele>
        <time>2009-07-07T08:11:34Z</time>
      </trkpt>
      <trkpt lat="44.5577" lon="3.62037">
        <ele>1169</ele>
        <time>2009-07-07T08:11:46Z</time>
      </trkpt>
      <trkpt lat="44.55767" lon="3.62048">
        <ele>1170</ele>
        <time>2009-07-07T08:13:35Z</time>
      </trkpt>
      <trkpt lat="44.55764" lon="3.62051">
        <ele>1170</ele>
        <time>2009-07-07T08:13:55Z</time>
      </trkpt>
      <trkpt lat="44.55762" lon="3.6205">
        <ele>1169</ele>
        <time>2009-07-07T08:13:57Z</time>
      </trkpt>
      <trkpt lat="44.5574" lon="3.62063">
        <ele>1168</ele>
        <time>2009-07-07T08:14:08Z</time>
      </trkpt>
      <trkpt lat="44.55741" lon="3.6206">
        <ele>1168</ele>
        <time>2009-07-07T08:14:23Z</time>
      </trkpt>
      <trkpt lat="44.55737" lon="3.62041">
        <ele>1169</ele>
        <time>2009-07-07T08:14:32Z</time>
      </trkpt>
      <trkpt lat="44.5572" lon="3.62035">
        <ele>1168</ele>
        <time>2009-07-07T08:14:44Z</time>
      </trkpt>
      <trkpt lat="44.55723" lon="3.62034">
        <ele>1168</ele>
        <time>2009-07-07T08:14:47Z</time>
      </trkpt>
      <trkpt lat="44.55727" lon="3.62034">
        <ele>1169</ele>
        <time>2009-07-07T08:14:53Z</time>
      </trkpt>
      <trkpt lat="44.55743" lon="3.62056">
        <ele>1168</ele>
        <time>2009-07-07T08:15:05Z</time>
      </trkpt>
      <trkpt lat="44.55727" lon="3.62076">
        <ele>1167</ele>
        <time>2009-07-07T08:15:14Z</time>
      </trkpt>
      <trkpt lat="44.55696" lon="3.62107">
        <ele>1166</ele>
        <time>2009-07-07T08:15:25Z</time>
      </trkpt>
      <trkpt lat="44.55689" lon="3.62112">
        <ele>1165</ele>
        <time>2009-07-07T08:15:27Z</time>
      </trkpt>
      <trkpt lat="44.55675" lon="3.62116">
        <ele>1162</ele>
        <time>2009-07-07T08:15:30Z</time>
      </trkpt>
      <trkpt lat="44.55664" lon="3.62118">
        <ele>1162</ele>
        <time>2009-07-07T08:15:32Z</time>
      </trkpt>
      <trkpt lat="44.5565" lon="3.62117">
        <ele>1160</ele>
        <time>2009-07-07T08:15:35Z</time>
      </trkpt>
      <trkpt lat="44.55605" lon="3.62091">
        <ele>1160</ele>
        <time>2009-07-07T08:15:48Z</time>
      </trkpt>
      <trkpt lat="44.55613" lon="3.62039">
        <ele>1161</ele>
        <time>2009-07-07T08:16:00Z</time>
      </trkpt>
      <trkpt lat="44.55614" lon="3.62027">
        <ele>1163</ele>
        <time>2009-07-07T08:16:03Z</time>
      </trkpt>
      <trkpt lat="44.55608" lon="3.6202">
        <ele>1164</ele>
        <time>2009-07-07T08:16:07Z</time>
      </trkpt>
      <trkpt lat="44.55569" lon="3.62014">
        <ele>1161</ele>
        <time>2009-07-07T08:16:18Z</time>
      </trkpt>
      <trkpt lat="44.55544" lon="3.62011">
        <ele>1159</ele>
        <time>2009-07-07T08:16:23Z</time>
      </trkpt>
      <trkpt lat="44.55456" lon="3.61998">
        <ele>1157</ele>
        <time>2009-07-07T08:16:40Z</time>
      </trkpt>
      <trkpt lat="44.5545" lon="3.61998">
        <ele>1156</ele>
        <time>2009-07-07T08:16:41Z</time>
      </trkpt>
      <trkpt lat="44.55364" lon="3.61998">
        <ele>1156</ele>
        <time>2009-07-07T08:16:57Z</time>
      </trkpt>
      <trkpt lat="44.55327" lon="3.62002">
        <ele>1153</ele>
        <time>2009-07-07T08:17:04Z</time>
      </trkpt>
      <trkpt lat="44.55284" lon="3.62011">
        <ele>1152</ele>
        <time>2009-07-07T08:17:12Z</time>
      </trkpt>
      <trkpt lat="44.55271" lon="3.62012">
        <ele>1151</ele>
        <time>2009-07-07T08:17:14Z</time>
      </trkpt>
      <trkpt lat="44.55238" lon="3.62013">
        <ele>1149</ele>
        <time>2009-07-07T08:17:19Z</time>
      </trkpt>
      <trkpt lat="44.55215" lon="3.62048">
        <ele>1147</ele>
        <time>2009-07-07T08:17:27Z</time>
      </trkpt>
      <trkpt lat="44.55219" lon="3.6206">
        <ele>1147</ele>
        <time>2009-07-07T08:17:29Z</time>
      </trkpt>
      <trkpt lat="44.55245" lon="3.62126">
        <ele>1145</ele>
        <time>2009-07-07T08:17:40Z</time>
      </trkpt>
      <trkpt lat="44.55258" lon="3.62169">
        <ele>1142</ele>
        <time>2009-07-07T08:17:47Z</time>
      </trkpt>
      <trkpt lat="44.5527" lon="3.62201">
        <ele>1141</ele>
        <time>2009-07-07T08:17:51Z</time>
      </trkpt>
      <trkpt lat="44.55289" lon="3.62248">
        <ele>1136</ele>
        <time>2009-07-07T08:17:56Z</time>
      </trkpt>
      <trkpt lat="44.55301" lon="3.6232">
        <ele>1134</ele>
        <time>2009-07-07T08:18:03Z</time>
      </trkpt>
      <trkpt lat="44.55304" lon="3.62329">
        <ele>1134</ele>
        <time>2009-07-07T08:18:04Z</time>
      </trkpt>
      <trkpt lat="44.5532" lon="3.62367">
        <ele>1129</ele>
        <time>2009-07-07T08:18:08Z</time>
      </trkpt>
      <trkpt lat="44.55325" lon="3.62377">
        <ele>1128</ele>
        <time>2009-07-07T08:18:09Z</time>
      </trkpt>
      <trkpt lat="44.55352" lon="3.62404">
        <ele>1125</ele>
        <time>2009-07-07T08:18:13Z</time>
      </trkpt>
      <trkpt lat="44.5536" lon="3.62406">
        <ele>1125</ele>
        <time>2009-07-07T08:18:14Z</time>
      </trkpt>
      <trkpt lat="44.55381" lon="3.62408">
        <ele>1125</ele>
        <time>2009-07-07T08:18:17Z</time>
      </trkpt>
      <trkpt lat="44.55386" lon="3.62424">
        <ele>1124</ele>
        <time>2009-07-07T08:18:25Z</time>
      </trkpt>
      <trkpt lat="44.55377" lon="3.6243">
        <ele>1124</ele>
        <time>2009-07-07T08:18:30Z</time>
      </trkpt>
      <trkpt lat="44.55372" lon="3.62434">
        <ele>1124</ele>
        <time>2009-07-07T08:18:38Z</time>
      </trkpt>
      <trkpt lat="44.55369" lon="3.62439">
        <ele>1123</ele>
        <time>2009-07-07T08:18:49Z</time>
      </trkpt>
      <trkpt lat="44.55368" lon="3.62439">
        <ele>1123</ele>
        <time>2009-07-07T08:19:40Z</time>
      </trkpt>
      <trkpt lat="44.55355" lon="3.62447">
        <ele>1119</ele>
        <time>2009-07-07T08:19:45Z</time>
      </trkpt>
      <trkpt lat="44.55348" lon="3.62459">
        <ele>1118</ele>
        <time>2009-07-07T08:19:47Z</time>
      </trkpt>
      <trkpt lat="44.55342" lon="3.62473">
        <ele>1120</ele>
        <time>2009-07-07T08:19:49Z</time>
      </trkpt>
      <trkpt lat="44.55343" lon="3.62502">
        <ele>1121</ele>
        <time>2009-07-07T08:19:54Z</time>
      </trkpt>
      <trkpt lat="44.55344" lon="3.62506">
        <ele>1121</ele>
        <time>2009-07-07T08:19:55Z</time>
      </trkpt>
      <trkpt lat="44.55354" lon="3.62521">
        <ele>1121</ele>
        <time>2009-07-07T08:20:00Z</time>
      </trkpt>
      <trkpt lat="44.5538" lon="3.62539">
        <ele>1121</ele>
        <time>2009-07-07T08:20:07Z</time>
      </trkpt>
      <trkpt lat="44.55392" lon="3.62548">
        <ele>1123</ele>
        <time>2009-07-07T08:20:12Z</time>
      </trkpt>
      <trkpt lat="44.55403" lon="3.62555">
        <ele>1124</ele>
        <time>2009-07-07T08:20:19Z</time>
      </trkpt>
      <trkpt lat="44.55422" lon="3.62586">
        <ele>1127</ele>
        <time>2009-07-07T08:20:32Z</time>
      </trkpt>
      <trkpt lat="44.55426" lon="3.62593">
        <ele>1129</ele>
        <time>2009-07-07T08:20:35Z</time>
      </trkpt>
      <trkpt lat="44.55434" lon="3.62608">
        <ele>1131</ele>
        <time>2009-07-07T08:20:42Z</time>
      </trkpt>
      <trkpt lat="44.55439" lon="3.62629">
        <ele>1133</ele>
        <time>2009-07-07T08:20:50Z</time>
      </trkpt>
      <trkpt lat="44.55444" lon="3.6266">
        <ele>1136</ele>
        <time>2009-07-07T08:21:03Z</time>
      </trkpt>
      <trkpt lat="44.55439" lon="3.62681">
        <ele>1140</ele>
        <time>2009-07-07T08:21:12Z</time>
      </trkpt>
      <trkpt lat="44.55431" lon="3.62685">
        <ele>1141</ele>
        <time>2009-07-07T08:21:17Z</time>
      </trkpt>
      <trkpt lat="44.5541" lon="3.62706">
        <ele>1145</ele>
        <time>2009-07-07T08:21:30Z</time>
      </trkpt>
      <trkpt lat="44.5537" lon="3.62738">
        <ele>1148</ele>
        <time>2009-07-07T08:21:53Z</time>
      </trkpt>
      <trkpt lat="44.55334" lon="3.62766">
        <ele>1150</ele>
        <time>2009-07-07T08:22:13Z</time>
      </trkpt>
      <trkpt lat="44.55314" lon="3.62776">
        <ele>1154</ele>
        <time>2009-07-07T08:22:24Z</time>
      </trkpt>
      <trkpt lat="44.55276" lon="3.62787">
        <ele>1156</ele>
        <time>2009-07-07T08:22:45Z</time>
      </trkpt>
      <trkpt lat="44.55253" lon="3.62793">
        <ele>1161</ele>
        <time>2009-07-07T08:22:57Z</time>
      </trkpt>
      <trkpt lat="44.55251" lon="3.62795">
        <ele>1161</ele>
        <time>2009-07-07T08:22:58Z</time>
      </trkpt>
      <trkpt lat="44.55211" lon="3.62815">
        <ele>1163</ele>
        <time>2009-07-07T08:23:17Z</time>
      </trkpt>
      <trkpt lat="44.5517" lon="3.62833">
        <ele>1166</ele>
        <time>2009-07-07T08:23:34Z</time>
      </trkpt>
      <trkpt lat="44.55125" lon="3.62845">
        <ele>1167</ele>
        <time>2009-07-07T08:23:52Z</time>
      </trkpt>
      <trkpt lat="44.55091" lon="3.62862">
        <ele>1170</ele>
        <time>2009-07-07T08:24:06Z</time>
      </trkpt>
      <trkpt lat="44.55081" lon="3.62875">
        <ele>1171</ele>
        <time>2009-07-07T08:24:11Z</time>
      </trkpt>
      <trkpt lat="44.55066" lon="3.62881">
        <ele>1170</ele>
        <time>2009-07-07T08:24:17Z</time>
      </trkpt>
      <trkpt lat="44.55013" lon="3.62874">
        <ele>1169</ele>
        <time>2009-07-07T08:24:33Z</time>
      </trkpt>
      <trkpt lat="44.54986" lon="3.62862">
        <ele>1168</ele>
        <time>2009-07-07T08:24:40Z</time>
      </trkpt>
      <trkpt lat="44.54971" lon="3.62858">
        <ele>1168</ele>
        <time>2009-07-07T08:24:44Z</time>
      </trkpt>
      <trkpt lat="44.54904" lon="3.62831">
        <ele>1170</ele>
        <time>2009-07-07T08:25:03Z</time>
      </trkpt>
      <trkpt lat="44.54887" lon="3.62839">
        <ele>1170</ele>
        <time>2009-07-07T08:25:08Z</time>
      </trkpt>
      <trkpt lat="44.54868" lon="3.62834">
        <ele>1170</ele>
        <time>2009-07-07T08:25:13Z</time>
      </trkpt>
      <trkpt lat="44.54793" lon="3.62844">
        <ele>1168</ele>
        <time>2009-07-07T08:25:31Z</time>
      </trkpt>
      <trkpt lat="44.54723" lon="3.62866">
        <ele>1167</ele>
        <time>2009-07-07T08:25:48Z</time>
      </trkpt>
      <trkpt lat="44.54693" lon="3.62876">
        <ele>1166</ele>
        <time>2009-07-07T08:25:56Z</time>
      </trkpt>
      <trkpt lat="44.54652" lon="3.62895">
        <ele>1164</ele>
        <time>2009-07-07T08:26:06Z</time>
      </trkpt>
      <trkpt lat="44.5463" lon="3.62897">
        <ele>1163</ele>
        <time>2009-07-07T08:26:11Z</time>
      </trkpt>
      <trkpt lat="44.54561" lon="3.62905">
        <ele>1160</ele>
        <time>2009-07-07T08:26:26Z</time>
      </trkpt>
      <trkpt lat="44.54529" lon="3.62911">
        <ele>1159</ele>
        <time>2009-07-07T08:26:32Z</time>
      </trkpt>
      <trkpt lat="44.54508" lon="3.62916">
        <ele>1158</ele>
        <time>2009-07-07T08:26:36Z</time>
      </trkpt>
      <trkpt lat="44.54492" lon="3.62924">
        <ele>1156</ele>
        <time>2009-07-07T08:26:39Z</time>
      </trkpt>
      <trkpt lat="44.54432" lon="3.62942">
        <ele>1153</ele>
        <time>2009-07-07T08:26:49Z</time>
      </trkpt>
      <trkpt lat="44.54426" lon="3.62944">
        <ele>1152</ele>
        <time>2009-07-07T08:26:50Z</time>
      </trkpt>
      <trkpt lat="44.54381" lon="3.62946">
        <ele>1149</ele>
        <time>2009-07-07T08:26:58Z</time>
      </trkpt>
      <trkpt lat="44.54357" lon="3.62946">
        <ele>1147</ele>
        <time>2009-07-07T08:27:02Z</time>
      </trkpt>
      <trkpt lat="44.54351" lon="3.62947">
        <ele>1146</ele>
        <time>2009-07-07T08:27:03Z</time>
      </trkpt>
      <trkpt lat="44.54307" lon="3.62954">
        <ele>1143</ele>
        <time>2009-07-07T08:27:09Z</time>
      </trkpt>
      <trkpt lat="44.54268" lon="3.6296">
        <ele>1139</ele>
        <time>2009-07-07T08:27:14Z</time>
      </trkpt>
      <trkpt lat="44.5426" lon="3.62962">
        <ele>1139</ele>
        <time>2009-07-07T08:27:15Z</time>
      </trkpt>
      <trkpt lat="44.54246" lon="3.62965">
        <ele>1140</ele>
        <time>2009-07-07T08:27:17Z</time>
      </trkpt>
      <trkpt lat="44.54226" lon="3.62964">
        <ele>1137</ele>
        <time>2009-07-07T08:27:20Z</time>
      </trkpt>
      <trkpt lat="44.54189" lon="3.62959">
        <ele>1134</ele>
        <time>2009-07-07T08:27:25Z</time>
      </trkpt>
      <trkpt lat="44.5415" lon="3.62945">
        <ele>1128</ele>
        <time>2009-07-07T08:27:30Z</time>
      </trkpt>
      <trkpt lat="44.54135" lon="3.62945">
        <ele>1126</ele>
        <time>2009-07-07T08:27:32Z</time>
      </trkpt>
      <trkpt lat="44.54113" lon="3.62929">
        <ele>1123</ele>
        <time>2009-07-07T08:27:36Z</time>
      </trkpt>
      <trkpt lat="44.54084" lon="3.62875">
        <ele>1120</ele>
        <time>2009-07-07T08:27:43Z</time>
      </trkpt>
      <trkpt lat="44.54072" lon="3.62846">
        <ele>1117</ele>
        <time>2009-07-07T08:27:46Z</time>
      </trkpt>
      <trkpt lat="44.54067" lon="3.62837">
        <ele>1117</ele>
        <time>2009-07-07T08:27:47Z</time>
      </trkpt>
      <trkpt lat="44.54043" lon="3.62806">
        <ele>1111</ele>
        <time>2009-07-07T08:27:52Z</time>
      </trkpt>
      <trkpt lat="44.54039" lon="3.628">
        <ele>1111</ele>
        <time>2009-07-07T08:27:53Z</time>
      </trkpt>
      <trkpt lat="44.5403" lon="3.62779">
        <ele>1107</ele>
        <time>2009-07-07T08:27:56Z</time>
      </trkpt>
      <trkpt lat="44.5401" lon="3.62745">
        <ele>1102</ele>
        <time>2009-07-07T08:28:01Z</time>
      </trkpt>
      <trkpt lat="44.54005" lon="3.6274">
        <ele>1101</ele>
        <time>2009-07-07T08:28:02Z</time>
      </trkpt>
      <trkpt lat="44.53991" lon="3.62719">
        <ele>1097</ele>
        <time>2009-07-07T08:28:05Z</time>
      </trkpt>
      <trkpt lat="44.53984" lon="3.62706">
        <ele>1096</ele>
        <time>2009-07-07T08:28:07Z</time>
      </trkpt>
      <trkpt lat="44.53968" lon="3.62683">
        <ele>1094</ele>
        <time>2009-07-07T08:28:11Z</time>
      </trkpt>
      <trkpt lat="44.53953" lon="3.6267">
        <ele>1090</ele>
        <time>2009-07-07T08:28:14Z</time>
      </trkpt>
      <trkpt lat="44.53947" lon="3.62665">
        <ele>1090</ele>
        <time>2009-07-07T08:28:15Z</time>
      </trkpt>
      <trkpt lat="44.53932" lon="3.62656">
        <ele>1088</ele>
        <time>2009-07-07T08:28:17Z</time>
      </trkpt>
      <trkpt lat="44.53917" lon="3.62646">
        <ele>1085</ele>
        <time>2009-07-07T08:28:19Z</time>
      </trkpt>
      <trkpt lat="44.5389" lon="3.62625">
        <ele>1084</ele>
        <time>2009-07-07T08:28:27Z</time>
      </trkpt>
      <trkpt lat="44.53891" lon="3.62625">
        <ele>1084</ele>
        <time>2009-07-07T08:28:44Z</time>
      </trkpt>
      <trkpt lat="44.53892" lon="3.62621">
        <ele>1083</ele>
        <time>2009-07-07T08:28:56Z</time>
      </trkpt>
      <trkpt lat="44.53887" lon="3.62624">
        <ele>1085</ele>
        <time>2009-07-07T08:30:22Z</time>
      </trkpt>
      <trkpt lat="44.53889" lon="3.62624">
        <ele>1085</ele>
        <time>2009-07-07T08:30:46Z</time>
      </trkpt>
      <trkpt lat="44.5389" lon="3.62623">
        <ele>1085</ele>
        <time>2009-07-07T08:31:11Z</time>
      </trkpt>
      <trkpt lat="44.53888" lon="3.62623">
        <ele>1087</ele>
        <time>2009-07-07T08:31:26Z</time>
      </trkpt>
      <trkpt lat="44.53888" lon="3.62623">
        <ele>1086</ele>
        <time>2009-07-07T08:31:38Z</time>
      </trkpt>
      <trkpt lat="44.53887" lon="3.62623">
        <ele>1086</ele>
        <time>2009-07-07T08:31:53Z</time>
      </trkpt>
      <trkpt lat="44.53878" lon="3.62615">
        <ele>1084</ele>
        <time>2009-07-07T08:34:32Z</time>
      </trkpt>
      <trkpt lat="44.53867" lon="3.62608">
        <ele>1081</ele>
        <time>2009-07-07T08:34:36Z</time>
      </trkpt>
      <trkpt lat="44.53847" lon="3.62599">
        <ele>1080</ele>
        <time>2009-07-07T08:34:40Z</time>
      </trkpt>
      <trkpt lat="44.53822" lon="3.62584">
        <ele>1078</ele>
        <time>2009-07-07T08:34:45Z</time>
      </trkpt>
      <trkpt lat="44.53768" lon="3.62566">
        <ele>1075</ele>
        <time>2009-07-07T08:34:55Z</time>
      </trkpt>
      <trkpt lat="44.53737" lon="3.62561">
        <ele>1072</ele>
        <time>2009-07-07T08:35:00Z</time>
      </trkpt>
      <trkpt lat="44.53731" lon="3.6256">
        <ele>1072</ele>
        <time>2009-07-07T08:35:01Z</time>
      </trkpt>
      <trkpt lat="44.53703" lon="3.62553">
        <ele>1070</ele>
        <time>2009-07-07T08:35:05Z</time>
      </trkpt>
      <trkpt lat="44.53654" lon="3.62543">
        <ele>1067</ele>
        <time>2009-07-07T08:35:12Z</time>
      </trkpt>
      <trkpt lat="44.53641" lon="3.62542">
        <ele>1067</ele>
        <time>2009-07-07T08:35:14Z</time>
      </trkpt>
      <trkpt lat="44.53623" lon="3.62544">
        <ele>1067</ele>
        <time>2009-07-07T08:35:22Z</time>
      </trkpt>
      <trkpt lat="44.53614" lon="3.62546">
        <ele>1067</ele>
        <time>2009-07-07T08:35:31Z</time>
      </trkpt>
      <trkpt lat="44.53575" lon="3.6255">
        <ele>1068</ele>
        <time>2009-07-07T08:35:47Z</time>
      </trkpt>
      <trkpt lat="44.53548" lon="3.62544">
        <ele>1071</ele>
        <time>2009-07-07T08:35:57Z</time>
      </trkpt>
      <trkpt lat="44.5351" lon="3.62536">
        <ele>1075</ele>
        <time>2009-07-07T08:36:11Z</time>
      </trkpt>
      <trkpt lat="44.53507" lon="3.62536">
        <ele>1075</ele>
        <time>2009-07-07T08:36:12Z</time>
      </trkpt>
      <trkpt lat="44.53475" lon="3.62537">
        <ele>1077</ele>
        <time>2009-07-07T08:36:25Z</time>
      </trkpt>
      <trkpt lat="44.53466" lon="3.62545">
        <ele>1079</ele>
        <time>2009-07-07T08:36:29Z</time>
      </trkpt>
      <trkpt lat="44.53459" lon="3.62548">
        <ele>1079</ele>
        <time>2009-07-07T08:36:32Z</time>
      </trkpt>
      <trkpt lat="44.53414" lon="3.62565">
        <ele>1082</ele>
        <time>2009-07-07T08:36:50Z</time>
      </trkpt>
      <trkpt lat="44.53372" lon="3.62577">
        <ele>1086</ele>
        <time>2009-07-07T08:37:06Z</time>
      </trkpt>
      <trkpt lat="44.53338" lon="3.62584">
        <ele>1086</ele>
        <time>2009-07-07T08:37:17Z</time>
      </trkpt>
      <trkpt lat="44.53279" lon="3.6258">
        <ele>1084</ele>
        <time>2009-07-07T08:37:33Z</time>
      </trkpt>
      <trkpt lat="44.53233" lon="3.62579">
        <ele>1082</ele>
        <time>2009-07-07T08:37:46Z</time>
      </trkpt>
      <trkpt lat="44.53192" lon="3.62575">
        <ele>1081</ele>
        <time>2009-07-07T08:37:58Z</time>
      </trkpt>
      <trkpt lat="44.53162" lon="3.62565">
        <ele>1082</ele>
        <time>2009-07-07T08:38:07Z</time>
      </trkpt>
      <trkpt lat="44.53128" lon="3.62557">
        <ele>1081</ele>
        <time>2009-07-07T08:38:17Z</time>
      </trkpt>
      <trkpt lat="44.53061" lon="3.62554">
        <ele>1082</ele>
        <time>2009-07-07T08:38:33Z</time>
      </trkpt>
      <trkpt lat="44.53033" lon="3.62546">
        <ele>1083</ele>
        <time>2009-07-07T08:38:42Z</time>
      </trkpt>
      <trkpt lat="44.53029" lon="3.62544">
        <ele>1082</ele>
        <time>2009-07-07T08:38:43Z</time>
      </trkpt>
      <trkpt lat="44.52991" lon="3.62535">
        <ele>1080</ele>
        <time>2009-07-07T08:38:52Z</time>
      </trkpt>
      <trkpt lat="44.52983" lon="3.62528">
        <ele>1080</ele>
        <time>2009-07-07T08:38:54Z</time>
      </trkpt>
      <trkpt lat="44.52976" lon="3.62518">
        <ele>1079</ele>
        <time>2009-07-07T08:38:56Z</time>
      </trkpt>
      <trkpt lat="44.52947" lon="3.62497">
        <ele>1075</ele>
        <time>2009-07-07T08:39:03Z</time>
      </trkpt>
      <trkpt lat="44.52933" lon="3.62484">
        <ele>1073</ele>
        <time>2009-07-07T08:39:06Z</time>
      </trkpt>
      <trkpt lat="44.52923" lon="3.62477">
        <ele>1072</ele>
        <time>2009-07-07T08:39:08Z</time>
      </trkpt>
      <trkpt lat="44.52898" lon="3.62465">
        <ele>1070</ele>
        <time>2009-07-07T08:39:13Z</time>
      </trkpt>
      <trkpt lat="44.52885" lon="3.62461">
        <ele>1069</ele>
        <time>2009-07-07T08:39:15Z</time>
      </trkpt>
      <trkpt lat="44.52879" lon="3.62459">
        <ele>1068</ele>
        <time>2009-07-07T08:39:16Z</time>
      </trkpt>
      <trkpt lat="44.52845" lon="3.6246">
        <ele>1066</ele>
        <time>2009-07-07T08:39:20Z</time>
      </trkpt>
      <trkpt lat="44.52813" lon="3.62464">
        <ele>1063</ele>
        <time>2009-07-07T08:39:23Z</time>
      </trkpt>
      <trkpt lat="44.52799" lon="3.62454">
        <ele>1062</ele>
        <time>2009-07-07T08:39:26Z</time>
      </trkpt>
      <trkpt lat="44.52761" lon="3.62446">
        <ele>1058</ele>
        <time>2009-07-07T08:39:33Z</time>
      </trkpt>
      <trkpt lat="44.52734" lon="3.62444">
        <ele>1055</ele>
        <time>2009-07-07T08:39:36Z</time>
      </trkpt>
      <trkpt lat="44.52686" lon="3.62436">
        <ele>1052</ele>
        <time>2009-07-07T08:39:43Z</time>
      </trkpt>
      <trkpt lat="44.52679" lon="3.62433">
        <ele>1052</ele>
        <time>2009-07-07T08:39:44Z</time>
      </trkpt>
      <trkpt lat="44.52654" lon="3.62419">
        <ele>1050</ele>
        <time>2009-07-07T08:39:48Z</time>
      </trkpt>
      <trkpt lat="44.52633" lon="3.62414">
        <ele>1048</ele>
        <time>2009-07-07T08:39:51Z</time>
      </trkpt>
      <trkpt lat="44.52626" lon="3.6241">
        <ele>1047</ele>
        <time>2009-07-07T08:39:52Z</time>
      </trkpt>
      <trkpt lat="44.52607" lon="3.62401">
        <ele>1046</ele>
        <time>2009-07-07T08:39:55Z</time>
      </trkpt>
      <trkpt lat="44.52586" lon="3.62388">
        <ele>1042</ele>
        <time>2009-07-07T08:39:59Z</time>
      </trkpt>
      <trkpt lat="44.52581" lon="3.62384">
        <ele>1041</ele>
        <time>2009-07-07T08:40:00Z</time>
      </trkpt>
      <trkpt lat="44.52571" lon="3.62382">
        <ele>1040</ele>
        <time>2009-07-07T08:40:02Z</time>
      </trkpt>
      <trkpt lat="44.52553" lon="3.62384">
        <ele>1035</ele>
        <time>2009-07-07T08:40:05Z</time>
      </trkpt>
      <trkpt lat="44.52547" lon="3.62385">
        <ele>1033</ele>
        <time>2009-07-07T08:40:06Z</time>
      </trkpt>
      <trkpt lat="44.52522" lon="3.62388">
        <ele>1030</ele>
        <time>2009-07-07T08:40:10Z</time>
      </trkpt>
      <trkpt lat="44.52513" lon="3.6239">
        <ele>1029</ele>
        <time>2009-07-07T08:40:12Z</time>
      </trkpt>
      <trkpt lat="44.52502" lon="3.62392">
        <ele>1029</ele>
        <time>2009-07-07T08:40:20Z</time>
      </trkpt>
      <trkpt lat="44.525" lon="3.62401">
        <ele>1026</ele>
        <time>2009-07-07T08:40:36Z</time>
      </trkpt>
      <trkpt lat="44.52496" lon="3.62403">
        <ele>1023</ele>
        <time>2009-07-07T08:40:38Z</time>
      </trkpt>
      <trkpt lat="44.52479" lon="3.62408">
        <ele>1021</ele>
        <time>2009-07-07T08:40:44Z</time>
      </trkpt>
      <trkpt lat="44.52476" lon="3.62408">
        <ele>1019</ele>
        <time>2009-07-07T08:40:56Z</time>
      </trkpt>
      <trkpt lat="44.52468" lon="3.62409">
        <ele>1017</ele>
        <time>2009-07-07T08:41:10Z</time>
      </trkpt>
      <trkpt lat="44.52463" lon="3.62415">
        <ele>1016</ele>
        <time>2009-07-07T08:41:21Z</time>
      </trkpt>
      <trkpt lat="44.52453" lon="3.62424">
        <ele>1014</ele>
        <time>2009-07-07T08:41:33Z</time>
      </trkpt>
      <trkpt lat="44.5245" lon="3.62425">
        <ele>1013</ele>
        <time>2009-07-07T08:41:35Z</time>
      </trkpt>
      <trkpt lat="44.52449" lon="3.62423">
        <ele>1012</ele>
        <time>2009-07-07T08:41:56Z</time>
      </trkpt>
      <trkpt lat="44.52446" lon="3.62426">
        <ele>1012</ele>
        <time>2009-07-07T08:42:36Z</time>
      </trkpt>
      <trkpt lat="44.52443" lon="3.62423">
        <ele>1012</ele>
        <time>2009-07-07T08:42:49Z</time>
      </trkpt>
      <trkpt lat="44.52442" lon="3.62423">
        <ele>1011</ele>
        <time>2009-07-07T08:42:50Z</time>
      </trkpt>
      <trkpt lat="44.52427" lon="3.62433">
        <ele>1006</ele>
        <time>2009-07-07T08:42:57Z</time>
      </trkpt>
      <trkpt lat="44.5242" lon="3.62437">
        <ele>1005</ele>
        <time>2009-07-07T08:42:59Z</time>
      </trkpt>
      <trkpt lat="44.52401" lon="3.62439">
        <ele>1000</ele>
        <time>2009-07-07T08:43:04Z</time>
      </trkpt>
      <trkpt lat="44.52373" lon="3.62434">
        <ele>998</ele>
        <time>2009-07-07T08:43:10Z</time>
      </trkpt>
      <trkpt lat="44.52348" lon="3.62439">
        <ele>995</ele>
        <time>2009-07-07T08:43:16Z</time>
      </trkpt>
      <trkpt lat="44.52339" lon="3.62436">
        <ele>991</ele>
        <time>2009-07-07T08:43:18Z</time>
      </trkpt>
      <trkpt lat="44.52316" lon="3.6243">
        <ele>990</ele>
        <time>2009-07-07T08:43:26Z</time>
      </trkpt>
      <trkpt lat="44.52312" lon="3.62438">
        <ele>988</ele>
        <time>2009-07-07T08:43:46Z</time>
      </trkpt>
      <trkpt lat="44.52311" lon="3.62441">
        <ele>987</ele>
        <time>2009-07-07T08:43:49Z</time>
      </trkpt>
      <trkpt lat="44.52305" lon="3.6245">
        <ele>984</ele>
        <time>2009-07-07T08:44:03Z</time>
      </trkpt>
      <trkpt lat="44.52304" lon="3.62451">
        <ele>983</ele>
        <time>2009-07-07T08:44:05Z</time>
      </trkpt>
      <trkpt lat="44.52299" lon="3.62454">
        <ele>982</ele>
        <time>2009-07-07T08:44:09Z</time>
      </trkpt>
      <trkpt lat="44.52293" lon="3.62463">
        <ele>979</ele>
        <time>2009-07-07T08:44:21Z</time>
      </trkpt>
      <trkpt lat="44.52294" lon="3.62473">
        <ele>977</ele>
        <time>2009-07-07T08:44:39Z</time>
      </trkpt>
      <trkpt lat="44.52293" lon="3.62476">
        <ele>976</ele>
        <time>2009-07-07T08:44:43Z</time>
      </trkpt>
      <trkpt lat="44.52289" lon="3.6248">
        <ele>973</ele>
        <time>2009-07-07T08:44:54Z</time>
      </trkpt>
      <trkpt lat="44.52288" lon="3.62481">
        <ele>973</ele>
        <time>2009-07-07T08:44:55Z</time>
      </trkpt>
      <trkpt lat="44.52287" lon="3.62484">
        <ele>972</ele>
        <time>2009-07-07T08:45:03Z</time>
      </trkpt>
      <trkpt lat="44.52284" lon="3.62493">
        <ele>969</ele>
        <time>2009-07-07T08:45:16Z</time>
      </trkpt>
      <trkpt lat="44.52282" lon="3.62499">
        <ele>965</ele>
        <time>2009-07-07T08:45:25Z</time>
      </trkpt>
      <trkpt lat="44.52281" lon="3.62501">
        <ele>964</ele>
        <time>2009-07-07T08:45:27Z</time>
      </trkpt>
      <trkpt lat="44.52276" lon="3.62509">
        <ele>963</ele>
        <time>2009-07-07T08:45:41Z</time>
      </trkpt>
      <trkpt lat="44.52274" lon="3.6251">
        <ele>962</ele>
        <time>2009-07-07T08:45:44Z</time>
      </trkpt>
      <trkpt lat="44.52254" lon="3.62514">
        <ele>957</ele>
        <time>2009-07-07T08:45:52Z</time>
      </trkpt>
      <trkpt lat="44.52251" lon="3.62515">
        <ele>957</ele>
        <time>2009-07-07T08:45:53Z</time>
      </trkpt>
      <trkpt lat="44.52236" lon="3.62524">
        <ele>952</ele>
        <time>2009-07-07T08:45:59Z</time>
      </trkpt>
      <trkpt lat="44.52234" lon="3.62525">
        <ele>952</ele>
        <time>2009-07-07T08:46:00Z</time>
      </trkpt>
      <trkpt lat="44.52231" lon="3.62525">
        <ele>950</ele>
        <time>2009-07-07T08:46:02Z</time>
      </trkpt>
      <trkpt lat="44.52224" lon="3.62525">
        <ele>946</ele>
        <time>2009-07-07T08:46:05Z</time>
      </trkpt>
      <trkpt lat="44.52216" lon="3.62525">
        <ele>942</ele>
        <time>2009-07-07T08:46:08Z</time>
      </trkpt>
      <trkpt lat="44.52214" lon="3.62525">
        <ele>942</ele>
        <time>2009-07-07T08:46:09Z</time>
      </trkpt>
      <trkpt lat="44.5221" lon="3.62524">
        <ele>941</ele>
        <time>2009-07-07T08:46:11Z</time>
      </trkpt>
      <trkpt lat="44.52201" lon="3.62527">
        <ele>938</ele>
        <time>2009-07-07T08:46:15Z</time>
      </trkpt>
      <trkpt lat="44.52198" lon="3.62527">
        <ele>937</ele>
        <time>2009-07-07T08:46:16Z</time>
      </trkpt>
      <trkpt lat="44.52187" lon="3.62525">
        <ele>933</ele>
        <time>2009-07-07T08:46:21Z</time>
      </trkpt>
      <trkpt lat="44.52176" lon="3.6252">
        <ele>932</ele>
        <time>2009-07-07T08:46:25Z</time>
      </trkpt>
      <trkpt lat="44.52154" lon="3.62506">
        <ele>928</ele>
        <time>2009-07-07T08:46:33Z</time>
      </trkpt>
      <trkpt lat="44.5215" lon="3.62502">
        <ele>927</ele>
        <time>2009-07-07T08:46:35Z</time>
      </trkpt>
      <trkpt lat="44.52135" lon="3.62509">
        <ele>923</ele>
        <time>2009-07-07T08:46:40Z</time>
      </trkpt>
      <trkpt lat="44.52132" lon="3.62511">
        <ele>924</ele>
        <time>2009-07-07T08:46:41Z</time>
      </trkpt>
      <trkpt lat="44.52126" lon="3.62519">
        <ele>922</ele>
        <time>2009-07-07T08:46:44Z</time>
      </trkpt>
      <trkpt lat="44.5212" lon="3.62524">
        <ele>921</ele>
        <time>2009-07-07T08:46:46Z</time>
      </trkpt>
      <trkpt lat="44.52114" lon="3.62529">
        <ele>920</ele>
        <time>2009-07-07T08:46:55Z</time>
      </trkpt>
      <trkpt lat="44.52113" lon="3.6253">
        <ele>920</ele>
        <time>2009-07-07T08:46:57Z</time>
      </trkpt>
      <trkpt lat="44.52108" lon="3.62535">
        <ele>920</ele>
        <time>2009-07-07T08:47:02Z</time>
      </trkpt>
      <trkpt lat="44.52106" lon="3.62542">
        <ele>919</ele>
        <time>2009-07-07T08:47:15Z</time>
      </trkpt>
      <trkpt lat="44.52106" lon="3.62546">
        <ele>920</ele>
        <time>2009-07-07T08:50:19Z</time>
      </trkpt>
      <trkpt lat="44.52106" lon="3.62546">
        <ele>920</ele>
        <time>2009-07-07T08:51:10Z</time>
      </trkpt>
      <trkpt lat="44.52106" lon="3.62546">
        <ele>921</ele>
        <time>2009-07-07T08:52:26Z</time>
      </trkpt>
      <trkpt lat="44.52106" lon="3.62546">
        <ele>920</ele>
        <time>2009-07-07T08:52:59Z</time>
      </trkpt>
      <trkpt lat="44.52106" lon="3.62546">
        <ele>920</ele>
        <time>2009-07-07T08:53:29Z</time>
      </trkpt>
      <trkpt lat="44.52109" lon="3.62577">
        <ele>918</ele>
        <time>2009-07-07T08:53:38Z</time>
      </trkpt>
      <trkpt lat="44.52155" lon="3.62622">
        <ele>915</ele>
        <time>2009-07-07T08:53:48Z</time>
      </trkpt>
      <trkpt lat="44.52161" lon="3.62628">
        <ele>914</ele>
        <time>2009-07-07T08:53:49Z</time>
      </trkpt>
      <trkpt lat="44.52189" lon="3.62644">
        <ele>912</ele>
        <time>2009-07-07T08:53:53Z</time>
      </trkpt>
      <trkpt lat="44.52203" lon="3.62648">
        <ele>912</ele>
        <time>2009-07-07T08:53:55Z</time>
      </trkpt>
      <trkpt lat="44.52241" lon="3.62654">
        <ele>913</ele>
        <time>2009-07-07T08:54:02Z</time>
      </trkpt>
      <trkpt lat="44.5223" lon="3.62658">
        <ele>910</ele>
        <time>2009-07-07T08:54:06Z</time>
      </trkpt>
      <trkpt lat="44.52179" lon="3.6265">
        <ele>906</ele>
        <time>2009-07-07T08:54:15Z</time>
      </trkpt>
      <trkpt lat="44.52163" lon="3.62647">
        <ele>904</ele>
        <time>2009-07-07T08:54:17Z</time>
      </trkpt>
      <trkpt lat="44.52133" lon="3.62632">
        <ele>900</ele>
        <time>2009-07-07T08:54:21Z</time>
      </trkpt>
      <trkpt lat="44.52091" lon="3.62654">
        <ele>897</ele>
        <time>2009-07-07T08:54:27Z</time>
      </trkpt>
      <trkpt lat="44.52087" lon="3.62666">
        <ele>897</ele>
        <time>2009-07-07T08:54:28Z</time>
      </trkpt>
      <trkpt lat="44.52065" lon="3.62753">
        <ele>895</ele>
        <time>2009-07-07T08:54:35Z</time>
      </trkpt>
      <trkpt lat="44.52026" lon="3.62792">
        <ele>895</ele>
        <time>2009-07-07T08:54:41Z</time>
      </trkpt>
      <trkpt lat="44.52007" lon="3.62796">
        <ele>896</ele>
        <time>2009-07-07T08:54:44Z</time>
      </trkpt>
      <trkpt lat="44.51972" lon="3.62843">
        <ele>896</ele>
        <time>2009-07-07T08:54:54Z</time>
      </trkpt>
      <trkpt lat="44.51971" lon="3.6285">
        <ele>896</ele>
        <time>2009-07-07T08:54:55Z</time>
      </trkpt>
      <trkpt lat="44.51969" lon="3.62877">
        <ele>896</ele>
        <time>2009-07-07T08:54:59Z</time>
      </trkpt>
      <trkpt lat="44.51977" lon="3.63022">
        <ele>898</ele>
        <time>2009-07-07T08:55:20Z</time>
      </trkpt>
      <trkpt lat="44.51976" lon="3.63071">
        <ele>898</ele>
        <time>2009-07-07T08:55:27Z</time>
      </trkpt>
      <trkpt lat="44.5198" lon="3.63149">
        <ele>899</ele>
        <time>2009-07-07T08:55:39Z</time>
      </trkpt>
      <trkpt lat="44.51967" lon="3.63261">
        <ele>902</ele>
        <time>2009-07-07T08:55:57Z</time>
      </trkpt>
      <trkpt lat="44.5196" lon="3.63299">
        <ele>899</ele>
        <time>2009-07-07T08:56:03Z</time>
      </trkpt>
      <trkpt lat="44.51953" lon="3.63329">
        <ele>897</ele>
        <time>2009-07-07T08:56:07Z</time>
      </trkpt>
      <trkpt lat="44.51949" lon="3.63423">
        <ele>896</ele>
        <time>2009-07-07T08:56:18Z</time>
      </trkpt>
      <trkpt lat="44.51919" lon="3.6346">
        <ele>895</ele>
        <time>2009-07-07T08:56:25Z</time>
      </trkpt>
      <trkpt lat="44.51912" lon="3.63459">
        <ele>895</ele>
        <time>2009-07-07T08:56:26Z</time>
      </trkpt>
      <trkpt lat="44.51808" lon="3.63437">
        <ele>895</ele>
        <time>2009-07-07T08:56:45Z</time>
      </trkpt>
      <trkpt lat="44.51708" lon="3.63439">
        <ele>896</ele>
        <time>2009-07-07T08:57:04Z</time>
      </trkpt>
      <trkpt lat="44.51638" lon="3.6344">
        <ele>899</ele>
        <time>2009-07-07T08:57:20Z</time>
      </trkpt>
      <trkpt lat="44.51616" lon="3.63439">
        <ele>901</ele>
        <time>2009-07-07T08:57:27Z</time>
      </trkpt>
      <trkpt lat="44.51583" lon="3.63457">
        <ele>903</ele>
        <time>2009-07-07T08:57:41Z</time>
      </trkpt>
      <trkpt lat="44.51574" lon="3.63461">
        <ele>904</ele>
        <time>2009-07-07T08:57:50Z</time>
      </trkpt>
      <trkpt lat="44.51574" lon="3.63461">
        <ele>907</ele>
        <time>2009-07-07T08:58:15Z</time>
      </trkpt>
      <trkpt lat="44.51574" lon="3.63461">
        <ele>904</ele>
        <time>2009-07-07T08:58:20Z</time>
      </trkpt>
      <trkpt lat="44.51574" lon="3.63461">
        <ele>901</ele>
        <time>2009-07-07T08:58:22Z</time>
      </trkpt>
      <trkpt lat="44.51574" lon="3.63461">
        <ele>906</ele>
        <time>2009-07-07T08:58:23Z</time>
      </trkpt>
      <trkpt lat="44.51574" lon="3.63461">
        <ele>902</ele>
        <time>2009-07-07T08:58:25Z</time>
      </trkpt>
      <trkpt lat="44.51574" lon="3.63461">
        <ele>903</ele>
        <time>2009-07-07T08:58:26Z</time>
      </trkpt>
      <trkpt lat="44.51574" lon="3.63461">
        <ele>907</ele>
        <time>2009-07-07T08:58:32Z</time>
      </trkpt>
      <trkpt lat="44.51574" lon="3.63461">
        <ele>902</ele>
        <time>2009-07-07T08:58:35Z</time>
      </trkpt>
      <trkpt lat="44.51574" lon="3.63461">
        <ele>906</ele>
        <time>2009-07-07T08:58:36Z</time>
      </trkpt>
      <trkpt lat="44.51574" lon="3.63461">
        <ele>906</ele>
        <time>2009-07-07T08:58:37Z</time>
      </trkpt>
      <trkpt lat="44.51574" lon="3.63461">
        <ele>901</ele>
        <time>2009-07-07T08:58:38Z</time>
      </trkpt>
      <trkpt lat="44.51574" lon="3.63461">
        <ele>907</ele>
        <time>2009-07-07T08:58:39Z</time>
      </trkpt>
      <trkpt lat="44.51575" lon="3.63461">
        <ele>904</ele>
        <time>2009-07-07T08:58:42Z</time>
      </trkpt>
      <trkpt lat="44.51564" lon="3.63462">
        <ele>906</ele>
        <time>2009-07-07T08:59:03Z</time>
      </trkpt>
      <trkpt lat="44.51553" lon="3.63464">
        <ele>908</ele>
        <time>2009-07-07T08:59:16Z</time>
      </trkpt>
      <trkpt lat="44.51552" lon="3.63462">
        <ele>910</ele>
        <time>2009-07-07T08:59:30Z</time>
      </trkpt>
      <trkpt lat="44.51552" lon="3.63462">
        <ele>903</ele>
        <time>2009-07-07T08:59:31Z</time>
      </trkpt>
      <trkpt lat="44.51551" lon="3.63462">
        <ele>907</ele>
        <time>2009-07-07T08:59:32Z</time>
      </trkpt>
      <trkpt lat="44.51551" lon="3.63462">
        <ele>916</ele>
        <time>2009-07-07T08:59:34Z</time>
      </trkpt>
      <trkpt lat="44.51551" lon="3.63462">
        <ele>911</ele>
        <time>2009-07-07T08:59:35Z</time>
      </trkpt>
      <trkpt lat="44.5155" lon="3.63463">
        <ele>909</ele>
        <time>2009-07-07T08:59:37Z</time>
      </trkpt>
      <trkpt lat="44.51547" lon="3.63468">
        <ele>912</ele>
        <time>2009-07-07T08:59:54Z</time>
      </trkpt>
      <trkpt lat="44.5154" lon="3.63472">
        <ele>912</ele>
        <time>2009-07-07T09:00:17Z</time>
      </trkpt>
      <trkpt lat="44.51534" lon="3.63475">
        <ele>912</ele>
        <time>2009-07-07T09:00:26Z</time>
      </trkpt>
      <trkpt lat="44.51524" lon="3.63478">
        <ele>915</ele>
        <time>2009-07-07T09:00:35Z</time>
      </trkpt>
      <trkpt lat="44.51516" lon="3.6348">
        <ele>916</ele>
        <time>2009-07-07T09:00:41Z</time>
      </trkpt>
      <trkpt lat="44.51503" lon="3.63485">
        <ele>919</ele>
        <time>2009-07-07T09:00:52Z</time>
      </trkpt>
      <trkpt lat="44.51502" lon="3.63486">
        <ele>920</ele>
        <time>2009-07-07T09:00:53Z</time>
      </trkpt>
      <trkpt lat="44.51486" lon="3.6349">
        <ele>923</ele>
        <time>2009-07-07T09:01:06Z</time>
      </trkpt>
      <trkpt lat="44.5147" lon="3.63492">
        <ele>926</ele>
        <time>2009-07-07T09:01:19Z</time>
      </trkpt>
      <trkpt lat="44.51469" lon="3.63493">
        <ele>926</ele>
        <time>2009-07-07T09:01:20Z</time>
      </trkpt>
      <trkpt lat="44.51464" lon="3.63493">
        <ele>927</ele>
        <time>2009-07-07T09:01:24Z</time>
      </trkpt>
      <trkpt lat="44.51463" lon="3.63487">
        <ele>928</ele>
        <time>2009-07-07T09:01:28Z</time>
      </trkpt>
      <trkpt lat="44.51467" lon="3.63487">
        <ele>928</ele>
        <time>2009-07-07T09:02:07Z</time>
      </trkpt>
      <trkpt lat="44.51468" lon="3.63488">
        <ele>929</ele>
        <time>2009-07-07T09:02:23Z</time>
      </trkpt>
      <trkpt lat="44.51472" lon="3.6347">
        <ele>930</ele>
        <time>2009-07-07T09:03:02Z</time>
      </trkpt>
      <trkpt lat="44.5148" lon="3.63437">
        <ele>933</ele>
        <time>2009-07-07T09:03:16Z</time>
      </trkpt>
      <trkpt lat="44.51482" lon="3.63428">
        <ele>934</ele>
        <time>2009-07-07T09:03:20Z</time>
      </trkpt>
      <trkpt lat="44.51491" lon="3.63391">
        <ele>937</ele>
        <time>2009-07-07T09:03:36Z</time>
      </trkpt>
      <trkpt lat="44.515" lon="3.63355">
        <ele>940</ele>
        <time>2009-07-07T09:03:50Z</time>
      </trkpt>
      <trkpt lat="44.51501" lon="3.6335">
        <ele>941</ele>
        <time>2009-07-07T09:03:52Z</time>
      </trkpt>
      <trkpt lat="44.51513" lon="3.63303">
        <ele>944</ele>
        <time>2009-07-07T09:04:11Z</time>
      </trkpt>
      <trkpt lat="44.51516" lon="3.63287">
        <ele>947</ele>
        <time>2009-07-07T09:04:17Z</time>
      </trkpt>
      <trkpt lat="44.51528" lon="3.63237">
        <ele>949</ele>
        <time>2009-07-07T09:04:37Z</time>
      </trkpt>
      <trkpt lat="44.51529" lon="3.63229">
        <ele>951</ele>
        <time>2009-07-07T09:04:40Z</time>
      </trkpt>
      <trkpt lat="44.51534" lon="3.63196">
        <ele>954</ele>
        <time>2009-07-07T09:04:53Z</time>
      </trkpt>
      <trkpt lat="44.51534" lon="3.63181">
        <ele>955</ele>
        <time>2009-07-07T09:04:59Z</time>
      </trkpt>
      <trkpt lat="44.51532" lon="3.63134">
        <ele>958</ele>
        <time>2009-07-07T09:05:16Z</time>
      </trkpt>
      <trkpt lat="44.51523" lon="3.63099">
        <ele>961</ele>
        <time>2009-07-07T09:05:30Z</time>
      </trkpt>
      <trkpt lat="44.5152" lon="3.63093">
        <ele>962</ele>
        <time>2009-07-07T09:05:33Z</time>
      </trkpt>
      <trkpt lat="44.51506" lon="3.63068">
        <ele>964</ele>
        <time>2009-07-07T09:05:45Z</time>
      </trkpt>
      <trkpt lat="44.51484" lon="3.63048">
        <ele>967</ele>
        <time>2009-07-07T09:05:59Z</time>
      </trkpt>
      <trkpt lat="44.51454" lon="3.63043">
        <ele>970</ele>
        <time>2009-07-07T09:06:15Z</time>
      </trkpt>
      <trkpt lat="44.51445" lon="3.63045">
        <ele>972</ele>
        <time>2009-07-07T09:06:20Z</time>
      </trkpt>
      <trkpt lat="44.51415" lon="3.6306">
        <ele>975</ele>
        <time>2009-07-07T09:06:37Z</time>
      </trkpt>
      <trkpt lat="44.51391" lon="3.63076">
        <ele>978</ele>
        <time>2009-07-07T09:06:51Z</time>
      </trkpt>
      <trkpt lat="44.51376" lon="3.63086">
        <ele>981</ele>
        <time>2009-07-07T09:06:59Z</time>
      </trkpt>
      <trkpt lat="44.51341" lon="3.63106">
        <ele>984</ele>
        <time>2009-07-07T09:07:18Z</time>
      </trkpt>
      <trkpt lat="44.51317" lon="3.63117">
        <ele>987</ele>
        <time>2009-07-07T09:07:31Z</time>
      </trkpt>
      <trkpt lat="44.51313" lon="3.63119">
        <ele>988</ele>
        <time>2009-07-07T09:07:33Z</time>
      </trkpt>
      <trkpt lat="44.51303" lon="3.63125">
        <ele>992</ele>
        <time>2009-07-07T09:07:39Z</time>
      </trkpt>
      <trkpt lat="44.51263" lon="3.6315">
        <ele>994</ele>
        <time>2009-07-07T09:08:00Z</time>
      </trkpt>
      <trkpt lat="44.51243" lon="3.63166">
        <ele>997</ele>
        <time>2009-07-07T09:08:11Z</time>
      </trkpt>
      <trkpt lat="44.51215" lon="3.63195">
        <ele>1000</ele>
        <time>2009-07-07T09:08:27Z</time>
      </trkpt>
      <trkpt lat="44.51179" lon="3.63232">
        <ele>1001</ele>
        <time>2009-07-07T09:08:42Z</time>
      </trkpt>
      <trkpt lat="44.51131" lon="3.63264">
        <ele>1003</ele>
        <time>2009-07-07T09:09:00Z</time>
      </trkpt>
      <trkpt lat="44.51105" lon="3.63284">
        <ele>1005</ele>
        <time>2009-07-07T09:09:11Z</time>
      </trkpt>
      <trkpt lat="44.5106" lon="3.63317">
        <ele>1007</ele>
        <time>2009-07-07T09:09:28Z</time>
      </trkpt>
      <trkpt lat="44.51058" lon="3.63367">
        <ele>1008</ele>
        <time>2009-07-07T09:09:39Z</time>
      </trkpt>
      <trkpt lat="44.51056" lon="3.6339">
        <ele>1009</ele>
        <time>2009-07-07T09:09:45Z</time>
      </trkpt>
      <trkpt lat="44.5105" lon="3.63394">
        <ele>1009</ele>
        <time>2009-07-07T09:09:57Z</time>
      </trkpt>
      <trkpt lat="44.51049" lon="3.63391">
        <ele>1009</ele>
        <time>2009-07-07T09:11:09Z</time>
      </trkpt>
      <trkpt lat="44.51049" lon="3.63391">
        <ele>1009</ele>
        <time>2009-07-07T09:12:34Z</time>
      </trkpt>
      <trkpt lat="44.51048" lon="3.63392">
        <ele>1009</ele>
        <time>2009-07-07T09:13:02Z</time>
      </trkpt>
      <trkpt lat="44.51046" lon="3.63393">
        <ele>1009</ele>
        <time>2009-07-07T09:13:23Z</time>
      </trkpt>
      <trkpt lat="44.5101" lon="3.63395">
        <ele>1011</ele>
        <time>2009-07-07T09:13:39Z</time>
      </trkpt>
      <trkpt lat="44.50971" lon="3.63412">
        <ele>1015</ele>
        <time>2009-07-07T09:13:55Z</time>
      </trkpt>
      <trkpt lat="44.50969" lon="3.63413">
        <ele>1014</ele>
        <time>2009-07-07T09:13:56Z</time>
      </trkpt>
      <trkpt lat="44.50935" lon="3.63422">
        <ele>1018</ele>
        <time>2009-07-07T09:14:13Z</time>
      </trkpt>
      <trkpt lat="44.50916" lon="3.6342">
        <ele>1021</ele>
        <time>2009-07-07T09:14:24Z</time>
      </trkpt>
      <trkpt lat="44.50893" lon="3.63417">
        <ele>1024</ele>
        <time>2009-07-07T09:14:38Z</time>
      </trkpt>
      <trkpt lat="44.50885" lon="3.63414">
        <ele>1027</ele>
        <time>2009-07-07T09:14:43Z</time>
      </trkpt>
      <trkpt lat="44.50859" lon="3.63397">
        <ele>1029</ele>
        <time>2009-07-07T09:15:00Z</time>
      </trkpt>
      <trkpt lat="44.50834" lon="3.63374">
        <ele>1031</ele>
        <time>2009-07-07T09:15:17Z</time>
      </trkpt>
      <trkpt lat="44.50826" lon="3.63366">
        <ele>1033</ele>
        <time>2009-07-07T09:15:23Z</time>
      </trkpt>
      <trkpt lat="44.50811" lon="3.6335">
        <ele>1036</ele>
        <time>2009-07-07T09:15:35Z</time>
      </trkpt>
      <trkpt lat="44.50795" lon="3.63332">
        <ele>1038</ele>
        <time>2009-07-07T09:15:52Z</time>
      </trkpt>
      <trkpt lat="44.50794" lon="3.63332">
        <ele>1038</ele>
        <time>2009-07-07T09:15:53Z</time>
      </trkpt>
      <trkpt lat="44.50775" lon="3.63304">
        <ele>1040</ele>
        <time>2009-07-07T09:16:09Z</time>
      </trkpt>
      <trkpt lat="44.50763" lon="3.63287">
        <ele>1043</ele>
        <time>2009-07-07T09:16:19Z</time>
      </trkpt>
      <trkpt lat="44.50733" lon="3.63265">
        <ele>1046</ele>
        <time>2009-07-07T09:16:37Z</time>
      </trkpt>
      <trkpt lat="44.50697" lon="3.63267">
        <ele>1048</ele>
        <time>2009-07-07T09:16:53Z</time>
      </trkpt>
      <trkpt lat="44.50675" lon="3.63253">
        <ele>1050</ele>
        <time>2009-07-07T09:17:07Z</time>
      </trkpt>
      <trkpt lat="44.50666" lon="3.63245">
        <ele>1052</ele>
        <time>2009-07-07T09:17:14Z</time>
      </trkpt>
      <trkpt lat="44.5065" lon="3.63232">
        <ele>1055</ele>
        <time>2009-07-07T09:17:27Z</time>
      </trkpt>
      <trkpt lat="44.50636" lon="3.63219">
        <ele>1058</ele>
        <time>2009-07-07T09:17:40Z</time>
      </trkpt>
      <trkpt lat="44.50627" lon="3.63213">
        <ele>1061</ele>
        <time>2009-07-07T09:17:48Z</time>
      </trkpt>
      <trkpt lat="44.50615" lon="3.63206">
        <ele>1065</ele>
        <time>2009-07-07T09:17:59Z</time>
      </trkpt>
      <trkpt lat="44.50614" lon="3.63206">
        <ele>1065</ele>
        <time>2009-07-07T09:18:00Z</time>
      </trkpt>
      <trkpt lat="44.50609" lon="3.63205">
        <ele>1068</ele>
        <time>2009-07-07T09:18:04Z</time>
      </trkpt>
      <trkpt lat="44.50604" lon="3.63204">
        <ele>1068</ele>
        <time>2009-07-07T09:18:08Z</time>
      </trkpt>
      <trkpt lat="44.50588" lon="3.63211">
        <ele>1072</ele>
        <time>2009-07-07T09:18:23Z</time>
      </trkpt>
      <trkpt lat="44.50583" lon="3.63213">
        <ele>1074</ele>
        <time>2009-07-07T09:18:30Z</time>
      </trkpt>
      <trkpt lat="44.50579" lon="3.63209">
        <ele>1077</ele>
        <time>2009-07-07T09:18:42Z</time>
      </trkpt>
      <trkpt lat="44.50573" lon="3.63211">
        <ele>1078</ele>
        <time>2009-07-07T09:18:56Z</time>
      </trkpt>
      <trkpt lat="44.50571" lon="3.63213">
        <ele>1079</ele>
        <time>2009-07-07T09:19:18Z</time>
      </trkpt>
      <trkpt lat="44.50566" lon="3.63213">
        <ele>1080</ele>
        <time>2009-07-07T09:19:22Z</time>
      </trkpt>
      <trkpt lat="44.50557" lon="3.63215">
        <ele>1082</ele>
        <time>2009-07-07T09:19:27Z</time>
      </trkpt>
      <trkpt lat="44.50544" lon="3.63218">
        <ele>1086</ele>
        <time>2009-07-07T09:19:35Z</time>
      </trkpt>
      <trkpt lat="44.5054" lon="3.63222">
        <ele>1088</ele>
        <time>2009-07-07T09:19:39Z</time>
      </trkpt>
      <trkpt lat="44.50535" lon="3.63225">
        <ele>1089</ele>
        <time>2009-07-07T09:19:43Z</time>
      </trkpt>
      <trkpt lat="44.50532" lon="3.6323">
        <ele>1091</ele>
        <time>2009-07-07T09:19:47Z</time>
      </trkpt>
      <trkpt lat="44.50523" lon="3.63238">
        <ele>1092</ele>
        <time>2009-07-07T09:19:59Z</time>
      </trkpt>
      <trkpt lat="44.50521" lon="3.63239">
        <ele>1092</ele>
        <time>2009-07-07T09:20:01Z</time>
      </trkpt>
      <trkpt lat="44.50514" lon="3.63243">
        <ele>1095</ele>
        <time>2009-07-07T09:20:08Z</time>
      </trkpt>
      <trkpt lat="44.5051" lon="3.63245">
        <ele>1097</ele>
        <time>2009-07-07T09:20:11Z</time>
      </trkpt>
      <trkpt lat="44.50499" lon="3.63254">
        <ele>1100</ele>
        <time>2009-07-07T09:20:22Z</time>
      </trkpt>
      <trkpt lat="44.50497" lon="3.63255">
        <ele>1100</ele>
        <time>2009-07-07T09:20:24Z</time>
      </trkpt>
      <trkpt lat="44.50491" lon="3.63262">
        <ele>1101</ele>
        <time>2009-07-07T09:20:29Z</time>
      </trkpt>
      <trkpt lat="44.50482" lon="3.63271">
        <ele>1104</ele>
        <time>2009-07-07T09:20:38Z</time>
      </trkpt>
      <trkpt lat="44.50468" lon="3.63287">
        <ele>1106</ele>
        <time>2009-07-07T09:20:50Z</time>
      </trkpt>
      <trkpt lat="44.50458" lon="3.63304">
        <ele>1107</ele>
        <time>2009-07-07T09:20:59Z</time>
      </trkpt>
      <trkpt lat="44.50454" lon="3.63321">
        <ele>1105</ele>
        <time>2009-07-07T09:21:07Z</time>
      </trkpt>
      <trkpt lat="44.50453" lon="3.63326">
        <ele>1105</ele>
        <time>2009-07-07T09:21:09Z</time>
      </trkpt>
      <trkpt lat="44.50448" lon="3.63331">
        <ele>1106</ele>
        <time>2009-07-07T09:21:13Z</time>
      </trkpt>
      <trkpt lat="44.50441" lon="3.63331">
        <ele>1108</ele>
        <time>2009-07-07T09:21:18Z</time>
      </trkpt>
      <trkpt lat="44.50434" lon="3.63335">
        <ele>1109</ele>
        <time>2009-07-07T09:21:32Z</time>
      </trkpt>
      <trkpt lat="44.50434" lon="3.63336">
        <ele>1110</ele>
        <time>2009-07-07T09:22:05Z</time>
      </trkpt>
      <trkpt lat="44.50434" lon="3.63338">
        <ele>1107</ele>
        <time>2009-07-07T09:22:50Z</time>
      </trkpt>
      <trkpt lat="44.50435" lon="3.63333">
        <ele>1110</ele>
        <time>2009-07-07T09:23:09Z</time>
      </trkpt>
      <trkpt lat="44.50435" lon="3.63333">
        <ele>1110</ele>
        <time>2009-07-07T09:23:10Z</time>
      </trkpt>
      <trkpt lat="44.50435" lon="3.63333">
        <ele>1105</ele>
        <time>2009-07-07T09:23:30Z</time>
      </trkpt>
      <trkpt lat="44.50435" lon="3.63333">
        <ele>1109</ele>
        <time>2009-07-07T09:23:31Z</time>
      </trkpt>
      <trkpt lat="44.50435" lon="3.63341">
        <ele>1108</ele>
        <time>2009-07-07T09:24:31Z</time>
      </trkpt>
      <trkpt lat="44.50436" lon="3.63331">
        <ele>1108</ele>
        <time>2009-07-07T09:26:18Z</time>
      </trkpt>
      <trkpt lat="44.5042" lon="3.63346">
        <ele>1109</ele>
        <time>2009-07-07T09:26:36Z</time>
      </trkpt>
      <trkpt lat="44.50399" lon="3.63359">
        <ele>1109</ele>
        <time>2009-07-07T09:26:47Z</time>
      </trkpt>
      <trkpt lat="44.50376" lon="3.63358">
        <ele>1110</ele>
        <time>2009-07-07T09:26:57Z</time>
      </trkpt>
      <trkpt lat="44.50361" lon="3.63369">
        <ele>1112</ele>
        <time>2009-07-07T09:27:05Z</time>
      </trkpt>
      <trkpt lat="44.50348" lon="3.63374">
        <ele>1114</ele>
        <time>2009-07-07T09:27:12Z</time>
      </trkpt>
      <trkpt lat="44.50316" lon="3.63386">
        <ele>1117</ele>
        <time>2009-07-07T09:27:30Z</time>
      </trkpt>
      <trkpt lat="44.50301" lon="3.63399">
        <ele>1120</ele>
        <time>2009-07-07T09:27:41Z</time>
      </trkpt>
      <trkpt lat="44.50282" lon="3.63411">
        <ele>1122</ele>
        <time>2009-07-07T09:27:56Z</time>
      </trkpt>
      <trkpt lat="44.50272" lon="3.63418">
        <ele>1124</ele>
        <time>2009-07-07T09:28:09Z</time>
      </trkpt>
      <trkpt lat="44.50269" lon="3.63426">
        <ele>1125</ele>
        <time>2009-07-07T09:28:20Z</time>
      </trkpt>
      <trkpt lat="44.50265" lon="3.63433">
        <ele>1125</ele>
        <time>2009-07-07T09:28:24Z</time>
      </trkpt>
      <trkpt lat="44.50248" lon="3.63462">
        <ele>1127</ele>
        <time>2009-07-07T09:28:38Z</time>
      </trkpt>
      <trkpt lat="44.5024" lon="3.63477">
        <ele>1129</ele>
        <time>2009-07-07T09:28:46Z</time>
      </trkpt>
      <trkpt lat="44.50212" lon="3.63495">
        <ele>1130</ele>
        <time>2009-07-07T09:29:04Z</time>
      </trkpt>
      <trkpt lat="44.50185" lon="3.63491">
        <ele>1132</ele>
        <time>2009-07-07T09:29:15Z</time>
      </trkpt>
      <trkpt lat="44.50161" lon="3.63504">
        <ele>1135</ele>
        <time>2009-07-07T09:29:29Z</time>
      </trkpt>
      <trkpt lat="44.5013" lon="3.63513">
        <ele>1137</ele>
        <time>2009-07-07T09:29:46Z</time>
      </trkpt>
      <trkpt lat="44.50101" lon="3.63519">
        <ele>1140</ele>
        <time>2009-07-07T09:30:01Z</time>
      </trkpt>
      <trkpt lat="44.50072" lon="3.63508">
        <ele>1142</ele>
        <time>2009-07-07T09:30:19Z</time>
      </trkpt>
      <trkpt lat="44.50053" lon="3.63501">
        <ele>1146</ele>
        <time>2009-07-07T09:30:33Z</time>
      </trkpt>
      <trkpt lat="44.50039" lon="3.63504">
        <ele>1148</ele>
        <time>2009-07-07T09:30:44Z</time>
      </trkpt>
      <trkpt lat="44.50023" lon="3.63501">
        <ele>1149</ele>
        <time>2009-07-07T09:30:56Z</time>
      </trkpt>
      <trkpt lat="44.50001" lon="3.63489">
        <ele>1153</ele>
        <time>2009-07-07T09:31:12Z</time>
      </trkpt>
      <trkpt lat="44.49993" lon="3.63484">
        <ele>1154</ele>
        <time>2009-07-07T09:31:26Z</time>
      </trkpt>
      <trkpt lat="44.49973" lon="3.63474">
        <ele>1157</ele>
        <time>2009-07-07T09:31:39Z</time>
      </trkpt>
      <trkpt lat="44.49948" lon="3.63462">
        <ele>1157</ele>
        <time>2009-07-07T09:31:55Z</time>
      </trkpt>
      <trkpt lat="44.49939" lon="3.63459">
        <ele>1160</ele>
        <time>2009-07-07T09:32:01Z</time>
      </trkpt>
      <trkpt lat="44.49916" lon="3.63451">
        <ele>1163</ele>
        <time>2009-07-07T09:32:16Z</time>
      </trkpt>
      <trkpt lat="44.4991" lon="3.63447">
        <ele>1165</ele>
        <time>2009-07-07T09:32:22Z</time>
      </trkpt>
      <trkpt lat="44.49909" lon="3.63447">
        <ele>1165</ele>
        <time>2009-07-07T09:32:23Z</time>
      </trkpt>
      <trkpt lat="44.49905" lon="3.63448">
        <ele>1164</ele>
        <time>2009-07-07T09:32:28Z</time>
      </trkpt>
      <trkpt lat="44.49897" lon="3.63446">
        <ele>1166</ele>
        <time>2009-07-07T09:32:42Z</time>
      </trkpt>
      <trkpt lat="44.49888" lon="3.63444">
        <ele>1167</ele>
        <time>2009-07-07T09:32:56Z</time>
      </trkpt>
      <trkpt lat="44.4987" lon="3.63439">
        <ele>1170</ele>
        <time>2009-07-07T09:33:08Z</time>
      </trkpt>
      <trkpt lat="44.49868" lon="3.6344">
        <ele>1171</ele>
        <time>2009-07-07T09:33:09Z</time>
      </trkpt>
      <trkpt lat="44.49859" lon="3.6344">
        <ele>1172</ele>
        <time>2009-07-07T09:33:14Z</time>
      </trkpt>
      <trkpt lat="44.49853" lon="3.63438">
        <ele>1173</ele>
        <time>2009-07-07T09:33:18Z</time>
      </trkpt>
      <trkpt lat="44.49847" lon="3.63435">
        <ele>1175</ele>
        <time>2009-07-07T09:33:22Z</time>
      </trkpt>
      <trkpt lat="44.49822" lon="3.63426">
        <ele>1175</ele>
        <time>2009-07-07T09:33:38Z</time>
      </trkpt>
      <trkpt lat="44.49815" lon="3.63426">
        <ele>1176</ele>
        <time>2009-07-07T09:33:42Z</time>
      </trkpt>
      <trkpt lat="44.49787" lon="3.63417">
        <ele>1179</ele>
        <time>2009-07-07T09:33:59Z</time>
      </trkpt>
      <trkpt lat="44.49777" lon="3.63414">
        <ele>1182</ele>
        <time>2009-07-07T09:34:05Z</time>
      </trkpt>
      <trkpt lat="44.4976" lon="3.63389">
        <ele>1184</ele>
        <time>2009-07-07T09:34:19Z</time>
      </trkpt>
      <trkpt lat="44.4976" lon="3.63387">
        <ele>1185</ele>
        <time>2009-07-07T09:34:35Z</time>
      </trkpt>
      <trkpt lat="44.4976" lon="3.63387">
        <ele>1184</ele>
        <time>2009-07-07T09:34:58Z</time>
      </trkpt>
      <trkpt lat="44.49758" lon="3.63385">
        <ele>1184</ele>
        <time>2009-07-07T09:36:36Z</time>
      </trkpt>
      <trkpt lat="44.49755" lon="3.63383">
        <ele>1188</ele>
        <time>2009-07-07T09:36:53Z</time>
      </trkpt>
      <trkpt lat="44.49755" lon="3.63383">
        <ele>1185</ele>
        <time>2009-07-07T09:36:54Z</time>
      </trkpt>
      <trkpt lat="44.49756" lon="3.63383">
        <ele>1185</ele>
        <time>2009-07-07T09:37:29Z</time>
      </trkpt>
      <trkpt lat="44.49758" lon="3.63384">
        <ele>1185</ele>
        <time>2009-07-07T09:38:34Z</time>
      </trkpt>
      <trkpt lat="44.49758" lon="3.63383">
        <ele>1186</ele>
        <time>2009-07-07T09:39:10Z</time>
      </trkpt>
      <trkpt lat="44.49757" lon="3.63376">
        <ele>1183</ele>
        <time>2009-07-07T09:39:48Z</time>
      </trkpt>
      <trkpt lat="44.49744" lon="3.63335">
        <ele>1180</ele>
        <time>2009-07-07T09:39:58Z</time>
      </trkpt>
      <trkpt lat="44.49738" lon="3.63321">
        <ele>1179</ele>
        <time>2009-07-07T09:40:00Z</time>
      </trkpt>
      <trkpt lat="44.49728" lon="3.63278">
        <ele>1178</ele>
        <time>2009-07-07T09:40:05Z</time>
      </trkpt>
      <trkpt lat="44.49713" lon="3.63223">
        <ele>1178</ele>
        <time>2009-07-07T09:40:12Z</time>
      </trkpt>
      <trkpt lat="44.49693" lon="3.63167">
        <ele>1178</ele>
        <time>2009-07-07T09:40:23Z</time>
      </trkpt>
      <trkpt lat="44.49673" lon="3.63128">
        <ele>1179</ele>
        <time>2009-07-07T09:40:34Z</time>
      </trkpt>
      <trkpt lat="44.4966" lon="3.63094">
        <ele>1182</ele>
        <time>2009-07-07T09:40:45Z</time>
      </trkpt>
      <trkpt lat="44.49659" lon="3.63091">
        <ele>1182</ele>
        <time>2009-07-07T09:40:46Z</time>
      </trkpt>
      <trkpt lat="44.49653" lon="3.63079">
        <ele>1185</ele>
        <time>2009-07-07T09:40:51Z</time>
      </trkpt>
      <trkpt lat="44.49634" lon="3.63051">
        <ele>1186</ele>
        <time>2009-07-07T09:41:03Z</time>
      </trkpt>
      <trkpt lat="44.49619" lon="3.63008">
        <ele>1186</ele>
        <time>2009-07-07T09:41:18Z</time>
      </trkpt>
      <trkpt lat="44.49613" lon="3.62988">
        <ele>1189</ele>
        <time>2009-07-07T09:41:26Z</time>
      </trkpt>
      <trkpt lat="44.49613" lon="3.62985">
        <ele>1190</ele>
        <time>2009-07-07T09:41:27Z</time>
      </trkpt>
      <trkpt lat="44.4959" lon="3.62953">
        <ele>1188</ele>
        <time>2009-07-07T09:41:39Z</time>
      </trkpt>
      <trkpt lat="44.49568" lon="3.6292">
        <ele>1188</ele>
        <time>2009-07-07T09:41:51Z</time>
      </trkpt>
      <trkpt lat="44.49566" lon="3.62913">
        <ele>1187</ele>
        <time>2009-07-07T09:41:53Z</time>
      </trkpt>
      <trkpt lat="44.49566" lon="3.6291">
        <ele>1187</ele>
        <time>2009-07-07T09:41:54Z</time>
      </trkpt>
      <trkpt lat="44.49561" lon="3.62907">
        <ele>1189</ele>
        <time>2009-07-07T09:41:57Z</time>
      </trkpt>
      <trkpt lat="44.49559" lon="3.62908">
        <ele>1190</ele>
        <time>2009-07-07T09:41:58Z</time>
      </trkpt>
      <trkpt lat="44.49555" lon="3.62911">
        <ele>1190</ele>
        <time>2009-07-07T09:42:01Z</time>
      </trkpt>
      <trkpt lat="44.49536" lon="3.62908">
        <ele>1192</ele>
        <time>2009-07-07T09:42:13Z</time>
      </trkpt>
      <trkpt lat="44.49514" lon="3.62907">
        <ele>1195</ele>
        <time>2009-07-07T09:42:26Z</time>
      </trkpt>
      <trkpt lat="44.49491" lon="3.62902">
        <ele>1198</ele>
        <time>2009-07-07T09:42:37Z</time>
      </trkpt>
      <trkpt lat="44.49465" lon="3.62898">
        <ele>1200</ele>
        <time>2009-07-07T09:42:50Z</time>
      </trkpt>
      <trkpt lat="44.49442" lon="3.62904">
        <ele>1202</ele>
        <time>2009-07-07T09:43:04Z</time>
      </trkpt>
      <trkpt lat="44.49428" lon="3.62906">
        <ele>1204</ele>
        <time>2009-07-07T09:43:14Z</time>
      </trkpt>
      <trkpt lat="44.49409" lon="3.6291">
        <ele>1207</ele>
        <time>2009-07-07T09:43:27Z</time>
      </trkpt>
      <trkpt lat="44.494" lon="3.6291">
        <ele>1209</ele>
        <time>2009-07-07T09:43:34Z</time>
      </trkpt>
      <trkpt lat="44.49379" lon="3.62915">
        <ele>1212</ele>
        <time>2009-07-07T09:43:47Z</time>
      </trkpt>
      <trkpt lat="44.49368" lon="3.62919">
        <ele>1213</ele>
        <time>2009-07-07T09:43:56Z</time>
      </trkpt>
      <trkpt lat="44.49331" lon="3.62924">
        <ele>1214</ele>
        <time>2009-07-07T09:44:11Z</time>
      </trkpt>
      <trkpt lat="44.49292" lon="3.62924">
        <ele>1212</ele>
        <time>2009-07-07T09:44:21Z</time>
      </trkpt>
      <trkpt lat="44.4926" lon="3.62935">
        <ele>1214</ele>
        <time>2009-07-07T09:44:33Z</time>
      </trkpt>
      <trkpt lat="44.49255" lon="3.62934">
        <ele>1215</ele>
        <time>2009-07-07T09:44:44Z</time>
      </trkpt>
      <trkpt lat="44.49254" lon="3.62936">
        <ele>1214</ele>
        <time>2009-07-07T09:45:06Z</time>
      </trkpt>
      <trkpt lat="44.49251" lon="3.62937">
        <ele>1214</ele>
        <time>2009-07-07T09:45:34Z</time>
      </trkpt>
      <trkpt lat="44.49233" lon="3.62941">
        <ele>1215</ele>
        <time>2009-07-07T09:45:48Z</time>
      </trkpt>
      <trkpt lat="44.49211" lon="3.62954">
        <ele>1216</ele>
        <time>2009-07-07T09:46:03Z</time>
      </trkpt>
      <trkpt lat="44.49183" lon="3.62962">
        <ele>1217</ele>
        <time>2009-07-07T09:46:16Z</time>
      </trkpt>
      <trkpt lat="44.49162" lon="3.62964">
        <ele>1218</ele>
        <time>2009-07-07T09:46:26Z</time>
      </trkpt>
      <trkpt lat="44.49124" lon="3.62974">
        <ele>1222</ele>
        <time>2009-07-07T09:46:45Z</time>
      </trkpt>
      <trkpt lat="44.49119" lon="3.62982">
        <ele>1221</ele>
        <time>2009-07-07T09:47:01Z</time>
      </trkpt>
      <trkpt lat="44.49117" lon="3.62982">
        <ele>1219</ele>
        <time>2009-07-07T09:47:29Z</time>
      </trkpt>
      <trkpt lat="44.4912" lon="3.62987">
        <ele>1221</ele>
        <time>2009-07-07T09:47:48Z</time>
      </trkpt>
      <trkpt lat="44.49115" lon="3.62998">
        <ele>1220</ele>
        <time>2009-07-07T09:48:28Z</time>
      </trkpt>
      <trkpt lat="44.49126" lon="3.62993">
        <ele>1222</ele>
        <time>2009-07-07T09:48:58Z</time>
      </trkpt>
      <trkpt lat="44.49131" lon="3.6299">
        <ele>1223</ele>
        <time>2009-07-07T09:49:29Z</time>
      </trkpt>
      <trkpt lat="44.49128" lon="3.62992">
        <ele>1222</ele>
        <time>2009-07-07T09:49:49Z</time>
      </trkpt>
      <trkpt lat="44.49124" lon="3.62991">
        <ele>1223</ele>
        <time>2009-07-07T09:50:13Z</time>
      </trkpt>
      <trkpt lat="44.49117" lon="3.62979">
        <ele>1223</ele>
        <time>2009-07-07T09:50:37Z</time>
      </trkpt>
      <trkpt lat="44.49101" lon="3.62979">
        <ele>1224</ele>
        <time>2009-07-07T09:51:04Z</time>
      </trkpt>
      <trkpt lat="44.49085" lon="3.62983">
        <ele>1227</ele>
        <time>2009-07-07T09:51:18Z</time>
      </trkpt>
      <trkpt lat="44.49081" lon="3.62984">
        <ele>1229</ele>
        <time>2009-07-07T09:51:21Z</time>
      </trkpt>
      <trkpt lat="44.49061" lon="3.62986">
        <ele>1232</ele>
        <time>2009-07-07T09:51:33Z</time>
      </trkpt>
      <trkpt lat="44.49057" lon="3.62987">
        <ele>1232</ele>
        <time>2009-07-07T09:51:36Z</time>
      </trkpt>
      <trkpt lat="44.49037" lon="3.62987">
        <ele>1235</ele>
        <time>2009-07-07T09:51:53Z</time>
      </trkpt>
      <trkpt lat="44.49028" lon="3.6299">
        <ele>1237</ele>
        <time>2009-07-07T09:51:59Z</time>
      </trkpt>
      <trkpt lat="44.49011" lon="3.62995">
        <ele>1240</ele>
        <time>2009-07-07T09:52:12Z</time>
      </trkpt>
      <trkpt lat="44.49001" lon="3.62999">
        <ele>1243</ele>
        <time>2009-07-07T09:52:20Z</time>
      </trkpt>
      <trkpt lat="44.4899" lon="3.62989">
        <ele>1245</ele>
        <time>2009-07-07T09:52:31Z</time>
      </trkpt>
      <trkpt lat="44.4898" lon="3.62984">
        <ele>1248</ele>
        <time>2009-07-07T09:52:40Z</time>
      </trkpt>
      <trkpt lat="44.4897" lon="3.62984">
        <ele>1250</ele>
        <time>2009-07-07T09:52:53Z</time>
      </trkpt>
      <trkpt lat="44.48961" lon="3.62987">
        <ele>1252</ele>
        <time>2009-07-07T09:53:09Z</time>
      </trkpt>
      <trkpt lat="44.4895" lon="3.62992">
        <ele>1254</ele>
        <time>2009-07-07T09:53:24Z</time>
      </trkpt>
      <trkpt lat="44.48939" lon="3.63">
        <ele>1257</ele>
        <time>2009-07-07T09:53:39Z</time>
      </trkpt>
      <trkpt lat="44.48933" lon="3.63006">
        <ele>1260</ele>
        <time>2009-07-07T09:53:51Z</time>
      </trkpt>
      <trkpt lat="44.48924" lon="3.63016">
        <ele>1262</ele>
        <time>2009-07-07T09:54:06Z</time>
      </trkpt>
      <trkpt lat="44.48916" lon="3.63022">
        <ele>1264</ele>
        <time>2009-07-07T09:54:20Z</time>
      </trkpt>
      <trkpt lat="44.48911" lon="3.63026">
        <ele>1265</ele>
        <time>2009-07-07T09:54:25Z</time>
      </trkpt>
      <trkpt lat="44.48896" lon="3.63036">
        <ele>1267</ele>
        <time>2009-07-07T09:54:36Z</time>
      </trkpt>
      <trkpt lat="44.48877" lon="3.63035">
        <ele>1270</ele>
        <time>2009-07-07T09:54:49Z</time>
      </trkpt>
      <trkpt lat="44.48874" lon="3.63035">
        <ele>1272</ele>
        <time>2009-07-07T09:54:52Z</time>
      </trkpt>
      <trkpt lat="44.48865" lon="3.63035">
        <ele>1275</ele>
        <time>2009-07-07T09:55:00Z</time>
      </trkpt>
      <trkpt lat="44.48852" lon="3.63037">
        <ele>1276</ele>
        <time>2009-07-07T09:55:17Z</time>
      </trkpt>
      <trkpt lat="44.48844" lon="3.63042">
        <ele>1279</ele>
        <time>2009-07-07T09:55:30Z</time>
      </trkpt>
      <trkpt lat="44.4883" lon="3.63044">
        <ele>1280</ele>
        <time>2009-07-07T09:55:52Z</time>
      </trkpt>
      <trkpt lat="44.48807" lon="3.63033">
        <ele>1283</ele>
        <time>2009-07-07T09:56:06Z</time>
      </trkpt>
      <trkpt lat="44.48795" lon="3.63034">
        <ele>1286</ele>
        <time>2009-07-07T09:56:15Z</time>
      </trkpt>
      <trkpt lat="44.48773" lon="3.63031">
        <ele>1288</ele>
        <time>2009-07-07T09:56:29Z</time>
      </trkpt>
      <trkpt lat="44.48752" lon="3.63021">
        <ele>1292</ele>
        <time>2009-07-07T09:56:43Z</time>
      </trkpt>
      <trkpt lat="44.48738" lon="3.63017">
        <ele>1294</ele>
        <time>2009-07-07T09:56:54Z</time>
      </trkpt>
      <trkpt lat="44.48729" lon="3.6302">
        <ele>1297</ele>
        <time>2009-07-07T09:57:02Z</time>
      </trkpt>
      <trkpt lat="44.48723" lon="3.63021">
        <ele>1298</ele>
        <time>2009-07-07T09:57:10Z</time>
      </trkpt>
      <trkpt lat="44.48707" lon="3.63025">
        <ele>1301</ele>
        <time>2009-07-07T09:57:22Z</time>
      </trkpt>
      <trkpt lat="44.48705" lon="3.63024">
        <ele>1301</ele>
        <time>2009-07-07T09:57:23Z</time>
      </trkpt>
      <trkpt lat="44.48686" lon="3.63024">
        <ele>1304</ele>
        <time>2009-07-07T09:57:37Z</time>
      </trkpt>
      <trkpt lat="44.48683" lon="3.63025">
        <ele>1304</ele>
        <time>2009-07-07T09:57:39Z</time>
      </trkpt>
      <trkpt lat="44.48664" lon="3.63018">
        <ele>1307</ele>
        <time>2009-07-07T09:57:52Z</time>
      </trkpt>
      <trkpt lat="44.48649" lon="3.63011">
        <ele>1310</ele>
        <time>2009-07-07T09:58:05Z</time>
      </trkpt>
      <trkpt lat="44.48643" lon="3.63009">
        <ele>1312</ele>
        <time>2009-07-07T09:58:09Z</time>
      </trkpt>
      <trkpt lat="44.48607" lon="3.63006">
        <ele>1315</ele>
        <time>2009-07-07T09:58:27Z</time>
      </trkpt>
      <trkpt lat="44.48578" lon="3.63005">
        <ele>1318</ele>
        <time>2009-07-07T09:58:40Z</time>
      </trkpt>
      <trkpt lat="44.48551" lon="3.63008">
        <ele>1321</ele>
        <time>2009-07-07T09:58:54Z</time>
      </trkpt>
      <trkpt lat="44.48522" lon="3.63009">
        <ele>1323</ele>
        <time>2009-07-07T09:59:07Z</time>
      </trkpt>
      <trkpt lat="44.48487" lon="3.62995">
        <ele>1324</ele>
        <time>2009-07-07T09:59:26Z</time>
      </trkpt>
      <trkpt lat="44.48485" lon="3.6299">
        <ele>1325</ele>
        <time>2009-07-07T09:59:53Z</time>
      </trkpt>
      <trkpt lat="44.48485" lon="3.62995">
        <ele>1325</ele>
        <time>2009-07-07T10:00:16Z</time>
      </trkpt>
      <trkpt lat="44.48481" lon="3.62988">
        <ele>1325</ele>
        <time>2009-07-07T10:00:40Z</time>
      </trkpt>
      <trkpt lat="44.4848" lon="3.62992">
        <ele>1325</ele>
        <time>2009-07-07T10:01:36Z</time>
      </trkpt>
      <trkpt lat="44.4848" lon="3.62999">
        <ele>1325</ele>
        <time>2009-07-07T10:02:05Z</time>
      </trkpt>
      <trkpt lat="44.48483" lon="3.62995">
        <ele>1326</ele>
        <time>2009-07-07T10:02:24Z</time>
      </trkpt>
      <trkpt lat="44.48472" lon="3.62986">
        <ele>1327</ele>
        <time>2009-07-07T10:02:48Z</time>
      </trkpt>
      <trkpt lat="44.48431" lon="3.62962">
        <ele>1327</ele>
        <time>2009-07-07T10:03:04Z</time>
      </trkpt>
      <trkpt lat="44.48391" lon="3.62932">
        <ele>1328</ele>
        <time>2009-07-07T10:03:17Z</time>
      </trkpt>
      <trkpt lat="44.48357" lon="3.62898">
        <ele>1329</ele>
        <time>2009-07-07T10:03:29Z</time>
      </trkpt>
      <trkpt lat="44.48317" lon="3.62858">
        <ele>1329</ele>
        <time>2009-07-07T10:03:43Z</time>
      </trkpt>
      <trkpt lat="44.48271" lon="3.62816">
        <ele>1329</ele>
        <time>2009-07-07T10:03:57Z</time>
      </trkpt>
      <trkpt lat="44.48213" lon="3.62764">
        <ele>1332</ele>
        <time>2009-07-07T10:04:15Z</time>
      </trkpt>
      <trkpt lat="44.48161" lon="3.62745">
        <ele>1333</ele>
        <time>2009-07-07T10:04:31Z</time>
      </trkpt>
      <trkpt lat="44.48119" lon="3.62746">
        <ele>1334</ele>
        <time>2009-07-07T10:04:44Z</time>
      </trkpt>
      <trkpt lat="44.48077" lon="3.62749">
        <ele>1335</ele>
        <time>2009-07-07T10:04:57Z</time>
      </trkpt>
      <trkpt lat="44.48047" lon="3.62751">
        <ele>1337</ele>
        <time>2009-07-07T10:05:07Z</time>
      </trkpt>
      <trkpt lat="44.48017" lon="3.62751">
        <ele>1339</ele>
        <time>2009-07-07T10:05:19Z</time>
      </trkpt>
      <trkpt lat="44.47994" lon="3.62752">
        <ele>1342</ele>
        <time>2009-07-07T10:05:28Z</time>
      </trkpt>
      <trkpt lat="44.47986" lon="3.62749">
        <ele>1342</ele>
        <time>2009-07-07T10:05:39Z</time>
      </trkpt>
      <trkpt lat="44.47986" lon="3.62748">
        <ele>1342</ele>
        <time>2009-07-07T10:05:45Z</time>
      </trkpt>
      <trkpt lat="44.48001" lon="3.62752">
        <ele>1340</ele>
        <time>2009-07-07T10:05:52Z</time>
      </trkpt>
      <trkpt lat="44.48029" lon="3.62749">
        <ele>1340</ele>
        <time>2009-07-07T10:06:03Z</time>
      </trkpt>
      <trkpt lat="44.48035" lon="3.62751">
        <ele>1338</ele>
        <time>2009-07-07T10:06:20Z</time>
      </trkpt>
      <trkpt lat="44.48043" lon="3.62749">
        <ele>1339</ele>
        <time>2009-07-07T10:06:40Z</time>
      </trkpt>
      <trkpt lat="44.4804" lon="3.62752">
        <ele>1338</ele>
        <time>2009-07-07T10:07:14Z</time>
      </trkpt>
      <trkpt lat="44.48035" lon="3.62755">
        <ele>1337</ele>
        <time>2009-07-07T10:07:31Z</time>
      </trkpt>
      <trkpt lat="44.48034" lon="3.62755">
        <ele>1338</ele>
        <time>2009-07-07T10:07:51Z</time>
      </trkpt>
      <trkpt lat="44.48037" lon="3.62756">
        <ele>1337</ele>
        <time>2009-07-07T10:08:12Z</time>
      </trkpt>
      <trkpt lat="44.48036" lon="3.62749">
        <ele>1338</ele>
        <time>2009-07-07T10:08:49Z</time>
      </trkpt>
      <trkpt lat="44.4803" lon="3.62748">
        <ele>1339</ele>
        <time>2009-07-07T10:09:15Z</time>
      </trkpt>
      <trkpt lat="44.48027" lon="3.62747">
        <ele>1339</ele>
        <time>2009-07-07T10:09:37Z</time>
      </trkpt>
      <trkpt lat="44.48026" lon="3.6275">
        <ele>1338</ele>
        <time>2009-07-07T10:10:03Z</time>
      </trkpt>
      <trkpt lat="44.48027" lon="3.6275">
        <ele>1338</ele>
        <time>2009-07-07T10:10:39Z</time>
      </trkpt>
      <trkpt lat="44.48026" lon="3.62751">
        <ele>1337</ele>
        <time>2009-07-07T10:10:49Z</time>
      </trkpt>
      <trkpt lat="44.48025" lon="3.6275">
        <ele>1338</ele>
        <time>2009-07-07T10:11:12Z</time>
      </trkpt>
      <trkpt lat="44.48019" lon="3.62749">
        <ele>1338</ele>
        <time>2009-07-07T10:11:16Z</time>
      </trkpt>
      <trkpt lat="44.47991" lon="3.62749">
        <ele>1340</ele>
        <time>2009-07-07T10:11:29Z</time>
      </trkpt>
      <trkpt lat="44.47948" lon="3.6275">
        <ele>1342</ele>
        <time>2009-07-07T10:11:43Z</time>
      </trkpt>
      <trkpt lat="44.47914" lon="3.62766">
        <ele>1341</ele>
        <time>2009-07-07T10:11:54Z</time>
      </trkpt>
      <trkpt lat="44.4788" lon="3.62785">
        <ele>1343</ele>
        <time>2009-07-07T10:12:05Z</time>
      </trkpt>
      <trkpt lat="44.47869" lon="3.62798">
        <ele>1345</ele>
        <time>2009-07-07T10:12:09Z</time>
      </trkpt>
      <trkpt lat="44.47847" lon="3.62832">
        <ele>1347</ele>
        <time>2009-07-07T10:12:19Z</time>
      </trkpt>
      <trkpt lat="44.47828" lon="3.62867">
        <ele>1350</ele>
        <time>2009-07-07T10:12:32Z</time>
      </trkpt>
      <trkpt lat="44.47803" lon="3.62897">
        <ele>1351</ele>
        <time>2009-07-07T10:12:47Z</time>
      </trkpt>
      <trkpt lat="44.47787" lon="3.62909">
        <ele>1353</ele>
        <time>2009-07-07T10:12:57Z</time>
      </trkpt>
      <trkpt lat="44.47779" lon="3.62914">
        <ele>1353</ele>
        <time>2009-07-07T10:13:02Z</time>
      </trkpt>
      <trkpt lat="44.47751" lon="3.62934">
        <ele>1355</ele>
        <time>2009-07-07T10:13:17Z</time>
      </trkpt>
      <trkpt lat="44.47728" lon="3.6295">
        <ele>1356</ele>
        <time>2009-07-07T10:13:30Z</time>
      </trkpt>
      <trkpt lat="44.47708" lon="3.62971">
        <ele>1357</ele>
        <time>2009-07-07T10:13:43Z</time>
      </trkpt>
      <trkpt lat="44.47699" lon="3.62978">
        <ele>1358</ele>
        <time>2009-07-07T10:13:48Z</time>
      </trkpt>
      <trkpt lat="44.4768" lon="3.63">
        <ele>1361</ele>
        <time>2009-07-07T10:13:59Z</time>
      </trkpt>
      <trkpt lat="44.47653" lon="3.63031">
        <ele>1363</ele>
        <time>2009-07-07T10:14:14Z</time>
      </trkpt>
      <trkpt lat="44.47634" lon="3.63066">
        <ele>1366</ele>
        <time>2009-07-07T10:14:27Z</time>
      </trkpt>
      <trkpt lat="44.47625" lon="3.63102">
        <ele>1367</ele>
        <time>2009-07-07T10:14:39Z</time>
      </trkpt>
      <trkpt lat="44.4762" lon="3.63116">
        <ele>1369</ele>
        <time>2009-07-07T10:14:44Z</time>
      </trkpt>
      <trkpt lat="44.47595" lon="3.63156">
        <ele>1370</ele>
        <time>2009-07-07T10:14:58Z</time>
      </trkpt>
      <trkpt lat="44.47549" lon="3.63172">
        <ele>1371</ele>
        <time>2009-07-07T10:15:13Z</time>
      </trkpt>
      <trkpt lat="44.47507" lon="3.63174">
        <ele>1372</ele>
        <time>2009-07-07T10:15:27Z</time>
      </trkpt>
      <trkpt lat="44.4748" lon="3.63176">
        <ele>1374</ele>
        <time>2009-07-07T10:15:38Z</time>
      </trkpt>
      <trkpt lat="44.47443" lon="3.63187">
        <ele>1374</ele>
        <time>2009-07-07T10:15:53Z</time>
      </trkpt>
      <trkpt lat="44.47423" lon="3.63197">
        <ele>1375</ele>
        <time>2009-07-07T10:16:06Z</time>
      </trkpt>
      <trkpt lat="44.47417" lon="3.63199">
        <ele>1376</ele>
        <time>2009-07-07T10:16:10Z</time>
      </trkpt>
      <trkpt lat="44.47403" lon="3.63204">
        <ele>1376</ele>
        <time>2009-07-07T10:16:17Z</time>
      </trkpt>
      <trkpt lat="44.47388" lon="3.63214">
        <ele>1377</ele>
        <time>2009-07-07T10:16:23Z</time>
      </trkpt>
      <trkpt lat="44.47374" lon="3.63219">
        <ele>1377</ele>
        <time>2009-07-07T10:16:28Z</time>
      </trkpt>
      <trkpt lat="44.47341" lon="3.63246">
        <ele>1379</ele>
        <time>2009-07-07T10:16:42Z</time>
      </trkpt>
      <trkpt lat="44.47315" lon="3.63275">
        <ele>1378</ele>
        <time>2009-07-07T10:16:53Z</time>
      </trkpt>
      <trkpt lat="44.47287" lon="3.63302">
        <ele>1378</ele>
        <time>2009-07-07T10:17:03Z</time>
      </trkpt>
      <trkpt lat="44.47259" lon="3.63331">
        <ele>1378</ele>
        <time>2009-07-07T10:17:15Z</time>
      </trkpt>
      <trkpt lat="44.47208" lon="3.63373">
        <ele>1378</ele>
        <time>2009-07-07T10:17:33Z</time>
      </trkpt>
      <trkpt lat="44.47167" lon="3.63374">
        <ele>1379</ele>
        <time>2009-07-07T10:17:46Z</time>
      </trkpt>
      <trkpt lat="44.47126" lon="3.63337">
        <ele>1380</ele>
        <time>2009-07-07T10:17:59Z</time>
      </trkpt>
      <trkpt lat="44.47101" lon="3.63285">
        <ele>1382</ele>
        <time>2009-07-07T10:18:12Z</time>
      </trkpt>
      <trkpt lat="44.47085" lon="3.63236">
        <ele>1383</ele>
        <time>2009-07-07T10:18:23Z</time>
      </trkpt>
      <trkpt lat="44.47068" lon="3.63189">
        <ele>1384</ele>
        <time>2009-07-07T10:18:34Z</time>
      </trkpt>
      <trkpt lat="44.47042" lon="3.63127">
        <ele>1386</ele>
        <time>2009-07-07T10:18:49Z</time>
      </trkpt>
      <trkpt lat="44.47021" lon="3.63091">
        <ele>1388</ele>
        <time>2009-07-07T10:19:00Z</time>
      </trkpt>
      <trkpt lat="44.46998" lon="3.63067">
        <ele>1392</ele>
        <time>2009-07-07T10:19:11Z</time>
      </trkpt>
      <trkpt lat="44.46996" lon="3.63066">
        <ele>1392</ele>
        <time>2009-07-07T10:19:12Z</time>
      </trkpt>
      <trkpt lat="44.46958" lon="3.63053">
        <ele>1394</ele>
        <time>2009-07-07T10:19:26Z</time>
      </trkpt>
      <trkpt lat="44.46926" lon="3.63046">
        <ele>1394</ele>
        <time>2009-07-07T10:19:38Z</time>
      </trkpt>
      <trkpt lat="44.46882" lon="3.63036">
        <ele>1395</ele>
        <time>2009-07-07T10:19:53Z</time>
      </trkpt>
      <trkpt lat="44.4688" lon="3.63037">
        <ele>1395</ele>
        <time>2009-07-07T10:20:05Z</time>
      </trkpt>
      <trkpt lat="44.46868" lon="3.63033">
        <ele>1395</ele>
        <time>2009-07-07T10:20:19Z</time>
      </trkpt>
      <trkpt lat="44.46849" lon="3.63027">
        <ele>1393</ele>
        <time>2009-07-07T10:20:38Z</time>
      </trkpt>
      <trkpt lat="44.468" lon="3.63015">
        <ele>1394</ele>
        <time>2009-07-07T10:20:52Z</time>
      </trkpt>
      <trkpt lat="44.46737" lon="3.62981">
        <ele>1393</ele>
        <time>2009-07-07T10:21:06Z</time>
      </trkpt>
      <trkpt lat="44.46679" lon="3.6296">
        <ele>1393</ele>
        <time>2009-07-07T10:21:23Z</time>
      </trkpt>
      <trkpt lat="44.4668" lon="3.62961">
        <ele>1393</ele>
        <time>2009-07-07T10:21:56Z</time>
      </trkpt>
      <trkpt lat="44.46659" lon="3.62957">
        <ele>1393</ele>
        <time>2009-07-07T10:22:24Z</time>
      </trkpt>
      <trkpt lat="44.46602" lon="3.62946">
        <ele>1394</ele>
        <time>2009-07-07T10:22:42Z</time>
      </trkpt>
      <trkpt lat="44.46566" lon="3.6294">
        <ele>1394</ele>
        <time>2009-07-07T10:22:56Z</time>
      </trkpt>
      <trkpt lat="44.46544" lon="3.62941">
        <ele>1395</ele>
        <time>2009-07-07T10:23:04Z</time>
      </trkpt>
      <trkpt lat="44.46506" lon="3.6294">
        <ele>1396</ele>
        <time>2009-07-07T10:23:16Z</time>
      </trkpt>
      <trkpt lat="44.46488" lon="3.62939">
        <ele>1396</ele>
        <time>2009-07-07T10:23:22Z</time>
      </trkpt>
      <trkpt lat="44.46482" lon="3.62942">
        <ele>1396</ele>
        <time>2009-07-07T10:23:24Z</time>
      </trkpt>
      <trkpt lat="44.46469" lon="3.62942">
        <ele>1397</ele>
        <time>2009-07-07T10:23:29Z</time>
      </trkpt>
      <trkpt lat="44.46443" lon="3.62945">
        <ele>1398</ele>
        <time>2009-07-07T10:23:37Z</time>
      </trkpt>
      <trkpt lat="44.4641" lon="3.6295">
        <ele>1400</ele>
        <time>2009-07-07T10:23:50Z</time>
      </trkpt>
      <trkpt lat="44.46377" lon="3.62954">
        <ele>1402</ele>
        <time>2009-07-07T10:24:04Z</time>
      </trkpt>
      <trkpt lat="44.46347" lon="3.62964">
        <ele>1403</ele>
        <time>2009-07-07T10:24:17Z</time>
      </trkpt>
      <trkpt lat="44.46317" lon="3.62973">
        <ele>1403</ele>
        <time>2009-07-07T10:24:30Z</time>
      </trkpt>
      <trkpt lat="44.46293" lon="3.62982">
        <ele>1405</ele>
        <time>2009-07-07T10:24:42Z</time>
      </trkpt>
      <trkpt lat="44.46287" lon="3.62983">
        <ele>1406</ele>
        <time>2009-07-07T10:24:45Z</time>
      </trkpt>
      <trkpt lat="44.46267" lon="3.62991">
        <ele>1407</ele>
        <time>2009-07-07T10:24:55Z</time>
      </trkpt>
      <trkpt lat="44.46239" lon="3.62993">
        <ele>1408</ele>
        <time>2009-07-07T10:25:07Z</time>
      </trkpt>
      <trkpt lat="44.46215" lon="3.62995">
        <ele>1411</ele>
        <time>2009-07-07T10:25:16Z</time>
      </trkpt>
      <trkpt lat="44.46181" lon="3.62999">
        <ele>1412</ele>
        <time>2009-07-07T10:25:30Z</time>
      </trkpt>
      <trkpt lat="44.46153" lon="3.62996">
        <ele>1414</ele>
        <time>2009-07-07T10:25:41Z</time>
      </trkpt>
      <trkpt lat="44.46113" lon="3.62992">
        <ele>1415</ele>
        <time>2009-07-07T10:25:55Z</time>
      </trkpt>
      <trkpt lat="44.46074" lon="3.62991">
        <ele>1417</ele>
        <time>2009-07-07T10:26:10Z</time>
      </trkpt>
      <trkpt lat="44.46061" lon="3.62991">
        <ele>1418</ele>
        <time>2009-07-07T10:26:16Z</time>
      </trkpt>
      <trkpt lat="44.46047" lon="3.62993">
        <ele>1419</ele>
        <time>2009-07-07T10:26:21Z</time>
      </trkpt>
      <trkpt lat="44.46016" lon="3.62992">
        <ele>1420</ele>
        <time>2009-07-07T10:26:35Z</time>
      </trkpt>
      <trkpt lat="44.45989" lon="3.62989">
        <ele>1422</ele>
        <time>2009-07-07T10:26:47Z</time>
      </trkpt>
      <trkpt lat="44.45989" lon="3.62991">
        <ele>1421</ele>
        <time>2009-07-07T10:26:59Z</time>
      </trkpt>
      <trkpt lat="44.45991" lon="3.62995">
        <ele>1420</ele>
        <time>2009-07-07T10:28:48Z</time>
      </trkpt>
      <trkpt lat="44.45993" lon="3.62995">
        <ele>1421</ele>
        <time>2009-07-07T10:29:31Z</time>
      </trkpt>
      <trkpt lat="44.4599" lon="3.62996">
        <ele>1424</ele>
        <time>2009-07-07T10:32:26Z</time>
      </trkpt>
      <trkpt lat="44.4599" lon="3.62994">
        <ele>1421</ele>
        <time>2009-07-07T10:33:44Z</time>
      </trkpt>
      <trkpt lat="44.45989" lon="3.62993">
        <ele>1422</ele>
        <time>2009-07-07T10:35:22Z</time>
      </trkpt>
      <trkpt lat="44.45989" lon="3.62993">
        <ele>1425</ele>
        <time>2009-07-07T10:40:16Z</time>
      </trkpt>
      <trkpt lat="44.45989" lon="3.62992">
        <ele>1423</ele>
        <time>2009-07-07T10:41:47Z</time>
      </trkpt>
      <trkpt lat="44.45986" lon="3.62994">
        <ele>1423</ele>
        <time>2009-07-07T10:45:24Z</time>
      </trkpt>
      <trkpt lat="44.45986" lon="3.62992">
        <ele>1424</ele>
        <time>2009-07-07T10:45:47Z</time>
      </trkpt>
      <trkpt lat="44.45987" lon="3.62991">
        <ele>1424</ele>
        <time>2009-07-07T10:46:55Z</time>
      </trkpt>
      <trkpt lat="44.4597" lon="3.6299">
        <ele>1425</ele>
        <time>2009-07-07T10:47:22Z</time>
      </trkpt>
      <trkpt lat="44.45959" lon="3.62989">
        <ele>1427</ele>
        <time>2009-07-07T10:47:35Z</time>
      </trkpt>
      <trkpt lat="44.45932" lon="3.62985">
        <ele>1428</ele>
        <time>2009-07-07T10:47:53Z</time>
      </trkpt>
      <trkpt lat="44.4591" lon="3.62976">
        <ele>1430</ele>
        <time>2009-07-07T10:48:09Z</time>
      </trkpt>
      <trkpt lat="44.45884" lon="3.62966">
        <ele>1431</ele>
        <time>2009-07-07T10:48:27Z</time>
      </trkpt>
      <trkpt lat="44.45851" lon="3.62952">
        <ele>1432</ele>
        <time>2009-07-07T10:48:50Z</time>
      </trkpt>
      <trkpt lat="44.45826" lon="3.62931">
        <ele>1435</ele>
        <time>2009-07-07T10:49:09Z</time>
      </trkpt>
      <trkpt lat="44.45809" lon="3.62904">
        <ele>1436</ele>
        <time>2009-07-07T10:49:25Z</time>
      </trkpt>
      <trkpt lat="44.4579" lon="3.62867">
        <ele>1437</ele>
        <time>2009-07-07T10:49:44Z</time>
      </trkpt>
      <trkpt lat="44.45767" lon="3.6283">
        <ele>1438</ele>
        <time>2009-07-07T10:50:05Z</time>
      </trkpt>
      <trkpt lat="44.45739" lon="3.62782">
        <ele>1439</ele>
        <time>2009-07-07T10:50:30Z</time>
      </trkpt>
      <trkpt lat="44.45711" lon="3.62753">
        <ele>1441</ele>
        <time>2009-07-07T10:50:51Z</time>
      </trkpt>
      <trkpt lat="44.45704" lon="3.62718">
        <ele>1443</ele>
        <time>2009-07-07T10:51:07Z</time>
      </trkpt>
      <trkpt lat="44.45695" lon="3.62676">
        <ele>1445</ele>
        <time>2009-07-07T10:51:26Z</time>
      </trkpt>
      <trkpt lat="44.45665" lon="3.62656">
        <ele>1445</ele>
        <time>2009-07-07T10:51:40Z</time>
      </trkpt>
      <trkpt lat="44.45653" lon="3.6265">
        <ele>1446</ele>
        <time>2009-07-07T10:51:47Z</time>
      </trkpt>
      <trkpt lat="44.45619" lon="3.62632">
        <ele>1448</ele>
        <time>2009-07-07T10:52:08Z</time>
      </trkpt>
      <trkpt lat="44.45593" lon="3.6263">
        <ele>1451</ele>
        <time>2009-07-07T10:52:24Z</time>
      </trkpt>
      <trkpt lat="44.45562" lon="3.62629">
        <ele>1453</ele>
        <time>2009-07-07T10:52:43Z</time>
      </trkpt>
      <trkpt lat="44.45549" lon="3.62629">
        <ele>1455</ele>
        <time>2009-07-07T10:52:51Z</time>
      </trkpt>
      <trkpt lat="44.45515" lon="3.62628">
        <ele>1456</ele>
        <time>2009-07-07T10:53:10Z</time>
      </trkpt>
      <trkpt lat="44.45484" lon="3.62621">
        <ele>1458</ele>
        <time>2009-07-07T10:53:28Z</time>
      </trkpt>
      <trkpt lat="44.45447" lon="3.62609">
        <ele>1460</ele>
        <time>2009-07-07T10:53:45Z</time>
      </trkpt>
      <trkpt lat="44.45423" lon="3.62603">
        <ele>1460</ele>
        <time>2009-07-07T10:53:58Z</time>
      </trkpt>
      <trkpt lat="44.45421" lon="3.62601">
        <ele>1460</ele>
        <time>2009-07-07T10:54:16Z</time>
      </trkpt>
      <trkpt lat="44.4542" lon="3.62601">
        <ele>1459</ele>
        <time>2009-07-07T10:54:19Z</time>
      </trkpt>
      <trkpt lat="44.45394" lon="3.62602">
        <ele>1459</ele>
        <time>2009-07-07T10:54:29Z</time>
      </trkpt>
      <trkpt lat="44.45333" lon="3.62615">
        <ele>1459</ele>
        <time>2009-07-07T10:54:44Z</time>
      </trkpt>
      <trkpt lat="44.45309" lon="3.62617">
        <ele>1456</ele>
        <time>2009-07-07T10:54:52Z</time>
      </trkpt>
      <trkpt lat="44.45303" lon="3.62618">
        <ele>1456</ele>
        <time>2009-07-07T10:54:54Z</time>
      </trkpt>
      <trkpt lat="44.45286" lon="3.62616">
        <ele>1458</ele>
        <time>2009-07-07T10:55:01Z</time>
      </trkpt>
      <trkpt lat="44.45236" lon="3.62602">
        <ele>1456</ele>
        <time>2009-07-07T10:55:17Z</time>
      </trkpt>
      <trkpt lat="44.45207" lon="3.62573">
        <ele>1455</ele>
        <time>2009-07-07T10:55:27Z</time>
      </trkpt>
      <trkpt lat="44.45168" lon="3.62572">
        <ele>1453</ele>
        <time>2009-07-07T10:55:36Z</time>
      </trkpt>
      <trkpt lat="44.45159" lon="3.6258">
        <ele>1453</ele>
        <time>2009-07-07T10:55:38Z</time>
      </trkpt>
      <trkpt lat="44.45118" lon="3.62624">
        <ele>1449</ele>
        <time>2009-07-07T10:55:50Z</time>
      </trkpt>
      <trkpt lat="44.45083" lon="3.62645">
        <ele>1446</ele>
        <time>2009-07-07T10:56:00Z</time>
      </trkpt>
      <trkpt lat="44.45054" lon="3.62658">
        <ele>1444</ele>
        <time>2009-07-07T10:56:08Z</time>
      </trkpt>
      <trkpt lat="44.45032" lon="3.62664">
        <ele>1443</ele>
        <time>2009-07-07T10:56:12Z</time>
      </trkpt>
      <trkpt lat="44.45021" lon="3.62667">
        <ele>1443</ele>
        <time>2009-07-07T10:56:14Z</time>
      </trkpt>
      <trkpt lat="44.44985" lon="3.62679">
        <ele>1443</ele>
        <time>2009-07-07T10:56:20Z</time>
      </trkpt>
      <trkpt lat="44.44951" lon="3.62704">
        <ele>1443</ele>
        <time>2009-07-07T10:56:31Z</time>
      </trkpt>
      <trkpt lat="44.44943" lon="3.62714">
        <ele>1443</ele>
        <time>2009-07-07T10:56:39Z</time>
      </trkpt>
      <trkpt lat="44.44915" lon="3.62718">
        <ele>1440</ele>
        <time>2009-07-07T10:56:49Z</time>
      </trkpt>
      <trkpt lat="44.44902" lon="3.62724">
        <ele>1439</ele>
        <time>2009-07-07T10:56:53Z</time>
      </trkpt>
      <trkpt lat="44.44889" lon="3.62733">
        <ele>1438</ele>
        <time>2009-07-07T10:56:56Z</time>
      </trkpt>
      <trkpt lat="44.44854" lon="3.62763">
        <ele>1437</ele>
        <time>2009-07-07T10:57:06Z</time>
      </trkpt>
      <trkpt lat="44.44842" lon="3.62766">
        <ele>1435</ele>
        <time>2009-07-07T10:57:09Z</time>
      </trkpt>
      <trkpt lat="44.44798" lon="3.62772">
        <ele>1432</ele>
        <time>2009-07-07T10:57:20Z</time>
      </trkpt>
      <trkpt lat="44.44769" lon="3.6277">
        <ele>1430</ele>
        <time>2009-07-07T10:57:29Z</time>
      </trkpt>
      <trkpt lat="44.44751" lon="3.62757">
        <ele>1428</ele>
        <time>2009-07-07T10:57:34Z</time>
      </trkpt>
      <trkpt lat="44.44746" lon="3.62753">
        <ele>1427</ele>
        <time>2009-07-07T10:57:36Z</time>
      </trkpt>
      <trkpt lat="44.44742" lon="3.6275">
        <ele>1426</ele>
        <time>2009-07-07T10:57:49Z</time>
      </trkpt>
      <trkpt lat="44.44722" lon="3.62729">
        <ele>1422</ele>
        <time>2009-07-07T10:57:56Z</time>
      </trkpt>
      <trkpt lat="44.44705" lon="3.62709">
        <ele>1418</ele>
        <time>2009-07-07T10:58:01Z</time>
      </trkpt>
      <trkpt lat="44.44696" lon="3.627">
        <ele>1417</ele>
        <time>2009-07-07T10:58:03Z</time>
      </trkpt>
      <trkpt lat="44.44676" lon="3.62678">
        <ele>1415</ele>
        <time>2009-07-07T10:58:07Z</time>
      </trkpt>
      <trkpt lat="44.44668" lon="3.62665">
        <ele>1414</ele>
        <time>2009-07-07T10:58:09Z</time>
      </trkpt>
      <trkpt lat="44.44653" lon="3.62642">
        <ele>1414</ele>
        <time>2009-07-07T10:58:13Z</time>
      </trkpt>
      <trkpt lat="44.44633" lon="3.62615">
        <ele>1410</ele>
        <time>2009-07-07T10:58:19Z</time>
      </trkpt>
      <trkpt lat="44.4463" lon="3.62611">
        <ele>1410</ele>
        <time>2009-07-07T10:58:20Z</time>
      </trkpt>
      <trkpt lat="44.44586" lon="3.62545">
        <ele>1410</ele>
        <time>2009-07-07T10:58:37Z</time>
      </trkpt>
      <trkpt lat="44.44565" lon="3.62504">
        <ele>1413</ele>
        <time>2009-07-07T10:58:52Z</time>
      </trkpt>
      <trkpt lat="44.44552" lon="3.62472">
        <ele>1415</ele>
        <time>2009-07-07T10:59:04Z</time>
      </trkpt>
      <trkpt lat="44.44541" lon="3.62434">
        <ele>1417</ele>
        <time>2009-07-07T10:59:20Z</time>
      </trkpt>
      <trkpt lat="44.44529" lon="3.62402">
        <ele>1419</ele>
        <time>2009-07-07T10:59:36Z</time>
      </trkpt>
      <trkpt lat="44.4452" lon="3.62348">
        <ele>1419</ele>
        <time>2009-07-07T10:59:54Z</time>
      </trkpt>
      <trkpt lat="44.44499" lon="3.6231">
        <ele>1420</ele>
        <time>2009-07-07T11:00:08Z</time>
      </trkpt>
      <trkpt lat="44.44483" lon="3.62284">
        <ele>1418</ele>
        <time>2009-07-07T11:00:17Z</time>
      </trkpt>
      <trkpt lat="44.44441" lon="3.62217">
        <ele>1420</ele>
        <time>2009-07-07T11:00:34Z</time>
      </trkpt>
      <trkpt lat="44.44388" lon="3.62142">
        <ele>1420</ele>
        <time>2009-07-07T11:00:53Z</time>
      </trkpt>
      <trkpt lat="44.44344" lon="3.62098">
        <ele>1421</ele>
        <time>2009-07-07T11:01:09Z</time>
      </trkpt>
      <trkpt lat="44.44306" lon="3.62057">
        <ele>1421</ele>
        <time>2009-07-07T11:01:22Z</time>
      </trkpt>
      <trkpt lat="44.4429" lon="3.6203">
        <ele>1420</ele>
        <time>2009-07-07T11:01:28Z</time>
      </trkpt>
      <trkpt lat="44.44274" lon="3.62012">
        <ele>1417</ele>
        <time>2009-07-07T11:01:32Z</time>
      </trkpt>
      <trkpt lat="44.44268" lon="3.61957">
        <ele>1415</ele>
        <time>2009-07-07T11:01:40Z</time>
      </trkpt>
      <trkpt lat="44.44262" lon="3.61942">
        <ele>1414</ele>
        <time>2009-07-07T11:01:42Z</time>
      </trkpt>
      <trkpt lat="44.44254" lon="3.61929">
        <ele>1413</ele>
        <time>2009-07-07T11:01:44Z</time>
      </trkpt>
      <trkpt lat="44.44224" lon="3.61883">
        <ele>1407</ele>
        <time>2009-07-07T11:01:52Z</time>
      </trkpt>
      <trkpt lat="44.4422" lon="3.61876">
        <ele>1407</ele>
        <time>2009-07-07T11:01:53Z</time>
      </trkpt>
      <trkpt lat="44.44212" lon="3.61863">
        <ele>1406</ele>
        <time>2009-07-07T11:01:55Z</time>
      </trkpt>
      <trkpt lat="44.442" lon="3.6184">
        <ele>1405</ele>
        <time>2009-07-07T11:01:58Z</time>
      </trkpt>
      <trkpt lat="44.44185" lon="3.61806">
        <ele>1404</ele>
        <time>2009-07-07T11:02:05Z</time>
      </trkpt>
      <trkpt lat="44.44172" lon="3.6178">
        <ele>1402</ele>
        <time>2009-07-07T11:02:12Z</time>
      </trkpt>
      <trkpt lat="44.44166" lon="3.61753">
        <ele>1399</ele>
        <time>2009-07-07T11:02:17Z</time>
      </trkpt>
      <trkpt lat="44.44146" lon="3.61722">
        <ele>1399</ele>
        <time>2009-07-07T11:02:29Z</time>
      </trkpt>
      <trkpt lat="44.44142" lon="3.61717">
        <ele>1398</ele>
        <time>2009-07-07T11:02:32Z</time>
      </trkpt>
      <trkpt lat="44.44133" lon="3.61695">
        <ele>1395</ele>
        <time>2009-07-07T11:02:40Z</time>
      </trkpt>
      <trkpt lat="44.4413" lon="3.61677">
        <ele>1393</ele>
        <time>2009-07-07T11:02:43Z</time>
      </trkpt>
      <trkpt lat="44.44124" lon="3.61658">
        <ele>1391</ele>
        <time>2009-07-07T11:02:46Z</time>
      </trkpt>
      <trkpt lat="44.44101" lon="3.61616">
        <ele>1391</ele>
        <time>2009-07-07T11:02:57Z</time>
      </trkpt>
      <trkpt lat="44.4409" lon="3.61593">
        <ele>1392</ele>
        <time>2009-07-07T11:03:08Z</time>
      </trkpt>
      <trkpt lat="44.44085" lon="3.61587">
        <ele>1391</ele>
        <time>2009-07-07T11:03:12Z</time>
      </trkpt>
      <trkpt lat="44.44065" lon="3.61552">
        <ele>1392</ele>
        <time>2009-07-07T11:03:25Z</time>
      </trkpt>
      <trkpt lat="44.44054" lon="3.6152">
        <ele>1393</ele>
        <time>2009-07-07T11:03:37Z</time>
      </trkpt>
      <trkpt lat="44.44046" lon="3.61512">
        <ele>1393</ele>
        <time>2009-07-07T11:03:41Z</time>
      </trkpt>
      <trkpt lat="44.44034" lon="3.61495">
        <ele>1393</ele>
        <time>2009-07-07T11:03:49Z</time>
      </trkpt>
      <trkpt lat="44.44019" lon="3.61467">
        <ele>1392</ele>
        <time>2009-07-07T11:03:59Z</time>
      </trkpt>
      <trkpt lat="44.44006" lon="3.61426">
        <ele>1391</ele>
        <time>2009-07-07T11:04:13Z</time>
      </trkpt>
      <trkpt lat="44.43988" lon="3.61393">
        <ele>1389</ele>
        <time>2009-07-07T11:04:23Z</time>
      </trkpt>
      <trkpt lat="44.43982" lon="3.61388">
        <ele>1389</ele>
        <time>2009-07-07T11:04:25Z</time>
      </trkpt>
      <trkpt lat="44.43977" lon="3.61387">
        <ele>1389</ele>
        <time>2009-07-07T11:04:27Z</time>
      </trkpt>
      <trkpt lat="44.43968" lon="3.61379">
        <ele>1388</ele>
        <time>2009-07-07T11:04:32Z</time>
      </trkpt>
      <trkpt lat="44.43947" lon="3.61358">
        <ele>1384</ele>
        <time>2009-07-07T11:04:40Z</time>
      </trkpt>
      <trkpt lat="44.43944" lon="3.61355">
        <ele>1384</ele>
        <time>2009-07-07T11:04:41Z</time>
      </trkpt>
      <trkpt lat="44.43919" lon="3.61323">
        <ele>1381</ele>
        <time>2009-07-07T11:04:52Z</time>
      </trkpt>
      <trkpt lat="44.43919" lon="3.61321">
        <ele>1381</ele>
        <time>2009-07-07T11:04:53Z</time>
      </trkpt>
      <trkpt lat="44.4391" lon="3.61308">
        <ele>1381</ele>
        <time>2009-07-07T11:05:03Z</time>
      </trkpt>
      <trkpt lat="44.43884" lon="3.61298">
        <ele>1378</ele>
        <time>2009-07-07T11:05:16Z</time>
      </trkpt>
      <trkpt lat="44.43882" lon="3.61298">
        <ele>1378</ele>
        <time>2009-07-07T11:05:18Z</time>
      </trkpt>
      <trkpt lat="44.43876" lon="3.61291">
        <ele>1376</ele>
        <time>2009-07-07T11:05:22Z</time>
      </trkpt>
      <trkpt lat="44.4387" lon="3.6128">
        <ele>1376</ele>
        <time>2009-07-07T11:05:26Z</time>
      </trkpt>
      <trkpt lat="44.43862" lon="3.61272">
        <ele>1375</ele>
        <time>2009-07-07T11:05:35Z</time>
      </trkpt>
      <trkpt lat="44.4385" lon="3.61264">
        <ele>1373</ele>
        <time>2009-07-07T11:05:45Z</time>
      </trkpt>
      <trkpt lat="44.43848" lon="3.61262">
        <ele>1373</ele>
        <time>2009-07-07T11:05:46Z</time>
      </trkpt>
      <trkpt lat="44.43826" lon="3.61245">
        <ele>1370</ele>
        <time>2009-07-07T11:05:56Z</time>
      </trkpt>
      <trkpt lat="44.43809" lon="3.61243">
        <ele>1369</ele>
        <time>2009-07-07T11:06:03Z</time>
      </trkpt>
      <trkpt lat="44.43791" lon="3.6123">
        <ele>1366</ele>
        <time>2009-07-07T11:06:10Z</time>
      </trkpt>
      <trkpt lat="44.4377" lon="3.6121">
        <ele>1362</ele>
        <time>2009-07-07T11:06:18Z</time>
      </trkpt>
      <trkpt lat="44.43756" lon="3.61197">
        <ele>1360</ele>
        <time>2009-07-07T11:06:26Z</time>
      </trkpt>
      <trkpt lat="44.43753" lon="3.6119">
        <ele>1360</ele>
        <time>2009-07-07T11:06:30Z</time>
      </trkpt>
      <trkpt lat="44.4374" lon="3.61169">
        <ele>1358</ele>
        <time>2009-07-07T11:06:42Z</time>
      </trkpt>
      <trkpt lat="44.43723" lon="3.6115">
        <ele>1355</ele>
        <time>2009-07-07T11:06:55Z</time>
      </trkpt>
      <trkpt lat="44.43706" lon="3.61134">
        <ele>1353</ele>
        <time>2009-07-07T11:07:08Z</time>
      </trkpt>
      <trkpt lat="44.43685" lon="3.61107">
        <ele>1351</ele>
        <time>2009-07-07T11:07:19Z</time>
      </trkpt>
      <trkpt lat="44.43668" lon="3.61097">
        <ele>1348</ele>
        <time>2009-07-07T11:07:25Z</time>
      </trkpt>
      <trkpt lat="44.43656" lon="3.61084">
        <ele>1346</ele>
        <time>2009-07-07T11:07:31Z</time>
      </trkpt>
      <trkpt lat="44.43652" lon="3.61078">
        <ele>1346</ele>
        <time>2009-07-07T11:07:34Z</time>
      </trkpt>
      <trkpt lat="44.43648" lon="3.61069">
        <ele>1345</ele>
        <time>2009-07-07T11:07:37Z</time>
      </trkpt>
      <trkpt lat="44.4364" lon="3.61061">
        <ele>1344</ele>
        <time>2009-07-07T11:07:41Z</time>
      </trkpt>
      <trkpt lat="44.43617" lon="3.61027">
        <ele>1340</ele>
        <time>2009-07-07T11:07:51Z</time>
      </trkpt>
      <trkpt lat="44.43609" lon="3.61018">
        <ele>1339</ele>
        <time>2009-07-07T11:07:54Z</time>
      </trkpt>
      <trkpt lat="44.43587" lon="3.60992">
        <ele>1337</ele>
        <time>2009-07-07T11:08:03Z</time>
      </trkpt>
      <trkpt lat="44.43564" lon="3.60975">
        <ele>1335</ele>
        <time>2009-07-07T11:08:13Z</time>
      </trkpt>
      <trkpt lat="44.4356" lon="3.60969">
        <ele>1334</ele>
        <time>2009-07-07T11:08:15Z</time>
      </trkpt>
      <trkpt lat="44.43554" lon="3.60963">
        <ele>1332</ele>
        <time>2009-07-07T11:08:18Z</time>
      </trkpt>
      <trkpt lat="44.43546" lon="3.6096">
        <ele>1331</ele>
        <time>2009-07-07T11:08:21Z</time>
      </trkpt>
      <trkpt lat="44.4352" lon="3.60937">
        <ele>1328</ele>
        <time>2009-07-07T11:08:31Z</time>
      </trkpt>
      <trkpt lat="44.43511" lon="3.60931">
        <ele>1327</ele>
        <time>2009-07-07T11:08:34Z</time>
      </trkpt>
      <trkpt lat="44.43489" lon="3.60918">
        <ele>1324</ele>
        <time>2009-07-07T11:08:42Z</time>
      </trkpt>
      <trkpt lat="44.43486" lon="3.60917">
        <ele>1324</ele>
        <time>2009-07-07T11:08:43Z</time>
      </trkpt>
      <trkpt lat="44.43451" lon="3.60907">
        <ele>1320</ele>
        <time>2009-07-07T11:08:53Z</time>
      </trkpt>
      <trkpt lat="44.4344" lon="3.60909">
        <ele>1319</ele>
        <time>2009-07-07T11:08:56Z</time>
      </trkpt>
      <trkpt lat="44.43421" lon="3.60906">
        <ele>1316</ele>
        <time>2009-07-07T11:09:02Z</time>
      </trkpt>
      <trkpt lat="44.4341" lon="3.60906">
        <ele>1314</ele>
        <time>2009-07-07T11:09:05Z</time>
      </trkpt>
      <trkpt lat="44.43389" lon="3.60912">
        <ele>1312</ele>
        <time>2009-07-07T11:09:12Z</time>
      </trkpt>
      <trkpt lat="44.43372" lon="3.60912">
        <ele>1309</ele>
        <time>2009-07-07T11:09:21Z</time>
      </trkpt>
      <trkpt lat="44.43359" lon="3.60908">
        <ele>1306</ele>
        <time>2009-07-07T11:09:27Z</time>
      </trkpt>
      <trkpt lat="44.43347" lon="3.60909">
        <ele>1305</ele>
        <time>2009-07-07T11:09:31Z</time>
      </trkpt>
      <trkpt lat="44.43338" lon="3.60912">
        <ele>1304</ele>
        <time>2009-07-07T11:09:35Z</time>
      </trkpt>
      <trkpt lat="44.43319" lon="3.60905">
        <ele>1302</ele>
        <time>2009-07-07T11:09:42Z</time>
      </trkpt>
      <trkpt lat="44.43291" lon="3.60899">
        <ele>1299</ele>
        <time>2009-07-07T11:09:51Z</time>
      </trkpt>
      <trkpt lat="44.43267" lon="3.60891">
        <ele>1296</ele>
        <time>2009-07-07T11:09:59Z</time>
      </trkpt>
      <trkpt lat="44.43255" lon="3.60889">
        <ele>1295</ele>
        <time>2009-07-07T11:10:03Z</time>
      </trkpt>
      <trkpt lat="44.4325" lon="3.60887">
        <ele>1294</ele>
        <time>2009-07-07T11:10:05Z</time>
      </trkpt>
      <trkpt lat="44.43237" lon="3.6087">
        <ele>1291</ele>
        <time>2009-07-07T11:10:11Z</time>
      </trkpt>
      <trkpt lat="44.43235" lon="3.60868">
        <ele>1291</ele>
        <time>2009-07-07T11:10:12Z</time>
      </trkpt>
      <trkpt lat="44.43219" lon="3.60852">
        <ele>1288</ele>
        <time>2009-07-07T11:10:18Z</time>
      </trkpt>
      <trkpt lat="44.43213" lon="3.60849">
        <ele>1288</ele>
        <time>2009-07-07T11:10:20Z</time>
      </trkpt>
      <trkpt lat="44.432" lon="3.60838">
        <ele>1286</ele>
        <time>2009-07-07T11:10:25Z</time>
      </trkpt>
      <trkpt lat="44.4319" lon="3.6083">
        <ele>1285</ele>
        <time>2009-07-07T11:10:28Z</time>
      </trkpt>
      <trkpt lat="44.4317" lon="3.60811">
        <ele>1283</ele>
        <time>2009-07-07T11:10:33Z</time>
      </trkpt>
      <trkpt lat="44.43141" lon="3.60791">
        <ele>1282</ele>
        <time>2009-07-07T11:10:40Z</time>
      </trkpt>
      <trkpt lat="44.43134" lon="3.60785">
        <ele>1281</ele>
        <time>2009-07-07T11:10:42Z</time>
      </trkpt>
      <trkpt lat="44.43127" lon="3.60779">
        <ele>1280</ele>
        <time>2009-07-07T11:10:44Z</time>
      </trkpt>
      <trkpt lat="44.43112" lon="3.60763">
        <ele>1278</ele>
        <time>2009-07-07T11:10:48Z</time>
      </trkpt>
      <trkpt lat="44.43083" lon="3.60752">
        <ele>1276</ele>
        <time>2009-07-07T11:10:57Z</time>
      </trkpt>
      <trkpt lat="44.43081" lon="3.6075">
        <ele>1275</ele>
        <time>2009-07-07T11:10:58Z</time>
      </trkpt>
      <trkpt lat="44.43077" lon="3.6074">
        <ele>1273</ele>
        <time>2009-07-07T11:11:02Z</time>
      </trkpt>
      <trkpt lat="44.4307" lon="3.60728">
        <ele>1270</ele>
        <time>2009-07-07T11:11:06Z</time>
      </trkpt>
      <trkpt lat="44.43066" lon="3.60724">
        <ele>1267</ele>
        <time>2009-07-07T11:11:07Z</time>
      </trkpt>
      <trkpt lat="44.43028" lon="3.60678">
        <ele>1264</ele>
        <time>2009-07-07T11:11:15Z</time>
      </trkpt>
      <trkpt lat="44.43016" lon="3.60632">
        <ele>1266</ele>
        <time>2009-07-07T11:11:26Z</time>
      </trkpt>
      <trkpt lat="44.43024" lon="3.60605">
        <ele>1263</ele>
        <time>2009-07-07T11:11:38Z</time>
      </trkpt>
      <trkpt lat="44.43026" lon="3.60599">
        <ele>1263</ele>
        <time>2009-07-07T11:11:39Z</time>
      </trkpt>
      <trkpt lat="44.4305" lon="3.60496">
        <ele>1261</ele>
        <time>2009-07-07T11:11:56Z</time>
      </trkpt>
      <trkpt lat="44.43053" lon="3.60484">
        <ele>1261</ele>
        <time>2009-07-07T11:11:58Z</time>
      </trkpt>
      <trkpt lat="44.4307" lon="3.60423">
        <ele>1260</ele>
        <time>2009-07-07T11:12:08Z</time>
      </trkpt>
      <trkpt lat="44.43091" lon="3.6035">
        <ele>1258</ele>
        <time>2009-07-07T11:12:22Z</time>
      </trkpt>
      <trkpt lat="44.431" lon="3.60321">
        <ele>1255</ele>
        <time>2009-07-07T11:12:27Z</time>
      </trkpt>
      <trkpt lat="44.43101" lon="3.60294">
        <ele>1254</ele>
        <time>2009-07-07T11:12:31Z</time>
      </trkpt>
      <trkpt lat="44.43128" lon="3.60187">
        <ele>1252</ele>
        <time>2009-07-07T11:12:47Z</time>
      </trkpt>
      <trkpt lat="44.43144" lon="3.6014">
        <ele>1249</ele>
        <time>2009-07-07T11:12:55Z</time>
      </trkpt>
      <trkpt lat="44.43186" lon="3.60076">
        <ele>1248</ele>
        <time>2009-07-07T11:13:09Z</time>
      </trkpt>
      <trkpt lat="44.43209" lon="3.60035">
        <ele>1245</ele>
        <time>2009-07-07T11:13:17Z</time>
      </trkpt>
      <trkpt lat="44.43231" lon="3.59998">
        <ele>1244</ele>
        <time>2009-07-07T11:13:23Z</time>
      </trkpt>
      <trkpt lat="44.43247" lon="3.59979">
        <ele>1242</ele>
        <time>2009-07-07T11:13:27Z</time>
      </trkpt>
      <trkpt lat="44.43276" lon="3.59941">
        <ele>1237</ele>
        <time>2009-07-07T11:13:34Z</time>
      </trkpt>
      <trkpt lat="44.43299" lon="3.59924">
        <ele>1235</ele>
        <time>2009-07-07T11:13:38Z</time>
      </trkpt>
      <trkpt lat="44.43346" lon="3.59918">
        <ele>1235</ele>
        <time>2009-07-07T11:13:49Z</time>
      </trkpt>
      <trkpt lat="44.43385" lon="3.59926">
        <ele>1232</ele>
        <time>2009-07-07T11:13:57Z</time>
      </trkpt>
      <trkpt lat="44.43389" lon="3.59927">
        <ele>1232</ele>
        <time>2009-07-07T11:13:58Z</time>
      </trkpt>
      <trkpt lat="44.43396" lon="3.5992">
        <ele>1230</ele>
        <time>2009-07-07T11:14:01Z</time>
      </trkpt>
      <trkpt lat="44.43392" lon="3.59914">
        <ele>1230</ele>
        <time>2009-07-07T11:14:03Z</time>
      </trkpt>
      <trkpt lat="44.43385" lon="3.59906">
        <ele>1228</ele>
        <time>2009-07-07T11:14:05Z</time>
      </trkpt>
      <trkpt lat="44.43377" lon="3.59894">
        <ele>1226</ele>
        <time>2009-07-07T11:14:07Z</time>
      </trkpt>
      <trkpt lat="44.4337" lon="3.59881">
        <ele>1225</ele>
        <time>2009-07-07T11:14:09Z</time>
      </trkpt>
      <trkpt lat="44.43358" lon="3.59851">
        <ele>1221</ele>
        <time>2009-07-07T11:14:13Z</time>
      </trkpt>
      <trkpt lat="44.4335" lon="3.59837">
        <ele>1220</ele>
        <time>2009-07-07T11:14:15Z</time>
      </trkpt>
      <trkpt lat="44.43337" lon="3.5982">
        <ele>1217</ele>
        <time>2009-07-07T11:14:18Z</time>
      </trkpt>
      <trkpt lat="44.43334" lon="3.59816">
        <ele>1217</ele>
        <time>2009-07-07T11:14:19Z</time>
      </trkpt>
      <trkpt lat="44.43335" lon="3.59804">
        <ele>1214</ele>
        <time>2009-07-07T11:14:22Z</time>
      </trkpt>
      <trkpt lat="44.4334" lon="3.59802">
        <ele>1213</ele>
        <time>2009-07-07T11:14:29Z</time>
      </trkpt>
      <trkpt lat="44.43368" lon="3.5979">
        <ele>1211</ele>
        <time>2009-07-07T11:14:39Z</time>
      </trkpt>
      <trkpt lat="44.43408" lon="3.59789">
        <ele>1211</ele>
        <time>2009-07-07T11:14:53Z</time>
      </trkpt>
      <trkpt lat="44.43414" lon="3.59752">
        <ele>1211</ele>
        <time>2009-07-07T11:15:05Z</time>
      </trkpt>
      <trkpt lat="44.43387" lon="3.59713">
        <ele>1213</ele>
        <time>2009-07-07T11:15:25Z</time>
      </trkpt>
      <trkpt lat="44.43385" lon="3.59712">
        <ele>1213</ele>
        <time>2009-07-07T11:15:26Z</time>
      </trkpt>
      <trkpt lat="44.43383" lon="3.59714">
        <ele>1213</ele>
        <time>2009-07-07T11:15:37Z</time>
      </trkpt>
    </trkseg>
  </trk>
  <trk>
    <name><![CDATA[B02]]></name>
    <trkseg>
      <trkpt lat="44.43392" lon="3.59723">
        <ele>1212</ele>
        <time>2009-07-07T12:27:27Z</time>
      </trkpt>
      <trkpt lat="44.43388" lon="3.59721">
        <ele>1212</ele>
        <time>2009-07-07T12:27:53Z</time>
      </trkpt>
      <trkpt lat="44.43389" lon="3.59717">
        <ele>1211</ele>
        <time>2009-07-07T12:28:19Z</time>
      </trkpt>
      <trkpt lat="44.43389" lon="3.59718">
        <ele>1206</ele>
        <time>2009-07-07T12:28:21Z</time>
      </trkpt>
      <trkpt lat="44.4339" lon="3.59718">
        <ele>1212</ele>
        <time>2009-07-07T12:28:22Z</time>
      </trkpt>
      <trkpt lat="44.4339" lon="3.59718">
        <ele>1215</ele>
        <time>2009-07-07T12:28:23Z</time>
      </trkpt>
      <trkpt lat="44.4339" lon="3.59719">
        <ele>1211</ele>
        <time>2009-07-07T12:28:24Z</time>
      </trkpt>
      <trkpt lat="44.43389" lon="3.59717">
        <ele>1211</ele>
        <time>2009-07-07T12:28:26Z</time>
      </trkpt>
      <trkpt lat="44.43386" lon="3.59716">
        <ele>1211</ele>
        <time>2009-07-07T12:28:39Z</time>
      </trkpt>
      <trkpt lat="44.43386" lon="3.59716">
        <ele>1211</ele>
        <time>2009-07-07T12:29:19Z</time>
      </trkpt>
      <trkpt lat="44.43386" lon="3.5971">
        <ele>1213</ele>
        <time>2009-07-07T12:30:25Z</time>
      </trkpt>
      <trkpt lat="44.43386" lon="3.59709">
        <ele>1212</ele>
        <time>2009-07-07T12:30:52Z</time>
      </trkpt>
      <trkpt lat="44.43386" lon="3.59709">
        <ele>1212</ele>
        <time>2009-07-07T12:30:54Z</time>
      </trkpt>
      <trkpt lat="44.43371" lon="3.59673">
        <ele>1213</ele>
        <time>2009-07-07T12:31:10Z</time>
      </trkpt>
      <trkpt lat="44.43361" lon="3.59637">
        <ele>1215</ele>
        <time>2009-07-07T12:31:24Z</time>
      </trkpt>
      <trkpt lat="44.43347" lon="3.59602">
        <ele>1216</ele>
        <time>2009-07-07T12:31:36Z</time>
      </trkpt>
      <trkpt lat="44.43334" lon="3.59553">
        <ele>1217</ele>
        <time>2009-07-07T12:31:52Z</time>
      </trkpt>
      <trkpt lat="44.43333" lon="3.59547">
        <ele>1217</ele>
        <time>2009-07-07T12:31:56Z</time>
      </trkpt>
      <trkpt lat="44.43326" lon="3.5954">
        <ele>1216</ele>
        <time>2009-07-07T12:32:00Z</time>
      </trkpt>
      <trkpt lat="44.43316" lon="3.59533">
        <ele>1214</ele>
        <time>2009-07-07T12:32:03Z</time>
      </trkpt>
      <trkpt lat="44.43305" lon="3.59536">
        <ele>1213</ele>
        <time>2009-07-07T12:32:07Z</time>
      </trkpt>
      <trkpt lat="44.43297" lon="3.59539">
        <ele>1212</ele>
        <time>2009-07-07T12:32:09Z</time>
      </trkpt>
      <trkpt lat="44.43277" lon="3.59535">
        <ele>1210</ele>
        <time>2009-07-07T12:32:14Z</time>
      </trkpt>
      <trkpt lat="44.43263" lon="3.59528">
        <ele>1210</ele>
        <time>2009-07-07T12:32:18Z</time>
      </trkpt>
      <trkpt lat="44.43249" lon="3.59515">
        <ele>1210</ele>
        <time>2009-07-07T12:32:22Z</time>
      </trkpt>
      <trkpt lat="44.43228" lon="3.59494">
        <ele>1208</ele>
        <time>2009-07-07T12:32:28Z</time>
      </trkpt>
      <trkpt lat="44.43206" lon="3.59444">
        <ele>1209</ele>
        <time>2009-07-07T12:32:41Z</time>
      </trkpt>
      <trkpt lat="44.43186" lon="3.59418">
        <ele>1208</ele>
        <time>2009-07-07T12:32:50Z</time>
      </trkpt>
      <trkpt lat="44.43177" lon="3.59359">
        <ele>1204</ele>
        <time>2009-07-07T12:33:02Z</time>
      </trkpt>
      <trkpt lat="44.43173" lon="3.59338">
        <ele>1203</ele>
        <time>2009-07-07T12:33:08Z</time>
      </trkpt>
      <trkpt lat="44.43165" lon="3.59332">
        <ele>1201</ele>
        <time>2009-07-07T12:33:13Z</time>
      </trkpt>
      <trkpt lat="44.43156" lon="3.59326">
        <ele>1200</ele>
        <time>2009-07-07T12:33:24Z</time>
      </trkpt>
      <trkpt lat="44.43143" lon="3.59314">
        <ele>1197</ele>
        <time>2009-07-07T12:33:34Z</time>
      </trkpt>
      <trkpt lat="44.43134" lon="3.59296">
        <ele>1194</ele>
        <time>2009-07-07T12:33:41Z</time>
      </trkpt>
      <trkpt lat="44.43133" lon="3.59292">
        <ele>1194</ele>
        <time>2009-07-07T12:33:42Z</time>
      </trkpt>
      <trkpt lat="44.43133" lon="3.59274">
        <ele>1191</ele>
        <time>2009-07-07T12:33:46Z</time>
      </trkpt>
      <trkpt lat="44.43135" lon="3.59258">
        <ele>1188</ele>
        <time>2009-07-07T12:33:49Z</time>
      </trkpt>
      <trkpt lat="44.43151" lon="3.59219">
        <ele>1185</ele>
        <time>2009-07-07T12:33:59Z</time>
      </trkpt>
      <trkpt lat="44.43154" lon="3.59203">
        <ele>1182</ele>
        <time>2009-07-07T12:34:02Z</time>
      </trkpt>
      <trkpt lat="44.43157" lon="3.59161">
        <ele>1181</ele>
        <time>2009-07-07T12:34:12Z</time>
      </trkpt>
      <trkpt lat="44.4315" lon="3.59145">
        <ele>1179</ele>
        <time>2009-07-07T12:34:17Z</time>
      </trkpt>
      <trkpt lat="44.43148" lon="3.59138">
        <ele>1177</ele>
        <time>2009-07-07T12:34:19Z</time>
      </trkpt>
      <trkpt lat="44.43138" lon="3.59117">
        <ele>1174</ele>
        <time>2009-07-07T12:34:26Z</time>
      </trkpt>
      <trkpt lat="44.43135" lon="3.59109">
        <ele>1172</ele>
        <time>2009-07-07T12:34:28Z</time>
      </trkpt>
      <trkpt lat="44.43131" lon="3.59083">
        <ele>1171</ele>
        <time>2009-07-07T12:34:35Z</time>
      </trkpt>
      <trkpt lat="44.43128" lon="3.59061">
        <ele>1169</ele>
        <time>2009-07-07T12:34:40Z</time>
      </trkpt>
      <trkpt lat="44.43125" lon="3.5903">
        <ele>1165</ele>
        <time>2009-07-07T12:34:49Z</time>
      </trkpt>
      <trkpt lat="44.43125" lon="3.59025">
        <ele>1165</ele>
        <time>2009-07-07T12:34:50Z</time>
      </trkpt>
      <trkpt lat="44.43121" lon="3.59006">
        <ele>1162</ele>
        <time>2009-07-07T12:34:56Z</time>
      </trkpt>
      <trkpt lat="44.43119" lon="3.58992">
        <ele>1161</ele>
        <time>2009-07-07T12:35:00Z</time>
      </trkpt>
      <trkpt lat="44.43116" lon="3.58974">
        <ele>1157</ele>
        <time>2009-07-07T12:35:05Z</time>
      </trkpt>
      <trkpt lat="44.43114" lon="3.58946">
        <ele>1154</ele>
        <time>2009-07-07T12:35:11Z</time>
      </trkpt>
      <trkpt lat="44.43115" lon="3.58936">
        <ele>1153</ele>
        <time>2009-07-07T12:35:13Z</time>
      </trkpt>
      <trkpt lat="44.43121" lon="3.58901">
        <ele>1151</ele>
        <time>2009-07-07T12:35:23Z</time>
      </trkpt>
      <trkpt lat="44.43121" lon="3.58898">
        <ele>1150</ele>
        <time>2009-07-07T12:35:25Z</time>
      </trkpt>
      <trkpt lat="44.4312" lon="3.58901">
        <ele>1151</ele>
        <time>2009-07-07T12:35:27Z</time>
      </trkpt>
      <trkpt lat="44.43119" lon="3.58891">
        <ele>1149</ele>
        <time>2009-07-07T12:35:39Z</time>
      </trkpt>
      <trkpt lat="44.43117" lon="3.58886">
        <ele>1148</ele>
        <time>2009-07-07T12:35:41Z</time>
      </trkpt>
      <trkpt lat="44.43113" lon="3.58876">
        <ele>1148</ele>
        <time>2009-07-07T12:35:50Z</time>
      </trkpt>
      <trkpt lat="44.43106" lon="3.58863">
        <ele>1147</ele>
        <time>2009-07-07T12:36:03Z</time>
      </trkpt>
      <trkpt lat="44.43104" lon="3.58857">
        <ele>1147</ele>
        <time>2009-07-07T12:36:20Z</time>
      </trkpt>
      <trkpt lat="44.43105" lon="3.58856">
        <ele>1147</ele>
        <time>2009-07-07T12:36:40Z</time>
      </trkpt>
      <trkpt lat="44.43102" lon="3.58857">
        <ele>1146</ele>
        <time>2009-07-07T12:37:45Z</time>
      </trkpt>
      <trkpt lat="44.43101" lon="3.58853">
        <ele>1146</ele>
        <time>2009-07-07T12:38:00Z</time>
      </trkpt>
      <trkpt lat="44.43101" lon="3.58851">
        <ele>1146</ele>
        <time>2009-07-07T12:38:03Z</time>
      </trkpt>
      <trkpt lat="44.43098" lon="3.58835">
        <ele>1144</ele>
        <time>2009-07-07T12:38:09Z</time>
      </trkpt>
      <trkpt lat="44.43097" lon="3.58823">
        <ele>1142</ele>
        <time>2009-07-07T12:38:12Z</time>
      </trkpt>
      <trkpt lat="44.43096" lon="3.58802">
        <ele>1140</ele>
        <time>2009-07-07T12:38:21Z</time>
      </trkpt>
      <trkpt lat="44.4309" lon="3.58799">
        <ele>1138</ele>
        <time>2009-07-07T12:38:35Z</time>
      </trkpt>
      <trkpt lat="44.43085" lon="3.58806">
        <ele>1136</ele>
        <time>2009-07-07T12:38:49Z</time>
      </trkpt>
      <trkpt lat="44.4308" lon="3.58816">
        <ele>1133</ele>
        <time>2009-07-07T12:39:01Z</time>
      </trkpt>
      <trkpt lat="44.43075" lon="3.58816">
        <ele>1132</ele>
        <time>2009-07-07T12:39:12Z</time>
      </trkpt>
      <trkpt lat="44.4307" lon="3.58804">
        <ele>1128</ele>
        <time>2009-07-07T12:39:17Z</time>
      </trkpt>
      <trkpt lat="44.43071" lon="3.58798">
        <ele>1128</ele>
        <time>2009-07-07T12:39:20Z</time>
      </trkpt>
      <trkpt lat="44.43071" lon="3.58792">
        <ele>1126</ele>
        <time>2009-07-07T12:39:22Z</time>
      </trkpt>
      <trkpt lat="44.4307" lon="3.58788">
        <ele>1125</ele>
        <time>2009-07-07T12:39:24Z</time>
      </trkpt>
      <trkpt lat="44.43067" lon="3.58784">
        <ele>1122</ele>
        <time>2009-07-07T12:39:28Z</time>
      </trkpt>
      <trkpt lat="44.43063" lon="3.58778">
        <ele>1121</ele>
        <time>2009-07-07T12:39:40Z</time>
      </trkpt>
      <trkpt lat="44.4306" lon="3.58768">
        <ele>1118</ele>
        <time>2009-07-07T12:39:51Z</time>
      </trkpt>
      <trkpt lat="44.4306" lon="3.58765">
        <ele>1116</ele>
        <time>2009-07-07T12:39:52Z</time>
      </trkpt>
      <trkpt lat="44.43058" lon="3.5876">
        <ele>1115</ele>
        <time>2009-07-07T12:39:55Z</time>
      </trkpt>
      <trkpt lat="44.43059" lon="3.58754">
        <ele>1113</ele>
        <time>2009-07-07T12:40:06Z</time>
      </trkpt>
      <trkpt lat="44.43056" lon="3.58743">
        <ele>1112</ele>
        <time>2009-07-07T12:40:18Z</time>
      </trkpt>
      <trkpt lat="44.43053" lon="3.58742">
        <ele>1110</ele>
        <time>2009-07-07T12:40:25Z</time>
      </trkpt>
      <trkpt lat="44.43053" lon="3.58733">
        <ele>1108</ele>
        <time>2009-07-07T12:40:38Z</time>
      </trkpt>
      <trkpt lat="44.4305" lon="3.58725">
        <ele>1105</ele>
        <time>2009-07-07T12:40:53Z</time>
      </trkpt>
      <trkpt lat="44.43048" lon="3.58714">
        <ele>1103</ele>
        <time>2009-07-07T12:40:59Z</time>
      </trkpt>
      <trkpt lat="44.43047" lon="3.58712">
        <ele>1102</ele>
        <time>2009-07-07T12:41:00Z</time>
      </trkpt>
      <trkpt lat="44.43034" lon="3.58706">
        <ele>1102</ele>
        <time>2009-07-07T12:41:10Z</time>
      </trkpt>
      <trkpt lat="44.43025" lon="3.58699">
        <ele>1102</ele>
        <time>2009-07-07T12:41:15Z</time>
      </trkpt>
      <trkpt lat="44.43024" lon="3.5869">
        <ele>1104</ele>
        <time>2009-07-07T12:41:20Z</time>
      </trkpt>
      <trkpt lat="44.43028" lon="3.58671">
        <ele>1105</ele>
        <time>2009-07-07T12:41:29Z</time>
      </trkpt>
      <trkpt lat="44.4303" lon="3.58668">
        <ele>1106</ele>
        <time>2009-07-07T12:41:31Z</time>
      </trkpt>
      <trkpt lat="44.43042" lon="3.58644">
        <ele>1109</ele>
        <time>2009-07-07T12:41:43Z</time>
      </trkpt>
      <trkpt lat="44.43044" lon="3.58639">
        <ele>1111</ele>
        <time>2009-07-07T12:41:47Z</time>
      </trkpt>
      <trkpt lat="44.43042" lon="3.58635">
        <ele>1111</ele>
        <time>2009-07-07T12:41:51Z</time>
      </trkpt>
      <trkpt lat="44.4304" lon="3.58643">
        <ele>1112</ele>
        <time>2009-07-07T12:42:04Z</time>
      </trkpt>
      <trkpt lat="44.43038" lon="3.58645">
        <ele>1112</ele>
        <time>2009-07-07T12:42:15Z</time>
      </trkpt>
      <trkpt lat="44.43008" lon="3.58649">
        <ele>1114</ele>
        <time>2009-07-07T12:42:30Z</time>
      </trkpt>
      <trkpt lat="44.43" lon="3.58661">
        <ele>1115</ele>
        <time>2009-07-07T12:42:37Z</time>
      </trkpt>
      <trkpt lat="44.43001" lon="3.58674">
        <ele>1116</ele>
        <time>2009-07-07T12:42:42Z</time>
      </trkpt>
      <trkpt lat="44.42995" lon="3.58714">
        <ele>1118</ele>
        <time>2009-07-07T12:42:57Z</time>
      </trkpt>
      <trkpt lat="44.42988" lon="3.58757">
        <ele>1121</ele>
        <time>2009-07-07T12:43:15Z</time>
      </trkpt>
      <trkpt lat="44.42985" lon="3.58774">
        <ele>1123</ele>
        <time>2009-07-07T12:43:23Z</time>
      </trkpt>
      <trkpt lat="44.42984" lon="3.58776">
        <ele>1123</ele>
        <time>2009-07-07T12:43:24Z</time>
      </trkpt>
      <trkpt lat="44.42979" lon="3.58765">
        <ele>1124</ele>
        <time>2009-07-07T12:43:31Z</time>
      </trkpt>
      <trkpt lat="44.42979" lon="3.58762">
        <ele>1124</ele>
        <time>2009-07-07T12:43:33Z</time>
      </trkpt>
      <trkpt lat="44.42978" lon="3.58753">
        <ele>1124</ele>
        <time>2009-07-07T12:43:37Z</time>
      </trkpt>
      <trkpt lat="44.42976" lon="3.58741">
        <ele>1125</ele>
        <time>2009-07-07T12:43:42Z</time>
      </trkpt>
      <trkpt lat="44.42975" lon="3.58728">
        <ele>1125</ele>
        <time>2009-07-07T12:43:47Z</time>
      </trkpt>
      <trkpt lat="44.42974" lon="3.58712">
        <ele>1127</ele>
        <time>2009-07-07T12:43:53Z</time>
      </trkpt>
      <trkpt lat="44.42974" lon="3.5871">
        <ele>1127</ele>
        <time>2009-07-07T12:43:54Z</time>
      </trkpt>
      <trkpt lat="44.42977" lon="3.58701">
        <ele>1128</ele>
        <time>2009-07-07T12:43:58Z</time>
      </trkpt>
      <trkpt lat="44.42964" lon="3.58673">
        <ele>1129</ele>
        <time>2009-07-07T12:44:15Z</time>
      </trkpt>
      <trkpt lat="44.42953" lon="3.58662">
        <ele>1130</ele>
        <time>2009-07-07T12:44:23Z</time>
      </trkpt>
      <trkpt lat="44.42952" lon="3.58656">
        <ele>1130</ele>
        <time>2009-07-07T12:44:26Z</time>
      </trkpt>
      <trkpt lat="44.42942" lon="3.5865">
        <ele>1131</ele>
        <time>2009-07-07T12:44:32Z</time>
      </trkpt>
      <trkpt lat="44.42915" lon="3.58636">
        <ele>1134</ele>
        <time>2009-07-07T12:44:48Z</time>
      </trkpt>
      <trkpt lat="44.42888" lon="3.5863">
        <ele>1137</ele>
        <time>2009-07-07T12:45:03Z</time>
      </trkpt>
      <trkpt lat="44.42851" lon="3.58613">
        <ele>1139</ele>
        <time>2009-07-07T12:45:24Z</time>
      </trkpt>
      <trkpt lat="44.42842" lon="3.58608">
        <ele>1140</ele>
        <time>2009-07-07T12:45:29Z</time>
      </trkpt>
      <trkpt lat="44.42806" lon="3.58592">
        <ele>1144</ele>
        <time>2009-07-07T12:45:49Z</time>
      </trkpt>
      <trkpt lat="44.4279" lon="3.58583">
        <ele>1145</ele>
        <time>2009-07-07T12:46:05Z</time>
      </trkpt>
      <trkpt lat="44.42788" lon="3.58582">
        <ele>1144</ele>
        <time>2009-07-07T12:46:29Z</time>
      </trkpt>
      <trkpt lat="44.42787" lon="3.58581">
        <ele>1145</ele>
        <time>2009-07-07T12:46:40Z</time>
      </trkpt>
      <trkpt lat="44.42776" lon="3.5859">
        <ele>1145</ele>
        <time>2009-07-07T12:46:47Z</time>
      </trkpt>
      <trkpt lat="44.4275" lon="3.5861">
        <ele>1148</ele>
        <time>2009-07-07T12:47:00Z</time>
      </trkpt>
      <trkpt lat="44.42715" lon="3.58647">
        <ele>1151</ele>
        <time>2009-07-07T12:47:17Z</time>
      </trkpt>
      <trkpt lat="44.42669" lon="3.58677">
        <ele>1152</ele>
        <time>2009-07-07T12:47:36Z</time>
      </trkpt>
      <trkpt lat="44.42619" lon="3.58658">
        <ele>1155</ele>
        <time>2009-07-07T12:47:54Z</time>
      </trkpt>
      <trkpt lat="44.4256" lon="3.5861">
        <ele>1154</ele>
        <time>2009-07-07T12:48:12Z</time>
      </trkpt>
      <trkpt lat="44.42556" lon="3.58607">
        <ele>1154</ele>
        <time>2009-07-07T12:48:13Z</time>
      </trkpt>
      <trkpt lat="44.42542" lon="3.58585">
        <ele>1153</ele>
        <time>2009-07-07T12:48:18Z</time>
      </trkpt>
      <trkpt lat="44.42479" lon="3.58522">
        <ele>1153</ele>
        <time>2009-07-07T12:48:34Z</time>
      </trkpt>
      <trkpt lat="44.42411" lon="3.58455">
        <ele>1149</ele>
        <time>2009-07-07T12:48:49Z</time>
      </trkpt>
      <trkpt lat="44.42405" lon="3.5845">
        <ele>1149</ele>
        <time>2009-07-07T12:48:50Z</time>
      </trkpt>
      <trkpt lat="44.42391" lon="3.58438">
        <ele>1146</ele>
        <time>2009-07-07T12:48:52Z</time>
      </trkpt>
      <trkpt lat="44.42366" lon="3.58422">
        <ele>1143</ele>
        <time>2009-07-07T12:48:55Z</time>
      </trkpt>
      <trkpt lat="44.42253" lon="3.58384">
        <ele>1141</ele>
        <time>2009-07-07T12:49:07Z</time>
      </trkpt>
      <trkpt lat="44.42218" lon="3.58394">
        <ele>1141</ele>
        <time>2009-07-07T12:49:11Z</time>
      </trkpt>
      <trkpt lat="44.4212" lon="3.58392">
        <ele>1142</ele>
        <time>2009-07-07T12:49:24Z</time>
      </trkpt>
      <trkpt lat="44.42082" lon="3.58385">
        <ele>1142</ele>
        <time>2009-07-07T12:49:30Z</time>
      </trkpt>
      <trkpt lat="44.42058" lon="3.58361">
        <ele>1143</ele>
        <time>2009-07-07T12:49:35Z</time>
      </trkpt>
      <trkpt lat="44.42021" lon="3.58279">
        <ele>1142</ele>
        <time>2009-07-07T12:49:47Z</time>
      </trkpt>
      <trkpt lat="44.42018" lon="3.58264">
        <ele>1141</ele>
        <time>2009-07-07T12:49:49Z</time>
      </trkpt>
      <trkpt lat="44.42019" lon="3.58249">
        <ele>1141</ele>
        <time>2009-07-07T12:49:51Z</time>
      </trkpt>
      <trkpt lat="44.42029" lon="3.58193">
        <ele>1144</ele>
        <time>2009-07-07T12:49:59Z</time>
      </trkpt>
      <trkpt lat="44.42032" lon="3.58179">
        <ele>1145</ele>
        <time>2009-07-07T12:50:01Z</time>
      </trkpt>
      <trkpt lat="44.42034" lon="3.58165">
        <ele>1143</ele>
        <time>2009-07-07T12:50:03Z</time>
      </trkpt>
      <trkpt lat="44.4206" lon="3.58013">
        <ele>1146</ele>
        <time>2009-07-07T12:50:24Z</time>
      </trkpt>
      <trkpt lat="44.42075" lon="3.57919">
        <ele>1142</ele>
        <time>2009-07-07T12:50:36Z</time>
      </trkpt>
      <trkpt lat="44.42077" lon="3.57911">
        <ele>1145</ele>
        <time>2009-07-07T12:50:37Z</time>
      </trkpt>
      <trkpt lat="44.42086" lon="3.57853">
        <ele>1142</ele>
        <time>2009-07-07T12:50:44Z</time>
      </trkpt>
      <trkpt lat="44.42089" lon="3.57835">
        <ele>1142</ele>
        <time>2009-07-07T12:50:46Z</time>
      </trkpt>
      <trkpt lat="44.42092" lon="3.57818">
        <ele>1144</ele>
        <time>2009-07-07T12:50:48Z</time>
      </trkpt>
      <trkpt lat="44.42096" lon="3.57794">
        <ele>1146</ele>
        <time>2009-07-07T12:50:51Z</time>
      </trkpt>
      <trkpt lat="44.42113" lon="3.57697">
        <ele>1147</ele>
        <time>2009-07-07T12:51:06Z</time>
      </trkpt>
      <trkpt lat="44.42143" lon="3.57571">
        <ele>1146</ele>
        <time>2009-07-07T12:51:24Z</time>
      </trkpt>
      <trkpt lat="44.42185" lon="3.57456">
        <ele>1143</ele>
        <time>2009-07-07T12:51:40Z</time>
      </trkpt>
      <trkpt lat="44.42222" lon="3.57384">
        <ele>1136</ele>
        <time>2009-07-07T12:51:49Z</time>
      </trkpt>
      <trkpt lat="44.42235" lon="3.57357">
        <ele>1135</ele>
        <time>2009-07-07T12:51:52Z</time>
      </trkpt>
      <trkpt lat="44.42251" lon="3.57319">
        <ele>1133</ele>
        <time>2009-07-07T12:51:56Z</time>
      </trkpt>
      <trkpt lat="44.42289" lon="3.57174">
        <ele>1131</ele>
        <time>2009-07-07T12:52:11Z</time>
      </trkpt>
      <trkpt lat="44.42305" lon="3.5703">
        <ele>1131</ele>
        <time>2009-07-07T12:52:26Z</time>
      </trkpt>
      <trkpt lat="44.42306" lon="3.56939">
        <ele>1128</ele>
        <time>2009-07-07T12:52:36Z</time>
      </trkpt>
      <trkpt lat="44.42306" lon="3.56917">
        <ele>1127</ele>
        <time>2009-07-07T12:52:38Z</time>
      </trkpt>
      <trkpt lat="44.42302" lon="3.56861">
        <ele>1123</ele>
        <time>2009-07-07T12:52:43Z</time>
      </trkpt>
      <trkpt lat="44.423" lon="3.5685">
        <ele>1124</ele>
        <time>2009-07-07T12:52:44Z</time>
      </trkpt>
      <trkpt lat="44.42273" lon="3.56736">
        <ele>1123</ele>
        <time>2009-07-07T12:52:55Z</time>
      </trkpt>
      <trkpt lat="44.42259" lon="3.56697">
        <ele>1121</ele>
        <time>2009-07-07T12:52:59Z</time>
      </trkpt>
      <trkpt lat="44.42228" lon="3.56623">
        <ele>1120</ele>
        <time>2009-07-07T12:53:07Z</time>
      </trkpt>
      <trkpt lat="44.42199" lon="3.56553">
        <ele>1120</ele>
        <time>2009-07-07T12:53:16Z</time>
      </trkpt>
      <trkpt lat="44.42178" lon="3.5649">
        <ele>1118</ele>
        <time>2009-07-07T12:53:24Z</time>
      </trkpt>
      <trkpt lat="44.42153" lon="3.56356">
        <ele>1117</ele>
        <time>2009-07-07T12:53:38Z</time>
      </trkpt>
      <trkpt lat="44.42138" lon="3.56271">
        <ele>1113</ele>
        <time>2009-07-07T12:53:46Z</time>
      </trkpt>
      <trkpt lat="44.42134" lon="3.56247">
        <ele>1109</ele>
        <time>2009-07-07T12:53:48Z</time>
      </trkpt>
      <trkpt lat="44.42133" lon="3.56235">
        <ele>1110</ele>
        <time>2009-07-07T12:53:49Z</time>
      </trkpt>
      <trkpt lat="44.42113" lon="3.56138">
        <ele>1106</ele>
        <time>2009-07-07T12:53:57Z</time>
      </trkpt>
      <trkpt lat="44.42109" lon="3.56113">
        <ele>1104</ele>
        <time>2009-07-07T12:53:59Z</time>
      </trkpt>
      <trkpt lat="44.42102" lon="3.56075">
        <ele>1101</ele>
        <time>2009-07-07T12:54:02Z</time>
      </trkpt>
      <trkpt lat="44.421" lon="3.56062">
        <ele>1101</ele>
        <time>2009-07-07T12:54:03Z</time>
      </trkpt>
      <trkpt lat="44.42091" lon="3.56011">
        <ele>1097</ele>
        <time>2009-07-07T12:54:07Z</time>
      </trkpt>
      <trkpt lat="44.42089" lon="3.55998">
        <ele>1098</ele>
        <time>2009-07-07T12:54:08Z</time>
      </trkpt>
      <trkpt lat="44.42082" lon="3.5596">
        <ele>1096</ele>
        <time>2009-07-07T12:54:11Z</time>
      </trkpt>
      <trkpt lat="44.42072" lon="3.55896">
        <ele>1094</ele>
        <time>2009-07-07T12:54:16Z</time>
      </trkpt>
      <trkpt lat="44.4205" lon="3.55771">
        <ele>1090</ele>
        <time>2009-07-07T12:54:25Z</time>
      </trkpt>
      <trkpt lat="44.42035" lon="3.55684">
        <ele>1088</ele>
        <time>2009-07-07T12:54:31Z</time>
      </trkpt>
      <trkpt lat="44.42028" lon="3.55641">
        <ele>1087</ele>
        <time>2009-07-07T12:54:34Z</time>
      </trkpt>
      <trkpt lat="44.42021" lon="3.55599">
        <ele>1083</ele>
        <time>2009-07-07T12:54:37Z</time>
      </trkpt>
      <trkpt lat="44.41987" lon="3.554">
        <ele>1083</ele>
        <time>2009-07-07T12:54:53Z</time>
      </trkpt>
      <trkpt lat="44.41967" lon="3.55297">
        <ele>1084</ele>
        <time>2009-07-07T12:55:06Z</time>
      </trkpt>
      <trkpt lat="44.41966" lon="3.55278">
        <ele>1083</ele>
        <time>2009-07-07T12:55:10Z</time>
      </trkpt>
      <trkpt lat="44.41954" lon="3.55252">
        <ele>1083</ele>
        <time>2009-07-07T12:55:22Z</time>
      </trkpt>
      <trkpt lat="44.41947" lon="3.55235">
        <ele>1082</ele>
        <time>2009-07-07T12:55:32Z</time>
      </trkpt>
      <trkpt lat="44.41935" lon="3.55159">
        <ele>1079</ele>
        <time>2009-07-07T12:55:42Z</time>
      </trkpt>
      <trkpt lat="44.41936" lon="3.5513">
        <ele>1078</ele>
        <time>2009-07-07T12:55:45Z</time>
      </trkpt>
      <trkpt lat="44.4194" lon="3.5511">
        <ele>1077</ele>
        <time>2009-07-07T12:55:47Z</time>
      </trkpt>
      <trkpt lat="44.41942" lon="3.551">
        <ele>1074</ele>
        <time>2009-07-07T12:55:48Z</time>
      </trkpt>
      <trkpt lat="44.41973" lon="3.54941">
        <ele>1075</ele>
        <time>2009-07-07T12:56:04Z</time>
      </trkpt>
      <trkpt lat="44.41974" lon="3.54933">
        <ele>1075</ele>
        <time>2009-07-07T12:56:05Z</time>
      </trkpt>
      <trkpt lat="44.41979" lon="3.54882">
        <ele>1074</ele>
        <time>2009-07-07T12:56:12Z</time>
      </trkpt>
      <trkpt lat="44.41982" lon="3.548">
        <ele>1071</ele>
        <time>2009-07-07T12:56:22Z</time>
      </trkpt>
      <trkpt lat="44.41984" lon="3.54711">
        <ele>1072</ele>
        <time>2009-07-07T12:56:32Z</time>
      </trkpt>
      <trkpt lat="44.41981" lon="3.54667">
        <ele>1070</ele>
        <time>2009-07-07T12:56:37Z</time>
      </trkpt>
      <trkpt lat="44.41972" lon="3.54621">
        <ele>1067</ele>
        <time>2009-07-07T12:56:42Z</time>
      </trkpt>
      <trkpt lat="44.41969" lon="3.54611">
        <ele>1067</ele>
        <time>2009-07-07T12:56:43Z</time>
      </trkpt>
      <trkpt lat="44.41966" lon="3.54602">
        <ele>1065</ele>
        <time>2009-07-07T12:56:44Z</time>
      </trkpt>
      <trkpt lat="44.41953" lon="3.54573">
        <ele>1061</ele>
        <time>2009-07-07T12:56:47Z</time>
      </trkpt>
      <trkpt lat="44.41931" lon="3.54531">
        <ele>1058</ele>
        <time>2009-07-07T12:56:51Z</time>
      </trkpt>
      <trkpt lat="44.41898" lon="3.54453">
        <ele>1054</ele>
        <time>2009-07-07T12:56:58Z</time>
      </trkpt>
      <trkpt lat="44.41891" lon="3.54426">
        <ele>1052</ele>
        <time>2009-07-07T12:57:01Z</time>
      </trkpt>
      <trkpt lat="44.41888" lon="3.54407">
        <ele>1049</ele>
        <time>2009-07-07T12:57:03Z</time>
      </trkpt>
      <trkpt lat="44.4188" lon="3.54364">
        <ele>1052</ele>
        <time>2009-07-07T12:57:08Z</time>
      </trkpt>
      <trkpt lat="44.41879" lon="3.54358">
        <ele>1052</ele>
        <time>2009-07-07T12:57:09Z</time>
      </trkpt>
      <trkpt lat="44.41867" lon="3.54316">
        <ele>1052</ele>
        <time>2009-07-07T12:57:21Z</time>
      </trkpt>
      <trkpt lat="44.41854" lon="3.54245">
        <ele>1053</ele>
        <time>2009-07-07T12:57:37Z</time>
      </trkpt>
      <trkpt lat="44.41849" lon="3.54205">
        <ele>1055</ele>
        <time>2009-07-07T12:57:45Z</time>
      </trkpt>
      <trkpt lat="44.41854" lon="3.54126">
        <ele>1058</ele>
        <time>2009-07-07T12:58:02Z</time>
      </trkpt>
      <trkpt lat="44.41867" lon="3.54055">
        <ele>1059</ele>
        <time>2009-07-07T12:58:17Z</time>
      </trkpt>
      <trkpt lat="44.41863" lon="3.54016">
        <ele>1062</ele>
        <time>2009-07-07T12:58:25Z</time>
      </trkpt>
      <trkpt lat="44.41853" lon="3.53917">
        <ele>1065</ele>
        <time>2009-07-07T12:58:45Z</time>
      </trkpt>
      <trkpt lat="44.41855" lon="3.53854">
        <ele>1069</ele>
        <time>2009-07-07T12:58:59Z</time>
      </trkpt>
      <trkpt lat="44.41855" lon="3.53849">
        <ele>1069</ele>
        <time>2009-07-07T12:59:00Z</time>
      </trkpt>
      <trkpt lat="44.4184" lon="3.53771">
        <ele>1070</ele>
        <time>2009-07-07T12:59:19Z</time>
      </trkpt>
      <trkpt lat="44.41828" lon="3.53752">
        <ele>1071</ele>
        <time>2009-07-07T12:59:25Z</time>
      </trkpt>
      <trkpt lat="44.41792" lon="3.53722">
        <ele>1074</ele>
        <time>2009-07-07T12:59:40Z</time>
      </trkpt>
      <trkpt lat="44.41753" lon="3.53706">
        <ele>1076</ele>
        <time>2009-07-07T12:59:54Z</time>
      </trkpt>
      <trkpt lat="44.41722" lon="3.53675">
        <ele>1079</ele>
        <time>2009-07-07T13:00:07Z</time>
      </trkpt>
      <trkpt lat="44.41711" lon="3.53662">
        <ele>1080</ele>
        <time>2009-07-07T13:00:12Z</time>
      </trkpt>
      <trkpt lat="44.41666" lon="3.53625">
        <ele>1082</ele>
        <time>2009-07-07T13:00:31Z</time>
      </trkpt>
      <trkpt lat="44.41635" lon="3.53604">
        <ele>1086</ele>
        <time>2009-07-07T13:00:44Z</time>
      </trkpt>
      <trkpt lat="44.4159" lon="3.53596">
        <ele>1087</ele>
        <time>2009-07-07T13:01:02Z</time>
      </trkpt>
      <trkpt lat="44.41554" lon="3.53597">
        <ele>1090</ele>
        <time>2009-07-07T13:01:16Z</time>
      </trkpt>
      <trkpt lat="44.41507" lon="3.53628">
        <ele>1092</ele>
        <time>2009-07-07T13:01:36Z</time>
      </trkpt>
      <trkpt lat="44.41499" lon="3.53636">
        <ele>1093</ele>
        <time>2009-07-07T13:01:40Z</time>
      </trkpt>
      <trkpt lat="44.41501" lon="3.53615">
        <ele>1095</ele>
        <time>2009-07-07T13:01:48Z</time>
      </trkpt>
      <trkpt lat="44.41541" lon="3.53572">
        <ele>1098</ele>
        <time>2009-07-07T13:02:06Z</time>
      </trkpt>
      <trkpt lat="44.41549" lon="3.53556">
        <ele>1099</ele>
        <time>2009-07-07T13:02:11Z</time>
      </trkpt>
      <trkpt lat="44.41566" lon="3.53488">
        <ele>1099</ele>
        <time>2009-07-07T13:02:30Z</time>
      </trkpt>
      <trkpt lat="44.41564" lon="3.53439">
        <ele>1095</ele>
        <time>2009-07-07T13:02:39Z</time>
      </trkpt>
      <trkpt lat="44.41564" lon="3.53432">
        <ele>1095</ele>
        <time>2009-07-07T13:02:40Z</time>
      </trkpt>
      <trkpt lat="44.4156" lon="3.53409">
        <ele>1092</ele>
        <time>2009-07-07T13:02:43Z</time>
      </trkpt>
      <trkpt lat="44.41558" lon="3.53392">
        <ele>1091</ele>
        <time>2009-07-07T13:02:45Z</time>
      </trkpt>
      <trkpt lat="44.41553" lon="3.53349">
        <ele>1091</ele>
        <time>2009-07-07T13:02:50Z</time>
      </trkpt>
      <trkpt lat="44.41551" lon="3.5333">
        <ele>1090</ele>
        <time>2009-07-07T13:02:52Z</time>
      </trkpt>
      <trkpt lat="44.41548" lon="3.5331">
        <ele>1088</ele>
        <time>2009-07-07T13:02:54Z</time>
      </trkpt>
      <trkpt lat="44.4154" lon="3.53245">
        <ele>1083</ele>
        <time>2009-07-07T13:03:00Z</time>
      </trkpt>
      <trkpt lat="44.41541" lon="3.53165">
        <ele>1079</ele>
        <time>2009-07-07T13:03:07Z</time>
      </trkpt>
      <trkpt lat="44.41543" lon="3.5313">
        <ele>1075</ele>
        <time>2009-07-07T13:03:10Z</time>
      </trkpt>
      <trkpt lat="44.41543" lon="3.53118">
        <ele>1075</ele>
        <time>2009-07-07T13:03:11Z</time>
      </trkpt>
      <trkpt lat="44.41532" lon="3.53014">
        <ele>1072</ele>
        <time>2009-07-07T13:03:20Z</time>
      </trkpt>
      <trkpt lat="44.4153" lon="3.52991">
        <ele>1070</ele>
        <time>2009-07-07T13:03:22Z</time>
      </trkpt>
      <trkpt lat="44.41531" lon="3.52932">
        <ele>1067</ele>
        <time>2009-07-07T13:03:27Z</time>
      </trkpt>
      <trkpt lat="44.41534" lon="3.52884">
        <ele>1065</ele>
        <time>2009-07-07T13:03:31Z</time>
      </trkpt>
      <trkpt lat="44.41533" lon="3.52848">
        <ele>1062</ele>
        <time>2009-07-07T13:03:34Z</time>
      </trkpt>
      <trkpt lat="44.41519" lon="3.5278">
        <ele>1058</ele>
        <time>2009-07-07T13:03:40Z</time>
      </trkpt>
      <trkpt lat="44.41515" lon="3.5277">
        <ele>1059</ele>
        <time>2009-07-07T13:03:41Z</time>
      </trkpt>
      <trkpt lat="44.415" lon="3.52713">
        <ele>1055</ele>
        <time>2009-07-07T13:03:46Z</time>
      </trkpt>
      <trkpt lat="44.41496" lon="3.5269">
        <ele>1053</ele>
        <time>2009-07-07T13:03:48Z</time>
      </trkpt>
      <trkpt lat="44.41491" lon="3.52655">
        <ele>1052</ele>
        <time>2009-07-07T13:03:51Z</time>
      </trkpt>
      <trkpt lat="44.41487" lon="3.5256">
        <ele>1052</ele>
        <time>2009-07-07T13:04:00Z</time>
      </trkpt>
      <trkpt lat="44.41485" lon="3.52485">
        <ele>1049</ele>
        <time>2009-07-07T13:04:07Z</time>
      </trkpt>
      <trkpt lat="44.41484" lon="3.5243">
        <ele>1048</ele>
        <time>2009-07-07T13:04:12Z</time>
      </trkpt>
      <trkpt lat="44.41483" lon="3.52361">
        <ele>1045</ele>
        <time>2009-07-07T13:04:18Z</time>
      </trkpt>
      <trkpt lat="44.41482" lon="3.52338">
        <ele>1042</ele>
        <time>2009-07-07T13:04:20Z</time>
      </trkpt>
      <trkpt lat="44.41481" lon="3.52269">
        <ele>1040</ele>
        <time>2009-07-07T13:04:26Z</time>
      </trkpt>
      <trkpt lat="44.41479" lon="3.52198">
        <ele>1038</ele>
        <time>2009-07-07T13:04:32Z</time>
      </trkpt>
      <trkpt lat="44.41478" lon="3.52149">
        <ele>1036</ele>
        <time>2009-07-07T13:04:36Z</time>
      </trkpt>
      <trkpt lat="44.41477" lon="3.52074">
        <ele>1032</ele>
        <time>2009-07-07T13:04:42Z</time>
      </trkpt>
      <trkpt lat="44.41474" lon="3.51899">
        <ele>1028</ele>
        <time>2009-07-07T13:04:58Z</time>
      </trkpt>
      <trkpt lat="44.41474" lon="3.51873">
        <ele>1030</ele>
        <time>2009-07-07T13:05:01Z</time>
      </trkpt>
      <trkpt lat="44.41471" lon="3.51763">
        <ele>1029</ele>
        <time>2009-07-07T13:05:14Z</time>
      </trkpt>
      <trkpt lat="44.41467" lon="3.51609">
        <ele>1029</ele>
        <time>2009-07-07T13:05:33Z</time>
      </trkpt>
      <trkpt lat="44.41464" lon="3.51472">
        <ele>1029</ele>
        <time>2009-07-07T13:05:53Z</time>
      </trkpt>
      <trkpt lat="44.41464" lon="3.51458">
        <ele>1031</ele>
        <time>2009-07-07T13:05:55Z</time>
      </trkpt>
      <trkpt lat="44.41462" lon="3.51342">
        <ele>1030</ele>
        <time>2009-07-07T13:06:13Z</time>
      </trkpt>
      <trkpt lat="44.41459" lon="3.51181">
        <ele>1031</ele>
        <time>2009-07-07T13:06:38Z</time>
      </trkpt>
      <trkpt lat="44.41457" lon="3.51052">
        <ele>1033</ele>
        <time>2009-07-07T13:07:00Z</time>
      </trkpt>
      <trkpt lat="44.41458" lon="3.51048">
        <ele>1032</ele>
        <time>2009-07-07T13:07:01Z</time>
      </trkpt>
      <trkpt lat="44.41466" lon="3.51042">
        <ele>1033</ele>
        <time>2009-07-07T13:07:04Z</time>
      </trkpt>
      <trkpt lat="44.41476" lon="3.51041">
        <ele>1033</ele>
        <time>2009-07-07T13:07:07Z</time>
      </trkpt>
      <trkpt lat="44.41516" lon="3.51045">
        <ele>1032</ele>
        <time>2009-07-07T13:07:20Z</time>
      </trkpt>
      <trkpt lat="44.41527" lon="3.51046">
        <ele>1035</ele>
        <time>2009-07-07T13:07:24Z</time>
      </trkpt>
      <trkpt lat="44.41531" lon="3.51047">
        <ele>1034</ele>
        <time>2009-07-07T13:07:27Z</time>
      </trkpt>
      <trkpt lat="44.4154" lon="3.51048">
        <ele>1033</ele>
        <time>2009-07-07T13:07:34Z</time>
      </trkpt>
      <trkpt lat="44.41543" lon="3.51048">
        <ele>1034</ele>
        <time>2009-07-07T13:07:36Z</time>
      </trkpt>
      <trkpt lat="44.41538" lon="3.51043">
        <ele>1034</ele>
        <time>2009-07-07T13:07:43Z</time>
      </trkpt>
      <trkpt lat="44.41533" lon="3.51043">
        <ele>1034</ele>
        <time>2009-07-07T13:07:45Z</time>
      </trkpt>
      <trkpt lat="44.4153" lon="3.51035">
        <ele>1034</ele>
        <time>2009-07-07T13:07:49Z</time>
      </trkpt>
      <trkpt lat="44.41533" lon="3.51014">
        <ele>1034</ele>
        <time>2009-07-07T13:08:03Z</time>
      </trkpt>
      <trkpt lat="44.41532" lon="3.51004">
        <ele>1036</ele>
        <time>2009-07-07T13:08:18Z</time>
      </trkpt>
      <trkpt lat="44.41533" lon="3.51003">
        <ele>1035</ele>
        <time>2009-07-07T13:08:40Z</time>
      </trkpt>
      <trkpt lat="44.41533" lon="3.51001">
        <ele>1034</ele>
        <time>2009-07-07T13:08:51Z</time>
      </trkpt>
      <trkpt lat="44.41541" lon="3.50961">
        <ele>1037</ele>
        <time>2009-07-07T13:09:05Z</time>
      </trkpt>
      <trkpt lat="44.41549" lon="3.50901">
        <ele>1040</ele>
        <time>2009-07-07T13:09:22Z</time>
      </trkpt>
      <trkpt lat="44.4156" lon="3.50824">
        <ele>1041</ele>
        <time>2009-07-07T13:09:43Z</time>
      </trkpt>
      <trkpt lat="44.41567" lon="3.50771">
        <ele>1043</ele>
        <time>2009-07-07T13:10:01Z</time>
      </trkpt>
      <trkpt lat="44.41567" lon="3.50718">
        <ele>1044</ele>
        <time>2009-07-07T13:10:19Z</time>
      </trkpt>
      <trkpt lat="44.41568" lon="3.50659">
        <ele>1044</ele>
        <time>2009-07-07T13:10:33Z</time>
      </trkpt>
      <trkpt lat="44.41573" lon="3.50624">
        <ele>1045</ele>
        <time>2009-07-07T13:10:42Z</time>
      </trkpt>
      <trkpt lat="44.41573" lon="3.50601">
        <ele>1046</ele>
        <time>2009-07-07T13:10:50Z</time>
      </trkpt>
      <trkpt lat="44.41572" lon="3.50585">
        <ele>1049</ele>
        <time>2009-07-07T13:10:55Z</time>
      </trkpt>
      <trkpt lat="44.41573" lon="3.5053">
        <ele>1052</ele>
        <time>2009-07-07T13:11:12Z</time>
      </trkpt>
      <trkpt lat="44.41577" lon="3.50507">
        <ele>1052</ele>
        <time>2009-07-07T13:11:18Z</time>
      </trkpt>
      <trkpt lat="44.41577" lon="3.50441">
        <ele>1054</ele>
        <time>2009-07-07T13:11:36Z</time>
      </trkpt>
      <trkpt lat="44.41573" lon="3.50372">
        <ele>1055</ele>
        <time>2009-07-07T13:11:55Z</time>
      </trkpt>
      <trkpt lat="44.41569" lon="3.50295">
        <ele>1055</ele>
        <time>2009-07-07T13:12:13Z</time>
      </trkpt>
      <trkpt lat="44.41573" lon="3.50256">
        <ele>1052</ele>
        <time>2009-07-07T13:12:20Z</time>
      </trkpt>
      <trkpt lat="44.41574" lon="3.50206">
        <ele>1049</ele>
        <time>2009-07-07T13:12:28Z</time>
      </trkpt>
      <trkpt lat="44.41581" lon="3.50181">
        <ele>1049</ele>
        <time>2009-07-07T13:12:32Z</time>
      </trkpt>
      <trkpt lat="44.41586" lon="3.50168">
        <ele>1049</ele>
        <time>2009-07-07T13:12:34Z</time>
      </trkpt>
      <trkpt lat="44.41588" lon="3.50136">
        <ele>1047</ele>
        <time>2009-07-07T13:12:39Z</time>
      </trkpt>
      <trkpt lat="44.41568" lon="3.50104">
        <ele>1049</ele>
        <time>2009-07-07T13:12:50Z</time>
      </trkpt>
      <trkpt lat="44.41536" lon="3.5009">
        <ele>1050</ele>
        <time>2009-07-07T13:13:04Z</time>
      </trkpt>
      <trkpt lat="44.41532" lon="3.50075">
        <ele>1048</ele>
        <time>2009-07-07T13:13:17Z</time>
      </trkpt>
      <trkpt lat="44.41533" lon="3.50076">
        <ele>1048</ele>
        <time>2009-07-07T13:14:02Z</time>
      </trkpt>
      <trkpt lat="44.41533" lon="3.50075">
        <ele>1047</ele>
        <time>2009-07-07T13:14:32Z</time>
      </trkpt>
      <trkpt lat="44.41531" lon="3.50076">
        <ele>1048</ele>
        <time>2009-07-07T13:14:44Z</time>
      </trkpt>
      <trkpt lat="44.41525" lon="3.50079">
        <ele>1048</ele>
        <time>2009-07-07T13:14:48Z</time>
      </trkpt>
      <trkpt lat="44.41475" lon="3.50081">
        <ele>1050</ele>
        <time>2009-07-07T13:15:07Z</time>
      </trkpt>
      <trkpt lat="44.4144" lon="3.50089">
        <ele>1050</ele>
        <time>2009-07-07T13:15:21Z</time>
      </trkpt>
      <trkpt lat="44.41417" lon="3.50109">
        <ele>1053</ele>
        <time>2009-07-07T13:15:35Z</time>
      </trkpt>
      <trkpt lat="44.41411" lon="3.50115">
        <ele>1054</ele>
        <time>2009-07-07T13:15:39Z</time>
      </trkpt>
      <trkpt lat="44.41408" lon="3.50115">
        <ele>1055</ele>
        <time>2009-07-07T13:15:41Z</time>
      </trkpt>
      <trkpt lat="44.41405" lon="3.50112">
        <ele>1056</ele>
        <time>2009-07-07T13:15:55Z</time>
      </trkpt>
      <trkpt lat="44.41402" lon="3.50105">
        <ele>1056</ele>
        <time>2009-07-07T13:16:03Z</time>
      </trkpt>
      <trkpt lat="44.41397" lon="3.50099">
        <ele>1055</ele>
        <time>2009-07-07T13:16:15Z</time>
      </trkpt>
      <trkpt lat="44.41393" lon="3.501">
        <ele>1055</ele>
        <time>2009-07-07T13:16:49Z</time>
      </trkpt>
      <trkpt lat="44.41368" lon="3.50104">
        <ele>1056</ele>
        <time>2009-07-07T13:17:03Z</time>
      </trkpt>
      <trkpt lat="44.41357" lon="3.50105">
        <ele>1054</ele>
        <time>2009-07-07T13:17:12Z</time>
      </trkpt>
      <trkpt lat="44.41356" lon="3.5009">
        <ele>1053</ele>
        <time>2009-07-07T13:17:16Z</time>
      </trkpt>
      <trkpt lat="44.41325" lon="3.50073">
        <ele>1054</ele>
        <time>2009-07-07T13:17:29Z</time>
      </trkpt>
      <trkpt lat="44.41312" lon="3.50067">
        <ele>1055</ele>
        <time>2009-07-07T13:17:41Z</time>
      </trkpt>
      <trkpt lat="44.41309" lon="3.50066">
        <ele>1055</ele>
        <time>2009-07-07T13:17:52Z</time>
      </trkpt>
      <trkpt lat="44.41299" lon="3.50067">
        <ele>1055</ele>
        <time>2009-07-07T13:18:04Z</time>
      </trkpt>
      <trkpt lat="44.4129" lon="3.50058">
        <ele>1056</ele>
        <time>2009-07-07T13:18:09Z</time>
      </trkpt>
      <trkpt lat="44.41268" lon="3.50023">
        <ele>1053</ele>
        <time>2009-07-07T13:18:21Z</time>
      </trkpt>
      <trkpt lat="44.41227" lon="3.49977">
        <ele>1054</ele>
        <time>2009-07-07T13:18:38Z</time>
      </trkpt>
      <trkpt lat="44.41215" lon="3.49966">
        <ele>1054</ele>
        <time>2009-07-07T13:18:43Z</time>
      </trkpt>
      <trkpt lat="44.41161" lon="3.49933">
        <ele>1052</ele>
        <time>2009-07-07T13:19:01Z</time>
      </trkpt>
      <trkpt lat="44.41142" lon="3.49923">
        <ele>1050</ele>
        <time>2009-07-07T13:19:07Z</time>
      </trkpt>
      <trkpt lat="44.41117" lon="3.49906">
        <ele>1049</ele>
        <time>2009-07-07T13:19:15Z</time>
      </trkpt>
      <trkpt lat="44.41085" lon="3.49853">
        <ele>1051</ele>
        <time>2009-07-07T13:19:31Z</time>
      </trkpt>
      <trkpt lat="44.41068" lon="3.49801">
        <ele>1052</ele>
        <time>2009-07-07T13:19:47Z</time>
      </trkpt>
      <trkpt lat="44.41064" lon="3.49789">
        <ele>1049</ele>
        <time>2009-07-07T13:19:52Z</time>
      </trkpt>
      <trkpt lat="44.41053" lon="3.49786">
        <ele>1050</ele>
        <time>2009-07-07T13:19:58Z</time>
      </trkpt>
      <trkpt lat="44.41031" lon="3.49756">
        <ele>1051</ele>
        <time>2009-07-07T13:20:12Z</time>
      </trkpt>
      <trkpt lat="44.41003" lon="3.49718">
        <ele>1051</ele>
        <time>2009-07-07T13:20:28Z</time>
      </trkpt>
      <trkpt lat="44.40996" lon="3.49683">
        <ele>1053</ele>
        <time>2009-07-07T13:20:40Z</time>
      </trkpt>
      <trkpt lat="44.40987" lon="3.49635">
        <ele>1055</ele>
        <time>2009-07-07T13:20:58Z</time>
      </trkpt>
      <trkpt lat="44.40979" lon="3.49589">
        <ele>1059</ele>
        <time>2009-07-07T13:21:15Z</time>
      </trkpt>
      <trkpt lat="44.40971" lon="3.49565">
        <ele>1062</ele>
        <time>2009-07-07T13:21:25Z</time>
      </trkpt>
      <trkpt lat="44.4096" lon="3.4954">
        <ele>1064</ele>
        <time>2009-07-07T13:21:35Z</time>
      </trkpt>
      <trkpt lat="44.40945" lon="3.49498">
        <ele>1062</ele>
        <time>2009-07-07T13:21:52Z</time>
      </trkpt>
      <trkpt lat="44.40946" lon="3.4948">
        <ele>1059</ele>
        <time>2009-07-07T13:22:00Z</time>
      </trkpt>
      <trkpt lat="44.40947" lon="3.49472">
        <ele>1060</ele>
        <time>2009-07-07T13:22:06Z</time>
      </trkpt>
      <trkpt lat="44.40947" lon="3.49472">
        <ele>1063</ele>
        <time>2009-07-07T13:22:10Z</time>
      </trkpt>
      <trkpt lat="44.40947" lon="3.49473">
        <ele>1061</ele>
        <time>2009-07-07T13:22:24Z</time>
      </trkpt>
      <trkpt lat="44.40947" lon="3.49473">
        <ele>1059</ele>
        <time>2009-07-07T13:22:35Z</time>
      </trkpt>
      <trkpt lat="44.40948" lon="3.49472">
        <ele>1061</ele>
        <time>2009-07-07T13:22:50Z</time>
      </trkpt>
      <trkpt lat="44.40947" lon="3.49472">
        <ele>1062</ele>
        <time>2009-07-07T13:23:00Z</time>
      </trkpt>
      <trkpt lat="44.40947" lon="3.49472">
        <ele>1062</ele>
        <time>2009-07-07T13:23:17Z</time>
      </trkpt>
      <trkpt lat="44.40947" lon="3.49468">
        <ele>1060</ele>
        <time>2009-07-07T13:23:19Z</time>
      </trkpt>
      <trkpt lat="44.40948" lon="3.49462">
        <ele>1059</ele>
        <time>2009-07-07T13:23:21Z</time>
      </trkpt>
      <trkpt lat="44.40946" lon="3.49431">
        <ele>1058</ele>
        <time>2009-07-07T13:23:28Z</time>
      </trkpt>
      <trkpt lat="44.40951" lon="3.494">
        <ele>1053</ele>
        <time>2009-07-07T13:23:33Z</time>
      </trkpt>
      <trkpt lat="44.40952" lon="3.49393">
        <ele>1054</ele>
        <time>2009-07-07T13:23:34Z</time>
      </trkpt>
      <trkpt lat="44.4095" lon="3.49322">
        <ele>1056</ele>
        <time>2009-07-07T13:23:45Z</time>
      </trkpt>
      <trkpt lat="44.40948" lon="3.49277">
        <ele>1055</ele>
        <time>2009-07-07T13:23:52Z</time>
      </trkpt>
      <trkpt lat="44.40953" lon="3.49227">
        <ele>1053</ele>
        <time>2009-07-07T13:23:59Z</time>
      </trkpt>
      <trkpt lat="44.40961" lon="3.49125">
        <ele>1049</ele>
        <time>2009-07-07T13:24:13Z</time>
      </trkpt>
      <trkpt lat="44.40966" lon="3.49041">
        <ele>1048</ele>
        <time>2009-07-07T13:24:24Z</time>
      </trkpt>
      <trkpt lat="44.40965" lon="3.49026">
        <ele>1046</ele>
        <time>2009-07-07T13:24:26Z</time>
      </trkpt>
      <trkpt lat="44.40963" lon="3.49009">
        <ele>1044</ele>
        <time>2009-07-07T13:24:28Z</time>
      </trkpt>
      <trkpt lat="44.40945" lon="3.48942">
        <ele>1042</ele>
        <time>2009-07-07T13:24:36Z</time>
      </trkpt>
      <trkpt lat="44.40943" lon="3.48916">
        <ele>1040</ele>
        <time>2009-07-07T13:24:39Z</time>
      </trkpt>
      <trkpt lat="44.40945" lon="3.48898">
        <ele>1040</ele>
        <time>2009-07-07T13:24:41Z</time>
      </trkpt>
      <trkpt lat="44.40951" lon="3.48856">
        <ele>1038</ele>
        <time>2009-07-07T13:24:46Z</time>
      </trkpt>
      <trkpt lat="44.40936" lon="3.48756">
        <ele>1040</ele>
        <time>2009-07-07T13:24:59Z</time>
      </trkpt>
      <trkpt lat="44.40936" lon="3.48723">
        <ele>1037</ele>
        <time>2009-07-07T13:25:03Z</time>
      </trkpt>
      <trkpt lat="44.40943" lon="3.48681">
        <ele>1037</ele>
        <time>2009-07-07T13:25:08Z</time>
      </trkpt>
      <trkpt lat="44.4095" lon="3.48659">
        <ele>1036</ele>
        <time>2009-07-07T13:25:11Z</time>
      </trkpt>
      <trkpt lat="44.40962" lon="3.48634">
        <ele>1037</ele>
        <time>2009-07-07T13:25:15Z</time>
      </trkpt>
      <trkpt lat="44.40967" lon="3.48621">
        <ele>1038</ele>
        <time>2009-07-07T13:25:17Z</time>
      </trkpt>
      <trkpt lat="44.4097" lon="3.48606">
        <ele>1037</ele>
        <time>2009-07-07T13:25:19Z</time>
      </trkpt>
      <trkpt lat="44.40975" lon="3.48585">
        <ele>1036</ele>
        <time>2009-07-07T13:25:22Z</time>
      </trkpt>
      <trkpt lat="44.40986" lon="3.4856">
        <ele>1034</ele>
        <time>2009-07-07T13:25:26Z</time>
      </trkpt>
      <trkpt lat="44.40996" lon="3.48546">
        <ele>1036</ele>
        <time>2009-07-07T13:25:29Z</time>
      </trkpt>
      <trkpt lat="44.4101" lon="3.48527">
        <ele>1034</ele>
        <time>2009-07-07T13:25:33Z</time>
      </trkpt>
      <trkpt lat="44.41013" lon="3.48522">
        <ele>1033</ele>
        <time>2009-07-07T13:25:34Z</time>
      </trkpt>
      <trkpt lat="44.41029" lon="3.48476">
        <ele>1032</ele>
        <time>2009-07-07T13:25:41Z</time>
      </trkpt>
      <trkpt lat="44.41042" lon="3.48453">
        <ele>1032</ele>
        <time>2009-07-07T13:25:45Z</time>
      </trkpt>
      <trkpt lat="44.41059" lon="3.48438">
        <ele>1031</ele>
        <time>2009-07-07T13:25:49Z</time>
      </trkpt>
      <trkpt lat="44.4107" lon="3.48425">
        <ele>1032</ele>
        <time>2009-07-07T13:25:52Z</time>
      </trkpt>
      <trkpt lat="44.41104" lon="3.48368">
        <ele>1033</ele>
        <time>2009-07-07T13:26:04Z</time>
      </trkpt>
      <trkpt lat="44.41127" lon="3.48303">
        <ele>1033</ele>
        <time>2009-07-07T13:26:19Z</time>
      </trkpt>
      <trkpt lat="44.41145" lon="3.48228">
        <ele>1034</ele>
        <time>2009-07-07T13:26:38Z</time>
      </trkpt>
      <trkpt lat="44.41172" lon="3.48179">
        <ele>1037</ele>
        <time>2009-07-07T13:26:53Z</time>
      </trkpt>
      <trkpt lat="44.41206" lon="3.48143">
        <ele>1039</ele>
        <time>2009-07-07T13:27:07Z</time>
      </trkpt>
      <trkpt lat="44.41224" lon="3.48132">
        <ele>1041</ele>
        <time>2009-07-07T13:27:14Z</time>
      </trkpt>
      <trkpt lat="44.41243" lon="3.48111">
        <ele>1042</ele>
        <time>2009-07-07T13:27:23Z</time>
      </trkpt>
      <trkpt lat="44.41268" lon="3.48061">
        <ele>1043</ele>
        <time>2009-07-07T13:27:39Z</time>
      </trkpt>
      <trkpt lat="44.41283" lon="3.48003">
        <ele>1047</ele>
        <time>2009-07-07T13:27:57Z</time>
      </trkpt>
      <trkpt lat="44.41294" lon="3.4795">
        <ele>1047</ele>
        <time>2009-07-07T13:28:13Z</time>
      </trkpt>
      <trkpt lat="44.41295" lon="3.47891">
        <ele>1050</ele>
        <time>2009-07-07T13:28:29Z</time>
      </trkpt>
      <trkpt lat="44.41291" lon="3.47837">
        <ele>1051</ele>
        <time>2009-07-07T13:28:44Z</time>
      </trkpt>
      <trkpt lat="44.41278" lon="3.47756">
        <ele>1052</ele>
        <time>2009-07-07T13:29:02Z</time>
      </trkpt>
      <trkpt lat="44.41276" lon="3.47683">
        <ele>1052</ele>
        <time>2009-07-07T13:29:18Z</time>
      </trkpt>
      <trkpt lat="44.41303" lon="3.47607">
        <ele>1053</ele>
        <time>2009-07-07T13:29:37Z</time>
      </trkpt>
      <trkpt lat="44.4133" lon="3.47571">
        <ele>1055</ele>
        <time>2009-07-07T13:29:48Z</time>
      </trkpt>
      <trkpt lat="44.41368" lon="3.47522">
        <ele>1053</ele>
        <time>2009-07-07T13:30:02Z</time>
      </trkpt>
      <trkpt lat="44.41397" lon="3.47469">
        <ele>1052</ele>
        <time>2009-07-07T13:30:16Z</time>
      </trkpt>
      <trkpt lat="44.41395" lon="3.47426">
        <ele>1055</ele>
        <time>2009-07-07T13:30:25Z</time>
      </trkpt>
      <trkpt lat="44.41365" lon="3.47378">
        <ele>1055</ele>
        <time>2009-07-07T13:30:38Z</time>
      </trkpt>
      <trkpt lat="44.41344" lon="3.4736">
        <ele>1053</ele>
        <time>2009-07-07T13:30:44Z</time>
      </trkpt>
      <trkpt lat="44.41289" lon="3.47305">
        <ele>1052</ele>
        <time>2009-07-07T13:31:02Z</time>
      </trkpt>
      <trkpt lat="44.41257" lon="3.47269">
        <ele>1054</ele>
        <time>2009-07-07T13:31:13Z</time>
      </trkpt>
      <trkpt lat="44.41229" lon="3.4721">
        <ele>1053</ele>
        <time>2009-07-07T13:31:27Z</time>
      </trkpt>
      <trkpt lat="44.41215" lon="3.4711">
        <ele>1054</ele>
        <time>2009-07-07T13:31:46Z</time>
      </trkpt>
      <trkpt lat="44.41201" lon="3.47083">
        <ele>1056</ele>
        <time>2009-07-07T13:31:53Z</time>
      </trkpt>
      <trkpt lat="44.41171" lon="3.47042">
        <ele>1056</ele>
        <time>2009-07-07T13:32:07Z</time>
      </trkpt>
      <trkpt lat="44.41146" lon="3.47">
        <ele>1053</ele>
        <time>2009-07-07T13:32:19Z</time>
      </trkpt>
      <trkpt lat="44.41144" lon="3.46996">
        <ele>1053</ele>
        <time>2009-07-07T13:32:20Z</time>
      </trkpt>
      <trkpt lat="44.41101" lon="3.46941">
        <ele>1050</ele>
        <time>2009-07-07T13:32:34Z</time>
      </trkpt>
      <trkpt lat="44.41073" lon="3.46908">
        <ele>1045</ele>
        <time>2009-07-07T13:32:40Z</time>
      </trkpt>
      <trkpt lat="44.41068" lon="3.46901">
        <ele>1045</ele>
        <time>2009-07-07T13:32:41Z</time>
      </trkpt>
      <trkpt lat="44.41054" lon="3.46878">
        <ele>1040</ele>
        <time>2009-07-07T13:32:44Z</time>
      </trkpt>
      <trkpt lat="44.41016" lon="3.46825">
        <ele>1036</ele>
        <time>2009-07-07T13:32:51Z</time>
      </trkpt>
      <trkpt lat="44.40975" lon="3.46776">
        <ele>1033</ele>
        <time>2009-07-07T13:32:58Z</time>
      </trkpt>
      <trkpt lat="44.40964" lon="3.46766">
        <ele>1032</ele>
        <time>2009-07-07T13:33:00Z</time>
      </trkpt>
      <trkpt lat="44.40929" lon="3.46764">
        <ele>1030</ele>
        <time>2009-07-07T13:33:06Z</time>
      </trkpt>
      <trkpt lat="44.40918" lon="3.46772">
        <ele>1030</ele>
        <time>2009-07-07T13:33:08Z</time>
      </trkpt>
      <trkpt lat="44.40878" lon="3.4676">
        <ele>1030</ele>
        <time>2009-07-07T13:33:17Z</time>
      </trkpt>
      <trkpt lat="44.40879" lon="3.46744">
        <ele>1029</ele>
        <time>2009-07-07T13:33:20Z</time>
      </trkpt>
      <trkpt lat="44.4088" lon="3.46729">
        <ele>1031</ele>
        <time>2009-07-07T13:33:29Z</time>
      </trkpt>
      <trkpt lat="44.40881" lon="3.46727">
        <ele>1031</ele>
        <time>2009-07-07T13:33:55Z</time>
      </trkpt>
      <trkpt lat="44.40882" lon="3.46728">
        <ele>1030</ele>
        <time>2009-07-07T13:34:32Z</time>
      </trkpt>
      <trkpt lat="44.40881" lon="3.46727">
        <ele>1029</ele>
        <time>2009-07-07T13:35:29Z</time>
      </trkpt>
      <trkpt lat="44.40881" lon="3.46727">
        <ele>1029</ele>
        <time>2009-07-07T13:36:24Z</time>
      </trkpt>
      <trkpt lat="44.40881" lon="3.46726">
        <ele>1030</ele>
        <time>2009-07-07T13:36:53Z</time>
      </trkpt>
      <trkpt lat="44.40873" lon="3.467">
        <ele>1030</ele>
        <time>2009-07-07T13:37:08Z</time>
      </trkpt>
      <trkpt lat="44.40841" lon="3.46651">
        <ele>1028</ele>
        <time>2009-07-07T13:37:22Z</time>
      </trkpt>
      <trkpt lat="44.40804" lon="3.46606">
        <ele>1032</ele>
        <time>2009-07-07T13:37:37Z</time>
      </trkpt>
      <trkpt lat="44.40802" lon="3.46603">
        <ele>1032</ele>
        <time>2009-07-07T13:37:38Z</time>
      </trkpt>
      <trkpt lat="44.40788" lon="3.46592">
        <ele>1034</ele>
        <time>2009-07-07T13:37:44Z</time>
      </trkpt>
      <trkpt lat="44.40758" lon="3.4658">
        <ele>1037</ele>
        <time>2009-07-07T13:37:58Z</time>
      </trkpt>
      <trkpt lat="44.40715" lon="3.46578">
        <ele>1040</ele>
        <time>2009-07-07T13:38:17Z</time>
      </trkpt>
      <trkpt lat="44.40711" lon="3.46575">
        <ele>1040</ele>
        <time>2009-07-07T13:38:19Z</time>
      </trkpt>
      <trkpt lat="44.40707" lon="3.46515">
        <ele>1041</ele>
        <time>2009-07-07T13:38:36Z</time>
      </trkpt>
      <trkpt lat="44.40702" lon="3.46452">
        <ele>1044</ele>
        <time>2009-07-07T13:38:55Z</time>
      </trkpt>
      <trkpt lat="44.40706" lon="3.46392">
        <ele>1046</ele>
        <time>2009-07-07T13:39:12Z</time>
      </trkpt>
      <trkpt lat="44.40703" lon="3.46382">
        <ele>1047</ele>
        <time>2009-07-07T13:39:15Z</time>
      </trkpt>
      <trkpt lat="44.40675" lon="3.46332">
        <ele>1050</ele>
        <time>2009-07-07T13:39:33Z</time>
      </trkpt>
      <trkpt lat="44.40644" lon="3.46294">
        <ele>1047</ele>
        <time>2009-07-07T13:39:45Z</time>
      </trkpt>
      <trkpt lat="44.40633" lon="3.46272">
        <ele>1044</ele>
        <time>2009-07-07T13:39:49Z</time>
      </trkpt>
      <trkpt lat="44.40629" lon="3.46258">
        <ele>1044</ele>
        <time>2009-07-07T13:39:51Z</time>
      </trkpt>
      <trkpt lat="44.40613" lon="3.46208">
        <ele>1041</ele>
        <time>2009-07-07T13:39:58Z</time>
      </trkpt>
      <trkpt lat="44.40596" lon="3.46154">
        <ele>1039</ele>
        <time>2009-07-07T13:40:05Z</time>
      </trkpt>
      <trkpt lat="44.40587" lon="3.46135">
        <ele>1039</ele>
        <time>2009-07-07T13:40:08Z</time>
      </trkpt>
      <trkpt lat="44.40536" lon="3.46088">
        <ele>1040</ele>
        <time>2009-07-07T13:40:20Z</time>
      </trkpt>
      <trkpt lat="44.40519" lon="3.4606">
        <ele>1041</ele>
        <time>2009-07-07T13:40:26Z</time>
      </trkpt>
      <trkpt lat="44.40514" lon="3.46044">
        <ele>1039</ele>
        <time>2009-07-07T13:40:29Z</time>
      </trkpt>
      <trkpt lat="44.40513" lon="3.46032">
        <ele>1039</ele>
        <time>2009-07-07T13:40:31Z</time>
      </trkpt>
      <trkpt lat="44.4052" lon="3.45964">
        <ele>1042</ele>
        <time>2009-07-07T13:40:45Z</time>
      </trkpt>
      <trkpt lat="44.40529" lon="3.45902">
        <ele>1045</ele>
        <time>2009-07-07T13:41:04Z</time>
      </trkpt>
      <trkpt lat="44.40537" lon="3.45842">
        <ele>1044</ele>
        <time>2009-07-07T13:41:17Z</time>
      </trkpt>
      <trkpt lat="44.40535" lon="3.4579">
        <ele>1045</ele>
        <time>2009-07-07T13:41:29Z</time>
      </trkpt>
      <trkpt lat="44.4053" lon="3.45724">
        <ele>1044</ele>
        <time>2009-07-07T13:41:42Z</time>
      </trkpt>
      <trkpt lat="44.40511" lon="3.45636">
        <ele>1043</ele>
        <time>2009-07-07T13:41:59Z</time>
      </trkpt>
      <trkpt lat="44.40504" lon="3.45597">
        <ele>1042</ele>
        <time>2009-07-07T13:42:06Z</time>
      </trkpt>
      <trkpt lat="44.40497" lon="3.45493">
        <ele>1042</ele>
        <time>2009-07-07T13:42:24Z</time>
      </trkpt>
      <trkpt lat="44.40488" lon="3.45424">
        <ele>1040</ele>
        <time>2009-07-07T13:42:38Z</time>
      </trkpt>
      <trkpt lat="44.40487" lon="3.45418">
        <ele>1041</ele>
        <time>2009-07-07T13:42:39Z</time>
      </trkpt>
      <trkpt lat="44.40485" lon="3.45367">
        <ele>1037</ele>
        <time>2009-07-07T13:42:47Z</time>
      </trkpt>
      <trkpt lat="44.40479" lon="3.45339">
        <ele>1035</ele>
        <time>2009-07-07T13:42:51Z</time>
      </trkpt>
      <trkpt lat="44.40475" lon="3.4531">
        <ele>1030</ele>
        <time>2009-07-07T13:42:55Z</time>
      </trkpt>
      <trkpt lat="44.40473" lon="3.45302">
        <ele>1031</ele>
        <time>2009-07-07T13:42:56Z</time>
      </trkpt>
      <trkpt lat="44.40467" lon="3.45251">
        <ele>1027</ele>
        <time>2009-07-07T13:43:02Z</time>
      </trkpt>
      <trkpt lat="44.40462" lon="3.45213">
        <ele>1026</ele>
        <time>2009-07-07T13:43:06Z</time>
      </trkpt>
      <trkpt lat="44.40462" lon="3.45183">
        <ele>1024</ele>
        <time>2009-07-07T13:43:09Z</time>
      </trkpt>
      <trkpt lat="44.40467" lon="3.45134">
        <ele>1023</ele>
        <time>2009-07-07T13:43:15Z</time>
      </trkpt>
      <trkpt lat="44.40466" lon="3.45106">
        <ele>1027</ele>
        <time>2009-07-07T13:43:20Z</time>
      </trkpt>
      <trkpt lat="44.4046" lon="3.45079">
        <ele>1027</ele>
        <time>2009-07-07T13:43:26Z</time>
      </trkpt>
      <trkpt lat="44.40454" lon="3.45064">
        <ele>1027</ele>
        <time>2009-07-07T13:43:29Z</time>
      </trkpt>
      <trkpt lat="44.4045" lon="3.45047">
        <ele>1026</ele>
        <time>2009-07-07T13:43:32Z</time>
      </trkpt>
      <trkpt lat="44.40448" lon="3.45034">
        <ele>1024</ele>
        <time>2009-07-07T13:43:34Z</time>
      </trkpt>
      <trkpt lat="44.40447" lon="3.45021">
        <ele>1025</ele>
        <time>2009-07-07T13:43:36Z</time>
      </trkpt>
      <trkpt lat="44.40445" lon="3.45007">
        <ele>1026</ele>
        <time>2009-07-07T13:43:38Z</time>
      </trkpt>
      <trkpt lat="44.40449" lon="3.4497">
        <ele>1027</ele>
        <time>2009-07-07T13:43:44Z</time>
      </trkpt>
      <trkpt lat="44.40474" lon="3.4492">
        <ele>1028</ele>
        <time>2009-07-07T13:43:58Z</time>
      </trkpt>
      <trkpt lat="44.40487" lon="3.44861">
        <ele>1028</ele>
        <time>2009-07-07T13:44:12Z</time>
      </trkpt>
      <trkpt lat="44.40476" lon="3.44826">
        <ele>1026</ele>
        <time>2009-07-07T13:44:20Z</time>
      </trkpt>
      <trkpt lat="44.40458" lon="3.44808">
        <ele>1024</ele>
        <time>2009-07-07T13:44:25Z</time>
      </trkpt>
      <trkpt lat="44.40439" lon="3.44784">
        <ele>1020</ele>
        <time>2009-07-07T13:44:30Z</time>
      </trkpt>
      <trkpt lat="44.40436" lon="3.44764">
        <ele>1017</ele>
        <time>2009-07-07T13:44:33Z</time>
      </trkpt>
      <trkpt lat="44.40436" lon="3.44689">
        <ele>1019</ele>
        <time>2009-07-07T13:44:44Z</time>
      </trkpt>
      <trkpt lat="44.4045" lon="3.44614">
        <ele>1019</ele>
        <time>2009-07-07T13:44:55Z</time>
      </trkpt>
      <trkpt lat="44.40468" lon="3.4458">
        <ele>1022</ele>
        <time>2009-07-07T13:45:03Z</time>
      </trkpt>
      <trkpt lat="44.40476" lon="3.44554">
        <ele>1024</ele>
        <time>2009-07-07T13:45:11Z</time>
      </trkpt>
      <trkpt lat="44.40463" lon="3.44552">
        <ele>1025</ele>
        <time>2009-07-07T13:45:21Z</time>
      </trkpt>
      <trkpt lat="44.40461" lon="3.44553">
        <ele>1025</ele>
        <time>2009-07-07T13:45:22Z</time>
      </trkpt>
      <trkpt lat="44.40449" lon="3.44559">
        <ele>1027</ele>
        <time>2009-07-07T13:45:28Z</time>
      </trkpt>
      <trkpt lat="44.40415" lon="3.44576">
        <ele>1029</ele>
        <time>2009-07-07T13:45:45Z</time>
      </trkpt>
      <trkpt lat="44.40389" lon="3.44598">
        <ele>1032</ele>
        <time>2009-07-07T13:45:59Z</time>
      </trkpt>
      <trkpt lat="44.40372" lon="3.44628">
        <ele>1035</ele>
        <time>2009-07-07T13:46:12Z</time>
      </trkpt>
      <trkpt lat="44.40364" lon="3.44644">
        <ele>1038</ele>
        <time>2009-07-07T13:46:19Z</time>
      </trkpt>
      <trkpt lat="44.40352" lon="3.4467">
        <ele>1041</ele>
        <time>2009-07-07T13:46:30Z</time>
      </trkpt>
      <trkpt lat="44.40351" lon="3.44672">
        <ele>1041</ele>
        <time>2009-07-07T13:46:31Z</time>
      </trkpt>
      <trkpt lat="44.40339" lon="3.44697">
        <ele>1044</ele>
        <time>2009-07-07T13:46:42Z</time>
      </trkpt>
      <trkpt lat="44.40335" lon="3.44712">
        <ele>1045</ele>
        <time>2009-07-07T13:46:48Z</time>
      </trkpt>
      <trkpt lat="44.40332" lon="3.44723">
        <ele>1045</ele>
        <time>2009-07-07T13:46:53Z</time>
      </trkpt>
      <trkpt lat="44.40329" lon="3.44757">
        <ele>1049</ele>
        <time>2009-07-07T13:47:05Z</time>
      </trkpt>
      <trkpt lat="44.40311" lon="3.44768">
        <ele>1052</ele>
        <time>2009-07-07T13:47:15Z</time>
      </trkpt>
      <trkpt lat="44.40274" lon="3.44767">
        <ele>1054</ele>
        <time>2009-07-07T13:47:31Z</time>
      </trkpt>
      <trkpt lat="44.40269" lon="3.4477">
        <ele>1055</ele>
        <time>2009-07-07T13:47:33Z</time>
      </trkpt>
      <trkpt lat="44.40213" lon="3.44798">
        <ele>1054</ele>
        <time>2009-07-07T13:47:53Z</time>
      </trkpt>
      <trkpt lat="44.40164" lon="3.44819">
        <ele>1054</ele>
        <time>2009-07-07T13:48:09Z</time>
      </trkpt>
      <trkpt lat="44.40123" lon="3.44836">
        <ele>1052</ele>
        <time>2009-07-07T13:48:18Z</time>
      </trkpt>
      <trkpt lat="44.40042" lon="3.44896">
        <ele>1052</ele>
        <time>2009-07-07T13:48:36Z</time>
      </trkpt>
      <trkpt lat="44.40035" lon="3.44904">
        <ele>1051</ele>
        <time>2009-07-07T13:48:38Z</time>
      </trkpt>
      <trkpt lat="44.4002" lon="3.44926">
        <ele>1051</ele>
        <time>2009-07-07T13:48:43Z</time>
      </trkpt>
      <trkpt lat="44.40009" lon="3.44949">
        <ele>1052</ele>
        <time>2009-07-07T13:48:48Z</time>
      </trkpt>
      <trkpt lat="44.39974" lon="3.45033">
        <ele>1053</ele>
        <time>2009-07-07T13:49:04Z</time>
      </trkpt>
      <trkpt lat="44.39969" lon="3.45113">
        <ele>1056</ele>
        <time>2009-07-07T13:49:18Z</time>
      </trkpt>
      <trkpt lat="44.39964" lon="3.45142">
        <ele>1055</ele>
        <time>2009-07-07T13:49:23Z</time>
      </trkpt>
      <trkpt lat="44.39962" lon="3.45181">
        <ele>1054</ele>
        <time>2009-07-07T13:49:30Z</time>
      </trkpt>
      <trkpt lat="44.39962" lon="3.45193">
        <ele>1053</ele>
        <time>2009-07-07T13:49:32Z</time>
      </trkpt>
      <trkpt lat="44.39951" lon="3.4522">
        <ele>1053</ele>
        <time>2009-07-07T13:49:37Z</time>
      </trkpt>
      <trkpt lat="44.39895" lon="3.45258">
        <ele>1050</ele>
        <time>2009-07-07T13:49:47Z</time>
      </trkpt>
      <trkpt lat="44.3985" lon="3.45288">
        <ele>1047</ele>
        <time>2009-07-07T13:49:53Z</time>
      </trkpt>
      <trkpt lat="44.39841" lon="3.45293">
        <ele>1044</ele>
        <time>2009-07-07T13:49:54Z</time>
      </trkpt>
      <trkpt lat="44.39816" lon="3.45316">
        <ele>1042</ele>
        <time>2009-07-07T13:49:57Z</time>
      </trkpt>
      <trkpt lat="44.39775" lon="3.45362">
        <ele>1039</ele>
        <time>2009-07-07T13:50:02Z</time>
      </trkpt>
      <trkpt lat="44.3976" lon="3.45381">
        <ele>1038</ele>
        <time>2009-07-07T13:50:04Z</time>
      </trkpt>
      <trkpt lat="44.39741" lon="3.45407">
        <ele>1035</ele>
        <time>2009-07-07T13:50:07Z</time>
      </trkpt>
      <trkpt lat="44.39735" lon="3.45417">
        <ele>1034</ele>
        <time>2009-07-07T13:50:08Z</time>
      </trkpt>
      <trkpt lat="44.39724" lon="3.45438">
        <ele>1033</ele>
        <time>2009-07-07T13:50:10Z</time>
      </trkpt>
      <trkpt lat="44.39693" lon="3.45466">
        <ele>1032</ele>
        <time>2009-07-07T13:50:15Z</time>
      </trkpt>
      <trkpt lat="44.39649" lon="3.45478">
        <ele>1026</ele>
        <time>2009-07-07T13:50:20Z</time>
      </trkpt>
      <trkpt lat="44.39598" lon="3.45493">
        <ele>1023</ele>
        <time>2009-07-07T13:50:25Z</time>
      </trkpt>
      <trkpt lat="44.39511" lon="3.45548">
        <ele>1022</ele>
        <time>2009-07-07T13:50:36Z</time>
      </trkpt>
      <trkpt lat="44.39421" lon="3.45601">
        <ele>1022</ele>
        <time>2009-07-07T13:50:51Z</time>
      </trkpt>
      <trkpt lat="44.39394" lon="3.45608">
        <ele>1026</ele>
        <time>2009-07-07T13:50:56Z</time>
      </trkpt>
      <trkpt lat="44.3938" lon="3.45613">
        <ele>1026</ele>
        <time>2009-07-07T13:50:59Z</time>
      </trkpt>
      <trkpt lat="44.39314" lon="3.45618">
        <ele>1030</ele>
        <time>2009-07-07T13:51:14Z</time>
      </trkpt>
      <trkpt lat="44.3931" lon="3.45618">
        <ele>1030</ele>
        <time>2009-07-07T13:51:15Z</time>
      </trkpt>
      <trkpt lat="44.39297" lon="3.45621">
        <ele>1032</ele>
        <time>2009-07-07T13:51:19Z</time>
      </trkpt>
      <trkpt lat="44.39242" lon="3.45634">
        <ele>1031</ele>
        <time>2009-07-07T13:51:36Z</time>
      </trkpt>
      <trkpt lat="44.39194" lon="3.45645">
        <ele>1031</ele>
        <time>2009-07-07T13:51:48Z</time>
      </trkpt>
      <trkpt lat="44.39164" lon="3.45654">
        <ele>1031</ele>
        <time>2009-07-07T13:51:55Z</time>
      </trkpt>
      <trkpt lat="44.39106" lon="3.4569">
        <ele>1032</ele>
        <time>2009-07-07T13:52:10Z</time>
      </trkpt>
      <trkpt lat="44.3909" lon="3.45709">
        <ele>1032</ele>
        <time>2009-07-07T13:52:15Z</time>
      </trkpt>
      <trkpt lat="44.3903" lon="3.45804">
        <ele>1033</ele>
        <time>2009-07-07T13:52:35Z</time>
      </trkpt>
      <trkpt lat="44.39008" lon="3.45805">
        <ele>1032</ele>
        <time>2009-07-07T13:52:41Z</time>
      </trkpt>
      <trkpt lat="44.38975" lon="3.45776">
        <ele>1028</ele>
        <time>2009-07-07T13:52:52Z</time>
      </trkpt>
      <trkpt lat="44.38953" lon="3.45736">
        <ele>1025</ele>
        <time>2009-07-07T13:52:59Z</time>
      </trkpt>
      <trkpt lat="44.3895" lon="3.45728">
        <ele>1024</ele>
        <time>2009-07-07T13:53:00Z</time>
      </trkpt>
      <trkpt lat="44.38937" lon="3.45686">
        <ele>1022</ele>
        <time>2009-07-07T13:53:05Z</time>
      </trkpt>
      <trkpt lat="44.38912" lon="3.45585">
        <ele>1018</ele>
        <time>2009-07-07T13:53:18Z</time>
      </trkpt>
      <trkpt lat="44.3891" lon="3.45577">
        <ele>1018</ele>
        <time>2009-07-07T13:53:19Z</time>
      </trkpt>
      <trkpt lat="44.38892" lon="3.45499">
        <ele>1018</ele>
        <time>2009-07-07T13:53:30Z</time>
      </trkpt>
      <trkpt lat="44.38873" lon="3.45418">
        <ele>1021</ele>
        <time>2009-07-07T13:53:43Z</time>
      </trkpt>
      <trkpt lat="44.38872" lon="3.45409">
        <ele>1023</ele>
        <time>2009-07-07T13:53:45Z</time>
      </trkpt>
      <trkpt lat="44.38868" lon="3.45388">
        <ele>1022</ele>
        <time>2009-07-07T13:53:57Z</time>
      </trkpt>
      <trkpt lat="44.38863" lon="3.45374">
        <ele>1021</ele>
        <time>2009-07-07T13:54:51Z</time>
      </trkpt>
      <trkpt lat="44.38853" lon="3.45339">
        <ele>1018</ele>
        <time>2009-07-07T13:55:01Z</time>
      </trkpt>
      <trkpt lat="44.38849" lon="3.45323">
        <ele>1019</ele>
        <time>2009-07-07T13:55:04Z</time>
      </trkpt>
      <trkpt lat="44.38841" lon="3.45278">
        <ele>1015</ele>
        <time>2009-07-07T13:55:11Z</time>
      </trkpt>
      <trkpt lat="44.38833" lon="3.4524">
        <ele>1011</ele>
        <time>2009-07-07T13:55:16Z</time>
      </trkpt>
      <trkpt lat="44.3883" lon="3.45231">
        <ele>1011</ele>
        <time>2009-07-07T13:55:17Z</time>
      </trkpt>
      <trkpt lat="44.38818" lon="3.45192">
        <ele>1008</ele>
        <time>2009-07-07T13:55:21Z</time>
      </trkpt>
      <trkpt lat="44.38803" lon="3.45148">
        <ele>1005</ele>
        <time>2009-07-07T13:55:25Z</time>
      </trkpt>
      <trkpt lat="44.38799" lon="3.45136">
        <ele>1003</ele>
        <time>2009-07-07T13:55:26Z</time>
      </trkpt>
      <trkpt lat="44.38751" lon="3.4505">
        <ele>1004</ele>
        <time>2009-07-07T13:55:36Z</time>
      </trkpt>
      <trkpt lat="44.38747" lon="3.45041">
        <ele>1003</ele>
        <time>2009-07-07T13:55:37Z</time>
      </trkpt>
      <trkpt lat="44.38718" lon="3.45013">
        <ele>1004</ele>
        <time>2009-07-07T13:55:43Z</time>
      </trkpt>
      <trkpt lat="44.38648" lon="3.44978">
        <ele>1006</ele>
        <time>2009-07-07T13:55:56Z</time>
      </trkpt>
      <trkpt lat="44.38627" lon="3.44966">
        <ele>1002</ele>
        <time>2009-07-07T13:56:00Z</time>
      </trkpt>
      <trkpt lat="44.38607" lon="3.44957">
        <ele>1003</ele>
        <time>2009-07-07T13:56:04Z</time>
      </trkpt>
      <trkpt lat="44.38591" lon="3.44939">
        <ele>1004</ele>
        <time>2009-07-07T13:56:08Z</time>
      </trkpt>
      <trkpt lat="44.38574" lon="3.44906">
        <ele>1004</ele>
        <time>2009-07-07T13:56:14Z</time>
      </trkpt>
      <trkpt lat="44.38559" lon="3.44865">
        <ele>1001</ele>
        <time>2009-07-07T13:56:20Z</time>
      </trkpt>
      <trkpt lat="44.3855" lon="3.44837">
        <ele>1001</ele>
        <time>2009-07-07T13:56:24Z</time>
      </trkpt>
      <trkpt lat="44.3854" lon="3.44804">
        <ele>999</ele>
        <time>2009-07-07T13:56:29Z</time>
      </trkpt>
      <trkpt lat="44.38516" lon="3.44761">
        <ele>1000</ele>
        <time>2009-07-07T13:56:36Z</time>
      </trkpt>
      <trkpt lat="44.3851" lon="3.44741">
        <ele>1000</ele>
        <time>2009-07-07T13:56:40Z</time>
      </trkpt>
      <trkpt lat="44.38511" lon="3.4472">
        <ele>1000</ele>
        <time>2009-07-07T13:56:53Z</time>
      </trkpt>
      <trkpt lat="44.38498" lon="3.44695">
        <ele>997</ele>
        <time>2009-07-07T13:57:06Z</time>
      </trkpt>
      <trkpt lat="44.38492" lon="3.44686">
        <ele>996</ele>
        <time>2009-07-07T13:57:08Z</time>
      </trkpt>
      <trkpt lat="44.38489" lon="3.4468">
        <ele>995</ele>
        <time>2009-07-07T13:57:09Z</time>
      </trkpt>
      <trkpt lat="44.3846" lon="3.44651">
        <ele>992</ele>
        <time>2009-07-07T13:57:16Z</time>
      </trkpt>
      <trkpt lat="44.38455" lon="3.44646">
        <ele>991</ele>
        <time>2009-07-07T13:57:17Z</time>
      </trkpt>
      <trkpt lat="44.38438" lon="3.44626">
        <ele>987</ele>
        <time>2009-07-07T13:57:21Z</time>
      </trkpt>
      <trkpt lat="44.38428" lon="3.44613">
        <ele>986</ele>
        <time>2009-07-07T13:57:23Z</time>
      </trkpt>
      <trkpt lat="44.38416" lon="3.44599">
        <ele>982</ele>
        <time>2009-07-07T13:57:25Z</time>
      </trkpt>
      <trkpt lat="44.38409" lon="3.44593">
        <ele>982</ele>
        <time>2009-07-07T13:57:26Z</time>
      </trkpt>
      <trkpt lat="44.38388" lon="3.44579">
        <ele>978</ele>
        <time>2009-07-07T13:57:29Z</time>
      </trkpt>
      <trkpt lat="44.38332" lon="3.44573">
        <ele>974</ele>
        <time>2009-07-07T13:57:36Z</time>
      </trkpt>
      <trkpt lat="44.38319" lon="3.44558">
        <ele>972</ele>
        <time>2009-07-07T13:57:38Z</time>
      </trkpt>
      <trkpt lat="44.38307" lon="3.4454">
        <ele>970</ele>
        <time>2009-07-07T13:57:40Z</time>
      </trkpt>
      <trkpt lat="44.38295" lon="3.4452">
        <ele>969</ele>
        <time>2009-07-07T13:57:42Z</time>
      </trkpt>
      <trkpt lat="44.38279" lon="3.44476">
        <ele>965</ele>
        <time>2009-07-07T13:57:46Z</time>
      </trkpt>
      <trkpt lat="44.38276" lon="3.44465">
        <ele>965</ele>
        <time>2009-07-07T13:57:47Z</time>
      </trkpt>
      <trkpt lat="44.38245" lon="3.44394">
        <ele>965</ele>
        <time>2009-07-07T13:57:55Z</time>
      </trkpt>
      <trkpt lat="44.3819" lon="3.44308">
        <ele>965</ele>
        <time>2009-07-07T13:58:08Z</time>
      </trkpt>
      <trkpt lat="44.3815" lon="3.44243">
        <ele>962</ele>
        <time>2009-07-07T13:58:18Z</time>
      </trkpt>
      <trkpt lat="44.38127" lon="3.44206">
        <ele>959</ele>
        <time>2009-07-07T13:58:23Z</time>
      </trkpt>
      <trkpt lat="44.38119" lon="3.4419">
        <ele>956</ele>
        <time>2009-07-07T13:58:25Z</time>
      </trkpt>
      <trkpt lat="44.38115" lon="3.44181">
        <ele>956</ele>
        <time>2009-07-07T13:58:26Z</time>
      </trkpt>
      <trkpt lat="44.38095" lon="3.44145">
        <ele>953</ele>
        <time>2009-07-07T13:58:30Z</time>
      </trkpt>
      <trkpt lat="44.38089" lon="3.44136">
        <ele>952</ele>
        <time>2009-07-07T13:58:31Z</time>
      </trkpt>
      <trkpt lat="44.38061" lon="3.44104">
        <ele>950</ele>
        <time>2009-07-07T13:58:35Z</time>
      </trkpt>
      <trkpt lat="44.38042" lon="3.44093">
        <ele>950</ele>
        <time>2009-07-07T13:58:42Z</time>
      </trkpt>
      <trkpt lat="44.38045" lon="3.44094">
        <ele>950</ele>
        <time>2009-07-07T13:59:17Z</time>
      </trkpt>
      <trkpt lat="44.38046" lon="3.44093">
        <ele>948</ele>
        <time>2009-07-07T13:59:24Z</time>
      </trkpt>
      <trkpt lat="44.38048" lon="3.44095">
        <ele>951</ele>
        <time>2009-07-07T14:00:34Z</time>
      </trkpt>
      <trkpt lat="44.38048" lon="3.44094">
        <ele>950</ele>
        <time>2009-07-07T14:01:18Z</time>
      </trkpt>
      <trkpt lat="44.3805" lon="3.44095">
        <ele>950</ele>
        <time>2009-07-07T14:03:37Z</time>
      </trkpt>
      <trkpt lat="44.38051" lon="3.44095">
        <ele>950</ele>
        <time>2009-07-07T14:03:41Z</time>
      </trkpt>
      <trkpt lat="44.38054" lon="3.44097">
        <ele>951</ele>
        <time>2009-07-07T14:03:53Z</time>
      </trkpt>
      <trkpt lat="44.38058" lon="3.44092">
        <ele>950</ele>
        <time>2009-07-07T14:03:58Z</time>
      </trkpt>
      <trkpt lat="44.38057" lon="3.44085">
        <ele>948</ele>
        <time>2009-07-07T14:04:01Z</time>
      </trkpt>
      <trkpt lat="44.3805" lon="3.44053">
        <ele>943</ele>
        <time>2009-07-07T14:04:06Z</time>
      </trkpt>
      <trkpt lat="44.38046" lon="3.44036">
        <ele>942</ele>
        <time>2009-07-07T14:04:08Z</time>
      </trkpt>
      <trkpt lat="44.38025" lon="3.43987">
        <ele>939</ele>
        <time>2009-07-07T14:04:13Z</time>
      </trkpt>
      <trkpt lat="44.38004" lon="3.43917">
        <ele>940</ele>
        <time>2009-07-07T14:04:23Z</time>
      </trkpt>
      <trkpt lat="44.37991" lon="3.43881">
        <ele>940</ele>
        <time>2009-07-07T14:04:29Z</time>
      </trkpt>
      <trkpt lat="44.37946" lon="3.43796">
        <ele>943</ele>
        <time>2009-07-07T14:04:46Z</time>
      </trkpt>
      <trkpt lat="44.37943" lon="3.43788">
        <ele>944</ele>
        <time>2009-07-07T14:04:48Z</time>
      </trkpt>
      <trkpt lat="44.3792" lon="3.43753">
        <ele>947</ele>
        <time>2009-07-07T14:04:59Z</time>
      </trkpt>
      <trkpt lat="44.37887" lon="3.43734">
        <ele>945</ele>
        <time>2009-07-07T14:05:09Z</time>
      </trkpt>
      <trkpt lat="44.37878" lon="3.43731">
        <ele>944</ele>
        <time>2009-07-07T14:05:11Z</time>
      </trkpt>
      <trkpt lat="44.37871" lon="3.43726">
        <ele>945</ele>
        <time>2009-07-07T14:05:13Z</time>
      </trkpt>
      <trkpt lat="44.37817" lon="3.43712">
        <ele>941</ele>
        <time>2009-07-07T14:05:27Z</time>
      </trkpt>
      <trkpt lat="44.37811" lon="3.43713">
        <ele>941</ele>
        <time>2009-07-07T14:05:28Z</time>
      </trkpt>
      <trkpt lat="44.37758" lon="3.43721">
        <ele>937</ele>
        <time>2009-07-07T14:05:37Z</time>
      </trkpt>
      <trkpt lat="44.37752" lon="3.43723">
        <ele>937</ele>
        <time>2009-07-07T14:05:38Z</time>
      </trkpt>
      <trkpt lat="44.37701" lon="3.43736">
        <ele>934</ele>
        <time>2009-07-07T14:05:47Z</time>
      </trkpt>
      <trkpt lat="44.37673" lon="3.43744">
        <ele>933</ele>
        <time>2009-07-07T14:05:53Z</time>
      </trkpt>
      <trkpt lat="44.37651" lon="3.43705">
        <ele>935</ele>
        <time>2009-07-07T14:06:06Z</time>
      </trkpt>
      <trkpt lat="44.37649" lon="3.43694">
        <ele>937</ele>
        <time>2009-07-07T14:06:09Z</time>
      </trkpt>
      <trkpt lat="44.37648" lon="3.4364">
        <ele>939</ele>
        <time>2009-07-07T14:06:22Z</time>
      </trkpt>
      <trkpt lat="44.37661" lon="3.43574">
        <ele>937</ele>
        <time>2009-07-07T14:06:36Z</time>
      </trkpt>
      <trkpt lat="44.37657" lon="3.43551">
        <ele>936</ele>
        <time>2009-07-07T14:06:40Z</time>
      </trkpt>
      <trkpt lat="44.37644" lon="3.43515">
        <ele>934</ele>
        <time>2009-07-07T14:06:45Z</time>
      </trkpt>
      <trkpt lat="44.37625" lon="3.43451">
        <ele>930</ele>
        <time>2009-07-07T14:06:53Z</time>
      </trkpt>
      <trkpt lat="44.37615" lon="3.434">
        <ele>927</ele>
        <time>2009-07-07T14:06:59Z</time>
      </trkpt>
      <trkpt lat="44.37613" lon="3.4339">
        <ele>926</ele>
        <time>2009-07-07T14:07:00Z</time>
      </trkpt>
      <trkpt lat="44.3761" lon="3.43345">
        <ele>925</ele>
        <time>2009-07-07T14:07:04Z</time>
      </trkpt>
      <trkpt lat="44.37627" lon="3.43248">
        <ele>925</ele>
        <time>2009-07-07T14:07:13Z</time>
      </trkpt>
      <trkpt lat="44.37638" lon="3.43219">
        <ele>926</ele>
        <time>2009-07-07T14:07:17Z</time>
      </trkpt>
      <trkpt lat="44.37644" lon="3.43189">
        <ele>928</ele>
        <time>2009-07-07T14:07:22Z</time>
      </trkpt>
      <trkpt lat="44.37649" lon="3.4317">
        <ele>929</ele>
        <time>2009-07-07T14:07:25Z</time>
      </trkpt>
      <trkpt lat="44.37678" lon="3.43113">
        <ele>930</ele>
        <time>2009-07-07T14:07:36Z</time>
      </trkpt>
      <trkpt lat="44.37736" lon="3.43067">
        <ele>934</ele>
        <time>2009-07-07T14:07:52Z</time>
      </trkpt>
      <trkpt lat="44.37793" lon="3.43011">
        <ele>932</ele>
        <time>2009-07-07T14:08:07Z</time>
      </trkpt>
      <trkpt lat="44.37799" lon="3.43001">
        <ele>931</ele>
        <time>2009-07-07T14:08:09Z</time>
      </trkpt>
      <trkpt lat="44.37804" lon="3.42992">
        <ele>934</ele>
        <time>2009-07-07T14:08:11Z</time>
      </trkpt>
      <trkpt lat="44.37805" lon="3.42988">
        <ele>934</ele>
        <time>2009-07-07T14:08:12Z</time>
      </trkpt>
      <trkpt lat="44.3781" lon="3.42973">
        <ele>931</ele>
        <time>2009-07-07T14:08:15Z</time>
      </trkpt>
      <trkpt lat="44.37815" lon="3.42955">
        <ele>929</ele>
        <time>2009-07-07T14:08:18Z</time>
      </trkpt>
      <trkpt lat="44.37828" lon="3.42932">
        <ele>927</ele>
        <time>2009-07-07T14:08:22Z</time>
      </trkpt>
      <trkpt lat="44.37837" lon="3.42919">
        <ele>923</ele>
        <time>2009-07-07T14:08:24Z</time>
      </trkpt>
      <trkpt lat="44.37873" lon="3.42887">
        <ele>919</ele>
        <time>2009-07-07T14:08:30Z</time>
      </trkpt>
      <trkpt lat="44.37884" lon="3.42879">
        <ele>922</ele>
        <time>2009-07-07T14:08:32Z</time>
      </trkpt>
      <trkpt lat="44.3789" lon="3.42873">
        <ele>922</ele>
        <time>2009-07-07T14:08:39Z</time>
      </trkpt>
      <trkpt lat="44.3789" lon="3.42873">
        <ele>922</ele>
        <time>2009-07-07T14:09:03Z</time>
      </trkpt>
      <trkpt lat="44.37889" lon="3.42851">
        <ele>920</ele>
        <time>2009-07-07T14:09:09Z</time>
      </trkpt>
      <trkpt lat="44.3789" lon="3.42828">
        <ele>917</ele>
        <time>2009-07-07T14:09:13Z</time>
      </trkpt>
      <trkpt lat="44.3789" lon="3.42815">
        <ele>915</ele>
        <time>2009-07-07T14:09:15Z</time>
      </trkpt>
      <trkpt lat="44.37887" lon="3.42801">
        <ele>914</ele>
        <time>2009-07-07T14:09:17Z</time>
      </trkpt>
      <trkpt lat="44.3788" lon="3.42772">
        <ele>913</ele>
        <time>2009-07-07T14:09:21Z</time>
      </trkpt>
      <trkpt lat="44.37876" lon="3.42729">
        <ele>914</ele>
        <time>2009-07-07T14:09:32Z</time>
      </trkpt>
      <trkpt lat="44.37877" lon="3.42726">
        <ele>914</ele>
        <time>2009-07-07T14:09:49Z</time>
      </trkpt>
      <trkpt lat="44.37884" lon="3.42703">
        <ele>911</ele>
        <time>2009-07-07T14:10:14Z</time>
      </trkpt>
      <trkpt lat="44.37886" lon="3.42693">
        <ele>911</ele>
        <time>2009-07-07T14:10:16Z</time>
      </trkpt>
      <trkpt lat="44.37885" lon="3.42674">
        <ele>907</ele>
        <time>2009-07-07T14:10:19Z</time>
      </trkpt>
      <trkpt lat="44.37884" lon="3.42659">
        <ele>905</ele>
        <time>2009-07-07T14:10:21Z</time>
      </trkpt>
      <trkpt lat="44.37885" lon="3.42643">
        <ele>903</ele>
        <time>2009-07-07T14:10:23Z</time>
      </trkpt>
      <trkpt lat="44.37885" lon="3.42624">
        <ele>902</ele>
        <time>2009-07-07T14:10:25Z</time>
      </trkpt>
      <trkpt lat="44.37885" lon="3.42604">
        <ele>898</ele>
        <time>2009-07-07T14:10:27Z</time>
      </trkpt>
      <trkpt lat="44.37882" lon="3.42573">
        <ele>893</ele>
        <time>2009-07-07T14:10:30Z</time>
      </trkpt>
      <trkpt lat="44.37873" lon="3.4254">
        <ele>886</ele>
        <time>2009-07-07T14:10:33Z</time>
      </trkpt>
      <trkpt lat="44.37865" lon="3.42516">
        <ele>881</ele>
        <time>2009-07-07T14:10:35Z</time>
      </trkpt>
      <trkpt lat="44.37858" lon="3.4249">
        <ele>880</ele>
        <time>2009-07-07T14:10:37Z</time>
      </trkpt>
      <trkpt lat="44.37847" lon="3.42452">
        <ele>881</ele>
        <time>2009-07-07T14:10:40Z</time>
      </trkpt>
      <trkpt lat="44.37828" lon="3.4241">
        <ele>880</ele>
        <time>2009-07-07T14:10:50Z</time>
      </trkpt>
      <trkpt lat="44.37824" lon="3.42407">
        <ele>880</ele>
        <time>2009-07-07T14:11:02Z</time>
      </trkpt>
      <trkpt lat="44.37828" lon="3.4241">
        <ele>879</ele>
        <time>2009-07-07T14:11:18Z</time>
      </trkpt>
      <trkpt lat="44.37833" lon="3.42423">
        <ele>880</ele>
        <time>2009-07-07T14:11:39Z</time>
      </trkpt>
      <trkpt lat="44.37834" lon="3.42429">
        <ele>880</ele>
        <time>2009-07-07T14:12:02Z</time>
      </trkpt>
      <trkpt lat="44.37837" lon="3.42442">
        <ele>881</ele>
        <time>2009-07-07T14:12:17Z</time>
      </trkpt>
      <trkpt lat="44.3784" lon="3.42446">
        <ele>881</ele>
        <time>2009-07-07T14:12:21Z</time>
      </trkpt>
      <trkpt lat="44.37842" lon="3.42453">
        <ele>882</ele>
        <time>2009-07-07T14:12:25Z</time>
      </trkpt>
      <trkpt lat="44.37848" lon="3.42467">
        <ele>883</ele>
        <time>2009-07-07T14:12:35Z</time>
      </trkpt>
      <trkpt lat="44.37847" lon="3.42469">
        <ele>884</ele>
        <time>2009-07-07T14:12:56Z</time>
      </trkpt>
      <trkpt lat="44.37849" lon="3.42461">
        <ele>884</ele>
        <time>2009-07-07T14:13:40Z</time>
      </trkpt>
      <trkpt lat="44.37852" lon="3.42461">
        <ele>883</ele>
        <time>2009-07-07T14:13:47Z</time>
      </trkpt>
      <trkpt lat="44.37855" lon="3.42459">
        <ele>881</ele>
        <time>2009-07-07T14:13:51Z</time>
      </trkpt>
      <trkpt lat="44.37857" lon="3.42467">
        <ele>881</ele>
        <time>2009-07-07T14:13:59Z</time>
      </trkpt>
      <trkpt lat="44.37862" lon="3.4248">
        <ele>879</ele>
        <time>2009-07-07T14:14:03Z</time>
      </trkpt>
      <trkpt lat="44.37871" lon="3.42497">
        <ele>879</ele>
        <time>2009-07-07T14:14:07Z</time>
      </trkpt>
      <trkpt lat="44.37883" lon="3.42509">
        <ele>877</ele>
        <time>2009-07-07T14:14:10Z</time>
      </trkpt>
      <trkpt lat="44.3789" lon="3.42515">
        <ele>876</ele>
        <time>2009-07-07T14:14:12Z</time>
      </trkpt>
      <trkpt lat="44.37895" lon="3.42521">
        <ele>874</ele>
        <time>2009-07-07T14:14:14Z</time>
      </trkpt>
      <trkpt lat="44.379" lon="3.4252">
        <ele>873</ele>
        <time>2009-07-07T14:14:16Z</time>
      </trkpt>
      <trkpt lat="44.37909" lon="3.42507">
        <ele>872</ele>
        <time>2009-07-07T14:14:22Z</time>
      </trkpt>
      <trkpt lat="44.37918" lon="3.42507">
        <ele>867</ele>
        <time>2009-07-07T14:14:24Z</time>
      </trkpt>
      <trkpt lat="44.37929" lon="3.42486">
        <ele>863</ele>
        <time>2009-07-07T14:14:29Z</time>
      </trkpt>
      <trkpt lat="44.37934" lon="3.42475">
        <ele>862</ele>
        <time>2009-07-07T14:14:31Z</time>
      </trkpt>
      <trkpt lat="44.37938" lon="3.42468">
        <ele>861</ele>
        <time>2009-07-07T14:14:39Z</time>
      </trkpt>
      <trkpt lat="44.3794" lon="3.42467">
        <ele>862</ele>
        <time>2009-07-07T14:15:06Z</time>
      </trkpt>
      <trkpt lat="44.37942" lon="3.42467">
        <ele>862</ele>
        <time>2009-07-07T14:15:34Z</time>
      </trkpt>
      <trkpt lat="44.37944" lon="3.42463">
        <ele>861</ele>
        <time>2009-07-07T14:15:58Z</time>
      </trkpt>
      <trkpt lat="44.37945" lon="3.42459">
        <ele>860</ele>
        <time>2009-07-07T14:16:11Z</time>
      </trkpt>
      <trkpt lat="44.3795" lon="3.42441">
        <ele>857</ele>
        <time>2009-07-07T14:16:15Z</time>
      </trkpt>
      <trkpt lat="44.37959" lon="3.4242">
        <ele>854</ele>
        <time>2009-07-07T14:16:19Z</time>
      </trkpt>
      <trkpt lat="44.37966" lon="3.42404">
        <ele>851</ele>
        <time>2009-07-07T14:16:23Z</time>
      </trkpt>
      <trkpt lat="44.37975" lon="3.42388">
        <ele>850</ele>
        <time>2009-07-07T14:16:32Z</time>
      </trkpt>
      <trkpt lat="44.37978" lon="3.42382">
        <ele>850</ele>
        <time>2009-07-07T14:17:00Z</time>
      </trkpt>
      <trkpt lat="44.37977" lon="3.42384">
        <ele>846</ele>
        <time>2009-07-07T14:17:14Z</time>
      </trkpt>
      <trkpt lat="44.37977" lon="3.42384">
        <ele>854</ele>
        <time>2009-07-07T14:17:15Z</time>
      </trkpt>
      <trkpt lat="44.37977" lon="3.42384">
        <ele>847</ele>
        <time>2009-07-07T14:17:16Z</time>
      </trkpt>
      <trkpt lat="44.37977" lon="3.42384">
        <ele>854</ele>
        <time>2009-07-07T14:17:17Z</time>
      </trkpt>
      <trkpt lat="44.37977" lon="3.42384">
        <ele>847</ele>
        <time>2009-07-07T14:17:18Z</time>
      </trkpt>
      <trkpt lat="44.37977" lon="3.42385">
        <ele>850</ele>
        <time>2009-07-07T14:17:19Z</time>
      </trkpt>
      <trkpt lat="44.37977" lon="3.42385">
        <ele>854</ele>
        <time>2009-07-07T14:17:20Z</time>
      </trkpt>
      <trkpt lat="44.37977" lon="3.42385">
        <ele>849</ele>
        <time>2009-07-07T14:17:21Z</time>
      </trkpt>
      <trkpt lat="44.37976" lon="3.42385">
        <ele>849</ele>
        <time>2009-07-07T14:17:22Z</time>
      </trkpt>
      <trkpt lat="44.37976" lon="3.42385">
        <ele>853</ele>
        <time>2009-07-07T14:17:24Z</time>
      </trkpt>
      <trkpt lat="44.37976" lon="3.42385">
        <ele>847</ele>
        <time>2009-07-07T14:17:25Z</time>
      </trkpt>
      <trkpt lat="44.37976" lon="3.42385">
        <ele>853</ele>
        <time>2009-07-07T14:17:26Z</time>
      </trkpt>
      <trkpt lat="44.37976" lon="3.42385">
        <ele>847</ele>
        <time>2009-07-07T14:17:27Z</time>
      </trkpt>
      <trkpt lat="44.37976" lon="3.42385">
        <ele>852</ele>
        <time>2009-07-07T14:17:28Z</time>
      </trkpt>
      <trkpt lat="44.37976" lon="3.42385">
        <ele>847</ele>
        <time>2009-07-07T14:17:29Z</time>
      </trkpt>
      <trkpt lat="44.37976" lon="3.42385">
        <ele>852</ele>
        <time>2009-07-07T14:17:30Z</time>
      </trkpt>
      <trkpt lat="44.37976" lon="3.42385">
        <ele>849</ele>
        <time>2009-07-07T14:17:31Z</time>
      </trkpt>
      <trkpt lat="44.37976" lon="3.42385">
        <ele>853</ele>
        <time>2009-07-07T14:17:32Z</time>
      </trkpt>
      <trkpt lat="44.37976" lon="3.42385">
        <ele>847</ele>
        <time>2009-07-07T14:17:33Z</time>
      </trkpt>
      <trkpt lat="44.37976" lon="3.42385">
        <ele>854</ele>
        <time>2009-07-07T14:17:34Z</time>
      </trkpt>
      <trkpt lat="44.37976" lon="3.42385">
        <ele>846</ele>
        <time>2009-07-07T14:17:35Z</time>
      </trkpt>
      <trkpt lat="44.37976" lon="3.42385">
        <ele>850</ele>
        <time>2009-07-07T14:17:36Z</time>
      </trkpt>
      <trkpt lat="44.37976" lon="3.42385">
        <ele>854</ele>
        <time>2009-07-07T14:17:37Z</time>
      </trkpt>
      <trkpt lat="44.37976" lon="3.42385">
        <ele>850</ele>
        <time>2009-07-07T14:17:38Z</time>
      </trkpt>
      <trkpt lat="44.37978" lon="3.42388">
        <ele>849</ele>
        <time>2009-07-07T14:18:56Z</time>
      </trkpt>
      <trkpt lat="44.37982" lon="3.42377">
        <ele>847</ele>
        <time>2009-07-07T14:19:18Z</time>
      </trkpt>
      <trkpt lat="44.37994" lon="3.42353">
        <ele>844</ele>
        <time>2009-07-07T14:19:24Z</time>
      </trkpt>
      <trkpt lat="44.37999" lon="3.42345">
        <ele>843</ele>
        <time>2009-07-07T14:19:26Z</time>
      </trkpt>
      <trkpt lat="44.38002" lon="3.42343">
        <ele>844</ele>
        <time>2009-07-07T14:19:27Z</time>
      </trkpt>
      <trkpt lat="44.38003" lon="3.4234">
        <ele>842</ele>
        <time>2009-07-07T14:19:29Z</time>
      </trkpt>
      <trkpt lat="44.3799" lon="3.42345">
        <ele>840</ele>
        <time>2009-07-07T14:19:33Z</time>
      </trkpt>
      <trkpt lat="44.37979" lon="3.42351">
        <ele>838</ele>
        <time>2009-07-07T14:19:36Z</time>
      </trkpt>
      <trkpt lat="44.37975" lon="3.42355">
        <ele>836</ele>
        <time>2009-07-07T14:19:38Z</time>
      </trkpt>
      <trkpt lat="44.37979" lon="3.42337">
        <ele>832</ele>
        <time>2009-07-07T14:19:44Z</time>
      </trkpt>
      <trkpt lat="44.37981" lon="3.42332">
        <ele>832</ele>
        <time>2009-07-07T14:19:45Z</time>
      </trkpt>
      <trkpt lat="44.37987" lon="3.42319">
        <ele>829</ele>
        <time>2009-07-07T14:19:48Z</time>
      </trkpt>
      <trkpt lat="44.37994" lon="3.42307">
        <ele>826</ele>
        <time>2009-07-07T14:19:52Z</time>
      </trkpt>
      <trkpt lat="44.37983" lon="3.42309">
        <ele>823</ele>
        <time>2009-07-07T14:19:56Z</time>
      </trkpt>
      <trkpt lat="44.3798" lon="3.42311">
        <ele>823</ele>
        <time>2009-07-07T14:19:57Z</time>
      </trkpt>
      <trkpt lat="44.37972" lon="3.42314">
        <ele>821</ele>
        <time>2009-07-07T14:19:59Z</time>
      </trkpt>
      <trkpt lat="44.37964" lon="3.42317">
        <ele>818</ele>
        <time>2009-07-07T14:20:02Z</time>
      </trkpt>
      <trkpt lat="44.37961" lon="3.42314">
        <ele>818</ele>
        <time>2009-07-07T14:20:05Z</time>
      </trkpt>
      <trkpt lat="44.37967" lon="3.42298">
        <ele>816</ele>
        <time>2009-07-07T14:20:09Z</time>
      </trkpt>
      <trkpt lat="44.37968" lon="3.42293">
        <ele>815</ele>
        <time>2009-07-07T14:20:11Z</time>
      </trkpt>
      <trkpt lat="44.37957" lon="3.42297">
        <ele>811</ele>
        <time>2009-07-07T14:20:16Z</time>
      </trkpt>
      <trkpt lat="44.37955" lon="3.42299">
        <ele>810</ele>
        <time>2009-07-07T14:20:17Z</time>
      </trkpt>
      <trkpt lat="44.37946" lon="3.42304">
        <ele>808</ele>
        <time>2009-07-07T14:20:21Z</time>
      </trkpt>
      <trkpt lat="44.37942" lon="3.42308">
        <ele>807</ele>
        <time>2009-07-07T14:20:31Z</time>
      </trkpt>
      <trkpt lat="44.37939" lon="3.42306">
        <ele>805</ele>
        <time>2009-07-07T14:20:54Z</time>
      </trkpt>
      <trkpt lat="44.37936" lon="3.423">
        <ele>803</ele>
        <time>2009-07-07T14:21:06Z</time>
      </trkpt>
      <trkpt lat="44.37937" lon="3.42297">
        <ele>802</ele>
        <time>2009-07-07T14:21:10Z</time>
      </trkpt>
      <trkpt lat="44.37937" lon="3.42292">
        <ele>801</ele>
        <time>2009-07-07T14:21:13Z</time>
      </trkpt>
      <trkpt lat="44.37932" lon="3.42282">
        <ele>800</ele>
        <time>2009-07-07T14:21:27Z</time>
      </trkpt>
      <trkpt lat="44.3793" lon="3.42281">
        <ele>799</ele>
        <time>2009-07-07T14:21:57Z</time>
      </trkpt>
      <trkpt lat="44.37932" lon="3.42279">
        <ele>801</ele>
        <time>2009-07-07T14:22:31Z</time>
      </trkpt>
      <trkpt lat="44.37931" lon="3.42278">
        <ele>800</ele>
        <time>2009-07-07T14:22:42Z</time>
      </trkpt>
      <trkpt lat="44.37922" lon="3.42253">
        <ele>797</ele>
        <time>2009-07-07T14:22:50Z</time>
      </trkpt>
      <trkpt lat="44.37912" lon="3.42224">
        <ele>796</ele>
        <time>2009-07-07T14:22:55Z</time>
      </trkpt>
      <trkpt lat="44.37902" lon="3.42206">
        <ele>793</ele>
        <time>2009-07-07T14:22:58Z</time>
      </trkpt>
      <trkpt lat="44.37874" lon="3.42169">
        <ele>788</ele>
        <time>2009-07-07T14:23:08Z</time>
      </trkpt>
      <trkpt lat="44.37867" lon="3.42155">
        <ele>787</ele>
        <time>2009-07-07T14:23:11Z</time>
      </trkpt>
      <trkpt lat="44.37865" lon="3.4215">
        <ele>786</ele>
        <time>2009-07-07T14:23:12Z</time>
      </trkpt>
      <trkpt lat="44.37854" lon="3.42129">
        <ele>785</ele>
        <time>2009-07-07T14:23:16Z</time>
      </trkpt>
      <trkpt lat="44.37838" lon="3.42095">
        <ele>780</ele>
        <time>2009-07-07T14:23:21Z</time>
      </trkpt>
      <trkpt lat="44.37815" lon="3.42061">
        <ele>777</ele>
        <time>2009-07-07T14:23:26Z</time>
      </trkpt>
      <trkpt lat="44.37809" lon="3.42055">
        <ele>777</ele>
        <time>2009-07-07T14:23:27Z</time>
      </trkpt>
      <trkpt lat="44.37791" lon="3.4204">
        <ele>779</ele>
        <time>2009-07-07T14:23:32Z</time>
      </trkpt>
      <trkpt lat="44.37756" lon="3.42027">
        <ele>782</ele>
        <time>2009-07-07T14:23:44Z</time>
      </trkpt>
      <trkpt lat="44.37725" lon="3.42018">
        <ele>784</ele>
        <time>2009-07-07T14:23:55Z</time>
      </trkpt>
      <trkpt lat="44.37692" lon="3.42012">
        <ele>786</ele>
        <time>2009-07-07T14:24:08Z</time>
      </trkpt>
      <trkpt lat="44.37664" lon="3.42">
        <ele>790</ele>
        <time>2009-07-07T14:24:20Z</time>
      </trkpt>
      <trkpt lat="44.37632" lon="3.41984">
        <ele>792</ele>
        <time>2009-07-07T14:24:34Z</time>
      </trkpt>
      <trkpt lat="44.37596" lon="3.41986">
        <ele>795</ele>
        <time>2009-07-07T14:24:47Z</time>
      </trkpt>
      <trkpt lat="44.37557" lon="3.41994">
        <ele>799</ele>
        <time>2009-07-07T14:25:03Z</time>
      </trkpt>
      <trkpt lat="44.37529" lon="3.42003">
        <ele>801</ele>
        <time>2009-07-07T14:25:16Z</time>
      </trkpt>
      <trkpt lat="44.37498" lon="3.4201">
        <ele>803</ele>
        <time>2009-07-07T14:25:31Z</time>
      </trkpt>
      <trkpt lat="44.37467" lon="3.42014">
        <ele>806</ele>
        <time>2009-07-07T14:25:46Z</time>
      </trkpt>
      <trkpt lat="44.3744" lon="3.42025">
        <ele>809</ele>
        <time>2009-07-07T14:25:59Z</time>
      </trkpt>
      <trkpt lat="44.3742" lon="3.42037">
        <ele>812</ele>
        <time>2009-07-07T14:26:10Z</time>
      </trkpt>
      <trkpt lat="44.37411" lon="3.42042">
        <ele>813</ele>
        <time>2009-07-07T14:26:16Z</time>
      </trkpt>
      <trkpt lat="44.37408" lon="3.42037">
        <ele>812</ele>
        <time>2009-07-07T14:26:37Z</time>
      </trkpt>
      <trkpt lat="44.37393" lon="3.4203">
        <ele>815</ele>
        <time>2009-07-07T14:26:57Z</time>
      </trkpt>
      <trkpt lat="44.37355" lon="3.4203">
        <ele>818</ele>
        <time>2009-07-07T14:27:16Z</time>
      </trkpt>
      <trkpt lat="44.37321" lon="3.42032">
        <ele>820</ele>
        <time>2009-07-07T14:27:31Z</time>
      </trkpt>
      <trkpt lat="44.37297" lon="3.42037">
        <ele>823</ele>
        <time>2009-07-07T14:27:41Z</time>
      </trkpt>
      <trkpt lat="44.37271" lon="3.42041">
        <ele>826</ele>
        <time>2009-07-07T14:27:54Z</time>
      </trkpt>
      <trkpt lat="44.37243" lon="3.42049">
        <ele>828</ele>
        <time>2009-07-07T14:28:08Z</time>
      </trkpt>
      <trkpt lat="44.37215" lon="3.42062">
        <ele>831</ele>
        <time>2009-07-07T14:28:23Z</time>
      </trkpt>
      <trkpt lat="44.37188" lon="3.42068">
        <ele>833</ele>
        <time>2009-07-07T14:28:37Z</time>
      </trkpt>
      <trkpt lat="44.37148" lon="3.42058">
        <ele>836</ele>
        <time>2009-07-07T14:28:57Z</time>
      </trkpt>
      <trkpt lat="44.37116" lon="3.42033">
        <ele>838</ele>
        <time>2009-07-07T14:29:13Z</time>
      </trkpt>
      <trkpt lat="44.37088" lon="3.42017">
        <ele>841</ele>
        <time>2009-07-07T14:29:27Z</time>
      </trkpt>
      <trkpt lat="44.37077" lon="3.42021">
        <ele>842</ele>
        <time>2009-07-07T14:29:34Z</time>
      </trkpt>
      <trkpt lat="44.37074" lon="3.42054">
        <ele>843</ele>
        <time>2009-07-07T14:29:47Z</time>
      </trkpt>
      <trkpt lat="44.37074" lon="3.42056">
        <ele>842</ele>
        <time>2009-07-07T14:30:01Z</time>
      </trkpt>
      <trkpt lat="44.37074" lon="3.42062">
        <ele>842</ele>
        <time>2009-07-07T14:33:26Z</time>
      </trkpt>
      <trkpt lat="44.37075" lon="3.4207">
        <ele>843</ele>
        <time>2009-07-07T14:33:42Z</time>
      </trkpt>
      <trkpt lat="44.37068" lon="3.42106">
        <ele>843</ele>
        <time>2009-07-07T14:33:55Z</time>
      </trkpt>
      <trkpt lat="44.3707" lon="3.42152">
        <ele>847</ele>
        <time>2009-07-07T14:34:08Z</time>
      </trkpt>
      <trkpt lat="44.37072" lon="3.42207">
        <ele>849</ele>
        <time>2009-07-07T14:34:24Z</time>
      </trkpt>
      <trkpt lat="44.37062" lon="3.4224">
        <ele>850</ele>
        <time>2009-07-07T14:34:36Z</time>
      </trkpt>
      <trkpt lat="44.37064" lon="3.42271">
        <ele>851</ele>
        <time>2009-07-07T14:34:47Z</time>
      </trkpt>
      <trkpt lat="44.37075" lon="3.42301">
        <ele>849</ele>
        <time>2009-07-07T14:34:56Z</time>
      </trkpt>
      <trkpt lat="44.37075" lon="3.42337">
        <ele>849</ele>
        <time>2009-07-07T14:35:04Z</time>
      </trkpt>
      <trkpt lat="44.37061" lon="3.42364">
        <ele>852</ele>
        <time>2009-07-07T14:35:13Z</time>
      </trkpt>
      <trkpt lat="44.37066" lon="3.42413">
        <ele>854</ele>
        <time>2009-07-07T14:35:26Z</time>
      </trkpt>
      <trkpt lat="44.3706" lon="3.42457">
        <ele>856</ele>
        <time>2009-07-07T14:35:38Z</time>
      </trkpt>
      <trkpt lat="44.3704" lon="3.42494">
        <ele>858</ele>
        <time>2009-07-07T14:35:51Z</time>
      </trkpt>
      <trkpt lat="44.37029" lon="3.42537">
        <ele>859</ele>
        <time>2009-07-07T14:36:05Z</time>
      </trkpt>
      <trkpt lat="44.37055" lon="3.42565">
        <ele>857</ele>
        <time>2009-07-07T14:36:18Z</time>
      </trkpt>
      <trkpt lat="44.37083" lon="3.42589">
        <ele>853</ele>
        <time>2009-07-07T14:36:29Z</time>
      </trkpt>
      <trkpt lat="44.37106" lon="3.42617">
        <ele>851</ele>
        <time>2009-07-07T14:36:39Z</time>
      </trkpt>
      <trkpt lat="44.37111" lon="3.42635">
        <ele>849</ele>
        <time>2009-07-07T14:36:43Z</time>
      </trkpt>
      <trkpt lat="44.37119" lon="3.4266">
        <ele>847</ele>
        <time>2009-07-07T14:36:50Z</time>
      </trkpt>
      <trkpt lat="44.37122" lon="3.42667">
        <ele>846</ele>
        <time>2009-07-07T14:36:52Z</time>
      </trkpt>
      <trkpt lat="44.37128" lon="3.42691">
        <ele>845</ele>
        <time>2009-07-07T14:36:59Z</time>
      </trkpt>
      <trkpt lat="44.37123" lon="3.42716">
        <ele>844</ele>
        <time>2009-07-07T14:37:04Z</time>
      </trkpt>
      <trkpt lat="44.37129" lon="3.42727">
        <ele>843</ele>
        <time>2009-07-07T14:37:13Z</time>
      </trkpt>
      <trkpt lat="44.37132" lon="3.42727">
        <ele>843</ele>
        <time>2009-07-07T14:37:15Z</time>
      </trkpt>
      <trkpt lat="44.37126" lon="3.42776">
        <ele>841</ele>
        <time>2009-07-07T14:37:28Z</time>
      </trkpt>
      <trkpt lat="44.37115" lon="3.42824">
        <ele>838</ele>
        <time>2009-07-07T14:37:40Z</time>
      </trkpt>
      <trkpt lat="44.37113" lon="3.42848">
        <ele>837</ele>
        <time>2009-07-07T14:37:45Z</time>
      </trkpt>
      <trkpt lat="44.37112" lon="3.42859">
        <ele>836</ele>
        <time>2009-07-07T14:37:47Z</time>
      </trkpt>
      <trkpt lat="44.37114" lon="3.42902">
        <ele>833</ele>
        <time>2009-07-07T14:37:54Z</time>
      </trkpt>
      <trkpt lat="44.37122" lon="3.42927">
        <ele>831</ele>
        <time>2009-07-07T14:37:58Z</time>
      </trkpt>
      <trkpt lat="44.37139" lon="3.42956">
        <ele>830</ele>
        <time>2009-07-07T14:38:04Z</time>
      </trkpt>
      <trkpt lat="44.37152" lon="3.42973">
        <ele>829</ele>
        <time>2009-07-07T14:38:08Z</time>
      </trkpt>
      <trkpt lat="44.37164" lon="3.43014">
        <ele>826</ele>
        <time>2009-07-07T14:38:18Z</time>
      </trkpt>
      <trkpt lat="44.37165" lon="3.43021">
        <ele>826</ele>
        <time>2009-07-07T14:38:20Z</time>
      </trkpt>
      <trkpt lat="44.37162" lon="3.43026">
        <ele>824</ele>
        <time>2009-07-07T14:38:35Z</time>
      </trkpt>
      <trkpt lat="44.37165" lon="3.43024">
        <ele>824</ele>
        <time>2009-07-07T14:39:36Z</time>
      </trkpt>
      <trkpt lat="44.37165" lon="3.43014">
        <ele>824</ele>
        <time>2009-07-07T14:40:00Z</time>
      </trkpt>
      <trkpt lat="44.37165" lon="3.43013">
        <ele>823</ele>
        <time>2009-07-07T14:40:01Z</time>
      </trkpt>
      <trkpt lat="44.37167" lon="3.43008">
        <ele>824</ele>
        <time>2009-07-07T14:40:13Z</time>
      </trkpt>
      <trkpt lat="44.37165" lon="3.43007">
        <ele>823</ele>
        <time>2009-07-07T14:40:17Z</time>
      </trkpt>
      <trkpt lat="44.37158" lon="3.42995">
        <ele>821</ele>
        <time>2009-07-07T14:40:23Z</time>
      </trkpt>
      <trkpt lat="44.37145" lon="3.42988">
        <ele>819</ele>
        <time>2009-07-07T14:40:26Z</time>
      </trkpt>
      <trkpt lat="44.37136" lon="3.42983">
        <ele>818</ele>
        <time>2009-07-07T14:40:28Z</time>
      </trkpt>
      <trkpt lat="44.37127" lon="3.42978">
        <ele>817</ele>
        <time>2009-07-07T14:40:30Z</time>
      </trkpt>
      <trkpt lat="44.37122" lon="3.42976">
        <ele>817</ele>
        <time>2009-07-07T14:40:31Z</time>
      </trkpt>
      <trkpt lat="44.37113" lon="3.42969">
        <ele>816</ele>
        <time>2009-07-07T14:40:33Z</time>
      </trkpt>
      <trkpt lat="44.37089" lon="3.42912">
        <ele>812</ele>
        <time>2009-07-07T14:40:43Z</time>
      </trkpt>
      <trkpt lat="44.3709" lon="3.42904">
        <ele>812</ele>
        <time>2009-07-07T14:40:44Z</time>
      </trkpt>
      <trkpt lat="44.37087" lon="3.42861">
        <ele>808</ele>
        <time>2009-07-07T14:40:50Z</time>
      </trkpt>
      <trkpt lat="44.3708" lon="3.42835">
        <ele>805</ele>
        <time>2009-07-07T14:40:57Z</time>
      </trkpt>
      <trkpt lat="44.3708" lon="3.42828">
        <ele>804</ele>
        <time>2009-07-07T14:41:04Z</time>
      </trkpt>
      <trkpt lat="44.37079" lon="3.42824">
        <ele>803</ele>
        <time>2009-07-07T14:41:06Z</time>
      </trkpt>
      <trkpt lat="44.37077" lon="3.42819">
        <ele>803</ele>
        <time>2009-07-07T14:41:24Z</time>
      </trkpt>
      <trkpt lat="44.37077" lon="3.4281">
        <ele>801</ele>
        <time>2009-07-07T14:41:35Z</time>
      </trkpt>
      <trkpt lat="44.37077" lon="3.42805">
        <ele>800</ele>
        <time>2009-07-07T14:41:42Z</time>
      </trkpt>
      <trkpt lat="44.37076" lon="3.42802">
        <ele>799</ele>
        <time>2009-07-07T14:41:45Z</time>
      </trkpt>
      <trkpt lat="44.37075" lon="3.42795">
        <ele>799</ele>
        <time>2009-07-07T14:42:03Z</time>
      </trkpt>
      <trkpt lat="44.37073" lon="3.42792">
        <ele>798</ele>
        <time>2009-07-07T14:42:16Z</time>
      </trkpt>
      <trkpt lat="44.37072" lon="3.42784">
        <ele>797</ele>
        <time>2009-07-07T14:42:20Z</time>
      </trkpt>
      <trkpt lat="44.3707" lon="3.42772">
        <ele>795</ele>
        <time>2009-07-07T14:42:24Z</time>
      </trkpt>
      <trkpt lat="44.37068" lon="3.42763">
        <ele>792</ele>
        <time>2009-07-07T14:42:27Z</time>
      </trkpt>
      <trkpt lat="44.37068" lon="3.4276">
        <ele>792</ele>
        <time>2009-07-07T14:42:28Z</time>
      </trkpt>
      <trkpt lat="44.37066" lon="3.42747">
        <ele>788</ele>
        <time>2009-07-07T14:42:32Z</time>
      </trkpt>
      <trkpt lat="44.37066" lon="3.4274">
        <ele>786</ele>
        <time>2009-07-07T14:42:34Z</time>
      </trkpt>
      <trkpt lat="44.3706" lon="3.4273">
        <ele>787</ele>
        <time>2009-07-07T14:42:46Z</time>
      </trkpt>
      <trkpt lat="44.37057" lon="3.42727">
        <ele>786</ele>
        <time>2009-07-07T14:42:49Z</time>
      </trkpt>
      <trkpt lat="44.37053" lon="3.42723">
        <ele>787</ele>
        <time>2009-07-07T14:42:55Z</time>
      </trkpt>
      <trkpt lat="44.37047" lon="3.42714">
        <ele>786</ele>
        <time>2009-07-07T14:43:07Z</time>
      </trkpt>
      <trkpt lat="44.37046" lon="3.42709">
        <ele>785</ele>
        <time>2009-07-07T14:43:18Z</time>
      </trkpt>
      <trkpt lat="44.37041" lon="3.42705">
        <ele>785</ele>
        <time>2009-07-07T14:43:32Z</time>
      </trkpt>
      <trkpt lat="44.37036" lon="3.427">
        <ele>783</ele>
        <time>2009-07-07T14:43:39Z</time>
      </trkpt>
      <trkpt lat="44.37032" lon="3.42697">
        <ele>784</ele>
        <time>2009-07-07T14:43:44Z</time>
      </trkpt>
      <trkpt lat="44.37028" lon="3.42695">
        <ele>784</ele>
        <time>2009-07-07T14:43:50Z</time>
      </trkpt>
      <trkpt lat="44.37026" lon="3.42693">
        <ele>783</ele>
        <time>2009-07-07T14:43:52Z</time>
      </trkpt>
      <trkpt lat="44.37015" lon="3.42689">
        <ele>783</ele>
        <time>2009-07-07T14:44:07Z</time>
      </trkpt>
      <trkpt lat="44.37013" lon="3.42679">
        <ele>781</ele>
        <time>2009-07-07T14:44:18Z</time>
      </trkpt>
      <trkpt lat="44.37004" lon="3.42672">
        <ele>781</ele>
        <time>2009-07-07T14:44:34Z</time>
      </trkpt>
      <trkpt lat="44.36987" lon="3.42662">
        <ele>782</ele>
        <time>2009-07-07T14:44:47Z</time>
      </trkpt>
      <trkpt lat="44.36968" lon="3.42648">
        <ele>782</ele>
        <time>2009-07-07T14:44:58Z</time>
      </trkpt>
      <trkpt lat="44.36958" lon="3.42607">
        <ele>783</ele>
        <time>2009-07-07T14:45:11Z</time>
      </trkpt>
      <trkpt lat="44.36937" lon="3.42589">
        <ele>786</ele>
        <time>2009-07-07T14:45:21Z</time>
      </trkpt>
      <trkpt lat="44.36923" lon="3.42574">
        <ele>788</ele>
        <time>2009-07-07T14:45:34Z</time>
      </trkpt>
      <trkpt lat="44.36922" lon="3.42574">
        <ele>787</ele>
        <time>2009-07-07T14:45:36Z</time>
      </trkpt>
      <trkpt lat="44.36913" lon="3.42566">
        <ele>788</ele>
        <time>2009-07-07T14:45:48Z</time>
      </trkpt>
      <trkpt lat="44.36907" lon="3.42559">
        <ele>790</ele>
        <time>2009-07-07T14:45:51Z</time>
      </trkpt>
      <trkpt lat="44.36901" lon="3.42518">
        <ele>790</ele>
        <time>2009-07-07T14:46:03Z</time>
      </trkpt>
      <trkpt lat="44.36903" lon="3.42494">
        <ele>787</ele>
        <time>2009-07-07T14:46:11Z</time>
      </trkpt>
      <trkpt lat="44.36913" lon="3.42481">
        <ele>786</ele>
        <time>2009-07-07T14:46:23Z</time>
      </trkpt>
      <trkpt lat="44.36916" lon="3.42477">
        <ele>785</ele>
        <time>2009-07-07T14:46:38Z</time>
      </trkpt>
      <trkpt lat="44.36917" lon="3.42475">
        <ele>785</ele>
        <time>2009-07-07T14:46:43Z</time>
      </trkpt>
      <trkpt lat="44.36918" lon="3.42462">
        <ele>781</ele>
        <time>2009-07-07T14:46:48Z</time>
      </trkpt>
      <trkpt lat="44.36916" lon="3.4245">
        <ele>778</ele>
        <time>2009-07-07T14:46:52Z</time>
      </trkpt>
      <trkpt lat="44.36916" lon="3.42448">
        <ele>778</ele>
        <time>2009-07-07T14:46:53Z</time>
      </trkpt>
      <trkpt lat="44.36915" lon="3.42434">
        <ele>775</ele>
        <time>2009-07-07T14:46:58Z</time>
      </trkpt>
      <trkpt lat="44.36919" lon="3.42424">
        <ele>772</ele>
        <time>2009-07-07T14:47:01Z</time>
      </trkpt>
      <trkpt lat="44.36922" lon="3.42416">
        <ele>770</ele>
        <time>2009-07-07T14:47:03Z</time>
      </trkpt>
      <trkpt lat="44.36926" lon="3.42407">
        <ele>767</ele>
        <time>2009-07-07T14:47:06Z</time>
      </trkpt>
      <trkpt lat="44.36933" lon="3.42398">
        <ele>767</ele>
        <time>2009-07-07T14:47:16Z</time>
      </trkpt>
      <trkpt lat="44.36946" lon="3.42392">
        <ele>764</ele>
        <time>2009-07-07T14:47:26Z</time>
      </trkpt>
      <trkpt lat="44.36949" lon="3.42391">
        <ele>763</ele>
        <time>2009-07-07T14:47:27Z</time>
      </trkpt>
      <trkpt lat="44.36954" lon="3.42389">
        <ele>762</ele>
        <time>2009-07-07T14:47:30Z</time>
      </trkpt>
      <trkpt lat="44.36956" lon="3.42386">
        <ele>762</ele>
        <time>2009-07-07T14:47:33Z</time>
      </trkpt>
      <trkpt lat="44.36952" lon="3.42376">
        <ele>757</ele>
        <time>2009-07-07T14:47:38Z</time>
      </trkpt>
      <trkpt lat="44.36952" lon="3.42371">
        <ele>754</ele>
        <time>2009-07-07T14:47:40Z</time>
      </trkpt>
      <trkpt lat="44.36952" lon="3.4237">
        <ele>754</ele>
        <time>2009-07-07T14:47:41Z</time>
      </trkpt>
      <trkpt lat="44.36951" lon="3.42363">
        <ele>750</ele>
        <time>2009-07-07T14:47:54Z</time>
      </trkpt>
      <trkpt lat="44.36951" lon="3.42361">
        <ele>750</ele>
        <time>2009-07-07T14:47:55Z</time>
      </trkpt>
      <trkpt lat="44.36948" lon="3.42354">
        <ele>747</ele>
        <time>2009-07-07T14:48:07Z</time>
      </trkpt>
      <trkpt lat="44.36944" lon="3.42354">
        <ele>745</ele>
        <time>2009-07-07T14:48:14Z</time>
      </trkpt>
      <trkpt lat="44.36942" lon="3.42351">
        <ele>743</ele>
        <time>2009-07-07T14:48:18Z</time>
      </trkpt>
      <trkpt lat="44.36942" lon="3.42347">
        <ele>742</ele>
        <time>2009-07-07T14:48:36Z</time>
      </trkpt>
      <trkpt lat="44.36942" lon="3.42333">
        <ele>740</ele>
        <time>2009-07-07T14:48:56Z</time>
      </trkpt>
      <trkpt lat="44.36941" lon="3.42322">
        <ele>737</ele>
        <time>2009-07-07T14:49:08Z</time>
      </trkpt>
      <trkpt lat="44.36939" lon="3.4231">
        <ele>737</ele>
        <time>2009-07-07T14:49:18Z</time>
      </trkpt>
      <trkpt lat="44.36938" lon="3.42305">
        <ele>735</ele>
        <time>2009-07-07T14:49:24Z</time>
      </trkpt>
      <trkpt lat="44.36935" lon="3.42289">
        <ele>734</ele>
        <time>2009-07-07T14:49:34Z</time>
      </trkpt>
      <trkpt lat="44.36928" lon="3.42274">
        <ele>730</ele>
        <time>2009-07-07T14:49:41Z</time>
      </trkpt>
      <trkpt lat="44.36926" lon="3.42263">
        <ele>728</ele>
        <time>2009-07-07T14:49:44Z</time>
      </trkpt>
      <trkpt lat="44.3692" lon="3.42248">
        <ele>729</ele>
        <time>2009-07-07T14:49:50Z</time>
      </trkpt>
      <trkpt lat="44.36902" lon="3.42225">
        <ele>728</ele>
        <time>2009-07-07T14:50:03Z</time>
      </trkpt>
      <trkpt lat="44.36897" lon="3.4222">
        <ele>727</ele>
        <time>2009-07-07T14:50:07Z</time>
      </trkpt>
      <trkpt lat="44.36896" lon="3.42214">
        <ele>725</ele>
        <time>2009-07-07T14:50:09Z</time>
      </trkpt>
      <trkpt lat="44.36897" lon="3.42203">
        <ele>723</ele>
        <time>2009-07-07T14:50:13Z</time>
      </trkpt>
      <trkpt lat="44.36903" lon="3.42168">
        <ele>720</ele>
        <time>2009-07-07T14:50:24Z</time>
      </trkpt>
      <trkpt lat="44.36901" lon="3.42158">
        <ele>718</ele>
        <time>2009-07-07T14:50:28Z</time>
      </trkpt>
      <trkpt lat="44.369" lon="3.42152">
        <ele>717</ele>
        <time>2009-07-07T14:50:30Z</time>
      </trkpt>
      <trkpt lat="44.36898" lon="3.42143">
        <ele>713</ele>
        <time>2009-07-07T14:50:33Z</time>
      </trkpt>
      <trkpt lat="44.36897" lon="3.4214">
        <ele>713</ele>
        <time>2009-07-07T14:50:34Z</time>
      </trkpt>
      <trkpt lat="44.3689" lon="3.4212">
        <ele>709</ele>
        <time>2009-07-07T14:50:40Z</time>
      </trkpt>
      <trkpt lat="44.36887" lon="3.42082">
        <ele>708</ele>
        <time>2009-07-07T14:50:46Z</time>
      </trkpt>
      <trkpt lat="44.36881" lon="3.42059">
        <ele>705</ele>
        <time>2009-07-07T14:50:50Z</time>
      </trkpt>
      <trkpt lat="44.36868" lon="3.42034">
        <ele>701</ele>
        <time>2009-07-07T14:50:54Z</time>
      </trkpt>
      <trkpt lat="44.36864" lon="3.42027">
        <ele>701</ele>
        <time>2009-07-07T14:50:55Z</time>
      </trkpt>
      <trkpt lat="44.36865" lon="3.41983">
        <ele>701</ele>
        <time>2009-07-07T14:51:04Z</time>
      </trkpt>
      <trkpt lat="44.36869" lon="3.41969">
        <ele>699</ele>
        <time>2009-07-07T14:51:07Z</time>
      </trkpt>
      <trkpt lat="44.36873" lon="3.41959">
        <ele>698</ele>
        <time>2009-07-07T14:51:09Z</time>
      </trkpt>
      <trkpt lat="44.36875" lon="3.41955">
        <ele>700</ele>
        <time>2009-07-07T14:51:12Z</time>
      </trkpt>
      <trkpt lat="44.36877" lon="3.41955">
        <ele>699</ele>
        <time>2009-07-07T14:52:03Z</time>
      </trkpt>
      <trkpt lat="44.36876" lon="3.41955">
        <ele>699</ele>
        <time>2009-07-07T14:52:18Z</time>
      </trkpt>
      <trkpt lat="44.36877" lon="3.41955">
        <ele>697</ele>
        <time>2009-07-07T14:52:52Z</time>
      </trkpt>
      <trkpt lat="44.36876" lon="3.41956">
        <ele>698</ele>
        <time>2009-07-07T14:54:20Z</time>
      </trkpt>
      <trkpt lat="44.36878" lon="3.41956">
        <ele>695</ele>
        <time>2009-07-07T14:54:56Z</time>
      </trkpt>
      <trkpt lat="44.36875" lon="3.41954">
        <ele>698</ele>
        <time>2009-07-07T14:56:11Z</time>
      </trkpt>
      <trkpt lat="44.36877" lon="3.41952">
        <ele>694</ele>
        <time>2009-07-07T14:56:58Z</time>
      </trkpt>
      <trkpt lat="44.36879" lon="3.41953">
        <ele>696</ele>
        <time>2009-07-07T14:58:06Z</time>
      </trkpt>
      <trkpt lat="44.36876" lon="3.41953">
        <ele>693</ele>
        <time>2009-07-07T14:58:40Z</time>
      </trkpt>
      <trkpt lat="44.36876" lon="3.41926">
        <ele>691</ele>
        <time>2009-07-07T14:58:48Z</time>
      </trkpt>
      <trkpt lat="44.36876" lon="3.41905">
        <ele>687</ele>
        <time>2009-07-07T14:58:51Z</time>
      </trkpt>
      <trkpt lat="44.36872" lon="3.4187">
        <ele>684</ele>
        <time>2009-07-07T14:58:57Z</time>
      </trkpt>
      <trkpt lat="44.36867" lon="3.41852">
        <ele>679</ele>
        <time>2009-07-07T14:59:01Z</time>
      </trkpt>
      <trkpt lat="44.36862" lon="3.41829">
        <ele>675</ele>
        <time>2009-07-07T14:59:07Z</time>
      </trkpt>
      <trkpt lat="44.36858" lon="3.41809">
        <ele>672</ele>
        <time>2009-07-07T14:59:14Z</time>
      </trkpt>
      <trkpt lat="44.36858" lon="3.41808">
        <ele>672</ele>
        <time>2009-07-07T15:00:08Z</time>
      </trkpt>
      <trkpt lat="44.36853" lon="3.41797">
        <ele>669</ele>
        <time>2009-07-07T15:00:59Z</time>
      </trkpt>
      <trkpt lat="44.36849" lon="3.41787">
        <ele>669</ele>
        <time>2009-07-07T15:01:11Z</time>
      </trkpt>
      <trkpt lat="44.36845" lon="3.41784">
        <ele>668</ele>
        <time>2009-07-07T15:01:20Z</time>
      </trkpt>
      <trkpt lat="44.36838" lon="3.41774">
        <ele>666</ele>
        <time>2009-07-07T15:01:30Z</time>
      </trkpt>
      <trkpt lat="44.36835" lon="3.41767">
        <ele>664</ele>
        <time>2009-07-07T15:01:34Z</time>
      </trkpt>
      <trkpt lat="44.3683" lon="3.41754">
        <ele>661</ele>
        <time>2009-07-07T15:01:41Z</time>
      </trkpt>
      <trkpt lat="44.3683" lon="3.41752">
        <ele>661</ele>
        <time>2009-07-07T15:01:42Z</time>
      </trkpt>
      <trkpt lat="44.36832" lon="3.41743">
        <ele>661</ele>
        <time>2009-07-07T15:01:56Z</time>
      </trkpt>
      <trkpt lat="44.36833" lon="3.41739">
        <ele>662</ele>
        <time>2009-07-07T15:02:06Z</time>
      </trkpt>
      <trkpt lat="44.36834" lon="3.41736">
        <ele>660</ele>
        <time>2009-07-07T15:02:09Z</time>
      </trkpt>
      <trkpt lat="44.36841" lon="3.41727">
        <ele>656</ele>
        <time>2009-07-07T15:02:19Z</time>
      </trkpt>
      <trkpt lat="44.36841" lon="3.41727">
        <ele>655</ele>
        <time>2009-07-07T15:02:24Z</time>
      </trkpt>
      <trkpt lat="44.36845" lon="3.41713">
        <ele>653</ele>
        <time>2009-07-07T15:02:34Z</time>
      </trkpt>
      <trkpt lat="44.36848" lon="3.41701">
        <ele>651</ele>
        <time>2009-07-07T15:02:40Z</time>
      </trkpt>
      <trkpt lat="44.36848" lon="3.41699">
        <ele>651</ele>
        <time>2009-07-07T15:02:44Z</time>
      </trkpt>
      <trkpt lat="44.36847" lon="3.41695">
        <ele>649</ele>
        <time>2009-07-07T15:02:47Z</time>
      </trkpt>
      <trkpt lat="44.36855" lon="3.41677">
        <ele>648</ele>
        <time>2009-07-07T15:02:54Z</time>
      </trkpt>
      <trkpt lat="44.36858" lon="3.4166">
        <ele>645</ele>
        <time>2009-07-07T15:02:57Z</time>
      </trkpt>
      <trkpt lat="44.36848" lon="3.41643">
        <ele>643</ele>
        <time>2009-07-07T15:03:04Z</time>
      </trkpt>
      <trkpt lat="44.36847" lon="3.41642">
        <ele>643</ele>
        <time>2009-07-07T15:03:05Z</time>
      </trkpt>
      <trkpt lat="44.36837" lon="3.41635">
        <ele>639</ele>
        <time>2009-07-07T15:03:13Z</time>
      </trkpt>
      <trkpt lat="44.36832" lon="3.41634">
        <ele>638</ele>
        <time>2009-07-07T15:03:22Z</time>
      </trkpt>
      <trkpt lat="44.3683" lon="3.41633">
        <ele>637</ele>
        <time>2009-07-07T15:03:24Z</time>
      </trkpt>
      <trkpt lat="44.36824" lon="3.41628">
        <ele>635</ele>
        <time>2009-07-07T15:03:32Z</time>
      </trkpt>
      <trkpt lat="44.36819" lon="3.41631">
        <ele>632</ele>
        <time>2009-07-07T15:03:43Z</time>
      </trkpt>
      <trkpt lat="44.36817" lon="3.41635">
        <ele>631</ele>
        <time>2009-07-07T15:03:47Z</time>
      </trkpt>
      <trkpt lat="44.36809" lon="3.41632">
        <ele>629</ele>
        <time>2009-07-07T15:04:01Z</time>
      </trkpt>
      <trkpt lat="44.36808" lon="3.41632">
        <ele>629</ele>
        <time>2009-07-07T15:04:06Z</time>
      </trkpt>
      <trkpt lat="44.36801" lon="3.41628">
        <ele>625</ele>
        <time>2009-07-07T15:04:11Z</time>
      </trkpt>
      <trkpt lat="44.36794" lon="3.41624">
        <ele>622</ele>
        <time>2009-07-07T15:04:15Z</time>
      </trkpt>
      <trkpt lat="44.36788" lon="3.4162">
        <ele>619</ele>
        <time>2009-07-07T15:04:20Z</time>
      </trkpt>
      <trkpt lat="44.36785" lon="3.41609">
        <ele>616</ele>
        <time>2009-07-07T15:04:31Z</time>
      </trkpt>
      <trkpt lat="44.36784" lon="3.41603">
        <ele>615</ele>
        <time>2009-07-07T15:04:34Z</time>
      </trkpt>
      <trkpt lat="44.36785" lon="3.4159">
        <ele>612</ele>
        <time>2009-07-07T15:04:42Z</time>
      </trkpt>
      <trkpt lat="44.36786" lon="3.4158">
        <ele>611</ele>
        <time>2009-07-07T15:04:55Z</time>
      </trkpt>
      <trkpt lat="44.36785" lon="3.41571">
        <ele>608</ele>
        <time>2009-07-07T15:04:59Z</time>
      </trkpt>
      <trkpt lat="44.36784" lon="3.41561">
        <ele>605</ele>
        <time>2009-07-07T15:05:03Z</time>
      </trkpt>
      <trkpt lat="44.36783" lon="3.41556">
        <ele>604</ele>
        <time>2009-07-07T15:05:15Z</time>
      </trkpt>
      <trkpt lat="44.36781" lon="3.41547">
        <ele>601</ele>
        <time>2009-07-07T15:05:29Z</time>
      </trkpt>
      <trkpt lat="44.36781" lon="3.41546">
        <ele>601</ele>
        <time>2009-07-07T15:05:32Z</time>
      </trkpt>
      <trkpt lat="44.36779" lon="3.41526">
        <ele>597</ele>
        <time>2009-07-07T15:05:40Z</time>
      </trkpt>
      <trkpt lat="44.36775" lon="3.41506">
        <ele>592</ele>
        <time>2009-07-07T15:05:47Z</time>
      </trkpt>
      <trkpt lat="44.36775" lon="3.41503">
        <ele>592</ele>
        <time>2009-07-07T15:05:48Z</time>
      </trkpt>
      <trkpt lat="44.36773" lon="3.41496">
        <ele>590</ele>
        <time>2009-07-07T15:05:54Z</time>
      </trkpt>
      <trkpt lat="44.36769" lon="3.41491">
        <ele>588</ele>
        <time>2009-07-07T15:06:05Z</time>
      </trkpt>
      <trkpt lat="44.36767" lon="3.41483">
        <ele>585</ele>
        <time>2009-07-07T15:06:15Z</time>
      </trkpt>
      <trkpt lat="44.36764" lon="3.41475">
        <ele>582</ele>
        <time>2009-07-07T15:06:18Z</time>
      </trkpt>
      <trkpt lat="44.36764" lon="3.4147">
        <ele>581</ele>
        <time>2009-07-07T15:06:20Z</time>
      </trkpt>
      <trkpt lat="44.36763" lon="3.41467">
        <ele>580</ele>
        <time>2009-07-07T15:06:22Z</time>
      </trkpt>
      <trkpt lat="44.36762" lon="3.41464">
        <ele>578</ele>
        <time>2009-07-07T15:06:25Z</time>
      </trkpt>
      <trkpt lat="44.36759" lon="3.41454">
        <ele>577</ele>
        <time>2009-07-07T15:06:39Z</time>
      </trkpt>
      <trkpt lat="44.36757" lon="3.41447">
        <ele>575</ele>
        <time>2009-07-07T15:06:46Z</time>
      </trkpt>
      <trkpt lat="44.36756" lon="3.41432">
        <ele>572</ele>
        <time>2009-07-07T15:06:52Z</time>
      </trkpt>
      <trkpt lat="44.36756" lon="3.41415">
        <ele>570</ele>
        <time>2009-07-07T15:07:00Z</time>
      </trkpt>
      <trkpt lat="44.36754" lon="3.41407">
        <ele>567</ele>
        <time>2009-07-07T15:07:08Z</time>
      </trkpt>
      <trkpt lat="44.36754" lon="3.41405">
        <ele>566</ele>
        <time>2009-07-07T15:07:10Z</time>
      </trkpt>
      <trkpt lat="44.36752" lon="3.414">
        <ele>565</ele>
        <time>2009-07-07T15:07:15Z</time>
      </trkpt>
      <trkpt lat="44.3675" lon="3.41394">
        <ele>564</ele>
        <time>2009-07-07T15:07:21Z</time>
      </trkpt>
      <trkpt lat="44.36747" lon="3.4139">
        <ele>562</ele>
        <time>2009-07-07T15:07:26Z</time>
      </trkpt>
      <trkpt lat="44.36746" lon="3.41383">
        <ele>561</ele>
        <time>2009-07-07T15:07:35Z</time>
      </trkpt>
      <trkpt lat="44.36747" lon="3.4138">
        <ele>559</ele>
        <time>2009-07-07T15:07:37Z</time>
      </trkpt>
      <trkpt lat="44.36746" lon="3.41372">
        <ele>556</ele>
        <time>2009-07-07T15:07:46Z</time>
      </trkpt>
      <trkpt lat="44.36745" lon="3.41368">
        <ele>555</ele>
        <time>2009-07-07T15:07:49Z</time>
      </trkpt>
      <trkpt lat="44.36742" lon="3.41361">
        <ele>551</ele>
        <time>2009-07-07T15:07:56Z</time>
      </trkpt>
      <trkpt lat="44.3674" lon="3.41352">
        <ele>551</ele>
        <time>2009-07-07T15:08:04Z</time>
      </trkpt>
      <trkpt lat="44.36742" lon="3.41348">
        <ele>549</ele>
        <time>2009-07-07T15:08:09Z</time>
      </trkpt>
      <trkpt lat="44.36739" lon="3.41345">
        <ele>546</ele>
        <time>2009-07-07T15:08:13Z</time>
      </trkpt>
      <trkpt lat="44.36735" lon="3.41343">
        <ele>543</ele>
        <time>2009-07-07T15:08:17Z</time>
      </trkpt>
      <trkpt lat="44.36732" lon="3.41342">
        <ele>544</ele>
        <time>2009-07-07T15:08:20Z</time>
      </trkpt>
      <trkpt lat="44.36726" lon="3.4133">
        <ele>540</ele>
        <time>2009-07-07T15:08:31Z</time>
      </trkpt>
      <trkpt lat="44.36718" lon="3.41322">
        <ele>537</ele>
        <time>2009-07-07T15:08:36Z</time>
      </trkpt>
      <trkpt lat="44.36716" lon="3.41321">
        <ele>536</ele>
        <time>2009-07-07T15:08:37Z</time>
      </trkpt>
      <trkpt lat="44.36709" lon="3.41324">
        <ele>536</ele>
        <time>2009-07-07T15:08:41Z</time>
      </trkpt>
      <trkpt lat="44.36703" lon="3.41335">
        <ele>534</ele>
        <time>2009-07-07T15:08:48Z</time>
      </trkpt>
      <trkpt lat="44.36699" lon="3.41342">
        <ele>533</ele>
        <time>2009-07-07T15:08:59Z</time>
      </trkpt>
      <trkpt lat="44.36691" lon="3.41343">
        <ele>529</ele>
        <time>2009-07-07T15:09:07Z</time>
      </trkpt>
      <trkpt lat="44.36691" lon="3.41342">
        <ele>530</ele>
        <time>2009-07-07T15:09:11Z</time>
      </trkpt>
      <trkpt lat="44.36691" lon="3.41321">
        <ele>525</ele>
        <time>2009-07-07T15:09:18Z</time>
      </trkpt>
      <trkpt lat="44.3669" lon="3.41319">
        <ele>526</ele>
        <time>2009-07-07T15:09:19Z</time>
      </trkpt>
      <trkpt lat="44.36687" lon="3.41308">
        <ele>523</ele>
        <time>2009-07-07T15:09:23Z</time>
      </trkpt>
      <trkpt lat="44.36686" lon="3.41298">
        <ele>519</ele>
        <time>2009-07-07T15:09:27Z</time>
      </trkpt>
      <trkpt lat="44.36694" lon="3.41291">
        <ele>516</ele>
        <time>2009-07-07T15:09:31Z</time>
      </trkpt>
      <trkpt lat="44.36697" lon="3.41284">
        <ele>515</ele>
        <time>2009-07-07T15:09:34Z</time>
      </trkpt>
      <trkpt lat="44.3669" lon="3.41277">
        <ele>510</ele>
        <time>2009-07-07T15:09:39Z</time>
      </trkpt>
      <trkpt lat="44.36691" lon="3.41265">
        <ele>508</ele>
        <time>2009-07-07T15:09:44Z</time>
      </trkpt>
      <trkpt lat="44.36693" lon="3.41262">
        <ele>508</ele>
        <time>2009-07-07T15:09:56Z</time>
      </trkpt>
      <trkpt lat="44.3669" lon="3.41266">
        <ele>508</ele>
        <time>2009-07-07T15:10:00Z</time>
      </trkpt>
      <trkpt lat="44.36688" lon="3.41269">
        <ele>509</ele>
        <time>2009-07-07T15:10:12Z</time>
      </trkpt>
      <trkpt lat="44.36688" lon="3.41269">
        <ele>509</ele>
        <time>2009-07-07T15:10:17Z</time>
      </trkpt>
      <trkpt lat="44.36705" lon="3.41258">
        <ele>507</ele>
        <time>2009-07-07T15:10:23Z</time>
      </trkpt>
      <trkpt lat="44.36723" lon="3.41242">
        <ele>503</ele>
        <time>2009-07-07T15:10:30Z</time>
      </trkpt>
      <trkpt lat="44.36728" lon="3.41242">
        <ele>502</ele>
        <time>2009-07-07T15:10:31Z</time>
      </trkpt>
      <trkpt lat="44.36742" lon="3.4124">
        <ele>499</ele>
        <time>2009-07-07T15:10:36Z</time>
      </trkpt>
      <trkpt lat="44.36741" lon="3.41232">
        <ele>496</ele>
        <time>2009-07-07T15:10:44Z</time>
      </trkpt>
      <trkpt lat="44.36742" lon="3.41228">
        <ele>498</ele>
        <time>2009-07-07T15:11:15Z</time>
      </trkpt>
      <trkpt lat="44.36741" lon="3.41228">
        <ele>496</ele>
        <time>2009-07-07T15:20:16Z</time>
      </trkpt>
      <trkpt lat="44.3674" lon="3.41227">
        <ele>497</ele>
        <time>2009-07-07T15:20:39Z</time>
      </trkpt>
      <trkpt lat="44.36724" lon="3.4121">
        <ele>493</ele>
        <time>2009-07-07T15:20:46Z</time>
      </trkpt>
      <trkpt lat="44.36667" lon="3.41218">
        <ele>487</ele>
        <time>2009-07-07T15:20:55Z</time>
      </trkpt>
      <trkpt lat="44.36637" lon="3.41216">
        <ele>486</ele>
        <time>2009-07-07T15:21:00Z</time>
      </trkpt>
      <trkpt lat="44.36628" lon="3.41217">
        <ele>485</ele>
        <time>2009-07-07T15:21:02Z</time>
      </trkpt>
      <trkpt lat="44.36598" lon="3.41229">
        <ele>482</ele>
        <time>2009-07-07T15:21:11Z</time>
      </trkpt>
      <trkpt lat="44.36595" lon="3.41229">
        <ele>482</ele>
        <time>2009-07-07T15:21:12Z</time>
      </trkpt>
      <trkpt lat="44.36566" lon="3.41226">
        <ele>480</ele>
        <time>2009-07-07T15:21:23Z</time>
      </trkpt>
      <trkpt lat="44.36552" lon="3.41223">
        <ele>479</ele>
        <time>2009-07-07T15:21:27Z</time>
      </trkpt>
      <trkpt lat="44.36541" lon="3.41195">
        <ele>477</ele>
        <time>2009-07-07T15:21:32Z</time>
      </trkpt>
      <trkpt lat="44.36546" lon="3.41098">
        <ele>478</ele>
        <time>2009-07-07T15:21:46Z</time>
      </trkpt>
      <trkpt lat="44.36561" lon="3.41034">
        <ele>479</ele>
        <time>2009-07-07T15:22:00Z</time>
      </trkpt>
      <trkpt lat="44.36558" lon="3.41026">
        <ele>479</ele>
        <time>2009-07-07T15:22:02Z</time>
      </trkpt>
      <trkpt lat="44.36542" lon="3.41026">
        <ele>480</ele>
        <time>2009-07-07T15:22:11Z</time>
      </trkpt>
      <trkpt lat="44.36538" lon="3.41027">
        <ele>482</ele>
        <time>2009-07-07T15:22:27Z</time>
      </trkpt>
      <trkpt lat="44.36513" lon="3.41034">
        <ele>484</ele>
        <time>2009-07-07T15:22:39Z</time>
      </trkpt>
      <trkpt lat="44.36511" lon="3.41033">
        <ele>484</ele>
        <time>2009-07-07T15:22:41Z</time>
      </trkpt>
      <trkpt lat="44.36496" lon="3.41036">
        <ele>486</ele>
        <time>2009-07-07T15:22:57Z</time>
      </trkpt>
      <trkpt lat="44.36496" lon="3.41036">
        <ele>486</ele>
        <time>2009-07-07T15:23:23Z</time>
      </trkpt>
      <trkpt lat="44.36479" lon="3.41042">
        <ele>487</ele>
        <time>2009-07-07T15:23:58Z</time>
      </trkpt>
      <trkpt lat="44.36433" lon="3.41054">
        <ele>486</ele>
        <time>2009-07-07T15:24:13Z</time>
      </trkpt>
      <trkpt lat="44.36428" lon="3.41102">
        <ele>486</ele>
        <time>2009-07-07T15:24:23Z</time>
      </trkpt>
      <trkpt lat="44.36436" lon="3.41161">
        <ele>487</ele>
        <time>2009-07-07T15:24:35Z</time>
      </trkpt>
      <trkpt lat="44.36433" lon="3.41225">
        <ele>489</ele>
        <time>2009-07-07T15:24:48Z</time>
      </trkpt>
      <trkpt lat="44.36405" lon="3.41302">
        <ele>492</ele>
        <time>2009-07-07T15:25:07Z</time>
      </trkpt>
      <trkpt lat="44.36364" lon="3.41348">
        <ele>493</ele>
        <time>2009-07-07T15:25:25Z</time>
      </trkpt>
      <trkpt lat="44.36331" lon="3.4137">
        <ele>497</ele>
        <time>2009-07-07T15:25:38Z</time>
      </trkpt>
      <trkpt lat="44.36285" lon="3.4139">
        <ele>498</ele>
        <time>2009-07-07T15:25:55Z</time>
      </trkpt>
      <trkpt lat="44.36257" lon="3.41389">
        <ele>501</ele>
        <time>2009-07-07T15:26:06Z</time>
      </trkpt>
      <trkpt lat="44.36242" lon="3.41383">
        <ele>501</ele>
        <time>2009-07-07T15:26:13Z</time>
      </trkpt>
      <trkpt lat="44.36181" lon="3.41369">
        <ele>504</ele>
        <time>2009-07-07T15:26:33Z</time>
      </trkpt>
      <trkpt lat="44.36158" lon="3.41355">
        <ele>507</ele>
        <time>2009-07-07T15:26:41Z</time>
      </trkpt>
      <trkpt lat="44.3611" lon="3.413">
        <ele>509</ele>
        <time>2009-07-07T15:27:01Z</time>
      </trkpt>
      <trkpt lat="44.36098" lon="3.41288">
        <ele>511</ele>
        <time>2009-07-07T15:27:06Z</time>
      </trkpt>
      <trkpt lat="44.36063" lon="3.41238">
        <ele>514</ele>
        <time>2009-07-07T15:27:23Z</time>
      </trkpt>
      <trkpt lat="44.36031" lon="3.41181">
        <ele>517</ele>
        <time>2009-07-07T15:27:42Z</time>
      </trkpt>
      <trkpt lat="44.36007" lon="3.41128">
        <ele>519</ele>
        <time>2009-07-07T15:27:58Z</time>
      </trkpt>
      <trkpt lat="44.35999" lon="3.41089">
        <ele>521</ele>
        <time>2009-07-07T15:28:09Z</time>
      </trkpt>
      <trkpt lat="44.36001" lon="3.4108">
        <ele>521</ele>
        <time>2009-07-07T15:28:26Z</time>
      </trkpt>
      <trkpt lat="44.36001" lon="3.41079">
        <ele>521</ele>
        <time>2009-07-07T15:28:36Z</time>
      </trkpt>
      <trkpt lat="44.35997" lon="3.41073">
        <ele>521</ele>
        <time>2009-07-07T15:28:40Z</time>
      </trkpt>
      <trkpt lat="44.35968" lon="3.41023">
        <ele>524</ele>
        <time>2009-07-07T15:28:58Z</time>
      </trkpt>
      <trkpt lat="44.3594" lon="3.41004">
        <ele>527</ele>
        <time>2009-07-07T15:29:09Z</time>
      </trkpt>
      <trkpt lat="44.35923" lon="3.4095">
        <ele>530</ele>
        <time>2009-07-07T15:29:24Z</time>
      </trkpt>
      <trkpt lat="44.35894" lon="3.40897">
        <ele>533</ele>
        <time>2009-07-07T15:29:41Z</time>
      </trkpt>
      <trkpt lat="44.35887" lon="3.40891">
        <ele>535</ele>
        <time>2009-07-07T15:29:44Z</time>
      </trkpt>
      <trkpt lat="44.35835" lon="3.40858">
        <ele>537</ele>
        <time>2009-07-07T15:30:04Z</time>
      </trkpt>
      <trkpt lat="44.35787" lon="3.40826">
        <ele>541</ele>
        <time>2009-07-07T15:30:22Z</time>
      </trkpt>
      <trkpt lat="44.35736" lon="3.40798">
        <ele>544</ele>
        <time>2009-07-07T15:30:41Z</time>
      </trkpt>
      <trkpt lat="44.35691" lon="3.40776">
        <ele>547</ele>
        <time>2009-07-07T15:30:57Z</time>
      </trkpt>
      <trkpt lat="44.35645" lon="3.40754">
        <ele>551</ele>
        <time>2009-07-07T15:31:13Z</time>
      </trkpt>
      <trkpt lat="44.35599" lon="3.40731">
        <ele>554</ele>
        <time>2009-07-07T15:31:29Z</time>
      </trkpt>
      <trkpt lat="44.35564" lon="3.40715">
        <ele>556</ele>
        <time>2009-07-07T15:31:41Z</time>
      </trkpt>
      <trkpt lat="44.35558" lon="3.40714">
        <ele>557</ele>
        <time>2009-07-07T15:31:43Z</time>
      </trkpt>
      <trkpt lat="44.35514" lon="3.40703">
        <ele>560</ele>
        <time>2009-07-07T15:31:58Z</time>
      </trkpt>
      <trkpt lat="44.35511" lon="3.40701">
        <ele>560</ele>
        <time>2009-07-07T15:31:59Z</time>
      </trkpt>
      <trkpt lat="44.35463" lon="3.40659">
        <ele>563</ele>
        <time>2009-07-07T15:32:17Z</time>
      </trkpt>
      <trkpt lat="44.35432" lon="3.40637">
        <ele>566</ele>
        <time>2009-07-07T15:32:28Z</time>
      </trkpt>
      <trkpt lat="44.35377" lon="3.40614">
        <ele>569</ele>
        <time>2009-07-07T15:32:46Z</time>
      </trkpt>
      <trkpt lat="44.3534" lon="3.4059">
        <ele>572</ele>
        <time>2009-07-07T15:32:59Z</time>
      </trkpt>
      <trkpt lat="44.35298" lon="3.40555">
        <ele>575</ele>
        <time>2009-07-07T15:33:14Z</time>
      </trkpt>
      <trkpt lat="44.35254" lon="3.40517">
        <ele>578</ele>
        <time>2009-07-07T15:33:30Z</time>
      </trkpt>
      <trkpt lat="44.35218" lon="3.40484">
        <ele>581</ele>
        <time>2009-07-07T15:33:43Z</time>
      </trkpt>
      <trkpt lat="44.35181" lon="3.40426">
        <ele>584</ele>
        <time>2009-07-07T15:34:00Z</time>
      </trkpt>
      <trkpt lat="44.35139" lon="3.40379">
        <ele>587</ele>
        <time>2009-07-07T15:34:16Z</time>
      </trkpt>
      <trkpt lat="44.35136" lon="3.40376">
        <ele>587</ele>
        <time>2009-07-07T15:34:17Z</time>
      </trkpt>
      <trkpt lat="44.35106" lon="3.40346">
        <ele>591</ele>
        <time>2009-07-07T15:34:28Z</time>
      </trkpt>
      <trkpt lat="44.35078" lon="3.40315">
        <ele>594</ele>
        <time>2009-07-07T15:34:39Z</time>
      </trkpt>
      <trkpt lat="44.35064" lon="3.40294">
        <ele>595</ele>
        <time>2009-07-07T15:34:45Z</time>
      </trkpt>
      <trkpt lat="44.35013" lon="3.40242">
        <ele>599</ele>
        <time>2009-07-07T15:35:04Z</time>
      </trkpt>
      <trkpt lat="44.35012" lon="3.40238">
        <ele>599</ele>
        <time>2009-07-07T15:35:05Z</time>
      </trkpt>
      <trkpt lat="44.34996" lon="3.40185">
        <ele>602</ele>
        <time>2009-07-07T15:35:17Z</time>
      </trkpt>
      <trkpt lat="44.34975" lon="3.40126">
        <ele>605</ele>
        <time>2009-07-07T15:35:31Z</time>
      </trkpt>
      <trkpt lat="44.34974" lon="3.40121">
        <ele>606</ele>
        <time>2009-07-07T15:35:32Z</time>
      </trkpt>
      <trkpt lat="44.34936" lon="3.40071">
        <ele>607</ele>
        <time>2009-07-07T15:35:49Z</time>
      </trkpt>
      <trkpt lat="44.34913" lon="3.40063">
        <ele>610</ele>
        <time>2009-07-07T15:35:58Z</time>
      </trkpt>
      <trkpt lat="44.34874" lon="3.40064">
        <ele>612</ele>
        <time>2009-07-07T15:36:14Z</time>
      </trkpt>
      <trkpt lat="44.3484" lon="3.40059">
        <ele>615</ele>
        <time>2009-07-07T15:36:28Z</time>
      </trkpt>
      <trkpt lat="44.34819" lon="3.40049">
        <ele>617</ele>
        <time>2009-07-07T15:36:37Z</time>
      </trkpt>
      <trkpt lat="44.34772" lon="3.4005">
        <ele>619</ele>
        <time>2009-07-07T15:36:57Z</time>
      </trkpt>
      <trkpt lat="44.34739" lon="3.40058">
        <ele>622</ele>
        <time>2009-07-07T15:37:11Z</time>
      </trkpt>
      <trkpt lat="44.34704" lon="3.40065">
        <ele>625</ele>
        <time>2009-07-07T15:37:25Z</time>
      </trkpt>
      <trkpt lat="44.34655" lon="3.40049">
        <ele>627</ele>
        <time>2009-07-07T15:37:46Z</time>
      </trkpt>
      <trkpt lat="44.34616" lon="3.40028">
        <ele>630</ele>
        <time>2009-07-07T15:38:04Z</time>
      </trkpt>
      <trkpt lat="44.34603" lon="3.40022">
        <ele>630</ele>
        <time>2009-07-07T15:38:17Z</time>
      </trkpt>
      <trkpt lat="44.346" lon="3.40022">
        <ele>631</ele>
        <time>2009-07-07T15:39:45Z</time>
      </trkpt>
      <trkpt lat="44.34557" lon="3.40013">
        <ele>633</ele>
        <time>2009-07-07T15:40:00Z</time>
      </trkpt>
      <trkpt lat="44.34528" lon="3.40003">
        <ele>635</ele>
        <time>2009-07-07T15:40:10Z</time>
      </trkpt>
      <trkpt lat="44.34484" lon="3.40002">
        <ele>638</ele>
        <time>2009-07-07T15:40:25Z</time>
      </trkpt>
      <trkpt lat="44.34436" lon="3.39986">
        <ele>642</ele>
        <time>2009-07-07T15:40:42Z</time>
      </trkpt>
      <trkpt lat="44.34403" lon="3.39941">
        <ele>644</ele>
        <time>2009-07-07T15:40:58Z</time>
      </trkpt>
      <trkpt lat="44.34372" lon="3.39903">
        <ele>646</ele>
        <time>2009-07-07T15:41:13Z</time>
      </trkpt>
      <trkpt lat="44.34325" lon="3.39879">
        <ele>650</ele>
        <time>2009-07-07T15:41:31Z</time>
      </trkpt>
      <trkpt lat="44.34287" lon="3.39835">
        <ele>651</ele>
        <time>2009-07-07T15:41:49Z</time>
      </trkpt>
      <trkpt lat="44.34244" lon="3.39822">
        <ele>654</ele>
        <time>2009-07-07T15:42:06Z</time>
      </trkpt>
      <trkpt lat="44.34203" lon="3.39841">
        <ele>657</ele>
        <time>2009-07-07T15:42:21Z</time>
      </trkpt>
      <trkpt lat="44.34149" lon="3.39862">
        <ele>661</ele>
        <time>2009-07-07T15:42:39Z</time>
      </trkpt>
      <trkpt lat="44.34108" lon="3.39879">
        <ele>664</ele>
        <time>2009-07-07T15:42:53Z</time>
      </trkpt>
      <trkpt lat="44.34069" lon="3.39906">
        <ele>665</ele>
        <time>2009-07-07T15:43:08Z</time>
      </trkpt>
      <trkpt lat="44.34054" lon="3.39855">
        <ele>666</ele>
        <time>2009-07-07T15:43:20Z</time>
      </trkpt>
      <trkpt lat="44.3405" lon="3.3981">
        <ele>669</ele>
        <time>2009-07-07T15:43:32Z</time>
      </trkpt>
      <trkpt lat="44.34056" lon="3.39757">
        <ele>671</ele>
        <time>2009-07-07T15:43:47Z</time>
      </trkpt>
      <trkpt lat="44.34049" lon="3.39705">
        <ele>674</ele>
        <time>2009-07-07T15:44:01Z</time>
      </trkpt>
      <trkpt lat="44.3402" lon="3.39655">
        <ele>677</ele>
        <time>2009-07-07T15:44:17Z</time>
      </trkpt>
      <trkpt lat="44.34026" lon="3.39606">
        <ele>679</ele>
        <time>2009-07-07T15:44:29Z</time>
      </trkpt>
      <trkpt lat="44.33999" lon="3.39571">
        <ele>682</ele>
        <time>2009-07-07T15:44:41Z</time>
      </trkpt>
      <trkpt lat="44.33962" lon="3.3953">
        <ele>685</ele>
        <time>2009-07-07T15:44:56Z</time>
      </trkpt>
      <trkpt lat="44.33949" lon="3.39474">
        <ele>688</ele>
        <time>2009-07-07T15:45:10Z</time>
      </trkpt>
      <trkpt lat="44.33971" lon="3.39429">
        <ele>691</ele>
        <time>2009-07-07T15:45:22Z</time>
      </trkpt>
      <trkpt lat="44.33998" lon="3.39368">
        <ele>695</ele>
        <time>2009-07-07T15:45:38Z</time>
      </trkpt>
      <trkpt lat="44.33999" lon="3.39364">
        <ele>695</ele>
        <time>2009-07-07T15:45:39Z</time>
      </trkpt>
      <trkpt lat="44.34" lon="3.3929">
        <ele>697</ele>
        <time>2009-07-07T15:45:56Z</time>
      </trkpt>
      <trkpt lat="44.33981" lon="3.3927">
        <ele>700</ele>
        <time>2009-07-07T15:46:04Z</time>
      </trkpt>
      <trkpt lat="44.33935" lon="3.39277">
        <ele>702</ele>
        <time>2009-07-07T15:46:18Z</time>
      </trkpt>
      <trkpt lat="44.33893" lon="3.39264">
        <ele>705</ele>
        <time>2009-07-07T15:46:32Z</time>
      </trkpt>
      <trkpt lat="44.33869" lon="3.39222">
        <ele>708</ele>
        <time>2009-07-07T15:46:45Z</time>
      </trkpt>
      <trkpt lat="44.33851" lon="3.39161">
        <ele>711</ele>
        <time>2009-07-07T15:47:00Z</time>
      </trkpt>
      <trkpt lat="44.33822" lon="3.39147">
        <ele>714</ele>
        <time>2009-07-07T15:47:10Z</time>
      </trkpt>
      <trkpt lat="44.33775" lon="3.39177">
        <ele>718</ele>
        <time>2009-07-07T15:47:26Z</time>
      </trkpt>
      <trkpt lat="44.33718" lon="3.39184">
        <ele>720</ele>
        <time>2009-07-07T15:47:44Z</time>
      </trkpt>
      <trkpt lat="44.33695" lon="3.39148">
        <ele>723</ele>
        <time>2009-07-07T15:47:55Z</time>
      </trkpt>
      <trkpt lat="44.33649" lon="3.3909">
        <ele>726</ele>
        <time>2009-07-07T15:48:15Z</time>
      </trkpt>
      <trkpt lat="44.33628" lon="3.39043">
        <ele>729</ele>
        <time>2009-07-07T15:48:29Z</time>
      </trkpt>
      <trkpt lat="44.33621" lon="3.38994">
        <ele>730</ele>
        <time>2009-07-07T15:48:42Z</time>
      </trkpt>
      <trkpt lat="44.33588" lon="3.39008">
        <ele>732</ele>
        <time>2009-07-07T15:48:54Z</time>
      </trkpt>
      <trkpt lat="44.33554" lon="3.39043">
        <ele>735</ele>
        <time>2009-07-07T15:49:08Z</time>
      </trkpt>
      <trkpt lat="44.33528" lon="3.39055">
        <ele>737</ele>
        <time>2009-07-07T15:49:17Z</time>
      </trkpt>
      <trkpt lat="44.33485" lon="3.39048">
        <ele>740</ele>
        <time>2009-07-07T15:49:32Z</time>
      </trkpt>
      <trkpt lat="44.33465" lon="3.39012">
        <ele>744</ele>
        <time>2009-07-07T15:49:43Z</time>
      </trkpt>
      <trkpt lat="44.33428" lon="3.38991">
        <ele>747</ele>
        <time>2009-07-07T15:49:57Z</time>
      </trkpt>
      <trkpt lat="44.33385" lon="3.38975">
        <ele>749</ele>
        <time>2009-07-07T15:50:12Z</time>
      </trkpt>
      <trkpt lat="44.33382" lon="3.38973">
        <ele>749</ele>
        <time>2009-07-07T15:50:13Z</time>
      </trkpt>
      <trkpt lat="44.33377" lon="3.38969">
        <ele>750</ele>
        <time>2009-07-07T15:50:15Z</time>
      </trkpt>
      <trkpt lat="44.33363" lon="3.38943">
        <ele>753</ele>
        <time>2009-07-07T15:50:23Z</time>
      </trkpt>
      <trkpt lat="44.33342" lon="3.38873">
        <ele>756</ele>
        <time>2009-07-07T15:50:41Z</time>
      </trkpt>
      <trkpt lat="44.33315" lon="3.38833">
        <ele>759</ele>
        <time>2009-07-07T15:50:54Z</time>
      </trkpt>
      <trkpt lat="44.3329" lon="3.38806">
        <ele>761</ele>
        <time>2009-07-07T15:51:09Z</time>
      </trkpt>
      <trkpt lat="44.3329" lon="3.38807">
        <ele>761</ele>
        <time>2009-07-07T15:51:50Z</time>
      </trkpt>
      <trkpt lat="44.33283" lon="3.38814">
        <ele>761</ele>
        <time>2009-07-07T15:51:55Z</time>
      </trkpt>
      <trkpt lat="44.33285" lon="3.3883">
        <ele>760</ele>
        <time>2009-07-07T15:52:00Z</time>
      </trkpt>
      <trkpt lat="44.3329" lon="3.38833">
        <ele>761</ele>
        <time>2009-07-07T15:52:03Z</time>
      </trkpt>
      <trkpt lat="44.33287" lon="3.38808">
        <ele>761</ele>
        <time>2009-07-07T15:52:11Z</time>
      </trkpt>
      <trkpt lat="44.33287" lon="3.38806">
        <ele>761</ele>
        <time>2009-07-07T15:52:22Z</time>
      </trkpt>
      <trkpt lat="44.33286" lon="3.38807">
        <ele>761</ele>
        <time>2009-07-07T15:52:57Z</time>
      </trkpt>
      <trkpt lat="44.33287" lon="3.38808">
        <ele>761</ele>
        <time>2009-07-07T15:53:20Z</time>
      </trkpt>
      <trkpt lat="44.33287" lon="3.38833">
        <ele>760</ele>
        <time>2009-07-07T15:53:30Z</time>
      </trkpt>
      <trkpt lat="44.33298" lon="3.3884">
        <ele>762</ele>
        <time>2009-07-07T15:53:34Z</time>
      </trkpt>
      <trkpt lat="44.33327" lon="3.38876">
        <ele>764</ele>
        <time>2009-07-07T15:53:48Z</time>
      </trkpt>
      <trkpt lat="44.33344" lon="3.38937">
        <ele>767</ele>
        <time>2009-07-07T15:54:04Z</time>
      </trkpt>
      <trkpt lat="44.33365" lon="3.38997">
        <ele>769</ele>
        <time>2009-07-07T15:54:21Z</time>
      </trkpt>
      <trkpt lat="44.3337" lon="3.39006">
        <ele>770</ele>
        <time>2009-07-07T15:54:25Z</time>
      </trkpt>
      <trkpt lat="44.33392" lon="3.39023">
        <ele>772</ele>
        <time>2009-07-07T15:54:41Z</time>
      </trkpt>
      <trkpt lat="44.33423" lon="3.39044">
        <ele>775</ele>
        <time>2009-07-07T15:54:54Z</time>
      </trkpt>
      <trkpt lat="44.33408" lon="3.39046">
        <ele>775</ele>
        <time>2009-07-07T15:55:01Z</time>
      </trkpt>
      <trkpt lat="44.33372" lon="3.39019">
        <ele>777</ele>
        <time>2009-07-07T15:55:17Z</time>
      </trkpt>
      <trkpt lat="44.33339" lon="3.38975">
        <ele>780</ele>
        <time>2009-07-07T15:55:38Z</time>
      </trkpt>
      <trkpt lat="44.33322" lon="3.38923">
        <ele>784</ele>
        <time>2009-07-07T15:55:55Z</time>
      </trkpt>
      <trkpt lat="44.33289" lon="3.38881">
        <ele>785</ele>
        <time>2009-07-07T15:56:12Z</time>
      </trkpt>
      <trkpt lat="44.33261" lon="3.38886">
        <ele>788</ele>
        <time>2009-07-07T15:56:24Z</time>
      </trkpt>
      <trkpt lat="44.33258" lon="3.38892">
        <ele>789</ele>
        <time>2009-07-07T15:56:26Z</time>
      </trkpt>
      <trkpt lat="44.33226" lon="3.38946">
        <ele>791</ele>
        <time>2009-07-07T15:56:45Z</time>
      </trkpt>
      <trkpt lat="44.3319" lon="3.38988">
        <ele>794</ele>
        <time>2009-07-07T15:57:04Z</time>
      </trkpt>
      <trkpt lat="44.33185" lon="3.39004">
        <ele>796</ele>
        <time>2009-07-07T15:57:09Z</time>
      </trkpt>
      <trkpt lat="44.33177" lon="3.39054">
        <ele>798</ele>
        <time>2009-07-07T15:57:24Z</time>
      </trkpt>
      <trkpt lat="44.33149" lon="3.39085">
        <ele>800</ele>
        <time>2009-07-07T15:57:38Z</time>
      </trkpt>
      <trkpt lat="44.33119" lon="3.39073">
        <ele>803</ele>
        <time>2009-07-07T15:57:51Z</time>
      </trkpt>
      <trkpt lat="44.33079" lon="3.39041">
        <ele>806</ele>
        <time>2009-07-07T15:58:10Z</time>
      </trkpt>
      <trkpt lat="44.33061" lon="3.39003">
        <ele>807</ele>
        <time>2009-07-07T15:58:23Z</time>
      </trkpt>
      <trkpt lat="44.33044" lon="3.38966">
        <ele>809</ele>
        <time>2009-07-07T15:58:35Z</time>
      </trkpt>
      <trkpt lat="44.33034" lon="3.38928">
        <ele>811</ele>
        <time>2009-07-07T15:58:48Z</time>
      </trkpt>
      <trkpt lat="44.33025" lon="3.38884">
        <ele>814</ele>
        <time>2009-07-07T15:59:01Z</time>
      </trkpt>
      <trkpt lat="44.3301" lon="3.38836">
        <ele>816</ele>
        <time>2009-07-07T15:59:16Z</time>
      </trkpt>
      <trkpt lat="44.32985" lon="3.38789">
        <ele>820</ele>
        <time>2009-07-07T15:59:31Z</time>
      </trkpt>
      <trkpt lat="44.32953" lon="3.38735">
        <ele>823</ele>
        <time>2009-07-07T15:59:50Z</time>
      </trkpt>
      <trkpt lat="44.32955" lon="3.38687">
        <ele>824</ele>
        <time>2009-07-07T16:00:04Z</time>
      </trkpt>
      <trkpt lat="44.32952" lon="3.38643">
        <ele>828</ele>
        <time>2009-07-07T16:00:18Z</time>
      </trkpt>
      <trkpt lat="44.32929" lon="3.38587">
        <ele>830</ele>
        <time>2009-07-07T16:00:36Z</time>
      </trkpt>
      <trkpt lat="44.32918" lon="3.38536">
        <ele>832</ele>
        <time>2009-07-07T16:00:51Z</time>
      </trkpt>
      <trkpt lat="44.32918" lon="3.38501">
        <ele>836</ele>
        <time>2009-07-07T16:01:01Z</time>
      </trkpt>
      <trkpt lat="44.32932" lon="3.38452">
        <ele>838</ele>
        <time>2009-07-07T16:01:17Z</time>
      </trkpt>
      <trkpt lat="44.32932" lon="3.38445">
        <ele>838</ele>
        <time>2009-07-07T16:01:22Z</time>
      </trkpt>
      <trkpt lat="44.32933" lon="3.38441">
        <ele>838</ele>
        <time>2009-07-07T16:01:40Z</time>
      </trkpt>
      <trkpt lat="44.32931" lon="3.38441">
        <ele>839</ele>
        <time>2009-07-07T16:02:07Z</time>
      </trkpt>
      <trkpt lat="44.32909" lon="3.3843">
        <ele>840</ele>
        <time>2009-07-07T16:02:19Z</time>
      </trkpt>
      <trkpt lat="44.32871" lon="3.38447">
        <ele>843</ele>
        <time>2009-07-07T16:02:35Z</time>
      </trkpt>
      <trkpt lat="44.3283" lon="3.38489">
        <ele>845</ele>
        <time>2009-07-07T16:02:55Z</time>
      </trkpt>
      <trkpt lat="44.32788" lon="3.38546">
        <ele>848</ele>
        <time>2009-07-07T16:03:18Z</time>
      </trkpt>
      <trkpt lat="44.32754" lon="3.38558">
        <ele>851</ele>
        <time>2009-07-07T16:03:32Z</time>
      </trkpt>
      <trkpt lat="44.32714" lon="3.38545">
        <ele>855</ele>
        <time>2009-07-07T16:03:48Z</time>
      </trkpt>
      <trkpt lat="44.32672" lon="3.38547">
        <ele>858</ele>
        <time>2009-07-07T16:04:04Z</time>
      </trkpt>
      <trkpt lat="44.32632" lon="3.38537">
        <ele>861</ele>
        <time>2009-07-07T16:04:20Z</time>
      </trkpt>
      <trkpt lat="44.32586" lon="3.38484">
        <ele>864</ele>
        <time>2009-07-07T16:04:42Z</time>
      </trkpt>
      <trkpt lat="44.3255" lon="3.38457">
        <ele>868</ele>
        <time>2009-07-07T16:04:57Z</time>
      </trkpt>
      <trkpt lat="44.32501" lon="3.38416">
        <ele>870</ele>
        <time>2009-07-07T16:05:18Z</time>
      </trkpt>
      <trkpt lat="44.32494" lon="3.3841">
        <ele>871</ele>
        <time>2009-07-07T16:05:21Z</time>
      </trkpt>
      <trkpt lat="44.32466" lon="3.38388">
        <ele>874</ele>
        <time>2009-07-07T16:05:33Z</time>
      </trkpt>
      <trkpt lat="44.32425" lon="3.38363">
        <ele>876</ele>
        <time>2009-07-07T16:05:50Z</time>
      </trkpt>
      <trkpt lat="44.32395" lon="3.38347">
        <ele>879</ele>
        <time>2009-07-07T16:06:02Z</time>
      </trkpt>
      <trkpt lat="44.32353" lon="3.38328">
        <ele>882</ele>
        <time>2009-07-07T16:06:18Z</time>
      </trkpt>
      <trkpt lat="44.32294" lon="3.38309">
        <ele>884</ele>
        <time>2009-07-07T16:06:40Z</time>
      </trkpt>
      <trkpt lat="44.32286" lon="3.38307">
        <ele>885</ele>
        <time>2009-07-07T16:06:43Z</time>
      </trkpt>
      <trkpt lat="44.32246" lon="3.38295">
        <ele>889</ele>
        <time>2009-07-07T16:06:58Z</time>
      </trkpt>
      <trkpt lat="44.32193" lon="3.38272">
        <ele>892</ele>
        <time>2009-07-07T16:07:18Z</time>
      </trkpt>
      <trkpt lat="44.32182" lon="3.38265">
        <ele>893</ele>
        <time>2009-07-07T16:07:22Z</time>
      </trkpt>
      <trkpt lat="44.32151" lon="3.38228">
        <ele>896</ele>
        <time>2009-07-07T16:07:36Z</time>
      </trkpt>
      <trkpt lat="44.32118" lon="3.38159">
        <ele>899</ele>
        <time>2009-07-07T16:07:57Z</time>
      </trkpt>
      <trkpt lat="44.32083" lon="3.3811">
        <ele>902</ele>
        <time>2009-07-07T16:08:16Z</time>
      </trkpt>
      <trkpt lat="44.32051" lon="3.38106">
        <ele>904</ele>
        <time>2009-07-07T16:08:29Z</time>
      </trkpt>
      <trkpt lat="44.32043" lon="3.38108">
        <ele>904</ele>
        <time>2009-07-07T16:08:41Z</time>
      </trkpt>
      <trkpt lat="44.3204" lon="3.38109">
        <ele>905</ele>
        <time>2009-07-07T16:09:11Z</time>
      </trkpt>
      <trkpt lat="44.32041" lon="3.38108">
        <ele>906</ele>
        <time>2009-07-07T16:09:49Z</time>
      </trkpt>
      <trkpt lat="44.3204" lon="3.38108">
        <ele>906</ele>
        <time>2009-07-07T16:12:26Z</time>
      </trkpt>
      <trkpt lat="44.3204" lon="3.38108">
        <ele>908</ele>
        <time>2009-07-07T16:13:50Z</time>
      </trkpt>
      <trkpt lat="44.3204" lon="3.38108">
        <ele>907</ele>
        <time>2009-07-07T16:14:12Z</time>
      </trkpt>
      <trkpt lat="44.32037" lon="3.38112">
        <ele>907</ele>
        <time>2009-07-07T16:16:08Z</time>
      </trkpt>
      <trkpt lat="44.32038" lon="3.38113">
        <ele>905</ele>
        <time>2009-07-07T16:16:48Z</time>
      </trkpt>
      <trkpt lat="44.32033" lon="3.38116">
        <ele>907</ele>
        <time>2009-07-07T16:17:02Z</time>
      </trkpt>
      <trkpt lat="44.32029" lon="3.38118">
        <ele>908</ele>
        <time>2009-07-07T16:17:06Z</time>
      </trkpt>
      <trkpt lat="44.32026" lon="3.38119">
        <ele>907</ele>
        <time>2009-07-07T16:17:11Z</time>
      </trkpt>
      <trkpt lat="44.32021" lon="3.38123">
        <ele>907</ele>
        <time>2009-07-07T16:17:15Z</time>
      </trkpt>
      <trkpt lat="44.32012" lon="3.38126">
        <ele>907</ele>
        <time>2009-07-07T16:17:22Z</time>
      </trkpt>
      <trkpt lat="44.32002" lon="3.38131">
        <ele>908</ele>
        <time>2009-07-07T16:17:30Z</time>
      </trkpt>
      <trkpt lat="44.31981" lon="3.38143">
        <ele>908</ele>
        <time>2009-07-07T16:17:46Z</time>
      </trkpt>
      <trkpt lat="44.31979" lon="3.38144">
        <ele>908</ele>
        <time>2009-07-07T16:17:48Z</time>
      </trkpt>
      <trkpt lat="44.31966" lon="3.38151">
        <ele>908</ele>
        <time>2009-07-07T16:17:59Z</time>
      </trkpt>
      <trkpt lat="44.31955" lon="3.38156">
        <ele>909</ele>
        <time>2009-07-07T16:18:07Z</time>
      </trkpt>
      <trkpt lat="44.31927" lon="3.38177">
        <ele>909</ele>
        <time>2009-07-07T16:18:25Z</time>
      </trkpt>
      <trkpt lat="44.31904" lon="3.38201">
        <ele>909</ele>
        <time>2009-07-07T16:18:43Z</time>
      </trkpt>
      <trkpt lat="44.31897" lon="3.38207">
        <ele>909</ele>
        <time>2009-07-07T16:18:48Z</time>
      </trkpt>
      <trkpt lat="44.31863" lon="3.38243">
        <ele>910</ele>
        <time>2009-07-07T16:19:10Z</time>
      </trkpt>
      <trkpt lat="44.31831" lon="3.38264">
        <ele>911</ele>
        <time>2009-07-07T16:19:28Z</time>
      </trkpt>
      <trkpt lat="44.31785" lon="3.3825">
        <ele>913</ele>
        <time>2009-07-07T16:19:43Z</time>
      </trkpt>
      <trkpt lat="44.31726" lon="3.38233">
        <ele>915</ele>
        <time>2009-07-07T16:20:02Z</time>
      </trkpt>
      <trkpt lat="44.31667" lon="3.3822">
        <ele>917</ele>
        <time>2009-07-07T16:20:22Z</time>
      </trkpt>
      <trkpt lat="44.31589" lon="3.38218">
        <ele>920</ele>
        <time>2009-07-07T16:20:47Z</time>
      </trkpt>
      <trkpt lat="44.31537" lon="3.38234">
        <ele>922</ele>
        <time>2009-07-07T16:21:04Z</time>
      </trkpt>
      <trkpt lat="44.31486" lon="3.38235">
        <ele>926</ele>
        <time>2009-07-07T16:21:20Z</time>
      </trkpt>
      <trkpt lat="44.31427" lon="3.38247">
        <ele>927</ele>
        <time>2009-07-07T16:21:39Z</time>
      </trkpt>
      <trkpt lat="44.31379" lon="3.3831">
        <ele>930</ele>
        <time>2009-07-07T16:21:59Z</time>
      </trkpt>
      <trkpt lat="44.31359" lon="3.38373">
        <ele>933</ele>
        <time>2009-07-07T16:22:14Z</time>
      </trkpt>
      <trkpt lat="44.31346" lon="3.38452">
        <ele>935</ele>
        <time>2009-07-07T16:22:32Z</time>
      </trkpt>
      <trkpt lat="44.3133" lon="3.38539">
        <ele>937</ele>
        <time>2009-07-07T16:22:52Z</time>
      </trkpt>
      <trkpt lat="44.31316" lon="3.38618">
        <ele>939</ele>
        <time>2009-07-07T16:23:10Z</time>
      </trkpt>
      <trkpt lat="44.3133" lon="3.38688">
        <ele>941</ele>
        <time>2009-07-07T16:23:27Z</time>
      </trkpt>
      <trkpt lat="44.31342" lon="3.38785">
        <ele>943</ele>
        <time>2009-07-07T16:23:48Z</time>
      </trkpt>
      <trkpt lat="44.31364" lon="3.38878">
        <ele>946</ele>
        <time>2009-07-07T16:24:09Z</time>
      </trkpt>
      <trkpt lat="44.31376" lon="3.3897">
        <ele>948</ele>
        <time>2009-07-07T16:24:29Z</time>
      </trkpt>
      <trkpt lat="44.31386" lon="3.39042">
        <ele>951</ele>
        <time>2009-07-07T16:24:45Z</time>
      </trkpt>
      <trkpt lat="44.31392" lon="3.39138">
        <ele>953</ele>
        <time>2009-07-07T16:25:06Z</time>
      </trkpt>
      <trkpt lat="44.31414" lon="3.39251">
        <ele>956</ele>
        <time>2009-07-07T16:25:31Z</time>
      </trkpt>
      <trkpt lat="44.31403" lon="3.39301">
        <ele>958</ele>
        <time>2009-07-07T16:25:43Z</time>
      </trkpt>
      <trkpt lat="44.31365" lon="3.39338">
        <ele>960</ele>
        <time>2009-07-07T16:25:57Z</time>
      </trkpt>
      <trkpt lat="44.31329" lon="3.39434">
        <ele>963</ele>
        <time>2009-07-07T16:26:20Z</time>
      </trkpt>
      <trkpt lat="44.3133" lon="3.39456">
        <ele>965</ele>
        <time>2009-07-07T16:26:26Z</time>
      </trkpt>
      <trkpt lat="44.31346" lon="3.39462">
        <ele>966</ele>
        <time>2009-07-07T16:26:33Z</time>
      </trkpt>
      <trkpt lat="44.3137" lon="3.3947">
        <ele>970</ele>
        <time>2009-07-07T16:26:43Z</time>
      </trkpt>
      <trkpt lat="44.31378" lon="3.3948">
        <ele>973</ele>
        <time>2009-07-07T16:26:48Z</time>
      </trkpt>
      <trkpt lat="44.31388" lon="3.3952">
        <ele>976</ele>
        <time>2009-07-07T16:27:03Z</time>
      </trkpt>
      <trkpt lat="44.31402" lon="3.39562">
        <ele>979</ele>
        <time>2009-07-07T16:27:20Z</time>
      </trkpt>
      <trkpt lat="44.31416" lon="3.39593">
        <ele>982</ele>
        <time>2009-07-07T16:27:34Z</time>
      </trkpt>
      <trkpt lat="44.31426" lon="3.39626">
        <ele>983</ele>
        <time>2009-07-07T16:27:49Z</time>
      </trkpt>
      <trkpt lat="44.31444" lon="3.39665">
        <ele>987</ele>
        <time>2009-07-07T16:28:08Z</time>
      </trkpt>
      <trkpt lat="44.31465" lon="3.39695">
        <ele>990</ele>
        <time>2009-07-07T16:28:25Z</time>
      </trkpt>
      <trkpt lat="44.3148" lon="3.39714">
        <ele>992</ele>
        <time>2009-07-07T16:28:43Z</time>
      </trkpt>
      <trkpt lat="44.31479" lon="3.39713">
        <ele>992</ele>
        <time>2009-07-07T16:28:55Z</time>
      </trkpt>
      <trkpt lat="44.31463" lon="3.39705">
        <ele>990</ele>
        <time>2009-07-07T16:29:05Z</time>
      </trkpt>
      <trkpt lat="44.31444" lon="3.39732">
        <ele>988</ele>
        <time>2009-07-07T16:29:14Z</time>
      </trkpt>
      <trkpt lat="44.31451" lon="3.39809">
        <ele>988</ele>
        <time>2009-07-07T16:29:30Z</time>
      </trkpt>
      <trkpt lat="44.31464" lon="3.39889">
        <ele>988</ele>
        <time>2009-07-07T16:29:46Z</time>
      </trkpt>
      <trkpt lat="44.31465" lon="3.39895">
        <ele>988</ele>
        <time>2009-07-07T16:29:47Z</time>
      </trkpt>
      <trkpt lat="44.31483" lon="3.39992">
        <ele>987</ele>
        <time>2009-07-07T16:30:03Z</time>
      </trkpt>
      <trkpt lat="44.31502" lon="3.40024">
        <ele>984</ele>
        <time>2009-07-07T16:30:08Z</time>
      </trkpt>
      <trkpt lat="44.31521" lon="3.40045">
        <ele>982</ele>
        <time>2009-07-07T16:30:12Z</time>
      </trkpt>
      <trkpt lat="44.31563" lon="3.4012">
        <ele>982</ele>
        <time>2009-07-07T16:30:25Z</time>
      </trkpt>
      <trkpt lat="44.31583" lon="3.40181">
        <ele>984</ele>
        <time>2009-07-07T16:30:35Z</time>
      </trkpt>
      <trkpt lat="44.31585" lon="3.40209">
        <ele>983</ele>
        <time>2009-07-07T16:30:39Z</time>
      </trkpt>
      <trkpt lat="44.31584" lon="3.40232">
        <ele>982</ele>
        <time>2009-07-07T16:30:42Z</time>
      </trkpt>
      <trkpt lat="44.31585" lon="3.40257">
        <ele>980</ele>
        <time>2009-07-07T16:30:45Z</time>
      </trkpt>
      <trkpt lat="44.31599" lon="3.40347">
        <ele>979</ele>
        <time>2009-07-07T16:30:56Z</time>
      </trkpt>
      <trkpt lat="44.31591" lon="3.40393">
        <ele>979</ele>
        <time>2009-07-07T16:31:02Z</time>
      </trkpt>
      <trkpt lat="44.31552" lon="3.40501">
        <ele>982</ele>
        <time>2009-07-07T16:31:21Z</time>
      </trkpt>
      <trkpt lat="44.31536" lon="3.40545">
        <ele>983</ele>
        <time>2009-07-07T16:31:34Z</time>
      </trkpt>
      <trkpt lat="44.31504" lon="3.40633">
        <ele>985</ele>
        <time>2009-07-07T16:31:54Z</time>
      </trkpt>
      <trkpt lat="44.31474" lon="3.40648">
        <ele>983</ele>
        <time>2009-07-07T16:32:05Z</time>
      </trkpt>
      <trkpt lat="44.31468" lon="3.40648">
        <ele>982</ele>
        <time>2009-07-07T16:32:07Z</time>
      </trkpt>
      <trkpt lat="44.31444" lon="3.40648">
        <ele>981</ele>
        <time>2009-07-07T16:32:18Z</time>
      </trkpt>
      <trkpt lat="44.31442" lon="3.40648">
        <ele>981</ele>
        <time>2009-07-07T16:32:33Z</time>
      </trkpt>
      <trkpt lat="44.31434" lon="3.40646">
        <ele>981</ele>
        <time>2009-07-07T16:32:39Z</time>
      </trkpt>
      <trkpt lat="44.31429" lon="3.40653">
        <ele>980</ele>
        <time>2009-07-07T16:32:43Z</time>
      </trkpt>
      <trkpt lat="44.31378" lon="3.40697">
        <ele>979</ele>
        <time>2009-07-07T16:32:59Z</time>
      </trkpt>
      <trkpt lat="44.31372" lon="3.40703">
        <ele>978</ele>
        <time>2009-07-07T16:33:01Z</time>
      </trkpt>
      <trkpt lat="44.31343" lon="3.40753">
        <ele>979</ele>
        <time>2009-07-07T16:33:15Z</time>
      </trkpt>
      <trkpt lat="44.31329" lon="3.40795">
        <ele>980</ele>
        <time>2009-07-07T16:33:27Z</time>
      </trkpt>
      <trkpt lat="44.31283" lon="3.40823">
        <ele>982</ele>
        <time>2009-07-07T16:33:43Z</time>
      </trkpt>
      <trkpt lat="44.31222" lon="3.40866">
        <ele>983</ele>
        <time>2009-07-07T16:34:03Z</time>
      </trkpt>
      <trkpt lat="44.31198" lon="3.4089">
        <ele>985</ele>
        <time>2009-07-07T16:34:15Z</time>
      </trkpt>
      <trkpt lat="44.31177" lon="3.40917">
        <ele>987</ele>
        <time>2009-07-07T16:34:30Z</time>
      </trkpt>
      <trkpt lat="44.3115" lon="3.40952">
        <ele>988</ele>
        <time>2009-07-07T16:34:47Z</time>
      </trkpt>
      <trkpt lat="44.31109" lon="3.40973">
        <ele>990</ele>
        <time>2009-07-07T16:35:07Z</time>
      </trkpt>
      <trkpt lat="44.31074" lon="3.40967">
        <ele>987</ele>
        <time>2009-07-07T16:35:22Z</time>
      </trkpt>
      <trkpt lat="44.31057" lon="3.40971">
        <ele>983</ele>
        <time>2009-07-07T16:35:27Z</time>
      </trkpt>
      <trkpt lat="44.31053" lon="3.40972">
        <ele>983</ele>
        <time>2009-07-07T16:35:28Z</time>
      </trkpt>
      <trkpt lat="44.31033" lon="3.4098">
        <ele>981</ele>
        <time>2009-07-07T16:35:33Z</time>
      </trkpt>
      <trkpt lat="44.31021" lon="3.40984">
        <ele>979</ele>
        <time>2009-07-07T16:35:36Z</time>
      </trkpt>
      <trkpt lat="44.30982" lon="3.41">
        <ele>976</ele>
        <time>2009-07-07T16:35:45Z</time>
      </trkpt>
      <trkpt lat="44.30951" lon="3.41011">
        <ele>973</ele>
        <time>2009-07-07T16:35:54Z</time>
      </trkpt>
      <trkpt lat="44.30942" lon="3.41015">
        <ele>971</ele>
        <time>2009-07-07T16:35:57Z</time>
      </trkpt>
      <trkpt lat="44.30923" lon="3.41022">
        <ele>968</ele>
        <time>2009-07-07T16:36:03Z</time>
      </trkpt>
      <trkpt lat="44.30919" lon="3.41023">
        <ele>967</ele>
        <time>2009-07-07T16:36:04Z</time>
      </trkpt>
      <trkpt lat="44.3089" lon="3.41037">
        <ele>964</ele>
        <time>2009-07-07T16:36:12Z</time>
      </trkpt>
      <trkpt lat="44.30886" lon="3.41039">
        <ele>963</ele>
        <time>2009-07-07T16:36:13Z</time>
      </trkpt>
      <trkpt lat="44.30859" lon="3.41055">
        <ele>959</ele>
        <time>2009-07-07T16:36:18Z</time>
      </trkpt>
      <trkpt lat="44.30837" lon="3.41064">
        <ele>958</ele>
        <time>2009-07-07T16:36:22Z</time>
      </trkpt>
      <trkpt lat="44.30817" lon="3.41068">
        <ele>956</ele>
        <time>2009-07-07T16:36:25Z</time>
      </trkpt>
      <trkpt lat="44.30789" lon="3.41074">
        <ele>955</ele>
        <time>2009-07-07T16:36:29Z</time>
      </trkpt>
      <trkpt lat="44.30767" lon="3.41078">
        <ele>955</ele>
        <time>2009-07-07T16:36:33Z</time>
      </trkpt>
      <trkpt lat="44.30714" lon="3.41074">
        <ele>955</ele>
        <time>2009-07-07T16:36:47Z</time>
      </trkpt>
      <trkpt lat="44.30675" lon="3.41063">
        <ele>955</ele>
        <time>2009-07-07T16:37:02Z</time>
      </trkpt>
      <trkpt lat="44.3064" lon="3.41065">
        <ele>955</ele>
        <time>2009-07-07T16:37:17Z</time>
      </trkpt>
      <trkpt lat="44.30593" lon="3.41077">
        <ele>954</ele>
        <time>2009-07-07T16:37:32Z</time>
      </trkpt>
      <trkpt lat="44.30545" lon="3.41088">
        <ele>952</ele>
        <time>2009-07-07T16:37:46Z</time>
      </trkpt>
      <trkpt lat="44.30504" lon="3.41097">
        <ele>949</ele>
        <time>2009-07-07T16:37:58Z</time>
      </trkpt>
      <trkpt lat="44.30455" lon="3.41101">
        <ele>948</ele>
        <time>2009-07-07T16:38:11Z</time>
      </trkpt>
      <trkpt lat="44.30407" lon="3.41103">
        <ele>949</ele>
        <time>2009-07-07T16:38:27Z</time>
      </trkpt>
      <trkpt lat="44.30386" lon="3.41098">
        <ele>949</ele>
        <time>2009-07-07T16:38:36Z</time>
      </trkpt>
      <trkpt lat="44.30357" lon="3.4109">
        <ele>951</ele>
        <time>2009-07-07T16:38:50Z</time>
      </trkpt>
      <trkpt lat="44.30335" lon="3.41082">
        <ele>952</ele>
        <time>2009-07-07T16:39:02Z</time>
      </trkpt>
      <trkpt lat="44.30314" lon="3.41076">
        <ele>952</ele>
        <time>2009-07-07T16:39:12Z</time>
      </trkpt>
      <trkpt lat="44.30301" lon="3.41071">
        <ele>953</ele>
        <time>2009-07-07T16:39:18Z</time>
      </trkpt>
      <trkpt lat="44.30281" lon="3.4106">
        <ele>954</ele>
        <time>2009-07-07T16:39:29Z</time>
      </trkpt>
      <trkpt lat="44.30255" lon="3.41047">
        <ele>955</ele>
        <time>2009-07-07T16:39:44Z</time>
      </trkpt>
      <trkpt lat="44.30253" lon="3.41046">
        <ele>955</ele>
        <time>2009-07-07T16:39:56Z</time>
      </trkpt>
      <trkpt lat="44.30231" lon="3.41036">
        <ele>955</ele>
        <time>2009-07-07T16:40:09Z</time>
      </trkpt>
      <trkpt lat="44.3019" lon="3.41033">
        <ele>957</ele>
        <time>2009-07-07T16:40:27Z</time>
      </trkpt>
      <trkpt lat="44.30156" lon="3.41038">
        <ele>959</ele>
        <time>2009-07-07T16:40:43Z</time>
      </trkpt>
      <trkpt lat="44.30121" lon="3.41055">
        <ele>959</ele>
        <time>2009-07-07T16:40:59Z</time>
      </trkpt>
      <trkpt lat="44.30063" lon="3.41083">
        <ele>958</ele>
        <time>2009-07-07T16:41:16Z</time>
      </trkpt>
      <trkpt lat="44.30037" lon="3.41095">
        <ele>955</ele>
        <time>2009-07-07T16:41:22Z</time>
      </trkpt>
      <trkpt lat="44.30004" lon="3.41146">
        <ele>953</ele>
        <time>2009-07-07T16:41:35Z</time>
      </trkpt>
      <trkpt lat="44.29986" lon="3.41193">
        <ele>950</ele>
        <time>2009-07-07T16:41:42Z</time>
      </trkpt>
      <trkpt lat="44.29949" lon="3.41301">
        <ele>949</ele>
        <time>2009-07-07T16:41:55Z</time>
      </trkpt>
      <trkpt lat="44.29933" lon="3.4134">
        <ele>948</ele>
        <time>2009-07-07T16:42:00Z</time>
      </trkpt>
      <trkpt lat="44.29927" lon="3.41443">
        <ele>947</ele>
        <time>2009-07-07T16:42:14Z</time>
      </trkpt>
      <trkpt lat="44.2993" lon="3.41462">
        <ele>947</ele>
        <time>2009-07-07T16:42:18Z</time>
      </trkpt>
      <trkpt lat="44.29935" lon="3.41485">
        <ele>945</ele>
        <time>2009-07-07T16:42:22Z</time>
      </trkpt>
      <trkpt lat="44.29951" lon="3.41527">
        <ele>944</ele>
        <time>2009-07-07T16:42:33Z</time>
      </trkpt>
      <trkpt lat="44.29961" lon="3.41535">
        <ele>943</ele>
        <time>2009-07-07T16:43:11Z</time>
      </trkpt>
      <trkpt lat="44.29982" lon="3.41561">
        <ele>938</ele>
        <time>2009-07-07T16:43:16Z</time>
      </trkpt>
      <trkpt lat="44.29988" lon="3.41567">
        <ele>936</ele>
        <time>2009-07-07T16:43:17Z</time>
      </trkpt>
      <trkpt lat="44.30017" lon="3.41591">
        <ele>934</ele>
        <time>2009-07-07T16:43:21Z</time>
      </trkpt>
      <trkpt lat="44.30102" lon="3.41635">
        <ele>935</ele>
        <time>2009-07-07T16:43:33Z</time>
      </trkpt>
      <trkpt lat="44.30118" lon="3.41644">
        <ele>935</ele>
        <time>2009-07-07T16:43:40Z</time>
      </trkpt>
      <trkpt lat="44.30125" lon="3.41653">
        <ele>936</ele>
        <time>2009-07-07T16:43:51Z</time>
      </trkpt>
      <trkpt lat="44.30124" lon="3.41652">
        <ele>936</ele>
        <time>2009-07-07T16:44:13Z</time>
      </trkpt>
      <trkpt lat="44.30125" lon="3.41647">
        <ele>936</ele>
        <time>2009-07-07T16:44:48Z</time>
      </trkpt>
      <trkpt lat="44.30125" lon="3.41645">
        <ele>937</ele>
        <time>2009-07-07T16:45:13Z</time>
      </trkpt>
      <trkpt lat="44.30125" lon="3.41644">
        <ele>937</ele>
        <time>2009-07-07T16:45:57Z</time>
      </trkpt>
      <trkpt lat="44.30126" lon="3.41643">
        <ele>937</ele>
        <time>2009-07-07T16:47:13Z</time>
      </trkpt>
      <trkpt lat="44.30126" lon="3.41645">
        <ele>937</ele>
        <time>2009-07-07T16:48:13Z</time>
      </trkpt>
      <trkpt lat="44.30126" lon="3.41644">
        <ele>937</ele>
        <time>2009-07-07T16:48:53Z</time>
      </trkpt>
      <trkpt lat="44.30125" lon="3.41643">
        <ele>937</ele>
        <time>2009-07-07T16:49:22Z</time>
      </trkpt>
      <trkpt lat="44.30118" lon="3.41633">
        <ele>936</ele>
        <time>2009-07-07T16:49:33Z</time>
      </trkpt>
      <trkpt lat="44.30121" lon="3.41614">
        <ele>936</ele>
        <time>2009-07-07T16:49:46Z</time>
      </trkpt>
      <trkpt lat="44.30128" lon="3.41607">
        <ele>936</ele>
        <time>2009-07-07T16:50:03Z</time>
      </trkpt>
    </trkseg>
  </trk>
  <trk>
    <name><![CDATA[C01]]></name>
    <trkseg>
      <trkpt lat="44.30138" lon="3.4161">
        <ele>904</ele>
        <time>2009-07-08T06:40:57Z</time>
      </trkpt>
      <trkpt lat="44.3014" lon="3.4161">
        <ele>907</ele>
        <time>2009-07-08T06:41:05Z</time>
      </trkpt>
      <trkpt lat="44.3014" lon="3.4161">
        <ele>910</ele>
        <time>2009-07-08T06:41:08Z</time>
      </trkpt>
      <trkpt lat="44.30139" lon="3.4161">
        <ele>910</ele>
        <time>2009-07-08T06:41:09Z</time>
      </trkpt>
      <trkpt lat="44.3014" lon="3.4161">
        <ele>911</ele>
        <time>2009-07-08T06:41:11Z</time>
      </trkpt>
      <trkpt lat="44.30139" lon="3.4161">
        <ele>916</ele>
        <time>2009-07-08T06:41:14Z</time>
      </trkpt>
      <trkpt lat="44.30139" lon="3.4161">
        <ele>920</ele>
        <time>2009-07-08T06:41:20Z</time>
      </trkpt>
      <trkpt lat="44.30139" lon="3.4161">
        <ele>923</ele>
        <time>2009-07-08T06:41:26Z</time>
      </trkpt>
      <trkpt lat="44.30139" lon="3.4161">
        <ele>927</ele>
        <time>2009-07-08T06:41:34Z</time>
      </trkpt>
      <trkpt lat="44.30139" lon="3.4161">
        <ele>927</ele>
        <time>2009-07-08T06:41:35Z</time>
      </trkpt>
      <trkpt lat="44.30139" lon="3.4161">
        <ele>929</ele>
        <time>2009-07-08T06:41:41Z</time>
      </trkpt>
      <trkpt lat="44.30139" lon="3.41611">
        <ele>933</ele>
        <time>2009-07-08T06:41:54Z</time>
      </trkpt>
      <trkpt lat="44.30139" lon="3.41611">
        <ele>936</ele>
        <time>2009-07-08T06:42:04Z</time>
      </trkpt>
      <trkpt lat="44.30139" lon="3.4161">
        <ele>936</ele>
        <time>2009-07-08T06:42:05Z</time>
      </trkpt>
      <trkpt lat="44.30139" lon="3.4161">
        <ele>934</ele>
        <time>2009-07-08T06:42:07Z</time>
      </trkpt>
      <trkpt lat="44.30139" lon="3.4161">
        <ele>935</ele>
        <time>2009-07-08T06:42:27Z</time>
      </trkpt>
      <trkpt lat="44.30138" lon="3.41611">
        <ele>938</ele>
        <time>2009-07-08T06:45:57Z</time>
      </trkpt>
      <trkpt lat="44.30137" lon="3.4161">
        <ele>937</ele>
        <time>2009-07-08T06:48:34Z</time>
      </trkpt>
      <trkpt lat="44.30134" lon="3.41607">
        <ele>937</ele>
        <time>2009-07-08T06:48:55Z</time>
      </trkpt>
      <trkpt lat="44.30131" lon="3.41604">
        <ele>938</ele>
        <time>2009-07-08T06:49:22Z</time>
      </trkpt>
      <trkpt lat="44.30135" lon="3.41599">
        <ele>938</ele>
        <time>2009-07-08T06:49:40Z</time>
      </trkpt>
      <trkpt lat="44.30136" lon="3.416">
        <ele>938</ele>
        <time>2009-07-08T06:50:19Z</time>
      </trkpt>
      <trkpt lat="44.30137" lon="3.41602">
        <ele>937</ele>
        <time>2009-07-08T06:51:12Z</time>
      </trkpt>
      <trkpt lat="44.30135" lon="3.41602">
        <ele>938</ele>
        <time>2009-07-08T06:51:35Z</time>
      </trkpt>
      <trkpt lat="44.30135" lon="3.41602">
        <ele>938</ele>
        <time>2009-07-08T06:51:36Z</time>
      </trkpt>
      <trkpt lat="44.3013" lon="3.41598">
        <ele>938</ele>
        <time>2009-07-08T06:51:40Z</time>
      </trkpt>
      <trkpt lat="44.30123" lon="3.41593">
        <ele>938</ele>
        <time>2009-07-08T06:51:44Z</time>
      </trkpt>
      <trkpt lat="44.30119" lon="3.41593">
        <ele>935</ele>
        <time>2009-07-08T06:51:55Z</time>
      </trkpt>
      <trkpt lat="44.30119" lon="3.41593">
        <ele>940</ele>
        <time>2009-07-08T06:51:56Z</time>
      </trkpt>
      <trkpt lat="44.30119" lon="3.41593">
        <ele>937</ele>
        <time>2009-07-08T06:51:58Z</time>
      </trkpt>
      <trkpt lat="44.30119" lon="3.41595">
        <ele>936</ele>
        <time>2009-07-08T06:52:44Z</time>
      </trkpt>
      <trkpt lat="44.30119" lon="3.41597">
        <ele>938</ele>
        <time>2009-07-08T06:54:05Z</time>
      </trkpt>
      <trkpt lat="44.30102" lon="3.41613">
        <ele>936</ele>
        <time>2009-07-08T06:54:14Z</time>
      </trkpt>
      <trkpt lat="44.30085" lon="3.41623">
        <ele>936</ele>
        <time>2009-07-08T06:54:19Z</time>
      </trkpt>
      <trkpt lat="44.30024" lon="3.41593">
        <ele>937</ele>
        <time>2009-07-08T06:54:35Z</time>
      </trkpt>
      <trkpt lat="44.29979" lon="3.41552">
        <ele>939</ele>
        <time>2009-07-08T06:54:50Z</time>
      </trkpt>
      <trkpt lat="44.29969" lon="3.41541">
        <ele>942</ele>
        <time>2009-07-08T06:54:55Z</time>
      </trkpt>
      <trkpt lat="44.29966" lon="3.41539">
        <ele>942</ele>
        <time>2009-07-08T06:54:56Z</time>
      </trkpt>
      <trkpt lat="44.2995" lon="3.41517">
        <ele>946</ele>
        <time>2009-07-08T06:55:05Z</time>
      </trkpt>
      <trkpt lat="44.29934" lon="3.41456">
        <ele>949</ele>
        <time>2009-07-08T06:55:22Z</time>
      </trkpt>
      <trkpt lat="44.29928" lon="3.41377">
        <ele>949</ele>
        <time>2009-07-08T06:55:41Z</time>
      </trkpt>
      <trkpt lat="44.2995" lon="3.41296">
        <ele>949</ele>
        <time>2009-07-08T06:55:59Z</time>
      </trkpt>
      <trkpt lat="44.2997" lon="3.4124">
        <ele>952</ele>
        <time>2009-07-08T06:56:12Z</time>
      </trkpt>
      <trkpt lat="44.29989" lon="3.41184">
        <ele>953</ele>
        <time>2009-07-08T06:56:29Z</time>
      </trkpt>
      <trkpt lat="44.29996" lon="3.41163">
        <ele>955</ele>
        <time>2009-07-08T06:56:36Z</time>
      </trkpt>
      <trkpt lat="44.30016" lon="3.41121">
        <ele>956</ele>
        <time>2009-07-08T06:56:51Z</time>
      </trkpt>
      <trkpt lat="44.30049" lon="3.41081">
        <ele>957</ele>
        <time>2009-07-08T06:57:08Z</time>
      </trkpt>
      <trkpt lat="44.30085" lon="3.41053">
        <ele>960</ele>
        <time>2009-07-08T06:57:25Z</time>
      </trkpt>
      <trkpt lat="44.30099" lon="3.41042">
        <ele>964</ele>
        <time>2009-07-08T06:57:32Z</time>
      </trkpt>
      <trkpt lat="44.30124" lon="3.41022">
        <ele>967</ele>
        <time>2009-07-08T06:57:46Z</time>
      </trkpt>
      <trkpt lat="44.30157" lon="3.40967">
        <ele>968</ele>
        <time>2009-07-08T06:58:09Z</time>
      </trkpt>
      <trkpt lat="44.30169" lon="3.40942">
        <ele>970</ele>
        <time>2009-07-08T06:58:18Z</time>
      </trkpt>
      <trkpt lat="44.30196" lon="3.40878">
        <ele>972</ele>
        <time>2009-07-08T06:58:40Z</time>
      </trkpt>
      <trkpt lat="44.30213" lon="3.40806">
        <ele>975</ele>
        <time>2009-07-08T06:59:02Z</time>
      </trkpt>
      <trkpt lat="44.30231" lon="3.4076">
        <ele>975</ele>
        <time>2009-07-08T06:59:16Z</time>
      </trkpt>
      <trkpt lat="44.30265" lon="3.40711">
        <ele>977</ele>
        <time>2009-07-08T06:59:35Z</time>
      </trkpt>
      <trkpt lat="44.30284" lon="3.40685">
        <ele>980</ele>
        <time>2009-07-08T06:59:45Z</time>
      </trkpt>
      <trkpt lat="44.3032" lon="3.4062">
        <ele>982</ele>
        <time>2009-07-08T07:00:07Z</time>
      </trkpt>
      <trkpt lat="44.30359" lon="3.40555">
        <ele>986</ele>
        <time>2009-07-08T07:00:29Z</time>
      </trkpt>
      <trkpt lat="44.30373" lon="3.40531">
        <ele>988</ele>
        <time>2009-07-08T07:00:37Z</time>
      </trkpt>
      <trkpt lat="44.30391" lon="3.40468">
        <ele>991</ele>
        <time>2009-07-08T07:00:54Z</time>
      </trkpt>
      <trkpt lat="44.30398" lon="3.40432">
        <ele>991</ele>
        <time>2009-07-08T07:01:03Z</time>
      </trkpt>
      <trkpt lat="44.30406" lon="3.40395">
        <ele>993</ele>
        <time>2009-07-08T07:01:12Z</time>
      </trkpt>
      <trkpt lat="44.30433" lon="3.40313">
        <ele>992</ele>
        <time>2009-07-08T07:01:31Z</time>
      </trkpt>
      <trkpt lat="44.3047" lon="3.40206">
        <ele>992</ele>
        <time>2009-07-08T07:01:53Z</time>
      </trkpt>
      <trkpt lat="44.30489" lon="3.40162">
        <ele>993</ele>
        <time>2009-07-08T07:02:04Z</time>
      </trkpt>
      <trkpt lat="44.3046" lon="3.40118">
        <ele>991</ele>
        <time>2009-07-08T07:02:15Z</time>
      </trkpt>
      <trkpt lat="44.30457" lon="3.40113">
        <ele>991</ele>
        <time>2009-07-08T07:02:16Z</time>
      </trkpt>
      <trkpt lat="44.30447" lon="3.40089">
        <ele>989</ele>
        <time>2009-07-08T07:02:20Z</time>
      </trkpt>
      <trkpt lat="44.30401" lon="3.40035">
        <ele>991</ele>
        <time>2009-07-08T07:02:35Z</time>
      </trkpt>
      <trkpt lat="44.30369" lon="3.39994">
        <ele>993</ele>
        <time>2009-07-08T07:02:46Z</time>
      </trkpt>
      <trkpt lat="44.3033" lon="3.39947">
        <ele>996</ele>
        <time>2009-07-08T07:03:01Z</time>
      </trkpt>
      <trkpt lat="44.30301" lon="3.39894">
        <ele>999</ele>
        <time>2009-07-08T07:03:17Z</time>
      </trkpt>
      <trkpt lat="44.30282" lon="3.39825">
        <ele>1001</ele>
        <time>2009-07-08T07:03:34Z</time>
      </trkpt>
      <trkpt lat="44.30292" lon="3.39797">
        <ele>1001</ele>
        <time>2009-07-08T07:03:44Z</time>
      </trkpt>
      <trkpt lat="44.30301" lon="3.39791">
        <ele>1002</ele>
        <time>2009-07-08T07:03:53Z</time>
      </trkpt>
      <trkpt lat="44.30324" lon="3.39773">
        <ele>1000</ele>
        <time>2009-07-08T07:04:13Z</time>
      </trkpt>
      <trkpt lat="44.30345" lon="3.39753">
        <ele>998</ele>
        <time>2009-07-08T07:04:22Z</time>
      </trkpt>
      <trkpt lat="44.30367" lon="3.39722">
        <ele>995</ele>
        <time>2009-07-08T07:04:32Z</time>
      </trkpt>
      <trkpt lat="44.30383" lon="3.397">
        <ele>992</ele>
        <time>2009-07-08T07:04:38Z</time>
      </trkpt>
      <trkpt lat="44.30414" lon="3.3967">
        <ele>990</ele>
        <time>2009-07-08T07:04:46Z</time>
      </trkpt>
      <trkpt lat="44.30419" lon="3.39665">
        <ele>988</ele>
        <time>2009-07-08T07:04:47Z</time>
      </trkpt>
      <trkpt lat="44.30438" lon="3.3965">
        <ele>984</ele>
        <time>2009-07-08T07:04:50Z</time>
      </trkpt>
      <trkpt lat="44.30462" lon="3.39634">
        <ele>980</ele>
        <time>2009-07-08T07:04:53Z</time>
      </trkpt>
      <trkpt lat="44.3047" lon="3.39629">
        <ele>979</ele>
        <time>2009-07-08T07:04:54Z</time>
      </trkpt>
      <trkpt lat="44.30514" lon="3.39619">
        <ele>980</ele>
        <time>2009-07-08T07:04:59Z</time>
      </trkpt>
      <trkpt lat="44.30526" lon="3.39596">
        <ele>981</ele>
        <time>2009-07-08T07:05:04Z</time>
      </trkpt>
      <trkpt lat="44.30519" lon="3.39542">
        <ele>981</ele>
        <time>2009-07-08T07:05:12Z</time>
      </trkpt>
      <trkpt lat="44.30523" lon="3.39523">
        <ele>979</ele>
        <time>2009-07-08T07:05:15Z</time>
      </trkpt>
      <trkpt lat="44.30531" lon="3.39514">
        <ele>977</ele>
        <time>2009-07-08T07:05:17Z</time>
      </trkpt>
      <trkpt lat="44.30565" lon="3.39491">
        <ele>978</ele>
        <time>2009-07-08T07:05:25Z</time>
      </trkpt>
      <trkpt lat="44.30587" lon="3.39468">
        <ele>976</ele>
        <time>2009-07-08T07:05:31Z</time>
      </trkpt>
      <trkpt lat="44.30589" lon="3.39462">
        <ele>975</ele>
        <time>2009-07-08T07:05:32Z</time>
      </trkpt>
      <trkpt lat="44.30601" lon="3.39432">
        <ele>970</ele>
        <time>2009-07-08T07:05:36Z</time>
      </trkpt>
      <trkpt lat="44.30614" lon="3.39379">
        <ele>965</ele>
        <time>2009-07-08T07:05:41Z</time>
      </trkpt>
      <trkpt lat="44.30618" lon="3.39368">
        <ele>961</ele>
        <time>2009-07-08T07:05:42Z</time>
      </trkpt>
      <trkpt lat="44.30634" lon="3.39335">
        <ele>957</ele>
        <time>2009-07-08T07:05:45Z</time>
      </trkpt>
      <trkpt lat="44.30647" lon="3.39315">
        <ele>954</ele>
        <time>2009-07-08T07:05:47Z</time>
      </trkpt>
      <trkpt lat="44.30659" lon="3.39283">
        <ele>951</ele>
        <time>2009-07-08T07:05:50Z</time>
      </trkpt>
      <trkpt lat="44.30661" lon="3.39271">
        <ele>950</ele>
        <time>2009-07-08T07:05:51Z</time>
      </trkpt>
      <trkpt lat="44.30665" lon="3.39244">
        <ele>947</ele>
        <time>2009-07-08T07:05:53Z</time>
      </trkpt>
      <trkpt lat="44.30665" lon="3.39187">
        <ele>944</ele>
        <time>2009-07-08T07:05:57Z</time>
      </trkpt>
      <trkpt lat="44.30664" lon="3.39142">
        <ele>940</ele>
        <time>2009-07-08T07:06:00Z</time>
      </trkpt>
      <trkpt lat="44.3067" lon="3.39102">
        <ele>938</ele>
        <time>2009-07-08T07:06:03Z</time>
      </trkpt>
      <trkpt lat="44.30669" lon="3.39045">
        <ele>935</ele>
        <time>2009-07-08T07:06:09Z</time>
      </trkpt>
      <trkpt lat="44.30648" lon="3.38894">
        <ele>934</ele>
        <time>2009-07-08T07:06:26Z</time>
      </trkpt>
      <trkpt lat="44.30644" lon="3.38867">
        <ele>936</ele>
        <time>2009-07-08T07:06:30Z</time>
      </trkpt>
      <trkpt lat="44.30652" lon="3.38774">
        <ele>935</ele>
        <time>2009-07-08T07:06:46Z</time>
      </trkpt>
      <trkpt lat="44.30651" lon="3.38734">
        <ele>935</ele>
        <time>2009-07-08T07:06:53Z</time>
      </trkpt>
      <trkpt lat="44.30643" lon="3.38684">
        <ele>932</ele>
        <time>2009-07-08T07:07:01Z</time>
      </trkpt>
      <trkpt lat="44.30627" lon="3.38617">
        <ele>930</ele>
        <time>2009-07-08T07:07:11Z</time>
      </trkpt>
      <trkpt lat="44.30617" lon="3.38519">
        <ele>927</ele>
        <time>2009-07-08T07:07:26Z</time>
      </trkpt>
      <trkpt lat="44.30617" lon="3.38513">
        <ele>927</ele>
        <time>2009-07-08T07:07:27Z</time>
      </trkpt>
      <trkpt lat="44.30634" lon="3.38423">
        <ele>924</ele>
        <time>2009-07-08T07:07:40Z</time>
      </trkpt>
      <trkpt lat="44.30636" lon="3.38415">
        <ele>924</ele>
        <time>2009-07-08T07:07:41Z</time>
      </trkpt>
      <trkpt lat="44.30643" lon="3.38382">
        <ele>920</ele>
        <time>2009-07-08T07:07:45Z</time>
      </trkpt>
      <trkpt lat="44.30645" lon="3.38374">
        <ele>921</ele>
        <time>2009-07-08T07:07:46Z</time>
      </trkpt>
      <trkpt lat="44.3065" lon="3.38358">
        <ele>920</ele>
        <time>2009-07-08T07:07:48Z</time>
      </trkpt>
      <trkpt lat="44.30658" lon="3.38343">
        <ele>918</ele>
        <time>2009-07-08T07:07:50Z</time>
      </trkpt>
      <trkpt lat="44.30667" lon="3.38291">
        <ele>917</ele>
        <time>2009-07-08T07:07:56Z</time>
      </trkpt>
      <trkpt lat="44.30661" lon="3.38222">
        <ele>916</ele>
        <time>2009-07-08T07:08:04Z</time>
      </trkpt>
      <trkpt lat="44.30664" lon="3.38196">
        <ele>914</ele>
        <time>2009-07-08T07:08:07Z</time>
      </trkpt>
      <trkpt lat="44.3067" lon="3.38161">
        <ele>912</ele>
        <time>2009-07-08T07:08:11Z</time>
      </trkpt>
      <trkpt lat="44.30663" lon="3.38107">
        <ele>911</ele>
        <time>2009-07-08T07:08:17Z</time>
      </trkpt>
      <trkpt lat="44.30662" lon="3.38044">
        <ele>905</ele>
        <time>2009-07-08T07:08:22Z</time>
      </trkpt>
      <trkpt lat="44.30666" lon="3.38">
        <ele>896</ele>
        <time>2009-07-08T07:08:25Z</time>
      </trkpt>
      <trkpt lat="44.30666" lon="3.37943">
        <ele>892</ele>
        <time>2009-07-08T07:08:29Z</time>
      </trkpt>
      <trkpt lat="44.30668" lon="3.37916">
        <ele>891</ele>
        <time>2009-07-08T07:08:31Z</time>
      </trkpt>
      <trkpt lat="44.30676" lon="3.3789">
        <ele>886</ele>
        <time>2009-07-08T07:08:33Z</time>
      </trkpt>
      <trkpt lat="44.30686" lon="3.37863">
        <ele>885</ele>
        <time>2009-07-08T07:08:35Z</time>
      </trkpt>
      <trkpt lat="44.3069" lon="3.37849">
        <ele>883</ele>
        <time>2009-07-08T07:08:36Z</time>
      </trkpt>
      <trkpt lat="44.30714" lon="3.37796">
        <ele>878</ele>
        <time>2009-07-08T07:08:40Z</time>
      </trkpt>
      <trkpt lat="44.30728" lon="3.37769">
        <ele>874</ele>
        <time>2009-07-08T07:08:42Z</time>
      </trkpt>
      <trkpt lat="44.30755" lon="3.37726">
        <ele>870</ele>
        <time>2009-07-08T07:08:46Z</time>
      </trkpt>
      <trkpt lat="44.30769" lon="3.37696">
        <ele>865</ele>
        <time>2009-07-08T07:08:49Z</time>
      </trkpt>
      <trkpt lat="44.30773" lon="3.37685">
        <ele>862</ele>
        <time>2009-07-08T07:08:50Z</time>
      </trkpt>
      <trkpt lat="44.3079" lon="3.37654">
        <ele>858</ele>
        <time>2009-07-08T07:08:53Z</time>
      </trkpt>
      <trkpt lat="44.30796" lon="3.37643">
        <ele>859</ele>
        <time>2009-07-08T07:08:54Z</time>
      </trkpt>
      <trkpt lat="44.30806" lon="3.37618">
        <ele>854</ele>
        <time>2009-07-08T07:08:56Z</time>
      </trkpt>
      <trkpt lat="44.30816" lon="3.37577">
        <ele>853</ele>
        <time>2009-07-08T07:08:59Z</time>
      </trkpt>
      <trkpt lat="44.30819" lon="3.37563">
        <ele>852</ele>
        <time>2009-07-08T07:09:00Z</time>
      </trkpt>
      <trkpt lat="44.30834" lon="3.3751">
        <ele>847</ele>
        <time>2009-07-08T07:09:04Z</time>
      </trkpt>
      <trkpt lat="44.30837" lon="3.3747">
        <ele>846</ele>
        <time>2009-07-08T07:09:07Z</time>
      </trkpt>
      <trkpt lat="44.30835" lon="3.37457">
        <ele>846</ele>
        <time>2009-07-08T07:09:08Z</time>
      </trkpt>
      <trkpt lat="44.30838" lon="3.37388">
        <ele>841</ele>
        <time>2009-07-08T07:09:13Z</time>
      </trkpt>
      <trkpt lat="44.30853" lon="3.37308">
        <ele>841</ele>
        <time>2009-07-08T07:09:22Z</time>
      </trkpt>
      <trkpt lat="44.30855" lon="3.37298">
        <ele>842</ele>
        <time>2009-07-08T07:09:32Z</time>
      </trkpt>
      <trkpt lat="44.30856" lon="3.37297">
        <ele>842</ele>
        <time>2009-07-08T07:10:38Z</time>
      </trkpt>
      <trkpt lat="44.30856" lon="3.37294">
        <ele>841</ele>
        <time>2009-07-08T07:10:49Z</time>
      </trkpt>
      <trkpt lat="44.30854" lon="3.37293">
        <ele>840</ele>
        <time>2009-07-08T07:13:50Z</time>
      </trkpt>
      <trkpt lat="44.30855" lon="3.37293">
        <ele>841</ele>
        <time>2009-07-08T07:15:16Z</time>
      </trkpt>
      <trkpt lat="44.30864" lon="3.37266">
        <ele>840</ele>
        <time>2009-07-08T07:15:26Z</time>
      </trkpt>
      <trkpt lat="44.30878" lon="3.37223">
        <ele>838</ele>
        <time>2009-07-08T07:15:34Z</time>
      </trkpt>
      <trkpt lat="44.30881" lon="3.37198">
        <ele>837</ele>
        <time>2009-07-08T07:15:38Z</time>
      </trkpt>
      <trkpt lat="44.30878" lon="3.37174">
        <ele>838</ele>
        <time>2009-07-08T07:15:42Z</time>
      </trkpt>
      <trkpt lat="44.30832" lon="3.37061">
        <ele>836</ele>
        <time>2009-07-08T07:16:00Z</time>
      </trkpt>
      <trkpt lat="44.3083" lon="3.37054">
        <ele>835</ele>
        <time>2009-07-08T07:16:01Z</time>
      </trkpt>
      <trkpt lat="44.30788" lon="3.3697">
        <ele>835</ele>
        <time>2009-07-08T07:16:16Z</time>
      </trkpt>
      <trkpt lat="44.3078" lon="3.36952">
        <ele>835</ele>
        <time>2009-07-08T07:16:19Z</time>
      </trkpt>
      <trkpt lat="44.30777" lon="3.36879">
        <ele>836</ele>
        <time>2009-07-08T07:16:31Z</time>
      </trkpt>
      <trkpt lat="44.30778" lon="3.36868">
        <ele>836</ele>
        <time>2009-07-08T07:16:33Z</time>
      </trkpt>
      <trkpt lat="44.30768" lon="3.36805">
        <ele>839</ele>
        <time>2009-07-08T07:16:46Z</time>
      </trkpt>
      <trkpt lat="44.30755" lon="3.36732">
        <ele>842</ele>
        <time>2009-07-08T07:17:05Z</time>
      </trkpt>
      <trkpt lat="44.3075" lon="3.36694">
        <ele>845</ele>
        <time>2009-07-08T07:17:15Z</time>
      </trkpt>
      <trkpt lat="44.30745" lon="3.36653">
        <ele>848</ele>
        <time>2009-07-08T07:17:28Z</time>
      </trkpt>
      <trkpt lat="44.30748" lon="3.3665">
        <ele>850</ele>
        <time>2009-07-08T07:17:30Z</time>
      </trkpt>
      <trkpt lat="44.30754" lon="3.36647">
        <ele>851</ele>
        <time>2009-07-08T07:17:33Z</time>
      </trkpt>
      <trkpt lat="44.30758" lon="3.36636">
        <ele>852</ele>
        <time>2009-07-08T07:17:38Z</time>
      </trkpt>
      <trkpt lat="44.30762" lon="3.36599">
        <ele>854</ele>
        <time>2009-07-08T07:17:50Z</time>
      </trkpt>
      <trkpt lat="44.30773" lon="3.36557">
        <ele>857</ele>
        <time>2009-07-08T07:18:06Z</time>
      </trkpt>
      <trkpt lat="44.30769" lon="3.36524">
        <ele>857</ele>
        <time>2009-07-08T07:18:20Z</time>
      </trkpt>
      <trkpt lat="44.30767" lon="3.36517">
        <ele>858</ele>
        <time>2009-07-08T07:18:24Z</time>
      </trkpt>
      <trkpt lat="44.30755" lon="3.36487">
        <ele>858</ele>
        <time>2009-07-08T07:18:41Z</time>
      </trkpt>
      <trkpt lat="44.30742" lon="3.36455">
        <ele>860</ele>
        <time>2009-07-08T07:18:55Z</time>
      </trkpt>
      <trkpt lat="44.30734" lon="3.36422">
        <ele>862</ele>
        <time>2009-07-08T07:19:07Z</time>
      </trkpt>
      <trkpt lat="44.30734" lon="3.36414">
        <ele>861</ele>
        <time>2009-07-08T07:19:17Z</time>
      </trkpt>
      <trkpt lat="44.30734" lon="3.36414">
        <ele>861</ele>
        <time>2009-07-08T07:19:48Z</time>
      </trkpt>
      <trkpt lat="44.30735" lon="3.36416">
        <ele>860</ele>
        <time>2009-07-08T07:20:41Z</time>
      </trkpt>
      <trkpt lat="44.30735" lon="3.36415">
        <ele>860</ele>
        <time>2009-07-08T07:21:02Z</time>
      </trkpt>
      <trkpt lat="44.30751" lon="3.36396">
        <ele>860</ele>
        <time>2009-07-08T07:21:13Z</time>
      </trkpt>
      <trkpt lat="44.30754" lon="3.36354">
        <ele>862</ele>
        <time>2009-07-08T07:21:26Z</time>
      </trkpt>
      <trkpt lat="44.30757" lon="3.36293">
        <ele>864</ele>
        <time>2009-07-08T07:21:45Z</time>
      </trkpt>
      <trkpt lat="44.30773" lon="3.3624">
        <ele>867</ele>
        <time>2009-07-08T07:22:03Z</time>
      </trkpt>
      <trkpt lat="44.30789" lon="3.36196">
        <ele>870</ele>
        <time>2009-07-08T07:22:18Z</time>
      </trkpt>
      <trkpt lat="44.30822" lon="3.36151">
        <ele>870</ele>
        <time>2009-07-08T07:22:35Z</time>
      </trkpt>
      <trkpt lat="44.30869" lon="3.36113">
        <ele>870</ele>
        <time>2009-07-08T07:22:51Z</time>
      </trkpt>
      <trkpt lat="44.30918" lon="3.36075">
        <ele>870</ele>
        <time>2009-07-08T07:23:08Z</time>
      </trkpt>
      <trkpt lat="44.30952" lon="3.36047">
        <ele>868</ele>
        <time>2009-07-08T07:23:19Z</time>
      </trkpt>
      <trkpt lat="44.30979" lon="3.36034">
        <ele>867</ele>
        <time>2009-07-08T07:23:26Z</time>
      </trkpt>
      <trkpt lat="44.31045" lon="3.35991">
        <ele>867</ele>
        <time>2009-07-08T07:23:44Z</time>
      </trkpt>
      <trkpt lat="44.31058" lon="3.35941">
        <ele>867</ele>
        <time>2009-07-08T07:23:55Z</time>
      </trkpt>
      <trkpt lat="44.31087" lon="3.3589">
        <ele>869</ele>
        <time>2009-07-08T07:24:09Z</time>
      </trkpt>
      <trkpt lat="44.31131" lon="3.35857">
        <ele>871</ele>
        <time>2009-07-08T07:24:26Z</time>
      </trkpt>
      <trkpt lat="44.31173" lon="3.35796">
        <ele>872</ele>
        <time>2009-07-08T07:24:44Z</time>
      </trkpt>
      <trkpt lat="44.31197" lon="3.35761">
        <ele>869</ele>
        <time>2009-07-08T07:24:53Z</time>
      </trkpt>
      <trkpt lat="44.312" lon="3.35757">
        <ele>869</ele>
        <time>2009-07-08T07:24:54Z</time>
      </trkpt>
      <trkpt lat="44.31245" lon="3.357">
        <ele>870</ele>
        <time>2009-07-08T07:25:10Z</time>
      </trkpt>
      <trkpt lat="44.31266" lon="3.35655">
        <ele>866</ele>
        <time>2009-07-08T07:25:20Z</time>
      </trkpt>
      <trkpt lat="44.31268" lon="3.35649">
        <ele>865</ele>
        <time>2009-07-08T07:25:21Z</time>
      </trkpt>
      <trkpt lat="44.31307" lon="3.35604">
        <ele>865</ele>
        <time>2009-07-08T07:25:32Z</time>
      </trkpt>
      <trkpt lat="44.31357" lon="3.35542">
        <ele>863</ele>
        <time>2009-07-08T07:25:47Z</time>
      </trkpt>
      <trkpt lat="44.31385" lon="3.35498">
        <ele>864</ele>
        <time>2009-07-08T07:25:58Z</time>
      </trkpt>
      <trkpt lat="44.31425" lon="3.35426">
        <ele>863</ele>
        <time>2009-07-08T07:26:15Z</time>
      </trkpt>
      <trkpt lat="44.31427" lon="3.35421">
        <ele>864</ele>
        <time>2009-07-08T07:26:16Z</time>
      </trkpt>
      <trkpt lat="44.31456" lon="3.35365">
        <ele>864</ele>
        <time>2009-07-08T07:26:29Z</time>
      </trkpt>
      <trkpt lat="44.31455" lon="3.3536">
        <ele>863</ele>
        <time>2009-07-08T07:26:42Z</time>
      </trkpt>
      <trkpt lat="44.31454" lon="3.35362">
        <ele>864</ele>
        <time>2009-07-08T07:27:20Z</time>
      </trkpt>
      <trkpt lat="44.31453" lon="3.35362">
        <ele>864</ele>
        <time>2009-07-08T07:27:50Z</time>
      </trkpt>
      <trkpt lat="44.31453" lon="3.35363">
        <ele>862</ele>
        <time>2009-07-08T07:29:03Z</time>
      </trkpt>
      <trkpt lat="44.31453" lon="3.35362">
        <ele>862</ele>
        <time>2009-07-08T07:29:09Z</time>
      </trkpt>
      <trkpt lat="44.31454" lon="3.35354">
        <ele>862</ele>
        <time>2009-07-08T07:29:13Z</time>
      </trkpt>
      <trkpt lat="44.31472" lon="3.35349">
        <ele>860</ele>
        <time>2009-07-08T07:29:20Z</time>
      </trkpt>
      <trkpt lat="44.31483" lon="3.3536">
        <ele>858</ele>
        <time>2009-07-08T07:29:23Z</time>
      </trkpt>
      <trkpt lat="44.31488" lon="3.35368">
        <ele>857</ele>
        <time>2009-07-08T07:29:25Z</time>
      </trkpt>
      <trkpt lat="44.31496" lon="3.35374">
        <ele>856</ele>
        <time>2009-07-08T07:29:27Z</time>
      </trkpt>
      <trkpt lat="44.3151" lon="3.35383">
        <ele>855</ele>
        <time>2009-07-08T07:29:30Z</time>
      </trkpt>
      <trkpt lat="44.31515" lon="3.35386">
        <ele>855</ele>
        <time>2009-07-08T07:29:31Z</time>
      </trkpt>
      <trkpt lat="44.31531" lon="3.35409">
        <ele>853</ele>
        <time>2009-07-08T07:29:36Z</time>
      </trkpt>
      <trkpt lat="44.31535" lon="3.35423">
        <ele>852</ele>
        <time>2009-07-08T07:29:38Z</time>
      </trkpt>
      <trkpt lat="44.31537" lon="3.3543">
        <ele>850</ele>
        <time>2009-07-08T07:29:39Z</time>
      </trkpt>
      <trkpt lat="44.31545" lon="3.35451">
        <ele>847</ele>
        <time>2009-07-08T07:29:42Z</time>
      </trkpt>
      <trkpt lat="44.31551" lon="3.35465">
        <ele>846</ele>
        <time>2009-07-08T07:29:45Z</time>
      </trkpt>
      <trkpt lat="44.31565" lon="3.35486">
        <ele>842</ele>
        <time>2009-07-08T07:29:50Z</time>
      </trkpt>
      <trkpt lat="44.31566" lon="3.35493">
        <ele>841</ele>
        <time>2009-07-08T07:29:51Z</time>
      </trkpt>
      <trkpt lat="44.31573" lon="3.35523">
        <ele>840</ele>
        <time>2009-07-08T07:29:55Z</time>
      </trkpt>
      <trkpt lat="44.31589" lon="3.35551">
        <ele>838</ele>
        <time>2009-07-08T07:30:01Z</time>
      </trkpt>
      <trkpt lat="44.31609" lon="3.35579">
        <ele>836</ele>
        <time>2009-07-08T07:30:06Z</time>
      </trkpt>
      <trkpt lat="44.31646" lon="3.35592">
        <ele>832</ele>
        <time>2009-07-08T07:30:14Z</time>
      </trkpt>
      <trkpt lat="44.31655" lon="3.35587">
        <ele>831</ele>
        <time>2009-07-08T07:30:16Z</time>
      </trkpt>
      <trkpt lat="44.3167" lon="3.35576">
        <ele>826</ele>
        <time>2009-07-08T07:30:20Z</time>
      </trkpt>
      <trkpt lat="44.31686" lon="3.35567">
        <ele>823</ele>
        <time>2009-07-08T07:30:25Z</time>
      </trkpt>
      <trkpt lat="44.31696" lon="3.35559">
        <ele>820</ele>
        <time>2009-07-08T07:30:28Z</time>
      </trkpt>
      <trkpt lat="44.31713" lon="3.3555">
        <ele>815</ele>
        <time>2009-07-08T07:30:32Z</time>
      </trkpt>
      <trkpt lat="44.31722" lon="3.35546">
        <ele>815</ele>
        <time>2009-07-08T07:30:39Z</time>
      </trkpt>
      <trkpt lat="44.31728" lon="3.35544">
        <ele>813</ele>
        <time>2009-07-08T07:30:58Z</time>
      </trkpt>
      <trkpt lat="44.31734" lon="3.35543">
        <ele>813</ele>
        <time>2009-07-08T07:31:00Z</time>
      </trkpt>
      <trkpt lat="44.31747" lon="3.35547">
        <ele>811</ele>
        <time>2009-07-08T07:31:03Z</time>
      </trkpt>
      <trkpt lat="44.31751" lon="3.3555">
        <ele>810</ele>
        <time>2009-07-08T07:31:04Z</time>
      </trkpt>
      <trkpt lat="44.31765" lon="3.35556">
        <ele>807</ele>
        <time>2009-07-08T07:31:07Z</time>
      </trkpt>
      <trkpt lat="44.3178" lon="3.35561">
        <ele>802</ele>
        <time>2009-07-08T07:31:10Z</time>
      </trkpt>
      <trkpt lat="44.31793" lon="3.35565">
        <ele>798</ele>
        <time>2009-07-08T07:31:12Z</time>
      </trkpt>
      <trkpt lat="44.31802" lon="3.35561">
        <ele>795</ele>
        <time>2009-07-08T07:31:18Z</time>
      </trkpt>
      <trkpt lat="44.31799" lon="3.35556">
        <ele>793</ele>
        <time>2009-07-08T07:31:19Z</time>
      </trkpt>
      <trkpt lat="44.31786" lon="3.3553">
        <ele>788</ele>
        <time>2009-07-08T07:31:24Z</time>
      </trkpt>
      <trkpt lat="44.31777" lon="3.35512">
        <ele>785</ele>
        <time>2009-07-08T07:31:27Z</time>
      </trkpt>
      <trkpt lat="44.31771" lon="3.35501">
        <ele>781</ele>
        <time>2009-07-08T07:31:29Z</time>
      </trkpt>
      <trkpt lat="44.31764" lon="3.35491">
        <ele>779</ele>
        <time>2009-07-08T07:31:31Z</time>
      </trkpt>
      <trkpt lat="44.31748" lon="3.35475">
        <ele>775</ele>
        <time>2009-07-08T07:31:35Z</time>
      </trkpt>
      <trkpt lat="44.31744" lon="3.35473">
        <ele>774</ele>
        <time>2009-07-08T07:31:36Z</time>
      </trkpt>
      <trkpt lat="44.31727" lon="3.35469">
        <ele>773</ele>
        <time>2009-07-08T07:31:40Z</time>
      </trkpt>
      <trkpt lat="44.31718" lon="3.35464">
        <ele>772</ele>
        <time>2009-07-08T07:31:42Z</time>
      </trkpt>
      <trkpt lat="44.31709" lon="3.35461">
        <ele>770</ele>
        <time>2009-07-08T07:31:44Z</time>
      </trkpt>
      <trkpt lat="44.31686" lon="3.35454">
        <ele>768</ele>
        <time>2009-07-08T07:31:49Z</time>
      </trkpt>
      <trkpt lat="44.31671" lon="3.35445">
        <ele>766</ele>
        <time>2009-07-08T07:31:53Z</time>
      </trkpt>
      <trkpt lat="44.31661" lon="3.35428">
        <ele>762</ele>
        <time>2009-07-08T07:31:56Z</time>
      </trkpt>
      <trkpt lat="44.31652" lon="3.35409">
        <ele>761</ele>
        <time>2009-07-08T07:32:01Z</time>
      </trkpt>
      <trkpt lat="44.31649" lon="3.35399">
        <ele>760</ele>
        <time>2009-07-08T07:32:03Z</time>
      </trkpt>
      <trkpt lat="44.31647" lon="3.35386">
        <ele>758</ele>
        <time>2009-07-08T07:32:05Z</time>
      </trkpt>
      <trkpt lat="44.31642" lon="3.35363">
        <ele>755</ele>
        <time>2009-07-08T07:32:09Z</time>
      </trkpt>
      <trkpt lat="44.31648" lon="3.35369">
        <ele>753</ele>
        <time>2009-07-08T07:32:13Z</time>
      </trkpt>
      <trkpt lat="44.3165" lon="3.35373">
        <ele>753</ele>
        <time>2009-07-08T07:32:14Z</time>
      </trkpt>
      <trkpt lat="44.31671" lon="3.35405">
        <ele>752</ele>
        <time>2009-07-08T07:32:21Z</time>
      </trkpt>
      <trkpt lat="44.31674" lon="3.35403">
        <ele>750</ele>
        <time>2009-07-08T07:32:28Z</time>
      </trkpt>
      <trkpt lat="44.31673" lon="3.35393">
        <ele>747</ele>
        <time>2009-07-08T07:32:42Z</time>
      </trkpt>
      <trkpt lat="44.3167" lon="3.35389">
        <ele>746</ele>
        <time>2009-07-08T07:34:13Z</time>
      </trkpt>
      <trkpt lat="44.31668" lon="3.35373">
        <ele>743</ele>
        <time>2009-07-08T07:34:20Z</time>
      </trkpt>
      <trkpt lat="44.31663" lon="3.35347">
        <ele>738</ele>
        <time>2009-07-08T07:34:26Z</time>
      </trkpt>
      <trkpt lat="44.31661" lon="3.35332">
        <ele>733</ele>
        <time>2009-07-08T07:34:29Z</time>
      </trkpt>
      <trkpt lat="44.31661" lon="3.35327">
        <ele>731</ele>
        <time>2009-07-08T07:34:30Z</time>
      </trkpt>
      <trkpt lat="44.31661" lon="3.353">
        <ele>727</ele>
        <time>2009-07-08T07:34:35Z</time>
      </trkpt>
      <trkpt lat="44.31657" lon="3.35271">
        <ele>724</ele>
        <time>2009-07-08T07:34:42Z</time>
      </trkpt>
      <trkpt lat="44.31652" lon="3.3526">
        <ele>723</ele>
        <time>2009-07-08T07:34:49Z</time>
      </trkpt>
      <trkpt lat="44.31653" lon="3.35242">
        <ele>719</ele>
        <time>2009-07-08T07:35:00Z</time>
      </trkpt>
      <trkpt lat="44.31653" lon="3.35236">
        <ele>718</ele>
        <time>2009-07-08T07:35:02Z</time>
      </trkpt>
      <trkpt lat="44.31654" lon="3.35231">
        <ele>718</ele>
        <time>2009-07-08T07:35:05Z</time>
      </trkpt>
      <trkpt lat="44.31658" lon="3.35243">
        <ele>716</ele>
        <time>2009-07-08T07:35:09Z</time>
      </trkpt>
      <trkpt lat="44.31671" lon="3.35258">
        <ele>713</ele>
        <time>2009-07-08T07:35:15Z</time>
      </trkpt>
      <trkpt lat="44.31682" lon="3.35271">
        <ele>709</ele>
        <time>2009-07-08T07:35:19Z</time>
      </trkpt>
      <trkpt lat="44.3169" lon="3.3528">
        <ele>707</ele>
        <time>2009-07-08T07:35:22Z</time>
      </trkpt>
      <trkpt lat="44.31715" lon="3.35297">
        <ele>704</ele>
        <time>2009-07-08T07:35:30Z</time>
      </trkpt>
      <trkpt lat="44.31728" lon="3.35298">
        <ele>702</ele>
        <time>2009-07-08T07:35:33Z</time>
      </trkpt>
      <trkpt lat="44.31741" lon="3.35301">
        <ele>698</ele>
        <time>2009-07-08T07:35:36Z</time>
      </trkpt>
      <trkpt lat="44.31762" lon="3.35302">
        <ele>695</ele>
        <time>2009-07-08T07:35:41Z</time>
      </trkpt>
      <trkpt lat="44.31756" lon="3.35291">
        <ele>692</ele>
        <time>2009-07-08T07:35:46Z</time>
      </trkpt>
      <trkpt lat="44.31741" lon="3.3527">
        <ele>690</ele>
        <time>2009-07-08T07:35:51Z</time>
      </trkpt>
      <trkpt lat="44.3174" lon="3.35264">
        <ele>688</ele>
        <time>2009-07-08T07:35:53Z</time>
      </trkpt>
      <trkpt lat="44.31753" lon="3.35266">
        <ele>685</ele>
        <time>2009-07-08T07:35:57Z</time>
      </trkpt>
      <trkpt lat="44.31769" lon="3.35268">
        <ele>681</ele>
        <time>2009-07-08T07:36:01Z</time>
      </trkpt>
      <trkpt lat="44.31767" lon="3.35258">
        <ele>679</ele>
        <time>2009-07-08T07:36:06Z</time>
      </trkpt>
      <trkpt lat="44.31755" lon="3.35239">
        <ele>675</ele>
        <time>2009-07-08T07:36:10Z</time>
      </trkpt>
      <trkpt lat="44.31738" lon="3.3522">
        <ele>671</ele>
        <time>2009-07-08T07:36:15Z</time>
      </trkpt>
      <trkpt lat="44.31732" lon="3.35206">
        <ele>670</ele>
        <time>2009-07-08T07:36:18Z</time>
      </trkpt>
      <trkpt lat="44.31742" lon="3.35205">
        <ele>667</ele>
        <time>2009-07-08T07:36:23Z</time>
      </trkpt>
      <trkpt lat="44.31756" lon="3.35208">
        <ele>664</ele>
        <time>2009-07-08T07:36:26Z</time>
      </trkpt>
      <trkpt lat="44.31773" lon="3.35211">
        <ele>661</ele>
        <time>2009-07-08T07:36:30Z</time>
      </trkpt>
      <trkpt lat="44.31774" lon="3.35212">
        <ele>661</ele>
        <time>2009-07-08T07:36:31Z</time>
      </trkpt>
      <trkpt lat="44.31771" lon="3.35202">
        <ele>659</ele>
        <time>2009-07-08T07:36:35Z</time>
      </trkpt>
      <trkpt lat="44.31765" lon="3.35196">
        <ele>657</ele>
        <time>2009-07-08T07:36:37Z</time>
      </trkpt>
      <trkpt lat="44.31759" lon="3.3519">
        <ele>656</ele>
        <time>2009-07-08T07:36:39Z</time>
      </trkpt>
      <trkpt lat="44.31754" lon="3.35168">
        <ele>652</ele>
        <time>2009-07-08T07:36:46Z</time>
      </trkpt>
      <trkpt lat="44.31773" lon="3.35177">
        <ele>649</ele>
        <time>2009-07-08T07:36:52Z</time>
      </trkpt>
      <trkpt lat="44.31775" lon="3.35177">
        <ele>649</ele>
        <time>2009-07-08T07:36:53Z</time>
      </trkpt>
      <trkpt lat="44.31779" lon="3.35176">
        <ele>647</ele>
        <time>2009-07-08T07:36:55Z</time>
      </trkpt>
      <trkpt lat="44.3178" lon="3.35176">
        <ele>647</ele>
        <time>2009-07-08T07:36:56Z</time>
      </trkpt>
      <trkpt lat="44.31785" lon="3.35175">
        <ele>646</ele>
        <time>2009-07-08T07:36:59Z</time>
      </trkpt>
      <trkpt lat="44.31783" lon="3.35169">
        <ele>645</ele>
        <time>2009-07-08T07:37:02Z</time>
      </trkpt>
      <trkpt lat="44.31776" lon="3.35163">
        <ele>643</ele>
        <time>2009-07-08T07:37:05Z</time>
      </trkpt>
      <trkpt lat="44.31774" lon="3.35161">
        <ele>642</ele>
        <time>2009-07-08T07:37:06Z</time>
      </trkpt>
      <trkpt lat="44.31774" lon="3.35157">
        <ele>641</ele>
        <time>2009-07-08T07:37:08Z</time>
      </trkpt>
      <trkpt lat="44.31785" lon="3.35157">
        <ele>640</ele>
        <time>2009-07-08T07:37:17Z</time>
      </trkpt>
      <trkpt lat="44.31786" lon="3.35157">
        <ele>640</ele>
        <time>2009-07-08T07:37:21Z</time>
      </trkpt>
      <trkpt lat="44.31793" lon="3.35167">
        <ele>639</ele>
        <time>2009-07-08T07:37:26Z</time>
      </trkpt>
      <trkpt lat="44.31812" lon="3.3517">
        <ele>636</ele>
        <time>2009-07-08T07:37:34Z</time>
      </trkpt>
      <trkpt lat="44.31817" lon="3.35164">
        <ele>635</ele>
        <time>2009-07-08T07:37:36Z</time>
      </trkpt>
      <trkpt lat="44.31825" lon="3.35149">
        <ele>631</ele>
        <time>2009-07-08T07:37:41Z</time>
      </trkpt>
      <trkpt lat="44.31828" lon="3.35148">
        <ele>630</ele>
        <time>2009-07-08T07:37:42Z</time>
      </trkpt>
      <trkpt lat="44.31834" lon="3.35146">
        <ele>629</ele>
        <time>2009-07-08T07:37:44Z</time>
      </trkpt>
      <trkpt lat="44.31835" lon="3.35145">
        <ele>629</ele>
        <time>2009-07-08T07:37:46Z</time>
      </trkpt>
      <trkpt lat="44.31831" lon="3.35132">
        <ele>625</ele>
        <time>2009-07-08T07:37:55Z</time>
      </trkpt>
      <trkpt lat="44.31843" lon="3.35125">
        <ele>622</ele>
        <time>2009-07-08T07:37:59Z</time>
      </trkpt>
      <trkpt lat="44.31861" lon="3.35107">
        <ele>617</ele>
        <time>2009-07-08T07:38:04Z</time>
      </trkpt>
      <trkpt lat="44.31872" lon="3.35095">
        <ele>613</ele>
        <time>2009-07-08T07:38:07Z</time>
      </trkpt>
      <trkpt lat="44.31889" lon="3.3508">
        <ele>610</ele>
        <time>2009-07-08T07:38:12Z</time>
      </trkpt>
      <trkpt lat="44.31901" lon="3.35073">
        <ele>606</ele>
        <time>2009-07-08T07:38:16Z</time>
      </trkpt>
      <trkpt lat="44.31905" lon="3.35071">
        <ele>606</ele>
        <time>2009-07-08T07:38:17Z</time>
      </trkpt>
      <trkpt lat="44.31922" lon="3.35067">
        <ele>603</ele>
        <time>2009-07-08T07:38:21Z</time>
      </trkpt>
      <trkpt lat="44.31932" lon="3.35064">
        <ele>600</ele>
        <time>2009-07-08T07:38:23Z</time>
      </trkpt>
      <trkpt lat="44.31937" lon="3.35062">
        <ele>599</ele>
        <time>2009-07-08T07:38:24Z</time>
      </trkpt>
      <trkpt lat="44.31951" lon="3.35058">
        <ele>596</ele>
        <time>2009-07-08T07:38:27Z</time>
      </trkpt>
      <trkpt lat="44.31967" lon="3.35049">
        <ele>594</ele>
        <time>2009-07-08T07:38:31Z</time>
      </trkpt>
      <trkpt lat="44.31979" lon="3.3504">
        <ele>591</ele>
        <time>2009-07-08T07:38:34Z</time>
      </trkpt>
      <trkpt lat="44.31995" lon="3.35023">
        <ele>588</ele>
        <time>2009-07-08T07:38:40Z</time>
      </trkpt>
      <trkpt lat="44.31998" lon="3.35021">
        <ele>588</ele>
        <time>2009-07-08T07:38:41Z</time>
      </trkpt>
      <trkpt lat="44.32008" lon="3.35009">
        <ele>584</ele>
        <time>2009-07-08T07:38:45Z</time>
      </trkpt>
      <trkpt lat="44.32014" lon="3.35002">
        <ele>581</ele>
        <time>2009-07-08T07:38:47Z</time>
      </trkpt>
      <trkpt lat="44.32019" lon="3.34996">
        <ele>579</ele>
        <time>2009-07-08T07:38:49Z</time>
      </trkpt>
      <trkpt lat="44.32027" lon="3.34979">
        <ele>575</ele>
        <time>2009-07-08T07:38:53Z</time>
      </trkpt>
      <trkpt lat="44.3203" lon="3.34974">
        <ele>575</ele>
        <time>2009-07-08T07:38:54Z</time>
      </trkpt>
      <trkpt lat="44.32043" lon="3.34956">
        <ele>570</ele>
        <time>2009-07-08T07:38:59Z</time>
      </trkpt>
      <trkpt lat="44.32039" lon="3.34952">
        <ele>568</ele>
        <time>2009-07-08T07:39:03Z</time>
      </trkpt>
      <trkpt lat="44.32031" lon="3.34951">
        <ele>566</ele>
        <time>2009-07-08T07:39:07Z</time>
      </trkpt>
      <trkpt lat="44.32029" lon="3.34949">
        <ele>566</ele>
        <time>2009-07-08T07:39:18Z</time>
      </trkpt>
      <trkpt lat="44.32028" lon="3.34952">
        <ele>566</ele>
        <time>2009-07-08T07:40:29Z</time>
      </trkpt>
      <trkpt lat="44.32029" lon="3.34949">
        <ele>566</ele>
        <time>2009-07-08T07:40:53Z</time>
      </trkpt>
      <trkpt lat="44.32032" lon="3.34941">
        <ele>564</ele>
        <time>2009-07-08T07:40:58Z</time>
      </trkpt>
      <trkpt lat="44.32035" lon="3.34934">
        <ele>562</ele>
        <time>2009-07-08T07:41:01Z</time>
      </trkpt>
      <trkpt lat="44.32031" lon="3.34925">
        <ele>559</ele>
        <time>2009-07-08T07:41:08Z</time>
      </trkpt>
      <trkpt lat="44.32031" lon="3.34921">
        <ele>558</ele>
        <time>2009-07-08T07:41:10Z</time>
      </trkpt>
      <trkpt lat="44.32039" lon="3.34917">
        <ele>555</ele>
        <time>2009-07-08T07:41:14Z</time>
      </trkpt>
      <trkpt lat="44.32041" lon="3.34911">
        <ele>554</ele>
        <time>2009-07-08T07:41:17Z</time>
      </trkpt>
      <trkpt lat="44.32038" lon="3.34905">
        <ele>552</ele>
        <time>2009-07-08T07:41:19Z</time>
      </trkpt>
      <trkpt lat="44.32039" lon="3.3489">
        <ele>548</ele>
        <time>2009-07-08T07:41:25Z</time>
      </trkpt>
      <trkpt lat="44.32048" lon="3.34895">
        <ele>546</ele>
        <time>2009-07-08T07:41:28Z</time>
      </trkpt>
      <trkpt lat="44.32059" lon="3.34898">
        <ele>543</ele>
        <time>2009-07-08T07:41:32Z</time>
      </trkpt>
      <trkpt lat="44.32069" lon="3.34898">
        <ele>540</ele>
        <time>2009-07-08T07:41:35Z</time>
      </trkpt>
      <trkpt lat="44.32086" lon="3.34892">
        <ele>536</ele>
        <time>2009-07-08T07:41:40Z</time>
      </trkpt>
      <trkpt lat="44.32089" lon="3.34889">
        <ele>535</ele>
        <time>2009-07-08T07:41:41Z</time>
      </trkpt>
      <trkpt lat="44.32103" lon="3.34874">
        <ele>532</ele>
        <time>2009-07-08T07:41:45Z</time>
      </trkpt>
      <trkpt lat="44.32118" lon="3.34861">
        <ele>529</ele>
        <time>2009-07-08T07:41:49Z</time>
      </trkpt>
      <trkpt lat="44.32132" lon="3.34851">
        <ele>526</ele>
        <time>2009-07-08T07:41:52Z</time>
      </trkpt>
      <trkpt lat="44.32149" lon="3.34846">
        <ele>523</ele>
        <time>2009-07-08T07:41:55Z</time>
      </trkpt>
      <trkpt lat="44.32162" lon="3.34845">
        <ele>525</ele>
        <time>2009-07-08T07:41:59Z</time>
      </trkpt>
      <trkpt lat="44.32172" lon="3.34841">
        <ele>523</ele>
        <time>2009-07-08T07:42:20Z</time>
      </trkpt>
      <trkpt lat="44.32191" lon="3.34829">
        <ele>519</ele>
        <time>2009-07-08T07:42:25Z</time>
      </trkpt>
      <trkpt lat="44.32204" lon="3.3482">
        <ele>515</ele>
        <time>2009-07-08T07:42:28Z</time>
      </trkpt>
      <trkpt lat="44.32213" lon="3.34813">
        <ele>514</ele>
        <time>2009-07-08T07:42:30Z</time>
      </trkpt>
      <trkpt lat="44.3223" lon="3.34805">
        <ele>509</ele>
        <time>2009-07-08T07:42:34Z</time>
      </trkpt>
      <trkpt lat="44.32233" lon="3.34804">
        <ele>508</ele>
        <time>2009-07-08T07:42:35Z</time>
      </trkpt>
      <trkpt lat="44.32235" lon="3.34801">
        <ele>508</ele>
        <time>2009-07-08T07:42:37Z</time>
      </trkpt>
      <trkpt lat="44.32224" lon="3.34794">
        <ele>504</ele>
        <time>2009-07-08T07:42:42Z</time>
      </trkpt>
      <trkpt lat="44.32232" lon="3.34789">
        <ele>501</ele>
        <time>2009-07-08T07:42:47Z</time>
      </trkpt>
      <trkpt lat="44.32222" lon="3.34783">
        <ele>497</ele>
        <time>2009-07-08T07:42:52Z</time>
      </trkpt>
      <trkpt lat="44.32227" lon="3.34773">
        <ele>494</ele>
        <time>2009-07-08T07:42:57Z</time>
      </trkpt>
      <trkpt lat="44.32228" lon="3.3477">
        <ele>493</ele>
        <time>2009-07-08T07:43:00Z</time>
      </trkpt>
      <trkpt lat="44.32222" lon="3.34768">
        <ele>491</ele>
        <time>2009-07-08T07:43:10Z</time>
      </trkpt>
      <trkpt lat="44.32213" lon="3.34762">
        <ele>490</ele>
        <time>2009-07-08T07:44:00Z</time>
      </trkpt>
      <trkpt lat="44.32206" lon="3.34759">
        <ele>488</ele>
        <time>2009-07-08T07:44:02Z</time>
      </trkpt>
      <trkpt lat="44.32184" lon="3.3476">
        <ele>486</ele>
        <time>2009-07-08T07:44:07Z</time>
      </trkpt>
      <trkpt lat="44.32168" lon="3.34761">
        <ele>485</ele>
        <time>2009-07-08T07:44:10Z</time>
      </trkpt>
      <trkpt lat="44.32158" lon="3.3476">
        <ele>485</ele>
        <time>2009-07-08T07:44:12Z</time>
      </trkpt>
      <trkpt lat="44.32136" lon="3.34757">
        <ele>482</ele>
        <time>2009-07-08T07:44:17Z</time>
      </trkpt>
      <trkpt lat="44.32132" lon="3.34759">
        <ele>482</ele>
        <time>2009-07-08T07:44:26Z</time>
      </trkpt>
      <trkpt lat="44.32131" lon="3.3476">
        <ele>482</ele>
        <time>2009-07-08T07:44:42Z</time>
      </trkpt>
      <trkpt lat="44.32112" lon="3.3476">
        <ele>478</ele>
        <time>2009-07-08T07:44:49Z</time>
      </trkpt>
      <trkpt lat="44.32104" lon="3.34757">
        <ele>476</ele>
        <time>2009-07-08T07:44:51Z</time>
      </trkpt>
      <trkpt lat="44.3209" lon="3.34755">
        <ele>474</ele>
        <time>2009-07-08T07:44:54Z</time>
      </trkpt>
      <trkpt lat="44.32068" lon="3.34756">
        <ele>471</ele>
        <time>2009-07-08T07:44:59Z</time>
      </trkpt>
      <trkpt lat="44.32063" lon="3.34755">
        <ele>470</ele>
        <time>2009-07-08T07:45:02Z</time>
      </trkpt>
      <trkpt lat="44.32063" lon="3.34746">
        <ele>468</ele>
        <time>2009-07-08T07:45:06Z</time>
      </trkpt>
      <trkpt lat="44.32066" lon="3.34743">
        <ele>467</ele>
        <time>2009-07-08T07:45:08Z</time>
      </trkpt>
      <trkpt lat="44.32067" lon="3.34738">
        <ele>465</ele>
        <time>2009-07-08T07:45:12Z</time>
      </trkpt>
      <trkpt lat="44.32058" lon="3.34733">
        <ele>461</ele>
        <time>2009-07-08T07:45:16Z</time>
      </trkpt>
      <trkpt lat="44.3204" lon="3.34733">
        <ele>458</ele>
        <time>2009-07-08T07:45:20Z</time>
      </trkpt>
      <trkpt lat="44.32015" lon="3.34736">
        <ele>458</ele>
        <time>2009-07-08T07:45:30Z</time>
      </trkpt>
      <trkpt lat="44.32014" lon="3.34735">
        <ele>458</ele>
        <time>2009-07-08T07:46:05Z</time>
      </trkpt>
      <trkpt lat="44.32009" lon="3.34737">
        <ele>460</ele>
        <time>2009-07-08T07:46:11Z</time>
      </trkpt>
      <trkpt lat="44.31997" lon="3.34742">
        <ele>461</ele>
        <time>2009-07-08T07:46:26Z</time>
      </trkpt>
      <trkpt lat="44.31991" lon="3.34745">
        <ele>462</ele>
        <time>2009-07-08T07:46:38Z</time>
      </trkpt>
      <trkpt lat="44.3196" lon="3.34736">
        <ele>460</ele>
        <time>2009-07-08T07:46:51Z</time>
      </trkpt>
      <trkpt lat="44.31927" lon="3.34733">
        <ele>463</ele>
        <time>2009-07-08T07:47:08Z</time>
      </trkpt>
      <trkpt lat="44.31924" lon="3.34742">
        <ele>465</ele>
        <time>2009-07-08T07:47:20Z</time>
      </trkpt>
      <trkpt lat="44.31911" lon="3.34742">
        <ele>466</ele>
        <time>2009-07-08T07:47:31Z</time>
      </trkpt>
      <trkpt lat="44.31906" lon="3.34755">
        <ele>467</ele>
        <time>2009-07-08T07:47:45Z</time>
      </trkpt>
      <trkpt lat="44.3189" lon="3.34763">
        <ele>466</ele>
        <time>2009-07-08T07:47:54Z</time>
      </trkpt>
      <trkpt lat="44.31867" lon="3.34769">
        <ele>468</ele>
        <time>2009-07-08T07:48:07Z</time>
      </trkpt>
      <trkpt lat="44.31838" lon="3.34769">
        <ele>469</ele>
        <time>2009-07-08T07:48:21Z</time>
      </trkpt>
      <trkpt lat="44.31832" lon="3.3477">
        <ele>471</ele>
        <time>2009-07-08T07:48:25Z</time>
      </trkpt>
      <trkpt lat="44.31821" lon="3.34776">
        <ele>474</ele>
        <time>2009-07-08T07:48:35Z</time>
      </trkpt>
      <trkpt lat="44.31817" lon="3.34779">
        <ele>477</ele>
        <time>2009-07-08T07:48:40Z</time>
      </trkpt>
      <trkpt lat="44.31813" lon="3.34781">
        <ele>477</ele>
        <time>2009-07-08T07:48:51Z</time>
      </trkpt>
      <trkpt lat="44.31808" lon="3.34781">
        <ele>476</ele>
        <time>2009-07-08T07:48:55Z</time>
      </trkpt>
      <trkpt lat="44.31775" lon="3.34775">
        <ele>480</ele>
        <time>2009-07-08T07:49:12Z</time>
      </trkpt>
      <trkpt lat="44.31759" lon="3.34758">
        <ele>480</ele>
        <time>2009-07-08T07:49:21Z</time>
      </trkpt>
      <trkpt lat="44.31739" lon="3.34752">
        <ele>483</ele>
        <time>2009-07-08T07:49:35Z</time>
      </trkpt>
      <trkpt lat="44.31726" lon="3.34749">
        <ele>485</ele>
        <time>2009-07-08T07:49:45Z</time>
      </trkpt>
      <trkpt lat="44.31714" lon="3.34753">
        <ele>488</ele>
        <time>2009-07-08T07:49:57Z</time>
      </trkpt>
      <trkpt lat="44.3171" lon="3.34754">
        <ele>489</ele>
        <time>2009-07-08T07:50:13Z</time>
      </trkpt>
      <trkpt lat="44.317" lon="3.34761">
        <ele>490</ele>
        <time>2009-07-08T07:50:25Z</time>
      </trkpt>
      <trkpt lat="44.31691" lon="3.34769">
        <ele>492</ele>
        <time>2009-07-08T07:50:43Z</time>
      </trkpt>
      <trkpt lat="44.31684" lon="3.34767">
        <ele>495</ele>
        <time>2009-07-08T07:50:59Z</time>
      </trkpt>
      <trkpt lat="44.31684" lon="3.34766">
        <ele>496</ele>
        <time>2009-07-08T07:51:00Z</time>
      </trkpt>
      <trkpt lat="44.31677" lon="3.34745">
        <ele>496</ele>
        <time>2009-07-08T07:51:16Z</time>
      </trkpt>
      <trkpt lat="44.31669" lon="3.34724">
        <ele>499</ele>
        <time>2009-07-08T07:51:23Z</time>
      </trkpt>
      <trkpt lat="44.31649" lon="3.34691">
        <ele>501</ele>
        <time>2009-07-08T07:51:38Z</time>
      </trkpt>
      <trkpt lat="44.31649" lon="3.34691">
        <ele>501</ele>
        <time>2009-07-08T07:51:49Z</time>
      </trkpt>
      <trkpt lat="44.31647" lon="3.34685">
        <ele>501</ele>
        <time>2009-07-08T07:54:04Z</time>
      </trkpt>
      <trkpt lat="44.31632" lon="3.34654">
        <ele>502</ele>
        <time>2009-07-08T07:54:16Z</time>
      </trkpt>
      <trkpt lat="44.31623" lon="3.34651">
        <ele>506</ele>
        <time>2009-07-08T07:54:28Z</time>
      </trkpt>
      <trkpt lat="44.31622" lon="3.34651">
        <ele>506</ele>
        <time>2009-07-08T07:54:29Z</time>
      </trkpt>
      <trkpt lat="44.31614" lon="3.34652">
        <ele>508</ele>
        <time>2009-07-08T07:54:45Z</time>
      </trkpt>
      <trkpt lat="44.31611" lon="3.34652">
        <ele>510</ele>
        <time>2009-07-08T07:54:58Z</time>
      </trkpt>
      <trkpt lat="44.31594" lon="3.34631">
        <ele>511</ele>
        <time>2009-07-08T07:55:11Z</time>
      </trkpt>
      <trkpt lat="44.31588" lon="3.34588">
        <ele>511</ele>
        <time>2009-07-08T07:55:22Z</time>
      </trkpt>
      <trkpt lat="44.31588" lon="3.34585">
        <ele>512</ele>
        <time>2009-07-08T07:55:23Z</time>
      </trkpt>
      <trkpt lat="44.31581" lon="3.34546">
        <ele>515</ele>
        <time>2009-07-08T07:55:38Z</time>
      </trkpt>
      <trkpt lat="44.31581" lon="3.34542">
        <ele>517</ele>
        <time>2009-07-08T07:55:42Z</time>
      </trkpt>
      <trkpt lat="44.31581" lon="3.34538">
        <ele>517</ele>
        <time>2009-07-08T07:55:46Z</time>
      </trkpt>
      <trkpt lat="44.31578" lon="3.34527">
        <ele>519</ele>
        <time>2009-07-08T07:55:57Z</time>
      </trkpt>
      <trkpt lat="44.3157" lon="3.34511">
        <ele>516</ele>
        <time>2009-07-08T07:56:09Z</time>
      </trkpt>
      <trkpt lat="44.31565" lon="3.34508">
        <ele>515</ele>
        <time>2009-07-08T07:56:11Z</time>
      </trkpt>
      <trkpt lat="44.31539" lon="3.34513">
        <ele>514</ele>
        <time>2009-07-08T07:56:20Z</time>
      </trkpt>
      <trkpt lat="44.31519" lon="3.34518">
        <ele>514</ele>
        <time>2009-07-08T07:56:34Z</time>
      </trkpt>
      <trkpt lat="44.31518" lon="3.34514">
        <ele>513</ele>
        <time>2009-07-08T07:56:52Z</time>
      </trkpt>
      <trkpt lat="44.3152" lon="3.34511">
        <ele>511</ele>
        <time>2009-07-08T07:57:01Z</time>
      </trkpt>
      <trkpt lat="44.31528" lon="3.34501">
        <ele>508</ele>
        <time>2009-07-08T07:57:10Z</time>
      </trkpt>
      <trkpt lat="44.31532" lon="3.34494">
        <ele>505</ele>
        <time>2009-07-08T07:57:14Z</time>
      </trkpt>
      <trkpt lat="44.31535" lon="3.34493">
        <ele>504</ele>
        <time>2009-07-08T07:57:20Z</time>
      </trkpt>
      <trkpt lat="44.31541" lon="3.34491">
        <ele>503</ele>
        <time>2009-07-08T07:57:24Z</time>
      </trkpt>
      <trkpt lat="44.31545" lon="3.34483">
        <ele>500</ele>
        <time>2009-07-08T07:57:36Z</time>
      </trkpt>
      <trkpt lat="44.31542" lon="3.34479">
        <ele>500</ele>
        <time>2009-07-08T07:57:47Z</time>
      </trkpt>
      <trkpt lat="44.31548" lon="3.34475">
        <ele>498</ele>
        <time>2009-07-08T07:57:54Z</time>
      </trkpt>
      <trkpt lat="44.31555" lon="3.34471">
        <ele>495</ele>
        <time>2009-07-08T07:58:03Z</time>
      </trkpt>
      <trkpt lat="44.31554" lon="3.34468">
        <ele>493</ele>
        <time>2009-07-08T07:58:14Z</time>
      </trkpt>
      <trkpt lat="44.31553" lon="3.34462">
        <ele>490</ele>
        <time>2009-07-08T07:58:21Z</time>
      </trkpt>
      <trkpt lat="44.31553" lon="3.3446">
        <ele>489</ele>
        <time>2009-07-08T07:58:25Z</time>
      </trkpt>
      <trkpt lat="44.31556" lon="3.34428">
        <ele>488</ele>
        <time>2009-07-08T07:58:34Z</time>
      </trkpt>
      <trkpt lat="44.31555" lon="3.34421">
        <ele>488</ele>
        <time>2009-07-08T07:58:37Z</time>
      </trkpt>
      <trkpt lat="44.31556" lon="3.34415">
        <ele>488</ele>
        <time>2009-07-08T07:58:42Z</time>
      </trkpt>
      <trkpt lat="44.31559" lon="3.34414">
        <ele>487</ele>
        <time>2009-07-08T07:58:44Z</time>
      </trkpt>
      <trkpt lat="44.31564" lon="3.34414">
        <ele>485</ele>
        <time>2009-07-08T07:58:48Z</time>
      </trkpt>
      <trkpt lat="44.31566" lon="3.34403">
        <ele>483</ele>
        <time>2009-07-08T07:59:00Z</time>
      </trkpt>
      <trkpt lat="44.31572" lon="3.34395">
        <ele>480</ele>
        <time>2009-07-08T07:59:17Z</time>
      </trkpt>
      <trkpt lat="44.31582" lon="3.34397">
        <ele>478</ele>
        <time>2009-07-08T07:59:29Z</time>
      </trkpt>
      <trkpt lat="44.31582" lon="3.34399">
        <ele>478</ele>
        <time>2009-07-08T07:59:31Z</time>
      </trkpt>
      <trkpt lat="44.31583" lon="3.34404">
        <ele>479</ele>
        <time>2009-07-08T07:59:34Z</time>
      </trkpt>
      <trkpt lat="44.31581" lon="3.34417">
        <ele>477</ele>
        <time>2009-07-08T07:59:45Z</time>
      </trkpt>
      <trkpt lat="44.31578" lon="3.34426">
        <ele>478</ele>
        <time>2009-07-08T07:59:58Z</time>
      </trkpt>
      <trkpt lat="44.3158" lon="3.3443">
        <ele>475</ele>
        <time>2009-07-08T08:00:08Z</time>
      </trkpt>
      <trkpt lat="44.31585" lon="3.34427">
        <ele>473</ele>
        <time>2009-07-08T08:00:18Z</time>
      </trkpt>
      <trkpt lat="44.31591" lon="3.34417">
        <ele>471</ele>
        <time>2009-07-08T08:00:25Z</time>
      </trkpt>
      <trkpt lat="44.31598" lon="3.34402">
        <ele>468</ele>
        <time>2009-07-08T08:00:38Z</time>
      </trkpt>
      <trkpt lat="44.31597" lon="3.34397">
        <ele>466</ele>
        <time>2009-07-08T08:00:44Z</time>
      </trkpt>
      <trkpt lat="44.31596" lon="3.34392">
        <ele>465</ele>
        <time>2009-07-08T08:00:48Z</time>
      </trkpt>
      <trkpt lat="44.31595" lon="3.34386">
        <ele>463</ele>
        <time>2009-07-08T08:00:59Z</time>
      </trkpt>
      <trkpt lat="44.31592" lon="3.34387">
        <ele>464</ele>
        <time>2009-07-08T08:01:36Z</time>
      </trkpt>
      <trkpt lat="44.31615" lon="3.34372">
        <ele>466</ele>
        <time>2009-07-08T08:02:44Z</time>
      </trkpt>
      <trkpt lat="44.31597" lon="3.34382">
        <ele>467</ele>
        <time>2009-07-08T08:03:23Z</time>
      </trkpt>
      <trkpt lat="44.31592" lon="3.34389">
        <ele>468</ele>
        <time>2009-07-08T08:05:02Z</time>
      </trkpt>
      <trkpt lat="44.31594" lon="3.34387">
        <ele>467</ele>
        <time>2009-07-08T08:05:40Z</time>
      </trkpt>
      <trkpt lat="44.31585" lon="3.34391">
        <ele>467</ele>
        <time>2009-07-08T08:06:26Z</time>
      </trkpt>
      <trkpt lat="44.31587" lon="3.34387">
        <ele>467</ele>
        <time>2009-07-08T08:06:41Z</time>
      </trkpt>
      <trkpt lat="44.31588" lon="3.34352">
        <ele>467</ele>
        <time>2009-07-08T08:06:51Z</time>
      </trkpt>
      <trkpt lat="44.31591" lon="3.34329">
        <ele>466</ele>
        <time>2009-07-08T08:06:56Z</time>
      </trkpt>
      <trkpt lat="44.31588" lon="3.3429">
        <ele>467</ele>
        <time>2009-07-08T08:07:06Z</time>
      </trkpt>
      <trkpt lat="44.31588" lon="3.34282">
        <ele>466</ele>
        <time>2009-07-08T08:07:08Z</time>
      </trkpt>
      <trkpt lat="44.31576" lon="3.34234">
        <ele>466</ele>
        <time>2009-07-08T08:07:20Z</time>
      </trkpt>
      <trkpt lat="44.31574" lon="3.34225">
        <ele>466</ele>
        <time>2009-07-08T08:07:22Z</time>
      </trkpt>
      <trkpt lat="44.3157" lon="3.34171">
        <ele>466</ele>
        <time>2009-07-08T08:07:32Z</time>
      </trkpt>
      <trkpt lat="44.31566" lon="3.34151">
        <ele>466</ele>
        <time>2009-07-08T08:07:36Z</time>
      </trkpt>
      <trkpt lat="44.31556" lon="3.3414">
        <ele>467</ele>
        <time>2009-07-08T08:07:41Z</time>
      </trkpt>
      <trkpt lat="44.31543" lon="3.34102">
        <ele>467</ele>
        <time>2009-07-08T08:07:52Z</time>
      </trkpt>
      <trkpt lat="44.31528" lon="3.34045">
        <ele>467</ele>
        <time>2009-07-08T08:08:04Z</time>
      </trkpt>
      <trkpt lat="44.31514" lon="3.34016">
        <ele>467</ele>
        <time>2009-07-08T08:08:11Z</time>
      </trkpt>
      <trkpt lat="44.31492" lon="3.33971">
        <ele>466</ele>
        <time>2009-07-08T08:08:22Z</time>
      </trkpt>
      <trkpt lat="44.31465" lon="3.3394">
        <ele>466</ele>
        <time>2009-07-08T08:08:32Z</time>
      </trkpt>
      <trkpt lat="44.31428" lon="3.33907">
        <ele>465</ele>
        <time>2009-07-08T08:08:43Z</time>
      </trkpt>
      <trkpt lat="44.3142" lon="3.33899">
        <ele>465</ele>
        <time>2009-07-08T08:08:46Z</time>
      </trkpt>
      <trkpt lat="44.31413" lon="3.33901">
        <ele>466</ele>
        <time>2009-07-08T08:08:49Z</time>
      </trkpt>
      <trkpt lat="44.31387" lon="3.33889">
        <ele>466</ele>
        <time>2009-07-08T08:08:59Z</time>
      </trkpt>
      <trkpt lat="44.31376" lon="3.33884">
        <ele>467</ele>
        <time>2009-07-08T08:09:03Z</time>
      </trkpt>
      <trkpt lat="44.31355" lon="3.33868">
        <ele>466</ele>
        <time>2009-07-08T08:09:10Z</time>
      </trkpt>
      <trkpt lat="44.31333" lon="3.33852">
        <ele>466</ele>
        <time>2009-07-08T08:09:17Z</time>
      </trkpt>
      <trkpt lat="44.31328" lon="3.33848">
        <ele>465</ele>
        <time>2009-07-08T08:09:27Z</time>
      </trkpt>
      <trkpt lat="44.31325" lon="3.33848">
        <ele>463</ele>
        <time>2009-07-08T08:09:29Z</time>
      </trkpt>
      <trkpt lat="44.31322" lon="3.33849">
        <ele>465</ele>
        <time>2009-07-08T08:09:42Z</time>
      </trkpt>
      <trkpt lat="44.31315" lon="3.33843">
        <ele>463</ele>
        <time>2009-07-08T08:09:53Z</time>
      </trkpt>
      <trkpt lat="44.31311" lon="3.3384">
        <ele>462</ele>
        <time>2009-07-08T08:09:56Z</time>
      </trkpt>
      <trkpt lat="44.31308" lon="3.33838">
        <ele>463</ele>
        <time>2009-07-08T08:09:58Z</time>
      </trkpt>
      <trkpt lat="44.31305" lon="3.33837">
        <ele>463</ele>
        <time>2009-07-08T08:10:00Z</time>
      </trkpt>
      <trkpt lat="44.31297" lon="3.33833">
        <ele>466</ele>
        <time>2009-07-08T08:10:09Z</time>
      </trkpt>
      <trkpt lat="44.31289" lon="3.33825">
        <ele>465</ele>
        <time>2009-07-08T08:10:14Z</time>
      </trkpt>
      <trkpt lat="44.31264" lon="3.33796">
        <ele>464</ele>
        <time>2009-07-08T08:10:25Z</time>
      </trkpt>
      <trkpt lat="44.31257" lon="3.3379">
        <ele>463</ele>
        <time>2009-07-08T08:10:27Z</time>
      </trkpt>
      <trkpt lat="44.31234" lon="3.33768">
        <ele>464</ele>
        <time>2009-07-08T08:10:36Z</time>
      </trkpt>
      <trkpt lat="44.31198" lon="3.33737">
        <ele>464</ele>
        <time>2009-07-08T08:10:47Z</time>
      </trkpt>
      <trkpt lat="44.31187" lon="3.33732">
        <ele>464</ele>
        <time>2009-07-08T08:10:52Z</time>
      </trkpt>
      <trkpt lat="44.31183" lon="3.33727">
        <ele>466</ele>
        <time>2009-07-08T08:10:54Z</time>
      </trkpt>
      <trkpt lat="44.31171" lon="3.33708">
        <ele>464</ele>
        <time>2009-07-08T08:10:59Z</time>
      </trkpt>
      <trkpt lat="44.31162" lon="3.3369">
        <ele>464</ele>
        <time>2009-07-08T08:11:03Z</time>
      </trkpt>
      <trkpt lat="44.31147" lon="3.33667">
        <ele>462</ele>
        <time>2009-07-08T08:11:08Z</time>
      </trkpt>
      <trkpt lat="44.31145" lon="3.33653">
        <ele>463</ele>
        <time>2009-07-08T08:11:12Z</time>
      </trkpt>
      <trkpt lat="44.31128" lon="3.33617">
        <ele>463</ele>
        <time>2009-07-08T08:11:21Z</time>
      </trkpt>
      <trkpt lat="44.31117" lon="3.33605">
        <ele>466</ele>
        <time>2009-07-08T08:11:27Z</time>
      </trkpt>
      <trkpt lat="44.31113" lon="3.33596">
        <ele>467</ele>
        <time>2009-07-08T08:11:30Z</time>
      </trkpt>
      <trkpt lat="44.31109" lon="3.33572">
        <ele>465</ele>
        <time>2009-07-08T08:11:35Z</time>
      </trkpt>
      <trkpt lat="44.31094" lon="3.33556">
        <ele>467</ele>
        <time>2009-07-08T08:11:41Z</time>
      </trkpt>
      <trkpt lat="44.3109" lon="3.33551">
        <ele>469</ele>
        <time>2009-07-08T08:11:44Z</time>
      </trkpt>
      <trkpt lat="44.31074" lon="3.33531">
        <ele>470</ele>
        <time>2009-07-08T08:11:56Z</time>
      </trkpt>
      <trkpt lat="44.31068" lon="3.33521">
        <ele>470</ele>
        <time>2009-07-08T08:12:13Z</time>
      </trkpt>
      <trkpt lat="44.31062" lon="3.33505">
        <ele>469</ele>
        <time>2009-07-08T08:12:24Z</time>
      </trkpt>
      <trkpt lat="44.31062" lon="3.33502">
        <ele>468</ele>
        <time>2009-07-08T08:12:29Z</time>
      </trkpt>
      <trkpt lat="44.31062" lon="3.33496">
        <ele>466</ele>
        <time>2009-07-08T08:12:36Z</time>
      </trkpt>
      <trkpt lat="44.31046" lon="3.33464">
        <ele>465</ele>
        <time>2009-07-08T08:12:45Z</time>
      </trkpt>
      <trkpt lat="44.3104" lon="3.33452">
        <ele>464</ele>
        <time>2009-07-08T08:12:48Z</time>
      </trkpt>
      <trkpt lat="44.31037" lon="3.33442">
        <ele>462</ele>
        <time>2009-07-08T08:12:50Z</time>
      </trkpt>
      <trkpt lat="44.31024" lon="3.33422">
        <ele>462</ele>
        <time>2009-07-08T08:12:56Z</time>
      </trkpt>
      <trkpt lat="44.31004" lon="3.33383">
        <ele>463</ele>
        <time>2009-07-08T08:13:06Z</time>
      </trkpt>
      <trkpt lat="44.3098" lon="3.33338">
        <ele>464</ele>
        <time>2009-07-08T08:13:18Z</time>
      </trkpt>
      <trkpt lat="44.30962" lon="3.33301">
        <ele>463</ele>
        <time>2009-07-08T08:13:27Z</time>
      </trkpt>
      <trkpt lat="44.30948" lon="3.3327">
        <ele>462</ele>
        <time>2009-07-08T08:13:35Z</time>
      </trkpt>
      <trkpt lat="44.30941" lon="3.33253">
        <ele>462</ele>
        <time>2009-07-08T08:13:42Z</time>
      </trkpt>
      <trkpt lat="44.30924" lon="3.33233">
        <ele>463</ele>
        <time>2009-07-08T08:13:55Z</time>
      </trkpt>
      <trkpt lat="44.30906" lon="3.33213">
        <ele>463</ele>
        <time>2009-07-08T08:14:03Z</time>
      </trkpt>
      <trkpt lat="44.30886" lon="3.33191">
        <ele>463</ele>
        <time>2009-07-08T08:14:12Z</time>
      </trkpt>
      <trkpt lat="44.30862" lon="3.33167">
        <ele>462</ele>
        <time>2009-07-08T08:14:21Z</time>
      </trkpt>
      <trkpt lat="44.3086" lon="3.33154">
        <ele>460</ele>
        <time>2009-07-08T08:14:25Z</time>
      </trkpt>
      <trkpt lat="44.30855" lon="3.3315">
        <ele>460</ele>
        <time>2009-07-08T08:14:27Z</time>
      </trkpt>
      <trkpt lat="44.30824" lon="3.33126">
        <ele>459</ele>
        <time>2009-07-08T08:14:38Z</time>
      </trkpt>
      <trkpt lat="44.30819" lon="3.33123">
        <ele>459</ele>
        <time>2009-07-08T08:14:40Z</time>
      </trkpt>
      <trkpt lat="44.30782" lon="3.33106">
        <ele>459</ele>
        <time>2009-07-08T08:14:52Z</time>
      </trkpt>
      <trkpt lat="44.30764" lon="3.33095">
        <ele>459</ele>
        <time>2009-07-08T08:14:58Z</time>
      </trkpt>
      <trkpt lat="44.30723" lon="3.33081">
        <ele>460</ele>
        <time>2009-07-08T08:15:11Z</time>
      </trkpt>
      <trkpt lat="44.30681" lon="3.33058">
        <ele>460</ele>
        <time>2009-07-08T08:15:23Z</time>
      </trkpt>
      <trkpt lat="44.30662" lon="3.33048">
        <ele>460</ele>
        <time>2009-07-08T08:15:29Z</time>
      </trkpt>
      <trkpt lat="44.30648" lon="3.33034">
        <ele>461</ele>
        <time>2009-07-08T08:15:39Z</time>
      </trkpt>
      <trkpt lat="44.30647" lon="3.33027">
        <ele>459</ele>
        <time>2009-07-08T08:15:52Z</time>
      </trkpt>
      <trkpt lat="44.30646" lon="3.33027">
        <ele>459</ele>
        <time>2009-07-08T08:15:54Z</time>
      </trkpt>
      <trkpt lat="44.3063" lon="3.33013">
        <ele>460</ele>
        <time>2009-07-08T08:16:03Z</time>
      </trkpt>
      <trkpt lat="44.30614" lon="3.32985">
        <ele>460</ele>
        <time>2009-07-08T08:16:13Z</time>
      </trkpt>
      <trkpt lat="44.30611" lon="3.3298">
        <ele>459</ele>
        <time>2009-07-08T08:16:23Z</time>
      </trkpt>
      <trkpt lat="44.30601" lon="3.32966">
        <ele>459</ele>
        <time>2009-07-08T08:16:30Z</time>
      </trkpt>
      <trkpt lat="44.30571" lon="3.32934">
        <ele>460</ele>
        <time>2009-07-08T08:16:43Z</time>
      </trkpt>
      <trkpt lat="44.30543" lon="3.32899">
        <ele>458</ele>
        <time>2009-07-08T08:16:54Z</time>
      </trkpt>
      <trkpt lat="44.30523" lon="3.3287">
        <ele>457</ele>
        <time>2009-07-08T08:17:04Z</time>
      </trkpt>
      <trkpt lat="44.30502" lon="3.32842">
        <ele>457</ele>
        <time>2009-07-08T08:17:14Z</time>
      </trkpt>
      <trkpt lat="44.30482" lon="3.32808">
        <ele>457</ele>
        <time>2009-07-08T08:17:26Z</time>
      </trkpt>
      <trkpt lat="44.30463" lon="3.32777">
        <ele>457</ele>
        <time>2009-07-08T08:17:34Z</time>
      </trkpt>
      <trkpt lat="44.30456" lon="3.32769">
        <ele>457</ele>
        <time>2009-07-08T08:17:38Z</time>
      </trkpt>
      <trkpt lat="44.3044" lon="3.32749">
        <ele>456</ele>
        <time>2009-07-08T08:17:49Z</time>
      </trkpt>
      <trkpt lat="44.30435" lon="3.32741">
        <ele>457</ele>
        <time>2009-07-08T08:18:04Z</time>
      </trkpt>
      <trkpt lat="44.30431" lon="3.32732">
        <ele>457</ele>
        <time>2009-07-08T08:18:18Z</time>
      </trkpt>
      <trkpt lat="44.30417" lon="3.32705">
        <ele>457</ele>
        <time>2009-07-08T08:18:30Z</time>
      </trkpt>
      <trkpt lat="44.30411" lon="3.32689">
        <ele>456</ele>
        <time>2009-07-08T08:18:35Z</time>
      </trkpt>
      <trkpt lat="44.30396" lon="3.32674">
        <ele>457</ele>
        <time>2009-07-08T08:18:42Z</time>
      </trkpt>
      <trkpt lat="44.3037" lon="3.32629">
        <ele>457</ele>
        <time>2009-07-08T08:18:57Z</time>
      </trkpt>
      <trkpt lat="44.3036" lon="3.32605">
        <ele>458</ele>
        <time>2009-07-08T08:19:07Z</time>
      </trkpt>
      <trkpt lat="44.30338" lon="3.32577">
        <ele>458</ele>
        <time>2009-07-08T08:19:18Z</time>
      </trkpt>
      <trkpt lat="44.30316" lon="3.3255">
        <ele>461</ele>
        <time>2009-07-08T08:19:29Z</time>
      </trkpt>
      <trkpt lat="44.30301" lon="3.32531">
        <ele>459</ele>
        <time>2009-07-08T08:19:38Z</time>
      </trkpt>
      <trkpt lat="44.30299" lon="3.32521">
        <ele>459</ele>
        <time>2009-07-08T08:19:47Z</time>
      </trkpt>
      <trkpt lat="44.30297" lon="3.32518">
        <ele>458</ele>
        <time>2009-07-08T08:19:52Z</time>
      </trkpt>
      <trkpt lat="44.30291" lon="3.32514">
        <ele>458</ele>
        <time>2009-07-08T08:19:59Z</time>
      </trkpt>
      <trkpt lat="44.3028" lon="3.32502">
        <ele>457</ele>
        <time>2009-07-08T08:20:13Z</time>
      </trkpt>
      <trkpt lat="44.30287" lon="3.32503">
        <ele>457</ele>
        <time>2009-07-08T08:20:41Z</time>
      </trkpt>
      <trkpt lat="44.30294" lon="3.32514">
        <ele>458</ele>
        <time>2009-07-08T08:20:59Z</time>
      </trkpt>
      <trkpt lat="44.30298" lon="3.32519">
        <ele>458</ele>
        <time>2009-07-08T08:21:14Z</time>
      </trkpt>
      <trkpt lat="44.30297" lon="3.32523">
        <ele>460</ele>
        <time>2009-07-08T08:21:28Z</time>
      </trkpt>
      <trkpt lat="44.30294" lon="3.32529">
        <ele>461</ele>
        <time>2009-07-08T08:21:49Z</time>
      </trkpt>
      <trkpt lat="44.30292" lon="3.32524">
        <ele>462</ele>
        <time>2009-07-08T08:22:01Z</time>
      </trkpt>
      <trkpt lat="44.30291" lon="3.32523">
        <ele>462</ele>
        <time>2009-07-08T08:22:12Z</time>
      </trkpt>
      <trkpt lat="44.30286" lon="3.32521">
        <ele>463</ele>
        <time>2009-07-08T08:22:16Z</time>
      </trkpt>
      <trkpt lat="44.30275" lon="3.32505">
        <ele>462</ele>
        <time>2009-07-08T08:22:24Z</time>
      </trkpt>
      <trkpt lat="44.30266" lon="3.32492">
        <ele>460</ele>
        <time>2009-07-08T08:22:30Z</time>
      </trkpt>
      <trkpt lat="44.30248" lon="3.32466">
        <ele>457</ele>
        <time>2009-07-08T08:22:42Z</time>
      </trkpt>
      <trkpt lat="44.30231" lon="3.32448">
        <ele>458</ele>
        <time>2009-07-08T08:23:00Z</time>
      </trkpt>
      <trkpt lat="44.30208" lon="3.32422">
        <ele>457</ele>
        <time>2009-07-08T08:23:10Z</time>
      </trkpt>
      <trkpt lat="44.30189" lon="3.32396">
        <ele>457</ele>
        <time>2009-07-08T08:23:21Z</time>
      </trkpt>
      <trkpt lat="44.30169" lon="3.32371">
        <ele>457</ele>
        <time>2009-07-08T08:23:37Z</time>
      </trkpt>
      <trkpt lat="44.30154" lon="3.32349">
        <ele>456</ele>
        <time>2009-07-08T08:23:47Z</time>
      </trkpt>
      <trkpt lat="44.30128" lon="3.32316">
        <ele>457</ele>
        <time>2009-07-08T08:23:59Z</time>
      </trkpt>
      <trkpt lat="44.30114" lon="3.32301">
        <ele>459</ele>
        <time>2009-07-08T08:24:07Z</time>
      </trkpt>
      <trkpt lat="44.30097" lon="3.32271">
        <ele>459</ele>
        <time>2009-07-08T08:24:21Z</time>
      </trkpt>
      <trkpt lat="44.30077" lon="3.32244">
        <ele>463</ele>
        <time>2009-07-08T08:24:34Z</time>
      </trkpt>
      <trkpt lat="44.30065" lon="3.32217">
        <ele>460</ele>
        <time>2009-07-08T08:24:40Z</time>
      </trkpt>
      <trkpt lat="44.30052" lon="3.322">
        <ele>464</ele>
        <time>2009-07-08T08:24:48Z</time>
      </trkpt>
      <trkpt lat="44.30042" lon="3.32182">
        <ele>467</ele>
        <time>2009-07-08T08:25:02Z</time>
      </trkpt>
      <trkpt lat="44.30038" lon="3.3218">
        <ele>467</ele>
        <time>2009-07-08T08:25:05Z</time>
      </trkpt>
      <trkpt lat="44.30034" lon="3.32173">
        <ele>466</ele>
        <time>2009-07-08T08:25:08Z</time>
      </trkpt>
      <trkpt lat="44.30017" lon="3.32124">
        <ele>465</ele>
        <time>2009-07-08T08:25:20Z</time>
      </trkpt>
      <trkpt lat="44.30013" lon="3.32106">
        <ele>464</ele>
        <time>2009-07-08T08:25:24Z</time>
      </trkpt>
      <trkpt lat="44.30019" lon="3.32092">
        <ele>464</ele>
        <time>2009-07-08T08:25:28Z</time>
      </trkpt>
      <trkpt lat="44.30045" lon="3.32075">
        <ele>466</ele>
        <time>2009-07-08T08:25:41Z</time>
      </trkpt>
      <trkpt lat="44.30044" lon="3.32078">
        <ele>465</ele>
        <time>2009-07-08T08:26:21Z</time>
      </trkpt>
      <trkpt lat="44.30045" lon="3.32079">
        <ele>465</ele>
        <time>2009-07-08T08:26:53Z</time>
      </trkpt>
      <trkpt lat="44.30045" lon="3.32078">
        <ele>465</ele>
        <time>2009-07-08T08:28:37Z</time>
      </trkpt>
      <trkpt lat="44.30045" lon="3.32077">
        <ele>465</ele>
        <time>2009-07-08T08:30:11Z</time>
      </trkpt>
      <trkpt lat="44.30045" lon="3.32076">
        <ele>464</ele>
        <time>2009-07-08T08:30:28Z</time>
      </trkpt>
      <trkpt lat="44.30042" lon="3.32074">
        <ele>463</ele>
        <time>2009-07-08T08:30:42Z</time>
      </trkpt>
      <trkpt lat="44.30037" lon="3.32078">
        <ele>464</ele>
        <time>2009-07-08T08:30:46Z</time>
      </trkpt>
      <trkpt lat="44.30005" lon="3.32087">
        <ele>463</ele>
        <time>2009-07-08T08:30:58Z</time>
      </trkpt>
      <trkpt lat="44.29993" lon="3.32038">
        <ele>462</ele>
        <time>2009-07-08T08:31:09Z</time>
      </trkpt>
      <trkpt lat="44.29988" lon="3.31949">
        <ele>464</ele>
        <time>2009-07-08T08:31:27Z</time>
      </trkpt>
      <trkpt lat="44.29992" lon="3.31884">
        <ele>467</ele>
        <time>2009-07-08T08:31:43Z</time>
      </trkpt>
      <trkpt lat="44.29989" lon="3.31817">
        <ele>470</ele>
        <time>2009-07-08T08:31:59Z</time>
      </trkpt>
      <trkpt lat="44.29983" lon="3.31729">
        <ele>472</ele>
        <time>2009-07-08T08:32:20Z</time>
      </trkpt>
      <trkpt lat="44.29976" lon="3.31654">
        <ele>475</ele>
        <time>2009-07-08T08:32:38Z</time>
      </trkpt>
      <trkpt lat="44.29991" lon="3.31618">
        <ele>475</ele>
        <time>2009-07-08T08:32:47Z</time>
      </trkpt>
      <trkpt lat="44.29986" lon="3.31598">
        <ele>474</ele>
        <time>2009-07-08T08:32:52Z</time>
      </trkpt>
      <trkpt lat="44.29982" lon="3.31588">
        <ele>474</ele>
        <time>2009-07-08T08:32:54Z</time>
      </trkpt>
      <trkpt lat="44.2997" lon="3.31564">
        <ele>474</ele>
        <time>2009-07-08T08:32:59Z</time>
      </trkpt>
      <trkpt lat="44.29948" lon="3.31528">
        <ele>473</ele>
        <time>2009-07-08T08:33:07Z</time>
      </trkpt>
      <trkpt lat="44.29937" lon="3.31502">
        <ele>471</ele>
        <time>2009-07-08T08:33:12Z</time>
      </trkpt>
      <trkpt lat="44.299" lon="3.31449">
        <ele>467</ele>
        <time>2009-07-08T08:33:21Z</time>
      </trkpt>
      <trkpt lat="44.29885" lon="3.31423">
        <ele>466</ele>
        <time>2009-07-08T08:33:25Z</time>
      </trkpt>
      <trkpt lat="44.29876" lon="3.31411">
        <ele>465</ele>
        <time>2009-07-08T08:33:27Z</time>
      </trkpt>
      <trkpt lat="44.29866" lon="3.31405">
        <ele>464</ele>
        <time>2009-07-08T08:33:29Z</time>
      </trkpt>
      <trkpt lat="44.29856" lon="3.31401">
        <ele>465</ele>
        <time>2009-07-08T08:33:31Z</time>
      </trkpt>
      <trkpt lat="44.29836" lon="3.31393">
        <ele>465</ele>
        <time>2009-07-08T08:33:35Z</time>
      </trkpt>
      <trkpt lat="44.2982" lon="3.31348">
        <ele>466</ele>
        <time>2009-07-08T08:33:44Z</time>
      </trkpt>
      <trkpt lat="44.29837" lon="3.31324">
        <ele>468</ele>
        <time>2009-07-08T08:33:51Z</time>
      </trkpt>
      <trkpt lat="44.29835" lon="3.31315">
        <ele>468</ele>
        <time>2009-07-08T08:33:53Z</time>
      </trkpt>
      <trkpt lat="44.29832" lon="3.31221">
        <ele>469</ele>
        <time>2009-07-08T08:34:13Z</time>
      </trkpt>
      <trkpt lat="44.29842" lon="3.31164">
        <ele>472</ele>
        <time>2009-07-08T08:34:25Z</time>
      </trkpt>
      <trkpt lat="44.2986" lon="3.31143">
        <ele>472</ele>
        <time>2009-07-08T08:34:31Z</time>
      </trkpt>
      <trkpt lat="44.29892" lon="3.31113">
        <ele>473</ele>
        <time>2009-07-08T08:34:42Z</time>
      </trkpt>
      <trkpt lat="44.29895" lon="3.31108">
        <ele>473</ele>
        <time>2009-07-08T08:34:43Z</time>
      </trkpt>
      <trkpt lat="44.29903" lon="3.31088">
        <ele>473</ele>
        <time>2009-07-08T08:34:47Z</time>
      </trkpt>
      <trkpt lat="44.29928" lon="3.31063">
        <ele>475</ele>
        <time>2009-07-08T08:34:55Z</time>
      </trkpt>
      <trkpt lat="44.29971" lon="3.31043">
        <ele>476</ele>
        <time>2009-07-08T08:35:07Z</time>
      </trkpt>
      <trkpt lat="44.3" lon="3.31047">
        <ele>476</ele>
        <time>2009-07-08T08:35:14Z</time>
      </trkpt>
      <trkpt lat="44.30016" lon="3.31046">
        <ele>476</ele>
        <time>2009-07-08T08:35:18Z</time>
      </trkpt>
      <trkpt lat="44.30065" lon="3.31036">
        <ele>476</ele>
        <time>2009-07-08T08:35:30Z</time>
      </trkpt>
      <trkpt lat="44.30082" lon="3.31037">
        <ele>478</ele>
        <time>2009-07-08T08:35:34Z</time>
      </trkpt>
      <trkpt lat="44.30104" lon="3.31034">
        <ele>477</ele>
        <time>2009-07-08T08:35:40Z</time>
      </trkpt>
      <trkpt lat="44.30116" lon="3.31">
        <ele>476</ele>
        <time>2009-07-08T08:35:46Z</time>
      </trkpt>
      <trkpt lat="44.30131" lon="3.30969">
        <ele>475</ele>
        <time>2009-07-08T08:35:51Z</time>
      </trkpt>
      <trkpt lat="44.30163" lon="3.30932">
        <ele>474</ele>
        <time>2009-07-08T08:35:59Z</time>
      </trkpt>
      <trkpt lat="44.30217" lon="3.3087">
        <ele>473</ele>
        <time>2009-07-08T08:36:13Z</time>
      </trkpt>
      <trkpt lat="44.30243" lon="3.30831">
        <ele>473</ele>
        <time>2009-07-08T08:36:21Z</time>
      </trkpt>
      <trkpt lat="44.30276" lon="3.30786">
        <ele>471</ele>
        <time>2009-07-08T08:36:30Z</time>
      </trkpt>
      <trkpt lat="44.30288" lon="3.30765">
        <ele>472</ele>
        <time>2009-07-08T08:36:34Z</time>
      </trkpt>
      <trkpt lat="44.30299" lon="3.30732">
        <ele>470</ele>
        <time>2009-07-08T08:36:39Z</time>
      </trkpt>
      <trkpt lat="44.30341" lon="3.30641">
        <ele>471</ele>
        <time>2009-07-08T08:36:54Z</time>
      </trkpt>
      <trkpt lat="44.30351" lon="3.30625">
        <ele>470</ele>
        <time>2009-07-08T08:36:57Z</time>
      </trkpt>
      <trkpt lat="44.30363" lon="3.30594">
        <ele>470</ele>
        <time>2009-07-08T08:37:02Z</time>
      </trkpt>
      <trkpt lat="44.30403" lon="3.30503">
        <ele>470</ele>
        <time>2009-07-08T08:37:17Z</time>
      </trkpt>
      <trkpt lat="44.30437" lon="3.30421">
        <ele>469</ele>
        <time>2009-07-08T08:37:30Z</time>
      </trkpt>
      <trkpt lat="44.30451" lon="3.30388">
        <ele>469</ele>
        <time>2009-07-08T08:37:35Z</time>
      </trkpt>
      <trkpt lat="44.30489" lon="3.30291">
        <ele>467</ele>
        <time>2009-07-08T08:37:50Z</time>
      </trkpt>
      <trkpt lat="44.30498" lon="3.30272">
        <ele>467</ele>
        <time>2009-07-08T08:37:53Z</time>
      </trkpt>
      <trkpt lat="44.30506" lon="3.30204">
        <ele>467</ele>
        <time>2009-07-08T08:38:03Z</time>
      </trkpt>
      <trkpt lat="44.30515" lon="3.30169">
        <ele>468</ele>
        <time>2009-07-08T08:38:09Z</time>
      </trkpt>
      <trkpt lat="44.30506" lon="3.30129">
        <ele>467</ele>
        <time>2009-07-08T08:38:15Z</time>
      </trkpt>
      <trkpt lat="44.30502" lon="3.30085">
        <ele>466</ele>
        <time>2009-07-08T08:38:21Z</time>
      </trkpt>
      <trkpt lat="44.30501" lon="3.30071">
        <ele>467</ele>
        <time>2009-07-08T08:38:23Z</time>
      </trkpt>
      <trkpt lat="44.30492" lon="3.30041">
        <ele>466</ele>
        <time>2009-07-08T08:38:27Z</time>
      </trkpt>
      <trkpt lat="44.30453" lon="3.29957">
        <ele>464</ele>
        <time>2009-07-08T08:38:41Z</time>
      </trkpt>
      <trkpt lat="44.3043" lon="3.2993">
        <ele>464</ele>
        <time>2009-07-08T08:38:47Z</time>
      </trkpt>
      <trkpt lat="44.30377" lon="3.29873">
        <ele>464</ele>
        <time>2009-07-08T08:39:00Z</time>
      </trkpt>
      <trkpt lat="44.30349" lon="3.29861">
        <ele>464</ele>
        <time>2009-07-08T08:39:06Z</time>
      </trkpt>
      <trkpt lat="44.30273" lon="3.29823">
        <ele>467</ele>
        <time>2009-07-08T08:39:23Z</time>
      </trkpt>
      <trkpt lat="44.30222" lon="3.29789">
        <ele>470</ele>
        <time>2009-07-08T08:39:38Z</time>
      </trkpt>
      <trkpt lat="44.30177" lon="3.29774">
        <ele>473</ele>
        <time>2009-07-08T08:39:52Z</time>
      </trkpt>
      <trkpt lat="44.30175" lon="3.29772">
        <ele>473</ele>
        <time>2009-07-08T08:39:53Z</time>
      </trkpt>
      <trkpt lat="44.30109" lon="3.2974">
        <ele>472</ele>
        <time>2009-07-08T08:40:13Z</time>
      </trkpt>
      <trkpt lat="44.30098" lon="3.2973">
        <ele>472</ele>
        <time>2009-07-08T08:40:16Z</time>
      </trkpt>
      <trkpt lat="44.3007" lon="3.29701">
        <ele>468</ele>
        <time>2009-07-08T08:40:23Z</time>
      </trkpt>
      <trkpt lat="44.3005" lon="3.29679">
        <ele>465</ele>
        <time>2009-07-08T08:40:27Z</time>
      </trkpt>
      <trkpt lat="44.30045" lon="3.29673">
        <ele>464</ele>
        <time>2009-07-08T08:40:28Z</time>
      </trkpt>
      <trkpt lat="44.30019" lon="3.29633">
        <ele>460</ele>
        <time>2009-07-08T08:40:33Z</time>
      </trkpt>
      <trkpt lat="44.30014" lon="3.29625">
        <ele>458</ele>
        <time>2009-07-08T08:40:34Z</time>
      </trkpt>
      <trkpt lat="44.3" lon="3.29584">
        <ele>453</ele>
        <time>2009-07-08T08:40:38Z</time>
      </trkpt>
      <trkpt lat="44.2999" lon="3.29553">
        <ele>455</ele>
        <time>2009-07-08T08:40:41Z</time>
      </trkpt>
      <trkpt lat="44.2998" lon="3.29517">
        <ele>460</ele>
        <time>2009-07-08T08:40:47Z</time>
      </trkpt>
      <trkpt lat="44.29977" lon="3.29503">
        <ele>460</ele>
        <time>2009-07-08T08:40:50Z</time>
      </trkpt>
      <trkpt lat="44.29976" lon="3.29493">
        <ele>460</ele>
        <time>2009-07-08T08:40:52Z</time>
      </trkpt>
      <trkpt lat="44.29972" lon="3.29474">
        <ele>460</ele>
        <time>2009-07-08T08:40:56Z</time>
      </trkpt>
      <trkpt lat="44.29958" lon="3.29419">
        <ele>462</ele>
        <time>2009-07-08T08:41:10Z</time>
      </trkpt>
      <trkpt lat="44.29947" lon="3.29389">
        <ele>464</ele>
        <time>2009-07-08T08:41:22Z</time>
      </trkpt>
      <trkpt lat="44.29939" lon="3.2939">
        <ele>465</ele>
        <time>2009-07-08T08:41:28Z</time>
      </trkpt>
      <trkpt lat="44.29934" lon="3.29392">
        <ele>467</ele>
        <time>2009-07-08T08:41:44Z</time>
      </trkpt>
      <trkpt lat="44.29935" lon="3.29403">
        <ele>470</ele>
        <time>2009-07-08T08:41:59Z</time>
      </trkpt>
      <trkpt lat="44.29936" lon="3.29405">
        <ele>471</ele>
        <time>2009-07-08T08:42:01Z</time>
      </trkpt>
      <trkpt lat="44.29941" lon="3.2941">
        <ele>473</ele>
        <time>2009-07-08T08:42:13Z</time>
      </trkpt>
      <trkpt lat="44.29935" lon="3.29412">
        <ele>474</ele>
        <time>2009-07-08T08:42:27Z</time>
      </trkpt>
      <trkpt lat="44.29919" lon="3.29412">
        <ele>477</ele>
        <time>2009-07-08T08:42:36Z</time>
      </trkpt>
      <trkpt lat="44.29917" lon="3.29412">
        <ele>478</ele>
        <time>2009-07-08T08:42:37Z</time>
      </trkpt>
      <trkpt lat="44.299" lon="3.29412">
        <ele>480</ele>
        <time>2009-07-08T08:42:49Z</time>
      </trkpt>
      <trkpt lat="44.29893" lon="3.29416">
        <ele>481</ele>
        <time>2009-07-08T08:42:56Z</time>
      </trkpt>
      <trkpt lat="44.29888" lon="3.29416">
        <ele>483</ele>
        <time>2009-07-08T08:43:00Z</time>
      </trkpt>
      <trkpt lat="44.29885" lon="3.29418">
        <ele>484</ele>
        <time>2009-07-08T08:43:09Z</time>
      </trkpt>
      <trkpt lat="44.29881" lon="3.2941">
        <ele>486</ele>
        <time>2009-07-08T08:43:23Z</time>
      </trkpt>
      <trkpt lat="44.2988" lon="3.29404">
        <ele>487</ele>
        <time>2009-07-08T08:43:35Z</time>
      </trkpt>
      <trkpt lat="44.29879" lon="3.2939">
        <ele>490</ele>
        <time>2009-07-08T08:43:43Z</time>
      </trkpt>
      <trkpt lat="44.29874" lon="3.29378">
        <ele>491</ele>
        <time>2009-07-08T08:43:56Z</time>
      </trkpt>
      <trkpt lat="44.29871" lon="3.29374">
        <ele>492</ele>
        <time>2009-07-08T08:43:59Z</time>
      </trkpt>
      <trkpt lat="44.29863" lon="3.29366">
        <ele>495</ele>
        <time>2009-07-08T08:44:05Z</time>
      </trkpt>
      <trkpt lat="44.29858" lon="3.29357">
        <ele>497</ele>
        <time>2009-07-08T08:44:21Z</time>
      </trkpt>
      <trkpt lat="44.29856" lon="3.29353">
        <ele>496</ele>
        <time>2009-07-08T08:45:20Z</time>
      </trkpt>
      <trkpt lat="44.29856" lon="3.29357">
        <ele>498</ele>
        <time>2009-07-08T08:45:38Z</time>
      </trkpt>
      <trkpt lat="44.29858" lon="3.29364">
        <ele>496</ele>
        <time>2009-07-08T08:47:38Z</time>
      </trkpt>
      <trkpt lat="44.29858" lon="3.29364">
        <ele>500</ele>
        <time>2009-07-08T08:47:40Z</time>
      </trkpt>
      <trkpt lat="44.29858" lon="3.29364">
        <ele>500</ele>
        <time>2009-07-08T08:47:41Z</time>
      </trkpt>
      <trkpt lat="44.29858" lon="3.29364">
        <ele>496</ele>
        <time>2009-07-08T08:47:44Z</time>
      </trkpt>
      <trkpt lat="44.29859" lon="3.29364">
        <ele>498</ele>
        <time>2009-07-08T08:47:45Z</time>
      </trkpt>
      <trkpt lat="44.29854" lon="3.29357">
        <ele>501</ele>
        <time>2009-07-08T08:48:07Z</time>
      </trkpt>
      <trkpt lat="44.29854" lon="3.29358">
        <ele>498</ele>
        <time>2009-07-08T08:48:14Z</time>
      </trkpt>
      <trkpt lat="44.2986" lon="3.29363">
        <ele>497</ele>
        <time>2009-07-08T08:49:37Z</time>
      </trkpt>
      <trkpt lat="44.29857" lon="3.29357">
        <ele>497</ele>
        <time>2009-07-08T08:49:54Z</time>
      </trkpt>
      <trkpt lat="44.29848" lon="3.29324">
        <ele>494</ele>
        <time>2009-07-08T08:50:06Z</time>
      </trkpt>
      <trkpt lat="44.29842" lon="3.29309">
        <ele>492</ele>
        <time>2009-07-08T08:50:09Z</time>
      </trkpt>
      <trkpt lat="44.29835" lon="3.29293">
        <ele>491</ele>
        <time>2009-07-08T08:50:12Z</time>
      </trkpt>
      <trkpt lat="44.29827" lon="3.29278">
        <ele>490</ele>
        <time>2009-07-08T08:50:15Z</time>
      </trkpt>
      <trkpt lat="44.29807" lon="3.29262">
        <ele>493</ele>
        <time>2009-07-08T08:50:23Z</time>
      </trkpt>
      <trkpt lat="44.29789" lon="3.29233">
        <ele>492</ele>
        <time>2009-07-08T08:50:33Z</time>
      </trkpt>
      <trkpt lat="44.29776" lon="3.29218">
        <ele>493</ele>
        <time>2009-07-08T08:50:41Z</time>
      </trkpt>
      <trkpt lat="44.29773" lon="3.29216">
        <ele>493</ele>
        <time>2009-07-08T08:50:43Z</time>
      </trkpt>
      <trkpt lat="44.29771" lon="3.29214">
        <ele>494</ele>
        <time>2009-07-08T08:50:44Z</time>
      </trkpt>
      <trkpt lat="44.29758" lon="3.29188">
        <ele>494</ele>
        <time>2009-07-08T08:50:54Z</time>
      </trkpt>
      <trkpt lat="44.29735" lon="3.29165">
        <ele>495</ele>
        <time>2009-07-08T08:51:06Z</time>
      </trkpt>
      <trkpt lat="44.29724" lon="3.29156">
        <ele>498</ele>
        <time>2009-07-08T08:51:12Z</time>
      </trkpt>
      <trkpt lat="44.29704" lon="3.29132">
        <ele>494</ele>
        <time>2009-07-08T08:51:22Z</time>
      </trkpt>
      <trkpt lat="44.29701" lon="3.29129">
        <ele>494</ele>
        <time>2009-07-08T08:51:23Z</time>
      </trkpt>
      <trkpt lat="44.29695" lon="3.29124">
        <ele>492</ele>
        <time>2009-07-08T08:51:25Z</time>
      </trkpt>
      <trkpt lat="44.29678" lon="3.29107">
        <ele>492</ele>
        <time>2009-07-08T08:51:34Z</time>
      </trkpt>
      <trkpt lat="44.29671" lon="3.29093">
        <ele>488</ele>
        <time>2009-07-08T08:51:39Z</time>
      </trkpt>
      <trkpt lat="44.29669" lon="3.2909">
        <ele>488</ele>
        <time>2009-07-08T08:51:40Z</time>
      </trkpt>
      <trkpt lat="44.29657" lon="3.29078">
        <ele>487</ele>
        <time>2009-07-08T08:51:45Z</time>
      </trkpt>
      <trkpt lat="44.29659" lon="3.2907">
        <ele>486</ele>
        <time>2009-07-08T08:51:49Z</time>
      </trkpt>
      <trkpt lat="44.29661" lon="3.29066">
        <ele>485</ele>
        <time>2009-07-08T08:51:51Z</time>
      </trkpt>
      <trkpt lat="44.29662" lon="3.29057">
        <ele>485</ele>
        <time>2009-07-08T08:52:05Z</time>
      </trkpt>
      <trkpt lat="44.2967" lon="3.29045">
        <ele>483</ele>
        <time>2009-07-08T08:52:41Z</time>
      </trkpt>
      <trkpt lat="44.29674" lon="3.29037">
        <ele>483</ele>
        <time>2009-07-08T08:52:44Z</time>
      </trkpt>
      <trkpt lat="44.29672" lon="3.29008">
        <ele>483</ele>
        <time>2009-07-08T08:52:52Z</time>
      </trkpt>
      <trkpt lat="44.29671" lon="3.28996">
        <ele>483</ele>
        <time>2009-07-08T08:53:02Z</time>
      </trkpt>
      <trkpt lat="44.29667" lon="3.28974">
        <ele>484</ele>
        <time>2009-07-08T08:53:13Z</time>
      </trkpt>
      <trkpt lat="44.29655" lon="3.28946">
        <ele>484</ele>
        <time>2009-07-08T08:53:22Z</time>
      </trkpt>
      <trkpt lat="44.29652" lon="3.2893">
        <ele>486</ele>
        <time>2009-07-08T08:53:28Z</time>
      </trkpt>
      <trkpt lat="44.29656" lon="3.28921">
        <ele>486</ele>
        <time>2009-07-08T08:53:39Z</time>
      </trkpt>
      <trkpt lat="44.29655" lon="3.2892">
        <ele>487</ele>
        <time>2009-07-08T08:53:42Z</time>
      </trkpt>
      <trkpt lat="44.29654" lon="3.28909">
        <ele>490</ele>
        <time>2009-07-08T08:53:48Z</time>
      </trkpt>
      <trkpt lat="44.29655" lon="3.28893">
        <ele>493</ele>
        <time>2009-07-08T08:53:57Z</time>
      </trkpt>
      <trkpt lat="44.29656" lon="3.28881">
        <ele>496</ele>
        <time>2009-07-08T08:54:08Z</time>
      </trkpt>
      <trkpt lat="44.29656" lon="3.28878">
        <ele>496</ele>
        <time>2009-07-08T08:54:10Z</time>
      </trkpt>
      <trkpt lat="44.29651" lon="3.28864">
        <ele>497</ele>
        <time>2009-07-08T08:54:22Z</time>
      </trkpt>
      <trkpt lat="44.29653" lon="3.28861">
        <ele>497</ele>
        <time>2009-07-08T08:54:29Z</time>
      </trkpt>
      <trkpt lat="44.29653" lon="3.28857">
        <ele>497</ele>
        <time>2009-07-08T08:54:31Z</time>
      </trkpt>
      <trkpt lat="44.29645" lon="3.2884">
        <ele>497</ele>
        <time>2009-07-08T08:54:40Z</time>
      </trkpt>
      <trkpt lat="44.29648" lon="3.28809">
        <ele>497</ele>
        <time>2009-07-08T08:54:49Z</time>
      </trkpt>
      <trkpt lat="44.29646" lon="3.28799">
        <ele>497</ele>
        <time>2009-07-08T08:55:02Z</time>
      </trkpt>
      <trkpt lat="44.29643" lon="3.28795">
        <ele>497</ele>
        <time>2009-07-08T08:55:18Z</time>
      </trkpt>
      <trkpt lat="44.29646" lon="3.28786">
        <ele>498</ele>
        <time>2009-07-08T08:55:22Z</time>
      </trkpt>
      <trkpt lat="44.2965" lon="3.28778">
        <ele>499</ele>
        <time>2009-07-08T08:55:26Z</time>
      </trkpt>
      <trkpt lat="44.29652" lon="3.28753">
        <ele>499</ele>
        <time>2009-07-08T08:55:33Z</time>
      </trkpt>
      <trkpt lat="44.29653" lon="3.28731">
        <ele>503</ele>
        <time>2009-07-08T08:55:43Z</time>
      </trkpt>
      <trkpt lat="44.29647" lon="3.28722">
        <ele>504</ele>
        <time>2009-07-08T08:55:54Z</time>
      </trkpt>
      <trkpt lat="44.29643" lon="3.2871">
        <ele>503</ele>
        <time>2009-07-08T08:56:04Z</time>
      </trkpt>
      <trkpt lat="44.29642" lon="3.28705">
        <ele>502</ele>
        <time>2009-07-08T08:56:07Z</time>
      </trkpt>
      <trkpt lat="44.29634" lon="3.28701">
        <ele>501</ele>
        <time>2009-07-08T08:56:10Z</time>
      </trkpt>
      <trkpt lat="44.29621" lon="3.28683">
        <ele>504</ele>
        <time>2009-07-08T08:56:19Z</time>
      </trkpt>
      <trkpt lat="44.29619" lon="3.28679">
        <ele>504</ele>
        <time>2009-07-08T08:56:21Z</time>
      </trkpt>
      <trkpt lat="44.29609" lon="3.28666">
        <ele>505</ele>
        <time>2009-07-08T08:56:30Z</time>
      </trkpt>
      <trkpt lat="44.29611" lon="3.28654">
        <ele>506</ele>
        <time>2009-07-08T08:56:40Z</time>
      </trkpt>
      <trkpt lat="44.29612" lon="3.2865">
        <ele>507</ele>
        <time>2009-07-08T08:56:45Z</time>
      </trkpt>
      <trkpt lat="44.29614" lon="3.28641">
        <ele>507</ele>
        <time>2009-07-08T08:56:51Z</time>
      </trkpt>
      <trkpt lat="44.29619" lon="3.28623">
        <ele>508</ele>
        <time>2009-07-08T08:56:57Z</time>
      </trkpt>
      <trkpt lat="44.2962" lon="3.286">
        <ele>508</ele>
        <time>2009-07-08T08:57:05Z</time>
      </trkpt>
      <trkpt lat="44.2962" lon="3.2858">
        <ele>507</ele>
        <time>2009-07-08T08:57:11Z</time>
      </trkpt>
      <trkpt lat="44.29622" lon="3.28556">
        <ele>507</ele>
        <time>2009-07-08T08:57:18Z</time>
      </trkpt>
      <trkpt lat="44.29627" lon="3.28539">
        <ele>505</ele>
        <time>2009-07-08T08:57:28Z</time>
      </trkpt>
      <trkpt lat="44.29623" lon="3.28529">
        <ele>506</ele>
        <time>2009-07-08T08:57:37Z</time>
      </trkpt>
      <trkpt lat="44.29623" lon="3.28516">
        <ele>506</ele>
        <time>2009-07-08T08:57:51Z</time>
      </trkpt>
      <trkpt lat="44.29631" lon="3.28495">
        <ele>507</ele>
        <time>2009-07-08T08:58:02Z</time>
      </trkpt>
      <trkpt lat="44.29636" lon="3.28479">
        <ele>506</ele>
        <time>2009-07-08T08:58:07Z</time>
      </trkpt>
      <trkpt lat="44.29637" lon="3.28465">
        <ele>506</ele>
        <time>2009-07-08T08:58:11Z</time>
      </trkpt>
      <trkpt lat="44.29638" lon="3.28447">
        <ele>506</ele>
        <time>2009-07-08T08:58:15Z</time>
      </trkpt>
      <trkpt lat="44.29634" lon="3.28424">
        <ele>507</ele>
        <time>2009-07-08T08:58:21Z</time>
      </trkpt>
      <trkpt lat="44.29631" lon="3.28408">
        <ele>509</ele>
        <time>2009-07-08T08:58:31Z</time>
      </trkpt>
      <trkpt lat="44.2963" lon="3.28405">
        <ele>509</ele>
        <time>2009-07-08T08:58:33Z</time>
      </trkpt>
      <trkpt lat="44.29618" lon="3.28381">
        <ele>506</ele>
        <time>2009-07-08T08:58:42Z</time>
      </trkpt>
      <trkpt lat="44.29607" lon="3.28367">
        <ele>506</ele>
        <time>2009-07-08T08:58:46Z</time>
      </trkpt>
      <trkpt lat="44.29602" lon="3.28358">
        <ele>507</ele>
        <time>2009-07-08T08:58:49Z</time>
      </trkpt>
      <trkpt lat="44.29596" lon="3.28347">
        <ele>510</ele>
        <time>2009-07-08T08:58:59Z</time>
      </trkpt>
      <trkpt lat="44.29594" lon="3.28345">
        <ele>511</ele>
        <time>2009-07-08T08:59:02Z</time>
      </trkpt>
      <trkpt lat="44.29593" lon="3.28334">
        <ele>514</ele>
        <time>2009-07-08T08:59:15Z</time>
      </trkpt>
      <trkpt lat="44.29594" lon="3.28306">
        <ele>516</ele>
        <time>2009-07-08T08:59:27Z</time>
      </trkpt>
      <trkpt lat="44.29593" lon="3.28305">
        <ele>516</ele>
        <time>2009-07-08T08:59:28Z</time>
      </trkpt>
      <trkpt lat="44.29586" lon="3.28293">
        <ele>516</ele>
        <time>2009-07-08T08:59:35Z</time>
      </trkpt>
      <trkpt lat="44.29586" lon="3.28283">
        <ele>516</ele>
        <time>2009-07-08T08:59:40Z</time>
      </trkpt>
      <trkpt lat="44.29601" lon="3.28266">
        <ele>514</ele>
        <time>2009-07-08T08:59:51Z</time>
      </trkpt>
      <trkpt lat="44.29618" lon="3.28249">
        <ele>517</ele>
        <time>2009-07-08T09:00:02Z</time>
      </trkpt>
      <trkpt lat="44.2962" lon="3.28242">
        <ele>517</ele>
        <time>2009-07-08T09:00:06Z</time>
      </trkpt>
      <trkpt lat="44.29624" lon="3.28237">
        <ele>519</ele>
        <time>2009-07-08T09:00:09Z</time>
      </trkpt>
      <trkpt lat="44.29627" lon="3.28234">
        <ele>520</ele>
        <time>2009-07-08T09:00:11Z</time>
      </trkpt>
      <trkpt lat="44.29632" lon="3.28218">
        <ele>520</ele>
        <time>2009-07-08T09:00:17Z</time>
      </trkpt>
      <trkpt lat="44.29632" lon="3.282">
        <ele>521</ele>
        <time>2009-07-08T09:00:28Z</time>
      </trkpt>
      <trkpt lat="44.29635" lon="3.28184">
        <ele>521</ele>
        <time>2009-07-08T09:00:35Z</time>
      </trkpt>
      <trkpt lat="44.29638" lon="3.28172">
        <ele>521</ele>
        <time>2009-07-08T09:00:39Z</time>
      </trkpt>
      <trkpt lat="44.29639" lon="3.28155">
        <ele>521</ele>
        <time>2009-07-08T09:00:45Z</time>
      </trkpt>
      <trkpt lat="44.29636" lon="3.28143">
        <ele>522</ele>
        <time>2009-07-08T09:00:54Z</time>
      </trkpt>
      <trkpt lat="44.29635" lon="3.2814">
        <ele>521</ele>
        <time>2009-07-08T09:00:56Z</time>
      </trkpt>
      <trkpt lat="44.29632" lon="3.28125">
        <ele>521</ele>
        <time>2009-07-08T09:01:01Z</time>
      </trkpt>
      <trkpt lat="44.29648" lon="3.28124">
        <ele>521</ele>
        <time>2009-07-08T09:01:07Z</time>
      </trkpt>
      <trkpt lat="44.29661" lon="3.28122">
        <ele>521</ele>
        <time>2009-07-08T09:01:21Z</time>
      </trkpt>
      <trkpt lat="44.29687" lon="3.28119">
        <ele>521</ele>
        <time>2009-07-08T09:01:32Z</time>
      </trkpt>
      <trkpt lat="44.29703" lon="3.28102">
        <ele>522</ele>
        <time>2009-07-08T09:01:39Z</time>
      </trkpt>
      <trkpt lat="44.29717" lon="3.2808">
        <ele>522</ele>
        <time>2009-07-08T09:01:49Z</time>
      </trkpt>
      <trkpt lat="44.29724" lon="3.28074">
        <ele>521</ele>
        <time>2009-07-08T09:02:02Z</time>
      </trkpt>
      <trkpt lat="44.29733" lon="3.28069">
        <ele>520</ele>
        <time>2009-07-08T09:02:09Z</time>
      </trkpt>
      <trkpt lat="44.29739" lon="3.28053">
        <ele>522</ele>
        <time>2009-07-08T09:02:15Z</time>
      </trkpt>
      <trkpt lat="44.29754" lon="3.28023">
        <ele>522</ele>
        <time>2009-07-08T09:02:26Z</time>
      </trkpt>
      <trkpt lat="44.29759" lon="3.28011">
        <ele>521</ele>
        <time>2009-07-08T09:02:31Z</time>
      </trkpt>
      <trkpt lat="44.29763" lon="3.27991">
        <ele>521</ele>
        <time>2009-07-08T09:02:37Z</time>
      </trkpt>
      <trkpt lat="44.29775" lon="3.27968">
        <ele>520</ele>
        <time>2009-07-08T09:02:47Z</time>
      </trkpt>
      <trkpt lat="44.29778" lon="3.27964">
        <ele>521</ele>
        <time>2009-07-08T09:02:49Z</time>
      </trkpt>
      <trkpt lat="44.29795" lon="3.27935">
        <ele>521</ele>
        <time>2009-07-08T09:03:01Z</time>
      </trkpt>
      <trkpt lat="44.29805" lon="3.27906">
        <ele>522</ele>
        <time>2009-07-08T09:03:11Z</time>
      </trkpt>
      <trkpt lat="44.29825" lon="3.2787">
        <ele>520</ele>
        <time>2009-07-08T09:03:21Z</time>
      </trkpt>
      <trkpt lat="44.29831" lon="3.27833">
        <ele>517</ele>
        <time>2009-07-08T09:03:29Z</time>
      </trkpt>
      <trkpt lat="44.29827" lon="3.27799">
        <ele>516</ele>
        <time>2009-07-08T09:03:39Z</time>
      </trkpt>
      <trkpt lat="44.29825" lon="3.27798">
        <ele>516</ele>
        <time>2009-07-08T09:03:46Z</time>
      </trkpt>
      <trkpt lat="44.2982" lon="3.27793">
        <ele>515</ele>
        <time>2009-07-08T09:04:03Z</time>
      </trkpt>
      <trkpt lat="44.29823" lon="3.27779">
        <ele>515</ele>
        <time>2009-07-08T09:04:10Z</time>
      </trkpt>
      <trkpt lat="44.29821" lon="3.27769">
        <ele>516</ele>
        <time>2009-07-08T09:04:23Z</time>
      </trkpt>
      <trkpt lat="44.29821" lon="3.27764">
        <ele>516</ele>
        <time>2009-07-08T09:05:52Z</time>
      </trkpt>
      <trkpt lat="44.29817" lon="3.27762">
        <ele>517</ele>
        <time>2009-07-08T09:06:30Z</time>
      </trkpt>
      <trkpt lat="44.29813" lon="3.27759">
        <ele>516</ele>
        <time>2009-07-08T09:07:05Z</time>
      </trkpt>
      <trkpt lat="44.29814" lon="3.27767">
        <ele>516</ele>
        <time>2009-07-08T09:08:16Z</time>
      </trkpt>
      <trkpt lat="44.29819" lon="3.27761">
        <ele>515</ele>
        <time>2009-07-08T09:10:01Z</time>
      </trkpt>
      <trkpt lat="44.29814" lon="3.27755">
        <ele>516</ele>
        <time>2009-07-08T09:11:29Z</time>
      </trkpt>
      <trkpt lat="44.29823" lon="3.27761">
        <ele>515</ele>
        <time>2009-07-08T09:14:25Z</time>
      </trkpt>
      <trkpt lat="44.29828" lon="3.27748">
        <ele>517</ele>
        <time>2009-07-08T09:14:43Z</time>
      </trkpt>
      <trkpt lat="44.29831" lon="3.27742">
        <ele>517</ele>
        <time>2009-07-08T09:14:46Z</time>
      </trkpt>
      <trkpt lat="44.29845" lon="3.27718">
        <ele>517</ele>
        <time>2009-07-08T09:14:56Z</time>
      </trkpt>
      <trkpt lat="44.29843" lon="3.27702">
        <ele>515</ele>
        <time>2009-07-08T09:15:02Z</time>
      </trkpt>
      <trkpt lat="44.29844" lon="3.27693">
        <ele>516</ele>
        <time>2009-07-08T09:15:06Z</time>
      </trkpt>
      <trkpt lat="44.29842" lon="3.27688">
        <ele>517</ele>
        <time>2009-07-08T09:15:11Z</time>
      </trkpt>
      <trkpt lat="44.29845" lon="3.27676">
        <ele>517</ele>
        <time>2009-07-08T09:15:17Z</time>
      </trkpt>
      <trkpt lat="44.29859" lon="3.27644">
        <ele>514</ele>
        <time>2009-07-08T09:15:28Z</time>
      </trkpt>
      <trkpt lat="44.2986" lon="3.27637">
        <ele>513</ele>
        <time>2009-07-08T09:15:30Z</time>
      </trkpt>
      <trkpt lat="44.29865" lon="3.2762">
        <ele>513</ele>
        <time>2009-07-08T09:15:35Z</time>
      </trkpt>
      <trkpt lat="44.29868" lon="3.27612">
        <ele>512</ele>
        <time>2009-07-08T09:15:37Z</time>
      </trkpt>
      <trkpt lat="44.29868" lon="3.27588">
        <ele>511</ele>
        <time>2009-07-08T09:15:43Z</time>
      </trkpt>
      <trkpt lat="44.29867" lon="3.27574">
        <ele>510</ele>
        <time>2009-07-08T09:15:48Z</time>
      </trkpt>
      <trkpt lat="44.29857" lon="3.27547">
        <ele>510</ele>
        <time>2009-07-08T09:15:59Z</time>
      </trkpt>
      <trkpt lat="44.29858" lon="3.27538">
        <ele>508</ele>
        <time>2009-07-08T09:16:08Z</time>
      </trkpt>
      <trkpt lat="44.29855" lon="3.27534">
        <ele>508</ele>
        <time>2009-07-08T09:16:32Z</time>
      </trkpt>
      <trkpt lat="44.29873" lon="3.27536">
        <ele>508</ele>
        <time>2009-07-08T09:17:25Z</time>
      </trkpt>
      <trkpt lat="44.29899" lon="3.27537">
        <ele>508</ele>
        <time>2009-07-08T09:17:44Z</time>
      </trkpt>
      <trkpt lat="44.29889" lon="3.27539">
        <ele>508</ele>
        <time>2009-07-08T09:19:08Z</time>
      </trkpt>
      <trkpt lat="44.29887" lon="3.27538">
        <ele>508</ele>
        <time>2009-07-08T09:19:12Z</time>
      </trkpt>
      <trkpt lat="44.29871" lon="3.27528">
        <ele>506</ele>
        <time>2009-07-08T09:19:25Z</time>
      </trkpt>
      <trkpt lat="44.29869" lon="3.27524">
        <ele>503</ele>
        <time>2009-07-08T09:19:33Z</time>
      </trkpt>
      <trkpt lat="44.29869" lon="3.27521">
        <ele>501</ele>
        <time>2009-07-08T09:19:53Z</time>
      </trkpt>
      <trkpt lat="44.29869" lon="3.27519">
        <ele>500</ele>
        <time>2009-07-08T09:20:12Z</time>
      </trkpt>
      <trkpt lat="44.29879" lon="3.27506">
        <ele>496</ele>
        <time>2009-07-08T09:20:17Z</time>
      </trkpt>
      <trkpt lat="44.29882" lon="3.27499">
        <ele>495</ele>
        <time>2009-07-08T09:20:19Z</time>
      </trkpt>
      <trkpt lat="44.2989" lon="3.27487">
        <ele>490</ele>
        <time>2009-07-08T09:20:23Z</time>
      </trkpt>
      <trkpt lat="44.2989" lon="3.27476">
        <ele>488</ele>
        <time>2009-07-08T09:20:28Z</time>
      </trkpt>
      <trkpt lat="44.29892" lon="3.2747">
        <ele>486</ele>
        <time>2009-07-08T09:20:32Z</time>
      </trkpt>
      <trkpt lat="44.29891" lon="3.27463">
        <ele>483</ele>
        <time>2009-07-08T09:20:43Z</time>
      </trkpt>
      <trkpt lat="44.29893" lon="3.27459">
        <ele>482</ele>
        <time>2009-07-08T09:20:49Z</time>
      </trkpt>
      <trkpt lat="44.29893" lon="3.27457">
        <ele>481</ele>
        <time>2009-07-08T09:21:01Z</time>
      </trkpt>
      <trkpt lat="44.29904" lon="3.27454">
        <ele>480</ele>
        <time>2009-07-08T09:21:19Z</time>
      </trkpt>
      <trkpt lat="44.29898" lon="3.27445">
        <ele>477</ele>
        <time>2009-07-08T09:21:37Z</time>
      </trkpt>
      <trkpt lat="44.29898" lon="3.27439">
        <ele>474</ele>
        <time>2009-07-08T09:21:46Z</time>
      </trkpt>
      <trkpt lat="44.29901" lon="3.27439">
        <ele>471</ele>
        <time>2009-07-08T09:22:03Z</time>
      </trkpt>
      <trkpt lat="44.299" lon="3.27426">
        <ele>469</ele>
        <time>2009-07-08T09:22:34Z</time>
      </trkpt>
      <trkpt lat="44.29902" lon="3.27422">
        <ele>468</ele>
        <time>2009-07-08T09:22:42Z</time>
      </trkpt>
      <trkpt lat="44.2991" lon="3.27428">
        <ele>466</ele>
        <time>2009-07-08T09:22:47Z</time>
      </trkpt>
      <trkpt lat="44.29917" lon="3.27442">
        <ele>464</ele>
        <time>2009-07-08T09:22:54Z</time>
      </trkpt>
      <trkpt lat="44.29922" lon="3.27442">
        <ele>463</ele>
        <time>2009-07-08T09:22:56Z</time>
      </trkpt>
      <trkpt lat="44.29936" lon="3.27445">
        <ele>460</ele>
        <time>2009-07-08T09:23:00Z</time>
      </trkpt>
      <trkpt lat="44.29945" lon="3.27443">
        <ele>456</ele>
        <time>2009-07-08T09:23:03Z</time>
      </trkpt>
      <trkpt lat="44.29949" lon="3.27434">
        <ele>456</ele>
        <time>2009-07-08T09:23:12Z</time>
      </trkpt>
      <trkpt lat="44.2995" lon="3.27417">
        <ele>459</ele>
        <time>2009-07-08T09:23:28Z</time>
      </trkpt>
      <trkpt lat="44.29958" lon="3.27414">
        <ele>462</ele>
        <time>2009-07-08T09:23:39Z</time>
      </trkpt>
      <trkpt lat="44.29964" lon="3.27404">
        <ele>466</ele>
        <time>2009-07-08T09:23:54Z</time>
      </trkpt>
      <trkpt lat="44.29965" lon="3.27398">
        <ele>467</ele>
        <time>2009-07-08T09:24:00Z</time>
      </trkpt>
      <trkpt lat="44.29976" lon="3.27382">
        <ele>467</ele>
        <time>2009-07-08T09:24:12Z</time>
      </trkpt>
      <trkpt lat="44.29985" lon="3.2737">
        <ele>470</ele>
        <time>2009-07-08T09:24:20Z</time>
      </trkpt>
      <trkpt lat="44.29974" lon="3.27364">
        <ele>473</ele>
        <time>2009-07-08T09:24:33Z</time>
      </trkpt>
      <trkpt lat="44.2996" lon="3.27355">
        <ele>476</ele>
        <time>2009-07-08T09:24:45Z</time>
      </trkpt>
      <trkpt lat="44.29956" lon="3.27338">
        <ele>477</ele>
        <time>2009-07-08T09:24:56Z</time>
      </trkpt>
      <trkpt lat="44.29952" lon="3.2733">
        <ele>479</ele>
        <time>2009-07-08T09:25:05Z</time>
      </trkpt>
      <trkpt lat="44.29953" lon="3.27328">
        <ele>480</ele>
        <time>2009-07-08T09:25:07Z</time>
      </trkpt>
      <trkpt lat="44.2996" lon="3.27319">
        <ele>480</ele>
        <time>2009-07-08T09:25:12Z</time>
      </trkpt>
      <trkpt lat="44.29959" lon="3.27301">
        <ele>483</ele>
        <time>2009-07-08T09:25:26Z</time>
      </trkpt>
      <trkpt lat="44.29954" lon="3.27291">
        <ele>486</ele>
        <time>2009-07-08T09:25:49Z</time>
      </trkpt>
      <trkpt lat="44.29955" lon="3.27286">
        <ele>487</ele>
        <time>2009-07-08T09:25:56Z</time>
      </trkpt>
      <trkpt lat="44.29958" lon="3.27283">
        <ele>487</ele>
        <time>2009-07-08T09:25:59Z</time>
      </trkpt>
      <trkpt lat="44.2996" lon="3.27279">
        <ele>487</ele>
        <time>2009-07-08T09:26:02Z</time>
      </trkpt>
      <trkpt lat="44.2998" lon="3.27249">
        <ele>488</ele>
        <time>2009-07-08T09:26:15Z</time>
      </trkpt>
      <trkpt lat="44.29982" lon="3.27229">
        <ele>492</ele>
        <time>2009-07-08T09:26:23Z</time>
      </trkpt>
      <trkpt lat="44.29982" lon="3.27226">
        <ele>492</ele>
        <time>2009-07-08T09:26:24Z</time>
      </trkpt>
      <trkpt lat="44.29983" lon="3.2722">
        <ele>492</ele>
        <time>2009-07-08T09:26:28Z</time>
      </trkpt>
      <trkpt lat="44.30006" lon="3.27202">
        <ele>489</ele>
        <time>2009-07-08T09:26:38Z</time>
      </trkpt>
      <trkpt lat="44.30021" lon="3.27193">
        <ele>485</ele>
        <time>2009-07-08T09:26:44Z</time>
      </trkpt>
      <trkpt lat="44.30023" lon="3.27193">
        <ele>485</ele>
        <time>2009-07-08T09:26:45Z</time>
      </trkpt>
      <trkpt lat="44.30028" lon="3.27188">
        <ele>483</ele>
        <time>2009-07-08T09:26:49Z</time>
      </trkpt>
      <trkpt lat="44.30029" lon="3.2718">
        <ele>480</ele>
        <time>2009-07-08T09:27:03Z</time>
      </trkpt>
      <trkpt lat="44.30031" lon="3.27175">
        <ele>478</ele>
        <time>2009-07-08T09:27:13Z</time>
      </trkpt>
      <trkpt lat="44.30035" lon="3.27177">
        <ele>478</ele>
        <time>2009-07-08T09:27:15Z</time>
      </trkpt>
      <trkpt lat="44.30049" lon="3.27177">
        <ele>479</ele>
        <time>2009-07-08T09:27:25Z</time>
      </trkpt>
      <trkpt lat="44.3006" lon="3.27176">
        <ele>481</ele>
        <time>2009-07-08T09:27:35Z</time>
      </trkpt>
      <trkpt lat="44.30072" lon="3.27168">
        <ele>484</ele>
        <time>2009-07-08T09:27:44Z</time>
      </trkpt>
      <trkpt lat="44.30079" lon="3.27162">
        <ele>484</ele>
        <time>2009-07-08T09:27:56Z</time>
      </trkpt>
      <trkpt lat="44.30083" lon="3.27159">
        <ele>483</ele>
        <time>2009-07-08T09:28:01Z</time>
      </trkpt>
      <trkpt lat="44.3009" lon="3.27153">
        <ele>481</ele>
        <time>2009-07-08T09:28:06Z</time>
      </trkpt>
      <trkpt lat="44.30101" lon="3.27134">
        <ele>480</ele>
        <time>2009-07-08T09:28:13Z</time>
      </trkpt>
      <trkpt lat="44.30105" lon="3.27121">
        <ele>477</ele>
        <time>2009-07-08T09:28:16Z</time>
      </trkpt>
      <trkpt lat="44.30118" lon="3.27095">
        <ele>474</ele>
        <time>2009-07-08T09:28:23Z</time>
      </trkpt>
      <trkpt lat="44.30118" lon="3.27089">
        <ele>474</ele>
        <time>2009-07-08T09:28:25Z</time>
      </trkpt>
      <trkpt lat="44.30123" lon="3.27078">
        <ele>474</ele>
        <time>2009-07-08T09:28:29Z</time>
      </trkpt>
      <trkpt lat="44.3013" lon="3.27035">
        <ele>475</ele>
        <time>2009-07-08T09:28:41Z</time>
      </trkpt>
      <trkpt lat="44.30129" lon="3.27009">
        <ele>478</ele>
        <time>2009-07-08T09:28:51Z</time>
      </trkpt>
      <trkpt lat="44.30134" lon="3.26987">
        <ele>482</ele>
        <time>2009-07-08T09:29:08Z</time>
      </trkpt>
      <trkpt lat="44.30136" lon="3.2698">
        <ele>483</ele>
        <time>2009-07-08T09:29:12Z</time>
      </trkpt>
      <trkpt lat="44.30143" lon="3.26973">
        <ele>484</ele>
        <time>2009-07-08T09:29:18Z</time>
      </trkpt>
      <trkpt lat="44.30148" lon="3.26968">
        <ele>485</ele>
        <time>2009-07-08T09:29:22Z</time>
      </trkpt>
      <trkpt lat="44.3016" lon="3.26932">
        <ele>488</ele>
        <time>2009-07-08T09:29:38Z</time>
      </trkpt>
      <trkpt lat="44.30174" lon="3.26906">
        <ele>489</ele>
        <time>2009-07-08T09:29:48Z</time>
      </trkpt>
      <trkpt lat="44.30197" lon="3.26871">
        <ele>489</ele>
        <time>2009-07-08T09:29:59Z</time>
      </trkpt>
      <trkpt lat="44.30209" lon="3.26851">
        <ele>491</ele>
        <time>2009-07-08T09:30:08Z</time>
      </trkpt>
      <trkpt lat="44.3021" lon="3.26849">
        <ele>491</ele>
        <time>2009-07-08T09:30:09Z</time>
      </trkpt>
      <trkpt lat="44.30215" lon="3.26841">
        <ele>494</ele>
        <time>2009-07-08T09:30:14Z</time>
      </trkpt>
      <trkpt lat="44.30229" lon="3.26819">
        <ele>497</ele>
        <time>2009-07-08T09:30:29Z</time>
      </trkpt>
      <trkpt lat="44.30247" lon="3.26796">
        <ele>499</ele>
        <time>2009-07-08T09:30:43Z</time>
      </trkpt>
      <trkpt lat="44.30262" lon="3.2677">
        <ele>501</ele>
        <time>2009-07-08T09:30:55Z</time>
      </trkpt>
      <trkpt lat="44.30276" lon="3.26743">
        <ele>502</ele>
        <time>2009-07-08T09:31:07Z</time>
      </trkpt>
      <trkpt lat="44.30278" lon="3.26736">
        <ele>503</ele>
        <time>2009-07-08T09:31:10Z</time>
      </trkpt>
      <trkpt lat="44.30286" lon="3.26729">
        <ele>503</ele>
        <time>2009-07-08T09:31:20Z</time>
      </trkpt>
      <trkpt lat="44.30291" lon="3.26718">
        <ele>503</ele>
        <time>2009-07-08T09:31:26Z</time>
      </trkpt>
      <trkpt lat="44.30311" lon="3.26699">
        <ele>503</ele>
        <time>2009-07-08T09:31:36Z</time>
      </trkpt>
      <trkpt lat="44.30314" lon="3.26695">
        <ele>504</ele>
        <time>2009-07-08T09:31:38Z</time>
      </trkpt>
      <trkpt lat="44.30324" lon="3.26682">
        <ele>504</ele>
        <time>2009-07-08T09:31:44Z</time>
      </trkpt>
      <trkpt lat="44.30332" lon="3.26672">
        <ele>504</ele>
        <time>2009-07-08T09:31:48Z</time>
      </trkpt>
      <trkpt lat="44.30332" lon="3.26659">
        <ele>504</ele>
        <time>2009-07-08T09:31:52Z</time>
      </trkpt>
      <trkpt lat="44.30321" lon="3.2662">
        <ele>504</ele>
        <time>2009-07-08T09:32:04Z</time>
      </trkpt>
      <trkpt lat="44.30321" lon="3.26618">
        <ele>505</ele>
        <time>2009-07-08T09:32:05Z</time>
      </trkpt>
      <trkpt lat="44.3032" lon="3.26612">
        <ele>506</ele>
        <time>2009-07-08T09:32:09Z</time>
      </trkpt>
      <trkpt lat="44.30321" lon="3.26611">
        <ele>506</ele>
        <time>2009-07-08T09:32:23Z</time>
      </trkpt>
      <trkpt lat="44.30321" lon="3.26618">
        <ele>506</ele>
        <time>2009-07-08T09:33:57Z</time>
      </trkpt>
      <trkpt lat="44.30342" lon="3.26613">
        <ele>505</ele>
        <time>2009-07-08T09:34:06Z</time>
      </trkpt>
      <trkpt lat="44.30363" lon="3.26607">
        <ele>508</ele>
        <time>2009-07-08T09:34:21Z</time>
      </trkpt>
      <trkpt lat="44.30365" lon="3.26604">
        <ele>510</ele>
        <time>2009-07-08T09:34:25Z</time>
      </trkpt>
      <trkpt lat="44.30366" lon="3.26602">
        <ele>510</ele>
        <time>2009-07-08T09:34:27Z</time>
      </trkpt>
      <trkpt lat="44.30378" lon="3.26586">
        <ele>510</ele>
        <time>2009-07-08T09:34:38Z</time>
      </trkpt>
      <trkpt lat="44.30385" lon="3.26556">
        <ele>513</ele>
        <time>2009-07-08T09:34:50Z</time>
      </trkpt>
      <trkpt lat="44.30382" lon="3.2655">
        <ele>513</ele>
        <time>2009-07-08T09:34:52Z</time>
      </trkpt>
      <trkpt lat="44.30383" lon="3.2653">
        <ele>515</ele>
        <time>2009-07-08T09:34:59Z</time>
      </trkpt>
      <trkpt lat="44.30397" lon="3.26501">
        <ele>515</ele>
        <time>2009-07-08T09:35:09Z</time>
      </trkpt>
      <trkpt lat="44.30399" lon="3.26499">
        <ele>515</ele>
        <time>2009-07-08T09:35:10Z</time>
      </trkpt>
      <trkpt lat="44.30404" lon="3.26489">
        <ele>515</ele>
        <time>2009-07-08T09:35:14Z</time>
      </trkpt>
      <trkpt lat="44.30406" lon="3.26446">
        <ele>517</ele>
        <time>2009-07-08T09:35:26Z</time>
      </trkpt>
      <trkpt lat="44.30404" lon="3.26413">
        <ele>519</ele>
        <time>2009-07-08T09:35:36Z</time>
      </trkpt>
      <trkpt lat="44.3041" lon="3.26379">
        <ele>522</ele>
        <time>2009-07-08T09:35:46Z</time>
      </trkpt>
      <trkpt lat="44.30411" lon="3.26376">
        <ele>522</ele>
        <time>2009-07-08T09:35:47Z</time>
      </trkpt>
      <trkpt lat="44.30415" lon="3.26356">
        <ele>521</ele>
        <time>2009-07-08T09:35:52Z</time>
      </trkpt>
      <trkpt lat="44.3042" lon="3.26341">
        <ele>519</ele>
        <time>2009-07-08T09:35:55Z</time>
      </trkpt>
      <trkpt lat="44.30423" lon="3.26323">
        <ele>520</ele>
        <time>2009-07-08T09:36:00Z</time>
      </trkpt>
      <trkpt lat="44.30431" lon="3.263">
        <ele>523</ele>
        <time>2009-07-08T09:36:08Z</time>
      </trkpt>
      <trkpt lat="44.30432" lon="3.26295">
        <ele>525</ele>
        <time>2009-07-08T09:36:10Z</time>
      </trkpt>
      <trkpt lat="44.30432" lon="3.26286">
        <ele>527</ele>
        <time>2009-07-08T09:36:13Z</time>
      </trkpt>
      <trkpt lat="44.30432" lon="3.26283">
        <ele>526</ele>
        <time>2009-07-08T09:36:14Z</time>
      </trkpt>
      <trkpt lat="44.30436" lon="3.26269">
        <ele>525</ele>
        <time>2009-07-08T09:36:18Z</time>
      </trkpt>
      <trkpt lat="44.30431" lon="3.26233">
        <ele>523</ele>
        <time>2009-07-08T09:36:28Z</time>
      </trkpt>
      <trkpt lat="44.30409" lon="3.2621">
        <ele>521</ele>
        <time>2009-07-08T09:36:37Z</time>
      </trkpt>
      <trkpt lat="44.304" lon="3.26204">
        <ele>522</ele>
        <time>2009-07-08T09:36:41Z</time>
      </trkpt>
      <trkpt lat="44.30395" lon="3.26194">
        <ele>522</ele>
        <time>2009-07-08T09:36:45Z</time>
      </trkpt>
      <trkpt lat="44.304" lon="3.26179">
        <ele>522</ele>
        <time>2009-07-08T09:36:49Z</time>
      </trkpt>
      <trkpt lat="44.30427" lon="3.26157">
        <ele>524</ele>
        <time>2009-07-08T09:37:01Z</time>
      </trkpt>
      <trkpt lat="44.30441" lon="3.26132">
        <ele>524</ele>
        <time>2009-07-08T09:37:10Z</time>
      </trkpt>
      <trkpt lat="44.30427" lon="3.26087">
        <ele>525</ele>
        <time>2009-07-08T09:37:23Z</time>
      </trkpt>
      <trkpt lat="44.30414" lon="3.26057">
        <ele>527</ele>
        <time>2009-07-08T09:37:31Z</time>
      </trkpt>
      <trkpt lat="44.30403" lon="3.26037">
        <ele>526</ele>
        <time>2009-07-08T09:37:39Z</time>
      </trkpt>
      <trkpt lat="44.30387" lon="3.26006">
        <ele>526</ele>
        <time>2009-07-08T09:37:48Z</time>
      </trkpt>
      <trkpt lat="44.30386" lon="3.26001">
        <ele>525</ele>
        <time>2009-07-08T09:37:49Z</time>
      </trkpt>
      <trkpt lat="44.30383" lon="3.25989">
        <ele>525</ele>
        <time>2009-07-08T09:37:51Z</time>
      </trkpt>
      <trkpt lat="44.30381" lon="3.25975">
        <ele>525</ele>
        <time>2009-07-08T09:37:54Z</time>
      </trkpt>
      <trkpt lat="44.30383" lon="3.25957">
        <ele>525</ele>
        <time>2009-07-08T09:37:59Z</time>
      </trkpt>
      <trkpt lat="44.30391" lon="3.25945">
        <ele>525</ele>
        <time>2009-07-08T09:38:11Z</time>
      </trkpt>
      <trkpt lat="44.30393" lon="3.2593">
        <ele>526</ele>
        <time>2009-07-08T09:38:25Z</time>
      </trkpt>
      <trkpt lat="44.30385" lon="3.25926">
        <ele>525</ele>
        <time>2009-07-08T09:38:57Z</time>
      </trkpt>
      <trkpt lat="44.30379" lon="3.25914">
        <ele>524</ele>
        <time>2009-07-08T09:39:04Z</time>
      </trkpt>
      <trkpt lat="44.30374" lon="3.25895">
        <ele>524</ele>
        <time>2009-07-08T09:39:08Z</time>
      </trkpt>
      <trkpt lat="44.3037" lon="3.2589">
        <ele>525</ele>
        <time>2009-07-08T09:39:10Z</time>
      </trkpt>
      <trkpt lat="44.30369" lon="3.25879">
        <ele>527</ele>
        <time>2009-07-08T09:39:14Z</time>
      </trkpt>
      <trkpt lat="44.30372" lon="3.25871">
        <ele>527</ele>
        <time>2009-07-08T09:39:17Z</time>
      </trkpt>
      <trkpt lat="44.30371" lon="3.25852">
        <ele>527</ele>
        <time>2009-07-08T09:39:28Z</time>
      </trkpt>
      <trkpt lat="44.30369" lon="3.25846">
        <ele>528</ele>
        <time>2009-07-08T09:39:34Z</time>
      </trkpt>
      <trkpt lat="44.30369" lon="3.25826">
        <ele>529</ele>
        <time>2009-07-08T09:39:43Z</time>
      </trkpt>
      <trkpt lat="44.30371" lon="3.25803">
        <ele>528</ele>
        <time>2009-07-08T09:39:51Z</time>
      </trkpt>
      <trkpt lat="44.30367" lon="3.25798">
        <ele>528</ele>
        <time>2009-07-08T09:39:55Z</time>
      </trkpt>
      <trkpt lat="44.30364" lon="3.25792">
        <ele>528</ele>
        <time>2009-07-08T09:39:59Z</time>
      </trkpt>
      <trkpt lat="44.30341" lon="3.25774">
        <ele>528</ele>
        <time>2009-07-08T09:40:10Z</time>
      </trkpt>
      <trkpt lat="44.30333" lon="3.25744">
        <ele>529</ele>
        <time>2009-07-08T09:40:19Z</time>
      </trkpt>
      <trkpt lat="44.30334" lon="3.2574">
        <ele>530</ele>
        <time>2009-07-08T09:40:20Z</time>
      </trkpt>
      <trkpt lat="44.30334" lon="3.25735">
        <ele>531</ele>
        <time>2009-07-08T09:40:22Z</time>
      </trkpt>
      <trkpt lat="44.30339" lon="3.25722">
        <ele>532</ele>
        <time>2009-07-08T09:40:31Z</time>
      </trkpt>
      <trkpt lat="44.30336" lon="3.25715">
        <ele>533</ele>
        <time>2009-07-08T09:40:39Z</time>
      </trkpt>
      <trkpt lat="44.30333" lon="3.25707">
        <ele>534</ele>
        <time>2009-07-08T09:40:54Z</time>
      </trkpt>
      <trkpt lat="44.30327" lon="3.257">
        <ele>537</ele>
        <time>2009-07-08T09:41:05Z</time>
      </trkpt>
      <trkpt lat="44.30321" lon="3.25693">
        <ele>538</ele>
        <time>2009-07-08T09:41:17Z</time>
      </trkpt>
      <trkpt lat="44.30315" lon="3.25689">
        <ele>539</ele>
        <time>2009-07-08T09:41:27Z</time>
      </trkpt>
      <trkpt lat="44.30314" lon="3.25688">
        <ele>539</ele>
        <time>2009-07-08T09:41:35Z</time>
      </trkpt>
      <trkpt lat="44.30308" lon="3.25678">
        <ele>541</ele>
        <time>2009-07-08T09:41:40Z</time>
      </trkpt>
      <trkpt lat="44.30306" lon="3.25673">
        <ele>543</ele>
        <time>2009-07-08T09:41:43Z</time>
      </trkpt>
      <trkpt lat="44.30301" lon="3.2567">
        <ele>544</ele>
        <time>2009-07-08T09:41:50Z</time>
      </trkpt>
      <trkpt lat="44.30297" lon="3.25663">
        <ele>545</ele>
        <time>2009-07-08T09:42:01Z</time>
      </trkpt>
      <trkpt lat="44.30297" lon="3.25657">
        <ele>546</ele>
        <time>2009-07-08T09:42:11Z</time>
      </trkpt>
      <trkpt lat="44.30306" lon="3.25643">
        <ele>548</ele>
        <time>2009-07-08T09:42:36Z</time>
      </trkpt>
      <trkpt lat="44.30301" lon="3.25636">
        <ele>549</ele>
        <time>2009-07-08T09:42:44Z</time>
      </trkpt>
      <trkpt lat="44.30299" lon="3.25628">
        <ele>550</ele>
        <time>2009-07-08T09:42:48Z</time>
      </trkpt>
      <trkpt lat="44.3029" lon="3.25609">
        <ele>554</ele>
        <time>2009-07-08T09:42:57Z</time>
      </trkpt>
      <trkpt lat="44.30289" lon="3.25593">
        <ele>557</ele>
        <time>2009-07-08T09:43:04Z</time>
      </trkpt>
      <trkpt lat="44.30288" lon="3.25589">
        <ele>557</ele>
        <time>2009-07-08T09:43:07Z</time>
      </trkpt>
      <trkpt lat="44.3029" lon="3.25579">
        <ele>558</ele>
        <time>2009-07-08T09:43:12Z</time>
      </trkpt>
      <trkpt lat="44.30289" lon="3.25575">
        <ele>559</ele>
        <time>2009-07-08T09:43:15Z</time>
      </trkpt>
      <trkpt lat="44.30288" lon="3.25571">
        <ele>560</ele>
        <time>2009-07-08T09:43:17Z</time>
      </trkpt>
      <trkpt lat="44.30283" lon="3.25559">
        <ele>561</ele>
        <time>2009-07-08T09:43:23Z</time>
      </trkpt>
      <trkpt lat="44.30284" lon="3.2554">
        <ele>562</ele>
        <time>2009-07-08T09:43:30Z</time>
      </trkpt>
      <trkpt lat="44.30269" lon="3.25515">
        <ele>564</ele>
        <time>2009-07-08T09:43:41Z</time>
      </trkpt>
      <trkpt lat="44.30261" lon="3.25499">
        <ele>565</ele>
        <time>2009-07-08T09:43:47Z</time>
      </trkpt>
      <trkpt lat="44.30239" lon="3.25486">
        <ele>565</ele>
        <time>2009-07-08T09:43:53Z</time>
      </trkpt>
      <trkpt lat="44.30213" lon="3.25458">
        <ele>566</ele>
        <time>2009-07-08T09:44:05Z</time>
      </trkpt>
      <trkpt lat="44.30211" lon="3.25445">
        <ele>566</ele>
        <time>2009-07-08T09:44:09Z</time>
      </trkpt>
      <trkpt lat="44.30219" lon="3.25411">
        <ele>567</ele>
        <time>2009-07-08T09:44:18Z</time>
      </trkpt>
      <trkpt lat="44.30265" lon="3.25365">
        <ele>569</ele>
        <time>2009-07-08T09:44:29Z</time>
      </trkpt>
      <trkpt lat="44.30269" lon="3.25357">
        <ele>571</ele>
        <time>2009-07-08T09:44:35Z</time>
      </trkpt>
      <trkpt lat="44.30279" lon="3.25346">
        <ele>573</ele>
        <time>2009-07-08T09:44:46Z</time>
      </trkpt>
      <trkpt lat="44.30299" lon="3.25338">
        <ele>571</ele>
        <time>2009-07-08T09:44:55Z</time>
      </trkpt>
      <trkpt lat="44.30313" lon="3.25332">
        <ele>573</ele>
        <time>2009-07-08T09:45:01Z</time>
      </trkpt>
      <trkpt lat="44.30322" lon="3.25332">
        <ele>573</ele>
        <time>2009-07-08T09:45:05Z</time>
      </trkpt>
      <trkpt lat="44.30337" lon="3.25335">
        <ele>570</ele>
        <time>2009-07-08T09:45:11Z</time>
      </trkpt>
      <trkpt lat="44.30356" lon="3.25334">
        <ele>570</ele>
        <time>2009-07-08T09:45:17Z</time>
      </trkpt>
      <trkpt lat="44.30362" lon="3.25335">
        <ele>570</ele>
        <time>2009-07-08T09:45:19Z</time>
      </trkpt>
      <trkpt lat="44.30365" lon="3.25334">
        <ele>571</ele>
        <time>2009-07-08T09:45:22Z</time>
      </trkpt>
      <trkpt lat="44.30367" lon="3.25336">
        <ele>570</ele>
        <time>2009-07-08T09:45:24Z</time>
      </trkpt>
      <trkpt lat="44.30397" lon="3.25339">
        <ele>570</ele>
        <time>2009-07-08T09:45:37Z</time>
      </trkpt>
      <trkpt lat="44.30407" lon="3.25332">
        <ele>570</ele>
        <time>2009-07-08T09:45:40Z</time>
      </trkpt>
      <trkpt lat="44.30424" lon="3.25306">
        <ele>566</ele>
        <time>2009-07-08T09:45:45Z</time>
      </trkpt>
      <trkpt lat="44.3045" lon="3.25262">
        <ele>563</ele>
        <time>2009-07-08T09:45:54Z</time>
      </trkpt>
      <trkpt lat="44.30456" lon="3.25252">
        <ele>561</ele>
        <time>2009-07-08T09:45:57Z</time>
      </trkpt>
      <trkpt lat="44.30464" lon="3.25242">
        <ele>560</ele>
        <time>2009-07-08T09:46:00Z</time>
      </trkpt>
      <trkpt lat="44.30494" lon="3.25208">
        <ele>559</ele>
        <time>2009-07-08T09:46:11Z</time>
      </trkpt>
      <trkpt lat="44.30499" lon="3.252">
        <ele>557</ele>
        <time>2009-07-08T09:46:13Z</time>
      </trkpt>
      <trkpt lat="44.30515" lon="3.25171">
        <ele>554</ele>
        <time>2009-07-08T09:46:21Z</time>
      </trkpt>
      <trkpt lat="44.30526" lon="3.25159">
        <ele>552</ele>
        <time>2009-07-08T09:46:25Z</time>
      </trkpt>
      <trkpt lat="44.30538" lon="3.25135">
        <ele>549</ele>
        <time>2009-07-08T09:46:30Z</time>
      </trkpt>
      <trkpt lat="44.30544" lon="3.25127">
        <ele>548</ele>
        <time>2009-07-08T09:46:32Z</time>
      </trkpt>
      <trkpt lat="44.30546" lon="3.25122">
        <ele>548</ele>
        <time>2009-07-08T09:46:33Z</time>
      </trkpt>
      <trkpt lat="44.30559" lon="3.25105">
        <ele>547</ele>
        <time>2009-07-08T09:46:36Z</time>
      </trkpt>
      <trkpt lat="44.30569" lon="3.25077">
        <ele>548</ele>
        <time>2009-07-08T09:46:42Z</time>
      </trkpt>
      <trkpt lat="44.30567" lon="3.25065">
        <ele>550</ele>
        <time>2009-07-08T09:46:56Z</time>
      </trkpt>
      <trkpt lat="44.30563" lon="3.25037">
        <ele>549</ele>
        <time>2009-07-08T09:47:06Z</time>
      </trkpt>
      <trkpt lat="44.30562" lon="3.25025">
        <ele>550</ele>
        <time>2009-07-08T09:47:16Z</time>
      </trkpt>
      <trkpt lat="44.30568" lon="3.25018">
        <ele>547</ele>
        <time>2009-07-08T09:47:47Z</time>
      </trkpt>
      <trkpt lat="44.30568" lon="3.25017">
        <ele>551</ele>
        <time>2009-07-08T09:47:50Z</time>
      </trkpt>
      <trkpt lat="44.30571" lon="3.25016">
        <ele>547</ele>
        <time>2009-07-08T09:47:54Z</time>
      </trkpt>
      <trkpt lat="44.30571" lon="3.25016">
        <ele>553</ele>
        <time>2009-07-08T09:47:55Z</time>
      </trkpt>
      <trkpt lat="44.30571" lon="3.25016">
        <ele>550</ele>
        <time>2009-07-08T09:47:56Z</time>
      </trkpt>
      <trkpt lat="44.30571" lon="3.25015">
        <ele>554</ele>
        <time>2009-07-08T09:48:01Z</time>
      </trkpt>
      <trkpt lat="44.30571" lon="3.25015">
        <ele>548</ele>
        <time>2009-07-08T09:48:02Z</time>
      </trkpt>
      <trkpt lat="44.30571" lon="3.25015">
        <ele>552</ele>
        <time>2009-07-08T09:48:03Z</time>
      </trkpt>
      <trkpt lat="44.30556" lon="3.25019">
        <ele>550</ele>
        <time>2009-07-08T09:48:40Z</time>
      </trkpt>
      <trkpt lat="44.3056" lon="3.25016">
        <ele>552</ele>
        <time>2009-07-08T09:48:56Z</time>
      </trkpt>
      <trkpt lat="44.30558" lon="3.25012">
        <ele>552</ele>
        <time>2009-07-08T09:49:16Z</time>
      </trkpt>
      <trkpt lat="44.30559" lon="3.25011">
        <ele>552</ele>
        <time>2009-07-08T09:49:18Z</time>
      </trkpt>
      <trkpt lat="44.30557" lon="3.25006">
        <ele>553</ele>
        <time>2009-07-08T09:49:21Z</time>
      </trkpt>
      <trkpt lat="44.30549" lon="3.2499">
        <ele>555</ele>
        <time>2009-07-08T09:49:34Z</time>
      </trkpt>
      <trkpt lat="44.30549" lon="3.24986">
        <ele>555</ele>
        <time>2009-07-08T09:49:36Z</time>
      </trkpt>
      <trkpt lat="44.30556" lon="3.24969">
        <ele>558</ele>
        <time>2009-07-08T09:49:47Z</time>
      </trkpt>
      <trkpt lat="44.30555" lon="3.24966">
        <ele>559</ele>
        <time>2009-07-08T09:49:50Z</time>
      </trkpt>
      <trkpt lat="44.30559" lon="3.24951">
        <ele>560</ele>
        <time>2009-07-08T09:50:06Z</time>
      </trkpt>
      <trkpt lat="44.30554" lon="3.2494">
        <ele>562</ele>
        <time>2009-07-08T09:50:13Z</time>
      </trkpt>
      <trkpt lat="44.30551" lon="3.24936">
        <ele>562</ele>
        <time>2009-07-08T09:50:15Z</time>
      </trkpt>
      <trkpt lat="44.30544" lon="3.24902">
        <ele>563</ele>
        <time>2009-07-08T09:50:28Z</time>
      </trkpt>
      <trkpt lat="44.30541" lon="3.24872">
        <ele>563</ele>
        <time>2009-07-08T09:50:37Z</time>
      </trkpt>
      <trkpt lat="44.30544" lon="3.24863">
        <ele>564</ele>
        <time>2009-07-08T09:50:40Z</time>
      </trkpt>
      <trkpt lat="44.30566" lon="3.24829">
        <ele>565</ele>
        <time>2009-07-08T09:50:53Z</time>
      </trkpt>
      <trkpt lat="44.30576" lon="3.24816">
        <ele>568</ele>
        <time>2009-07-08T09:50:58Z</time>
      </trkpt>
      <trkpt lat="44.30582" lon="3.24789">
        <ele>569</ele>
        <time>2009-07-08T09:51:08Z</time>
      </trkpt>
      <trkpt lat="44.30581" lon="3.24785">
        <ele>569</ele>
        <time>2009-07-08T09:51:10Z</time>
      </trkpt>
      <trkpt lat="44.30584" lon="3.24774">
        <ele>568</ele>
        <time>2009-07-08T09:51:13Z</time>
      </trkpt>
      <trkpt lat="44.30585" lon="3.24756">
        <ele>569</ele>
        <time>2009-07-08T09:51:17Z</time>
      </trkpt>
      <trkpt lat="44.30568" lon="3.24749">
        <ele>568</ele>
        <time>2009-07-08T09:51:23Z</time>
      </trkpt>
      <trkpt lat="44.30538" lon="3.24745">
        <ele>569</ele>
        <time>2009-07-08T09:51:34Z</time>
      </trkpt>
      <trkpt lat="44.3053" lon="3.24746">
        <ele>571</ele>
        <time>2009-07-08T09:51:38Z</time>
      </trkpt>
      <trkpt lat="44.30518" lon="3.24748">
        <ele>572</ele>
        <time>2009-07-08T09:51:44Z</time>
      </trkpt>
      <trkpt lat="44.30514" lon="3.2475">
        <ele>574</ele>
        <time>2009-07-08T09:51:46Z</time>
      </trkpt>
      <trkpt lat="44.30505" lon="3.2475">
        <ele>574</ele>
        <time>2009-07-08T09:51:50Z</time>
      </trkpt>
      <trkpt lat="44.30488" lon="3.24746">
        <ele>577</ele>
        <time>2009-07-08T09:52:00Z</time>
      </trkpt>
      <trkpt lat="44.30485" lon="3.24747">
        <ele>577</ele>
        <time>2009-07-08T09:52:04Z</time>
      </trkpt>
      <trkpt lat="44.30477" lon="3.24748">
        <ele>578</ele>
        <time>2009-07-08T09:52:14Z</time>
      </trkpt>
      <trkpt lat="44.30471" lon="3.24749">
        <ele>578</ele>
        <time>2009-07-08T09:52:21Z</time>
      </trkpt>
      <trkpt lat="44.30453" lon="3.24746">
        <ele>580</ele>
        <time>2009-07-08T09:52:28Z</time>
      </trkpt>
      <trkpt lat="44.30445" lon="3.24744">
        <ele>582</ele>
        <time>2009-07-08T09:52:31Z</time>
      </trkpt>
      <trkpt lat="44.30425" lon="3.24743">
        <ele>583</ele>
        <time>2009-07-08T09:52:41Z</time>
      </trkpt>
      <trkpt lat="44.30413" lon="3.24744">
        <ele>585</ele>
        <time>2009-07-08T09:52:47Z</time>
      </trkpt>
      <trkpt lat="44.304" lon="3.24739">
        <ele>587</ele>
        <time>2009-07-08T09:52:57Z</time>
      </trkpt>
      <trkpt lat="44.30385" lon="3.24731">
        <ele>588</ele>
        <time>2009-07-08T09:53:06Z</time>
      </trkpt>
      <trkpt lat="44.30378" lon="3.24724">
        <ele>588</ele>
        <time>2009-07-08T09:53:10Z</time>
      </trkpt>
      <trkpt lat="44.30374" lon="3.24705">
        <ele>588</ele>
        <time>2009-07-08T09:53:17Z</time>
      </trkpt>
      <trkpt lat="44.30397" lon="3.24665">
        <ele>591</ele>
        <time>2009-07-08T09:53:26Z</time>
      </trkpt>
      <trkpt lat="44.30396" lon="3.24656">
        <ele>590</ele>
        <time>2009-07-08T09:53:30Z</time>
      </trkpt>
      <trkpt lat="44.30392" lon="3.24654">
        <ele>590</ele>
        <time>2009-07-08T09:53:32Z</time>
      </trkpt>
      <trkpt lat="44.30367" lon="3.24648">
        <ele>588</ele>
        <time>2009-07-08T09:53:42Z</time>
      </trkpt>
      <trkpt lat="44.30346" lon="3.24642">
        <ele>588</ele>
        <time>2009-07-08T09:53:49Z</time>
      </trkpt>
      <trkpt lat="44.30339" lon="3.24639">
        <ele>588</ele>
        <time>2009-07-08T09:53:53Z</time>
      </trkpt>
      <trkpt lat="44.30349" lon="3.2462">
        <ele>584</ele>
        <time>2009-07-08T09:53:59Z</time>
      </trkpt>
      <trkpt lat="44.30351" lon="3.24615">
        <ele>582</ele>
        <time>2009-07-08T09:54:00Z</time>
      </trkpt>
      <trkpt lat="44.30355" lon="3.24593">
        <ele>585</ele>
        <time>2009-07-08T09:54:05Z</time>
      </trkpt>
      <trkpt lat="44.30354" lon="3.24589">
        <ele>585</ele>
        <time>2009-07-08T09:54:07Z</time>
      </trkpt>
      <trkpt lat="44.30335" lon="3.2457">
        <ele>587</ele>
        <time>2009-07-08T09:54:17Z</time>
      </trkpt>
      <trkpt lat="44.3032" lon="3.24558">
        <ele>589</ele>
        <time>2009-07-08T09:54:24Z</time>
      </trkpt>
      <trkpt lat="44.30319" lon="3.24554">
        <ele>589</ele>
        <time>2009-07-08T09:54:26Z</time>
      </trkpt>
      <trkpt lat="44.30313" lon="3.24542">
        <ele>590</ele>
        <time>2009-07-08T09:54:32Z</time>
      </trkpt>
      <trkpt lat="44.30312" lon="3.2454">
        <ele>591</ele>
        <time>2009-07-08T09:54:33Z</time>
      </trkpt>
      <trkpt lat="44.30295" lon="3.24527">
        <ele>594</ele>
        <time>2009-07-08T09:54:45Z</time>
      </trkpt>
      <trkpt lat="44.3028" lon="3.24515">
        <ele>597</ele>
        <time>2009-07-08T09:54:56Z</time>
      </trkpt>
      <trkpt lat="44.30281" lon="3.245">
        <ele>595</ele>
        <time>2009-07-08T09:55:00Z</time>
      </trkpt>
      <trkpt lat="44.30281" lon="3.24489">
        <ele>596</ele>
        <time>2009-07-08T09:55:09Z</time>
      </trkpt>
      <trkpt lat="44.30276" lon="3.24488">
        <ele>598</ele>
        <time>2009-07-08T09:55:15Z</time>
      </trkpt>
      <trkpt lat="44.30275" lon="3.24485">
        <ele>598</ele>
        <time>2009-07-08T09:55:20Z</time>
      </trkpt>
      <trkpt lat="44.30269" lon="3.24476">
        <ele>596</ele>
        <time>2009-07-08T09:55:25Z</time>
      </trkpt>
      <trkpt lat="44.30257" lon="3.24462">
        <ele>596</ele>
        <time>2009-07-08T09:55:32Z</time>
      </trkpt>
      <trkpt lat="44.30266" lon="3.24437">
        <ele>596</ele>
        <time>2009-07-08T09:55:41Z</time>
      </trkpt>
      <trkpt lat="44.30268" lon="3.24435">
        <ele>596</ele>
        <time>2009-07-08T09:55:42Z</time>
      </trkpt>
      <trkpt lat="44.30272" lon="3.24413">
        <ele>597</ele>
        <time>2009-07-08T09:55:50Z</time>
      </trkpt>
      <trkpt lat="44.30265" lon="3.24358">
        <ele>600</ele>
        <time>2009-07-08T09:56:06Z</time>
      </trkpt>
      <trkpt lat="44.30265" lon="3.24355">
        <ele>601</ele>
        <time>2009-07-08T09:56:07Z</time>
      </trkpt>
      <trkpt lat="44.30262" lon="3.24351">
        <ele>601</ele>
        <time>2009-07-08T09:56:09Z</time>
      </trkpt>
      <trkpt lat="44.30248" lon="3.24344">
        <ele>601</ele>
        <time>2009-07-08T09:56:18Z</time>
      </trkpt>
      <trkpt lat="44.3023" lon="3.24326">
        <ele>603</ele>
        <time>2009-07-08T09:56:28Z</time>
      </trkpt>
      <trkpt lat="44.3023" lon="3.24325">
        <ele>602</ele>
        <time>2009-07-08T09:56:29Z</time>
      </trkpt>
      <trkpt lat="44.30266" lon="3.24293">
        <ele>602</ele>
        <time>2009-07-08T09:57:45Z</time>
      </trkpt>
      <trkpt lat="44.30239" lon="3.24307">
        <ele>604</ele>
        <time>2009-07-08T09:58:34Z</time>
      </trkpt>
      <trkpt lat="44.30238" lon="3.24311">
        <ele>605</ele>
        <time>2009-07-08T09:58:51Z</time>
      </trkpt>
      <trkpt lat="44.30215" lon="3.24321">
        <ele>607</ele>
        <time>2009-07-08T10:00:43Z</time>
      </trkpt>
      <trkpt lat="44.3017" lon="3.24338">
        <ele>606</ele>
        <time>2009-07-08T10:01:03Z</time>
      </trkpt>
      <trkpt lat="44.30185" lon="3.24329">
        <ele>607</ele>
        <time>2009-07-08T10:01:16Z</time>
      </trkpt>
      <trkpt lat="44.30188" lon="3.24319">
        <ele>607</ele>
        <time>2009-07-08T10:01:20Z</time>
      </trkpt>
      <trkpt lat="44.30197" lon="3.24305">
        <ele>606</ele>
        <time>2009-07-08T10:01:23Z</time>
      </trkpt>
      <trkpt lat="44.30206" lon="3.24291">
        <ele>604</ele>
        <time>2009-07-08T10:01:25Z</time>
      </trkpt>
      <trkpt lat="44.30213" lon="3.24264">
        <ele>606</ele>
        <time>2009-07-08T10:01:30Z</time>
      </trkpt>
      <trkpt lat="44.3022" lon="3.24258">
        <ele>606</ele>
        <time>2009-07-08T10:01:41Z</time>
      </trkpt>
      <trkpt lat="44.30234" lon="3.24253">
        <ele>606</ele>
        <time>2009-07-08T10:03:00Z</time>
      </trkpt>
      <trkpt lat="44.30242" lon="3.24236">
        <ele>606</ele>
        <time>2009-07-08T10:03:09Z</time>
      </trkpt>
      <trkpt lat="44.30244" lon="3.24213">
        <ele>606</ele>
        <time>2009-07-08T10:03:16Z</time>
      </trkpt>
      <trkpt lat="44.30232" lon="3.24199">
        <ele>607</ele>
        <time>2009-07-08T10:03:22Z</time>
      </trkpt>
      <trkpt lat="44.30206" lon="3.24184">
        <ele>608</ele>
        <time>2009-07-08T10:03:33Z</time>
      </trkpt>
      <trkpt lat="44.30183" lon="3.24192">
        <ele>606</ele>
        <time>2009-07-08T10:03:42Z</time>
      </trkpt>
      <trkpt lat="44.3017" lon="3.24193">
        <ele>606</ele>
        <time>2009-07-08T10:03:45Z</time>
      </trkpt>
      <trkpt lat="44.30157" lon="3.2418">
        <ele>606</ele>
        <time>2009-07-08T10:03:52Z</time>
      </trkpt>
      <trkpt lat="44.30148" lon="3.24174">
        <ele>606</ele>
        <time>2009-07-08T10:03:56Z</time>
      </trkpt>
      <trkpt lat="44.30137" lon="3.24176">
        <ele>605</ele>
        <time>2009-07-08T10:04:00Z</time>
      </trkpt>
      <trkpt lat="44.30108" lon="3.24194">
        <ele>605</ele>
        <time>2009-07-08T10:04:10Z</time>
      </trkpt>
      <trkpt lat="44.30098" lon="3.242">
        <ele>604</ele>
        <time>2009-07-08T10:04:13Z</time>
      </trkpt>
      <trkpt lat="44.30082" lon="3.24206">
        <ele>603</ele>
        <time>2009-07-08T10:04:17Z</time>
      </trkpt>
      <trkpt lat="44.30054" lon="3.24216">
        <ele>602</ele>
        <time>2009-07-08T10:04:24Z</time>
      </trkpt>
      <trkpt lat="44.30019" lon="3.24244">
        <ele>602</ele>
        <time>2009-07-08T10:04:36Z</time>
      </trkpt>
      <trkpt lat="44.30016" lon="3.24248">
        <ele>601</ele>
        <time>2009-07-08T10:04:40Z</time>
      </trkpt>
      <trkpt lat="44.30012" lon="3.24244">
        <ele>601</ele>
        <time>2009-07-08T10:04:51Z</time>
      </trkpt>
      <trkpt lat="44.30016" lon="3.24247">
        <ele>602</ele>
        <time>2009-07-08T10:05:28Z</time>
      </trkpt>
      <trkpt lat="44.30017" lon="3.24249">
        <ele>603</ele>
        <time>2009-07-08T10:05:45Z</time>
      </trkpt>
      <trkpt lat="44.30017" lon="3.24249">
        <ele>603</ele>
        <time>2009-07-08T10:06:01Z</time>
      </trkpt>
      <trkpt lat="44.30007" lon="3.24276">
        <ele>600</ele>
        <time>2009-07-08T10:06:11Z</time>
      </trkpt>
      <trkpt lat="44.30002" lon="3.24282">
        <ele>600</ele>
        <time>2009-07-08T10:06:21Z</time>
      </trkpt>
      <trkpt lat="44.29989" lon="3.24301">
        <ele>597</ele>
        <time>2009-07-08T10:06:34Z</time>
      </trkpt>
      <trkpt lat="44.29976" lon="3.24326">
        <ele>596</ele>
        <time>2009-07-08T10:06:42Z</time>
      </trkpt>
      <trkpt lat="44.29964" lon="3.24326">
        <ele>596</ele>
        <time>2009-07-08T10:06:47Z</time>
      </trkpt>
      <trkpt lat="44.29939" lon="3.24301">
        <ele>598</ele>
        <time>2009-07-08T10:06:59Z</time>
      </trkpt>
      <trkpt lat="44.29906" lon="3.24292">
        <ele>597</ele>
        <time>2009-07-08T10:07:10Z</time>
      </trkpt>
      <trkpt lat="44.29904" lon="3.24296">
        <ele>597</ele>
        <time>2009-07-08T10:07:11Z</time>
      </trkpt>
      <trkpt lat="44.29892" lon="3.24323">
        <ele>595</ele>
        <time>2009-07-08T10:07:17Z</time>
      </trkpt>
      <trkpt lat="44.29891" lon="3.24346">
        <ele>595</ele>
        <time>2009-07-08T10:07:21Z</time>
      </trkpt>
      <trkpt lat="44.29878" lon="3.24403">
        <ele>591</ele>
        <time>2009-07-08T10:07:30Z</time>
      </trkpt>
      <trkpt lat="44.29864" lon="3.24406">
        <ele>589</ele>
        <time>2009-07-08T10:07:36Z</time>
      </trkpt>
      <trkpt lat="44.29856" lon="3.244">
        <ele>591</ele>
        <time>2009-07-08T10:07:40Z</time>
      </trkpt>
      <trkpt lat="44.29831" lon="3.24373">
        <ele>591</ele>
        <time>2009-07-08T10:07:52Z</time>
      </trkpt>
      <trkpt lat="44.29804" lon="3.24359">
        <ele>589</ele>
        <time>2009-07-08T10:08:04Z</time>
      </trkpt>
      <trkpt lat="44.29795" lon="3.24352">
        <ele>591</ele>
        <time>2009-07-08T10:08:07Z</time>
      </trkpt>
      <trkpt lat="44.29757" lon="3.2435">
        <ele>589</ele>
        <time>2009-07-08T10:08:17Z</time>
      </trkpt>
      <trkpt lat="44.29753" lon="3.24354">
        <ele>589</ele>
        <time>2009-07-08T10:08:18Z</time>
      </trkpt>
      <trkpt lat="44.29744" lon="3.2436">
        <ele>589</ele>
        <time>2009-07-08T10:08:20Z</time>
      </trkpt>
      <trkpt lat="44.2972" lon="3.24389">
        <ele>586</ele>
        <time>2009-07-08T10:08:27Z</time>
      </trkpt>
      <trkpt lat="44.29712" lon="3.24389">
        <ele>585</ele>
        <time>2009-07-08T10:08:32Z</time>
      </trkpt>
      <trkpt lat="44.297" lon="3.24365">
        <ele>585</ele>
        <time>2009-07-08T10:08:38Z</time>
      </trkpt>
      <trkpt lat="44.29664" lon="3.24344">
        <ele>586</ele>
        <time>2009-07-08T10:08:50Z</time>
      </trkpt>
      <trkpt lat="44.2963" lon="3.24337">
        <ele>585</ele>
        <time>2009-07-08T10:09:00Z</time>
      </trkpt>
      <trkpt lat="44.29613" lon="3.24301">
        <ele>586</ele>
        <time>2009-07-08T10:09:10Z</time>
      </trkpt>
      <trkpt lat="44.29586" lon="3.24279">
        <ele>585</ele>
        <time>2009-07-08T10:09:19Z</time>
      </trkpt>
      <trkpt lat="44.2958" lon="3.24271">
        <ele>585</ele>
        <time>2009-07-08T10:09:21Z</time>
      </trkpt>
      <trkpt lat="44.29561" lon="3.24255">
        <ele>585</ele>
        <time>2009-07-08T10:09:27Z</time>
      </trkpt>
      <trkpt lat="44.29544" lon="3.24227">
        <ele>585</ele>
        <time>2009-07-08T10:09:35Z</time>
      </trkpt>
      <trkpt lat="44.29533" lon="3.24219">
        <ele>584</ele>
        <time>2009-07-08T10:09:39Z</time>
      </trkpt>
      <trkpt lat="44.29538" lon="3.2419">
        <ele>583</ele>
        <time>2009-07-08T10:09:48Z</time>
      </trkpt>
      <trkpt lat="44.29542" lon="3.24176">
        <ele>584</ele>
        <time>2009-07-08T10:09:51Z</time>
      </trkpt>
      <trkpt lat="44.29525" lon="3.24166">
        <ele>584</ele>
        <time>2009-07-08T10:09:58Z</time>
      </trkpt>
      <trkpt lat="44.29498" lon="3.24191">
        <ele>582</ele>
        <time>2009-07-08T10:10:08Z</time>
      </trkpt>
      <trkpt lat="44.29492" lon="3.24203">
        <ele>580</ele>
        <time>2009-07-08T10:10:11Z</time>
      </trkpt>
      <trkpt lat="44.29492" lon="3.24213">
        <ele>581</ele>
        <time>2009-07-08T10:10:13Z</time>
      </trkpt>
      <trkpt lat="44.29487" lon="3.24228">
        <ele>582</ele>
        <time>2009-07-08T10:10:17Z</time>
      </trkpt>
      <trkpt lat="44.2947" lon="3.24239">
        <ele>581</ele>
        <time>2009-07-08T10:10:23Z</time>
      </trkpt>
      <trkpt lat="44.29464" lon="3.24249">
        <ele>582</ele>
        <time>2009-07-08T10:10:26Z</time>
      </trkpt>
      <trkpt lat="44.29456" lon="3.24269">
        <ele>584</ele>
        <time>2009-07-08T10:10:36Z</time>
      </trkpt>
      <trkpt lat="44.29431" lon="3.24296">
        <ele>584</ele>
        <time>2009-07-08T10:10:48Z</time>
      </trkpt>
      <trkpt lat="44.29407" lon="3.24318">
        <ele>584</ele>
        <time>2009-07-08T10:10:59Z</time>
      </trkpt>
      <trkpt lat="44.294" lon="3.24319">
        <ele>585</ele>
        <time>2009-07-08T10:11:02Z</time>
      </trkpt>
      <trkpt lat="44.29397" lon="3.24316">
        <ele>586</ele>
        <time>2009-07-08T10:11:20Z</time>
      </trkpt>
      <trkpt lat="44.29392" lon="3.24316">
        <ele>587</ele>
        <time>2009-07-08T10:11:33Z</time>
      </trkpt>
      <trkpt lat="44.2939" lon="3.24316">
        <ele>586</ele>
        <time>2009-07-08T10:11:53Z</time>
      </trkpt>
      <trkpt lat="44.29383" lon="3.24328">
        <ele>583</ele>
        <time>2009-07-08T10:11:59Z</time>
      </trkpt>
      <trkpt lat="44.29375" lon="3.24331">
        <ele>585</ele>
        <time>2009-07-08T10:12:03Z</time>
      </trkpt>
      <trkpt lat="44.29372" lon="3.24331">
        <ele>586</ele>
        <time>2009-07-08T10:12:05Z</time>
      </trkpt>
      <trkpt lat="44.29368" lon="3.24332">
        <ele>585</ele>
        <time>2009-07-08T10:12:13Z</time>
      </trkpt>
      <trkpt lat="44.29353" lon="3.24331">
        <ele>585</ele>
        <time>2009-07-08T10:12:20Z</time>
      </trkpt>
      <trkpt lat="44.29341" lon="3.24335">
        <ele>585</ele>
        <time>2009-07-08T10:12:31Z</time>
      </trkpt>
      <trkpt lat="44.2934" lon="3.24335">
        <ele>585</ele>
        <time>2009-07-08T10:12:32Z</time>
      </trkpt>
      <trkpt lat="44.29332" lon="3.24317">
        <ele>583</ele>
        <time>2009-07-08T10:12:38Z</time>
      </trkpt>
      <trkpt lat="44.29322" lon="3.24304">
        <ele>582</ele>
        <time>2009-07-08T10:12:48Z</time>
      </trkpt>
      <trkpt lat="44.29311" lon="3.24307">
        <ele>582</ele>
        <time>2009-07-08T10:13:02Z</time>
      </trkpt>
      <trkpt lat="44.29287" lon="3.24305">
        <ele>582</ele>
        <time>2009-07-08T10:13:12Z</time>
      </trkpt>
      <trkpt lat="44.29283" lon="3.24299">
        <ele>582</ele>
        <time>2009-07-08T10:13:15Z</time>
      </trkpt>
      <trkpt lat="44.29287" lon="3.24271">
        <ele>580</ele>
        <time>2009-07-08T10:13:22Z</time>
      </trkpt>
      <trkpt lat="44.29312" lon="3.24217">
        <ele>577</ele>
        <time>2009-07-08T10:13:31Z</time>
      </trkpt>
      <trkpt lat="44.29312" lon="3.24205">
        <ele>576</ele>
        <time>2009-07-08T10:13:33Z</time>
      </trkpt>
      <trkpt lat="44.29293" lon="3.24184">
        <ele>577</ele>
        <time>2009-07-08T10:13:40Z</time>
      </trkpt>
      <trkpt lat="44.2928" lon="3.24166">
        <ele>579</ele>
        <time>2009-07-08T10:13:46Z</time>
      </trkpt>
      <trkpt lat="44.29276" lon="3.24152">
        <ele>578</ele>
        <time>2009-07-08T10:13:49Z</time>
      </trkpt>
      <trkpt lat="44.29273" lon="3.24141">
        <ele>578</ele>
        <time>2009-07-08T10:13:51Z</time>
      </trkpt>
      <trkpt lat="44.29269" lon="3.24105">
        <ele>576</ele>
        <time>2009-07-08T10:13:56Z</time>
      </trkpt>
      <trkpt lat="44.29265" lon="3.24089">
        <ele>578</ele>
        <time>2009-07-08T10:13:59Z</time>
      </trkpt>
      <trkpt lat="44.29262" lon="3.24076">
        <ele>581</ele>
        <time>2009-07-08T10:14:11Z</time>
      </trkpt>
      <trkpt lat="44.29261" lon="3.24075">
        <ele>581</ele>
        <time>2009-07-08T10:14:12Z</time>
      </trkpt>
      <trkpt lat="44.29248" lon="3.24072">
        <ele>579</ele>
        <time>2009-07-08T10:14:27Z</time>
      </trkpt>
      <trkpt lat="44.29239" lon="3.24071">
        <ele>578</ele>
        <time>2009-07-08T10:14:39Z</time>
      </trkpt>
      <trkpt lat="44.29236" lon="3.2407">
        <ele>577</ele>
        <time>2009-07-08T10:14:41Z</time>
      </trkpt>
      <trkpt lat="44.29218" lon="3.24068">
        <ele>574</ele>
        <time>2009-07-08T10:14:49Z</time>
      </trkpt>
      <trkpt lat="44.29193" lon="3.24067">
        <ele>571</ele>
        <time>2009-07-08T10:14:59Z</time>
      </trkpt>
      <trkpt lat="44.29182" lon="3.24072">
        <ele>568</ele>
        <time>2009-07-08T10:15:04Z</time>
      </trkpt>
      <trkpt lat="44.29164" lon="3.24078">
        <ele>565</ele>
        <time>2009-07-08T10:15:12Z</time>
      </trkpt>
      <trkpt lat="44.29152" lon="3.24083">
        <ele>562</ele>
        <time>2009-07-08T10:15:18Z</time>
      </trkpt>
      <trkpt lat="44.29129" lon="3.24094">
        <ele>559</ele>
        <time>2009-07-08T10:15:26Z</time>
      </trkpt>
      <trkpt lat="44.29101" lon="3.24077">
        <ele>557</ele>
        <time>2009-07-08T10:15:35Z</time>
      </trkpt>
      <trkpt lat="44.29081" lon="3.24053">
        <ele>559</ele>
        <time>2009-07-08T10:15:45Z</time>
      </trkpt>
      <trkpt lat="44.2908" lon="3.24042">
        <ele>562</ele>
        <time>2009-07-08T10:15:56Z</time>
      </trkpt>
      <trkpt lat="44.29078" lon="3.24031">
        <ele>564</ele>
        <time>2009-07-08T10:16:10Z</time>
      </trkpt>
      <trkpt lat="44.29066" lon="3.24024">
        <ele>567</ele>
        <time>2009-07-08T10:16:25Z</time>
      </trkpt>
      <trkpt lat="44.29051" lon="3.24022">
        <ele>569</ele>
        <time>2009-07-08T10:16:40Z</time>
      </trkpt>
      <trkpt lat="44.29042" lon="3.24013">
        <ele>572</ele>
        <time>2009-07-08T10:16:52Z</time>
      </trkpt>
      <trkpt lat="44.29035" lon="3.23999">
        <ele>573</ele>
        <time>2009-07-08T10:17:04Z</time>
      </trkpt>
      <trkpt lat="44.29031" lon="3.23995">
        <ele>574</ele>
        <time>2009-07-08T10:17:09Z</time>
      </trkpt>
      <trkpt lat="44.29025" lon="3.23992">
        <ele>577</ele>
        <time>2009-07-08T10:17:19Z</time>
      </trkpt>
      <trkpt lat="44.29024" lon="3.23991">
        <ele>574</ele>
        <time>2009-07-08T10:17:31Z</time>
      </trkpt>
      <trkpt lat="44.2902" lon="3.23991">
        <ele>576</ele>
        <time>2009-07-08T10:18:11Z</time>
      </trkpt>
      <trkpt lat="44.2902" lon="3.23991">
        <ele>576</ele>
        <time>2009-07-08T10:18:48Z</time>
      </trkpt>
      <trkpt lat="44.2902" lon="3.2399">
        <ele>576</ele>
        <time>2009-07-08T10:19:26Z</time>
      </trkpt>
      <trkpt lat="44.29019" lon="3.2399">
        <ele>575</ele>
        <time>2009-07-08T10:20:19Z</time>
      </trkpt>
      <trkpt lat="44.29002" lon="3.23989">
        <ele>576</ele>
        <time>2009-07-08T10:20:38Z</time>
      </trkpt>
      <trkpt lat="44.28986" lon="3.23989">
        <ele>574</ele>
        <time>2009-07-08T10:20:44Z</time>
      </trkpt>
      <trkpt lat="44.28977" lon="3.23991">
        <ele>574</ele>
        <time>2009-07-08T10:20:46Z</time>
      </trkpt>
      <trkpt lat="44.28955" lon="3.2398">
        <ele>575</ele>
        <time>2009-07-08T10:20:54Z</time>
      </trkpt>
      <trkpt lat="44.28947" lon="3.23969">
        <ele>574</ele>
        <time>2009-07-08T10:21:03Z</time>
      </trkpt>
      <trkpt lat="44.28942" lon="3.23967">
        <ele>574</ele>
        <time>2009-07-08T10:21:15Z</time>
      </trkpt>
      <trkpt lat="44.2894" lon="3.2397">
        <ele>574</ele>
        <time>2009-07-08T10:21:40Z</time>
      </trkpt>
      <trkpt lat="44.28938" lon="3.23972">
        <ele>575</ele>
        <time>2009-07-08T10:22:34Z</time>
      </trkpt>
      <trkpt lat="44.28937" lon="3.23974">
        <ele>576</ele>
        <time>2009-07-08T10:23:16Z</time>
      </trkpt>
      <trkpt lat="44.28929" lon="3.2398">
        <ele>575</ele>
        <time>2009-07-08T10:23:23Z</time>
      </trkpt>
      <trkpt lat="44.28918" lon="3.23993">
        <ele>574</ele>
        <time>2009-07-08T10:23:36Z</time>
      </trkpt>
      <trkpt lat="44.28911" lon="3.24017">
        <ele>573</ele>
        <time>2009-07-08T10:23:47Z</time>
      </trkpt>
      <trkpt lat="44.28905" lon="3.24042">
        <ele>571</ele>
        <time>2009-07-08T10:23:56Z</time>
      </trkpt>
      <trkpt lat="44.28898" lon="3.24042">
        <ele>570</ele>
        <time>2009-07-08T10:23:59Z</time>
      </trkpt>
      <trkpt lat="44.28891" lon="3.24043">
        <ele>569</ele>
        <time>2009-07-08T10:24:02Z</time>
      </trkpt>
      <trkpt lat="44.28878" lon="3.24058">
        <ele>565</ele>
        <time>2009-07-08T10:24:12Z</time>
      </trkpt>
      <trkpt lat="44.28877" lon="3.24064">
        <ele>564</ele>
        <time>2009-07-08T10:24:14Z</time>
      </trkpt>
      <trkpt lat="44.28877" lon="3.24074">
        <ele>563</ele>
        <time>2009-07-08T10:24:22Z</time>
      </trkpt>
      <trkpt lat="44.28861" lon="3.24099">
        <ele>561</ele>
        <time>2009-07-08T10:24:32Z</time>
      </trkpt>
      <trkpt lat="44.28857" lon="3.24104">
        <ele>560</ele>
        <time>2009-07-08T10:24:34Z</time>
      </trkpt>
      <trkpt lat="44.28838" lon="3.24119">
        <ele>558</ele>
        <time>2009-07-08T10:24:43Z</time>
      </trkpt>
      <trkpt lat="44.28829" lon="3.24126">
        <ele>555</ele>
        <time>2009-07-08T10:24:48Z</time>
      </trkpt>
      <trkpt lat="44.28815" lon="3.24136">
        <ele>552</ele>
        <time>2009-07-08T10:24:54Z</time>
      </trkpt>
      <trkpt lat="44.28795" lon="3.24144">
        <ele>553</ele>
        <time>2009-07-08T10:25:02Z</time>
      </trkpt>
      <trkpt lat="44.28793" lon="3.24143">
        <ele>553</ele>
        <time>2009-07-08T10:25:08Z</time>
      </trkpt>
      <trkpt lat="44.28788" lon="3.24137">
        <ele>554</ele>
        <time>2009-07-08T10:25:13Z</time>
      </trkpt>
      <trkpt lat="44.28789" lon="3.24127">
        <ele>553</ele>
        <time>2009-07-08T10:25:17Z</time>
      </trkpt>
      <trkpt lat="44.28796" lon="3.24112">
        <ele>549</ele>
        <time>2009-07-08T10:25:21Z</time>
      </trkpt>
      <trkpt lat="44.28802" lon="3.24093">
        <ele>546</ele>
        <time>2009-07-08T10:25:26Z</time>
      </trkpt>
      <trkpt lat="44.28804" lon="3.24089">
        <ele>545</ele>
        <time>2009-07-08T10:25:27Z</time>
      </trkpt>
      <trkpt lat="44.28808" lon="3.24055">
        <ele>542</ele>
        <time>2009-07-08T10:25:36Z</time>
      </trkpt>
      <trkpt lat="44.28813" lon="3.24043">
        <ele>539</ele>
        <time>2009-07-08T10:25:41Z</time>
      </trkpt>
      <trkpt lat="44.28813" lon="3.24043">
        <ele>539</ele>
        <time>2009-07-08T10:25:43Z</time>
      </trkpt>
      <trkpt lat="44.28815" lon="3.24016">
        <ele>537</ele>
        <time>2009-07-08T10:25:50Z</time>
      </trkpt>
      <trkpt lat="44.28817" lon="3.23963">
        <ele>538</ele>
        <time>2009-07-08T10:26:01Z</time>
      </trkpt>
      <trkpt lat="44.28819" lon="3.23949">
        <ele>539</ele>
        <time>2009-07-08T10:26:11Z</time>
      </trkpt>
      <trkpt lat="44.2882" lon="3.23942">
        <ele>540</ele>
        <time>2009-07-08T10:26:17Z</time>
      </trkpt>
      <trkpt lat="44.28817" lon="3.23926">
        <ele>541</ele>
        <time>2009-07-08T10:26:27Z</time>
      </trkpt>
      <trkpt lat="44.28817" lon="3.23914">
        <ele>543</ele>
        <time>2009-07-08T10:26:38Z</time>
      </trkpt>
      <trkpt lat="44.28812" lon="3.23905">
        <ele>544</ele>
        <time>2009-07-08T10:26:48Z</time>
      </trkpt>
      <trkpt lat="44.28808" lon="3.23902">
        <ele>542</ele>
        <time>2009-07-08T10:26:54Z</time>
      </trkpt>
      <trkpt lat="44.28797" lon="3.23888">
        <ele>541</ele>
        <time>2009-07-08T10:27:05Z</time>
      </trkpt>
      <trkpt lat="44.28794" lon="3.23866">
        <ele>540</ele>
        <time>2009-07-08T10:27:11Z</time>
      </trkpt>
      <trkpt lat="44.288" lon="3.23847">
        <ele>540</ele>
        <time>2009-07-08T10:27:20Z</time>
      </trkpt>
      <trkpt lat="44.28795" lon="3.23844">
        <ele>539</ele>
        <time>2009-07-08T10:27:31Z</time>
      </trkpt>
      <trkpt lat="44.28791" lon="3.23845">
        <ele>537</ele>
        <time>2009-07-08T10:27:35Z</time>
      </trkpt>
      <trkpt lat="44.28783" lon="3.2385">
        <ele>535</ele>
        <time>2009-07-08T10:27:46Z</time>
      </trkpt>
      <trkpt lat="44.28782" lon="3.23851">
        <ele>534</ele>
        <time>2009-07-08T10:27:47Z</time>
      </trkpt>
      <trkpt lat="44.28772" lon="3.23855">
        <ele>532</ele>
        <time>2009-07-08T10:27:58Z</time>
      </trkpt>
      <trkpt lat="44.28764" lon="3.23857">
        <ele>529</ele>
        <time>2009-07-08T10:28:12Z</time>
      </trkpt>
      <trkpt lat="44.28758" lon="3.23862">
        <ele>528</ele>
        <time>2009-07-08T10:28:15Z</time>
      </trkpt>
      <trkpt lat="44.28752" lon="3.23863">
        <ele>526</ele>
        <time>2009-07-08T10:28:18Z</time>
      </trkpt>
      <trkpt lat="44.28741" lon="3.23868">
        <ele>523</ele>
        <time>2009-07-08T10:28:22Z</time>
      </trkpt>
      <trkpt lat="44.2873" lon="3.2387">
        <ele>521</ele>
        <time>2009-07-08T10:28:26Z</time>
      </trkpt>
      <trkpt lat="44.28725" lon="3.23873">
        <ele>520</ele>
        <time>2009-07-08T10:28:28Z</time>
      </trkpt>
      <trkpt lat="44.28695" lon="3.2389">
        <ele>521</ele>
        <time>2009-07-08T10:28:39Z</time>
      </trkpt>
      <trkpt lat="44.28656" lon="3.23904">
        <ele>523</ele>
        <time>2009-07-08T10:28:54Z</time>
      </trkpt>
      <trkpt lat="44.2865" lon="3.23907">
        <ele>522</ele>
        <time>2009-07-08T10:28:57Z</time>
      </trkpt>
      <trkpt lat="44.28638" lon="3.23911">
        <ele>519</ele>
        <time>2009-07-08T10:29:02Z</time>
      </trkpt>
      <trkpt lat="44.28629" lon="3.23915">
        <ele>518</ele>
        <time>2009-07-08T10:29:04Z</time>
      </trkpt>
      <trkpt lat="44.2861" lon="3.23923">
        <ele>519</ele>
        <time>2009-07-08T10:29:11Z</time>
      </trkpt>
      <trkpt lat="44.28607" lon="3.23924">
        <ele>517</ele>
        <time>2009-07-08T10:29:13Z</time>
      </trkpt>
      <trkpt lat="44.28601" lon="3.23924">
        <ele>516</ele>
        <time>2009-07-08T10:29:23Z</time>
      </trkpt>
      <trkpt lat="44.28591" lon="3.23924">
        <ele>514</ele>
        <time>2009-07-08T10:29:32Z</time>
      </trkpt>
      <trkpt lat="44.28574" lon="3.23915">
        <ele>511</ele>
        <time>2009-07-08T10:29:39Z</time>
      </trkpt>
      <trkpt lat="44.28561" lon="3.23895">
        <ele>507</ele>
        <time>2009-07-08T10:29:45Z</time>
      </trkpt>
      <trkpt lat="44.28554" lon="3.23878">
        <ele>504</ele>
        <time>2009-07-08T10:29:49Z</time>
      </trkpt>
      <trkpt lat="44.28551" lon="3.23871">
        <ele>503</ele>
        <time>2009-07-08T10:29:51Z</time>
      </trkpt>
      <trkpt lat="44.2855" lon="3.2386">
        <ele>501</ele>
        <time>2009-07-08T10:29:53Z</time>
      </trkpt>
      <trkpt lat="44.28554" lon="3.23844">
        <ele>503</ele>
        <time>2009-07-08T10:29:57Z</time>
      </trkpt>
      <trkpt lat="44.28559" lon="3.23797">
        <ele>500</ele>
        <time>2009-07-08T10:30:07Z</time>
      </trkpt>
      <trkpt lat="44.2856" lon="3.2377">
        <ele>499</ele>
        <time>2009-07-08T10:30:10Z</time>
      </trkpt>
      <trkpt lat="44.28558" lon="3.2374">
        <ele>497</ele>
        <time>2009-07-08T10:30:13Z</time>
      </trkpt>
      <trkpt lat="44.28552" lon="3.23715">
        <ele>497</ele>
        <time>2009-07-08T10:30:16Z</time>
      </trkpt>
      <trkpt lat="44.28532" lon="3.23681">
        <ele>493</ele>
        <time>2009-07-08T10:30:21Z</time>
      </trkpt>
      <trkpt lat="44.28523" lon="3.23667">
        <ele>490</ele>
        <time>2009-07-08T10:30:23Z</time>
      </trkpt>
      <trkpt lat="44.28508" lon="3.23642">
        <ele>487</ele>
        <time>2009-07-08T10:30:26Z</time>
      </trkpt>
      <trkpt lat="44.28498" lon="3.23626">
        <ele>483</ele>
        <time>2009-07-08T10:30:28Z</time>
      </trkpt>
      <trkpt lat="44.28474" lon="3.23596">
        <ele>480</ele>
        <time>2009-07-08T10:30:32Z</time>
      </trkpt>
      <trkpt lat="44.2846" lon="3.23578">
        <ele>481</ele>
        <time>2009-07-08T10:30:38Z</time>
      </trkpt>
      <trkpt lat="44.28453" lon="3.23564">
        <ele>477</ele>
        <time>2009-07-08T10:30:44Z</time>
      </trkpt>
      <trkpt lat="44.28451" lon="3.23559">
        <ele>476</ele>
        <time>2009-07-08T10:30:45Z</time>
      </trkpt>
      <trkpt lat="44.28444" lon="3.23549">
        <ele>475</ele>
        <time>2009-07-08T10:30:47Z</time>
      </trkpt>
      <trkpt lat="44.28417" lon="3.2354">
        <ele>474</ele>
        <time>2009-07-08T10:30:52Z</time>
      </trkpt>
      <trkpt lat="44.28401" lon="3.23509">
        <ele>475</ele>
        <time>2009-07-08T10:30:59Z</time>
      </trkpt>
      <trkpt lat="44.28399" lon="3.23507">
        <ele>474</ele>
        <time>2009-07-08T10:31:14Z</time>
      </trkpt>
      <trkpt lat="44.28399" lon="3.23506">
        <ele>474</ele>
        <time>2009-07-08T10:31:29Z</time>
      </trkpt>
      <trkpt lat="44.28387" lon="3.23483">
        <ele>473</ele>
        <time>2009-07-08T10:31:36Z</time>
      </trkpt>
      <trkpt lat="44.28384" lon="3.23478">
        <ele>472</ele>
        <time>2009-07-08T10:31:37Z</time>
      </trkpt>
      <trkpt lat="44.28358" lon="3.23447">
        <ele>469</ele>
        <time>2009-07-08T10:31:44Z</time>
      </trkpt>
      <trkpt lat="44.28317" lon="3.23404">
        <ele>468</ele>
        <time>2009-07-08T10:31:54Z</time>
      </trkpt>
      <trkpt lat="44.28274" lon="3.23378">
        <ele>464</ele>
        <time>2009-07-08T10:32:02Z</time>
      </trkpt>
      <trkpt lat="44.28206" lon="3.23322">
        <ele>461</ele>
        <time>2009-07-08T10:32:15Z</time>
      </trkpt>
      <trkpt lat="44.28161" lon="3.23294">
        <ele>458</ele>
        <time>2009-07-08T10:32:22Z</time>
      </trkpt>
      <trkpt lat="44.28149" lon="3.23284">
        <ele>457</ele>
        <time>2009-07-08T10:32:24Z</time>
      </trkpt>
      <trkpt lat="44.28092" lon="3.23226">
        <ele>454</ele>
        <time>2009-07-08T10:32:34Z</time>
      </trkpt>
      <trkpt lat="44.28073" lon="3.23208">
        <ele>452</ele>
        <time>2009-07-08T10:32:37Z</time>
      </trkpt>
      <trkpt lat="44.28046" lon="3.23191">
        <ele>452</ele>
        <time>2009-07-08T10:32:41Z</time>
      </trkpt>
      <trkpt lat="44.28021" lon="3.23186">
        <ele>450</ele>
        <time>2009-07-08T10:32:44Z</time>
      </trkpt>
      <trkpt lat="44.27984" lon="3.23167">
        <ele>448</ele>
        <time>2009-07-08T10:32:49Z</time>
      </trkpt>
      <trkpt lat="44.27942" lon="3.23141">
        <ele>445</ele>
        <time>2009-07-08T10:32:54Z</time>
      </trkpt>
      <trkpt lat="44.27872" lon="3.23101">
        <ele>441</ele>
        <time>2009-07-08T10:33:02Z</time>
      </trkpt>
      <trkpt lat="44.27844" lon="3.23077">
        <ele>441</ele>
        <time>2009-07-08T10:33:06Z</time>
      </trkpt>
      <trkpt lat="44.2782" lon="3.23028">
        <ele>439</ele>
        <time>2009-07-08T10:33:11Z</time>
      </trkpt>
      <trkpt lat="44.27808" lon="3.22987">
        <ele>437</ele>
        <time>2009-07-08T10:33:15Z</time>
      </trkpt>
      <trkpt lat="44.27801" lon="3.22972">
        <ele>436</ele>
        <time>2009-07-08T10:33:17Z</time>
      </trkpt>
      <trkpt lat="44.27785" lon="3.22942">
        <ele>433</ele>
        <time>2009-07-08T10:33:21Z</time>
      </trkpt>
      <trkpt lat="44.27781" lon="3.22934">
        <ele>433</ele>
        <time>2009-07-08T10:33:22Z</time>
      </trkpt>
      <trkpt lat="44.27776" lon="3.22927">
        <ele>433</ele>
        <time>2009-07-08T10:33:23Z</time>
      </trkpt>
      <trkpt lat="44.27728" lon="3.22857">
        <ele>431</ele>
        <time>2009-07-08T10:33:33Z</time>
      </trkpt>
      <trkpt lat="44.27722" lon="3.22849">
        <ele>430</ele>
        <time>2009-07-08T10:33:35Z</time>
      </trkpt>
      <trkpt lat="44.27737" lon="3.22803">
        <ele>430</ele>
        <time>2009-07-08T10:33:47Z</time>
      </trkpt>
      <trkpt lat="44.27763" lon="3.2275">
        <ele>430</ele>
        <time>2009-07-08T10:34:05Z</time>
      </trkpt>
      <trkpt lat="44.27765" lon="3.22736">
        <ele>430</ele>
        <time>2009-07-08T10:34:10Z</time>
      </trkpt>
      <trkpt lat="44.27755" lon="3.22725">
        <ele>430</ele>
        <time>2009-07-08T10:34:16Z</time>
      </trkpt>
      <trkpt lat="44.27727" lon="3.22696">
        <ele>430</ele>
        <time>2009-07-08T10:34:29Z</time>
      </trkpt>
      <trkpt lat="44.27723" lon="3.22699">
        <ele>430</ele>
        <time>2009-07-08T10:34:43Z</time>
      </trkpt>
      <trkpt lat="44.27725" lon="3.22702">
        <ele>430</ele>
        <time>2009-07-08T10:35:36Z</time>
      </trkpt>
      <trkpt lat="44.27728" lon="3.22702">
        <ele>431</ele>
        <time>2009-07-08T10:36:03Z</time>
      </trkpt>
      <trkpt lat="44.27738" lon="3.22712">
        <ele>431</ele>
        <time>2009-07-08T10:36:10Z</time>
      </trkpt>
      <trkpt lat="44.27764" lon="3.22742">
        <ele>430</ele>
        <time>2009-07-08T10:36:22Z</time>
      </trkpt>
      <trkpt lat="44.27763" lon="3.22761">
        <ele>430</ele>
        <time>2009-07-08T10:36:26Z</time>
      </trkpt>
      <trkpt lat="44.27727" lon="3.22838">
        <ele>429</ele>
        <time>2009-07-08T10:36:43Z</time>
      </trkpt>
      <trkpt lat="44.27723" lon="3.22843">
        <ele>430</ele>
        <time>2009-07-08T10:36:45Z</time>
      </trkpt>
      <trkpt lat="44.27709" lon="3.22834">
        <ele>430</ele>
        <time>2009-07-08T10:36:53Z</time>
      </trkpt>
      <trkpt lat="44.27686" lon="3.2281">
        <ele>432</ele>
        <time>2009-07-08T10:37:07Z</time>
      </trkpt>
      <trkpt lat="44.27663" lon="3.22795">
        <ele>433</ele>
        <time>2009-07-08T10:37:21Z</time>
      </trkpt>
      <trkpt lat="44.27645" lon="3.22786">
        <ele>433</ele>
        <time>2009-07-08T10:37:34Z</time>
      </trkpt>
      <trkpt lat="44.27644" lon="3.22791">
        <ele>434</ele>
        <time>2009-07-08T10:37:50Z</time>
      </trkpt>
      <trkpt lat="44.27617" lon="3.22782">
        <ele>435</ele>
        <time>2009-07-08T10:38:03Z</time>
      </trkpt>
      <trkpt lat="44.27571" lon="3.22774">
        <ele>437</ele>
        <time>2009-07-08T10:38:19Z</time>
      </trkpt>
      <trkpt lat="44.27516" lon="3.22782">
        <ele>440</ele>
        <time>2009-07-08T10:38:38Z</time>
      </trkpt>
      <trkpt lat="44.2748" lon="3.22776">
        <ele>443</ele>
        <time>2009-07-08T10:38:52Z</time>
      </trkpt>
      <trkpt lat="44.27448" lon="3.22766">
        <ele>445</ele>
        <time>2009-07-08T10:39:05Z</time>
      </trkpt>
      <trkpt lat="44.27399" lon="3.22781">
        <ele>447</ele>
        <time>2009-07-08T10:39:23Z</time>
      </trkpt>
      <trkpt lat="44.27349" lon="3.22802">
        <ele>451</ele>
        <time>2009-07-08T10:39:42Z</time>
      </trkpt>
      <trkpt lat="44.27298" lon="3.22815">
        <ele>454</ele>
        <time>2009-07-08T10:40:01Z</time>
      </trkpt>
      <trkpt lat="44.27293" lon="3.22819">
        <ele>455</ele>
        <time>2009-07-08T10:40:03Z</time>
      </trkpt>
      <trkpt lat="44.27253" lon="3.22834">
        <ele>458</ele>
        <time>2009-07-08T10:40:18Z</time>
      </trkpt>
      <trkpt lat="44.27225" lon="3.22841">
        <ele>459</ele>
        <time>2009-07-08T10:40:34Z</time>
      </trkpt>
      <trkpt lat="44.27227" lon="3.22838">
        <ele>459</ele>
        <time>2009-07-08T10:41:36Z</time>
      </trkpt>
      <trkpt lat="44.27227" lon="3.2284">
        <ele>458</ele>
        <time>2009-07-08T10:42:31Z</time>
      </trkpt>
      <trkpt lat="44.27212" lon="3.22847">
        <ele>457</ele>
        <time>2009-07-08T10:43:31Z</time>
      </trkpt>
      <trkpt lat="44.27181" lon="3.22845">
        <ele>456</ele>
        <time>2009-07-08T10:43:41Z</time>
      </trkpt>
      <trkpt lat="44.27163" lon="3.22849">
        <ele>455</ele>
        <time>2009-07-08T10:43:45Z</time>
      </trkpt>
      <trkpt lat="44.2711" lon="3.22858">
        <ele>454</ele>
        <time>2009-07-08T10:43:57Z</time>
      </trkpt>
      <trkpt lat="44.27097" lon="3.22855">
        <ele>454</ele>
        <time>2009-07-08T10:44:00Z</time>
      </trkpt>
      <trkpt lat="44.27063" lon="3.2286">
        <ele>452</ele>
        <time>2009-07-08T10:44:08Z</time>
      </trkpt>
      <trkpt lat="44.27052" lon="3.22862">
        <ele>452</ele>
        <time>2009-07-08T10:44:10Z</time>
      </trkpt>
      <trkpt lat="44.27012" lon="3.22856">
        <ele>450</ele>
        <time>2009-07-08T10:44:17Z</time>
      </trkpt>
      <trkpt lat="44.2698" lon="3.22858">
        <ele>448</ele>
        <time>2009-07-08T10:44:22Z</time>
      </trkpt>
      <trkpt lat="44.26962" lon="3.22857">
        <ele>448</ele>
        <time>2009-07-08T10:44:25Z</time>
      </trkpt>
      <trkpt lat="44.26951" lon="3.22852">
        <ele>448</ele>
        <time>2009-07-08T10:44:27Z</time>
      </trkpt>
      <trkpt lat="44.2692" lon="3.2285">
        <ele>447</ele>
        <time>2009-07-08T10:44:32Z</time>
      </trkpt>
      <trkpt lat="44.26862" lon="3.22838">
        <ele>444</ele>
        <time>2009-07-08T10:44:41Z</time>
      </trkpt>
      <trkpt lat="44.26848" lon="3.22836">
        <ele>443</ele>
        <time>2009-07-08T10:44:43Z</time>
      </trkpt>
      <trkpt lat="44.26842" lon="3.22836">
        <ele>443</ele>
        <time>2009-07-08T10:44:44Z</time>
      </trkpt>
      <trkpt lat="44.26783" lon="3.2283">
        <ele>439</ele>
        <time>2009-07-08T10:44:54Z</time>
      </trkpt>
      <trkpt lat="44.26767" lon="3.22826">
        <ele>439</ele>
        <time>2009-07-08T10:44:57Z</time>
      </trkpt>
      <trkpt lat="44.26738" lon="3.22822">
        <ele>438</ele>
        <time>2009-07-08T10:45:03Z</time>
      </trkpt>
      <trkpt lat="44.26724" lon="3.22825">
        <ele>436</ele>
        <time>2009-07-08T10:45:06Z</time>
      </trkpt>
      <trkpt lat="44.267" lon="3.22813">
        <ele>435</ele>
        <time>2009-07-08T10:45:11Z</time>
      </trkpt>
      <trkpt lat="44.26675" lon="3.228">
        <ele>434</ele>
        <time>2009-07-08T10:45:16Z</time>
      </trkpt>
      <trkpt lat="44.26648" lon="3.22785">
        <ele>432</ele>
        <time>2009-07-08T10:45:21Z</time>
      </trkpt>
      <trkpt lat="44.26629" lon="3.22765">
        <ele>431</ele>
        <time>2009-07-08T10:45:25Z</time>
      </trkpt>
      <trkpt lat="44.26608" lon="3.22749">
        <ele>429</ele>
        <time>2009-07-08T10:45:29Z</time>
      </trkpt>
      <trkpt lat="44.2652" lon="3.22733">
        <ele>428</ele>
        <time>2009-07-08T10:45:42Z</time>
      </trkpt>
      <trkpt lat="44.26456" lon="3.22735">
        <ele>428</ele>
        <time>2009-07-08T10:45:55Z</time>
      </trkpt>
      <trkpt lat="44.26447" lon="3.22737">
        <ele>427</ele>
        <time>2009-07-08T10:45:57Z</time>
      </trkpt>
      <trkpt lat="44.26424" lon="3.22743">
        <ele>427</ele>
        <time>2009-07-08T10:46:02Z</time>
      </trkpt>
      <trkpt lat="44.26375" lon="3.22766">
        <ele>426</ele>
        <time>2009-07-08T10:46:13Z</time>
      </trkpt>
      <trkpt lat="44.2631" lon="3.22804">
        <ele>425</ele>
        <time>2009-07-08T10:46:28Z</time>
      </trkpt>
      <trkpt lat="44.26266" lon="3.22833">
        <ele>425</ele>
        <time>2009-07-08T10:46:37Z</time>
      </trkpt>
      <trkpt lat="44.26247" lon="3.22843">
        <ele>424</ele>
        <time>2009-07-08T10:46:41Z</time>
      </trkpt>
      <trkpt lat="44.26213" lon="3.22856">
        <ele>424</ele>
        <time>2009-07-08T10:46:48Z</time>
      </trkpt>
      <trkpt lat="44.26173" lon="3.22866">
        <ele>424</ele>
        <time>2009-07-08T10:46:56Z</time>
      </trkpt>
      <trkpt lat="44.26164" lon="3.2287">
        <ele>425</ele>
        <time>2009-07-08T10:46:58Z</time>
      </trkpt>
      <trkpt lat="44.261" lon="3.22884">
        <ele>425</ele>
        <time>2009-07-08T10:47:13Z</time>
      </trkpt>
      <trkpt lat="44.26074" lon="3.22885">
        <ele>426</ele>
        <time>2009-07-08T10:47:19Z</time>
      </trkpt>
      <trkpt lat="44.2603" lon="3.22905">
        <ele>427</ele>
        <time>2009-07-08T10:47:30Z</time>
      </trkpt>
      <trkpt lat="44.26018" lon="3.22914">
        <ele>427</ele>
        <time>2009-07-08T10:47:33Z</time>
      </trkpt>
      <trkpt lat="44.25981" lon="3.22938">
        <ele>425</ele>
        <time>2009-07-08T10:47:41Z</time>
      </trkpt>
      <trkpt lat="44.25922" lon="3.22971">
        <ele>423</ele>
        <time>2009-07-08T10:47:52Z</time>
      </trkpt>
      <trkpt lat="44.25897" lon="3.22984">
        <ele>422</ele>
        <time>2009-07-08T10:47:57Z</time>
      </trkpt>
      <trkpt lat="44.25869" lon="3.22995">
        <ele>422</ele>
        <time>2009-07-08T10:48:03Z</time>
      </trkpt>
      <trkpt lat="44.25824" lon="3.23031">
        <ele>422</ele>
        <time>2009-07-08T10:48:14Z</time>
      </trkpt>
      <trkpt lat="44.25811" lon="3.23039">
        <ele>422</ele>
        <time>2009-07-08T10:48:17Z</time>
      </trkpt>
      <trkpt lat="44.25794" lon="3.23051">
        <ele>420</ele>
        <time>2009-07-08T10:48:21Z</time>
      </trkpt>
      <trkpt lat="44.25781" lon="3.23061">
        <ele>421</ele>
        <time>2009-07-08T10:48:24Z</time>
      </trkpt>
      <trkpt lat="44.25729" lon="3.23102">
        <ele>421</ele>
        <time>2009-07-08T10:48:36Z</time>
      </trkpt>
      <trkpt lat="44.25715" lon="3.23111">
        <ele>422</ele>
        <time>2009-07-08T10:48:39Z</time>
      </trkpt>
      <trkpt lat="44.25667" lon="3.23149">
        <ele>423</ele>
        <time>2009-07-08T10:48:52Z</time>
      </trkpt>
      <trkpt lat="44.25634" lon="3.23178">
        <ele>423</ele>
        <time>2009-07-08T10:49:02Z</time>
      </trkpt>
      <trkpt lat="44.25596" lon="3.23194">
        <ele>423</ele>
        <time>2009-07-08T10:49:11Z</time>
      </trkpt>
      <trkpt lat="44.25582" lon="3.23199">
        <ele>422</ele>
        <time>2009-07-08T10:49:14Z</time>
      </trkpt>
      <trkpt lat="44.25556" lon="3.23212">
        <ele>422</ele>
        <time>2009-07-08T10:49:23Z</time>
      </trkpt>
      <trkpt lat="44.25554" lon="3.23206">
        <ele>421</ele>
        <time>2009-07-08T10:49:36Z</time>
      </trkpt>
      <trkpt lat="44.25551" lon="3.2321">
        <ele>422</ele>
        <time>2009-07-08T10:50:07Z</time>
      </trkpt>
      <trkpt lat="44.25546" lon="3.23212">
        <ele>422</ele>
        <time>2009-07-08T10:50:11Z</time>
      </trkpt>
      <trkpt lat="44.25524" lon="3.23221">
        <ele>425</ele>
        <time>2009-07-08T10:50:22Z</time>
      </trkpt>
      <trkpt lat="44.2552" lon="3.23225">
        <ele>428</ele>
        <time>2009-07-08T10:50:25Z</time>
      </trkpt>
      <trkpt lat="44.25516" lon="3.23231">
        <ele>429</ele>
        <time>2009-07-08T10:50:28Z</time>
      </trkpt>
      <trkpt lat="44.25498" lon="3.23242">
        <ele>430</ele>
        <time>2009-07-08T10:50:40Z</time>
      </trkpt>
      <trkpt lat="44.25492" lon="3.23248">
        <ele>431</ele>
        <time>2009-07-08T10:50:53Z</time>
      </trkpt>
      <trkpt lat="44.25486" lon="3.23254">
        <ele>432</ele>
        <time>2009-07-08T10:51:02Z</time>
      </trkpt>
      <trkpt lat="44.25477" lon="3.23261">
        <ele>433</ele>
        <time>2009-07-08T10:51:09Z</time>
      </trkpt>
      <trkpt lat="44.2546" lon="3.23276">
        <ele>435</ele>
        <time>2009-07-08T10:51:20Z</time>
      </trkpt>
      <trkpt lat="44.25451" lon="3.23284">
        <ele>436</ele>
        <time>2009-07-08T10:51:34Z</time>
      </trkpt>
      <trkpt lat="44.25444" lon="3.23287">
        <ele>436</ele>
        <time>2009-07-08T10:51:47Z</time>
      </trkpt>
      <trkpt lat="44.25438" lon="3.23297">
        <ele>437</ele>
        <time>2009-07-08T10:51:57Z</time>
      </trkpt>
      <trkpt lat="44.2543" lon="3.23306">
        <ele>439</ele>
        <time>2009-07-08T10:52:08Z</time>
      </trkpt>
      <trkpt lat="44.25421" lon="3.23319">
        <ele>442</ele>
        <time>2009-07-08T10:52:26Z</time>
      </trkpt>
      <trkpt lat="44.25411" lon="3.2333">
        <ele>444</ele>
        <time>2009-07-08T10:52:41Z</time>
      </trkpt>
      <trkpt lat="44.25409" lon="3.23331">
        <ele>444</ele>
        <time>2009-07-08T10:52:46Z</time>
      </trkpt>
      <trkpt lat="44.25401" lon="3.23334">
        <ele>446</ele>
        <time>2009-07-08T10:52:53Z</time>
      </trkpt>
      <trkpt lat="44.25395" lon="3.23336">
        <ele>447</ele>
        <time>2009-07-08T10:53:00Z</time>
      </trkpt>
      <trkpt lat="44.25395" lon="3.23343">
        <ele>449</ele>
        <time>2009-07-08T10:53:12Z</time>
      </trkpt>
      <trkpt lat="44.2539" lon="3.23349">
        <ele>449</ele>
        <time>2009-07-08T10:53:22Z</time>
      </trkpt>
      <trkpt lat="44.25387" lon="3.23351">
        <ele>449</ele>
        <time>2009-07-08T10:53:29Z</time>
      </trkpt>
      <trkpt lat="44.25386" lon="3.23364">
        <ele>448</ele>
        <time>2009-07-08T10:53:35Z</time>
      </trkpt>
      <trkpt lat="44.25365" lon="3.23375">
        <ele>447</ele>
        <time>2009-07-08T10:53:43Z</time>
      </trkpt>
      <trkpt lat="44.25354" lon="3.23371">
        <ele>450</ele>
        <time>2009-07-08T10:53:51Z</time>
      </trkpt>
      <trkpt lat="44.25344" lon="3.23376">
        <ele>453</ele>
        <time>2009-07-08T10:54:04Z</time>
      </trkpt>
      <trkpt lat="44.25335" lon="3.23383">
        <ele>455</ele>
        <time>2009-07-08T10:54:17Z</time>
      </trkpt>
      <trkpt lat="44.25325" lon="3.23389">
        <ele>458</ele>
        <time>2009-07-08T10:54:28Z</time>
      </trkpt>
      <trkpt lat="44.25317" lon="3.23398">
        <ele>460</ele>
        <time>2009-07-08T10:54:40Z</time>
      </trkpt>
      <trkpt lat="44.25314" lon="3.23403">
        <ele>461</ele>
        <time>2009-07-08T10:54:47Z</time>
      </trkpt>
      <trkpt lat="44.25306" lon="3.23413">
        <ele>463</ele>
        <time>2009-07-08T10:54:59Z</time>
      </trkpt>
      <trkpt lat="44.253" lon="3.23422">
        <ele>465</ele>
        <time>2009-07-08T10:55:10Z</time>
      </trkpt>
      <trkpt lat="44.25294" lon="3.23426">
        <ele>465</ele>
        <time>2009-07-08T10:55:18Z</time>
      </trkpt>
      <trkpt lat="44.25278" lon="3.23453">
        <ele>463</ele>
        <time>2009-07-08T10:55:30Z</time>
      </trkpt>
      <trkpt lat="44.25273" lon="3.23469">
        <ele>463</ele>
        <time>2009-07-08T10:55:34Z</time>
      </trkpt>
      <trkpt lat="44.2527" lon="3.23471">
        <ele>462</ele>
        <time>2009-07-08T10:55:36Z</time>
      </trkpt>
      <trkpt lat="44.25253" lon="3.23445">
        <ele>464</ele>
        <time>2009-07-08T10:55:46Z</time>
      </trkpt>
      <trkpt lat="44.25246" lon="3.23425">
        <ele>465</ele>
        <time>2009-07-08T10:55:52Z</time>
      </trkpt>
      <trkpt lat="44.25227" lon="3.23408">
        <ele>466</ele>
        <time>2009-07-08T10:56:01Z</time>
      </trkpt>
      <trkpt lat="44.25219" lon="3.23398">
        <ele>468</ele>
        <time>2009-07-08T10:56:06Z</time>
      </trkpt>
      <trkpt lat="44.25218" lon="3.23395">
        <ele>468</ele>
        <time>2009-07-08T10:56:07Z</time>
      </trkpt>
      <trkpt lat="44.25185" lon="3.23385">
        <ele>464</ele>
        <time>2009-07-08T10:56:17Z</time>
      </trkpt>
      <trkpt lat="44.25157" lon="3.23371">
        <ele>466</ele>
        <time>2009-07-08T10:56:27Z</time>
      </trkpt>
      <trkpt lat="44.25137" lon="3.23367">
        <ele>466</ele>
        <time>2009-07-08T10:56:34Z</time>
      </trkpt>
      <trkpt lat="44.25128" lon="3.23362">
        <ele>468</ele>
        <time>2009-07-08T10:56:39Z</time>
      </trkpt>
      <trkpt lat="44.2512" lon="3.2334">
        <ele>469</ele>
        <time>2009-07-08T10:56:51Z</time>
      </trkpt>
      <trkpt lat="44.25115" lon="3.23336">
        <ele>470</ele>
        <time>2009-07-08T10:58:11Z</time>
      </trkpt>
      <trkpt lat="44.25115" lon="3.23337">
        <ele>470</ele>
        <time>2009-07-08T10:58:43Z</time>
      </trkpt>
      <trkpt lat="44.25114" lon="3.23341">
        <ele>469</ele>
        <time>2009-07-08T10:59:37Z</time>
      </trkpt>
      <trkpt lat="44.25114" lon="3.23343">
        <ele>469</ele>
        <time>2009-07-08T11:00:18Z</time>
      </trkpt>
      <trkpt lat="44.25113" lon="3.23343">
        <ele>469</ele>
        <time>2009-07-08T11:00:19Z</time>
      </trkpt>
      <trkpt lat="44.25102" lon="3.23343">
        <ele>469</ele>
        <time>2009-07-08T11:00:26Z</time>
      </trkpt>
      <trkpt lat="44.25082" lon="3.2337">
        <ele>465</ele>
        <time>2009-07-08T11:00:37Z</time>
      </trkpt>
      <trkpt lat="44.2508" lon="3.23372">
        <ele>465</ele>
        <time>2009-07-08T11:00:38Z</time>
      </trkpt>
      <trkpt lat="44.25055" lon="3.23346">
        <ele>465</ele>
        <time>2009-07-08T11:00:48Z</time>
      </trkpt>
      <trkpt lat="44.25047" lon="3.23344">
        <ele>464</ele>
        <time>2009-07-08T11:00:52Z</time>
      </trkpt>
      <trkpt lat="44.25027" lon="3.2335">
        <ele>463</ele>
        <time>2009-07-08T11:00:58Z</time>
      </trkpt>
      <trkpt lat="44.25024" lon="3.23344">
        <ele>464</ele>
        <time>2009-07-08T11:01:00Z</time>
      </trkpt>
      <trkpt lat="44.25011" lon="3.2333">
        <ele>463</ele>
        <time>2009-07-08T11:01:07Z</time>
      </trkpt>
      <trkpt lat="44.24973" lon="3.23343">
        <ele>460</ele>
        <time>2009-07-08T11:01:17Z</time>
      </trkpt>
      <trkpt lat="44.24945" lon="3.2332">
        <ele>461</ele>
        <time>2009-07-08T11:01:27Z</time>
      </trkpt>
      <trkpt lat="44.24936" lon="3.23318">
        <ele>460</ele>
        <time>2009-07-08T11:01:29Z</time>
      </trkpt>
      <trkpt lat="44.24901" lon="3.23302">
        <ele>460</ele>
        <time>2009-07-08T11:01:39Z</time>
      </trkpt>
      <trkpt lat="44.24895" lon="3.23302">
        <ele>460</ele>
        <time>2009-07-08T11:01:41Z</time>
      </trkpt>
      <trkpt lat="44.24882" lon="3.23309">
        <ele>459</ele>
        <time>2009-07-08T11:01:45Z</time>
      </trkpt>
      <trkpt lat="44.24876" lon="3.2331">
        <ele>458</ele>
        <time>2009-07-08T11:01:47Z</time>
      </trkpt>
      <trkpt lat="44.2487" lon="3.23321">
        <ele>459</ele>
        <time>2009-07-08T11:01:51Z</time>
      </trkpt>
      <trkpt lat="44.24848" lon="3.23318">
        <ele>460</ele>
        <time>2009-07-08T11:02:00Z</time>
      </trkpt>
      <trkpt lat="44.24834" lon="3.23305">
        <ele>459</ele>
        <time>2009-07-08T11:02:05Z</time>
      </trkpt>
      <trkpt lat="44.24821" lon="3.233">
        <ele>457</ele>
        <time>2009-07-08T11:02:08Z</time>
      </trkpt>
      <trkpt lat="44.24798" lon="3.23317">
        <ele>453</ele>
        <time>2009-07-08T11:02:14Z</time>
      </trkpt>
      <trkpt lat="44.24794" lon="3.23322">
        <ele>454</ele>
        <time>2009-07-08T11:02:15Z</time>
      </trkpt>
      <trkpt lat="44.24781" lon="3.23335">
        <ele>452</ele>
        <time>2009-07-08T11:02:18Z</time>
      </trkpt>
      <trkpt lat="44.24771" lon="3.2334">
        <ele>451</ele>
        <time>2009-07-08T11:02:20Z</time>
      </trkpt>
      <trkpt lat="44.24762" lon="3.23339">
        <ele>452</ele>
        <time>2009-07-08T11:02:22Z</time>
      </trkpt>
      <trkpt lat="44.24756" lon="3.23332">
        <ele>453</ele>
        <time>2009-07-08T11:02:24Z</time>
      </trkpt>
      <trkpt lat="44.24753" lon="3.23326">
        <ele>454</ele>
        <time>2009-07-08T11:02:26Z</time>
      </trkpt>
      <trkpt lat="44.24718" lon="3.23321">
        <ele>454</ele>
        <time>2009-07-08T11:02:37Z</time>
      </trkpt>
      <trkpt lat="44.24704" lon="3.23322">
        <ele>452</ele>
        <time>2009-07-08T11:02:41Z</time>
      </trkpt>
      <trkpt lat="44.24695" lon="3.23326">
        <ele>451</ele>
        <time>2009-07-08T11:02:44Z</time>
      </trkpt>
      <trkpt lat="44.24688" lon="3.23328">
        <ele>450</ele>
        <time>2009-07-08T11:02:46Z</time>
      </trkpt>
      <trkpt lat="44.24675" lon="3.23328">
        <ele>448</ele>
        <time>2009-07-08T11:02:50Z</time>
      </trkpt>
      <trkpt lat="44.24665" lon="3.23333">
        <ele>446</ele>
        <time>2009-07-08T11:02:53Z</time>
      </trkpt>
      <trkpt lat="44.24655" lon="3.23337">
        <ele>445</ele>
        <time>2009-07-08T11:02:55Z</time>
      </trkpt>
      <trkpt lat="44.24631" lon="3.23352">
        <ele>442</ele>
        <time>2009-07-08T11:03:01Z</time>
      </trkpt>
      <trkpt lat="44.24627" lon="3.2336">
        <ele>442</ele>
        <time>2009-07-08T11:03:03Z</time>
      </trkpt>
      <trkpt lat="44.24625" lon="3.23369">
        <ele>441</ele>
        <time>2009-07-08T11:03:06Z</time>
      </trkpt>
      <trkpt lat="44.24609" lon="3.23343">
        <ele>442</ele>
        <time>2009-07-08T11:03:15Z</time>
      </trkpt>
      <trkpt lat="44.24594" lon="3.23341">
        <ele>442</ele>
        <time>2009-07-08T11:03:20Z</time>
      </trkpt>
      <trkpt lat="44.24575" lon="3.23345">
        <ele>442</ele>
        <time>2009-07-08T11:03:30Z</time>
      </trkpt>
      <trkpt lat="44.24572" lon="3.23345">
        <ele>443</ele>
        <time>2009-07-08T11:06:10Z</time>
      </trkpt>
      <trkpt lat="44.24573" lon="3.23345">
        <ele>446</ele>
        <time>2009-07-08T11:06:37Z</time>
      </trkpt>
      <trkpt lat="44.24573" lon="3.23345">
        <ele>443</ele>
        <time>2009-07-08T11:06:38Z</time>
      </trkpt>
      <trkpt lat="44.24573" lon="3.23344">
        <ele>447</ele>
        <time>2009-07-08T11:06:52Z</time>
      </trkpt>
      <trkpt lat="44.24573" lon="3.23344">
        <ele>443</ele>
        <time>2009-07-08T11:06:53Z</time>
      </trkpt>
      <trkpt lat="44.24573" lon="3.23344">
        <ele>444</ele>
        <time>2009-07-08T11:06:57Z</time>
      </trkpt>
      <trkpt lat="44.24573" lon="3.23345">
        <ele>443</ele>
        <time>2009-07-08T11:07:49Z</time>
      </trkpt>
      <trkpt lat="44.24579" lon="3.23342">
        <ele>444</ele>
        <time>2009-07-08T11:08:39Z</time>
      </trkpt>
      <trkpt lat="44.24587" lon="3.23341">
        <ele>444</ele>
        <time>2009-07-08T11:09:20Z</time>
      </trkpt>
      <trkpt lat="44.24587" lon="3.23341">
        <ele>444</ele>
        <time>2009-07-08T11:09:49Z</time>
      </trkpt>
      <trkpt lat="44.24587" lon="3.23342">
        <ele>443</ele>
        <time>2009-07-08T11:12:30Z</time>
      </trkpt>
      <trkpt lat="44.24584" lon="3.23344">
        <ele>442</ele>
        <time>2009-07-08T11:12:57Z</time>
      </trkpt>
      <trkpt lat="44.24579" lon="3.23346">
        <ele>441</ele>
        <time>2009-07-08T11:14:58Z</time>
      </trkpt>
      <trkpt lat="44.2456" lon="3.2335">
        <ele>440</ele>
        <time>2009-07-08T11:16:24Z</time>
      </trkpt>
      <trkpt lat="44.2454" lon="3.23366">
        <ele>436</ele>
        <time>2009-07-08T11:16:30Z</time>
      </trkpt>
      <trkpt lat="44.24538" lon="3.23367">
        <ele>436</ele>
        <time>2009-07-08T11:16:31Z</time>
      </trkpt>
      <trkpt lat="44.24533" lon="3.23364">
        <ele>436</ele>
        <time>2009-07-08T11:16:39Z</time>
      </trkpt>
      <trkpt lat="44.24531" lon="3.2336">
        <ele>437</ele>
        <time>2009-07-08T11:16:41Z</time>
      </trkpt>
      <trkpt lat="44.24511" lon="3.23353">
        <ele>437</ele>
        <time>2009-07-08T11:16:51Z</time>
      </trkpt>
      <trkpt lat="44.24485" lon="3.23346">
        <ele>435</ele>
        <time>2009-07-08T11:17:01Z</time>
      </trkpt>
      <trkpt lat="44.24458" lon="3.23356">
        <ele>438</ele>
        <time>2009-07-08T11:17:12Z</time>
      </trkpt>
      <trkpt lat="44.2443" lon="3.2336">
        <ele>435</ele>
        <time>2009-07-08T11:17:19Z</time>
      </trkpt>
      <trkpt lat="44.24416" lon="3.23367">
        <ele>436</ele>
        <time>2009-07-08T11:17:23Z</time>
      </trkpt>
      <trkpt lat="44.2439" lon="3.23356">
        <ele>436</ele>
        <time>2009-07-08T11:17:33Z</time>
      </trkpt>
      <trkpt lat="44.24383" lon="3.23356">
        <ele>439</ele>
        <time>2009-07-08T11:17:42Z</time>
      </trkpt>
      <trkpt lat="44.24382" lon="3.23356">
        <ele>439</ele>
        <time>2009-07-08T11:17:43Z</time>
      </trkpt>
      <trkpt lat="44.24373" lon="3.23357">
        <ele>441</ele>
        <time>2009-07-08T11:17:52Z</time>
      </trkpt>
      <trkpt lat="44.24367" lon="3.23358">
        <ele>441</ele>
        <time>2009-07-08T11:17:56Z</time>
      </trkpt>
      <trkpt lat="44.24364" lon="3.2336">
        <ele>440</ele>
        <time>2009-07-08T11:17:58Z</time>
      </trkpt>
      <trkpt lat="44.24355" lon="3.23369">
        <ele>437</ele>
        <time>2009-07-08T11:18:02Z</time>
      </trkpt>
      <trkpt lat="44.24345" lon="3.23373">
        <ele>437</ele>
        <time>2009-07-08T11:18:05Z</time>
      </trkpt>
      <trkpt lat="44.24345" lon="3.23366">
        <ele>438</ele>
        <time>2009-07-08T11:18:08Z</time>
      </trkpt>
      <trkpt lat="44.24346" lon="3.23363">
        <ele>438</ele>
        <time>2009-07-08T11:18:09Z</time>
      </trkpt>
      <trkpt lat="44.24336" lon="3.23332">
        <ele>441</ele>
        <time>2009-07-08T11:18:18Z</time>
      </trkpt>
      <trkpt lat="44.24309" lon="3.23319">
        <ele>441</ele>
        <time>2009-07-08T11:18:29Z</time>
      </trkpt>
      <trkpt lat="44.24269" lon="3.23307">
        <ele>439</ele>
        <time>2009-07-08T11:18:41Z</time>
      </trkpt>
      <trkpt lat="44.24262" lon="3.23303">
        <ele>437</ele>
        <time>2009-07-08T11:18:43Z</time>
      </trkpt>
      <trkpt lat="44.24246" lon="3.2329">
        <ele>435</ele>
        <time>2009-07-08T11:18:50Z</time>
      </trkpt>
      <trkpt lat="44.24246" lon="3.23288">
        <ele>435</ele>
        <time>2009-07-08T11:18:53Z</time>
      </trkpt>
      <trkpt lat="44.24248" lon="3.23278">
        <ele>432</ele>
        <time>2009-07-08T11:18:59Z</time>
      </trkpt>
      <trkpt lat="44.24236" lon="3.23264">
        <ele>428</ele>
        <time>2009-07-08T11:19:04Z</time>
      </trkpt>
      <trkpt lat="44.24225" lon="3.23257">
        <ele>425</ele>
        <time>2009-07-08T11:19:07Z</time>
      </trkpt>
      <trkpt lat="44.2421" lon="3.23258">
        <ele>428</ele>
        <time>2009-07-08T11:19:12Z</time>
      </trkpt>
      <trkpt lat="44.24206" lon="3.23259">
        <ele>428</ele>
        <time>2009-07-08T11:19:14Z</time>
      </trkpt>
      <trkpt lat="44.24198" lon="3.23252">
        <ele>428</ele>
        <time>2009-07-08T11:19:18Z</time>
      </trkpt>
      <trkpt lat="44.24171" lon="3.23235">
        <ele>428</ele>
        <time>2009-07-08T11:19:29Z</time>
      </trkpt>
      <trkpt lat="44.2414" lon="3.23226">
        <ele>430</ele>
        <time>2009-07-08T11:19:41Z</time>
      </trkpt>
      <trkpt lat="44.24136" lon="3.23226">
        <ele>430</ele>
        <time>2009-07-08T11:19:42Z</time>
      </trkpt>
      <trkpt lat="44.2413" lon="3.23224">
        <ele>430</ele>
        <time>2009-07-08T11:19:44Z</time>
      </trkpt>
      <trkpt lat="44.2412" lon="3.23216">
        <ele>430</ele>
        <time>2009-07-08T11:19:48Z</time>
      </trkpt>
      <trkpt lat="44.24091" lon="3.23209">
        <ele>430</ele>
        <time>2009-07-08T11:19:58Z</time>
      </trkpt>
      <trkpt lat="44.24084" lon="3.23209">
        <ele>432</ele>
        <time>2009-07-08T11:20:03Z</time>
      </trkpt>
      <trkpt lat="44.24055" lon="3.23207">
        <ele>429</ele>
        <time>2009-07-08T11:20:15Z</time>
      </trkpt>
      <trkpt lat="44.24029" lon="3.23193">
        <ele>429</ele>
        <time>2009-07-08T11:20:23Z</time>
      </trkpt>
      <trkpt lat="44.24011" lon="3.23186">
        <ele>429</ele>
        <time>2009-07-08T11:20:27Z</time>
      </trkpt>
      <trkpt lat="44.23996" lon="3.2318">
        <ele>428</ele>
        <time>2009-07-08T11:20:31Z</time>
      </trkpt>
      <trkpt lat="44.23979" lon="3.23182">
        <ele>426</ele>
        <time>2009-07-08T11:20:35Z</time>
      </trkpt>
      <trkpt lat="44.2397" lon="3.23184">
        <ele>427</ele>
        <time>2009-07-08T11:20:37Z</time>
      </trkpt>
      <trkpt lat="44.23954" lon="3.2318">
        <ele>427</ele>
        <time>2009-07-08T11:20:41Z</time>
      </trkpt>
      <trkpt lat="44.23927" lon="3.2318">
        <ele>424</ele>
        <time>2009-07-08T11:20:46Z</time>
      </trkpt>
      <trkpt lat="44.23908" lon="3.23176">
        <ele>425</ele>
        <time>2009-07-08T11:20:50Z</time>
      </trkpt>
      <trkpt lat="44.23894" lon="3.23172">
        <ele>425</ele>
        <time>2009-07-08T11:20:53Z</time>
      </trkpt>
      <trkpt lat="44.23876" lon="3.2318">
        <ele>424</ele>
        <time>2009-07-08T11:20:58Z</time>
      </trkpt>
      <trkpt lat="44.23864" lon="3.23182">
        <ele>421</ele>
        <time>2009-07-08T11:21:00Z</time>
      </trkpt>
      <trkpt lat="44.23846" lon="3.23176">
        <ele>422</ele>
        <time>2009-07-08T11:21:04Z</time>
      </trkpt>
      <trkpt lat="44.23835" lon="3.23171">
        <ele>424</ele>
        <time>2009-07-08T11:21:07Z</time>
      </trkpt>
      <trkpt lat="44.23816" lon="3.23157">
        <ele>423</ele>
        <time>2009-07-08T11:21:11Z</time>
      </trkpt>
      <trkpt lat="44.23803" lon="3.23157">
        <ele>425</ele>
        <time>2009-07-08T11:21:14Z</time>
      </trkpt>
      <trkpt lat="44.23775" lon="3.23152">
        <ele>424</ele>
        <time>2009-07-08T11:21:21Z</time>
      </trkpt>
      <trkpt lat="44.23756" lon="3.23156">
        <ele>424</ele>
        <time>2009-07-08T11:21:25Z</time>
      </trkpt>
      <trkpt lat="44.23741" lon="3.23161">
        <ele>423</ele>
        <time>2009-07-08T11:21:29Z</time>
      </trkpt>
      <trkpt lat="44.23729" lon="3.23164">
        <ele>424</ele>
        <time>2009-07-08T11:21:32Z</time>
      </trkpt>
      <trkpt lat="44.23711" lon="3.23165">
        <ele>424</ele>
        <time>2009-07-08T11:21:36Z</time>
      </trkpt>
      <trkpt lat="44.23699" lon="3.23165">
        <ele>423</ele>
        <time>2009-07-08T11:21:39Z</time>
      </trkpt>
      <trkpt lat="44.23665" lon="3.23171">
        <ele>423</ele>
        <time>2009-07-08T11:21:47Z</time>
      </trkpt>
      <trkpt lat="44.23637" lon="3.23171">
        <ele>424</ele>
        <time>2009-07-08T11:21:55Z</time>
      </trkpt>
      <trkpt lat="44.23616" lon="3.23166">
        <ele>423</ele>
        <time>2009-07-08T11:22:00Z</time>
      </trkpt>
      <trkpt lat="44.23604" lon="3.23162">
        <ele>423</ele>
        <time>2009-07-08T11:22:03Z</time>
      </trkpt>
      <trkpt lat="44.23596" lon="3.23161">
        <ele>424</ele>
        <time>2009-07-08T11:22:05Z</time>
      </trkpt>
      <trkpt lat="44.23582" lon="3.23148">
        <ele>424</ele>
        <time>2009-07-08T11:22:09Z</time>
      </trkpt>
      <trkpt lat="44.23571" lon="3.23136">
        <ele>423</ele>
        <time>2009-07-08T11:22:12Z</time>
      </trkpt>
      <trkpt lat="44.23552" lon="3.23134">
        <ele>423</ele>
        <time>2009-07-08T11:22:16Z</time>
      </trkpt>
      <trkpt lat="44.2353" lon="3.2313">
        <ele>421</ele>
        <time>2009-07-08T11:22:20Z</time>
      </trkpt>
      <trkpt lat="44.23515" lon="3.23127">
        <ele>420</ele>
        <time>2009-07-08T11:22:23Z</time>
      </trkpt>
      <trkpt lat="44.23492" lon="3.23133">
        <ele>418</ele>
        <time>2009-07-08T11:22:28Z</time>
      </trkpt>
      <trkpt lat="44.23478" lon="3.23139">
        <ele>419</ele>
        <time>2009-07-08T11:22:31Z</time>
      </trkpt>
      <trkpt lat="44.23455" lon="3.23146">
        <ele>418</ele>
        <time>2009-07-08T11:22:36Z</time>
      </trkpt>
      <trkpt lat="44.23423" lon="3.23147">
        <ele>418</ele>
        <time>2009-07-08T11:22:42Z</time>
      </trkpt>
      <trkpt lat="44.23368" lon="3.23151">
        <ele>421</ele>
        <time>2009-07-08T11:22:55Z</time>
      </trkpt>
      <trkpt lat="44.23363" lon="3.23149">
        <ele>422</ele>
        <time>2009-07-08T11:22:57Z</time>
      </trkpt>
      <trkpt lat="44.23357" lon="3.23147">
        <ele>422</ele>
        <time>2009-07-08T11:22:59Z</time>
      </trkpt>
      <trkpt lat="44.23349" lon="3.23151">
        <ele>422</ele>
        <time>2009-07-08T11:23:03Z</time>
      </trkpt>
      <trkpt lat="44.23322" lon="3.23162">
        <ele>425</ele>
        <time>2009-07-08T11:23:14Z</time>
      </trkpt>
      <trkpt lat="44.23317" lon="3.23166">
        <ele>426</ele>
        <time>2009-07-08T11:23:23Z</time>
      </trkpt>
      <trkpt lat="44.23319" lon="3.23163">
        <ele>429</ele>
        <time>2009-07-08T11:23:37Z</time>
      </trkpt>
      <trkpt lat="44.23319" lon="3.23162">
        <ele>429</ele>
        <time>2009-07-08T11:23:39Z</time>
      </trkpt>
      <trkpt lat="44.23317" lon="3.23154">
        <ele>431</ele>
        <time>2009-07-08T11:23:45Z</time>
      </trkpt>
      <trkpt lat="44.23312" lon="3.23144">
        <ele>431</ele>
        <time>2009-07-08T11:23:54Z</time>
      </trkpt>
      <trkpt lat="44.23286" lon="3.2313">
        <ele>431</ele>
        <time>2009-07-08T11:24:03Z</time>
      </trkpt>
      <trkpt lat="44.23271" lon="3.23127">
        <ele>431</ele>
        <time>2009-07-08T11:24:06Z</time>
      </trkpt>
      <trkpt lat="44.23256" lon="3.23124">
        <ele>430</ele>
        <time>2009-07-08T11:24:09Z</time>
      </trkpt>
      <trkpt lat="44.23236" lon="3.23124">
        <ele>430</ele>
        <time>2009-07-08T11:24:13Z</time>
      </trkpt>
      <trkpt lat="44.23196" lon="3.23117">
        <ele>426</ele>
        <time>2009-07-08T11:24:21Z</time>
      </trkpt>
      <trkpt lat="44.2318" lon="3.23119">
        <ele>426</ele>
        <time>2009-07-08T11:24:24Z</time>
      </trkpt>
      <trkpt lat="44.23158" lon="3.23114">
        <ele>424</ele>
        <time>2009-07-08T11:24:28Z</time>
      </trkpt>
      <trkpt lat="44.2314" lon="3.23106">
        <ele>422</ele>
        <time>2009-07-08T11:24:32Z</time>
      </trkpt>
      <trkpt lat="44.23122" lon="3.23105">
        <ele>422</ele>
        <time>2009-07-08T11:24:36Z</time>
      </trkpt>
      <trkpt lat="44.23095" lon="3.23104">
        <ele>425</ele>
        <time>2009-07-08T11:24:48Z</time>
      </trkpt>
      <trkpt lat="44.23059" lon="3.23096">
        <ele>427</ele>
        <time>2009-07-08T11:24:59Z</time>
      </trkpt>
      <trkpt lat="44.23056" lon="3.23095">
        <ele>426</ele>
        <time>2009-07-08T11:25:00Z</time>
      </trkpt>
      <trkpt lat="44.23037" lon="3.23098">
        <ele>424</ele>
        <time>2009-07-08T11:25:04Z</time>
      </trkpt>
      <trkpt lat="44.23021" lon="3.23101">
        <ele>423</ele>
        <time>2009-07-08T11:25:08Z</time>
      </trkpt>
      <trkpt lat="44.23016" lon="3.23103">
        <ele>422</ele>
        <time>2009-07-08T11:25:10Z</time>
      </trkpt>
      <trkpt lat="44.23011" lon="3.23105">
        <ele>422</ele>
        <time>2009-07-08T11:25:21Z</time>
      </trkpt>
      <trkpt lat="44.23007" lon="3.23105">
        <ele>422</ele>
        <time>2009-07-08T11:25:26Z</time>
      </trkpt>
      <trkpt lat="44.22977" lon="3.23102">
        <ele>419</ele>
        <time>2009-07-08T11:25:36Z</time>
      </trkpt>
      <trkpt lat="44.22966" lon="3.23098">
        <ele>416</ele>
        <time>2009-07-08T11:25:39Z</time>
      </trkpt>
      <trkpt lat="44.22955" lon="3.23093">
        <ele>415</ele>
        <time>2009-07-08T11:25:42Z</time>
      </trkpt>
      <trkpt lat="44.22915" lon="3.23094">
        <ele>416</ele>
        <time>2009-07-08T11:25:52Z</time>
      </trkpt>
      <trkpt lat="44.2291" lon="3.23093">
        <ele>415</ele>
        <time>2009-07-08T11:25:53Z</time>
      </trkpt>
      <trkpt lat="44.22896" lon="3.23093">
        <ele>415</ele>
        <time>2009-07-08T11:25:56Z</time>
      </trkpt>
      <trkpt lat="44.22877" lon="3.23087">
        <ele>415</ele>
        <time>2009-07-08T11:26:02Z</time>
      </trkpt>
      <trkpt lat="44.22855" lon="3.2308">
        <ele>415</ele>
        <time>2009-07-08T11:26:07Z</time>
      </trkpt>
      <trkpt lat="44.22826" lon="3.23071">
        <ele>418</ele>
        <time>2009-07-08T11:26:15Z</time>
      </trkpt>
      <trkpt lat="44.22818" lon="3.23067">
        <ele>417</ele>
        <time>2009-07-08T11:26:17Z</time>
      </trkpt>
      <trkpt lat="44.2281" lon="3.2306">
        <ele>415</ele>
        <time>2009-07-08T11:26:19Z</time>
      </trkpt>
      <trkpt lat="44.22796" lon="3.23051">
        <ele>414</ele>
        <time>2009-07-08T11:26:22Z</time>
      </trkpt>
      <trkpt lat="44.22784" lon="3.23044">
        <ele>413</ele>
        <time>2009-07-08T11:26:24Z</time>
      </trkpt>
      <trkpt lat="44.22744" lon="3.23037">
        <ele>413</ele>
        <time>2009-07-08T11:26:32Z</time>
      </trkpt>
      <trkpt lat="44.22735" lon="3.23038">
        <ele>413</ele>
        <time>2009-07-08T11:26:34Z</time>
      </trkpt>
      <trkpt lat="44.22724" lon="3.23038">
        <ele>413</ele>
        <time>2009-07-08T11:26:36Z</time>
      </trkpt>
      <trkpt lat="44.22703" lon="3.23038">
        <ele>413</ele>
        <time>2009-07-08T11:26:40Z</time>
      </trkpt>
      <trkpt lat="44.22676" lon="3.2304">
        <ele>413</ele>
        <time>2009-07-08T11:26:45Z</time>
      </trkpt>
      <trkpt lat="44.22665" lon="3.23036">
        <ele>413</ele>
        <time>2009-07-08T11:26:47Z</time>
      </trkpt>
      <trkpt lat="44.22631" lon="3.23026">
        <ele>414</ele>
        <time>2009-07-08T11:26:53Z</time>
      </trkpt>
      <trkpt lat="44.22609" lon="3.23018">
        <ele>412</ele>
        <time>2009-07-08T11:26:56Z</time>
      </trkpt>
      <trkpt lat="44.22602" lon="3.23015">
        <ele>412</ele>
        <time>2009-07-08T11:26:57Z</time>
      </trkpt>
      <trkpt lat="44.22559" lon="3.22999">
        <ele>412</ele>
        <time>2009-07-08T11:27:05Z</time>
      </trkpt>
      <trkpt lat="44.22548" lon="3.22996">
        <ele>412</ele>
        <time>2009-07-08T11:27:07Z</time>
      </trkpt>
      <trkpt lat="44.22534" lon="3.22988">
        <ele>413</ele>
        <time>2009-07-08T11:27:10Z</time>
      </trkpt>
      <trkpt lat="44.22505" lon="3.22971">
        <ele>414</ele>
        <time>2009-07-08T11:27:19Z</time>
      </trkpt>
      <trkpt lat="44.22503" lon="3.22969">
        <ele>413</ele>
        <time>2009-07-08T11:27:23Z</time>
      </trkpt>
      <trkpt lat="44.22495" lon="3.22953">
        <ele>412</ele>
        <time>2009-07-08T11:27:39Z</time>
      </trkpt>
      <trkpt lat="44.2249" lon="3.22943">
        <ele>411</ele>
        <time>2009-07-08T11:27:51Z</time>
      </trkpt>
      <trkpt lat="44.22482" lon="3.22936">
        <ele>411</ele>
        <time>2009-07-08T11:28:03Z</time>
      </trkpt>
      <trkpt lat="44.22478" lon="3.22935">
        <ele>411</ele>
        <time>2009-07-08T11:28:20Z</time>
      </trkpt>
      <trkpt lat="44.22477" lon="3.22935">
        <ele>411</ele>
        <time>2009-07-08T11:28:24Z</time>
      </trkpt>
      <trkpt lat="44.22466" lon="3.22934">
        <ele>413</ele>
        <time>2009-07-08T11:28:31Z</time>
      </trkpt>
      <trkpt lat="44.22447" lon="3.2293">
        <ele>415</ele>
        <time>2009-07-08T11:28:41Z</time>
      </trkpt>
      <trkpt lat="44.22426" lon="3.22921">
        <ele>418</ele>
        <time>2009-07-08T11:28:54Z</time>
      </trkpt>
      <trkpt lat="44.22407" lon="3.22915">
        <ele>421</ele>
        <time>2009-07-08T11:29:06Z</time>
      </trkpt>
      <trkpt lat="44.22407" lon="3.2292">
        <ele>421</ele>
        <time>2009-07-08T11:29:10Z</time>
      </trkpt>
      <trkpt lat="44.22425" lon="3.22939">
        <ele>424</ele>
        <time>2009-07-08T11:29:24Z</time>
      </trkpt>
      <trkpt lat="44.22434" lon="3.22948">
        <ele>427</ele>
        <time>2009-07-08T11:29:31Z</time>
      </trkpt>
      <trkpt lat="44.22447" lon="3.22965">
        <ele>430</ele>
        <time>2009-07-08T11:29:45Z</time>
      </trkpt>
      <trkpt lat="44.22453" lon="3.22974">
        <ele>431</ele>
        <time>2009-07-08T11:29:51Z</time>
      </trkpt>
      <trkpt lat="44.22464" lon="3.2299">
        <ele>433</ele>
        <time>2009-07-08T11:30:03Z</time>
      </trkpt>
      <trkpt lat="44.22451" lon="3.22982">
        <ele>435</ele>
        <time>2009-07-08T11:30:14Z</time>
      </trkpt>
      <trkpt lat="44.22416" lon="3.22964">
        <ele>436</ele>
        <time>2009-07-08T11:30:32Z</time>
      </trkpt>
      <trkpt lat="44.22397" lon="3.22967">
        <ele>439</ele>
        <time>2009-07-08T11:30:42Z</time>
      </trkpt>
      <trkpt lat="44.22392" lon="3.22969">
        <ele>440</ele>
        <time>2009-07-08T11:30:45Z</time>
      </trkpt>
      <trkpt lat="44.22375" lon="3.22936">
        <ele>441</ele>
        <time>2009-07-08T11:30:56Z</time>
      </trkpt>
      <trkpt lat="44.2236" lon="3.22913">
        <ele>439</ele>
        <time>2009-07-08T11:31:03Z</time>
      </trkpt>
      <trkpt lat="44.22346" lon="3.22878">
        <ele>439</ele>
        <time>2009-07-08T11:31:12Z</time>
      </trkpt>
      <trkpt lat="44.22331" lon="3.22836">
        <ele>439</ele>
        <time>2009-07-08T11:31:22Z</time>
      </trkpt>
      <trkpt lat="44.22302" lon="3.22767">
        <ele>438</ele>
        <time>2009-07-08T11:31:34Z</time>
      </trkpt>
      <trkpt lat="44.22289" lon="3.22742">
        <ele>438</ele>
        <time>2009-07-08T11:31:39Z</time>
      </trkpt>
      <trkpt lat="44.22283" lon="3.22717">
        <ele>440</ele>
        <time>2009-07-08T11:31:44Z</time>
      </trkpt>
      <trkpt lat="44.22273" lon="3.227">
        <ele>439</ele>
        <time>2009-07-08T11:31:48Z</time>
      </trkpt>
      <trkpt lat="44.22266" lon="3.2269">
        <ele>438</ele>
        <time>2009-07-08T11:31:50Z</time>
      </trkpt>
      <trkpt lat="44.22238" lon="3.22642">
        <ele>438</ele>
        <time>2009-07-08T11:32:01Z</time>
      </trkpt>
      <trkpt lat="44.22238" lon="3.2263">
        <ele>438</ele>
        <time>2009-07-08T11:32:09Z</time>
      </trkpt>
      <trkpt lat="44.22253" lon="3.22622">
        <ele>437</ele>
        <time>2009-07-08T11:32:43Z</time>
      </trkpt>
      <trkpt lat="44.22237" lon="3.22586">
        <ele>438</ele>
        <time>2009-07-08T11:32:53Z</time>
      </trkpt>
      <trkpt lat="44.22218" lon="3.22572">
        <ele>437</ele>
        <time>2009-07-08T11:32:58Z</time>
      </trkpt>
      <trkpt lat="44.22204" lon="3.22555">
        <ele>438</ele>
        <time>2009-07-08T11:33:02Z</time>
      </trkpt>
      <trkpt lat="44.22191" lon="3.22539">
        <ele>437</ele>
        <time>2009-07-08T11:33:07Z</time>
      </trkpt>
      <trkpt lat="44.22161" lon="3.225">
        <ele>437</ele>
        <time>2009-07-08T11:33:18Z</time>
      </trkpt>
      <trkpt lat="44.22183" lon="3.22495">
        <ele>435</ele>
        <time>2009-07-08T11:33:40Z</time>
      </trkpt>
      <trkpt lat="44.22155" lon="3.22502">
        <ele>435</ele>
        <time>2009-07-08T11:34:21Z</time>
      </trkpt>
      <trkpt lat="44.22157" lon="3.225">
        <ele>435</ele>
        <time>2009-07-08T11:34:40Z</time>
      </trkpt>
      <trkpt lat="44.22157" lon="3.22501">
        <ele>435</ele>
        <time>2009-07-08T11:34:58Z</time>
      </trkpt>
      <trkpt lat="44.22157" lon="3.225">
        <ele>435</ele>
        <time>2009-07-08T11:35:01Z</time>
      </trkpt>
      <trkpt lat="44.22132" lon="3.22474">
        <ele>435</ele>
        <time>2009-07-08T11:35:12Z</time>
      </trkpt>
      <trkpt lat="44.22101" lon="3.2246">
        <ele>434</ele>
        <time>2009-07-08T11:35:19Z</time>
      </trkpt>
      <trkpt lat="44.22037" lon="3.2243">
        <ele>436</ele>
        <time>2009-07-08T11:35:33Z</time>
      </trkpt>
      <trkpt lat="44.22023" lon="3.22408">
        <ele>436</ele>
        <time>2009-07-08T11:35:39Z</time>
      </trkpt>
      <trkpt lat="44.21998" lon="3.22394">
        <ele>432</ele>
        <time>2009-07-08T11:35:44Z</time>
      </trkpt>
      <trkpt lat="44.21967" lon="3.22387">
        <ele>435</ele>
        <time>2009-07-08T11:35:50Z</time>
      </trkpt>
      <trkpt lat="44.21963" lon="3.22389">
        <ele>435</ele>
        <time>2009-07-08T11:35:51Z</time>
      </trkpt>
      <trkpt lat="44.21955" lon="3.22395">
        <ele>435</ele>
        <time>2009-07-08T11:35:53Z</time>
      </trkpt>
      <trkpt lat="44.21912" lon="3.22418">
        <ele>436</ele>
        <time>2009-07-08T11:36:04Z</time>
      </trkpt>
      <trkpt lat="44.21886" lon="3.22436">
        <ele>436</ele>
        <time>2009-07-08T11:36:10Z</time>
      </trkpt>
      <trkpt lat="44.21865" lon="3.22447">
        <ele>436</ele>
        <time>2009-07-08T11:36:14Z</time>
      </trkpt>
      <trkpt lat="44.21835" lon="3.22467">
        <ele>435</ele>
        <time>2009-07-08T11:36:20Z</time>
      </trkpt>
      <trkpt lat="44.21823" lon="3.22473">
        <ele>435</ele>
        <time>2009-07-08T11:36:22Z</time>
      </trkpt>
      <trkpt lat="44.2179" lon="3.22497">
        <ele>435</ele>
        <time>2009-07-08T11:36:28Z</time>
      </trkpt>
      <trkpt lat="44.21775" lon="3.22506">
        <ele>437</ele>
        <time>2009-07-08T11:36:31Z</time>
      </trkpt>
      <trkpt lat="44.21763" lon="3.22513">
        <ele>437</ele>
        <time>2009-07-08T11:36:34Z</time>
      </trkpt>
      <trkpt lat="44.21752" lon="3.22546">
        <ele>438</ele>
        <time>2009-07-08T11:36:42Z</time>
      </trkpt>
      <trkpt lat="44.21738" lon="3.2258">
        <ele>441</ele>
        <time>2009-07-08T11:36:52Z</time>
      </trkpt>
      <trkpt lat="44.21725" lon="3.22613">
        <ele>444</ele>
        <time>2009-07-08T11:37:03Z</time>
      </trkpt>
      <trkpt lat="44.21723" lon="3.22619">
        <ele>445</ele>
        <time>2009-07-08T11:37:05Z</time>
      </trkpt>
      <trkpt lat="44.21713" lon="3.22623">
        <ele>444</ele>
        <time>2009-07-08T11:37:09Z</time>
      </trkpt>
      <trkpt lat="44.21707" lon="3.22622">
        <ele>445</ele>
        <time>2009-07-08T11:37:11Z</time>
      </trkpt>
      <trkpt lat="44.21706" lon="3.22603">
        <ele>443</ele>
        <time>2009-07-08T11:37:14Z</time>
      </trkpt>
      <trkpt lat="44.21683" lon="3.22558">
        <ele>444</ele>
        <time>2009-07-08T11:37:25Z</time>
      </trkpt>
      <trkpt lat="44.21664" lon="3.22552">
        <ele>445</ele>
        <time>2009-07-08T11:37:30Z</time>
      </trkpt>
      <trkpt lat="44.21645" lon="3.2257">
        <ele>444</ele>
        <time>2009-07-08T11:37:35Z</time>
      </trkpt>
      <trkpt lat="44.21638" lon="3.22579">
        <ele>444</ele>
        <time>2009-07-08T11:37:37Z</time>
      </trkpt>
      <trkpt lat="44.21627" lon="3.22599">
        <ele>443</ele>
        <time>2009-07-08T11:37:40Z</time>
      </trkpt>
      <trkpt lat="44.21624" lon="3.22624">
        <ele>442</ele>
        <time>2009-07-08T11:37:43Z</time>
      </trkpt>
      <trkpt lat="44.21623" lon="3.22639">
        <ele>442</ele>
        <time>2009-07-08T11:37:45Z</time>
      </trkpt>
      <trkpt lat="44.2162" lon="3.2266">
        <ele>442</ele>
        <time>2009-07-08T11:37:48Z</time>
      </trkpt>
      <trkpt lat="44.21603" lon="3.22659">
        <ele>444</ele>
        <time>2009-07-08T11:37:56Z</time>
      </trkpt>
      <trkpt lat="44.21575" lon="3.22624">
        <ele>448</ele>
        <time>2009-07-08T11:38:06Z</time>
      </trkpt>
      <trkpt lat="44.21572" lon="3.22619">
        <ele>447</ele>
        <time>2009-07-08T11:38:07Z</time>
      </trkpt>
      <trkpt lat="44.21546" lon="3.22608">
        <ele>449</ele>
        <time>2009-07-08T11:38:15Z</time>
      </trkpt>
      <trkpt lat="44.21509" lon="3.22613">
        <ele>449</ele>
        <time>2009-07-08T11:38:27Z</time>
      </trkpt>
      <trkpt lat="44.21475" lon="3.2259">
        <ele>448</ele>
        <time>2009-07-08T11:38:38Z</time>
      </trkpt>
      <trkpt lat="44.21455" lon="3.22618">
        <ele>449</ele>
        <time>2009-07-08T11:38:46Z</time>
      </trkpt>
      <trkpt lat="44.21458" lon="3.22622">
        <ele>449</ele>
        <time>2009-07-08T11:38:47Z</time>
      </trkpt>
      <trkpt lat="44.21446" lon="3.22653">
        <ele>450</ele>
        <time>2009-07-08T11:38:55Z</time>
      </trkpt>
      <trkpt lat="44.21432" lon="3.22674">
        <ele>449</ele>
        <time>2009-07-08T11:39:00Z</time>
      </trkpt>
      <trkpt lat="44.21421" lon="3.2267">
        <ele>448</ele>
        <time>2009-07-08T11:39:06Z</time>
      </trkpt>
      <trkpt lat="44.21425" lon="3.22648">
        <ele>448</ele>
        <time>2009-07-08T11:39:09Z</time>
      </trkpt>
      <trkpt lat="44.21422" lon="3.22625">
        <ele>449</ele>
        <time>2009-07-08T11:39:13Z</time>
      </trkpt>
      <trkpt lat="44.21418" lon="3.22617">
        <ele>451</ele>
        <time>2009-07-08T11:39:16Z</time>
      </trkpt>
      <trkpt lat="44.21389" lon="3.22603">
        <ele>454</ele>
        <time>2009-07-08T11:39:30Z</time>
      </trkpt>
      <trkpt lat="44.21367" lon="3.22617">
        <ele>455</ele>
        <time>2009-07-08T11:39:41Z</time>
      </trkpt>
      <trkpt lat="44.21364" lon="3.22621">
        <ele>455</ele>
        <time>2009-07-08T11:39:44Z</time>
      </trkpt>
      <trkpt lat="44.2136" lon="3.22624">
        <ele>455</ele>
        <time>2009-07-08T11:39:49Z</time>
      </trkpt>
      <trkpt lat="44.21354" lon="3.22625">
        <ele>455</ele>
        <time>2009-07-08T11:39:53Z</time>
      </trkpt>
      <trkpt lat="44.21324" lon="3.22623">
        <ele>458</ele>
        <time>2009-07-08T11:40:05Z</time>
      </trkpt>
      <trkpt lat="44.21287" lon="3.22632">
        <ele>459</ele>
        <time>2009-07-08T11:40:18Z</time>
      </trkpt>
      <trkpt lat="44.21271" lon="3.22626">
        <ele>462</ele>
        <time>2009-07-08T11:40:25Z</time>
      </trkpt>
      <trkpt lat="44.21269" lon="3.22626">
        <ele>462</ele>
        <time>2009-07-08T11:40:26Z</time>
      </trkpt>
      <trkpt lat="44.21248" lon="3.22618">
        <ele>465</ele>
        <time>2009-07-08T11:40:35Z</time>
      </trkpt>
      <trkpt lat="44.21213" lon="3.22609">
        <ele>464</ele>
        <time>2009-07-08T11:40:49Z</time>
      </trkpt>
      <trkpt lat="44.21203" lon="3.22614">
        <ele>463</ele>
        <time>2009-07-08T11:40:52Z</time>
      </trkpt>
      <trkpt lat="44.21154" lon="3.22655">
        <ele>464</ele>
        <time>2009-07-08T11:41:06Z</time>
      </trkpt>
      <trkpt lat="44.21143" lon="3.22667">
        <ele>466</ele>
        <time>2009-07-08T11:41:10Z</time>
      </trkpt>
      <trkpt lat="44.21123" lon="3.22687">
        <ele>464</ele>
        <time>2009-07-08T11:41:16Z</time>
      </trkpt>
      <trkpt lat="44.211" lon="3.22673">
        <ele>464</ele>
        <time>2009-07-08T11:41:23Z</time>
      </trkpt>
      <trkpt lat="44.21095" lon="3.22644">
        <ele>464</ele>
        <time>2009-07-08T11:41:28Z</time>
      </trkpt>
      <trkpt lat="44.21099" lon="3.22597">
        <ele>465</ele>
        <time>2009-07-08T11:41:36Z</time>
      </trkpt>
      <trkpt lat="44.21104" lon="3.22581">
        <ele>467</ele>
        <time>2009-07-08T11:41:39Z</time>
      </trkpt>
      <trkpt lat="44.21104" lon="3.22576">
        <ele>467</ele>
        <time>2009-07-08T11:41:40Z</time>
      </trkpt>
      <trkpt lat="44.21103" lon="3.22561">
        <ele>467</ele>
        <time>2009-07-08T11:41:43Z</time>
      </trkpt>
      <trkpt lat="44.21081" lon="3.2256">
        <ele>467</ele>
        <time>2009-07-08T11:41:50Z</time>
      </trkpt>
      <trkpt lat="44.21072" lon="3.22569">
        <ele>468</ele>
        <time>2009-07-08T11:41:53Z</time>
      </trkpt>
      <trkpt lat="44.21066" lon="3.22575">
        <ele>468</ele>
        <time>2009-07-08T11:41:55Z</time>
      </trkpt>
      <trkpt lat="44.21039" lon="3.22553">
        <ele>467</ele>
        <time>2009-07-08T11:42:03Z</time>
      </trkpt>
      <trkpt lat="44.21028" lon="3.22521">
        <ele>465</ele>
        <time>2009-07-08T11:42:08Z</time>
      </trkpt>
      <trkpt lat="44.20995" lon="3.22474">
        <ele>465</ele>
        <time>2009-07-08T11:42:18Z</time>
      </trkpt>
      <trkpt lat="44.20957" lon="3.2246">
        <ele>465</ele>
        <time>2009-07-08T11:42:26Z</time>
      </trkpt>
      <trkpt lat="44.20921" lon="3.22489">
        <ele>463</ele>
        <time>2009-07-08T11:42:34Z</time>
      </trkpt>
      <trkpt lat="44.20912" lon="3.22496">
        <ele>461</ele>
        <time>2009-07-08T11:42:36Z</time>
      </trkpt>
      <trkpt lat="44.209" lon="3.22502">
        <ele>459</ele>
        <time>2009-07-08T11:42:38Z</time>
      </trkpt>
      <trkpt lat="44.2086" lon="3.22504">
        <ele>456</ele>
        <time>2009-07-08T11:42:45Z</time>
      </trkpt>
      <trkpt lat="44.20837" lon="3.22492">
        <ele>455</ele>
        <time>2009-07-08T11:42:51Z</time>
      </trkpt>
      <trkpt lat="44.20836" lon="3.22487">
        <ele>456</ele>
        <time>2009-07-08T11:42:52Z</time>
      </trkpt>
      <trkpt lat="44.20835" lon="3.22477">
        <ele>457</ele>
        <time>2009-07-08T11:42:54Z</time>
      </trkpt>
      <trkpt lat="44.20826" lon="3.22453">
        <ele>457</ele>
        <time>2009-07-08T11:42:59Z</time>
      </trkpt>
      <trkpt lat="44.20821" lon="3.22445">
        <ele>458</ele>
        <time>2009-07-08T11:43:01Z</time>
      </trkpt>
      <trkpt lat="44.2082" lon="3.22419">
        <ele>459</ele>
        <time>2009-07-08T11:43:06Z</time>
      </trkpt>
      <trkpt lat="44.20809" lon="3.22375">
        <ele>459</ele>
        <time>2009-07-08T11:43:14Z</time>
      </trkpt>
      <trkpt lat="44.20817" lon="3.22345">
        <ele>459</ele>
        <time>2009-07-08T11:43:20Z</time>
      </trkpt>
      <trkpt lat="44.20823" lon="3.22312">
        <ele>458</ele>
        <time>2009-07-08T11:43:26Z</time>
      </trkpt>
      <trkpt lat="44.20785" lon="3.22296">
        <ele>458</ele>
        <time>2009-07-08T11:43:35Z</time>
      </trkpt>
      <trkpt lat="44.20774" lon="3.22316">
        <ele>456</ele>
        <time>2009-07-08T11:43:39Z</time>
      </trkpt>
      <trkpt lat="44.20765" lon="3.22324">
        <ele>454</ele>
        <time>2009-07-08T11:43:41Z</time>
      </trkpt>
      <trkpt lat="44.20756" lon="3.22334">
        <ele>454</ele>
        <time>2009-07-08T11:43:43Z</time>
      </trkpt>
      <trkpt lat="44.20742" lon="3.22335">
        <ele>454</ele>
        <time>2009-07-08T11:43:46Z</time>
      </trkpt>
      <trkpt lat="44.20718" lon="3.22325">
        <ele>456</ele>
        <time>2009-07-08T11:43:51Z</time>
      </trkpt>
      <trkpt lat="44.20712" lon="3.22321">
        <ele>458</ele>
        <time>2009-07-08T11:43:53Z</time>
      </trkpt>
      <trkpt lat="44.20684" lon="3.22299">
        <ele>460</ele>
        <time>2009-07-08T11:44:05Z</time>
      </trkpt>
      <trkpt lat="44.20657" lon="3.2227">
        <ele>461</ele>
        <time>2009-07-08T11:44:17Z</time>
      </trkpt>
      <trkpt lat="44.20644" lon="3.22255">
        <ele>461</ele>
        <time>2009-07-08T11:44:22Z</time>
      </trkpt>
      <trkpt lat="44.2062" lon="3.22231">
        <ele>457</ele>
        <time>2009-07-08T11:44:28Z</time>
      </trkpt>
      <trkpt lat="44.20615" lon="3.22227">
        <ele>457</ele>
        <time>2009-07-08T11:44:29Z</time>
      </trkpt>
      <trkpt lat="44.20606" lon="3.22219">
        <ele>457</ele>
        <time>2009-07-08T11:44:31Z</time>
      </trkpt>
      <trkpt lat="44.20584" lon="3.22198">
        <ele>454</ele>
        <time>2009-07-08T11:44:37Z</time>
      </trkpt>
      <trkpt lat="44.20566" lon="3.22186">
        <ele>451</ele>
        <time>2009-07-08T11:44:41Z</time>
      </trkpt>
      <trkpt lat="44.2055" lon="3.22175">
        <ele>450</ele>
        <time>2009-07-08T11:44:44Z</time>
      </trkpt>
      <trkpt lat="44.20516" lon="3.22159">
        <ele>446</ele>
        <time>2009-07-08T11:44:50Z</time>
      </trkpt>
      <trkpt lat="44.20498" lon="3.22151">
        <ele>443</ele>
        <time>2009-07-08T11:44:53Z</time>
      </trkpt>
      <trkpt lat="44.20461" lon="3.22148">
        <ele>441</ele>
        <time>2009-07-08T11:45:00Z</time>
      </trkpt>
      <trkpt lat="44.20437" lon="3.22155">
        <ele>440</ele>
        <time>2009-07-08T11:45:04Z</time>
      </trkpt>
      <trkpt lat="44.20411" lon="3.22149">
        <ele>436</ele>
        <time>2009-07-08T11:45:08Z</time>
      </trkpt>
      <trkpt lat="44.20398" lon="3.22112">
        <ele>436</ele>
        <time>2009-07-08T11:45:15Z</time>
      </trkpt>
      <trkpt lat="44.20376" lon="3.22088">
        <ele>435</ele>
        <time>2009-07-08T11:45:20Z</time>
      </trkpt>
      <trkpt lat="44.20341" lon="3.22068">
        <ele>439</ele>
        <time>2009-07-08T11:45:28Z</time>
      </trkpt>
      <trkpt lat="44.20332" lon="3.22061">
        <ele>442</ele>
        <time>2009-07-08T11:45:33Z</time>
      </trkpt>
      <trkpt lat="44.20291" lon="3.22024">
        <ele>444</ele>
        <time>2009-07-08T11:45:44Z</time>
      </trkpt>
      <trkpt lat="44.20283" lon="3.21968">
        <ele>447</ele>
        <time>2009-07-08T11:45:57Z</time>
      </trkpt>
      <trkpt lat="44.20289" lon="3.21949">
        <ele>448</ele>
        <time>2009-07-08T11:46:01Z</time>
      </trkpt>
      <trkpt lat="44.20282" lon="3.21911">
        <ele>450</ele>
        <time>2009-07-08T11:46:10Z</time>
      </trkpt>
      <trkpt lat="44.20275" lon="3.21877">
        <ele>451</ele>
        <time>2009-07-08T11:46:18Z</time>
      </trkpt>
      <trkpt lat="44.20277" lon="3.21856">
        <ele>453</ele>
        <time>2009-07-08T11:46:23Z</time>
      </trkpt>
      <trkpt lat="44.20278" lon="3.21853">
        <ele>453</ele>
        <time>2009-07-08T11:46:24Z</time>
      </trkpt>
      <trkpt lat="44.20266" lon="3.21834">
        <ele>457</ele>
        <time>2009-07-08T11:46:33Z</time>
      </trkpt>
      <trkpt lat="44.20255" lon="3.21826">
        <ele>458</ele>
        <time>2009-07-08T11:46:38Z</time>
      </trkpt>
      <trkpt lat="44.20238" lon="3.21797">
        <ele>460</ele>
        <time>2009-07-08T11:46:51Z</time>
      </trkpt>
      <trkpt lat="44.20216" lon="3.21776">
        <ele>463</ele>
        <time>2009-07-08T11:47:03Z</time>
      </trkpt>
      <trkpt lat="44.20198" lon="3.21757">
        <ele>465</ele>
        <time>2009-07-08T11:47:14Z</time>
      </trkpt>
      <trkpt lat="44.20188" lon="3.21748">
        <ele>466</ele>
        <time>2009-07-08T11:47:20Z</time>
      </trkpt>
      <trkpt lat="44.20172" lon="3.21736">
        <ele>469</ele>
        <time>2009-07-08T11:47:29Z</time>
      </trkpt>
      <trkpt lat="44.20138" lon="3.21718">
        <ele>472</ele>
        <time>2009-07-08T11:47:46Z</time>
      </trkpt>
      <trkpt lat="44.20102" lon="3.21697">
        <ele>475</ele>
        <time>2009-07-08T11:48:02Z</time>
      </trkpt>
      <trkpt lat="44.20081" lon="3.21684">
        <ele>473</ele>
        <time>2009-07-08T11:48:10Z</time>
      </trkpt>
      <trkpt lat="44.2006" lon="3.2168">
        <ele>472</ele>
        <time>2009-07-08T11:48:15Z</time>
      </trkpt>
      <trkpt lat="44.20045" lon="3.21683">
        <ele>469</ele>
        <time>2009-07-08T11:48:18Z</time>
      </trkpt>
      <trkpt lat="44.20026" lon="3.21687">
        <ele>468</ele>
        <time>2009-07-08T11:48:21Z</time>
      </trkpt>
      <trkpt lat="44.20006" lon="3.2167">
        <ele>468</ele>
        <time>2009-07-08T11:48:26Z</time>
      </trkpt>
      <trkpt lat="44.20003" lon="3.21662">
        <ele>469</ele>
        <time>2009-07-08T11:48:28Z</time>
      </trkpt>
      <trkpt lat="44.19972" lon="3.21627">
        <ele>468</ele>
        <time>2009-07-08T11:48:38Z</time>
      </trkpt>
      <trkpt lat="44.19952" lon="3.21618">
        <ele>468</ele>
        <time>2009-07-08T11:48:42Z</time>
      </trkpt>
      <trkpt lat="44.19937" lon="3.21614">
        <ele>468</ele>
        <time>2009-07-08T11:48:45Z</time>
      </trkpt>
      <trkpt lat="44.19895" lon="3.21627">
        <ele>471</ele>
        <time>2009-07-08T11:48:57Z</time>
      </trkpt>
      <trkpt lat="44.19882" lon="3.21626">
        <ele>472</ele>
        <time>2009-07-08T11:49:01Z</time>
      </trkpt>
      <trkpt lat="44.19873" lon="3.21621">
        <ele>471</ele>
        <time>2009-07-08T11:49:03Z</time>
      </trkpt>
      <trkpt lat="44.19856" lon="3.21615">
        <ele>471</ele>
        <time>2009-07-08T11:49:07Z</time>
      </trkpt>
      <trkpt lat="44.19811" lon="3.21603">
        <ele>470</ele>
        <time>2009-07-08T11:49:18Z</time>
      </trkpt>
      <trkpt lat="44.19793" lon="3.216">
        <ele>467</ele>
        <time>2009-07-08T11:49:22Z</time>
      </trkpt>
      <trkpt lat="44.19767" lon="3.21573">
        <ele>462</ele>
        <time>2009-07-08T11:49:28Z</time>
      </trkpt>
      <trkpt lat="44.19771" lon="3.21555">
        <ele>460</ele>
        <time>2009-07-08T11:49:30Z</time>
      </trkpt>
      <trkpt lat="44.19792" lon="3.21525">
        <ele>459</ele>
        <time>2009-07-08T11:49:33Z</time>
      </trkpt>
      <trkpt lat="44.1977" lon="3.215">
        <ele>458</ele>
        <time>2009-07-08T11:49:39Z</time>
      </trkpt>
      <trkpt lat="44.19749" lon="3.2149">
        <ele>458</ele>
        <time>2009-07-08T11:49:43Z</time>
      </trkpt>
      <trkpt lat="44.19731" lon="3.21469">
        <ele>459</ele>
        <time>2009-07-08T11:49:48Z</time>
      </trkpt>
      <trkpt lat="44.19713" lon="3.21458">
        <ele>458</ele>
        <time>2009-07-08T11:49:52Z</time>
      </trkpt>
      <trkpt lat="44.19693" lon="3.21446">
        <ele>456</ele>
        <time>2009-07-08T11:49:56Z</time>
      </trkpt>
      <trkpt lat="44.19675" lon="3.21435">
        <ele>453</ele>
        <time>2009-07-08T11:49:59Z</time>
      </trkpt>
      <trkpt lat="44.19669" lon="3.21432">
        <ele>453</ele>
        <time>2009-07-08T11:50:00Z</time>
      </trkpt>
      <trkpt lat="44.19663" lon="3.21429">
        <ele>453</ele>
        <time>2009-07-08T11:50:01Z</time>
      </trkpt>
      <trkpt lat="44.19641" lon="3.21411">
        <ele>452</ele>
        <time>2009-07-08T11:50:05Z</time>
      </trkpt>
      <trkpt lat="44.19631" lon="3.21397">
        <ele>450</ele>
        <time>2009-07-08T11:50:07Z</time>
      </trkpt>
      <trkpt lat="44.1962" lon="3.21386">
        <ele>449</ele>
        <time>2009-07-08T11:50:09Z</time>
      </trkpt>
      <trkpt lat="44.19552" lon="3.21323">
        <ele>447</ele>
        <time>2009-07-08T11:50:23Z</time>
      </trkpt>
      <trkpt lat="44.19543" lon="3.21309">
        <ele>446</ele>
        <time>2009-07-08T11:50:25Z</time>
      </trkpt>
      <trkpt lat="44.19523" lon="3.21291">
        <ele>445</ele>
        <time>2009-07-08T11:50:28Z</time>
      </trkpt>
      <trkpt lat="44.19514" lon="3.21277">
        <ele>444</ele>
        <time>2009-07-08T11:50:30Z</time>
      </trkpt>
      <trkpt lat="44.19465" lon="3.21228">
        <ele>444</ele>
        <time>2009-07-08T11:50:40Z</time>
      </trkpt>
      <trkpt lat="44.19448" lon="3.21209">
        <ele>442</ele>
        <time>2009-07-08T11:50:43Z</time>
      </trkpt>
      <trkpt lat="44.1943" lon="3.21155">
        <ele>440</ele>
        <time>2009-07-08T11:50:49Z</time>
      </trkpt>
      <trkpt lat="44.19411" lon="3.21117">
        <ele>439</ele>
        <time>2009-07-08T11:50:53Z</time>
      </trkpt>
      <trkpt lat="44.19396" lon="3.21092">
        <ele>437</ele>
        <time>2009-07-08T11:50:56Z</time>
      </trkpt>
      <trkpt lat="44.19398" lon="3.21082">
        <ele>437</ele>
        <time>2009-07-08T11:50:57Z</time>
      </trkpt>
      <trkpt lat="44.19368" lon="3.21018">
        <ele>434</ele>
        <time>2009-07-08T11:51:05Z</time>
      </trkpt>
      <trkpt lat="44.19348" lon="3.20979">
        <ele>432</ele>
        <time>2009-07-08T11:51:10Z</time>
      </trkpt>
      <trkpt lat="44.1934" lon="3.2094">
        <ele>430</ele>
        <time>2009-07-08T11:51:14Z</time>
      </trkpt>
      <trkpt lat="44.19336" lon="3.20931">
        <ele>428</ele>
        <time>2009-07-08T11:51:15Z</time>
      </trkpt>
      <trkpt lat="44.19331" lon="3.20911">
        <ele>428</ele>
        <time>2009-07-08T11:51:17Z</time>
      </trkpt>
      <trkpt lat="44.1932" lon="3.20884">
        <ele>427</ele>
        <time>2009-07-08T11:51:20Z</time>
      </trkpt>
      <trkpt lat="44.19305" lon="3.20847">
        <ele>423</ele>
        <time>2009-07-08T11:51:24Z</time>
      </trkpt>
      <trkpt lat="44.19298" lon="3.20826">
        <ele>421</ele>
        <time>2009-07-08T11:51:26Z</time>
      </trkpt>
      <trkpt lat="44.19298" lon="3.20789">
        <ele>419</ele>
        <time>2009-07-08T11:51:30Z</time>
      </trkpt>
      <trkpt lat="44.19285" lon="3.20765">
        <ele>416</ele>
        <time>2009-07-08T11:51:39Z</time>
      </trkpt>
      <trkpt lat="44.19279" lon="3.20759">
        <ele>416</ele>
        <time>2009-07-08T11:51:48Z</time>
      </trkpt>
      <trkpt lat="44.19252" lon="3.20737">
        <ele>417</ele>
        <time>2009-07-08T11:51:58Z</time>
      </trkpt>
      <trkpt lat="44.19218" lon="3.20688">
        <ele>414</ele>
        <time>2009-07-08T11:52:12Z</time>
      </trkpt>
      <trkpt lat="44.19215" lon="3.20683">
        <ele>414</ele>
        <time>2009-07-08T11:52:13Z</time>
      </trkpt>
      <trkpt lat="44.1921" lon="3.20665">
        <ele>414</ele>
        <time>2009-07-08T11:52:16Z</time>
      </trkpt>
      <trkpt lat="44.19203" lon="3.20655">
        <ele>414</ele>
        <time>2009-07-08T11:52:18Z</time>
      </trkpt>
      <trkpt lat="44.19185" lon="3.20622">
        <ele>415</ele>
        <time>2009-07-08T11:52:25Z</time>
      </trkpt>
      <trkpt lat="44.19176" lon="3.20603">
        <ele>415</ele>
        <time>2009-07-08T11:52:33Z</time>
      </trkpt>
      <trkpt lat="44.19176" lon="3.20604">
        <ele>415</ele>
        <time>2009-07-08T11:53:16Z</time>
      </trkpt>
      <trkpt lat="44.19175" lon="3.20604">
        <ele>416</ele>
        <time>2009-07-08T11:53:43Z</time>
      </trkpt>
      <trkpt lat="44.19174" lon="3.20605">
        <ele>415</ele>
        <time>2009-07-08T11:54:47Z</time>
      </trkpt>
      <trkpt lat="44.19174" lon="3.20605">
        <ele>415</ele>
        <time>2009-07-08T11:55:30Z</time>
      </trkpt>
      <trkpt lat="44.19173" lon="3.20604">
        <ele>415</ele>
        <time>2009-07-08T11:56:01Z</time>
      </trkpt>
      <trkpt lat="44.19176" lon="3.20604">
        <ele>415</ele>
        <time>2009-07-08T11:56:23Z</time>
      </trkpt>
      <trkpt lat="44.19176" lon="3.20604">
        <ele>415</ele>
        <time>2009-07-08T11:56:55Z</time>
      </trkpt>
      <trkpt lat="44.19177" lon="3.20605">
        <ele>415</ele>
        <time>2009-07-08T11:57:39Z</time>
      </trkpt>
    </trkseg>
  </trk>
  <trk>
    <name><![CDATA[C02]]></name>
    <trkseg>
      <trkpt lat="44.19183" lon="3.20599">
        <ele>417</ele>
        <time>2009-07-08T12:35:23Z</time>
      </trkpt>
      <trkpt lat="44.19176" lon="3.20595">
        <ele>414</ele>
        <time>2009-07-08T12:35:40Z</time>
      </trkpt>
      <trkpt lat="44.1918" lon="3.20595">
        <ele>411</ele>
        <time>2009-07-08T12:36:05Z</time>
      </trkpt>
      <trkpt lat="44.19181" lon="3.20595">
        <ele>413</ele>
        <time>2009-07-08T12:36:08Z</time>
      </trkpt>
      <trkpt lat="44.19177" lon="3.20603">
        <ele>412</ele>
        <time>2009-07-08T12:37:45Z</time>
      </trkpt>
      <trkpt lat="44.19184" lon="3.20611">
        <ele>412</ele>
        <time>2009-07-08T12:41:47Z</time>
      </trkpt>
      <trkpt lat="44.19178" lon="3.20608">
        <ele>413</ele>
        <time>2009-07-08T12:42:02Z</time>
      </trkpt>
      <trkpt lat="44.19176" lon="3.20607">
        <ele>413</ele>
        <time>2009-07-08T12:42:04Z</time>
      </trkpt>
      <trkpt lat="44.19169" lon="3.20609">
        <ele>413</ele>
        <time>2009-07-08T12:42:08Z</time>
      </trkpt>
      <trkpt lat="44.1913" lon="3.20619">
        <ele>411</ele>
        <time>2009-07-08T12:42:25Z</time>
      </trkpt>
      <trkpt lat="44.19097" lon="3.20632">
        <ele>410</ele>
        <time>2009-07-08T12:42:34Z</time>
      </trkpt>
      <trkpt lat="44.19082" lon="3.20656">
        <ele>409</ele>
        <time>2009-07-08T12:42:40Z</time>
      </trkpt>
      <trkpt lat="44.19078" lon="3.20698">
        <ele>407</ele>
        <time>2009-07-08T12:42:48Z</time>
      </trkpt>
      <trkpt lat="44.19071" lon="3.20732">
        <ele>405</ele>
        <time>2009-07-08T12:42:53Z</time>
      </trkpt>
      <trkpt lat="44.1907" lon="3.2074">
        <ele>405</ele>
        <time>2009-07-08T12:42:54Z</time>
      </trkpt>
      <trkpt lat="44.19062" lon="3.20782">
        <ele>405</ele>
        <time>2009-07-08T12:43:04Z</time>
      </trkpt>
      <trkpt lat="44.19055" lon="3.20839">
        <ele>404</ele>
        <time>2009-07-08T12:43:15Z</time>
      </trkpt>
      <trkpt lat="44.19037" lon="3.20947">
        <ele>405</ele>
        <time>2009-07-08T12:43:32Z</time>
      </trkpt>
      <trkpt lat="44.1902" lon="3.20958">
        <ele>404</ele>
        <time>2009-07-08T12:43:37Z</time>
      </trkpt>
      <trkpt lat="44.19" lon="3.20953">
        <ele>404</ele>
        <time>2009-07-08T12:43:42Z</time>
      </trkpt>
      <trkpt lat="44.18985" lon="3.20976">
        <ele>404</ele>
        <time>2009-07-08T12:43:48Z</time>
      </trkpt>
      <trkpt lat="44.18968" lon="3.21043">
        <ele>408</ele>
        <time>2009-07-08T12:44:02Z</time>
      </trkpt>
      <trkpt lat="44.18935" lon="3.21057">
        <ele>410</ele>
        <time>2009-07-08T12:44:15Z</time>
      </trkpt>
      <trkpt lat="44.18908" lon="3.21037">
        <ele>412</ele>
        <time>2009-07-08T12:44:28Z</time>
      </trkpt>
      <trkpt lat="44.18877" lon="3.21">
        <ele>415</ele>
        <time>2009-07-08T12:44:43Z</time>
      </trkpt>
      <trkpt lat="44.18842" lon="3.20966">
        <ele>417</ele>
        <time>2009-07-08T12:44:59Z</time>
      </trkpt>
      <trkpt lat="44.18827" lon="3.20929">
        <ele>418</ele>
        <time>2009-07-08T12:45:11Z</time>
      </trkpt>
      <trkpt lat="44.18824" lon="3.20911">
        <ele>418</ele>
        <time>2009-07-08T12:45:16Z</time>
      </trkpt>
      <trkpt lat="44.18815" lon="3.20874">
        <ele>422</ele>
        <time>2009-07-08T12:45:27Z</time>
      </trkpt>
      <trkpt lat="44.18815" lon="3.20871">
        <ele>421</ele>
        <time>2009-07-08T12:45:28Z</time>
      </trkpt>
      <trkpt lat="44.18801" lon="3.20821">
        <ele>423</ele>
        <time>2009-07-08T12:45:43Z</time>
      </trkpt>
      <trkpt lat="44.18797" lon="3.20802">
        <ele>425</ele>
        <time>2009-07-08T12:45:49Z</time>
      </trkpt>
      <trkpt lat="44.18807" lon="3.20759">
        <ele>428</ele>
        <time>2009-07-08T12:46:04Z</time>
      </trkpt>
      <trkpt lat="44.18842" lon="3.20727">
        <ele>431</ele>
        <time>2009-07-08T12:46:21Z</time>
      </trkpt>
      <trkpt lat="44.18858" lon="3.20689">
        <ele>433</ele>
        <time>2009-07-08T12:46:36Z</time>
      </trkpt>
      <trkpt lat="44.18856" lon="3.20646">
        <ele>435</ele>
        <time>2009-07-08T12:46:50Z</time>
      </trkpt>
      <trkpt lat="44.18845" lon="3.20607">
        <ele>437</ele>
        <time>2009-07-08T12:47:03Z</time>
      </trkpt>
      <trkpt lat="44.18839" lon="3.20594">
        <ele>439</ele>
        <time>2009-07-08T12:47:08Z</time>
      </trkpt>
      <trkpt lat="44.18818" lon="3.20562">
        <ele>441</ele>
        <time>2009-07-08T12:47:21Z</time>
      </trkpt>
      <trkpt lat="44.18796" lon="3.20533">
        <ele>444</ele>
        <time>2009-07-08T12:47:36Z</time>
      </trkpt>
      <trkpt lat="44.18782" lon="3.20522">
        <ele>445</ele>
        <time>2009-07-08T12:47:45Z</time>
      </trkpt>
      <trkpt lat="44.18749" lon="3.20511">
        <ele>446</ele>
        <time>2009-07-08T12:48:03Z</time>
      </trkpt>
      <trkpt lat="44.18711" lon="3.20502">
        <ele>449</ele>
        <time>2009-07-08T12:48:24Z</time>
      </trkpt>
      <trkpt lat="44.18708" lon="3.205">
        <ele>449</ele>
        <time>2009-07-08T12:48:26Z</time>
      </trkpt>
      <trkpt lat="44.18702" lon="3.20497">
        <ele>449</ele>
        <time>2009-07-08T12:48:30Z</time>
      </trkpt>
      <trkpt lat="44.1868" lon="3.20483">
        <ele>452</ele>
        <time>2009-07-08T12:48:43Z</time>
      </trkpt>
      <trkpt lat="44.1865" lon="3.20438">
        <ele>455</ele>
        <time>2009-07-08T12:49:06Z</time>
      </trkpt>
      <trkpt lat="44.18647" lon="3.20432">
        <ele>456</ele>
        <time>2009-07-08T12:49:09Z</time>
      </trkpt>
      <trkpt lat="44.18621" lon="3.20389">
        <ele>458</ele>
        <time>2009-07-08T12:49:31Z</time>
      </trkpt>
      <trkpt lat="44.18605" lon="3.2037">
        <ele>461</ele>
        <time>2009-07-08T12:49:43Z</time>
      </trkpt>
      <trkpt lat="44.18575" lon="3.20346">
        <ele>464</ele>
        <time>2009-07-08T12:50:03Z</time>
      </trkpt>
      <trkpt lat="44.18569" lon="3.20379">
        <ele>465</ele>
        <time>2009-07-08T12:50:17Z</time>
      </trkpt>
      <trkpt lat="44.18587" lon="3.2042">
        <ele>467</ele>
        <time>2009-07-08T12:50:35Z</time>
      </trkpt>
      <trkpt lat="44.18593" lon="3.20466">
        <ele>470</ele>
        <time>2009-07-08T12:50:52Z</time>
      </trkpt>
      <trkpt lat="44.18608" lon="3.20516">
        <ele>471</ele>
        <time>2009-07-08T12:51:12Z</time>
      </trkpt>
      <trkpt lat="44.18616" lon="3.20534">
        <ele>474</ele>
        <time>2009-07-08T12:51:20Z</time>
      </trkpt>
      <trkpt lat="44.18647" lon="3.20561">
        <ele>476</ele>
        <time>2009-07-08T12:51:37Z</time>
      </trkpt>
      <trkpt lat="44.18679" lon="3.20596">
        <ele>478</ele>
        <time>2009-07-08T12:51:58Z</time>
      </trkpt>
      <trkpt lat="44.18683" lon="3.2064">
        <ele>482</ele>
        <time>2009-07-08T12:52:15Z</time>
      </trkpt>
      <trkpt lat="44.18662" lon="3.20688">
        <ele>484</ele>
        <time>2009-07-08T12:52:36Z</time>
      </trkpt>
      <trkpt lat="44.18641" lon="3.20736">
        <ele>488</ele>
        <time>2009-07-08T12:52:56Z</time>
      </trkpt>
      <trkpt lat="44.18638" lon="3.20751">
        <ele>488</ele>
        <time>2009-07-08T12:53:02Z</time>
      </trkpt>
      <trkpt lat="44.18635" lon="3.20783">
        <ele>490</ele>
        <time>2009-07-08T12:53:15Z</time>
      </trkpt>
      <trkpt lat="44.18632" lon="3.20825">
        <ele>493</ele>
        <time>2009-07-08T12:53:33Z</time>
      </trkpt>
      <trkpt lat="44.18619" lon="3.20863">
        <ele>496</ele>
        <time>2009-07-08T12:53:50Z</time>
      </trkpt>
      <trkpt lat="44.18597" lon="3.20909">
        <ele>499</ele>
        <time>2009-07-08T12:54:12Z</time>
      </trkpt>
      <trkpt lat="44.18589" lon="3.20952">
        <ele>501</ele>
        <time>2009-07-08T12:54:29Z</time>
      </trkpt>
      <trkpt lat="44.18572" lon="3.20994">
        <ele>503</ele>
        <time>2009-07-08T12:54:48Z</time>
      </trkpt>
      <trkpt lat="44.18547" lon="3.21025">
        <ele>506</ele>
        <time>2009-07-08T12:55:05Z</time>
      </trkpt>
      <trkpt lat="44.18524" lon="3.2105">
        <ele>509</ele>
        <time>2009-07-08T12:55:20Z</time>
      </trkpt>
      <trkpt lat="44.18493" lon="3.21073">
        <ele>511</ele>
        <time>2009-07-08T12:55:39Z</time>
      </trkpt>
      <trkpt lat="44.18467" lon="3.21084">
        <ele>513</ele>
        <time>2009-07-08T12:55:54Z</time>
      </trkpt>
      <trkpt lat="44.18435" lon="3.21093">
        <ele>516</ele>
        <time>2009-07-08T12:56:11Z</time>
      </trkpt>
      <trkpt lat="44.18408" lon="3.21128">
        <ele>518</ele>
        <time>2009-07-08T12:56:32Z</time>
      </trkpt>
      <trkpt lat="44.18376" lon="3.21137">
        <ele>521</ele>
        <time>2009-07-08T12:56:46Z</time>
      </trkpt>
      <trkpt lat="44.18348" lon="3.21151">
        <ele>522</ele>
        <time>2009-07-08T12:57:00Z</time>
      </trkpt>
      <trkpt lat="44.18345" lon="3.21134">
        <ele>523</ele>
        <time>2009-07-08T12:57:06Z</time>
      </trkpt>
      <trkpt lat="44.18374" lon="3.21104">
        <ele>525</ele>
        <time>2009-07-08T12:57:22Z</time>
      </trkpt>
      <trkpt lat="44.18406" lon="3.21085">
        <ele>527</ele>
        <time>2009-07-08T12:57:39Z</time>
      </trkpt>
      <trkpt lat="44.18444" lon="3.21075">
        <ele>529</ele>
        <time>2009-07-08T12:57:56Z</time>
      </trkpt>
      <trkpt lat="44.1847" lon="3.21054">
        <ele>532</ele>
        <time>2009-07-08T12:58:11Z</time>
      </trkpt>
      <trkpt lat="44.18486" lon="3.2103">
        <ele>534</ele>
        <time>2009-07-08T12:58:22Z</time>
      </trkpt>
      <trkpt lat="44.18502" lon="3.20996">
        <ele>536</ele>
        <time>2009-07-08T12:58:36Z</time>
      </trkpt>
      <trkpt lat="44.18519" lon="3.20952">
        <ele>536</ele>
        <time>2009-07-08T12:58:54Z</time>
      </trkpt>
      <trkpt lat="44.18523" lon="3.20926">
        <ele>538</ele>
        <time>2009-07-08T12:59:03Z</time>
      </trkpt>
      <trkpt lat="44.18525" lon="3.20914">
        <ele>539</ele>
        <time>2009-07-08T12:59:07Z</time>
      </trkpt>
      <trkpt lat="44.18537" lon="3.20866">
        <ele>541</ele>
        <time>2009-07-08T12:59:24Z</time>
      </trkpt>
      <trkpt lat="44.18547" lon="3.20823">
        <ele>544</ele>
        <time>2009-07-08T12:59:40Z</time>
      </trkpt>
      <trkpt lat="44.18548" lon="3.2077">
        <ele>545</ele>
        <time>2009-07-08T12:59:58Z</time>
      </trkpt>
      <trkpt lat="44.18546" lon="3.20725">
        <ele>549</ele>
        <time>2009-07-08T13:00:14Z</time>
      </trkpt>
      <trkpt lat="44.18549" lon="3.20678">
        <ele>552</ele>
        <time>2009-07-08T13:00:31Z</time>
      </trkpt>
      <trkpt lat="44.18549" lon="3.20676">
        <ele>552</ele>
        <time>2009-07-08T13:00:32Z</time>
      </trkpt>
      <trkpt lat="44.1854" lon="3.20645">
        <ele>555</ele>
        <time>2009-07-08T13:00:45Z</time>
      </trkpt>
      <trkpt lat="44.18533" lon="3.20641">
        <ele>556</ele>
        <time>2009-07-08T13:00:49Z</time>
      </trkpt>
      <trkpt lat="44.18501" lon="3.20621">
        <ele>557</ele>
        <time>2009-07-08T13:01:07Z</time>
      </trkpt>
      <trkpt lat="44.18475" lon="3.20585">
        <ele>560</ele>
        <time>2009-07-08T13:01:26Z</time>
      </trkpt>
      <trkpt lat="44.18451" lon="3.20549">
        <ele>564</ele>
        <time>2009-07-08T13:01:43Z</time>
      </trkpt>
      <trkpt lat="44.18425" lon="3.20513">
        <ele>566</ele>
        <time>2009-07-08T13:02:00Z</time>
      </trkpt>
      <trkpt lat="44.18405" lon="3.20496">
        <ele>569</ele>
        <time>2009-07-08T13:02:11Z</time>
      </trkpt>
      <trkpt lat="44.18365" lon="3.20477">
        <ele>570</ele>
        <time>2009-07-08T13:02:32Z</time>
      </trkpt>
      <trkpt lat="44.18362" lon="3.20476">
        <ele>571</ele>
        <time>2009-07-08T13:02:34Z</time>
      </trkpt>
      <trkpt lat="44.18333" lon="3.20473">
        <ele>574</ele>
        <time>2009-07-08T13:02:49Z</time>
      </trkpt>
      <trkpt lat="44.18308" lon="3.20472">
        <ele>576</ele>
        <time>2009-07-08T13:03:03Z</time>
      </trkpt>
      <trkpt lat="44.18276" lon="3.20462">
        <ele>579</ele>
        <time>2009-07-08T13:03:20Z</time>
      </trkpt>
      <trkpt lat="44.18238" lon="3.20455">
        <ele>581</ele>
        <time>2009-07-08T13:03:40Z</time>
      </trkpt>
      <trkpt lat="44.18196" lon="3.20458">
        <ele>583</ele>
        <time>2009-07-08T13:04:03Z</time>
      </trkpt>
      <trkpt lat="44.18162" lon="3.20451">
        <ele>586</ele>
        <time>2009-07-08T13:04:20Z</time>
      </trkpt>
      <trkpt lat="44.18154" lon="3.2045">
        <ele>587</ele>
        <time>2009-07-08T13:04:25Z</time>
      </trkpt>
      <trkpt lat="44.18126" lon="3.20417">
        <ele>590</ele>
        <time>2009-07-08T13:04:42Z</time>
      </trkpt>
      <trkpt lat="44.18101" lon="3.20374">
        <ele>592</ele>
        <time>2009-07-08T13:05:00Z</time>
      </trkpt>
      <trkpt lat="44.18083" lon="3.20353">
        <ele>594</ele>
        <time>2009-07-08T13:05:14Z</time>
      </trkpt>
      <trkpt lat="44.18081" lon="3.20353">
        <ele>595</ele>
        <time>2009-07-08T13:05:15Z</time>
      </trkpt>
      <trkpt lat="44.18086" lon="3.20378">
        <ele>594</ele>
        <time>2009-07-08T13:05:24Z</time>
      </trkpt>
      <trkpt lat="44.18108" lon="3.2041">
        <ele>596</ele>
        <time>2009-07-08T13:05:38Z</time>
      </trkpt>
      <trkpt lat="44.18127" lon="3.2045">
        <ele>599</ele>
        <time>2009-07-08T13:05:56Z</time>
      </trkpt>
      <trkpt lat="44.18158" lon="3.20477">
        <ele>602</ele>
        <time>2009-07-08T13:06:13Z</time>
      </trkpt>
      <trkpt lat="44.18177" lon="3.20488">
        <ele>605</ele>
        <time>2009-07-08T13:06:22Z</time>
      </trkpt>
      <trkpt lat="44.18212" lon="3.20505">
        <ele>606</ele>
        <time>2009-07-08T13:06:41Z</time>
      </trkpt>
      <trkpt lat="44.18238" lon="3.20509">
        <ele>609</ele>
        <time>2009-07-08T13:06:54Z</time>
      </trkpt>
      <trkpt lat="44.1824" lon="3.2051">
        <ele>609</ele>
        <time>2009-07-08T13:06:55Z</time>
      </trkpt>
      <trkpt lat="44.18276" lon="3.20529">
        <ele>611</ele>
        <time>2009-07-08T13:07:14Z</time>
      </trkpt>
      <trkpt lat="44.18292" lon="3.20536">
        <ele>614</ele>
        <time>2009-07-08T13:07:22Z</time>
      </trkpt>
      <trkpt lat="44.18328" lon="3.20554">
        <ele>617</ele>
        <time>2009-07-08T13:07:41Z</time>
      </trkpt>
      <trkpt lat="44.18361" lon="3.20582">
        <ele>618</ele>
        <time>2009-07-08T13:08:00Z</time>
      </trkpt>
      <trkpt lat="44.18386" lon="3.20624">
        <ele>620</ele>
        <time>2009-07-08T13:08:20Z</time>
      </trkpt>
      <trkpt lat="44.18408" lon="3.20667">
        <ele>623</ele>
        <time>2009-07-08T13:08:39Z</time>
      </trkpt>
      <trkpt lat="44.18428" lon="3.20697">
        <ele>625</ele>
        <time>2009-07-08T13:08:54Z</time>
      </trkpt>
      <trkpt lat="44.18443" lon="3.20728">
        <ele>628</ele>
        <time>2009-07-08T13:09:07Z</time>
      </trkpt>
      <trkpt lat="44.18448" lon="3.20775">
        <ele>632</ele>
        <time>2009-07-08T13:09:24Z</time>
      </trkpt>
      <trkpt lat="44.18433" lon="3.20806">
        <ele>634</ele>
        <time>2009-07-08T13:09:37Z</time>
      </trkpt>
      <trkpt lat="44.18431" lon="3.20793">
        <ele>635</ele>
        <time>2009-07-08T13:09:44Z</time>
      </trkpt>
      <trkpt lat="44.18438" lon="3.20748">
        <ele>636</ele>
        <time>2009-07-08T13:10:01Z</time>
      </trkpt>
      <trkpt lat="44.18419" lon="3.20713">
        <ele>640</ele>
        <time>2009-07-08T13:10:17Z</time>
      </trkpt>
      <trkpt lat="44.18391" lon="3.20683">
        <ele>643</ele>
        <time>2009-07-08T13:10:36Z</time>
      </trkpt>
      <trkpt lat="44.18365" lon="3.20653">
        <ele>644</ele>
        <time>2009-07-08T13:10:54Z</time>
      </trkpt>
      <trkpt lat="44.18352" lon="3.2064">
        <ele>647</ele>
        <time>2009-07-08T13:11:03Z</time>
      </trkpt>
      <trkpt lat="44.1832" lon="3.20618">
        <ele>650</ele>
        <time>2009-07-08T13:11:23Z</time>
      </trkpt>
      <trkpt lat="44.18282" lon="3.20611">
        <ele>654</ele>
        <time>2009-07-08T13:11:44Z</time>
      </trkpt>
      <trkpt lat="44.18259" lon="3.2061">
        <ele>657</ele>
        <time>2009-07-08T13:11:57Z</time>
      </trkpt>
      <trkpt lat="44.18222" lon="3.20604">
        <ele>660</ele>
        <time>2009-07-08T13:12:17Z</time>
      </trkpt>
      <trkpt lat="44.18191" lon="3.20601">
        <ele>663</ele>
        <time>2009-07-08T13:12:34Z</time>
      </trkpt>
      <trkpt lat="44.18156" lon="3.20581">
        <ele>666</ele>
        <time>2009-07-08T13:12:53Z</time>
      </trkpt>
      <trkpt lat="44.18124" lon="3.20568">
        <ele>670</ele>
        <time>2009-07-08T13:13:10Z</time>
      </trkpt>
      <trkpt lat="44.18122" lon="3.20567">
        <ele>669</ele>
        <time>2009-07-08T13:13:11Z</time>
      </trkpt>
      <trkpt lat="44.18089" lon="3.20548">
        <ele>672</ele>
        <time>2009-07-08T13:13:28Z</time>
      </trkpt>
      <trkpt lat="44.18056" lon="3.2053">
        <ele>676</ele>
        <time>2009-07-08T13:13:44Z</time>
      </trkpt>
      <trkpt lat="44.18048" lon="3.20526">
        <ele>677</ele>
        <time>2009-07-08T13:13:48Z</time>
      </trkpt>
      <trkpt lat="44.18027" lon="3.20501">
        <ele>680</ele>
        <time>2009-07-08T13:14:02Z</time>
      </trkpt>
      <trkpt lat="44.18012" lon="3.20486">
        <ele>680</ele>
        <time>2009-07-08T13:14:10Z</time>
      </trkpt>
      <trkpt lat="44.18003" lon="3.20492">
        <ele>681</ele>
        <time>2009-07-08T13:14:15Z</time>
      </trkpt>
      <trkpt lat="44.17968" lon="3.20523">
        <ele>684</ele>
        <time>2009-07-08T13:14:34Z</time>
      </trkpt>
      <trkpt lat="44.17934" lon="3.2055">
        <ele>686</ele>
        <time>2009-07-08T13:14:53Z</time>
      </trkpt>
      <trkpt lat="44.17919" lon="3.20566">
        <ele>689</ele>
        <time>2009-07-08T13:15:02Z</time>
      </trkpt>
      <trkpt lat="44.17887" lon="3.20606">
        <ele>691</ele>
        <time>2009-07-08T13:15:23Z</time>
      </trkpt>
      <trkpt lat="44.17883" lon="3.20611">
        <ele>693</ele>
        <time>2009-07-08T13:15:26Z</time>
      </trkpt>
      <trkpt lat="44.17856" lon="3.20647">
        <ele>695</ele>
        <time>2009-07-08T13:15:44Z</time>
      </trkpt>
      <trkpt lat="44.17845" lon="3.20697">
        <ele>698</ele>
        <time>2009-07-08T13:16:03Z</time>
      </trkpt>
      <trkpt lat="44.17859" lon="3.2074">
        <ele>699</ele>
        <time>2009-07-08T13:16:19Z</time>
      </trkpt>
      <trkpt lat="44.17835" lon="3.20762">
        <ele>701</ele>
        <time>2009-07-08T13:16:34Z</time>
      </trkpt>
      <trkpt lat="44.178" lon="3.20783">
        <ele>704</ele>
        <time>2009-07-08T13:16:52Z</time>
      </trkpt>
      <trkpt lat="44.17776" lon="3.20825">
        <ele>707</ele>
        <time>2009-07-08T13:17:09Z</time>
      </trkpt>
      <trkpt lat="44.1775" lon="3.2085">
        <ele>709</ele>
        <time>2009-07-08T13:17:24Z</time>
      </trkpt>
      <trkpt lat="44.17719" lon="3.20878">
        <ele>712</ele>
        <time>2009-07-08T13:17:41Z</time>
      </trkpt>
      <trkpt lat="44.1768" lon="3.20921">
        <ele>714</ele>
        <time>2009-07-08T13:18:04Z</time>
      </trkpt>
      <trkpt lat="44.17666" lon="3.20927">
        <ele>715</ele>
        <time>2009-07-08T13:18:15Z</time>
      </trkpt>
      <trkpt lat="44.17665" lon="3.20929">
        <ele>716</ele>
        <time>2009-07-08T13:18:31Z</time>
      </trkpt>
      <trkpt lat="44.17663" lon="3.20933">
        <ele>716</ele>
        <time>2009-07-08T13:18:37Z</time>
      </trkpt>
      <trkpt lat="44.1766" lon="3.20934">
        <ele>716</ele>
        <time>2009-07-08T13:18:53Z</time>
      </trkpt>
      <trkpt lat="44.17661" lon="3.20935">
        <ele>715</ele>
        <time>2009-07-08T13:22:05Z</time>
      </trkpt>
      <trkpt lat="44.1766" lon="3.20937">
        <ele>716</ele>
        <time>2009-07-08T13:23:33Z</time>
      </trkpt>
      <trkpt lat="44.1766" lon="3.20938">
        <ele>715</ele>
        <time>2009-07-08T13:23:53Z</time>
      </trkpt>
      <trkpt lat="44.17659" lon="3.20938">
        <ele>717</ele>
        <time>2009-07-08T13:25:33Z</time>
      </trkpt>
      <trkpt lat="44.17645" lon="3.2096">
        <ele>721</ele>
        <time>2009-07-08T13:25:45Z</time>
      </trkpt>
      <trkpt lat="44.17644" lon="3.20962">
        <ele>719</ele>
        <time>2009-07-08T13:25:46Z</time>
      </trkpt>
      <trkpt lat="44.17638" lon="3.20976">
        <ele>720</ele>
        <time>2009-07-08T13:25:52Z</time>
      </trkpt>
      <trkpt lat="44.17618" lon="3.21023">
        <ele>722</ele>
        <time>2009-07-08T13:26:11Z</time>
      </trkpt>
      <trkpt lat="44.17593" lon="3.21063">
        <ele>724</ele>
        <time>2009-07-08T13:26:26Z</time>
      </trkpt>
      <trkpt lat="44.17557" lon="3.21105">
        <ele>726</ele>
        <time>2009-07-08T13:26:45Z</time>
      </trkpt>
      <trkpt lat="44.17536" lon="3.2113">
        <ele>728</ele>
        <time>2009-07-08T13:26:56Z</time>
      </trkpt>
      <trkpt lat="44.17528" lon="3.21156">
        <ele>730</ele>
        <time>2009-07-08T13:27:05Z</time>
      </trkpt>
      <trkpt lat="44.17517" lon="3.21161">
        <ele>730</ele>
        <time>2009-07-08T13:27:11Z</time>
      </trkpt>
      <trkpt lat="44.17471" lon="3.21191">
        <ele>728</ele>
        <time>2009-07-08T13:27:28Z</time>
      </trkpt>
      <trkpt lat="44.17434" lon="3.21194">
        <ele>727</ele>
        <time>2009-07-08T13:27:38Z</time>
      </trkpt>
      <trkpt lat="44.17413" lon="3.21205">
        <ele>725</ele>
        <time>2009-07-08T13:27:43Z</time>
      </trkpt>
      <trkpt lat="44.17377" lon="3.21233">
        <ele>724</ele>
        <time>2009-07-08T13:27:55Z</time>
      </trkpt>
      <trkpt lat="44.17375" lon="3.21235">
        <ele>727</ele>
        <time>2009-07-08T13:28:06Z</time>
      </trkpt>
      <trkpt lat="44.17373" lon="3.21234">
        <ele>725</ele>
        <time>2009-07-08T13:28:11Z</time>
      </trkpt>
      <trkpt lat="44.1737" lon="3.21236">
        <ele>725</ele>
        <time>2009-07-08T13:28:21Z</time>
      </trkpt>
      <trkpt lat="44.17357" lon="3.21266">
        <ele>723</ele>
        <time>2009-07-08T13:28:34Z</time>
      </trkpt>
      <trkpt lat="44.17364" lon="3.21322">
        <ele>723</ele>
        <time>2009-07-08T13:28:48Z</time>
      </trkpt>
      <trkpt lat="44.17381" lon="3.21377">
        <ele>723</ele>
        <time>2009-07-08T13:29:02Z</time>
      </trkpt>
      <trkpt lat="44.17387" lon="3.21442">
        <ele>726</ele>
        <time>2009-07-08T13:29:19Z</time>
      </trkpt>
      <trkpt lat="44.17387" lon="3.21444">
        <ele>726</ele>
        <time>2009-07-08T13:29:20Z</time>
      </trkpt>
      <trkpt lat="44.17384" lon="3.21455">
        <ele>727</ele>
        <time>2009-07-08T13:29:24Z</time>
      </trkpt>
      <trkpt lat="44.17372" lon="3.21475">
        <ele>728</ele>
        <time>2009-07-08T13:29:36Z</time>
      </trkpt>
      <trkpt lat="44.17364" lon="3.21487">
        <ele>728</ele>
        <time>2009-07-08T13:29:48Z</time>
      </trkpt>
      <trkpt lat="44.17362" lon="3.21495">
        <ele>729</ele>
        <time>2009-07-08T13:29:59Z</time>
      </trkpt>
      <trkpt lat="44.17357" lon="3.21506">
        <ele>729</ele>
        <time>2009-07-08T13:30:11Z</time>
      </trkpt>
      <trkpt lat="44.17352" lon="3.21521">
        <ele>732</ele>
        <time>2009-07-08T13:30:18Z</time>
      </trkpt>
      <trkpt lat="44.17331" lon="3.21552">
        <ele>734</ele>
        <time>2009-07-08T13:30:33Z</time>
      </trkpt>
      <trkpt lat="44.17305" lon="3.21563">
        <ele>736</ele>
        <time>2009-07-08T13:30:46Z</time>
      </trkpt>
      <trkpt lat="44.17278" lon="3.21586">
        <ele>738</ele>
        <time>2009-07-08T13:31:02Z</time>
      </trkpt>
      <trkpt lat="44.17256" lon="3.21604">
        <ele>740</ele>
        <time>2009-07-08T13:31:16Z</time>
      </trkpt>
      <trkpt lat="44.17234" lon="3.21622">
        <ele>742</ele>
        <time>2009-07-08T13:31:30Z</time>
      </trkpt>
      <trkpt lat="44.17218" lon="3.21631">
        <ele>743</ele>
        <time>2009-07-08T13:31:40Z</time>
      </trkpt>
      <trkpt lat="44.17208" lon="3.2164">
        <ele>744</ele>
        <time>2009-07-08T13:31:47Z</time>
      </trkpt>
      <trkpt lat="44.1719" lon="3.21646">
        <ele>746</ele>
        <time>2009-07-08T13:31:57Z</time>
      </trkpt>
      <trkpt lat="44.17173" lon="3.21663">
        <ele>748</ele>
        <time>2009-07-08T13:32:09Z</time>
      </trkpt>
      <trkpt lat="44.17167" lon="3.21692">
        <ele>749</ele>
        <time>2009-07-08T13:32:21Z</time>
      </trkpt>
      <trkpt lat="44.17138" lon="3.21697">
        <ele>751</ele>
        <time>2009-07-08T13:32:37Z</time>
      </trkpt>
      <trkpt lat="44.17131" lon="3.21697">
        <ele>752</ele>
        <time>2009-07-08T13:32:41Z</time>
      </trkpt>
      <trkpt lat="44.17106" lon="3.2169">
        <ele>755</ele>
        <time>2009-07-08T13:32:56Z</time>
      </trkpt>
      <trkpt lat="44.17097" lon="3.21693">
        <ele>756</ele>
        <time>2009-07-08T13:33:02Z</time>
      </trkpt>
      <trkpt lat="44.1708" lon="3.21706">
        <ele>757</ele>
        <time>2009-07-08T13:33:15Z</time>
      </trkpt>
      <trkpt lat="44.17079" lon="3.21707">
        <ele>757</ele>
        <time>2009-07-08T13:33:18Z</time>
      </trkpt>
      <trkpt lat="44.17071" lon="3.21717">
        <ele>757</ele>
        <time>2009-07-08T13:33:28Z</time>
      </trkpt>
      <trkpt lat="44.17057" lon="3.21725">
        <ele>758</ele>
        <time>2009-07-08T13:33:36Z</time>
      </trkpt>
      <trkpt lat="44.17053" lon="3.21725">
        <ele>759</ele>
        <time>2009-07-08T13:33:39Z</time>
      </trkpt>
      <trkpt lat="44.17045" lon="3.21728">
        <ele>760</ele>
        <time>2009-07-08T13:33:43Z</time>
      </trkpt>
      <trkpt lat="44.17028" lon="3.21735">
        <ele>762</ele>
        <time>2009-07-08T13:33:58Z</time>
      </trkpt>
      <trkpt lat="44.17026" lon="3.21733">
        <ele>757</ele>
        <time>2009-07-08T13:34:18Z</time>
      </trkpt>
      <trkpt lat="44.17026" lon="3.21732">
        <ele>764</ele>
        <time>2009-07-08T13:34:19Z</time>
      </trkpt>
      <trkpt lat="44.17026" lon="3.21732">
        <ele>759</ele>
        <time>2009-07-08T13:34:20Z</time>
      </trkpt>
      <trkpt lat="44.17026" lon="3.21732">
        <ele>764</ele>
        <time>2009-07-08T13:34:22Z</time>
      </trkpt>
      <trkpt lat="44.17026" lon="3.21732">
        <ele>761</ele>
        <time>2009-07-08T13:34:23Z</time>
      </trkpt>
      <trkpt lat="44.17026" lon="3.21732">
        <ele>764</ele>
        <time>2009-07-08T13:34:27Z</time>
      </trkpt>
      <trkpt lat="44.17026" lon="3.21732">
        <ele>758</ele>
        <time>2009-07-08T13:34:28Z</time>
      </trkpt>
      <trkpt lat="44.17027" lon="3.21732">
        <ele>762</ele>
        <time>2009-07-08T13:34:30Z</time>
      </trkpt>
      <trkpt lat="44.17027" lon="3.21732">
        <ele>759</ele>
        <time>2009-07-08T13:34:34Z</time>
      </trkpt>
      <trkpt lat="44.17027" lon="3.21732">
        <ele>762</ele>
        <time>2009-07-08T13:34:35Z</time>
      </trkpt>
      <trkpt lat="44.17027" lon="3.21731">
        <ele>763</ele>
        <time>2009-07-08T13:35:32Z</time>
      </trkpt>
      <trkpt lat="44.17026" lon="3.21732">
        <ele>762</ele>
        <time>2009-07-08T13:36:02Z</time>
      </trkpt>
      <trkpt lat="44.17013" lon="3.21735">
        <ele>763</ele>
        <time>2009-07-08T13:36:11Z</time>
      </trkpt>
      <trkpt lat="44.17005" lon="3.21737">
        <ele>763</ele>
        <time>2009-07-08T13:36:24Z</time>
      </trkpt>
      <trkpt lat="44.17002" lon="3.21736">
        <ele>763</ele>
        <time>2009-07-08T13:36:30Z</time>
      </trkpt>
      <trkpt lat="44.17" lon="3.21737">
        <ele>762</ele>
        <time>2009-07-08T13:36:46Z</time>
      </trkpt>
      <trkpt lat="44.17001" lon="3.21736">
        <ele>762</ele>
        <time>2009-07-08T13:36:50Z</time>
      </trkpt>
      <trkpt lat="44.17007" lon="3.21742">
        <ele>763</ele>
        <time>2009-07-08T13:37:03Z</time>
      </trkpt>
      <trkpt lat="44.17022" lon="3.21744">
        <ele>764</ele>
        <time>2009-07-08T13:37:15Z</time>
      </trkpt>
      <trkpt lat="44.17028" lon="3.21741">
        <ele>764</ele>
        <time>2009-07-08T13:37:28Z</time>
      </trkpt>
      <trkpt lat="44.17034" lon="3.21742">
        <ele>765</ele>
        <time>2009-07-08T13:37:38Z</time>
      </trkpt>
      <trkpt lat="44.17039" lon="3.21742">
        <ele>764</ele>
        <time>2009-07-08T13:37:51Z</time>
      </trkpt>
      <trkpt lat="44.17046" lon="3.21744">
        <ele>765</ele>
        <time>2009-07-08T13:38:03Z</time>
      </trkpt>
      <trkpt lat="44.17061" lon="3.21742">
        <ele>766</ele>
        <time>2009-07-08T13:38:15Z</time>
      </trkpt>
      <trkpt lat="44.1707" lon="3.21743">
        <ele>767</ele>
        <time>2009-07-08T13:38:27Z</time>
      </trkpt>
      <trkpt lat="44.17083" lon="3.21739">
        <ele>768</ele>
        <time>2009-07-08T13:38:39Z</time>
      </trkpt>
      <trkpt lat="44.17083" lon="3.21739">
        <ele>768</ele>
        <time>2009-07-08T13:38:40Z</time>
      </trkpt>
      <trkpt lat="44.17077" lon="3.21744">
        <ele>766</ele>
        <time>2009-07-08T13:38:54Z</time>
      </trkpt>
      <trkpt lat="44.17075" lon="3.21748">
        <ele>768</ele>
        <time>2009-07-08T13:39:12Z</time>
      </trkpt>
      <trkpt lat="44.17071" lon="3.2175">
        <ele>769</ele>
        <time>2009-07-08T13:39:26Z</time>
      </trkpt>
      <trkpt lat="44.17046" lon="3.21765">
        <ele>772</ele>
        <time>2009-07-08T13:39:43Z</time>
      </trkpt>
      <trkpt lat="44.17044" lon="3.21767">
        <ele>772</ele>
        <time>2009-07-08T13:39:46Z</time>
      </trkpt>
      <trkpt lat="44.1703" lon="3.21775">
        <ele>773</ele>
        <time>2009-07-08T13:39:55Z</time>
      </trkpt>
      <trkpt lat="44.17014" lon="3.21785">
        <ele>774</ele>
        <time>2009-07-08T13:40:04Z</time>
      </trkpt>
      <trkpt lat="44.16997" lon="3.2178">
        <ele>775</ele>
        <time>2009-07-08T13:40:13Z</time>
      </trkpt>
      <trkpt lat="44.1699" lon="3.21773">
        <ele>775</ele>
        <time>2009-07-08T13:40:19Z</time>
      </trkpt>
      <trkpt lat="44.1697" lon="3.21766">
        <ele>777</ele>
        <time>2009-07-08T13:40:33Z</time>
      </trkpt>
      <trkpt lat="44.16946" lon="3.21774">
        <ele>779</ele>
        <time>2009-07-08T13:40:48Z</time>
      </trkpt>
      <trkpt lat="44.16923" lon="3.21778">
        <ele>782</ele>
        <time>2009-07-08T13:41:04Z</time>
      </trkpt>
      <trkpt lat="44.16913" lon="3.21785">
        <ele>784</ele>
        <time>2009-07-08T13:41:14Z</time>
      </trkpt>
      <trkpt lat="44.16901" lon="3.21795">
        <ele>784</ele>
        <time>2009-07-08T13:41:28Z</time>
      </trkpt>
      <trkpt lat="44.16899" lon="3.21798">
        <ele>785</ele>
        <time>2009-07-08T13:41:54Z</time>
      </trkpt>
      <trkpt lat="44.16898" lon="3.218">
        <ele>786</ele>
        <time>2009-07-08T13:42:08Z</time>
      </trkpt>
      <trkpt lat="44.16883" lon="3.2181">
        <ele>787</ele>
        <time>2009-07-08T13:42:19Z</time>
      </trkpt>
      <trkpt lat="44.16875" lon="3.21816">
        <ele>787</ele>
        <time>2009-07-08T13:42:24Z</time>
      </trkpt>
      <trkpt lat="44.16857" lon="3.21826">
        <ele>789</ele>
        <time>2009-07-08T13:42:35Z</time>
      </trkpt>
      <trkpt lat="44.16834" lon="3.21842">
        <ele>791</ele>
        <time>2009-07-08T13:42:49Z</time>
      </trkpt>
      <trkpt lat="44.16822" lon="3.2185">
        <ele>793</ele>
        <time>2009-07-08T13:42:56Z</time>
      </trkpt>
      <trkpt lat="44.16818" lon="3.21864">
        <ele>794</ele>
        <time>2009-07-08T13:43:09Z</time>
      </trkpt>
      <trkpt lat="44.16816" lon="3.2187">
        <ele>795</ele>
        <time>2009-07-08T13:43:24Z</time>
      </trkpt>
      <trkpt lat="44.16815" lon="3.21871">
        <ele>795</ele>
        <time>2009-07-08T13:44:27Z</time>
      </trkpt>
      <trkpt lat="44.16797" lon="3.21881">
        <ele>793</ele>
        <time>2009-07-08T13:44:37Z</time>
      </trkpt>
      <trkpt lat="44.16782" lon="3.21883">
        <ele>792</ele>
        <time>2009-07-08T13:44:41Z</time>
      </trkpt>
      <trkpt lat="44.16773" lon="3.21892">
        <ele>791</ele>
        <time>2009-07-08T13:44:45Z</time>
      </trkpt>
      <trkpt lat="44.16767" lon="3.21893">
        <ele>790</ele>
        <time>2009-07-08T13:44:47Z</time>
      </trkpt>
      <trkpt lat="44.16753" lon="3.21904">
        <ele>788</ele>
        <time>2009-07-08T13:44:53Z</time>
      </trkpt>
      <trkpt lat="44.16741" lon="3.21909">
        <ele>787</ele>
        <time>2009-07-08T13:44:57Z</time>
      </trkpt>
      <trkpt lat="44.16732" lon="3.21911">
        <ele>785</ele>
        <time>2009-07-08T13:45:01Z</time>
      </trkpt>
      <trkpt lat="44.1669" lon="3.21916">
        <ele>782</ele>
        <time>2009-07-08T13:45:13Z</time>
      </trkpt>
      <trkpt lat="44.16658" lon="3.21923">
        <ele>782</ele>
        <time>2009-07-08T13:45:23Z</time>
      </trkpt>
      <trkpt lat="44.16614" lon="3.21945">
        <ele>782</ele>
        <time>2009-07-08T13:45:39Z</time>
      </trkpt>
      <trkpt lat="44.16574" lon="3.21958">
        <ele>783</ele>
        <time>2009-07-08T13:45:53Z</time>
      </trkpt>
      <trkpt lat="44.16571" lon="3.21959">
        <ele>784</ele>
        <time>2009-07-08T13:45:54Z</time>
      </trkpt>
      <trkpt lat="44.16542" lon="3.21955">
        <ele>787</ele>
        <time>2009-07-08T13:46:05Z</time>
      </trkpt>
      <trkpt lat="44.16506" lon="3.21978">
        <ele>789</ele>
        <time>2009-07-08T13:46:21Z</time>
      </trkpt>
      <trkpt lat="44.16476" lon="3.21979">
        <ele>790</ele>
        <time>2009-07-08T13:46:33Z</time>
      </trkpt>
      <trkpt lat="44.1644" lon="3.21985">
        <ele>790</ele>
        <time>2009-07-08T13:46:45Z</time>
      </trkpt>
      <trkpt lat="44.16397" lon="3.21988">
        <ele>791</ele>
        <time>2009-07-08T13:47:00Z</time>
      </trkpt>
      <trkpt lat="44.16367" lon="3.21958">
        <ele>793</ele>
        <time>2009-07-08T13:47:13Z</time>
      </trkpt>
      <trkpt lat="44.16342" lon="3.21979">
        <ele>796</ele>
        <time>2009-07-08T13:47:24Z</time>
      </trkpt>
      <trkpt lat="44.16332" lon="3.21978">
        <ele>796</ele>
        <time>2009-07-08T13:47:29Z</time>
      </trkpt>
      <trkpt lat="44.16328" lon="3.21982">
        <ele>796</ele>
        <time>2009-07-08T13:47:37Z</time>
      </trkpt>
      <trkpt lat="44.16327" lon="3.21996">
        <ele>796</ele>
        <time>2009-07-08T13:47:49Z</time>
      </trkpt>
      <trkpt lat="44.16328" lon="3.21996">
        <ele>797</ele>
        <time>2009-07-08T13:48:14Z</time>
      </trkpt>
      <trkpt lat="44.16324" lon="3.21997">
        <ele>797</ele>
        <time>2009-07-08T14:04:30Z</time>
      </trkpt>
      <trkpt lat="44.16323" lon="3.21994">
        <ele>797</ele>
        <time>2009-07-08T14:04:44Z</time>
      </trkpt>
      <trkpt lat="44.16321" lon="3.2199">
        <ele>795</ele>
        <time>2009-07-08T14:04:49Z</time>
      </trkpt>
      <trkpt lat="44.16322" lon="3.21987">
        <ele>796</ele>
        <time>2009-07-08T14:05:12Z</time>
      </trkpt>
      <trkpt lat="44.16323" lon="3.21985">
        <ele>796</ele>
        <time>2009-07-08T14:05:23Z</time>
      </trkpt>
      <trkpt lat="44.16325" lon="3.21936">
        <ele>795</ele>
        <time>2009-07-08T14:05:37Z</time>
      </trkpt>
      <trkpt lat="44.16326" lon="3.21933">
        <ele>795</ele>
        <time>2009-07-08T14:05:50Z</time>
      </trkpt>
      <trkpt lat="44.16321" lon="3.21927">
        <ele>795</ele>
        <time>2009-07-08T14:06:01Z</time>
      </trkpt>
      <trkpt lat="44.16305" lon="3.21902">
        <ele>798</ele>
        <time>2009-07-08T14:06:12Z</time>
      </trkpt>
      <trkpt lat="44.16284" lon="3.21868">
        <ele>799</ele>
        <time>2009-07-08T14:06:31Z</time>
      </trkpt>
      <trkpt lat="44.16272" lon="3.21814">
        <ele>799</ele>
        <time>2009-07-08T14:06:48Z</time>
      </trkpt>
      <trkpt lat="44.16254" lon="3.21775">
        <ele>799</ele>
        <time>2009-07-08T14:07:00Z</time>
      </trkpt>
      <trkpt lat="44.16256" lon="3.21751">
        <ele>798</ele>
        <time>2009-07-08T14:07:08Z</time>
      </trkpt>
      <trkpt lat="44.16256" lon="3.21743">
        <ele>797</ele>
        <time>2009-07-08T14:07:10Z</time>
      </trkpt>
      <trkpt lat="44.16249" lon="3.21727">
        <ele>794</ele>
        <time>2009-07-08T14:07:14Z</time>
      </trkpt>
      <trkpt lat="44.16244" lon="3.21718">
        <ele>793</ele>
        <time>2009-07-08T14:07:16Z</time>
      </trkpt>
      <trkpt lat="44.16234" lon="3.21688">
        <ele>790</ele>
        <time>2009-07-08T14:07:23Z</time>
      </trkpt>
      <trkpt lat="44.1623" lon="3.21666">
        <ele>789</ele>
        <time>2009-07-08T14:07:27Z</time>
      </trkpt>
      <trkpt lat="44.16223" lon="3.21623">
        <ele>786</ele>
        <time>2009-07-08T14:07:36Z</time>
      </trkpt>
      <trkpt lat="44.16224" lon="3.21616">
        <ele>786</ele>
        <time>2009-07-08T14:07:39Z</time>
      </trkpt>
      <trkpt lat="44.16221" lon="3.21594">
        <ele>783</ele>
        <time>2009-07-08T14:07:44Z</time>
      </trkpt>
      <trkpt lat="44.1622" lon="3.2159">
        <ele>784</ele>
        <time>2009-07-08T14:07:45Z</time>
      </trkpt>
      <trkpt lat="44.16211" lon="3.21589">
        <ele>783</ele>
        <time>2009-07-08T14:07:50Z</time>
      </trkpt>
      <trkpt lat="44.16173" lon="3.21596">
        <ele>784</ele>
        <time>2009-07-08T14:08:03Z</time>
      </trkpt>
      <trkpt lat="44.16138" lon="3.21617">
        <ele>783</ele>
        <time>2009-07-08T14:08:15Z</time>
      </trkpt>
      <trkpt lat="44.16112" lon="3.21631">
        <ele>782</ele>
        <time>2009-07-08T14:08:23Z</time>
      </trkpt>
      <trkpt lat="44.16096" lon="3.21621">
        <ele>781</ele>
        <time>2009-07-08T14:08:31Z</time>
      </trkpt>
      <trkpt lat="44.16089" lon="3.21625">
        <ele>780</ele>
        <time>2009-07-08T14:08:34Z</time>
      </trkpt>
      <trkpt lat="44.16044" lon="3.21655">
        <ele>779</ele>
        <time>2009-07-08T14:08:47Z</time>
      </trkpt>
      <trkpt lat="44.16014" lon="3.21673">
        <ele>780</ele>
        <time>2009-07-08T14:08:56Z</time>
      </trkpt>
      <trkpt lat="44.16002" lon="3.21668">
        <ele>780</ele>
        <time>2009-07-08T14:09:01Z</time>
      </trkpt>
      <trkpt lat="44.15995" lon="3.21632">
        <ele>780</ele>
        <time>2009-07-08T14:09:13Z</time>
      </trkpt>
      <trkpt lat="44.15968" lon="3.21629">
        <ele>779</ele>
        <time>2009-07-08T14:09:23Z</time>
      </trkpt>
      <trkpt lat="44.1596" lon="3.21626">
        <ele>779</ele>
        <time>2009-07-08T14:09:26Z</time>
      </trkpt>
      <trkpt lat="44.1596" lon="3.21599">
        <ele>778</ele>
        <time>2009-07-08T14:09:36Z</time>
      </trkpt>
      <trkpt lat="44.1596" lon="3.21584">
        <ele>777</ele>
        <time>2009-07-08T14:09:39Z</time>
      </trkpt>
      <trkpt lat="44.15961" lon="3.21573">
        <ele>776</ele>
        <time>2009-07-08T14:09:41Z</time>
      </trkpt>
      <trkpt lat="44.15972" lon="3.2154">
        <ele>774</ele>
        <time>2009-07-08T14:09:49Z</time>
      </trkpt>
      <trkpt lat="44.1597" lon="3.21526">
        <ele>772</ele>
        <time>2009-07-08T14:09:52Z</time>
      </trkpt>
      <trkpt lat="44.15965" lon="3.21514">
        <ele>771</ele>
        <time>2009-07-08T14:09:54Z</time>
      </trkpt>
      <trkpt lat="44.15959" lon="3.21499">
        <ele>767</ele>
        <time>2009-07-08T14:09:56Z</time>
      </trkpt>
      <trkpt lat="44.15952" lon="3.21479">
        <ele>765</ele>
        <time>2009-07-08T14:09:58Z</time>
      </trkpt>
      <trkpt lat="44.15936" lon="3.21439">
        <ele>760</ele>
        <time>2009-07-08T14:10:02Z</time>
      </trkpt>
      <trkpt lat="44.1592" lon="3.21401">
        <ele>757</ele>
        <time>2009-07-08T14:10:06Z</time>
      </trkpt>
      <trkpt lat="44.15914" lon="3.2138">
        <ele>756</ele>
        <time>2009-07-08T14:10:13Z</time>
      </trkpt>
      <trkpt lat="44.15901" lon="3.21367">
        <ele>754</ele>
        <time>2009-07-08T14:10:20Z</time>
      </trkpt>
      <trkpt lat="44.15897" lon="3.21363">
        <ele>754</ele>
        <time>2009-07-08T14:10:22Z</time>
      </trkpt>
      <trkpt lat="44.15881" lon="3.21362">
        <ele>751</ele>
        <time>2009-07-08T14:10:31Z</time>
      </trkpt>
      <trkpt lat="44.15879" lon="3.21364">
        <ele>751</ele>
        <time>2009-07-08T14:10:33Z</time>
      </trkpt>
      <trkpt lat="44.15876" lon="3.2137">
        <ele>751</ele>
        <time>2009-07-08T14:10:36Z</time>
      </trkpt>
      <trkpt lat="44.15864" lon="3.21373">
        <ele>747</ele>
        <time>2009-07-08T14:10:42Z</time>
      </trkpt>
      <trkpt lat="44.15858" lon="3.21364">
        <ele>747</ele>
        <time>2009-07-08T14:10:46Z</time>
      </trkpt>
      <trkpt lat="44.15856" lon="3.21354">
        <ele>747</ele>
        <time>2009-07-08T14:10:49Z</time>
      </trkpt>
      <trkpt lat="44.15848" lon="3.21327">
        <ele>743</ele>
        <time>2009-07-08T14:10:57Z</time>
      </trkpt>
      <trkpt lat="44.15847" lon="3.21321">
        <ele>743</ele>
        <time>2009-07-08T14:10:59Z</time>
      </trkpt>
      <trkpt lat="44.15843" lon="3.2132">
        <ele>742</ele>
        <time>2009-07-08T14:11:10Z</time>
      </trkpt>
      <trkpt lat="44.15837" lon="3.21323">
        <ele>741</ele>
        <time>2009-07-08T14:11:13Z</time>
      </trkpt>
      <trkpt lat="44.1583" lon="3.21305">
        <ele>740</ele>
        <time>2009-07-08T14:11:21Z</time>
      </trkpt>
      <trkpt lat="44.15828" lon="3.21302">
        <ele>738</ele>
        <time>2009-07-08T14:11:31Z</time>
      </trkpt>
      <trkpt lat="44.15825" lon="3.21301">
        <ele>738</ele>
        <time>2009-07-08T14:11:42Z</time>
      </trkpt>
      <trkpt lat="44.1582" lon="3.21303">
        <ele>738</ele>
        <time>2009-07-08T14:11:53Z</time>
      </trkpt>
      <trkpt lat="44.1582" lon="3.21303">
        <ele>737</ele>
        <time>2009-07-08T14:11:56Z</time>
      </trkpt>
      <trkpt lat="44.15812" lon="3.21337">
        <ele>736</ele>
        <time>2009-07-08T14:12:08Z</time>
      </trkpt>
      <trkpt lat="44.15801" lon="3.21401">
        <ele>732</ele>
        <time>2009-07-08T14:12:18Z</time>
      </trkpt>
      <trkpt lat="44.15793" lon="3.21445">
        <ele>731</ele>
        <time>2009-07-08T14:12:24Z</time>
      </trkpt>
      <trkpt lat="44.15788" lon="3.2146">
        <ele>730</ele>
        <time>2009-07-08T14:12:26Z</time>
      </trkpt>
      <trkpt lat="44.15776" lon="3.21479">
        <ele>728</ele>
        <time>2009-07-08T14:12:29Z</time>
      </trkpt>
      <trkpt lat="44.15761" lon="3.21496">
        <ele>727</ele>
        <time>2009-07-08T14:12:32Z</time>
      </trkpt>
      <trkpt lat="44.15741" lon="3.21527">
        <ele>726</ele>
        <time>2009-07-08T14:12:36Z</time>
      </trkpt>
      <trkpt lat="44.15731" lon="3.21556">
        <ele>724</ele>
        <time>2009-07-08T14:12:39Z</time>
      </trkpt>
      <trkpt lat="44.15717" lon="3.21609">
        <ele>722</ele>
        <time>2009-07-08T14:12:44Z</time>
      </trkpt>
      <trkpt lat="44.15723" lon="3.217">
        <ele>720</ele>
        <time>2009-07-08T14:12:52Z</time>
      </trkpt>
      <trkpt lat="44.15726" lon="3.21709">
        <ele>720</ele>
        <time>2009-07-08T14:12:53Z</time>
      </trkpt>
      <trkpt lat="44.15709" lon="3.21742">
        <ele>717</ele>
        <time>2009-07-08T14:12:58Z</time>
      </trkpt>
      <trkpt lat="44.15702" lon="3.21743">
        <ele>717</ele>
        <time>2009-07-08T14:12:59Z</time>
      </trkpt>
      <trkpt lat="44.15671" lon="3.21746">
        <ele>713</ele>
        <time>2009-07-08T14:13:03Z</time>
      </trkpt>
      <trkpt lat="44.15644" lon="3.2176">
        <ele>713</ele>
        <time>2009-07-08T14:13:07Z</time>
      </trkpt>
      <trkpt lat="44.15636" lon="3.2177">
        <ele>712</ele>
        <time>2009-07-08T14:13:14Z</time>
      </trkpt>
      <trkpt lat="44.15637" lon="3.21771">
        <ele>713</ele>
        <time>2009-07-08T14:13:15Z</time>
      </trkpt>
      <trkpt lat="44.15646" lon="3.21769">
        <ele>711</ele>
        <time>2009-07-08T14:13:19Z</time>
      </trkpt>
      <trkpt lat="44.15668" lon="3.21765">
        <ele>709</ele>
        <time>2009-07-08T14:13:31Z</time>
      </trkpt>
      <trkpt lat="44.15676" lon="3.21761">
        <ele>707</ele>
        <time>2009-07-08T14:14:11Z</time>
      </trkpt>
      <trkpt lat="44.15676" lon="3.21761">
        <ele>709</ele>
        <time>2009-07-08T14:14:13Z</time>
      </trkpt>
      <trkpt lat="44.15673" lon="3.21765">
        <ele>709</ele>
        <time>2009-07-08T14:14:24Z</time>
      </trkpt>
      <trkpt lat="44.15691" lon="3.21765">
        <ele>706</ele>
        <time>2009-07-08T14:14:30Z</time>
      </trkpt>
      <trkpt lat="44.1571" lon="3.21795">
        <ele>705</ele>
        <time>2009-07-08T14:14:38Z</time>
      </trkpt>
      <trkpt lat="44.15707" lon="3.21799">
        <ele>705</ele>
        <time>2009-07-08T14:14:39Z</time>
      </trkpt>
      <trkpt lat="44.15694" lon="3.21847">
        <ele>707</ele>
        <time>2009-07-08T14:14:51Z</time>
      </trkpt>
      <trkpt lat="44.15724" lon="3.21902">
        <ele>708</ele>
        <time>2009-07-08T14:15:08Z</time>
      </trkpt>
      <trkpt lat="44.15754" lon="3.21931">
        <ele>711</ele>
        <time>2009-07-08T14:15:21Z</time>
      </trkpt>
      <trkpt lat="44.15759" lon="3.21954">
        <ele>714</ele>
        <time>2009-07-08T14:15:30Z</time>
      </trkpt>
      <trkpt lat="44.15759" lon="3.21959">
        <ele>714</ele>
        <time>2009-07-08T14:15:32Z</time>
      </trkpt>
      <trkpt lat="44.15752" lon="3.2196">
        <ele>715</ele>
        <time>2009-07-08T14:15:37Z</time>
      </trkpt>
      <trkpt lat="44.15746" lon="3.21948">
        <ele>717</ele>
        <time>2009-07-08T14:15:43Z</time>
      </trkpt>
      <trkpt lat="44.15718" lon="3.21923">
        <ele>720</ele>
        <time>2009-07-08T14:16:00Z</time>
      </trkpt>
      <trkpt lat="44.15685" lon="3.21903">
        <ele>723</ele>
        <time>2009-07-08T14:16:16Z</time>
      </trkpt>
      <trkpt lat="44.15673" lon="3.2189">
        <ele>725</ele>
        <time>2009-07-08T14:16:22Z</time>
      </trkpt>
      <trkpt lat="44.15648" lon="3.21877">
        <ele>728</ele>
        <time>2009-07-08T14:16:36Z</time>
      </trkpt>
      <trkpt lat="44.15629" lon="3.21883">
        <ele>731</ele>
        <time>2009-07-08T14:16:45Z</time>
      </trkpt>
      <trkpt lat="44.15587" lon="3.21895">
        <ele>734</ele>
        <time>2009-07-08T14:17:05Z</time>
      </trkpt>
      <trkpt lat="44.15543" lon="3.21903">
        <ele>736</ele>
        <time>2009-07-08T14:17:24Z</time>
      </trkpt>
      <trkpt lat="44.15495" lon="3.21898">
        <ele>739</ele>
        <time>2009-07-08T14:17:42Z</time>
      </trkpt>
      <trkpt lat="44.15457" lon="3.21902">
        <ele>742</ele>
        <time>2009-07-08T14:17:56Z</time>
      </trkpt>
      <trkpt lat="44.15447" lon="3.21908">
        <ele>744</ele>
        <time>2009-07-08T14:18:01Z</time>
      </trkpt>
      <trkpt lat="44.15427" lon="3.21921">
        <ele>747</ele>
        <time>2009-07-08T14:18:12Z</time>
      </trkpt>
      <trkpt lat="44.15423" lon="3.21923">
        <ele>748</ele>
        <time>2009-07-08T14:18:14Z</time>
      </trkpt>
      <trkpt lat="44.15407" lon="3.21932">
        <ele>752</ele>
        <time>2009-07-08T14:18:23Z</time>
      </trkpt>
      <trkpt lat="44.15406" lon="3.21933">
        <ele>752</ele>
        <time>2009-07-08T14:18:24Z</time>
      </trkpt>
      <trkpt lat="44.1538" lon="3.2197">
        <ele>754</ele>
        <time>2009-07-08T14:18:42Z</time>
      </trkpt>
      <trkpt lat="44.15353" lon="3.22002">
        <ele>751</ele>
        <time>2009-07-08T14:18:55Z</time>
      </trkpt>
      <trkpt lat="44.15341" lon="3.22013">
        <ele>751</ele>
        <time>2009-07-08T14:18:58Z</time>
      </trkpt>
      <trkpt lat="44.15321" lon="3.22068">
        <ele>752</ele>
        <time>2009-07-08T14:19:10Z</time>
      </trkpt>
      <trkpt lat="44.1532" lon="3.22104">
        <ele>755</ele>
        <time>2009-07-08T14:19:20Z</time>
      </trkpt>
      <trkpt lat="44.15308" lon="3.22158">
        <ele>757</ele>
        <time>2009-07-08T14:19:35Z</time>
      </trkpt>
      <trkpt lat="44.15305" lon="3.22206">
        <ele>759</ele>
        <time>2009-07-08T14:19:48Z</time>
      </trkpt>
      <trkpt lat="44.1532" lon="3.22231">
        <ele>762</ele>
        <time>2009-07-08T14:19:57Z</time>
      </trkpt>
      <trkpt lat="44.15336" lon="3.22241">
        <ele>763</ele>
        <time>2009-07-08T14:20:04Z</time>
      </trkpt>
      <trkpt lat="44.15348" lon="3.22249">
        <ele>765</ele>
        <time>2009-07-08T14:20:09Z</time>
      </trkpt>
      <trkpt lat="44.15393" lon="3.22279">
        <ele>769</ele>
        <time>2009-07-08T14:20:27Z</time>
      </trkpt>
      <trkpt lat="44.15395" lon="3.22281">
        <ele>769</ele>
        <time>2009-07-08T14:20:28Z</time>
      </trkpt>
      <trkpt lat="44.15403" lon="3.22291">
        <ele>769</ele>
        <time>2009-07-08T14:20:37Z</time>
      </trkpt>
      <trkpt lat="44.15413" lon="3.22306">
        <ele>768</ele>
        <time>2009-07-08T14:20:48Z</time>
      </trkpt>
      <trkpt lat="44.15412" lon="3.22305">
        <ele>769</ele>
        <time>2009-07-08T14:21:27Z</time>
      </trkpt>
      <trkpt lat="44.15411" lon="3.22306">
        <ele>769</ele>
        <time>2009-07-08T14:21:49Z</time>
      </trkpt>
      <trkpt lat="44.15411" lon="3.22306">
        <ele>768</ele>
        <time>2009-07-08T14:22:03Z</time>
      </trkpt>
      <trkpt lat="44.15441" lon="3.22338">
        <ele>766</ele>
        <time>2009-07-08T14:22:14Z</time>
      </trkpt>
      <trkpt lat="44.15478" lon="3.22359">
        <ele>769</ele>
        <time>2009-07-08T14:22:27Z</time>
      </trkpt>
      <trkpt lat="44.15494" lon="3.22367">
        <ele>773</ele>
        <time>2009-07-08T14:22:35Z</time>
      </trkpt>
      <trkpt lat="44.15508" lon="3.22377">
        <ele>775</ele>
        <time>2009-07-08T14:22:43Z</time>
      </trkpt>
      <trkpt lat="44.15513" lon="3.22381">
        <ele>777</ele>
        <time>2009-07-08T14:22:46Z</time>
      </trkpt>
      <trkpt lat="44.15534" lon="3.22408">
        <ele>780</ele>
        <time>2009-07-08T14:22:59Z</time>
      </trkpt>
      <trkpt lat="44.15566" lon="3.22451">
        <ele>783</ele>
        <time>2009-07-08T14:23:19Z</time>
      </trkpt>
      <trkpt lat="44.1558" lon="3.22477">
        <ele>787</ele>
        <time>2009-07-08T14:23:29Z</time>
      </trkpt>
      <trkpt lat="44.15604" lon="3.22525">
        <ele>787</ele>
        <time>2009-07-08T14:23:45Z</time>
      </trkpt>
      <trkpt lat="44.15619" lon="3.22547">
        <ele>790</ele>
        <time>2009-07-08T14:23:55Z</time>
      </trkpt>
      <trkpt lat="44.15644" lon="3.22583">
        <ele>794</ele>
        <time>2009-07-08T14:24:11Z</time>
      </trkpt>
      <trkpt lat="44.15652" lon="3.22589">
        <ele>793</ele>
        <time>2009-07-08T14:24:17Z</time>
      </trkpt>
      <trkpt lat="44.15653" lon="3.226">
        <ele>794</ele>
        <time>2009-07-08T14:24:30Z</time>
      </trkpt>
      <trkpt lat="44.15661" lon="3.22627">
        <ele>791</ele>
        <time>2009-07-08T14:24:47Z</time>
      </trkpt>
      <trkpt lat="44.15669" lon="3.22661">
        <ele>789</ele>
        <time>2009-07-08T14:24:52Z</time>
      </trkpt>
      <trkpt lat="44.15659" lon="3.22701">
        <ele>787</ele>
        <time>2009-07-08T14:24:57Z</time>
      </trkpt>
      <trkpt lat="44.15644" lon="3.22722">
        <ele>784</ele>
        <time>2009-07-08T14:25:00Z</time>
      </trkpt>
      <trkpt lat="44.15631" lon="3.22758">
        <ele>781</ele>
        <time>2009-07-08T14:25:04Z</time>
      </trkpt>
      <trkpt lat="44.15622" lon="3.22791">
        <ele>778</ele>
        <time>2009-07-08T14:25:07Z</time>
      </trkpt>
      <trkpt lat="44.15615" lon="3.22814">
        <ele>776</ele>
        <time>2009-07-08T14:25:09Z</time>
      </trkpt>
      <trkpt lat="44.15601" lon="3.22847">
        <ele>774</ele>
        <time>2009-07-08T14:25:12Z</time>
      </trkpt>
      <trkpt lat="44.15592" lon="3.22873">
        <ele>772</ele>
        <time>2009-07-08T14:25:15Z</time>
      </trkpt>
      <trkpt lat="44.15589" lon="3.22893">
        <ele>768</ele>
        <time>2009-07-08T14:25:17Z</time>
      </trkpt>
      <trkpt lat="44.15591" lon="3.22929">
        <ele>765</ele>
        <time>2009-07-08T14:25:21Z</time>
      </trkpt>
      <trkpt lat="44.156" lon="3.22967">
        <ele>764</ele>
        <time>2009-07-08T14:25:25Z</time>
      </trkpt>
      <trkpt lat="44.15573" lon="3.23025">
        <ele>764</ele>
        <time>2009-07-08T14:25:34Z</time>
      </trkpt>
      <trkpt lat="44.15572" lon="3.23031">
        <ele>766</ele>
        <time>2009-07-08T14:25:35Z</time>
      </trkpt>
      <trkpt lat="44.15559" lon="3.23059">
        <ele>767</ele>
        <time>2009-07-08T14:25:41Z</time>
      </trkpt>
      <trkpt lat="44.15534" lon="3.23067">
        <ele>768</ele>
        <time>2009-07-08T14:25:53Z</time>
      </trkpt>
      <trkpt lat="44.1552" lon="3.23065">
        <ele>769</ele>
        <time>2009-07-08T14:26:00Z</time>
      </trkpt>
      <trkpt lat="44.15516" lon="3.23065">
        <ele>770</ele>
        <time>2009-07-08T14:26:02Z</time>
      </trkpt>
      <trkpt lat="44.1547" lon="3.23063">
        <ele>772</ele>
        <time>2009-07-08T14:26:17Z</time>
      </trkpt>
      <trkpt lat="44.15436" lon="3.23071">
        <ele>771</ele>
        <time>2009-07-08T14:26:26Z</time>
      </trkpt>
      <trkpt lat="44.15418" lon="3.23071">
        <ele>770</ele>
        <time>2009-07-08T14:26:30Z</time>
      </trkpt>
      <trkpt lat="44.15407" lon="3.23072">
        <ele>771</ele>
        <time>2009-07-08T14:26:32Z</time>
      </trkpt>
      <trkpt lat="44.15391" lon="3.23076">
        <ele>770</ele>
        <time>2009-07-08T14:26:35Z</time>
      </trkpt>
      <trkpt lat="44.15369" lon="3.23074">
        <ele>769</ele>
        <time>2009-07-08T14:26:39Z</time>
      </trkpt>
      <trkpt lat="44.15319" lon="3.2307">
        <ele>767</ele>
        <time>2009-07-08T14:26:48Z</time>
      </trkpt>
      <trkpt lat="44.15302" lon="3.23076">
        <ele>765</ele>
        <time>2009-07-08T14:26:51Z</time>
      </trkpt>
      <trkpt lat="44.15251" lon="3.23116">
        <ele>762</ele>
        <time>2009-07-08T14:26:59Z</time>
      </trkpt>
      <trkpt lat="44.15229" lon="3.23134">
        <ele>760</ele>
        <time>2009-07-08T14:27:02Z</time>
      </trkpt>
      <trkpt lat="44.15173" lon="3.23181">
        <ele>758</ele>
        <time>2009-07-08T14:27:10Z</time>
      </trkpt>
      <trkpt lat="44.15121" lon="3.23269">
        <ele>756</ele>
        <time>2009-07-08T14:27:22Z</time>
      </trkpt>
      <trkpt lat="44.15097" lon="3.23314">
        <ele>754</ele>
        <time>2009-07-08T14:27:28Z</time>
      </trkpt>
      <trkpt lat="44.15084" lon="3.23356">
        <ele>753</ele>
        <time>2009-07-08T14:27:33Z</time>
      </trkpt>
      <trkpt lat="44.15079" lon="3.2337">
        <ele>753</ele>
        <time>2009-07-08T14:27:35Z</time>
      </trkpt>
      <trkpt lat="44.15078" lon="3.23378">
        <ele>753</ele>
        <time>2009-07-08T14:27:49Z</time>
      </trkpt>
      <trkpt lat="44.15079" lon="3.23381">
        <ele>755</ele>
        <time>2009-07-08T14:29:05Z</time>
      </trkpt>
      <trkpt lat="44.15079" lon="3.23381">
        <ele>754</ele>
        <time>2009-07-08T14:29:07Z</time>
      </trkpt>
      <trkpt lat="44.15077" lon="3.23382">
        <ele>754</ele>
        <time>2009-07-08T14:29:48Z</time>
      </trkpt>
      <trkpt lat="44.15077" lon="3.23411">
        <ele>754</ele>
        <time>2009-07-08T14:29:58Z</time>
      </trkpt>
      <trkpt lat="44.15088" lon="3.23457">
        <ele>756</ele>
        <time>2009-07-08T14:30:10Z</time>
      </trkpt>
      <trkpt lat="44.15082" lon="3.23513">
        <ele>758</ele>
        <time>2009-07-08T14:30:23Z</time>
      </trkpt>
      <trkpt lat="44.1508" lon="3.23526">
        <ele>761</ele>
        <time>2009-07-08T14:30:26Z</time>
      </trkpt>
      <trkpt lat="44.1508" lon="3.23591">
        <ele>762</ele>
        <time>2009-07-08T14:30:40Z</time>
      </trkpt>
      <trkpt lat="44.15061" lon="3.23657">
        <ele>764</ele>
        <time>2009-07-08T14:30:56Z</time>
      </trkpt>
      <trkpt lat="44.15048" lon="3.23707">
        <ele>767</ele>
        <time>2009-07-08T14:31:09Z</time>
      </trkpt>
      <trkpt lat="44.15045" lon="3.23722">
        <ele>769</ele>
        <time>2009-07-08T14:31:14Z</time>
      </trkpt>
      <trkpt lat="44.15045" lon="3.23759">
        <ele>772</ele>
        <time>2009-07-08T14:31:26Z</time>
      </trkpt>
      <trkpt lat="44.15055" lon="3.23784">
        <ele>775</ele>
        <time>2009-07-08T14:31:36Z</time>
      </trkpt>
      <trkpt lat="44.15044" lon="3.23814">
        <ele>777</ele>
        <time>2009-07-08T14:31:47Z</time>
      </trkpt>
      <trkpt lat="44.15012" lon="3.23831">
        <ele>780</ele>
        <time>2009-07-08T14:32:01Z</time>
      </trkpt>
      <trkpt lat="44.14971" lon="3.2384">
        <ele>783</ele>
        <time>2009-07-08T14:32:18Z</time>
      </trkpt>
      <trkpt lat="44.14953" lon="3.23854">
        <ele>785</ele>
        <time>2009-07-08T14:32:27Z</time>
      </trkpt>
      <trkpt lat="44.14934" lon="3.23884">
        <ele>788</ele>
        <time>2009-07-08T14:32:39Z</time>
      </trkpt>
      <trkpt lat="44.14931" lon="3.23889">
        <ele>789</ele>
        <time>2009-07-08T14:32:41Z</time>
      </trkpt>
      <trkpt lat="44.14913" lon="3.23922">
        <ele>789</ele>
        <time>2009-07-08T14:32:54Z</time>
      </trkpt>
      <trkpt lat="44.14861" lon="3.2397">
        <ele>787</ele>
        <time>2009-07-08T14:33:10Z</time>
      </trkpt>
      <trkpt lat="44.14818" lon="3.24013">
        <ele>788</ele>
        <time>2009-07-08T14:33:27Z</time>
      </trkpt>
      <trkpt lat="44.14817" lon="3.2402">
        <ele>789</ele>
        <time>2009-07-08T14:33:29Z</time>
      </trkpt>
      <trkpt lat="44.14831" lon="3.24034">
        <ele>791</ele>
        <time>2009-07-08T14:33:36Z</time>
      </trkpt>
      <trkpt lat="44.14878" lon="3.2404">
        <ele>794</ele>
        <time>2009-07-08T14:33:52Z</time>
      </trkpt>
      <trkpt lat="44.14924" lon="3.24043">
        <ele>796</ele>
        <time>2009-07-08T14:34:07Z</time>
      </trkpt>
      <trkpt lat="44.1493" lon="3.24051">
        <ele>796</ele>
        <time>2009-07-08T14:34:10Z</time>
      </trkpt>
      <trkpt lat="44.14926" lon="3.24067">
        <ele>798</ele>
        <time>2009-07-08T14:34:15Z</time>
      </trkpt>
      <trkpt lat="44.14903" lon="3.24095">
        <ele>801</ele>
        <time>2009-07-08T14:34:26Z</time>
      </trkpt>
      <trkpt lat="44.14888" lon="3.24103">
        <ele>802</ele>
        <time>2009-07-08T14:34:32Z</time>
      </trkpt>
      <trkpt lat="44.14868" lon="3.2411">
        <ele>804</ele>
        <time>2009-07-08T14:34:42Z</time>
      </trkpt>
      <trkpt lat="44.14867" lon="3.24115">
        <ele>804</ele>
        <time>2009-07-08T14:34:44Z</time>
      </trkpt>
      <trkpt lat="44.14865" lon="3.24147">
        <ele>808</ele>
        <time>2009-07-08T14:34:55Z</time>
      </trkpt>
      <trkpt lat="44.14856" lon="3.24174">
        <ele>809</ele>
        <time>2009-07-08T14:35:04Z</time>
      </trkpt>
      <trkpt lat="44.14849" lon="3.2423">
        <ele>813</ele>
        <time>2009-07-08T14:35:22Z</time>
      </trkpt>
      <trkpt lat="44.14846" lon="3.24261">
        <ele>816</ele>
        <time>2009-07-08T14:35:32Z</time>
      </trkpt>
      <trkpt lat="44.14839" lon="3.24314">
        <ele>819</ele>
        <time>2009-07-08T14:35:49Z</time>
      </trkpt>
      <trkpt lat="44.14839" lon="3.24324">
        <ele>822</ele>
        <time>2009-07-08T14:35:52Z</time>
      </trkpt>
      <trkpt lat="44.14834" lon="3.2436">
        <ele>825</ele>
        <time>2009-07-08T14:36:03Z</time>
      </trkpt>
      <trkpt lat="44.14843" lon="3.24406">
        <ele>828</ele>
        <time>2009-07-08T14:36:17Z</time>
      </trkpt>
      <trkpt lat="44.14847" lon="3.24449">
        <ele>829</ele>
        <time>2009-07-08T14:36:30Z</time>
      </trkpt>
      <trkpt lat="44.1484" lon="3.24453">
        <ele>830</ele>
        <time>2009-07-08T14:36:42Z</time>
      </trkpt>
      <trkpt lat="44.1484" lon="3.24452">
        <ele>830</ele>
        <time>2009-07-08T14:37:01Z</time>
      </trkpt>
      <trkpt lat="44.1484" lon="3.2445">
        <ele>829</ele>
        <time>2009-07-08T14:37:52Z</time>
      </trkpt>
      <trkpt lat="44.14839" lon="3.2445">
        <ele>830</ele>
        <time>2009-07-08T14:38:39Z</time>
      </trkpt>
      <trkpt lat="44.14839" lon="3.2445">
        <ele>830</ele>
        <time>2009-07-08T14:38:56Z</time>
      </trkpt>
      <trkpt lat="44.14836" lon="3.24444">
        <ele>829</ele>
        <time>2009-07-08T14:39:00Z</time>
      </trkpt>
      <trkpt lat="44.14808" lon="3.24398">
        <ele>829</ele>
        <time>2009-07-08T14:39:14Z</time>
      </trkpt>
      <trkpt lat="44.14747" lon="3.24357">
        <ele>830</ele>
        <time>2009-07-08T14:39:33Z</time>
      </trkpt>
      <trkpt lat="44.14688" lon="3.24341">
        <ele>827</ele>
        <time>2009-07-08T14:39:46Z</time>
      </trkpt>
      <trkpt lat="44.14683" lon="3.2434">
        <ele>826</ele>
        <time>2009-07-08T14:39:47Z</time>
      </trkpt>
      <trkpt lat="44.14612" lon="3.24319">
        <ele>829</ele>
        <time>2009-07-08T14:40:02Z</time>
      </trkpt>
      <trkpt lat="44.1458" lon="3.24303">
        <ele>833</ele>
        <time>2009-07-08T14:40:12Z</time>
      </trkpt>
      <trkpt lat="44.14556" lon="3.24281">
        <ele>836</ele>
        <time>2009-07-08T14:40:22Z</time>
      </trkpt>
      <trkpt lat="44.14533" lon="3.24263">
        <ele>839</ele>
        <time>2009-07-08T14:40:31Z</time>
      </trkpt>
      <trkpt lat="44.14486" lon="3.24228">
        <ele>841</ele>
        <time>2009-07-08T14:40:50Z</time>
      </trkpt>
      <trkpt lat="44.14471" lon="3.24224">
        <ele>840</ele>
        <time>2009-07-08T14:40:55Z</time>
      </trkpt>
      <trkpt lat="44.14436" lon="3.24231">
        <ele>838</ele>
        <time>2009-07-08T14:41:03Z</time>
      </trkpt>
      <trkpt lat="44.14431" lon="3.24233">
        <ele>838</ele>
        <time>2009-07-08T14:41:04Z</time>
      </trkpt>
      <trkpt lat="44.14399" lon="3.24262">
        <ele>834</ele>
        <time>2009-07-08T14:41:12Z</time>
      </trkpt>
      <trkpt lat="44.14367" lon="3.24297">
        <ele>831</ele>
        <time>2009-07-08T14:41:18Z</time>
      </trkpt>
      <trkpt lat="44.14331" lon="3.24335">
        <ele>826</ele>
        <time>2009-07-08T14:41:23Z</time>
      </trkpt>
      <trkpt lat="44.14314" lon="3.24353">
        <ele>822</ele>
        <time>2009-07-08T14:41:25Z</time>
      </trkpt>
      <trkpt lat="44.1427" lon="3.244">
        <ele>819</ele>
        <time>2009-07-08T14:41:30Z</time>
      </trkpt>
      <trkpt lat="44.14233" lon="3.24439">
        <ele>816</ele>
        <time>2009-07-08T14:41:34Z</time>
      </trkpt>
      <trkpt lat="44.14154" lon="3.24525">
        <ele>813</ele>
        <time>2009-07-08T14:41:43Z</time>
      </trkpt>
      <trkpt lat="44.14071" lon="3.24617">
        <ele>813</ele>
        <time>2009-07-08T14:41:55Z</time>
      </trkpt>
      <trkpt lat="44.14048" lon="3.24642">
        <ele>813</ele>
        <time>2009-07-08T14:42:02Z</time>
      </trkpt>
      <trkpt lat="44.14019" lon="3.24668">
        <ele>813</ele>
        <time>2009-07-08T14:42:14Z</time>
      </trkpt>
      <trkpt lat="44.13994" lon="3.24708">
        <ele>811</ele>
        <time>2009-07-08T14:42:26Z</time>
      </trkpt>
      <trkpt lat="44.13969" lon="3.24709">
        <ele>812</ele>
        <time>2009-07-08T14:42:36Z</time>
      </trkpt>
      <trkpt lat="44.1396" lon="3.24701">
        <ele>814</ele>
        <time>2009-07-08T14:42:40Z</time>
      </trkpt>
      <trkpt lat="44.13921" lon="3.24675">
        <ele>814</ele>
        <time>2009-07-08T14:42:53Z</time>
      </trkpt>
      <trkpt lat="44.13911" lon="3.2469">
        <ele>814</ele>
        <time>2009-07-08T14:42:58Z</time>
      </trkpt>
      <trkpt lat="44.13899" lon="3.2475">
        <ele>816</ele>
        <time>2009-07-08T14:43:15Z</time>
      </trkpt>
      <trkpt lat="44.13912" lon="3.24785">
        <ele>816</ele>
        <time>2009-07-08T14:43:28Z</time>
      </trkpt>
      <trkpt lat="44.13915" lon="3.24789">
        <ele>816</ele>
        <time>2009-07-08T14:43:38Z</time>
      </trkpt>
      <trkpt lat="44.13917" lon="3.2479">
        <ele>816</ele>
        <time>2009-07-08T14:43:50Z</time>
      </trkpt>
      <trkpt lat="44.1392" lon="3.24792">
        <ele>817</ele>
        <time>2009-07-08T14:44:09Z</time>
      </trkpt>
      <trkpt lat="44.1392" lon="3.24793">
        <ele>817</ele>
        <time>2009-07-08T14:44:24Z</time>
      </trkpt>
      <trkpt lat="44.1392" lon="3.24793">
        <ele>815</ele>
        <time>2009-07-08T14:44:28Z</time>
      </trkpt>
      <trkpt lat="44.1392" lon="3.24793">
        <ele>818</ele>
        <time>2009-07-08T14:44:29Z</time>
      </trkpt>
      <trkpt lat="44.13921" lon="3.24793">
        <ele>816</ele>
        <time>2009-07-08T14:44:30Z</time>
      </trkpt>
      <trkpt lat="44.13928" lon="3.248">
        <ele>816</ele>
        <time>2009-07-08T14:44:45Z</time>
      </trkpt>
      <trkpt lat="44.13931" lon="3.24804">
        <ele>816</ele>
        <time>2009-07-08T14:45:10Z</time>
      </trkpt>
      <trkpt lat="44.13951" lon="3.24819">
        <ele>815</ele>
        <time>2009-07-08T14:45:23Z</time>
      </trkpt>
      <trkpt lat="44.13955" lon="3.24821">
        <ele>816</ele>
        <time>2009-07-08T14:45:35Z</time>
      </trkpt>
      <trkpt lat="44.13955" lon="3.24822">
        <ele>816</ele>
        <time>2009-07-08T14:45:58Z</time>
      </trkpt>
      <trkpt lat="44.13966" lon="3.24827">
        <ele>815</ele>
        <time>2009-07-08T14:46:11Z</time>
      </trkpt>
      <trkpt lat="44.13969" lon="3.2483">
        <ele>814</ele>
        <time>2009-07-08T14:46:22Z</time>
      </trkpt>
      <trkpt lat="44.13969" lon="3.24831">
        <ele>814</ele>
        <time>2009-07-08T14:47:36Z</time>
      </trkpt>
      <trkpt lat="44.13969" lon="3.24829">
        <ele>817</ele>
        <time>2009-07-08T14:48:40Z</time>
      </trkpt>
      <trkpt lat="44.13981" lon="3.24838">
        <ele>817</ele>
        <time>2009-07-08T14:48:52Z</time>
      </trkpt>
      <trkpt lat="44.14014" lon="3.24876">
        <ele>818</ele>
        <time>2009-07-08T14:49:07Z</time>
      </trkpt>
      <trkpt lat="44.14014" lon="3.24913">
        <ele>817</ele>
        <time>2009-07-08T14:49:15Z</time>
      </trkpt>
      <trkpt lat="44.13979" lon="3.24976">
        <ele>815</ele>
        <time>2009-07-08T14:49:27Z</time>
      </trkpt>
      <trkpt lat="44.13971" lon="3.24986">
        <ele>813</ele>
        <time>2009-07-08T14:49:29Z</time>
      </trkpt>
      <trkpt lat="44.13955" lon="3.25001">
        <ele>810</ele>
        <time>2009-07-08T14:49:32Z</time>
      </trkpt>
      <trkpt lat="44.1395" lon="3.25006">
        <ele>810</ele>
        <time>2009-07-08T14:49:33Z</time>
      </trkpt>
      <trkpt lat="44.1391" lon="3.25048">
        <ele>808</ele>
        <time>2009-07-08T14:49:40Z</time>
      </trkpt>
      <trkpt lat="44.13898" lon="3.25062">
        <ele>806</ele>
        <time>2009-07-08T14:49:42Z</time>
      </trkpt>
      <trkpt lat="44.13877" lon="3.25094">
        <ele>804</ele>
        <time>2009-07-08T14:49:46Z</time>
      </trkpt>
      <trkpt lat="44.13874" lon="3.2513">
        <ele>802</ele>
        <time>2009-07-08T14:49:52Z</time>
      </trkpt>
      <trkpt lat="44.13878" lon="3.25148">
        <ele>800</ele>
        <time>2009-07-08T14:49:55Z</time>
      </trkpt>
      <trkpt lat="44.13878" lon="3.25181">
        <ele>798</ele>
        <time>2009-07-08T14:49:59Z</time>
      </trkpt>
      <trkpt lat="44.13871" lon="3.25224">
        <ele>798</ele>
        <time>2009-07-08T14:50:08Z</time>
      </trkpt>
      <trkpt lat="44.13865" lon="3.2528">
        <ele>798</ele>
        <time>2009-07-08T14:50:22Z</time>
      </trkpt>
      <trkpt lat="44.13862" lon="3.25295">
        <ele>798</ele>
        <time>2009-07-08T14:50:25Z</time>
      </trkpt>
      <trkpt lat="44.13858" lon="3.25306">
        <ele>797</ele>
        <time>2009-07-08T14:50:27Z</time>
      </trkpt>
      <trkpt lat="44.13853" lon="3.25324">
        <ele>797</ele>
        <time>2009-07-08T14:50:31Z</time>
      </trkpt>
      <trkpt lat="44.13846" lon="3.25349">
        <ele>797</ele>
        <time>2009-07-08T14:50:42Z</time>
      </trkpt>
      <trkpt lat="44.13847" lon="3.25348">
        <ele>797</ele>
        <time>2009-07-08T14:51:07Z</time>
      </trkpt>
      <trkpt lat="44.13841" lon="3.25375">
        <ele>796</ele>
        <time>2009-07-08T14:51:16Z</time>
      </trkpt>
      <trkpt lat="44.1383" lon="3.25437">
        <ele>795</ele>
        <time>2009-07-08T14:51:29Z</time>
      </trkpt>
      <trkpt lat="44.1383" lon="3.25448">
        <ele>794</ele>
        <time>2009-07-08T14:51:31Z</time>
      </trkpt>
      <trkpt lat="44.13827" lon="3.25468">
        <ele>793</ele>
        <time>2009-07-08T14:51:34Z</time>
      </trkpt>
      <trkpt lat="44.13818" lon="3.25511">
        <ele>792</ele>
        <time>2009-07-08T14:51:40Z</time>
      </trkpt>
      <trkpt lat="44.13804" lon="3.25549">
        <ele>790</ele>
        <time>2009-07-08T14:51:45Z</time>
      </trkpt>
      <trkpt lat="44.138" lon="3.25592">
        <ele>786</ele>
        <time>2009-07-08T14:51:50Z</time>
      </trkpt>
      <trkpt lat="44.13799" lon="3.25601">
        <ele>786</ele>
        <time>2009-07-08T14:51:51Z</time>
      </trkpt>
      <trkpt lat="44.13793" lon="3.25635">
        <ele>786</ele>
        <time>2009-07-08T14:51:56Z</time>
      </trkpt>
      <trkpt lat="44.1377" lon="3.25736">
        <ele>788</ele>
        <time>2009-07-08T14:52:13Z</time>
      </trkpt>
      <trkpt lat="44.13738" lon="3.25814">
        <ele>789</ele>
        <time>2009-07-08T14:52:28Z</time>
      </trkpt>
      <trkpt lat="44.137" lon="3.25874">
        <ele>789</ele>
        <time>2009-07-08T14:52:43Z</time>
      </trkpt>
      <trkpt lat="44.13689" lon="3.25861">
        <ele>790</ele>
        <time>2009-07-08T14:52:52Z</time>
      </trkpt>
      <trkpt lat="44.13684" lon="3.25882">
        <ele>789</ele>
        <time>2009-07-08T14:53:00Z</time>
      </trkpt>
      <trkpt lat="44.1368" lon="3.25875">
        <ele>789</ele>
        <time>2009-07-08T14:53:02Z</time>
      </trkpt>
      <trkpt lat="44.13662" lon="3.25814">
        <ele>790</ele>
        <time>2009-07-08T14:53:16Z</time>
      </trkpt>
      <trkpt lat="44.13632" lon="3.25701">
        <ele>793</ele>
        <time>2009-07-08T14:53:41Z</time>
      </trkpt>
      <trkpt lat="44.13628" lon="3.25688">
        <ele>792</ele>
        <time>2009-07-08T14:53:45Z</time>
      </trkpt>
      <trkpt lat="44.13621" lon="3.25686">
        <ele>794</ele>
        <time>2009-07-08T14:53:48Z</time>
      </trkpt>
      <trkpt lat="44.13617" lon="3.2569">
        <ele>795</ele>
        <time>2009-07-08T14:53:50Z</time>
      </trkpt>
      <trkpt lat="44.1361" lon="3.25706">
        <ele>796</ele>
        <time>2009-07-08T14:53:55Z</time>
      </trkpt>
      <trkpt lat="44.13585" lon="3.25719">
        <ele>800</ele>
        <time>2009-07-08T14:54:07Z</time>
      </trkpt>
      <trkpt lat="44.13578" lon="3.2572">
        <ele>800</ele>
        <time>2009-07-08T14:54:19Z</time>
      </trkpt>
      <trkpt lat="44.1358" lon="3.25722">
        <ele>799</ele>
        <time>2009-07-08T14:54:24Z</time>
      </trkpt>
      <trkpt lat="44.13601" lon="3.25719">
        <ele>796</ele>
        <time>2009-07-08T14:54:32Z</time>
      </trkpt>
      <trkpt lat="44.13605" lon="3.25717">
        <ele>795</ele>
        <time>2009-07-08T14:54:33Z</time>
      </trkpt>
      <trkpt lat="44.13617" lon="3.25693">
        <ele>794</ele>
        <time>2009-07-08T14:54:38Z</time>
      </trkpt>
      <trkpt lat="44.13625" lon="3.25696">
        <ele>796</ele>
        <time>2009-07-08T14:54:47Z</time>
      </trkpt>
      <trkpt lat="44.13621" lon="3.25704">
        <ele>796</ele>
        <time>2009-07-08T14:54:50Z</time>
      </trkpt>
      <trkpt lat="44.13608" lon="3.25731">
        <ele>798</ele>
        <time>2009-07-08T14:55:02Z</time>
      </trkpt>
      <trkpt lat="44.13588" lon="3.25769">
        <ele>799</ele>
        <time>2009-07-08T14:55:17Z</time>
      </trkpt>
      <trkpt lat="44.13563" lon="3.25817">
        <ele>797</ele>
        <time>2009-07-08T14:55:31Z</time>
      </trkpt>
      <trkpt lat="44.13539" lon="3.25866">
        <ele>801</ele>
        <time>2009-07-08T14:55:45Z</time>
      </trkpt>
      <trkpt lat="44.1349" lon="3.25937">
        <ele>803</ele>
        <time>2009-07-08T14:56:06Z</time>
      </trkpt>
      <trkpt lat="44.13458" lon="3.2597">
        <ele>801</ele>
        <time>2009-07-08T14:56:16Z</time>
      </trkpt>
      <trkpt lat="44.13438" lon="3.25982">
        <ele>798</ele>
        <time>2009-07-08T14:56:20Z</time>
      </trkpt>
      <trkpt lat="44.13416" lon="3.25991">
        <ele>797</ele>
        <time>2009-07-08T14:56:25Z</time>
      </trkpt>
      <trkpt lat="44.13413" lon="3.25997">
        <ele>797</ele>
        <time>2009-07-08T14:56:28Z</time>
      </trkpt>
      <trkpt lat="44.13386" lon="3.26037">
        <ele>797</ele>
        <time>2009-07-08T14:56:40Z</time>
      </trkpt>
      <trkpt lat="44.13359" lon="3.26088">
        <ele>796</ele>
        <time>2009-07-08T14:56:53Z</time>
      </trkpt>
      <trkpt lat="44.13328" lon="3.26142">
        <ele>797</ele>
        <time>2009-07-08T14:57:06Z</time>
      </trkpt>
      <trkpt lat="44.13282" lon="3.26232">
        <ele>796</ele>
        <time>2009-07-08T14:57:25Z</time>
      </trkpt>
      <trkpt lat="44.13254" lon="3.26281">
        <ele>794</ele>
        <time>2009-07-08T14:57:36Z</time>
      </trkpt>
      <trkpt lat="44.13247" lon="3.26291">
        <ele>793</ele>
        <time>2009-07-08T14:57:38Z</time>
      </trkpt>
      <trkpt lat="44.13244" lon="3.26296">
        <ele>792</ele>
        <time>2009-07-08T14:57:39Z</time>
      </trkpt>
      <trkpt lat="44.13224" lon="3.26313">
        <ele>791</ele>
        <time>2009-07-08T14:57:43Z</time>
      </trkpt>
      <trkpt lat="44.13219" lon="3.26317">
        <ele>790</ele>
        <time>2009-07-08T14:57:44Z</time>
      </trkpt>
      <trkpt lat="44.13171" lon="3.26392">
        <ele>791</ele>
        <time>2009-07-08T14:57:59Z</time>
      </trkpt>
      <trkpt lat="44.13117" lon="3.2648">
        <ele>792</ele>
        <time>2009-07-08T14:58:19Z</time>
      </trkpt>
      <trkpt lat="44.13092" lon="3.26525">
        <ele>794</ele>
        <time>2009-07-08T14:58:32Z</time>
      </trkpt>
      <trkpt lat="44.13079" lon="3.26548">
        <ele>795</ele>
        <time>2009-07-08T14:58:39Z</time>
      </trkpt>
      <trkpt lat="44.13057" lon="3.26588">
        <ele>797</ele>
        <time>2009-07-08T14:58:52Z</time>
      </trkpt>
      <trkpt lat="44.13021" lon="3.26643">
        <ele>794</ele>
        <time>2009-07-08T14:59:08Z</time>
      </trkpt>
      <trkpt lat="44.12985" lon="3.26702">
        <ele>792</ele>
        <time>2009-07-08T14:59:21Z</time>
      </trkpt>
      <trkpt lat="44.12963" lon="3.26765">
        <ele>793</ele>
        <time>2009-07-08T14:59:35Z</time>
      </trkpt>
      <trkpt lat="44.12939" lon="3.26851">
        <ele>792</ele>
        <time>2009-07-08T14:59:51Z</time>
      </trkpt>
      <trkpt lat="44.12936" lon="3.26875">
        <ele>791</ele>
        <time>2009-07-08T14:59:55Z</time>
      </trkpt>
      <trkpt lat="44.1293" lon="3.26928">
        <ele>793</ele>
        <time>2009-07-08T15:00:05Z</time>
      </trkpt>
      <trkpt lat="44.12926" lon="3.26991">
        <ele>796</ele>
        <time>2009-07-08T15:00:23Z</time>
      </trkpt>
      <trkpt lat="44.12927" lon="3.27014">
        <ele>799</ele>
        <time>2009-07-08T15:00:32Z</time>
      </trkpt>
      <trkpt lat="44.12929" lon="3.27028">
        <ele>802</ele>
        <time>2009-07-08T15:00:38Z</time>
      </trkpt>
      <trkpt lat="44.12932" lon="3.2705">
        <ele>805</ele>
        <time>2009-07-08T15:00:47Z</time>
      </trkpt>
      <trkpt lat="44.12932" lon="3.27052">
        <ele>805</ele>
        <time>2009-07-08T15:00:48Z</time>
      </trkpt>
      <trkpt lat="44.1293" lon="3.27089">
        <ele>808</ele>
        <time>2009-07-08T15:01:05Z</time>
      </trkpt>
      <trkpt lat="44.12929" lon="3.27105">
        <ele>812</ele>
        <time>2009-07-08T15:01:12Z</time>
      </trkpt>
      <trkpt lat="44.12928" lon="3.27112">
        <ele>813</ele>
        <time>2009-07-08T15:01:15Z</time>
      </trkpt>
      <trkpt lat="44.12917" lon="3.27157">
        <ele>816</ele>
        <time>2009-07-08T15:01:33Z</time>
      </trkpt>
      <trkpt lat="44.12913" lon="3.27173">
        <ele>819</ele>
        <time>2009-07-08T15:01:39Z</time>
      </trkpt>
      <trkpt lat="44.12909" lon="3.27185">
        <ele>821</ele>
        <time>2009-07-08T15:01:44Z</time>
      </trkpt>
      <trkpt lat="44.12902" lon="3.27199">
        <ele>822</ele>
        <time>2009-07-08T15:01:57Z</time>
      </trkpt>
      <trkpt lat="44.12903" lon="3.27203">
        <ele>821</ele>
        <time>2009-07-08T15:02:03Z</time>
      </trkpt>
      <trkpt lat="44.12891" lon="3.27235">
        <ele>821</ele>
        <time>2009-07-08T15:02:17Z</time>
      </trkpt>
      <trkpt lat="44.12872" lon="3.27279">
        <ele>821</ele>
        <time>2009-07-08T15:02:32Z</time>
      </trkpt>
      <trkpt lat="44.12849" lon="3.27344">
        <ele>821</ele>
        <time>2009-07-08T15:02:50Z</time>
      </trkpt>
      <trkpt lat="44.12836" lon="3.27404">
        <ele>824</ele>
        <time>2009-07-08T15:03:05Z</time>
      </trkpt>
      <trkpt lat="44.12839" lon="3.27463">
        <ele>825</ele>
        <time>2009-07-08T15:03:19Z</time>
      </trkpt>
      <trkpt lat="44.12844" lon="3.27487">
        <ele>825</ele>
        <time>2009-07-08T15:03:24Z</time>
      </trkpt>
      <trkpt lat="44.12831" lon="3.27506">
        <ele>824</ele>
        <time>2009-07-08T15:03:31Z</time>
      </trkpt>
      <trkpt lat="44.12817" lon="3.27511">
        <ele>824</ele>
        <time>2009-07-08T15:03:35Z</time>
      </trkpt>
      <trkpt lat="44.128" lon="3.27519">
        <ele>821</ele>
        <time>2009-07-08T15:03:39Z</time>
      </trkpt>
      <trkpt lat="44.12795" lon="3.27522">
        <ele>821</ele>
        <time>2009-07-08T15:03:40Z</time>
      </trkpt>
      <trkpt lat="44.12777" lon="3.27544">
        <ele>819</ele>
        <time>2009-07-08T15:03:44Z</time>
      </trkpt>
      <trkpt lat="44.12753" lon="3.27591">
        <ele>816</ele>
        <time>2009-07-08T15:03:50Z</time>
      </trkpt>
      <trkpt lat="44.12733" lon="3.27615">
        <ele>813</ele>
        <time>2009-07-08T15:03:54Z</time>
      </trkpt>
      <trkpt lat="44.1266" lon="3.27686">
        <ele>814</ele>
        <time>2009-07-08T15:04:05Z</time>
      </trkpt>
      <trkpt lat="44.12645" lon="3.27713">
        <ele>814</ele>
        <time>2009-07-08T15:04:09Z</time>
      </trkpt>
      <trkpt lat="44.12634" lon="3.27727">
        <ele>814</ele>
        <time>2009-07-08T15:04:12Z</time>
      </trkpt>
      <trkpt lat="44.12618" lon="3.27739">
        <ele>814</ele>
        <time>2009-07-08T15:04:16Z</time>
      </trkpt>
      <trkpt lat="44.12553" lon="3.27745">
        <ele>818</ele>
        <time>2009-07-08T15:04:33Z</time>
      </trkpt>
      <trkpt lat="44.1249" lon="3.27755">
        <ele>821</ele>
        <time>2009-07-08T15:04:50Z</time>
      </trkpt>
      <trkpt lat="44.12469" lon="3.27795">
        <ele>824</ele>
        <time>2009-07-08T15:05:02Z</time>
      </trkpt>
      <trkpt lat="44.12461" lon="3.27839">
        <ele>828</ele>
        <time>2009-07-08T15:05:14Z</time>
      </trkpt>
      <trkpt lat="44.12456" lon="3.27867">
        <ele>831</ele>
        <time>2009-07-08T15:05:22Z</time>
      </trkpt>
      <trkpt lat="44.12451" lon="3.27887">
        <ele>833</ele>
        <time>2009-07-08T15:05:28Z</time>
      </trkpt>
      <trkpt lat="44.12447" lon="3.27907">
        <ele>834</ele>
        <time>2009-07-08T15:05:34Z</time>
      </trkpt>
      <trkpt lat="44.12438" lon="3.27956">
        <ele>838</ele>
        <time>2009-07-08T15:05:48Z</time>
      </trkpt>
      <trkpt lat="44.12431" lon="3.27998">
        <ele>841</ele>
        <time>2009-07-08T15:06:00Z</time>
      </trkpt>
      <trkpt lat="44.12427" lon="3.28012">
        <ele>843</ele>
        <time>2009-07-08T15:06:04Z</time>
      </trkpt>
      <trkpt lat="44.12405" lon="3.28047">
        <ele>846</ele>
        <time>2009-07-08T15:06:17Z</time>
      </trkpt>
      <trkpt lat="44.12393" lon="3.28069">
        <ele>849</ele>
        <time>2009-07-08T15:06:25Z</time>
      </trkpt>
      <trkpt lat="44.12385" lon="3.28107">
        <ele>853</ele>
        <time>2009-07-08T15:06:36Z</time>
      </trkpt>
      <trkpt lat="44.12384" lon="3.28111">
        <ele>853</ele>
        <time>2009-07-08T15:06:37Z</time>
      </trkpt>
      <trkpt lat="44.12369" lon="3.28179">
        <ele>855</ele>
        <time>2009-07-08T15:06:56Z</time>
      </trkpt>
      <trkpt lat="44.12349" lon="3.2822">
        <ele>856</ele>
        <time>2009-07-08T15:07:08Z</time>
      </trkpt>
      <trkpt lat="44.12327" lon="3.28271">
        <ele>854</ele>
        <time>2009-07-08T15:07:24Z</time>
      </trkpt>
      <trkpt lat="44.12294" lon="3.2835">
        <ele>853</ele>
        <time>2009-07-08T15:07:40Z</time>
      </trkpt>
      <trkpt lat="44.12269" lon="3.28412">
        <ele>854</ele>
        <time>2009-07-08T15:07:55Z</time>
      </trkpt>
      <trkpt lat="44.12236" lon="3.2848">
        <ele>855</ele>
        <time>2009-07-08T15:08:12Z</time>
      </trkpt>
      <trkpt lat="44.12194" lon="3.28552">
        <ele>852</ele>
        <time>2009-07-08T15:08:27Z</time>
      </trkpt>
      <trkpt lat="44.12185" lon="3.28566">
        <ele>850</ele>
        <time>2009-07-08T15:08:29Z</time>
      </trkpt>
      <trkpt lat="44.12107" lon="3.28697">
        <ele>847</ele>
        <time>2009-07-08T15:08:45Z</time>
      </trkpt>
      <trkpt lat="44.1205" lon="3.28795">
        <ele>848</ele>
        <time>2009-07-08T15:08:59Z</time>
      </trkpt>
      <trkpt lat="44.12029" lon="3.28828">
        <ele>851</ele>
        <time>2009-07-08T15:09:10Z</time>
      </trkpt>
      <trkpt lat="44.12004" lon="3.28876">
        <ele>852</ele>
        <time>2009-07-08T15:09:25Z</time>
      </trkpt>
      <trkpt lat="44.12001" lon="3.28883">
        <ele>853</ele>
        <time>2009-07-08T15:09:27Z</time>
      </trkpt>
      <trkpt lat="44.11986" lon="3.28932">
        <ele>854</ele>
        <time>2009-07-08T15:09:41Z</time>
      </trkpt>
      <trkpt lat="44.11966" lon="3.28997">
        <ele>855</ele>
        <time>2009-07-08T15:09:56Z</time>
      </trkpt>
      <trkpt lat="44.11953" lon="3.29077">
        <ele>854</ele>
        <time>2009-07-08T15:10:14Z</time>
      </trkpt>
      <trkpt lat="44.11953" lon="3.29076">
        <ele>853</ele>
        <time>2009-07-08T15:10:25Z</time>
      </trkpt>
      <trkpt lat="44.11952" lon="3.29072">
        <ele>853</ele>
        <time>2009-07-08T15:10:41Z</time>
      </trkpt>
      <trkpt lat="44.11952" lon="3.29071">
        <ele>853</ele>
        <time>2009-07-08T15:10:42Z</time>
      </trkpt>
      <trkpt lat="44.1193" lon="3.29061">
        <ele>850</ele>
        <time>2009-07-08T15:10:52Z</time>
      </trkpt>
      <trkpt lat="44.11914" lon="3.29073">
        <ele>850</ele>
        <time>2009-07-08T15:10:59Z</time>
      </trkpt>
      <trkpt lat="44.11914" lon="3.29073">
        <ele>850</ele>
        <time>2009-07-08T15:11:19Z</time>
      </trkpt>
      <trkpt lat="44.11914" lon="3.29073">
        <ele>851</ele>
        <time>2009-07-08T15:11:20Z</time>
      </trkpt>
      <trkpt lat="44.11906" lon="3.29078">
        <ele>850</ele>
        <time>2009-07-08T15:11:24Z</time>
      </trkpt>
      <trkpt lat="44.11845" lon="3.29103">
        <ele>849</ele>
        <time>2009-07-08T15:11:38Z</time>
      </trkpt>
      <trkpt lat="44.11776" lon="3.29118">
        <ele>851</ele>
        <time>2009-07-08T15:11:54Z</time>
      </trkpt>
      <trkpt lat="44.11724" lon="3.29185">
        <ele>847</ele>
        <time>2009-07-08T15:12:07Z</time>
      </trkpt>
      <trkpt lat="44.11717" lon="3.29199">
        <ele>846</ele>
        <time>2009-07-08T15:12:09Z</time>
      </trkpt>
      <trkpt lat="44.11683" lon="3.29252">
        <ele>842</ele>
        <time>2009-07-08T15:12:17Z</time>
      </trkpt>
      <trkpt lat="44.1168" lon="3.29267">
        <ele>841</ele>
        <time>2009-07-08T15:12:19Z</time>
      </trkpt>
      <trkpt lat="44.11682" lon="3.29283">
        <ele>839</ele>
        <time>2009-07-08T15:12:21Z</time>
      </trkpt>
      <trkpt lat="44.1169" lon="3.2933">
        <ele>836</ele>
        <time>2009-07-08T15:12:26Z</time>
      </trkpt>
      <trkpt lat="44.11711" lon="3.29359">
        <ele>834</ele>
        <time>2009-07-08T15:12:31Z</time>
      </trkpt>
      <trkpt lat="44.1174" lon="3.2941">
        <ele>832</ele>
        <time>2009-07-08T15:12:42Z</time>
      </trkpt>
      <trkpt lat="44.11714" lon="3.29442">
        <ele>830</ele>
        <time>2009-07-08T15:12:47Z</time>
      </trkpt>
      <trkpt lat="44.11699" lon="3.29453">
        <ele>829</ele>
        <time>2009-07-08T15:12:53Z</time>
      </trkpt>
      <trkpt lat="44.11688" lon="3.29456">
        <ele>827</ele>
        <time>2009-07-08T15:12:56Z</time>
      </trkpt>
      <trkpt lat="44.11671" lon="3.29461">
        <ele>826</ele>
        <time>2009-07-08T15:13:00Z</time>
      </trkpt>
      <trkpt lat="44.11653" lon="3.29473">
        <ele>824</ele>
        <time>2009-07-08T15:13:04Z</time>
      </trkpt>
      <trkpt lat="44.11619" lon="3.29488">
        <ele>821</ele>
        <time>2009-07-08T15:13:10Z</time>
      </trkpt>
      <trkpt lat="44.1159" lon="3.29508">
        <ele>818</ele>
        <time>2009-07-08T15:13:15Z</time>
      </trkpt>
      <trkpt lat="44.11547" lon="3.29531">
        <ele>816</ele>
        <time>2009-07-08T15:13:24Z</time>
      </trkpt>
      <trkpt lat="44.11539" lon="3.2953">
        <ele>814</ele>
        <time>2009-07-08T15:13:26Z</time>
      </trkpt>
      <trkpt lat="44.11496" lon="3.2951">
        <ele>812</ele>
        <time>2009-07-08T15:13:35Z</time>
      </trkpt>
      <trkpt lat="44.11466" lon="3.29521">
        <ele>809</ele>
        <time>2009-07-08T15:13:43Z</time>
      </trkpt>
      <trkpt lat="44.11434" lon="3.29538">
        <ele>811</ele>
        <time>2009-07-08T15:13:54Z</time>
      </trkpt>
      <trkpt lat="44.11409" lon="3.29553">
        <ele>813</ele>
        <time>2009-07-08T15:14:07Z</time>
      </trkpt>
      <trkpt lat="44.11391" lon="3.29565">
        <ele>816</ele>
        <time>2009-07-08T15:14:18Z</time>
      </trkpt>
      <trkpt lat="44.1138" lon="3.29559">
        <ele>817</ele>
        <time>2009-07-08T15:14:25Z</time>
      </trkpt>
      <trkpt lat="44.11362" lon="3.29547">
        <ele>820</ele>
        <time>2009-07-08T15:14:38Z</time>
      </trkpt>
      <trkpt lat="44.11339" lon="3.2953">
        <ele>824</ele>
        <time>2009-07-08T15:14:56Z</time>
      </trkpt>
      <trkpt lat="44.11326" lon="3.29521">
        <ele>827</ele>
        <time>2009-07-08T15:15:06Z</time>
      </trkpt>
      <trkpt lat="44.1131" lon="3.29512">
        <ele>830</ele>
        <time>2009-07-08T15:15:17Z</time>
      </trkpt>
      <trkpt lat="44.11309" lon="3.29511">
        <ele>831</ele>
        <time>2009-07-08T15:15:18Z</time>
      </trkpt>
      <trkpt lat="44.11288" lon="3.29515">
        <ele>833</ele>
        <time>2009-07-08T15:15:34Z</time>
      </trkpt>
      <trkpt lat="44.11285" lon="3.29521">
        <ele>834</ele>
        <time>2009-07-08T15:15:48Z</time>
      </trkpt>
      <trkpt lat="44.11283" lon="3.29525">
        <ele>833</ele>
        <time>2009-07-08T15:16:04Z</time>
      </trkpt>
      <trkpt lat="44.1128" lon="3.29533">
        <ele>834</ele>
        <time>2009-07-08T15:16:19Z</time>
      </trkpt>
      <trkpt lat="44.1128" lon="3.29534">
        <ele>834</ele>
        <time>2009-07-08T15:17:03Z</time>
      </trkpt>
      <trkpt lat="44.11277" lon="3.29556">
        <ele>835</ele>
        <time>2009-07-08T15:18:01Z</time>
      </trkpt>
      <trkpt lat="44.11271" lon="3.29596">
        <ele>837</ele>
        <time>2009-07-08T15:18:17Z</time>
      </trkpt>
      <trkpt lat="44.11263" lon="3.29639">
        <ele>840</ele>
        <time>2009-07-08T15:18:32Z</time>
      </trkpt>
      <trkpt lat="44.11274" lon="3.29673">
        <ele>840</ele>
        <time>2009-07-08T15:18:44Z</time>
      </trkpt>
      <trkpt lat="44.11277" lon="3.29688">
        <ele>842</ele>
        <time>2009-07-08T15:18:49Z</time>
      </trkpt>
      <trkpt lat="44.11277" lon="3.29692">
        <ele>842</ele>
        <time>2009-07-08T15:19:01Z</time>
      </trkpt>
      <trkpt lat="44.11277" lon="3.29692">
        <ele>842</ele>
        <time>2009-07-08T15:19:55Z</time>
      </trkpt>
      <trkpt lat="44.11276" lon="3.29692">
        <ele>843</ele>
        <time>2009-07-08T15:20:27Z</time>
      </trkpt>
      <trkpt lat="44.11272" lon="3.29699">
        <ele>842</ele>
        <time>2009-07-08T15:20:31Z</time>
      </trkpt>
      <trkpt lat="44.11255" lon="3.29732">
        <ele>846</ele>
        <time>2009-07-08T15:20:43Z</time>
      </trkpt>
      <trkpt lat="44.11242" lon="3.29777">
        <ele>848</ele>
        <time>2009-07-08T15:20:58Z</time>
      </trkpt>
      <trkpt lat="44.11214" lon="3.29806">
        <ele>850</ele>
        <time>2009-07-08T15:21:12Z</time>
      </trkpt>
      <trkpt lat="44.1118" lon="3.29834">
        <ele>853</ele>
        <time>2009-07-08T15:21:27Z</time>
      </trkpt>
      <trkpt lat="44.11178" lon="3.29836">
        <ele>854</ele>
        <time>2009-07-08T15:21:28Z</time>
      </trkpt>
      <trkpt lat="44.1114" lon="3.29877">
        <ele>856</ele>
        <time>2009-07-08T15:21:45Z</time>
      </trkpt>
      <trkpt lat="44.111" lon="3.29923">
        <ele>855</ele>
        <time>2009-07-08T15:22:02Z</time>
      </trkpt>
      <trkpt lat="44.11083" lon="3.29943">
        <ele>854</ele>
        <time>2009-07-08T15:22:09Z</time>
      </trkpt>
      <trkpt lat="44.11042" lon="3.29992">
        <ele>851</ele>
        <time>2009-07-08T15:22:19Z</time>
      </trkpt>
      <trkpt lat="44.11029" lon="3.30041">
        <ele>847</ele>
        <time>2009-07-08T15:22:24Z</time>
      </trkpt>
      <trkpt lat="44.11028" lon="3.30079">
        <ele>843</ele>
        <time>2009-07-08T15:22:27Z</time>
      </trkpt>
      <trkpt lat="44.1103" lon="3.30123">
        <ele>840</ele>
        <time>2009-07-08T15:22:30Z</time>
      </trkpt>
      <trkpt lat="44.11033" lon="3.30164">
        <ele>836</ele>
        <time>2009-07-08T15:22:33Z</time>
      </trkpt>
      <trkpt lat="44.11038" lon="3.3019">
        <ele>835</ele>
        <time>2009-07-08T15:22:35Z</time>
      </trkpt>
      <trkpt lat="44.11041" lon="3.30203">
        <ele>835</ele>
        <time>2009-07-08T15:22:36Z</time>
      </trkpt>
      <trkpt lat="44.11043" lon="3.3024">
        <ele>831</ele>
        <time>2009-07-08T15:22:39Z</time>
      </trkpt>
      <trkpt lat="44.11018" lon="3.30267">
        <ele>830</ele>
        <time>2009-07-08T15:22:43Z</time>
      </trkpt>
      <trkpt lat="44.10995" lon="3.30269">
        <ele>831</ele>
        <time>2009-07-08T15:22:46Z</time>
      </trkpt>
      <trkpt lat="44.10948" lon="3.30265">
        <ele>833</ele>
        <time>2009-07-08T15:22:56Z</time>
      </trkpt>
      <trkpt lat="44.10933" lon="3.30277">
        <ele>835</ele>
        <time>2009-07-08T15:23:03Z</time>
      </trkpt>
      <trkpt lat="44.10929" lon="3.30281">
        <ele>835</ele>
        <time>2009-07-08T15:23:14Z</time>
      </trkpt>
      <trkpt lat="44.10925" lon="3.30282">
        <ele>835</ele>
        <time>2009-07-08T15:23:32Z</time>
      </trkpt>
      <trkpt lat="44.10923" lon="3.3028">
        <ele>835</ele>
        <time>2009-07-08T15:23:54Z</time>
      </trkpt>
      <trkpt lat="44.10916" lon="3.30287">
        <ele>838</ele>
        <time>2009-07-08T15:24:11Z</time>
      </trkpt>
      <trkpt lat="44.10916" lon="3.30287">
        <ele>838</ele>
        <time>2009-07-08T15:24:14Z</time>
      </trkpt>
      <trkpt lat="44.10904" lon="3.30301">
        <ele>840</ele>
        <time>2009-07-08T15:24:22Z</time>
      </trkpt>
      <trkpt lat="44.10881" lon="3.30345">
        <ele>843</ele>
        <time>2009-07-08T15:24:39Z</time>
      </trkpt>
      <trkpt lat="44.10888" lon="3.30383">
        <ele>846</ele>
        <time>2009-07-08T15:24:53Z</time>
      </trkpt>
      <trkpt lat="44.10905" lon="3.30428">
        <ele>849</ele>
        <time>2009-07-08T15:25:09Z</time>
      </trkpt>
      <trkpt lat="44.10931" lon="3.30482">
        <ele>851</ele>
        <time>2009-07-08T15:25:28Z</time>
      </trkpt>
      <trkpt lat="44.10958" lon="3.30506">
        <ele>855</ele>
        <time>2009-07-08T15:25:40Z</time>
      </trkpt>
      <trkpt lat="44.1099" lon="3.30561">
        <ele>858</ele>
        <time>2009-07-08T15:25:59Z</time>
      </trkpt>
      <trkpt lat="44.11008" lon="3.30611">
        <ele>861</ele>
        <time>2009-07-08T15:26:14Z</time>
      </trkpt>
      <trkpt lat="44.1101" lon="3.30618">
        <ele>862</ele>
        <time>2009-07-08T15:26:16Z</time>
      </trkpt>
      <trkpt lat="44.11025" lon="3.30662">
        <ele>865</ele>
        <time>2009-07-08T15:26:29Z</time>
      </trkpt>
      <trkpt lat="44.1104" lon="3.30727">
        <ele>867</ele>
        <time>2009-07-08T15:26:46Z</time>
      </trkpt>
      <trkpt lat="44.11059" lon="3.30789">
        <ele>869</ele>
        <time>2009-07-08T15:27:02Z</time>
      </trkpt>
      <trkpt lat="44.11085" lon="3.30866">
        <ele>872</ele>
        <time>2009-07-08T15:27:22Z</time>
      </trkpt>
      <trkpt lat="44.11093" lon="3.30894">
        <ele>873</ele>
        <time>2009-07-08T15:27:29Z</time>
      </trkpt>
      <trkpt lat="44.11113" lon="3.3097">
        <ele>874</ele>
        <time>2009-07-08T15:27:47Z</time>
      </trkpt>
      <trkpt lat="44.11142" lon="3.31082">
        <ele>875</ele>
        <time>2009-07-08T15:28:09Z</time>
      </trkpt>
      <trkpt lat="44.11147" lon="3.31121">
        <ele>875</ele>
        <time>2009-07-08T15:28:16Z</time>
      </trkpt>
      <trkpt lat="44.11159" lon="3.31198">
        <ele>874</ele>
        <time>2009-07-08T15:28:29Z</time>
      </trkpt>
      <trkpt lat="44.11168" lon="3.31271">
        <ele>876</ele>
        <time>2009-07-08T15:28:42Z</time>
      </trkpt>
      <trkpt lat="44.11165" lon="3.31373">
        <ele>879</ele>
        <time>2009-07-08T15:29:01Z</time>
      </trkpt>
      <trkpt lat="44.11172" lon="3.3145">
        <ele>882</ele>
        <time>2009-07-08T15:29:17Z</time>
      </trkpt>
      <trkpt lat="44.11183" lon="3.31541">
        <ele>885</ele>
        <time>2009-07-08T15:29:37Z</time>
      </trkpt>
      <trkpt lat="44.11193" lon="3.31557">
        <ele>884</ele>
        <time>2009-07-08T15:29:49Z</time>
      </trkpt>
      <trkpt lat="44.11195" lon="3.3156">
        <ele>887</ele>
        <time>2009-07-08T15:30:29Z</time>
      </trkpt>
      <trkpt lat="44.11198" lon="3.31562">
        <ele>886</ele>
        <time>2009-07-08T15:30:48Z</time>
      </trkpt>
      <trkpt lat="44.112" lon="3.31568">
        <ele>887</ele>
        <time>2009-07-08T15:31:08Z</time>
      </trkpt>
      <trkpt lat="44.11201" lon="3.31574">
        <ele>887</ele>
        <time>2009-07-08T15:31:18Z</time>
      </trkpt>
      <trkpt lat="44.1122" lon="3.3163">
        <ele>887</ele>
        <time>2009-07-08T15:31:32Z</time>
      </trkpt>
      <trkpt lat="44.11232" lon="3.31686">
        <ele>884</ele>
        <time>2009-07-08T15:31:39Z</time>
      </trkpt>
      <trkpt lat="44.11263" lon="3.31773">
        <ele>881</ele>
        <time>2009-07-08T15:31:49Z</time>
      </trkpt>
      <trkpt lat="44.1127" lon="3.31824">
        <ele>879</ele>
        <time>2009-07-08T15:31:54Z</time>
      </trkpt>
      <trkpt lat="44.11283" lon="3.31869">
        <ele>880</ele>
        <time>2009-07-08T15:31:59Z</time>
      </trkpt>
      <trkpt lat="44.1129" lon="3.31892">
        <ele>881</ele>
        <time>2009-07-08T15:32:02Z</time>
      </trkpt>
      <trkpt lat="44.11303" lon="3.31967">
        <ele>879</ele>
        <time>2009-07-08T15:32:12Z</time>
      </trkpt>
      <trkpt lat="44.11308" lon="3.32007">
        <ele>879</ele>
        <time>2009-07-08T15:32:17Z</time>
      </trkpt>
      <trkpt lat="44.11312" lon="3.32107">
        <ele>879</ele>
        <time>2009-07-08T15:32:31Z</time>
      </trkpt>
      <trkpt lat="44.11315" lon="3.32171">
        <ele>880</ele>
        <time>2009-07-08T15:32:41Z</time>
      </trkpt>
      <trkpt lat="44.11312" lon="3.32233">
        <ele>879</ele>
        <time>2009-07-08T15:32:51Z</time>
      </trkpt>
      <trkpt lat="44.11315" lon="3.32258">
        <ele>879</ele>
        <time>2009-07-08T15:32:55Z</time>
      </trkpt>
      <trkpt lat="44.11322" lon="3.32291">
        <ele>879</ele>
        <time>2009-07-08T15:33:00Z</time>
      </trkpt>
      <trkpt lat="44.1132" lon="3.32331">
        <ele>879</ele>
        <time>2009-07-08T15:33:06Z</time>
      </trkpt>
      <trkpt lat="44.11321" lon="3.32385">
        <ele>876</ele>
        <time>2009-07-08T15:33:13Z</time>
      </trkpt>
      <trkpt lat="44.11317" lon="3.32495">
        <ele>874</ele>
        <time>2009-07-08T15:33:27Z</time>
      </trkpt>
      <trkpt lat="44.11313" lon="3.32541">
        <ele>871</ele>
        <time>2009-07-08T15:33:32Z</time>
      </trkpt>
      <trkpt lat="44.11305" lon="3.32578">
        <ele>870</ele>
        <time>2009-07-08T15:33:36Z</time>
      </trkpt>
      <trkpt lat="44.11302" lon="3.32587">
        <ele>870</ele>
        <time>2009-07-08T15:33:37Z</time>
      </trkpt>
      <trkpt lat="44.1129" lon="3.32618">
        <ele>870</ele>
        <time>2009-07-08T15:33:41Z</time>
      </trkpt>
      <trkpt lat="44.11284" lon="3.32651">
        <ele>869</ele>
        <time>2009-07-08T15:33:45Z</time>
      </trkpt>
      <trkpt lat="44.1129" lon="3.32751">
        <ele>866</ele>
        <time>2009-07-08T15:33:57Z</time>
      </trkpt>
      <trkpt lat="44.1129" lon="3.32799">
        <ele>864</ele>
        <time>2009-07-08T15:34:03Z</time>
      </trkpt>
      <trkpt lat="44.1129" lon="3.32832">
        <ele>864</ele>
        <time>2009-07-08T15:34:07Z</time>
      </trkpt>
      <trkpt lat="44.11288" lon="3.32847">
        <ele>865</ele>
        <time>2009-07-08T15:34:09Z</time>
      </trkpt>
      <trkpt lat="44.11285" lon="3.32886">
        <ele>863</ele>
        <time>2009-07-08T15:34:14Z</time>
      </trkpt>
      <trkpt lat="44.11279" lon="3.32916">
        <ele>864</ele>
        <time>2009-07-08T15:34:18Z</time>
      </trkpt>
      <trkpt lat="44.11277" lon="3.32955">
        <ele>864</ele>
        <time>2009-07-08T15:34:23Z</time>
      </trkpt>
      <trkpt lat="44.11271" lon="3.32983">
        <ele>865</ele>
        <time>2009-07-08T15:34:27Z</time>
      </trkpt>
      <trkpt lat="44.11266" lon="3.32996">
        <ele>864</ele>
        <time>2009-07-08T15:34:29Z</time>
      </trkpt>
      <trkpt lat="44.11259" lon="3.33063">
        <ele>867</ele>
        <time>2009-07-08T15:34:41Z</time>
      </trkpt>
      <trkpt lat="44.11255" lon="3.33073">
        <ele>866</ele>
        <time>2009-07-08T15:34:51Z</time>
      </trkpt>
      <trkpt lat="44.11256" lon="3.33072">
        <ele>867</ele>
        <time>2009-07-08T15:35:51Z</time>
      </trkpt>
      <trkpt lat="44.11256" lon="3.33072">
        <ele>867</ele>
        <time>2009-07-08T15:36:12Z</time>
      </trkpt>
      <trkpt lat="44.11255" lon="3.33072">
        <ele>867</ele>
        <time>2009-07-08T15:36:47Z</time>
      </trkpt>
      <trkpt lat="44.11255" lon="3.33072">
        <ele>869</ele>
        <time>2009-07-08T15:37:26Z</time>
      </trkpt>
      <trkpt lat="44.11246" lon="3.33095">
        <ele>868</ele>
        <time>2009-07-08T15:37:41Z</time>
      </trkpt>
      <trkpt lat="44.11243" lon="3.3312">
        <ele>867</ele>
        <time>2009-07-08T15:37:48Z</time>
      </trkpt>
      <trkpt lat="44.11247" lon="3.33178">
        <ele>865</ele>
        <time>2009-07-08T15:37:58Z</time>
      </trkpt>
      <trkpt lat="44.11256" lon="3.33251">
        <ele>866</ele>
        <time>2009-07-08T15:38:12Z</time>
      </trkpt>
      <trkpt lat="44.1124" lon="3.33328">
        <ele>866</ele>
        <time>2009-07-08T15:38:27Z</time>
      </trkpt>
      <trkpt lat="44.11223" lon="3.33411">
        <ele>869</ele>
        <time>2009-07-08T15:38:43Z</time>
      </trkpt>
      <trkpt lat="44.11236" lon="3.33461">
        <ele>870</ele>
        <time>2009-07-08T15:38:54Z</time>
      </trkpt>
      <trkpt lat="44.11243" lon="3.33499">
        <ele>870</ele>
        <time>2009-07-08T15:39:01Z</time>
      </trkpt>
      <trkpt lat="44.11258" lon="3.33599">
        <ele>870</ele>
        <time>2009-07-08T15:39:18Z</time>
      </trkpt>
      <trkpt lat="44.11273" lon="3.33706">
        <ele>871</ele>
        <time>2009-07-08T15:39:35Z</time>
      </trkpt>
      <trkpt lat="44.11275" lon="3.33736">
        <ele>872</ele>
        <time>2009-07-08T15:39:40Z</time>
      </trkpt>
      <trkpt lat="44.11251" lon="3.3384">
        <ele>872</ele>
        <time>2009-07-08T15:39:58Z</time>
      </trkpt>
      <trkpt lat="44.11253" lon="3.33868">
        <ele>870</ele>
        <time>2009-07-08T15:40:02Z</time>
      </trkpt>
      <trkpt lat="44.11282" lon="3.33947">
        <ele>873</ele>
        <time>2009-07-08T15:40:17Z</time>
      </trkpt>
      <trkpt lat="44.11287" lon="3.33963">
        <ele>872</ele>
        <time>2009-07-08T15:40:20Z</time>
      </trkpt>
      <trkpt lat="44.11289" lon="3.33981">
        <ele>872</ele>
        <time>2009-07-08T15:40:23Z</time>
      </trkpt>
      <trkpt lat="44.11303" lon="3.34003">
        <ele>872</ele>
        <time>2009-07-08T15:40:28Z</time>
      </trkpt>
      <trkpt lat="44.11318" lon="3.34017">
        <ele>872</ele>
        <time>2009-07-08T15:40:32Z</time>
      </trkpt>
      <trkpt lat="44.11335" lon="3.3402">
        <ele>873</ele>
        <time>2009-07-08T15:40:36Z</time>
      </trkpt>
      <trkpt lat="44.11372" lon="3.34013">
        <ele>874</ele>
        <time>2009-07-08T15:40:45Z</time>
      </trkpt>
      <trkpt lat="44.11385" lon="3.34022">
        <ele>875</ele>
        <time>2009-07-08T15:40:49Z</time>
      </trkpt>
      <trkpt lat="44.11402" lon="3.34073">
        <ele>876</ele>
        <time>2009-07-08T15:41:03Z</time>
      </trkpt>
      <trkpt lat="44.11411" lon="3.34123">
        <ele>878</ele>
        <time>2009-07-08T15:41:18Z</time>
      </trkpt>
      <trkpt lat="44.11421" lon="3.34191">
        <ele>878</ele>
        <time>2009-07-08T15:41:36Z</time>
      </trkpt>
      <trkpt lat="44.1145" lon="3.34277">
        <ele>878</ele>
        <time>2009-07-08T15:41:54Z</time>
      </trkpt>
      <trkpt lat="44.11466" lon="3.3437">
        <ele>877</ele>
        <time>2009-07-08T15:42:12Z</time>
      </trkpt>
      <trkpt lat="44.11466" lon="3.34383">
        <ele>877</ele>
        <time>2009-07-08T15:42:14Z</time>
      </trkpt>
      <trkpt lat="44.11467" lon="3.34408">
        <ele>877</ele>
        <time>2009-07-08T15:42:18Z</time>
      </trkpt>
      <trkpt lat="44.11477" lon="3.34449">
        <ele>879</ele>
        <time>2009-07-08T15:42:26Z</time>
      </trkpt>
      <trkpt lat="44.11469" lon="3.3448">
        <ele>876</ele>
        <time>2009-07-08T15:42:31Z</time>
      </trkpt>
      <trkpt lat="44.11471" lon="3.34505">
        <ele>877</ele>
        <time>2009-07-08T15:42:35Z</time>
      </trkpt>
      <trkpt lat="44.11463" lon="3.34561">
        <ele>873</ele>
        <time>2009-07-08T15:42:45Z</time>
      </trkpt>
      <trkpt lat="44.11463" lon="3.34569">
        <ele>873</ele>
        <time>2009-07-08T15:42:46Z</time>
      </trkpt>
      <trkpt lat="44.11464" lon="3.34585">
        <ele>873</ele>
        <time>2009-07-08T15:42:48Z</time>
      </trkpt>
      <trkpt lat="44.11462" lon="3.34612">
        <ele>873</ele>
        <time>2009-07-08T15:42:52Z</time>
      </trkpt>
      <trkpt lat="44.11461" lon="3.34637">
        <ele>873</ele>
        <time>2009-07-08T15:42:56Z</time>
      </trkpt>
      <trkpt lat="44.11466" lon="3.34659">
        <ele>873</ele>
        <time>2009-07-08T15:43:00Z</time>
      </trkpt>
      <trkpt lat="44.11474" lon="3.34672">
        <ele>874</ele>
        <time>2009-07-08T15:43:03Z</time>
      </trkpt>
      <trkpt lat="44.11499" lon="3.34662">
        <ele>874</ele>
        <time>2009-07-08T15:43:11Z</time>
      </trkpt>
      <trkpt lat="44.11553" lon="3.34647">
        <ele>876</ele>
        <time>2009-07-08T15:43:27Z</time>
      </trkpt>
      <trkpt lat="44.11563" lon="3.34657">
        <ele>877</ele>
        <time>2009-07-08T15:43:31Z</time>
      </trkpt>
      <trkpt lat="44.11584" lon="3.34715">
        <ele>880</ele>
        <time>2009-07-08T15:43:45Z</time>
      </trkpt>
      <trkpt lat="44.11598" lon="3.34771">
        <ele>881</ele>
        <time>2009-07-08T15:43:57Z</time>
      </trkpt>
      <trkpt lat="44.11633" lon="3.34796">
        <ele>883</ele>
        <time>2009-07-08T15:44:07Z</time>
      </trkpt>
      <trkpt lat="44.11671" lon="3.34855">
        <ele>885</ele>
        <time>2009-07-08T15:44:23Z</time>
      </trkpt>
      <trkpt lat="44.11717" lon="3.34906">
        <ele>887</ele>
        <time>2009-07-08T15:44:38Z</time>
      </trkpt>
      <trkpt lat="44.11759" lon="3.34937">
        <ele>887</ele>
        <time>2009-07-08T15:44:50Z</time>
      </trkpt>
      <trkpt lat="44.11769" lon="3.34951">
        <ele>886</ele>
        <time>2009-07-08T15:44:53Z</time>
      </trkpt>
      <trkpt lat="44.11775" lon="3.34972">
        <ele>886</ele>
        <time>2009-07-08T15:44:56Z</time>
      </trkpt>
      <trkpt lat="44.11778" lon="3.34993">
        <ele>886</ele>
        <time>2009-07-08T15:44:59Z</time>
      </trkpt>
      <trkpt lat="44.11773" lon="3.35029">
        <ele>887</ele>
        <time>2009-07-08T15:45:05Z</time>
      </trkpt>
      <trkpt lat="44.11751" lon="3.35124">
        <ele>888</ele>
        <time>2009-07-08T15:45:23Z</time>
      </trkpt>
      <trkpt lat="44.11743" lon="3.35206">
        <ele>887</ele>
        <time>2009-07-08T15:45:40Z</time>
      </trkpt>
      <trkpt lat="44.11748" lon="3.35237">
        <ele>884</ele>
        <time>2009-07-08T15:45:45Z</time>
      </trkpt>
      <trkpt lat="44.11749" lon="3.35245">
        <ele>884</ele>
        <time>2009-07-08T15:45:46Z</time>
      </trkpt>
      <trkpt lat="44.1175" lon="3.35252">
        <ele>884</ele>
        <time>2009-07-08T15:45:47Z</time>
      </trkpt>
      <trkpt lat="44.11745" lon="3.35304">
        <ele>882</ele>
        <time>2009-07-08T15:45:55Z</time>
      </trkpt>
      <trkpt lat="44.11749" lon="3.35323">
        <ele>879</ele>
        <time>2009-07-08T15:45:58Z</time>
      </trkpt>
      <trkpt lat="44.1176" lon="3.35346">
        <ele>878</ele>
        <time>2009-07-08T15:46:01Z</time>
      </trkpt>
      <trkpt lat="44.11781" lon="3.35442">
        <ele>880</ele>
        <time>2009-07-08T15:46:14Z</time>
      </trkpt>
      <trkpt lat="44.11785" lon="3.35456">
        <ele>881</ele>
        <time>2009-07-08T15:46:17Z</time>
      </trkpt>
      <trkpt lat="44.11787" lon="3.35465">
        <ele>882</ele>
        <time>2009-07-08T15:46:19Z</time>
      </trkpt>
      <trkpt lat="44.11813" lon="3.35529">
        <ele>885</ele>
        <time>2009-07-08T15:46:34Z</time>
      </trkpt>
      <trkpt lat="44.11848" lon="3.35577">
        <ele>887</ele>
        <time>2009-07-08T15:46:48Z</time>
      </trkpt>
      <trkpt lat="44.11869" lon="3.35613">
        <ele>888</ele>
        <time>2009-07-08T15:46:58Z</time>
      </trkpt>
      <trkpt lat="44.11883" lon="3.35611">
        <ele>888</ele>
        <time>2009-07-08T15:47:05Z</time>
      </trkpt>
      <trkpt lat="44.11897" lon="3.35657">
        <ele>889</ele>
        <time>2009-07-08T15:47:18Z</time>
      </trkpt>
      <trkpt lat="44.11905" lon="3.35731">
        <ele>891</ele>
        <time>2009-07-08T15:47:35Z</time>
      </trkpt>
      <trkpt lat="44.11916" lon="3.35813">
        <ele>893</ele>
        <time>2009-07-08T15:47:52Z</time>
      </trkpt>
      <trkpt lat="44.1193" lon="3.35898">
        <ele>894</ele>
        <time>2009-07-08T15:48:08Z</time>
      </trkpt>
      <trkpt lat="44.11963" lon="3.36">
        <ele>896</ele>
        <time>2009-07-08T15:48:28Z</time>
      </trkpt>
      <trkpt lat="44.11995" lon="3.36114">
        <ele>898</ele>
        <time>2009-07-08T15:48:48Z</time>
      </trkpt>
      <trkpt lat="44.11995" lon="3.36221">
        <ele>899</ele>
        <time>2009-07-08T15:49:05Z</time>
      </trkpt>
      <trkpt lat="44.11984" lon="3.36334">
        <ele>900</ele>
        <time>2009-07-08T15:49:25Z</time>
      </trkpt>
      <trkpt lat="44.11963" lon="3.36408">
        <ele>897</ele>
        <time>2009-07-08T15:49:39Z</time>
      </trkpt>
      <trkpt lat="44.11954" lon="3.36428">
        <ele>895</ele>
        <time>2009-07-08T15:49:42Z</time>
      </trkpt>
      <trkpt lat="44.11947" lon="3.36473">
        <ele>893</ele>
        <time>2009-07-08T15:49:47Z</time>
      </trkpt>
      <trkpt lat="44.11956" lon="3.36525">
        <ele>888</ele>
        <time>2009-07-08T15:49:52Z</time>
      </trkpt>
      <trkpt lat="44.11961" lon="3.36535">
        <ele>888</ele>
        <time>2009-07-08T15:49:53Z</time>
      </trkpt>
      <trkpt lat="44.11968" lon="3.36556">
        <ele>888</ele>
        <time>2009-07-08T15:49:55Z</time>
      </trkpt>
      <trkpt lat="44.11975" lon="3.36594">
        <ele>889</ele>
        <time>2009-07-08T15:49:59Z</time>
      </trkpt>
      <trkpt lat="44.11978" lon="3.36621">
        <ele>888</ele>
        <time>2009-07-08T15:50:02Z</time>
      </trkpt>
      <trkpt lat="44.11979" lon="3.36659">
        <ele>890</ele>
        <time>2009-07-08T15:50:07Z</time>
      </trkpt>
      <trkpt lat="44.11968" lon="3.36751">
        <ele>892</ele>
        <time>2009-07-08T15:50:24Z</time>
      </trkpt>
      <trkpt lat="44.11971" lon="3.36836">
        <ele>889</ele>
        <time>2009-07-08T15:50:38Z</time>
      </trkpt>
      <trkpt lat="44.11977" lon="3.36853">
        <ele>889</ele>
        <time>2009-07-08T15:50:41Z</time>
      </trkpt>
      <trkpt lat="44.1199" lon="3.36894">
        <ele>888</ele>
        <time>2009-07-08T15:50:48Z</time>
      </trkpt>
      <trkpt lat="44.12" lon="3.37003">
        <ele>886</ele>
        <time>2009-07-08T15:51:06Z</time>
      </trkpt>
      <trkpt lat="44.12001" lon="3.37009">
        <ele>885</ele>
        <time>2009-07-08T15:51:07Z</time>
      </trkpt>
      <trkpt lat="44.12006" lon="3.37024">
        <ele>886</ele>
        <time>2009-07-08T15:51:10Z</time>
      </trkpt>
      <trkpt lat="44.12046" lon="3.3709">
        <ele>885</ele>
        <time>2009-07-08T15:51:23Z</time>
      </trkpt>
      <trkpt lat="44.12055" lon="3.37104">
        <ele>886</ele>
        <time>2009-07-08T15:51:26Z</time>
      </trkpt>
      <trkpt lat="44.12101" lon="3.37137">
        <ele>887</ele>
        <time>2009-07-08T15:51:38Z</time>
      </trkpt>
      <trkpt lat="44.12134" lon="3.37144">
        <ele>887</ele>
        <time>2009-07-08T15:51:46Z</time>
      </trkpt>
      <trkpt lat="44.12173" lon="3.37155">
        <ele>889</ele>
        <time>2009-07-08T15:51:58Z</time>
      </trkpt>
      <trkpt lat="44.12187" lon="3.37165">
        <ele>889</ele>
        <time>2009-07-08T15:52:04Z</time>
      </trkpt>
      <trkpt lat="44.12206" lon="3.37184">
        <ele>887</ele>
        <time>2009-07-08T15:52:11Z</time>
      </trkpt>
      <trkpt lat="44.12218" lon="3.372">
        <ele>887</ele>
        <time>2009-07-08T15:52:15Z</time>
      </trkpt>
      <trkpt lat="44.12246" lon="3.37233">
        <ele>887</ele>
        <time>2009-07-08T15:52:28Z</time>
      </trkpt>
      <trkpt lat="44.12279" lon="3.3727">
        <ele>888</ele>
        <time>2009-07-08T15:52:43Z</time>
      </trkpt>
      <trkpt lat="44.12301" lon="3.37292">
        <ele>888</ele>
        <time>2009-07-08T15:52:54Z</time>
      </trkpt>
      <trkpt lat="44.12317" lon="3.37306">
        <ele>888</ele>
        <time>2009-07-08T15:53:06Z</time>
      </trkpt>
      <trkpt lat="44.1232" lon="3.37311">
        <ele>889</ele>
        <time>2009-07-08T15:53:21Z</time>
      </trkpt>
      <trkpt lat="44.12321" lon="3.3731">
        <ele>886</ele>
        <time>2009-07-08T15:53:49Z</time>
      </trkpt>
      <trkpt lat="44.12321" lon="3.3731">
        <ele>890</ele>
        <time>2009-07-08T15:53:50Z</time>
      </trkpt>
      <trkpt lat="44.12321" lon="3.3731">
        <ele>885</ele>
        <time>2009-07-08T15:53:54Z</time>
      </trkpt>
      <trkpt lat="44.12321" lon="3.3731">
        <ele>889</ele>
        <time>2009-07-08T15:53:55Z</time>
      </trkpt>
      <trkpt lat="44.12321" lon="3.3731">
        <ele>888</ele>
        <time>2009-07-08T15:54:06Z</time>
      </trkpt>
      <trkpt lat="44.12321" lon="3.3731">
        <ele>891</ele>
        <time>2009-07-08T15:54:18Z</time>
      </trkpt>
      <trkpt lat="44.12321" lon="3.3731">
        <ele>888</ele>
        <time>2009-07-08T15:54:19Z</time>
      </trkpt>
      <trkpt lat="44.12321" lon="3.3731">
        <ele>885</ele>
        <time>2009-07-08T15:54:22Z</time>
      </trkpt>
      <trkpt lat="44.12321" lon="3.3731">
        <ele>888</ele>
        <time>2009-07-08T15:54:23Z</time>
      </trkpt>
      <trkpt lat="44.12321" lon="3.3731">
        <ele>887</ele>
        <time>2009-07-08T15:54:34Z</time>
      </trkpt>
      <trkpt lat="44.1232" lon="3.3731">
        <ele>891</ele>
        <time>2009-07-08T15:55:10Z</time>
      </trkpt>
      <trkpt lat="44.1232" lon="3.3731">
        <ele>888</ele>
        <time>2009-07-08T15:55:11Z</time>
      </trkpt>
      <trkpt lat="44.1232" lon="3.3731">
        <ele>884</ele>
        <time>2009-07-08T15:55:13Z</time>
      </trkpt>
      <trkpt lat="44.1232" lon="3.3731">
        <ele>888</ele>
        <time>2009-07-08T15:55:14Z</time>
      </trkpt>
      <trkpt lat="44.1232" lon="3.3731">
        <ele>891</ele>
        <time>2009-07-08T15:55:15Z</time>
      </trkpt>
      <trkpt lat="44.1232" lon="3.3731">
        <ele>887</ele>
        <time>2009-07-08T15:55:16Z</time>
      </trkpt>
      <trkpt lat="44.12321" lon="3.37312">
        <ele>889</ele>
        <time>2009-07-08T15:55:37Z</time>
      </trkpt>
      <trkpt lat="44.12325" lon="3.37319">
        <ele>888</ele>
        <time>2009-07-08T15:55:41Z</time>
      </trkpt>
      <trkpt lat="44.12347" lon="3.37347">
        <ele>889</ele>
        <time>2009-07-08T15:55:55Z</time>
      </trkpt>
      <trkpt lat="44.12366" lon="3.37371">
        <ele>889</ele>
        <time>2009-07-08T15:56:06Z</time>
      </trkpt>
      <trkpt lat="44.12381" lon="3.37399">
        <ele>889</ele>
        <time>2009-07-08T15:56:17Z</time>
      </trkpt>
      <trkpt lat="44.12389" lon="3.37438">
        <ele>889</ele>
        <time>2009-07-08T15:56:30Z</time>
      </trkpt>
      <trkpt lat="44.12393" lon="3.37454">
        <ele>891</ele>
        <time>2009-07-08T15:56:38Z</time>
      </trkpt>
      <trkpt lat="44.12395" lon="3.37462">
        <ele>890</ele>
        <time>2009-07-08T15:56:41Z</time>
      </trkpt>
      <trkpt lat="44.12397" lon="3.37473">
        <ele>889</ele>
        <time>2009-07-08T15:56:45Z</time>
      </trkpt>
      <trkpt lat="44.12398" lon="3.37478">
        <ele>890</ele>
        <time>2009-07-08T15:56:47Z</time>
      </trkpt>
      <trkpt lat="44.12401" lon="3.37489">
        <ele>890</ele>
        <time>2009-07-08T15:56:58Z</time>
      </trkpt>
      <trkpt lat="44.12404" lon="3.37496">
        <ele>890</ele>
        <time>2009-07-08T15:57:08Z</time>
      </trkpt>
      <trkpt lat="44.12407" lon="3.37503">
        <ele>890</ele>
        <time>2009-07-08T15:57:15Z</time>
      </trkpt>
      <trkpt lat="44.1241" lon="3.37505">
        <ele>890</ele>
        <time>2009-07-08T15:57:17Z</time>
      </trkpt>
      <trkpt lat="44.1242" lon="3.37516">
        <ele>890</ele>
        <time>2009-07-08T15:57:27Z</time>
      </trkpt>
      <trkpt lat="44.12428" lon="3.37523">
        <ele>890</ele>
        <time>2009-07-08T15:57:33Z</time>
      </trkpt>
      <trkpt lat="44.12443" lon="3.37537">
        <ele>890</ele>
        <time>2009-07-08T15:57:45Z</time>
      </trkpt>
      <trkpt lat="44.12454" lon="3.37546">
        <ele>890</ele>
        <time>2009-07-08T15:57:53Z</time>
      </trkpt>
      <trkpt lat="44.12477" lon="3.37566">
        <ele>891</ele>
        <time>2009-07-08T15:58:07Z</time>
      </trkpt>
      <trkpt lat="44.12484" lon="3.37569">
        <ele>892</ele>
        <time>2009-07-08T15:58:09Z</time>
      </trkpt>
      <trkpt lat="44.12502" lon="3.37578">
        <ele>892</ele>
        <time>2009-07-08T15:58:27Z</time>
      </trkpt>
      <trkpt lat="44.12508" lon="3.37584">
        <ele>893</ele>
        <time>2009-07-08T15:58:56Z</time>
      </trkpt>
      <trkpt lat="44.12507" lon="3.37582">
        <ele>894</ele>
        <time>2009-07-08T15:59:25Z</time>
      </trkpt>
      <trkpt lat="44.12507" lon="3.37583">
        <ele>890</ele>
        <time>2009-07-08T16:00:35Z</time>
      </trkpt>
      <trkpt lat="44.12507" lon="3.37583">
        <ele>894</ele>
        <time>2009-07-08T16:00:36Z</time>
      </trkpt>
      <trkpt lat="44.12507" lon="3.37584">
        <ele>893</ele>
        <time>2009-07-08T16:00:40Z</time>
      </trkpt>
      <trkpt lat="44.12507" lon="3.37584">
        <ele>896</ele>
        <time>2009-07-08T16:00:41Z</time>
      </trkpt>
      <trkpt lat="44.12507" lon="3.37584">
        <ele>890</ele>
        <time>2009-07-08T16:00:42Z</time>
      </trkpt>
      <trkpt lat="44.12507" lon="3.37584">
        <ele>896</ele>
        <time>2009-07-08T16:00:44Z</time>
      </trkpt>
      <trkpt lat="44.12507" lon="3.37584">
        <ele>896</ele>
        <time>2009-07-08T16:00:45Z</time>
      </trkpt>
      <trkpt lat="44.12507" lon="3.37584">
        <ele>891</ele>
        <time>2009-07-08T16:00:46Z</time>
      </trkpt>
      <trkpt lat="44.12507" lon="3.37584">
        <ele>896</ele>
        <time>2009-07-08T16:00:47Z</time>
      </trkpt>
      <trkpt lat="44.12507" lon="3.37585">
        <ele>893</ele>
        <time>2009-07-08T16:00:50Z</time>
      </trkpt>
      <trkpt lat="44.12505" lon="3.37582">
        <ele>893</ele>
        <time>2009-07-08T16:01:45Z</time>
      </trkpt>
      <trkpt lat="44.12505" lon="3.37582">
        <ele>893</ele>
        <time>2009-07-08T16:01:47Z</time>
      </trkpt>
      <trkpt lat="44.12531" lon="3.37587">
        <ele>895</ele>
        <time>2009-07-08T16:02:01Z</time>
      </trkpt>
      <trkpt lat="44.12564" lon="3.37615">
        <ele>896</ele>
        <time>2009-07-08T16:02:16Z</time>
      </trkpt>
      <trkpt lat="44.12607" lon="3.37671">
        <ele>897</ele>
        <time>2009-07-08T16:02:34Z</time>
      </trkpt>
      <trkpt lat="44.1264" lon="3.37734">
        <ele>898</ele>
        <time>2009-07-08T16:02:50Z</time>
      </trkpt>
      <trkpt lat="44.12665" lon="3.37792">
        <ele>898</ele>
        <time>2009-07-08T16:03:03Z</time>
      </trkpt>
      <trkpt lat="44.12694" lon="3.37887">
        <ele>900</ele>
        <time>2009-07-08T16:03:24Z</time>
      </trkpt>
      <trkpt lat="44.1275" lon="3.37931">
        <ele>903</ele>
        <time>2009-07-08T16:03:43Z</time>
      </trkpt>
      <trkpt lat="44.12795" lon="3.37958">
        <ele>902</ele>
        <time>2009-07-08T16:03:57Z</time>
      </trkpt>
      <trkpt lat="44.12797" lon="3.37971">
        <ele>902</ele>
        <time>2009-07-08T16:04:01Z</time>
      </trkpt>
      <trkpt lat="44.12788" lon="3.3799">
        <ele>901</ele>
        <time>2009-07-08T16:04:05Z</time>
      </trkpt>
      <trkpt lat="44.1275" lon="3.38059">
        <ele>902</ele>
        <time>2009-07-08T16:04:19Z</time>
      </trkpt>
      <trkpt lat="44.12716" lon="3.38148">
        <ele>905</ele>
        <time>2009-07-08T16:04:37Z</time>
      </trkpt>
      <trkpt lat="44.12684" lon="3.38212">
        <ele>907</ele>
        <time>2009-07-08T16:04:53Z</time>
      </trkpt>
      <trkpt lat="44.12639" lon="3.38279">
        <ele>909</ele>
        <time>2009-07-08T16:05:12Z</time>
      </trkpt>
      <trkpt lat="44.12601" lon="3.38313">
        <ele>911</ele>
        <time>2009-07-08T16:05:26Z</time>
      </trkpt>
      <trkpt lat="44.12564" lon="3.38338">
        <ele>915</ele>
        <time>2009-07-08T16:05:39Z</time>
      </trkpt>
      <trkpt lat="44.1252" lon="3.38341">
        <ele>916</ele>
        <time>2009-07-08T16:05:52Z</time>
      </trkpt>
      <trkpt lat="44.12463" lon="3.38346">
        <ele>918</ele>
        <time>2009-07-08T16:06:09Z</time>
      </trkpt>
      <trkpt lat="44.12409" lon="3.38343">
        <ele>919</ele>
        <time>2009-07-08T16:06:25Z</time>
      </trkpt>
      <trkpt lat="44.1236" lon="3.38344">
        <ele>921</ele>
        <time>2009-07-08T16:06:39Z</time>
      </trkpt>
      <trkpt lat="44.12339" lon="3.38314">
        <ele>922</ele>
        <time>2009-07-08T16:06:49Z</time>
      </trkpt>
      <trkpt lat="44.12329" lon="3.38291">
        <ele>923</ele>
        <time>2009-07-08T16:06:55Z</time>
      </trkpt>
      <trkpt lat="44.12309" lon="3.38287">
        <ele>925</ele>
        <time>2009-07-08T16:07:02Z</time>
      </trkpt>
      <trkpt lat="44.12281" lon="3.38287">
        <ele>928</ele>
        <time>2009-07-08T16:07:13Z</time>
      </trkpt>
      <trkpt lat="44.12268" lon="3.38288">
        <ele>929</ele>
        <time>2009-07-08T16:07:18Z</time>
      </trkpt>
      <trkpt lat="44.1224" lon="3.38298">
        <ele>932</ele>
        <time>2009-07-08T16:07:31Z</time>
      </trkpt>
      <trkpt lat="44.12219" lon="3.38334">
        <ele>934</ele>
        <time>2009-07-08T16:07:47Z</time>
      </trkpt>
      <trkpt lat="44.12199" lon="3.38346">
        <ele>935</ele>
        <time>2009-07-08T16:08:00Z</time>
      </trkpt>
      <trkpt lat="44.12198" lon="3.38347">
        <ele>937</ele>
        <time>2009-07-08T16:08:23Z</time>
      </trkpt>
      <trkpt lat="44.12198" lon="3.38348">
        <ele>932</ele>
        <time>2009-07-08T16:08:26Z</time>
      </trkpt>
      <trkpt lat="44.12198" lon="3.38348">
        <ele>938</ele>
        <time>2009-07-08T16:08:27Z</time>
      </trkpt>
      <trkpt lat="44.12198" lon="3.38348">
        <ele>936</ele>
        <time>2009-07-08T16:08:30Z</time>
      </trkpt>
      <trkpt lat="44.1218" lon="3.38348">
        <ele>935</ele>
        <time>2009-07-08T16:09:04Z</time>
      </trkpt>
      <trkpt lat="44.12159" lon="3.38374">
        <ele>934</ele>
        <time>2009-07-08T16:09:14Z</time>
      </trkpt>
      <trkpt lat="44.12156" lon="3.3838">
        <ele>933</ele>
        <time>2009-07-08T16:09:15Z</time>
      </trkpt>
      <trkpt lat="44.12151" lon="3.3839">
        <ele>932</ele>
        <time>2009-07-08T16:09:17Z</time>
      </trkpt>
      <trkpt lat="44.12144" lon="3.3841">
        <ele>930</ele>
        <time>2009-07-08T16:09:20Z</time>
      </trkpt>
      <trkpt lat="44.12142" lon="3.38418">
        <ele>929</ele>
        <time>2009-07-08T16:09:21Z</time>
      </trkpt>
      <trkpt lat="44.12125" lon="3.38486">
        <ele>930</ele>
        <time>2009-07-08T16:09:31Z</time>
      </trkpt>
      <trkpt lat="44.12131" lon="3.38552">
        <ele>930</ele>
        <time>2009-07-08T16:09:44Z</time>
      </trkpt>
      <trkpt lat="44.12143" lon="3.38582">
        <ele>930</ele>
        <time>2009-07-08T16:09:50Z</time>
      </trkpt>
      <trkpt lat="44.12146" lon="3.386">
        <ele>931</ele>
        <time>2009-07-08T16:09:53Z</time>
      </trkpt>
      <trkpt lat="44.12171" lon="3.38623">
        <ele>932</ele>
        <time>2009-07-08T16:10:01Z</time>
      </trkpt>
      <trkpt lat="44.12176" lon="3.3863">
        <ele>933</ele>
        <time>2009-07-08T16:10:03Z</time>
      </trkpt>
      <trkpt lat="44.12178" lon="3.38644">
        <ele>934</ele>
        <time>2009-07-08T16:10:06Z</time>
      </trkpt>
      <trkpt lat="44.1218" lon="3.38659">
        <ele>935</ele>
        <time>2009-07-08T16:10:16Z</time>
      </trkpt>
      <trkpt lat="44.1218" lon="3.38659">
        <ele>934</ele>
        <time>2009-07-08T16:10:43Z</time>
      </trkpt>
      <trkpt lat="44.12179" lon="3.38684">
        <ele>934</ele>
        <time>2009-07-08T16:11:26Z</time>
      </trkpt>
      <trkpt lat="44.12195" lon="3.38736">
        <ele>935</ele>
        <time>2009-07-08T16:11:38Z</time>
      </trkpt>
      <trkpt lat="44.12234" lon="3.3882">
        <ele>938</ele>
        <time>2009-07-08T16:11:56Z</time>
      </trkpt>
      <trkpt lat="44.12236" lon="3.38824">
        <ele>938</ele>
        <time>2009-07-08T16:11:57Z</time>
      </trkpt>
      <trkpt lat="44.12267" lon="3.38911">
        <ele>941</ele>
        <time>2009-07-08T16:12:16Z</time>
      </trkpt>
      <trkpt lat="44.12289" lon="3.38981">
        <ele>944</ele>
        <time>2009-07-08T16:12:33Z</time>
      </trkpt>
      <trkpt lat="44.12307" lon="3.39027">
        <ele>947</ele>
        <time>2009-07-08T16:12:46Z</time>
      </trkpt>
      <trkpt lat="44.12316" lon="3.3907">
        <ele>951</ele>
        <time>2009-07-08T16:12:57Z</time>
      </trkpt>
      <trkpt lat="44.12317" lon="3.39074">
        <ele>951</ele>
        <time>2009-07-08T16:12:58Z</time>
      </trkpt>
      <trkpt lat="44.12317" lon="3.39137">
        <ele>953</ele>
        <time>2009-07-08T16:13:14Z</time>
      </trkpt>
      <trkpt lat="44.12325" lon="3.39197">
        <ele>953</ele>
        <time>2009-07-08T16:13:33Z</time>
      </trkpt>
      <trkpt lat="44.12339" lon="3.39204">
        <ele>952</ele>
        <time>2009-07-08T16:13:39Z</time>
      </trkpt>
      <trkpt lat="44.12342" lon="3.39205">
        <ele>952</ele>
        <time>2009-07-08T16:13:41Z</time>
      </trkpt>
      <trkpt lat="44.12341" lon="3.39208">
        <ele>951</ele>
        <time>2009-07-08T16:13:58Z</time>
      </trkpt>
      <trkpt lat="44.12341" lon="3.3921">
        <ele>952</ele>
        <time>2009-07-08T16:14:18Z</time>
      </trkpt>
      <trkpt lat="44.12332" lon="3.39224">
        <ele>949</ele>
        <time>2009-07-08T16:14:23Z</time>
      </trkpt>
      <trkpt lat="44.12326" lon="3.39236">
        <ele>947</ele>
        <time>2009-07-08T16:14:25Z</time>
      </trkpt>
      <trkpt lat="44.12318" lon="3.39257">
        <ele>946</ele>
        <time>2009-07-08T16:14:28Z</time>
      </trkpt>
      <trkpt lat="44.12309" lon="3.39304">
        <ele>945</ele>
        <time>2009-07-08T16:14:34Z</time>
      </trkpt>
      <trkpt lat="44.12309" lon="3.39314">
        <ele>945</ele>
        <time>2009-07-08T16:14:42Z</time>
      </trkpt>
      <trkpt lat="44.12307" lon="3.39338">
        <ele>945</ele>
        <time>2009-07-08T16:15:15Z</time>
      </trkpt>
      <trkpt lat="44.12302" lon="3.39357">
        <ele>944</ele>
        <time>2009-07-08T16:15:19Z</time>
      </trkpt>
      <trkpt lat="44.12294" lon="3.39379">
        <ele>941</ele>
        <time>2009-07-08T16:15:23Z</time>
      </trkpt>
      <trkpt lat="44.12292" lon="3.39389">
        <ele>939</ele>
        <time>2009-07-08T16:15:25Z</time>
      </trkpt>
      <trkpt lat="44.12293" lon="3.39395">
        <ele>938</ele>
        <time>2009-07-08T16:15:27Z</time>
      </trkpt>
      <trkpt lat="44.12295" lon="3.39402">
        <ele>939</ele>
        <time>2009-07-08T16:15:29Z</time>
      </trkpt>
      <trkpt lat="44.12292" lon="3.39417">
        <ele>938</ele>
        <time>2009-07-08T16:15:34Z</time>
      </trkpt>
      <trkpt lat="44.12285" lon="3.39416">
        <ele>937</ele>
        <time>2009-07-08T16:15:36Z</time>
      </trkpt>
      <trkpt lat="44.12257" lon="3.39411">
        <ele>932</ele>
        <time>2009-07-08T16:15:41Z</time>
      </trkpt>
      <trkpt lat="44.12252" lon="3.39411">
        <ele>932</ele>
        <time>2009-07-08T16:15:42Z</time>
      </trkpt>
      <trkpt lat="44.12231" lon="3.39415">
        <ele>928</ele>
        <time>2009-07-08T16:15:46Z</time>
      </trkpt>
      <trkpt lat="44.12221" lon="3.39423">
        <ele>926</ele>
        <time>2009-07-08T16:15:48Z</time>
      </trkpt>
      <trkpt lat="44.12208" lon="3.39438">
        <ele>924</ele>
        <time>2009-07-08T16:15:51Z</time>
      </trkpt>
      <trkpt lat="44.12198" lon="3.39463">
        <ele>922</ele>
        <time>2009-07-08T16:15:55Z</time>
      </trkpt>
      <trkpt lat="44.12195" lon="3.39469">
        <ele>920</ele>
        <time>2009-07-08T16:15:56Z</time>
      </trkpt>
      <trkpt lat="44.12187" lon="3.39484">
        <ele>918</ele>
        <time>2009-07-08T16:15:58Z</time>
      </trkpt>
      <trkpt lat="44.12172" lon="3.39501">
        <ele>916</ele>
        <time>2009-07-08T16:16:01Z</time>
      </trkpt>
      <trkpt lat="44.12146" lon="3.39507">
        <ele>913</ele>
        <time>2009-07-08T16:16:06Z</time>
      </trkpt>
      <trkpt lat="44.12115" lon="3.39504">
        <ele>908</ele>
        <time>2009-07-08T16:16:12Z</time>
      </trkpt>
      <trkpt lat="44.121" lon="3.39517">
        <ele>905</ele>
        <time>2009-07-08T16:16:15Z</time>
      </trkpt>
      <trkpt lat="44.12089" lon="3.39524">
        <ele>903</ele>
        <time>2009-07-08T16:16:17Z</time>
      </trkpt>
      <trkpt lat="44.12078" lon="3.3953">
        <ele>901</ele>
        <time>2009-07-08T16:16:19Z</time>
      </trkpt>
      <trkpt lat="44.12065" lon="3.39536">
        <ele>900</ele>
        <time>2009-07-08T16:16:21Z</time>
      </trkpt>
      <trkpt lat="44.12041" lon="3.39551">
        <ele>895</ele>
        <time>2009-07-08T16:16:25Z</time>
      </trkpt>
      <trkpt lat="44.12024" lon="3.39566">
        <ele>891</ele>
        <time>2009-07-08T16:16:28Z</time>
      </trkpt>
      <trkpt lat="44.12012" lon="3.39576">
        <ele>888</ele>
        <time>2009-07-08T16:16:30Z</time>
      </trkpt>
      <trkpt lat="44.11986" lon="3.39599">
        <ele>885</ele>
        <time>2009-07-08T16:16:34Z</time>
      </trkpt>
      <trkpt lat="44.11964" lon="3.39616">
        <ele>881</ele>
        <time>2009-07-08T16:16:37Z</time>
      </trkpt>
      <trkpt lat="44.11958" lon="3.39623">
        <ele>879</ele>
        <time>2009-07-08T16:16:38Z</time>
      </trkpt>
      <trkpt lat="44.11923" lon="3.39659">
        <ele>876</ele>
        <time>2009-07-08T16:16:43Z</time>
      </trkpt>
      <trkpt lat="44.11916" lon="3.39666">
        <ele>876</ele>
        <time>2009-07-08T16:16:44Z</time>
      </trkpt>
      <trkpt lat="44.11904" lon="3.39676">
        <ele>874</ele>
        <time>2009-07-08T16:16:46Z</time>
      </trkpt>
      <trkpt lat="44.11897" lon="3.39688">
        <ele>876</ele>
        <time>2009-07-08T16:16:53Z</time>
      </trkpt>
      <trkpt lat="44.11894" lon="3.3969">
        <ele>876</ele>
        <time>2009-07-08T16:17:12Z</time>
      </trkpt>
      <trkpt lat="44.11901" lon="3.39683">
        <ele>875</ele>
        <time>2009-07-08T16:17:30Z</time>
      </trkpt>
      <trkpt lat="44.11902" lon="3.39681">
        <ele>875</ele>
        <time>2009-07-08T16:17:36Z</time>
      </trkpt>
      <trkpt lat="44.11905" lon="3.39678">
        <ele>874</ele>
        <time>2009-07-08T16:17:38Z</time>
      </trkpt>
      <trkpt lat="44.11909" lon="3.39676">
        <ele>873</ele>
        <time>2009-07-08T16:17:41Z</time>
      </trkpt>
      <trkpt lat="44.11914" lon="3.39673">
        <ele>872</ele>
        <time>2009-07-08T16:17:43Z</time>
      </trkpt>
      <trkpt lat="44.11918" lon="3.39672">
        <ele>871</ele>
        <time>2009-07-08T16:17:45Z</time>
      </trkpt>
      <trkpt lat="44.11924" lon="3.39669">
        <ele>870</ele>
        <time>2009-07-08T16:17:47Z</time>
      </trkpt>
      <trkpt lat="44.11931" lon="3.39668">
        <ele>868</ele>
        <time>2009-07-08T16:17:49Z</time>
      </trkpt>
      <trkpt lat="44.11942" lon="3.39668">
        <ele>868</ele>
        <time>2009-07-08T16:17:51Z</time>
      </trkpt>
      <trkpt lat="44.11967" lon="3.39669">
        <ele>869</ele>
        <time>2009-07-08T16:18:00Z</time>
      </trkpt>
      <trkpt lat="44.11967" lon="3.39672">
        <ele>869</ele>
        <time>2009-07-08T16:18:02Z</time>
      </trkpt>
      <trkpt lat="44.11956" lon="3.39683">
        <ele>867</ele>
        <time>2009-07-08T16:18:07Z</time>
      </trkpt>
      <trkpt lat="44.11949" lon="3.3969">
        <ele>864</ele>
        <time>2009-07-08T16:18:09Z</time>
      </trkpt>
      <trkpt lat="44.11938" lon="3.397">
        <ele>861</ele>
        <time>2009-07-08T16:18:11Z</time>
      </trkpt>
      <trkpt lat="44.1191" lon="3.39724">
        <ele>859</ele>
        <time>2009-07-08T16:18:15Z</time>
      </trkpt>
      <trkpt lat="44.11898" lon="3.39738">
        <ele>863</ele>
        <time>2009-07-08T16:18:19Z</time>
      </trkpt>
      <trkpt lat="44.11901" lon="3.39732">
        <ele>862</ele>
        <time>2009-07-08T16:18:32Z</time>
      </trkpt>
      <trkpt lat="44.11898" lon="3.39735">
        <ele>861</ele>
        <time>2009-07-08T16:18:34Z</time>
      </trkpt>
      <trkpt lat="44.11892" lon="3.3974">
        <ele>860</ele>
        <time>2009-07-08T16:18:37Z</time>
      </trkpt>
      <trkpt lat="44.11882" lon="3.39745">
        <ele>859</ele>
        <time>2009-07-08T16:18:40Z</time>
      </trkpt>
      <trkpt lat="44.11868" lon="3.39754">
        <ele>858</ele>
        <time>2009-07-08T16:18:49Z</time>
      </trkpt>
      <trkpt lat="44.11862" lon="3.39756">
        <ele>856</ele>
        <time>2009-07-08T16:19:13Z</time>
      </trkpt>
      <trkpt lat="44.11855" lon="3.39761">
        <ele>856</ele>
        <time>2009-07-08T16:19:33Z</time>
      </trkpt>
      <trkpt lat="44.11846" lon="3.39762">
        <ele>858</ele>
        <time>2009-07-08T16:19:46Z</time>
      </trkpt>
      <trkpt lat="44.11844" lon="3.39762">
        <ele>858</ele>
        <time>2009-07-08T16:19:47Z</time>
      </trkpt>
      <trkpt lat="44.11837" lon="3.39761">
        <ele>859</ele>
        <time>2009-07-08T16:19:52Z</time>
      </trkpt>
      <trkpt lat="44.11818" lon="3.39769">
        <ele>859</ele>
        <time>2009-07-08T16:20:03Z</time>
      </trkpt>
      <trkpt lat="44.11816" lon="3.39771">
        <ele>859</ele>
        <time>2009-07-08T16:20:04Z</time>
      </trkpt>
      <trkpt lat="44.11811" lon="3.39775">
        <ele>860</ele>
        <time>2009-07-08T16:20:06Z</time>
      </trkpt>
      <trkpt lat="44.11802" lon="3.39788">
        <ele>858</ele>
        <time>2009-07-08T16:20:09Z</time>
      </trkpt>
      <trkpt lat="44.11783" lon="3.39811">
        <ele>857</ele>
        <time>2009-07-08T16:20:16Z</time>
      </trkpt>
      <trkpt lat="44.11775" lon="3.39817">
        <ele>857</ele>
        <time>2009-07-08T16:20:18Z</time>
      </trkpt>
      <trkpt lat="44.11749" lon="3.39847">
        <ele>857</ele>
        <time>2009-07-08T16:20:29Z</time>
      </trkpt>
      <trkpt lat="44.11735" lon="3.39862">
        <ele>856</ele>
        <time>2009-07-08T16:20:34Z</time>
      </trkpt>
      <trkpt lat="44.11718" lon="3.3989">
        <ele>853</ele>
        <time>2009-07-08T16:20:40Z</time>
      </trkpt>
      <trkpt lat="44.11707" lon="3.39915">
        <ele>850</ele>
        <time>2009-07-08T16:20:45Z</time>
      </trkpt>
      <trkpt lat="44.11704" lon="3.39926">
        <ele>849</ele>
        <time>2009-07-08T16:20:47Z</time>
      </trkpt>
      <trkpt lat="44.11701" lon="3.39943">
        <ele>846</ele>
        <time>2009-07-08T16:20:50Z</time>
      </trkpt>
      <trkpt lat="44.11695" lon="3.39963">
        <ele>841</ele>
        <time>2009-07-08T16:20:53Z</time>
      </trkpt>
      <trkpt lat="44.11692" lon="3.3997">
        <ele>840</ele>
        <time>2009-07-08T16:20:54Z</time>
      </trkpt>
      <trkpt lat="44.11689" lon="3.39984">
        <ele>840</ele>
        <time>2009-07-08T16:20:56Z</time>
      </trkpt>
      <trkpt lat="44.11684" lon="3.40019">
        <ele>839</ele>
        <time>2009-07-08T16:21:01Z</time>
      </trkpt>
      <trkpt lat="44.11679" lon="3.40031">
        <ele>840</ele>
        <time>2009-07-08T16:21:03Z</time>
      </trkpt>
      <trkpt lat="44.11673" lon="3.40058">
        <ele>835</ele>
        <time>2009-07-08T16:21:07Z</time>
      </trkpt>
      <trkpt lat="44.11669" lon="3.40071">
        <ele>834</ele>
        <time>2009-07-08T16:21:09Z</time>
      </trkpt>
      <trkpt lat="44.11666" lon="3.40083">
        <ele>834</ele>
        <time>2009-07-08T16:21:11Z</time>
      </trkpt>
      <trkpt lat="44.11663" lon="3.4011">
        <ele>832</ele>
        <time>2009-07-08T16:21:16Z</time>
      </trkpt>
      <trkpt lat="44.11657" lon="3.40141">
        <ele>829</ele>
        <time>2009-07-08T16:21:23Z</time>
      </trkpt>
      <trkpt lat="44.11655" lon="3.40147">
        <ele>827</ele>
        <time>2009-07-08T16:21:24Z</time>
      </trkpt>
      <trkpt lat="44.11647" lon="3.40176">
        <ele>824</ele>
        <time>2009-07-08T16:21:29Z</time>
      </trkpt>
      <trkpt lat="44.11628" lon="3.40222">
        <ele>819</ele>
        <time>2009-07-08T16:21:36Z</time>
      </trkpt>
      <trkpt lat="44.11625" lon="3.40228">
        <ele>819</ele>
        <time>2009-07-08T16:21:37Z</time>
      </trkpt>
      <trkpt lat="44.11608" lon="3.40252">
        <ele>817</ele>
        <time>2009-07-08T16:21:41Z</time>
      </trkpt>
      <trkpt lat="44.11596" lon="3.40268">
        <ele>813</ele>
        <time>2009-07-08T16:21:44Z</time>
      </trkpt>
      <trkpt lat="44.11572" lon="3.40291">
        <ele>810</ele>
        <time>2009-07-08T16:21:49Z</time>
      </trkpt>
      <trkpt lat="44.11562" lon="3.40298">
        <ele>808</ele>
        <time>2009-07-08T16:21:51Z</time>
      </trkpt>
      <trkpt lat="44.1154" lon="3.4031">
        <ele>805</ele>
        <time>2009-07-08T16:21:55Z</time>
      </trkpt>
      <trkpt lat="44.1152" lon="3.40316">
        <ele>803</ele>
        <time>2009-07-08T16:21:58Z</time>
      </trkpt>
      <trkpt lat="44.11507" lon="3.4032">
        <ele>801</ele>
        <time>2009-07-08T16:22:00Z</time>
      </trkpt>
      <trkpt lat="44.11465" lon="3.40337">
        <ele>798</ele>
        <time>2009-07-08T16:22:08Z</time>
      </trkpt>
      <trkpt lat="44.11458" lon="3.40342">
        <ele>798</ele>
        <time>2009-07-08T16:22:10Z</time>
      </trkpt>
      <trkpt lat="44.11454" lon="3.40345">
        <ele>797</ele>
        <time>2009-07-08T16:22:11Z</time>
      </trkpt>
      <trkpt lat="44.11445" lon="3.40348">
        <ele>796</ele>
        <time>2009-07-08T16:22:13Z</time>
      </trkpt>
      <trkpt lat="44.1142" lon="3.40353">
        <ele>795</ele>
        <time>2009-07-08T16:22:21Z</time>
      </trkpt>
      <trkpt lat="44.11414" lon="3.40354">
        <ele>793</ele>
        <time>2009-07-08T16:22:38Z</time>
      </trkpt>
      <trkpt lat="44.1141" lon="3.40353">
        <ele>793</ele>
        <time>2009-07-08T16:22:44Z</time>
      </trkpt>
      <trkpt lat="44.114" lon="3.40343">
        <ele>790</ele>
        <time>2009-07-08T16:22:51Z</time>
      </trkpt>
      <trkpt lat="44.11395" lon="3.40327">
        <ele>789</ele>
        <time>2009-07-08T16:22:58Z</time>
      </trkpt>
      <trkpt lat="44.1139" lon="3.40323">
        <ele>788</ele>
        <time>2009-07-08T16:23:01Z</time>
      </trkpt>
      <trkpt lat="44.11385" lon="3.40314">
        <ele>785</ele>
        <time>2009-07-08T16:23:13Z</time>
      </trkpt>
      <trkpt lat="44.1138" lon="3.4031">
        <ele>784</ele>
        <time>2009-07-08T16:23:26Z</time>
      </trkpt>
      <trkpt lat="44.11377" lon="3.403">
        <ele>783</ele>
        <time>2009-07-08T16:23:36Z</time>
      </trkpt>
      <trkpt lat="44.11367" lon="3.40281">
        <ele>782</ele>
        <time>2009-07-08T16:23:45Z</time>
      </trkpt>
      <trkpt lat="44.11351" lon="3.40268">
        <ele>779</ele>
        <time>2009-07-08T16:23:52Z</time>
      </trkpt>
      <trkpt lat="44.11345" lon="3.40267">
        <ele>777</ele>
        <time>2009-07-08T16:23:54Z</time>
      </trkpt>
      <trkpt lat="44.11338" lon="3.40263">
        <ele>776</ele>
        <time>2009-07-08T16:23:58Z</time>
      </trkpt>
      <trkpt lat="44.11332" lon="3.40261">
        <ele>774</ele>
        <time>2009-07-08T16:24:01Z</time>
      </trkpt>
      <trkpt lat="44.11329" lon="3.40259">
        <ele>774</ele>
        <time>2009-07-08T16:24:02Z</time>
      </trkpt>
      <trkpt lat="44.11323" lon="3.40253">
        <ele>773</ele>
        <time>2009-07-08T16:24:05Z</time>
      </trkpt>
      <trkpt lat="44.11314" lon="3.40251">
        <ele>771</ele>
        <time>2009-07-08T16:24:08Z</time>
      </trkpt>
      <trkpt lat="44.11308" lon="3.4025">
        <ele>770</ele>
        <time>2009-07-08T16:24:10Z</time>
      </trkpt>
      <trkpt lat="44.1129" lon="3.40242">
        <ele>767</ele>
        <time>2009-07-08T16:24:17Z</time>
      </trkpt>
      <trkpt lat="44.1128" lon="3.40236">
        <ele>765</ele>
        <time>2009-07-08T16:24:21Z</time>
      </trkpt>
      <trkpt lat="44.11266" lon="3.4023">
        <ele>761</ele>
        <time>2009-07-08T16:24:26Z</time>
      </trkpt>
      <trkpt lat="44.11263" lon="3.40228">
        <ele>761</ele>
        <time>2009-07-08T16:24:27Z</time>
      </trkpt>
      <trkpt lat="44.11248" lon="3.40222">
        <ele>758</ele>
        <time>2009-07-08T16:24:33Z</time>
      </trkpt>
      <trkpt lat="44.11232" lon="3.40216">
        <ele>756</ele>
        <time>2009-07-08T16:24:38Z</time>
      </trkpt>
      <trkpt lat="44.11225" lon="3.40212">
        <ele>755</ele>
        <time>2009-07-08T16:24:41Z</time>
      </trkpt>
      <trkpt lat="44.11203" lon="3.40204">
        <ele>752</ele>
        <time>2009-07-08T16:24:49Z</time>
      </trkpt>
      <trkpt lat="44.11196" lon="3.40195">
        <ele>750</ele>
        <time>2009-07-08T16:25:00Z</time>
      </trkpt>
      <trkpt lat="44.11194" lon="3.40191">
        <ele>750</ele>
        <time>2009-07-08T16:25:08Z</time>
      </trkpt>
      <trkpt lat="44.11191" lon="3.40185">
        <ele>748</ele>
        <time>2009-07-08T16:25:14Z</time>
      </trkpt>
      <trkpt lat="44.11189" lon="3.40189">
        <ele>747</ele>
        <time>2009-07-08T16:25:16Z</time>
      </trkpt>
      <trkpt lat="44.11188" lon="3.40199">
        <ele>747</ele>
        <time>2009-07-08T16:25:30Z</time>
      </trkpt>
      <trkpt lat="44.11185" lon="3.40202">
        <ele>748</ele>
        <time>2009-07-08T16:26:03Z</time>
      </trkpt>
      <trkpt lat="44.11189" lon="3.40204">
        <ele>747</ele>
        <time>2009-07-08T16:28:59Z</time>
      </trkpt>
      <trkpt lat="44.11198" lon="3.40235">
        <ele>747</ele>
        <time>2009-07-08T16:29:11Z</time>
      </trkpt>
      <trkpt lat="44.11235" lon="3.40262">
        <ele>745</ele>
        <time>2009-07-08T16:29:23Z</time>
      </trkpt>
      <trkpt lat="44.11272" lon="3.40289">
        <ele>746</ele>
        <time>2009-07-08T16:29:34Z</time>
      </trkpt>
      <trkpt lat="44.11294" lon="3.40317">
        <ele>746</ele>
        <time>2009-07-08T16:29:44Z</time>
      </trkpt>
      <trkpt lat="44.11313" lon="3.40359">
        <ele>746</ele>
        <time>2009-07-08T16:29:55Z</time>
      </trkpt>
      <trkpt lat="44.11313" lon="3.40402">
        <ele>745</ele>
        <time>2009-07-08T16:30:05Z</time>
      </trkpt>
      <trkpt lat="44.11318" lon="3.40424">
        <ele>745</ele>
        <time>2009-07-08T16:30:10Z</time>
      </trkpt>
      <trkpt lat="44.11325" lon="3.40439">
        <ele>743</ele>
        <time>2009-07-08T16:30:13Z</time>
      </trkpt>
      <trkpt lat="44.11331" lon="3.40462">
        <ele>742</ele>
        <time>2009-07-08T16:30:17Z</time>
      </trkpt>
      <trkpt lat="44.11331" lon="3.40475">
        <ele>742</ele>
        <time>2009-07-08T16:30:19Z</time>
      </trkpt>
      <trkpt lat="44.11329" lon="3.40501">
        <ele>739</ele>
        <time>2009-07-08T16:30:23Z</time>
      </trkpt>
      <trkpt lat="44.11323" lon="3.40528">
        <ele>735</ele>
        <time>2009-07-08T16:30:28Z</time>
      </trkpt>
      <trkpt lat="44.11321" lon="3.40544">
        <ele>735</ele>
        <time>2009-07-08T16:30:36Z</time>
      </trkpt>
      <trkpt lat="44.11326" lon="3.4054">
        <ele>735</ele>
        <time>2009-07-08T16:31:08Z</time>
      </trkpt>
      <trkpt lat="44.11335" lon="3.40576">
        <ele>735</ele>
        <time>2009-07-08T16:31:20Z</time>
      </trkpt>
      <trkpt lat="44.11358" lon="3.40599">
        <ele>736</ele>
        <time>2009-07-08T16:31:29Z</time>
      </trkpt>
      <trkpt lat="44.11395" lon="3.40589">
        <ele>738</ele>
        <time>2009-07-08T16:31:39Z</time>
      </trkpt>
      <trkpt lat="44.11402" lon="3.40593">
        <ele>737</ele>
        <time>2009-07-08T16:31:41Z</time>
      </trkpt>
      <trkpt lat="44.11418" lon="3.40621">
        <ele>737</ele>
        <time>2009-07-08T16:31:47Z</time>
      </trkpt>
      <trkpt lat="44.1142" lon="3.40637">
        <ele>736</ele>
        <time>2009-07-08T16:31:50Z</time>
      </trkpt>
      <trkpt lat="44.11434" lon="3.40661">
        <ele>736</ele>
        <time>2009-07-08T16:31:55Z</time>
      </trkpt>
      <trkpt lat="44.11505" lon="3.40701">
        <ele>737</ele>
        <time>2009-07-08T16:32:11Z</time>
      </trkpt>
      <trkpt lat="44.11534" lon="3.40713">
        <ele>737</ele>
        <time>2009-07-08T16:32:18Z</time>
      </trkpt>
      <trkpt lat="44.11547" lon="3.40738">
        <ele>737</ele>
        <time>2009-07-08T16:32:23Z</time>
      </trkpt>
      <trkpt lat="44.11558" lon="3.40825">
        <ele>737</ele>
        <time>2009-07-08T16:32:37Z</time>
      </trkpt>
      <trkpt lat="44.11554" lon="3.40864">
        <ele>737</ele>
        <time>2009-07-08T16:32:43Z</time>
      </trkpt>
      <trkpt lat="44.11559" lon="3.41013">
        <ele>736</ele>
        <time>2009-07-08T16:33:05Z</time>
      </trkpt>
      <trkpt lat="44.11555" lon="3.41095">
        <ele>737</ele>
        <time>2009-07-08T16:33:19Z</time>
      </trkpt>
      <trkpt lat="44.11554" lon="3.41159">
        <ele>737</ele>
        <time>2009-07-08T16:33:32Z</time>
      </trkpt>
      <trkpt lat="44.11562" lon="3.41188">
        <ele>738</ele>
        <time>2009-07-08T16:33:41Z</time>
      </trkpt>
      <trkpt lat="44.11567" lon="3.41194">
        <ele>738</ele>
        <time>2009-07-08T16:33:53Z</time>
      </trkpt>
      <trkpt lat="44.11568" lon="3.41193">
        <ele>738</ele>
        <time>2009-07-08T16:34:34Z</time>
      </trkpt>
      <trkpt lat="44.11569" lon="3.41193">
        <ele>738</ele>
        <time>2009-07-08T16:35:08Z</time>
      </trkpt>
      <trkpt lat="44.11569" lon="3.41195">
        <ele>738</ele>
        <time>2009-07-08T16:35:32Z</time>
      </trkpt>
    </trkseg>
  </trk>
  <trk>
    <name><![CDATA[D01]]></name>
    <trkseg>
      <trkpt lat="44.11566" lon="3.41184">
        <ele>704</ele>
        <time>2009-07-09T06:30:22Z</time>
      </trkpt>
      <trkpt lat="44.11565" lon="3.41183">
        <ele>709</ele>
        <time>2009-07-09T06:30:38Z</time>
      </trkpt>
      <trkpt lat="44.11565" lon="3.41183">
        <ele>709</ele>
        <time>2009-07-09T06:30:39Z</time>
      </trkpt>
      <trkpt lat="44.11565" lon="3.41183">
        <ele>714</ele>
        <time>2009-07-09T06:30:47Z</time>
      </trkpt>
      <trkpt lat="44.11565" lon="3.41183">
        <ele>714</ele>
        <time>2009-07-09T06:30:48Z</time>
      </trkpt>
      <trkpt lat="44.11565" lon="3.41183">
        <ele>715</ele>
        <time>2009-07-09T06:30:53Z</time>
      </trkpt>
      <trkpt lat="44.11565" lon="3.41182">
        <ele>719</ele>
        <time>2009-07-09T06:31:06Z</time>
      </trkpt>
      <trkpt lat="44.11565" lon="3.41182">
        <ele>719</ele>
        <time>2009-07-09T06:31:07Z</time>
      </trkpt>
      <trkpt lat="44.11565" lon="3.41184">
        <ele>722</ele>
        <time>2009-07-09T06:31:36Z</time>
      </trkpt>
      <trkpt lat="44.11565" lon="3.41184">
        <ele>725</ele>
        <time>2009-07-09T06:31:47Z</time>
      </trkpt>
      <trkpt lat="44.11561" lon="3.41188">
        <ele>728</ele>
        <time>2009-07-09T06:32:07Z</time>
      </trkpt>
      <trkpt lat="44.11559" lon="3.41181">
        <ele>732</ele>
        <time>2009-07-09T06:32:40Z</time>
      </trkpt>
      <trkpt lat="44.11563" lon="3.41178">
        <ele>731</ele>
        <time>2009-07-09T06:35:29Z</time>
      </trkpt>
      <trkpt lat="44.11565" lon="3.41179">
        <ele>732</ele>
        <time>2009-07-09T06:37:52Z</time>
      </trkpt>
      <trkpt lat="44.11563" lon="3.41177">
        <ele>731</ele>
        <time>2009-07-09T06:38:28Z</time>
      </trkpt>
      <trkpt lat="44.11559" lon="3.41158">
        <ele>731</ele>
        <time>2009-07-09T06:38:38Z</time>
      </trkpt>
      <trkpt lat="44.11547" lon="3.41159">
        <ele>730</ele>
        <time>2009-07-09T06:38:46Z</time>
      </trkpt>
      <trkpt lat="44.11552" lon="3.41211">
        <ele>730</ele>
        <time>2009-07-09T06:39:03Z</time>
      </trkpt>
      <trkpt lat="44.11568" lon="3.41261">
        <ele>730</ele>
        <time>2009-07-09T06:39:18Z</time>
      </trkpt>
      <trkpt lat="44.11584" lon="3.4132">
        <ele>730</ele>
        <time>2009-07-09T06:39:35Z</time>
      </trkpt>
      <trkpt lat="44.11595" lon="3.41382">
        <ele>731</ele>
        <time>2009-07-09T06:39:52Z</time>
      </trkpt>
      <trkpt lat="44.11597" lon="3.41455">
        <ele>733</ele>
        <time>2009-07-09T06:40:12Z</time>
      </trkpt>
      <trkpt lat="44.1158" lon="3.41528">
        <ele>735</ele>
        <time>2009-07-09T06:40:32Z</time>
      </trkpt>
      <trkpt lat="44.11575" lon="3.416">
        <ele>735</ele>
        <time>2009-07-09T06:40:50Z</time>
      </trkpt>
      <trkpt lat="44.11602" lon="3.41666">
        <ele>736</ele>
        <time>2009-07-09T06:41:08Z</time>
      </trkpt>
      <trkpt lat="44.11643" lon="3.41727">
        <ele>740</ele>
        <time>2009-07-09T06:41:28Z</time>
      </trkpt>
      <trkpt lat="44.11632" lon="3.4177">
        <ele>740</ele>
        <time>2009-07-09T06:41:39Z</time>
      </trkpt>
      <trkpt lat="44.11606" lon="3.41762">
        <ele>741</ele>
        <time>2009-07-09T06:41:49Z</time>
      </trkpt>
      <trkpt lat="44.11568" lon="3.41706">
        <ele>742</ele>
        <time>2009-07-09T06:42:04Z</time>
      </trkpt>
      <trkpt lat="44.11538" lon="3.41663">
        <ele>743</ele>
        <time>2009-07-09T06:42:19Z</time>
      </trkpt>
      <trkpt lat="44.115" lon="3.41648">
        <ele>744</ele>
        <time>2009-07-09T06:42:31Z</time>
      </trkpt>
      <trkpt lat="44.11469" lon="3.4168">
        <ele>745</ele>
        <time>2009-07-09T06:42:43Z</time>
      </trkpt>
      <trkpt lat="44.11469" lon="3.41744">
        <ele>746</ele>
        <time>2009-07-09T06:42:56Z</time>
      </trkpt>
      <trkpt lat="44.11442" lon="3.41813">
        <ele>747</ele>
        <time>2009-07-09T06:43:14Z</time>
      </trkpt>
      <trkpt lat="44.11413" lon="3.41866">
        <ele>750</ele>
        <time>2009-07-09T06:43:29Z</time>
      </trkpt>
      <trkpt lat="44.11411" lon="3.41869">
        <ele>750</ele>
        <time>2009-07-09T06:43:30Z</time>
      </trkpt>
      <trkpt lat="44.11398" lon="3.41941">
        <ele>752</ele>
        <time>2009-07-09T06:43:47Z</time>
      </trkpt>
      <trkpt lat="44.11399" lon="3.42027">
        <ele>755</ele>
        <time>2009-07-09T06:44:08Z</time>
      </trkpt>
      <trkpt lat="44.11399" lon="3.42051">
        <ele>757</ele>
        <time>2009-07-09T06:44:14Z</time>
      </trkpt>
      <trkpt lat="44.11401" lon="3.42129">
        <ele>758</ele>
        <time>2009-07-09T06:44:35Z</time>
      </trkpt>
      <trkpt lat="44.11402" lon="3.4219">
        <ele>762</ele>
        <time>2009-07-09T06:44:51Z</time>
      </trkpt>
      <trkpt lat="44.11403" lon="3.42235">
        <ele>763</ele>
        <time>2009-07-09T06:45:04Z</time>
      </trkpt>
      <trkpt lat="44.11411" lon="3.42292">
        <ele>764</ele>
        <time>2009-07-09T06:45:19Z</time>
      </trkpt>
      <trkpt lat="44.11417" lon="3.42347">
        <ele>767</ele>
        <time>2009-07-09T06:45:33Z</time>
      </trkpt>
      <trkpt lat="44.11421" lon="3.42377">
        <ele>769</ele>
        <time>2009-07-09T06:45:41Z</time>
      </trkpt>
      <trkpt lat="44.11439" lon="3.42441">
        <ele>771</ele>
        <time>2009-07-09T06:45:59Z</time>
      </trkpt>
      <trkpt lat="44.11437" lon="3.42497">
        <ele>774</ele>
        <time>2009-07-09T06:46:14Z</time>
      </trkpt>
      <trkpt lat="44.11425" lon="3.42565">
        <ele>776</ele>
        <time>2009-07-09T06:46:33Z</time>
      </trkpt>
      <trkpt lat="44.11398" lon="3.42605">
        <ele>778</ele>
        <time>2009-07-09T06:46:48Z</time>
      </trkpt>
      <trkpt lat="44.11361" lon="3.42652">
        <ele>781</ele>
        <time>2009-07-09T06:47:08Z</time>
      </trkpt>
      <trkpt lat="44.11322" lon="3.42682">
        <ele>784</ele>
        <time>2009-07-09T06:47:25Z</time>
      </trkpt>
      <trkpt lat="44.11274" lon="3.42702">
        <ele>787</ele>
        <time>2009-07-09T06:47:44Z</time>
      </trkpt>
      <trkpt lat="44.11242" lon="3.42707">
        <ele>789</ele>
        <time>2009-07-09T06:47:56Z</time>
      </trkpt>
      <trkpt lat="44.11203" lon="3.42715">
        <ele>790</ele>
        <time>2009-07-09T06:48:11Z</time>
      </trkpt>
      <trkpt lat="44.11188" lon="3.42721">
        <ele>792</ele>
        <time>2009-07-09T06:48:24Z</time>
      </trkpt>
      <trkpt lat="44.11188" lon="3.42719">
        <ele>792</ele>
        <time>2009-07-09T06:49:01Z</time>
      </trkpt>
      <trkpt lat="44.11177" lon="3.42728">
        <ele>793</ele>
        <time>2009-07-09T06:49:15Z</time>
      </trkpt>
      <trkpt lat="44.11156" lon="3.42745">
        <ele>794</ele>
        <time>2009-07-09T06:49:25Z</time>
      </trkpt>
      <trkpt lat="44.11151" lon="3.42769">
        <ele>796</ele>
        <time>2009-07-09T06:49:34Z</time>
      </trkpt>
      <trkpt lat="44.11172" lon="3.4281">
        <ele>796</ele>
        <time>2009-07-09T06:49:49Z</time>
      </trkpt>
      <trkpt lat="44.11185" lon="3.4286">
        <ele>798</ele>
        <time>2009-07-09T06:50:06Z</time>
      </trkpt>
      <trkpt lat="44.11152" lon="3.42877">
        <ele>800</ele>
        <time>2009-07-09T06:50:20Z</time>
      </trkpt>
      <trkpt lat="44.11126" lon="3.42913">
        <ele>802</ele>
        <time>2009-07-09T06:50:35Z</time>
      </trkpt>
      <trkpt lat="44.11097" lon="3.42954">
        <ele>804</ele>
        <time>2009-07-09T06:50:52Z</time>
      </trkpt>
      <trkpt lat="44.11048" lon="3.42973">
        <ele>806</ele>
        <time>2009-07-09T06:51:11Z</time>
      </trkpt>
      <trkpt lat="44.11007" lon="3.43001">
        <ele>809</ele>
        <time>2009-07-09T06:51:28Z</time>
      </trkpt>
      <trkpt lat="44.10999" lon="3.43043">
        <ele>811</ele>
        <time>2009-07-09T06:51:41Z</time>
      </trkpt>
      <trkpt lat="44.11037" lon="3.43058">
        <ele>813</ele>
        <time>2009-07-09T06:51:55Z</time>
      </trkpt>
      <trkpt lat="44.11048" lon="3.43061">
        <ele>814</ele>
        <time>2009-07-09T06:51:59Z</time>
      </trkpt>
      <trkpt lat="44.11099" lon="3.43068">
        <ele>817</ele>
        <time>2009-07-09T06:52:18Z</time>
      </trkpt>
      <trkpt lat="44.11142" lon="3.4309">
        <ele>819</ele>
        <time>2009-07-09T06:52:35Z</time>
      </trkpt>
      <trkpt lat="44.11141" lon="3.43146">
        <ele>822</ele>
        <time>2009-07-09T06:52:49Z</time>
      </trkpt>
      <trkpt lat="44.11155" lon="3.43202">
        <ele>824</ele>
        <time>2009-07-09T06:53:05Z</time>
      </trkpt>
      <trkpt lat="44.11192" lon="3.43248">
        <ele>827</ele>
        <time>2009-07-09T06:53:24Z</time>
      </trkpt>
      <trkpt lat="44.11215" lon="3.43305">
        <ele>829</ele>
        <time>2009-07-09T06:53:41Z</time>
      </trkpt>
      <trkpt lat="44.11255" lon="3.43354">
        <ele>832</ele>
        <time>2009-07-09T06:54:01Z</time>
      </trkpt>
      <trkpt lat="44.11289" lon="3.43382">
        <ele>835</ele>
        <time>2009-07-09T06:54:16Z</time>
      </trkpt>
      <trkpt lat="44.11321" lon="3.43419">
        <ele>836</ele>
        <time>2009-07-09T06:54:32Z</time>
      </trkpt>
      <trkpt lat="44.11335" lon="3.43421">
        <ele>838</ele>
        <time>2009-07-09T06:54:37Z</time>
      </trkpt>
      <trkpt lat="44.11343" lon="3.43419">
        <ele>840</ele>
        <time>2009-07-09T06:54:40Z</time>
      </trkpt>
      <trkpt lat="44.11392" lon="3.434">
        <ele>840</ele>
        <time>2009-07-09T06:54:57Z</time>
      </trkpt>
      <trkpt lat="44.11436" lon="3.43384">
        <ele>841</ele>
        <time>2009-07-09T06:55:12Z</time>
      </trkpt>
      <trkpt lat="44.11479" lon="3.43367">
        <ele>842</ele>
        <time>2009-07-09T06:55:26Z</time>
      </trkpt>
      <trkpt lat="44.11532" lon="3.43348">
        <ele>844</ele>
        <time>2009-07-09T06:55:43Z</time>
      </trkpt>
      <trkpt lat="44.11542" lon="3.43346">
        <ele>845</ele>
        <time>2009-07-09T06:55:46Z</time>
      </trkpt>
      <trkpt lat="44.11584" lon="3.43329">
        <ele>848</ele>
        <time>2009-07-09T06:56:02Z</time>
      </trkpt>
      <trkpt lat="44.11627" lon="3.43315">
        <ele>849</ele>
        <time>2009-07-09T06:56:17Z</time>
      </trkpt>
      <trkpt lat="44.11655" lon="3.43298">
        <ele>851</ele>
        <time>2009-07-09T06:56:28Z</time>
      </trkpt>
      <trkpt lat="44.11688" lon="3.43283">
        <ele>852</ele>
        <time>2009-07-09T06:56:41Z</time>
      </trkpt>
      <trkpt lat="44.11722" lon="3.4328">
        <ele>855</ele>
        <time>2009-07-09T06:56:52Z</time>
      </trkpt>
      <trkpt lat="44.11751" lon="3.43279">
        <ele>856</ele>
        <time>2009-07-09T06:57:03Z</time>
      </trkpt>
      <trkpt lat="44.11758" lon="3.43278">
        <ele>856</ele>
        <time>2009-07-09T06:57:07Z</time>
      </trkpt>
      <trkpt lat="44.11782" lon="3.43272">
        <ele>856</ele>
        <time>2009-07-09T06:57:22Z</time>
      </trkpt>
      <trkpt lat="44.11802" lon="3.43281">
        <ele>856</ele>
        <time>2009-07-09T06:57:36Z</time>
      </trkpt>
      <trkpt lat="44.11831" lon="3.43291">
        <ele>858</ele>
        <time>2009-07-09T06:57:50Z</time>
      </trkpt>
      <trkpt lat="44.1187" lon="3.43295">
        <ele>860</ele>
        <time>2009-07-09T06:58:06Z</time>
      </trkpt>
      <trkpt lat="44.11883" lon="3.43299">
        <ele>862</ele>
        <time>2009-07-09T06:58:12Z</time>
      </trkpt>
      <trkpt lat="44.11912" lon="3.43306">
        <ele>866</ele>
        <time>2009-07-09T06:58:25Z</time>
      </trkpt>
      <trkpt lat="44.11947" lon="3.43319">
        <ele>868</ele>
        <time>2009-07-09T06:58:42Z</time>
      </trkpt>
      <trkpt lat="44.11974" lon="3.43332">
        <ele>871</ele>
        <time>2009-07-09T06:58:56Z</time>
      </trkpt>
      <trkpt lat="44.11988" lon="3.43346">
        <ele>873</ele>
        <time>2009-07-09T06:59:06Z</time>
      </trkpt>
      <trkpt lat="44.11988" lon="3.43351">
        <ele>874</ele>
        <time>2009-07-09T06:59:11Z</time>
      </trkpt>
      <trkpt lat="44.11962" lon="3.43344">
        <ele>875</ele>
        <time>2009-07-09T06:59:24Z</time>
      </trkpt>
      <trkpt lat="44.11922" lon="3.43338">
        <ele>876</ele>
        <time>2009-07-09T06:59:39Z</time>
      </trkpt>
      <trkpt lat="44.11888" lon="3.43345">
        <ele>878</ele>
        <time>2009-07-09T06:59:52Z</time>
      </trkpt>
      <trkpt lat="44.11839" lon="3.43362">
        <ele>880</ele>
        <time>2009-07-09T07:00:11Z</time>
      </trkpt>
      <trkpt lat="44.11816" lon="3.43377">
        <ele>883</ele>
        <time>2009-07-09T07:00:23Z</time>
      </trkpt>
      <trkpt lat="44.1179" lon="3.43402">
        <ele>886</ele>
        <time>2009-07-09T07:00:38Z</time>
      </trkpt>
      <trkpt lat="44.11788" lon="3.43404">
        <ele>886</ele>
        <time>2009-07-09T07:00:39Z</time>
      </trkpt>
      <trkpt lat="44.11764" lon="3.43422">
        <ele>889</ele>
        <time>2009-07-09T07:00:53Z</time>
      </trkpt>
      <trkpt lat="44.11735" lon="3.43434">
        <ele>890</ele>
        <time>2009-07-09T07:01:07Z</time>
      </trkpt>
      <trkpt lat="44.117" lon="3.43444">
        <ele>890</ele>
        <time>2009-07-09T07:01:20Z</time>
      </trkpt>
      <trkpt lat="44.11661" lon="3.43459">
        <ele>889</ele>
        <time>2009-07-09T07:01:32Z</time>
      </trkpt>
      <trkpt lat="44.11634" lon="3.43477">
        <ele>888</ele>
        <time>2009-07-09T07:01:42Z</time>
      </trkpt>
      <trkpt lat="44.116" lon="3.43501">
        <ele>889</ele>
        <time>2009-07-09T07:01:55Z</time>
      </trkpt>
      <trkpt lat="44.11569" lon="3.43525">
        <ele>890</ele>
        <time>2009-07-09T07:02:08Z</time>
      </trkpt>
      <trkpt lat="44.11549" lon="3.4354">
        <ele>893</ele>
        <time>2009-07-09T07:02:17Z</time>
      </trkpt>
      <trkpt lat="44.1152" lon="3.43562">
        <ele>894</ele>
        <time>2009-07-09T07:02:30Z</time>
      </trkpt>
      <trkpt lat="44.11489" lon="3.43584">
        <ele>895</ele>
        <time>2009-07-09T07:02:44Z</time>
      </trkpt>
      <trkpt lat="44.11462" lon="3.4361">
        <ele>898</ele>
        <time>2009-07-09T07:02:59Z</time>
      </trkpt>
      <trkpt lat="44.1145" lon="3.43623">
        <ele>900</ele>
        <time>2009-07-09T07:03:07Z</time>
      </trkpt>
      <trkpt lat="44.11443" lon="3.43629">
        <ele>902</ele>
        <time>2009-07-09T07:03:11Z</time>
      </trkpt>
      <trkpt lat="44.11421" lon="3.43646">
        <ele>902</ele>
        <time>2009-07-09T07:03:22Z</time>
      </trkpt>
      <trkpt lat="44.11413" lon="3.43659">
        <ele>904</ele>
        <time>2009-07-09T07:03:28Z</time>
      </trkpt>
      <trkpt lat="44.11387" lon="3.43697">
        <ele>904</ele>
        <time>2009-07-09T07:03:43Z</time>
      </trkpt>
      <trkpt lat="44.11384" lon="3.43734">
        <ele>904</ele>
        <time>2009-07-09T07:03:54Z</time>
      </trkpt>
      <trkpt lat="44.11396" lon="3.43786">
        <ele>904</ele>
        <time>2009-07-09T07:04:07Z</time>
      </trkpt>
      <trkpt lat="44.114" lon="3.4383">
        <ele>904</ele>
        <time>2009-07-09T07:04:19Z</time>
      </trkpt>
      <trkpt lat="44.11398" lon="3.43877">
        <ele>905</ele>
        <time>2009-07-09T07:04:31Z</time>
      </trkpt>
      <trkpt lat="44.11397" lon="3.43904">
        <ele>908</ele>
        <time>2009-07-09T07:04:41Z</time>
      </trkpt>
      <trkpt lat="44.11399" lon="3.4395">
        <ele>909</ele>
        <time>2009-07-09T07:04:54Z</time>
      </trkpt>
      <trkpt lat="44.11407" lon="3.4399">
        <ele>910</ele>
        <time>2009-07-09T07:05:07Z</time>
      </trkpt>
      <trkpt lat="44.11424" lon="3.44018">
        <ele>911</ele>
        <time>2009-07-09T07:05:18Z</time>
      </trkpt>
      <trkpt lat="44.11431" lon="3.44021">
        <ele>913</ele>
        <time>2009-07-09T07:05:23Z</time>
      </trkpt>
      <trkpt lat="44.11436" lon="3.44025">
        <ele>914</ele>
        <time>2009-07-09T07:05:27Z</time>
      </trkpt>
      <trkpt lat="44.11437" lon="3.44027">
        <ele>914</ele>
        <time>2009-07-09T07:05:29Z</time>
      </trkpt>
      <trkpt lat="44.11443" lon="3.44035">
        <ele>916</ele>
        <time>2009-07-09T07:05:40Z</time>
      </trkpt>
      <trkpt lat="44.11447" lon="3.4404">
        <ele>917</ele>
        <time>2009-07-09T07:05:48Z</time>
      </trkpt>
      <trkpt lat="44.11447" lon="3.44044">
        <ele>917</ele>
        <time>2009-07-09T07:06:09Z</time>
      </trkpt>
      <trkpt lat="44.11448" lon="3.44043">
        <ele>917</ele>
        <time>2009-07-09T07:08:27Z</time>
      </trkpt>
      <trkpt lat="44.11445" lon="3.4404">
        <ele>917</ele>
        <time>2009-07-09T07:09:58Z</time>
      </trkpt>
      <trkpt lat="44.11446" lon="3.44041">
        <ele>919</ele>
        <time>2009-07-09T07:11:00Z</time>
      </trkpt>
      <trkpt lat="44.11447" lon="3.44042">
        <ele>920</ele>
        <time>2009-07-09T07:11:48Z</time>
      </trkpt>
      <trkpt lat="44.1145" lon="3.4406">
        <ele>920</ele>
        <time>2009-07-09T07:12:00Z</time>
      </trkpt>
      <trkpt lat="44.11449" lon="3.44108">
        <ele>921</ele>
        <time>2009-07-09T07:12:13Z</time>
      </trkpt>
      <trkpt lat="44.11441" lon="3.44153">
        <ele>922</ele>
        <time>2009-07-09T07:12:23Z</time>
      </trkpt>
      <trkpt lat="44.11427" lon="3.4421">
        <ele>925</ele>
        <time>2009-07-09T07:12:36Z</time>
      </trkpt>
      <trkpt lat="44.11419" lon="3.44246">
        <ele>925</ele>
        <time>2009-07-09T07:12:46Z</time>
      </trkpt>
      <trkpt lat="44.11424" lon="3.44289">
        <ele>929</ele>
        <time>2009-07-09T07:12:58Z</time>
      </trkpt>
      <trkpt lat="44.11425" lon="3.44292">
        <ele>929</ele>
        <time>2009-07-09T07:12:59Z</time>
      </trkpt>
      <trkpt lat="44.1143" lon="3.44336">
        <ele>931</ele>
        <time>2009-07-09T07:13:16Z</time>
      </trkpt>
      <trkpt lat="44.11439" lon="3.44357">
        <ele>934</ele>
        <time>2009-07-09T07:13:27Z</time>
      </trkpt>
      <trkpt lat="44.11444" lon="3.44386">
        <ele>937</ele>
        <time>2009-07-09T07:13:41Z</time>
      </trkpt>
      <trkpt lat="44.11449" lon="3.4442">
        <ele>939</ele>
        <time>2009-07-09T07:13:56Z</time>
      </trkpt>
      <trkpt lat="44.11455" lon="3.44454">
        <ele>941</ele>
        <time>2009-07-09T07:14:09Z</time>
      </trkpt>
      <trkpt lat="44.11455" lon="3.44467">
        <ele>943</ele>
        <time>2009-07-09T07:14:14Z</time>
      </trkpt>
      <trkpt lat="44.11457" lon="3.44496">
        <ele>945</ele>
        <time>2009-07-09T07:14:26Z</time>
      </trkpt>
      <trkpt lat="44.11463" lon="3.44533">
        <ele>947</ele>
        <time>2009-07-09T07:14:40Z</time>
      </trkpt>
      <trkpt lat="44.11473" lon="3.44574">
        <ele>949</ele>
        <time>2009-07-09T07:14:57Z</time>
      </trkpt>
      <trkpt lat="44.11479" lon="3.4459">
        <ele>952</ele>
        <time>2009-07-09T07:15:04Z</time>
      </trkpt>
      <trkpt lat="44.11488" lon="3.44615">
        <ele>955</ele>
        <time>2009-07-09T07:15:16Z</time>
      </trkpt>
      <trkpt lat="44.11492" lon="3.44622">
        <ele>955</ele>
        <time>2009-07-09T07:15:20Z</time>
      </trkpt>
      <trkpt lat="44.1151" lon="3.44638">
        <ele>958</ele>
        <time>2009-07-09T07:15:31Z</time>
      </trkpt>
      <trkpt lat="44.11528" lon="3.44665">
        <ele>960</ele>
        <time>2009-07-09T07:15:45Z</time>
      </trkpt>
      <trkpt lat="44.11541" lon="3.44701">
        <ele>963</ele>
        <time>2009-07-09T07:16:01Z</time>
      </trkpt>
      <trkpt lat="44.11558" lon="3.44726">
        <ele>965</ele>
        <time>2009-07-09T07:16:17Z</time>
      </trkpt>
      <trkpt lat="44.11562" lon="3.44733">
        <ele>965</ele>
        <time>2009-07-09T07:16:21Z</time>
      </trkpt>
      <trkpt lat="44.11586" lon="3.44749">
        <ele>967</ele>
        <time>2009-07-09T07:16:38Z</time>
      </trkpt>
      <trkpt lat="44.11588" lon="3.4475">
        <ele>966</ele>
        <time>2009-07-09T07:17:13Z</time>
      </trkpt>
      <trkpt lat="44.11589" lon="3.44753">
        <ele>966</ele>
        <time>2009-07-09T07:17:29Z</time>
      </trkpt>
      <trkpt lat="44.11597" lon="3.44757">
        <ele>966</ele>
        <time>2009-07-09T07:17:33Z</time>
      </trkpt>
      <trkpt lat="44.11634" lon="3.44789">
        <ele>964</ele>
        <time>2009-07-09T07:17:46Z</time>
      </trkpt>
      <trkpt lat="44.11653" lon="3.44812">
        <ele>963</ele>
        <time>2009-07-09T07:17:52Z</time>
      </trkpt>
      <trkpt lat="44.11651" lon="3.44831">
        <ele>963</ele>
        <time>2009-07-09T07:17:56Z</time>
      </trkpt>
      <trkpt lat="44.11633" lon="3.44914">
        <ele>962</ele>
        <time>2009-07-09T07:18:08Z</time>
      </trkpt>
      <trkpt lat="44.11633" lon="3.44935">
        <ele>960</ele>
        <time>2009-07-09T07:18:11Z</time>
      </trkpt>
      <trkpt lat="44.11639" lon="3.44954">
        <ele>961</ele>
        <time>2009-07-09T07:18:14Z</time>
      </trkpt>
      <trkpt lat="44.11644" lon="3.44965">
        <ele>960</ele>
        <time>2009-07-09T07:18:16Z</time>
      </trkpt>
      <trkpt lat="44.1167" lon="3.44994">
        <ele>960</ele>
        <time>2009-07-09T07:18:23Z</time>
      </trkpt>
      <trkpt lat="44.11698" lon="3.45014">
        <ele>959</ele>
        <time>2009-07-09T07:18:29Z</time>
      </trkpt>
      <trkpt lat="44.11707" lon="3.45022">
        <ele>959</ele>
        <time>2009-07-09T07:18:31Z</time>
      </trkpt>
      <trkpt lat="44.11732" lon="3.4504">
        <ele>958</ele>
        <time>2009-07-09T07:18:36Z</time>
      </trkpt>
      <trkpt lat="44.11745" lon="3.45053">
        <ele>957</ele>
        <time>2009-07-09T07:18:39Z</time>
      </trkpt>
      <trkpt lat="44.11788" lon="3.45086">
        <ele>956</ele>
        <time>2009-07-09T07:18:48Z</time>
      </trkpt>
      <trkpt lat="44.11804" lon="3.45103">
        <ele>955</ele>
        <time>2009-07-09T07:18:52Z</time>
      </trkpt>
      <trkpt lat="44.11848" lon="3.45137">
        <ele>956</ele>
        <time>2009-07-09T07:19:04Z</time>
      </trkpt>
      <trkpt lat="44.11874" lon="3.45155">
        <ele>955</ele>
        <time>2009-07-09T07:19:11Z</time>
      </trkpt>
      <trkpt lat="44.11873" lon="3.45189">
        <ele>954</ele>
        <time>2009-07-09T07:19:18Z</time>
      </trkpt>
      <trkpt lat="44.11862" lon="3.45193">
        <ele>954</ele>
        <time>2009-07-09T07:19:21Z</time>
      </trkpt>
      <trkpt lat="44.11853" lon="3.45196">
        <ele>954</ele>
        <time>2009-07-09T07:19:25Z</time>
      </trkpt>
      <trkpt lat="44.11851" lon="3.45199">
        <ele>954</ele>
        <time>2009-07-09T07:19:27Z</time>
      </trkpt>
      <trkpt lat="44.11844" lon="3.45204">
        <ele>954</ele>
        <time>2009-07-09T07:19:31Z</time>
      </trkpt>
      <trkpt lat="44.11799" lon="3.45212">
        <ele>956</ele>
        <time>2009-07-09T07:19:45Z</time>
      </trkpt>
      <trkpt lat="44.11759" lon="3.45212">
        <ele>958</ele>
        <time>2009-07-09T07:19:59Z</time>
      </trkpt>
      <trkpt lat="44.11723" lon="3.45213">
        <ele>960</ele>
        <time>2009-07-09T07:20:11Z</time>
      </trkpt>
      <trkpt lat="44.11685" lon="3.45218">
        <ele>961</ele>
        <time>2009-07-09T07:20:24Z</time>
      </trkpt>
      <trkpt lat="44.11645" lon="3.4522">
        <ele>963</ele>
        <time>2009-07-09T07:20:38Z</time>
      </trkpt>
      <trkpt lat="44.11604" lon="3.45222">
        <ele>964</ele>
        <time>2009-07-09T07:20:52Z</time>
      </trkpt>
      <trkpt lat="44.11563" lon="3.45243">
        <ele>965</ele>
        <time>2009-07-09T07:21:08Z</time>
      </trkpt>
      <trkpt lat="44.11546" lon="3.45285">
        <ele>968</ele>
        <time>2009-07-09T07:21:24Z</time>
      </trkpt>
      <trkpt lat="44.11543" lon="3.45298">
        <ele>970</ele>
        <time>2009-07-09T07:21:29Z</time>
      </trkpt>
      <trkpt lat="44.11538" lon="3.45321">
        <ele>974</ele>
        <time>2009-07-09T07:21:38Z</time>
      </trkpt>
      <trkpt lat="44.11535" lon="3.45336">
        <ele>975</ele>
        <time>2009-07-09T07:21:43Z</time>
      </trkpt>
      <trkpt lat="44.11523" lon="3.45378">
        <ele>978</ele>
        <time>2009-07-09T07:21:59Z</time>
      </trkpt>
      <trkpt lat="44.11517" lon="3.45411">
        <ele>980</ele>
        <time>2009-07-09T07:22:11Z</time>
      </trkpt>
      <trkpt lat="44.11506" lon="3.4546">
        <ele>981</ele>
        <time>2009-07-09T07:22:26Z</time>
      </trkpt>
      <trkpt lat="44.11501" lon="3.45527">
        <ele>982</ele>
        <time>2009-07-09T07:22:43Z</time>
      </trkpt>
      <trkpt lat="44.11503" lon="3.45612">
        <ele>983</ele>
        <time>2009-07-09T07:23:04Z</time>
      </trkpt>
      <trkpt lat="44.11515" lon="3.45679">
        <ele>982</ele>
        <time>2009-07-09T07:23:21Z</time>
      </trkpt>
      <trkpt lat="44.11523" lon="3.45693">
        <ele>981</ele>
        <time>2009-07-09T07:23:25Z</time>
      </trkpt>
      <trkpt lat="44.11548" lon="3.45696">
        <ele>983</ele>
        <time>2009-07-09T07:23:38Z</time>
      </trkpt>
      <trkpt lat="44.1155" lon="3.45696">
        <ele>984</ele>
        <time>2009-07-09T07:23:39Z</time>
      </trkpt>
      <trkpt lat="44.11589" lon="3.45697">
        <ele>985</ele>
        <time>2009-07-09T07:23:56Z</time>
      </trkpt>
      <trkpt lat="44.11617" lon="3.4571">
        <ele>989</ele>
        <time>2009-07-09T07:24:08Z</time>
      </trkpt>
      <trkpt lat="44.11653" lon="3.45726">
        <ele>990</ele>
        <time>2009-07-09T07:24:24Z</time>
      </trkpt>
      <trkpt lat="44.11679" lon="3.45733">
        <ele>991</ele>
        <time>2009-07-09T07:24:36Z</time>
      </trkpt>
      <trkpt lat="44.11706" lon="3.45744">
        <ele>994</ele>
        <time>2009-07-09T07:24:48Z</time>
      </trkpt>
      <trkpt lat="44.11735" lon="3.45755">
        <ele>995</ele>
        <time>2009-07-09T07:25:00Z</time>
      </trkpt>
      <trkpt lat="44.11764" lon="3.45775">
        <ele>998</ele>
        <time>2009-07-09T07:25:14Z</time>
      </trkpt>
      <trkpt lat="44.11783" lon="3.45792">
        <ele>1001</ele>
        <time>2009-07-09T07:25:24Z</time>
      </trkpt>
      <trkpt lat="44.11806" lon="3.45809">
        <ele>1004</ele>
        <time>2009-07-09T07:25:36Z</time>
      </trkpt>
      <trkpt lat="44.11832" lon="3.45835">
        <ele>1005</ele>
        <time>2009-07-09T07:25:51Z</time>
      </trkpt>
      <trkpt lat="44.11858" lon="3.45861">
        <ele>1006</ele>
        <time>2009-07-09T07:26:05Z</time>
      </trkpt>
      <trkpt lat="44.11882" lon="3.4588">
        <ele>1010</ele>
        <time>2009-07-09T07:26:17Z</time>
      </trkpt>
      <trkpt lat="44.1189" lon="3.45893">
        <ele>1008</ele>
        <time>2009-07-09T07:26:26Z</time>
      </trkpt>
      <trkpt lat="44.11891" lon="3.45897">
        <ele>1007</ele>
        <time>2009-07-09T07:26:27Z</time>
      </trkpt>
      <trkpt lat="44.11902" lon="3.45921">
        <ele>1008</ele>
        <time>2009-07-09T07:26:33Z</time>
      </trkpt>
      <trkpt lat="44.11896" lon="3.45936">
        <ele>1009</ele>
        <time>2009-07-09T07:26:42Z</time>
      </trkpt>
      <trkpt lat="44.11896" lon="3.45943">
        <ele>1011</ele>
        <time>2009-07-09T07:26:46Z</time>
      </trkpt>
      <trkpt lat="44.11896" lon="3.45948">
        <ele>1011</ele>
        <time>2009-07-09T07:26:48Z</time>
      </trkpt>
      <trkpt lat="44.11893" lon="3.45973">
        <ele>1013</ele>
        <time>2009-07-09T07:27:00Z</time>
      </trkpt>
      <trkpt lat="44.11883" lon="3.45984">
        <ele>1017</ele>
        <time>2009-07-09T07:27:09Z</time>
      </trkpt>
      <trkpt lat="44.11857" lon="3.45984">
        <ele>1018</ele>
        <time>2009-07-09T07:27:23Z</time>
      </trkpt>
      <trkpt lat="44.11834" lon="3.45988">
        <ele>1019</ele>
        <time>2009-07-09T07:27:36Z</time>
      </trkpt>
      <trkpt lat="44.11808" lon="3.45993">
        <ele>1020</ele>
        <time>2009-07-09T07:27:48Z</time>
      </trkpt>
      <trkpt lat="44.11773" lon="3.46004">
        <ele>1021</ele>
        <time>2009-07-09T07:28:03Z</time>
      </trkpt>
      <trkpt lat="44.11742" lon="3.46017">
        <ele>1023</ele>
        <time>2009-07-09T07:28:17Z</time>
      </trkpt>
      <trkpt lat="44.11712" lon="3.46031">
        <ele>1024</ele>
        <time>2009-07-09T07:28:30Z</time>
      </trkpt>
      <trkpt lat="44.11677" lon="3.46045">
        <ele>1026</ele>
        <time>2009-07-09T07:28:45Z</time>
      </trkpt>
      <trkpt lat="44.11653" lon="3.46063">
        <ele>1027</ele>
        <time>2009-07-09T07:28:57Z</time>
      </trkpt>
      <trkpt lat="44.11631" lon="3.46094">
        <ele>1030</ele>
        <time>2009-07-09T07:29:10Z</time>
      </trkpt>
      <trkpt lat="44.11639" lon="3.46128">
        <ele>1030</ele>
        <time>2009-07-09T07:29:22Z</time>
      </trkpt>
      <trkpt lat="44.11667" lon="3.4616">
        <ele>1031</ele>
        <time>2009-07-09T07:29:38Z</time>
      </trkpt>
      <trkpt lat="44.11688" lon="3.46182">
        <ele>1033</ele>
        <time>2009-07-09T07:29:51Z</time>
      </trkpt>
      <trkpt lat="44.11716" lon="3.46205">
        <ele>1035</ele>
        <time>2009-07-09T07:30:05Z</time>
      </trkpt>
      <trkpt lat="44.11749" lon="3.46229">
        <ele>1036</ele>
        <time>2009-07-09T07:30:21Z</time>
      </trkpt>
      <trkpt lat="44.1177" lon="3.46251">
        <ele>1038</ele>
        <time>2009-07-09T07:30:33Z</time>
      </trkpt>
      <trkpt lat="44.11792" lon="3.46273">
        <ele>1039</ele>
        <time>2009-07-09T07:30:45Z</time>
      </trkpt>
      <trkpt lat="44.11819" lon="3.46301">
        <ele>1041</ele>
        <time>2009-07-09T07:31:00Z</time>
      </trkpt>
      <trkpt lat="44.11837" lon="3.46331">
        <ele>1043</ele>
        <time>2009-07-09T07:31:12Z</time>
      </trkpt>
      <trkpt lat="44.11846" lon="3.46356">
        <ele>1044</ele>
        <time>2009-07-09T07:31:20Z</time>
      </trkpt>
      <trkpt lat="44.1186" lon="3.4638">
        <ele>1044</ele>
        <time>2009-07-09T07:31:32Z</time>
      </trkpt>
      <trkpt lat="44.11867" lon="3.46378">
        <ele>1044</ele>
        <time>2009-07-09T07:31:57Z</time>
      </trkpt>
      <trkpt lat="44.11861" lon="3.46386">
        <ele>1044</ele>
        <time>2009-07-09T07:32:34Z</time>
      </trkpt>
      <trkpt lat="44.11875" lon="3.46402">
        <ele>1046</ele>
        <time>2009-07-09T07:35:08Z</time>
      </trkpt>
      <trkpt lat="44.11897" lon="3.46428">
        <ele>1048</ele>
        <time>2009-07-09T07:35:22Z</time>
      </trkpt>
      <trkpt lat="44.11919" lon="3.4645">
        <ele>1049</ele>
        <time>2009-07-09T07:35:34Z</time>
      </trkpt>
      <trkpt lat="44.11945" lon="3.46463">
        <ele>1050</ele>
        <time>2009-07-09T07:35:44Z</time>
      </trkpt>
      <trkpt lat="44.11973" lon="3.4648">
        <ele>1051</ele>
        <time>2009-07-09T07:35:56Z</time>
      </trkpt>
      <trkpt lat="44.11986" lon="3.46484">
        <ele>1056</ele>
        <time>2009-07-09T07:36:06Z</time>
      </trkpt>
      <trkpt lat="44.11986" lon="3.46484">
        <ele>1052</ele>
        <time>2009-07-09T07:36:07Z</time>
      </trkpt>
      <trkpt lat="44.11991" lon="3.46484">
        <ele>1053</ele>
        <time>2009-07-09T07:36:21Z</time>
      </trkpt>
      <trkpt lat="44.12005" lon="3.46483">
        <ele>1054</ele>
        <time>2009-07-09T07:36:32Z</time>
      </trkpt>
      <trkpt lat="44.12024" lon="3.46482">
        <ele>1055</ele>
        <time>2009-07-09T07:36:42Z</time>
      </trkpt>
      <trkpt lat="44.12051" lon="3.46473">
        <ele>1056</ele>
        <time>2009-07-09T07:36:53Z</time>
      </trkpt>
      <trkpt lat="44.12067" lon="3.46469">
        <ele>1057</ele>
        <time>2009-07-09T07:36:59Z</time>
      </trkpt>
      <trkpt lat="44.12099" lon="3.4647">
        <ele>1059</ele>
        <time>2009-07-09T07:37:12Z</time>
      </trkpt>
      <trkpt lat="44.12126" lon="3.46468">
        <ele>1060</ele>
        <time>2009-07-09T07:37:22Z</time>
      </trkpt>
      <trkpt lat="44.12155" lon="3.46469">
        <ele>1062</ele>
        <time>2009-07-09T07:37:33Z</time>
      </trkpt>
      <trkpt lat="44.12183" lon="3.46471">
        <ele>1062</ele>
        <time>2009-07-09T07:37:44Z</time>
      </trkpt>
      <trkpt lat="44.12203" lon="3.46472">
        <ele>1062</ele>
        <time>2009-07-09T07:37:52Z</time>
      </trkpt>
      <trkpt lat="44.12208" lon="3.46473">
        <ele>1064</ele>
        <time>2009-07-09T07:37:55Z</time>
      </trkpt>
      <trkpt lat="44.12222" lon="3.4648">
        <ele>1065</ele>
        <time>2009-07-09T07:38:02Z</time>
      </trkpt>
      <trkpt lat="44.12228" lon="3.46485">
        <ele>1066</ele>
        <time>2009-07-09T07:38:06Z</time>
      </trkpt>
      <trkpt lat="44.12232" lon="3.4649">
        <ele>1068</ele>
        <time>2009-07-09T07:38:09Z</time>
      </trkpt>
      <trkpt lat="44.12247" lon="3.46504">
        <ele>1070</ele>
        <time>2009-07-09T07:38:19Z</time>
      </trkpt>
      <trkpt lat="44.12236" lon="3.46537">
        <ele>1071</ele>
        <time>2009-07-09T07:38:35Z</time>
      </trkpt>
      <trkpt lat="44.1223" lon="3.46547">
        <ele>1071</ele>
        <time>2009-07-09T07:38:39Z</time>
      </trkpt>
      <trkpt lat="44.12212" lon="3.4658">
        <ele>1072</ele>
        <time>2009-07-09T07:38:52Z</time>
      </trkpt>
      <trkpt lat="44.12211" lon="3.46582">
        <ele>1072</ele>
        <time>2009-07-09T07:38:53Z</time>
      </trkpt>
      <trkpt lat="44.12218" lon="3.46592">
        <ele>1075</ele>
        <time>2009-07-09T07:39:01Z</time>
      </trkpt>
      <trkpt lat="44.12222" lon="3.4659">
        <ele>1078</ele>
        <time>2009-07-09T07:39:04Z</time>
      </trkpt>
      <trkpt lat="44.12233" lon="3.46602">
        <ele>1078</ele>
        <time>2009-07-09T07:39:14Z</time>
      </trkpt>
      <trkpt lat="44.12235" lon="3.46601">
        <ele>1078</ele>
        <time>2009-07-09T07:39:29Z</time>
      </trkpt>
      <trkpt lat="44.12235" lon="3.46604">
        <ele>1078</ele>
        <time>2009-07-09T07:39:51Z</time>
      </trkpt>
      <trkpt lat="44.12246" lon="3.46604">
        <ele>1078</ele>
        <time>2009-07-09T07:40:45Z</time>
      </trkpt>
      <trkpt lat="44.12248" lon="3.46597">
        <ele>1078</ele>
        <time>2009-07-09T07:41:02Z</time>
      </trkpt>
      <trkpt lat="44.12242" lon="3.46599">
        <ele>1078</ele>
        <time>2009-07-09T07:41:42Z</time>
      </trkpt>
      <trkpt lat="44.12238" lon="3.46605">
        <ele>1078</ele>
        <time>2009-07-09T07:42:01Z</time>
      </trkpt>
      <trkpt lat="44.12243" lon="3.46618">
        <ele>1077</ele>
        <time>2009-07-09T07:42:05Z</time>
      </trkpt>
      <trkpt lat="44.12245" lon="3.46623">
        <ele>1076</ele>
        <time>2009-07-09T07:42:06Z</time>
      </trkpt>
      <trkpt lat="44.12256" lon="3.46636">
        <ele>1074</ele>
        <time>2009-07-09T07:42:09Z</time>
      </trkpt>
      <trkpt lat="44.12265" lon="3.46643">
        <ele>1074</ele>
        <time>2009-07-09T07:42:11Z</time>
      </trkpt>
      <trkpt lat="44.12284" lon="3.46646">
        <ele>1074</ele>
        <time>2009-07-09T07:42:15Z</time>
      </trkpt>
      <trkpt lat="44.12313" lon="3.46658">
        <ele>1074</ele>
        <time>2009-07-09T07:42:25Z</time>
      </trkpt>
      <trkpt lat="44.12304" lon="3.46691">
        <ele>1074</ele>
        <time>2009-07-09T07:42:33Z</time>
      </trkpt>
      <trkpt lat="44.12315" lon="3.46712">
        <ele>1075</ele>
        <time>2009-07-09T07:42:40Z</time>
      </trkpt>
      <trkpt lat="44.12323" lon="3.46726">
        <ele>1075</ele>
        <time>2009-07-09T07:42:45Z</time>
      </trkpt>
      <trkpt lat="44.12331" lon="3.46738">
        <ele>1075</ele>
        <time>2009-07-09T07:42:50Z</time>
      </trkpt>
      <trkpt lat="44.1233" lon="3.46747">
        <ele>1075</ele>
        <time>2009-07-09T07:42:53Z</time>
      </trkpt>
      <trkpt lat="44.12315" lon="3.46768">
        <ele>1077</ele>
        <time>2009-07-09T07:43:04Z</time>
      </trkpt>
      <trkpt lat="44.12311" lon="3.46775">
        <ele>1076</ele>
        <time>2009-07-09T07:43:10Z</time>
      </trkpt>
      <trkpt lat="44.12323" lon="3.46794">
        <ele>1077</ele>
        <time>2009-07-09T07:43:16Z</time>
      </trkpt>
      <trkpt lat="44.1233" lon="3.46809">
        <ele>1077</ele>
        <time>2009-07-09T07:43:23Z</time>
      </trkpt>
      <trkpt lat="44.12328" lon="3.46816">
        <ele>1077</ele>
        <time>2009-07-09T07:43:26Z</time>
      </trkpt>
      <trkpt lat="44.12308" lon="3.46844">
        <ele>1079</ele>
        <time>2009-07-09T07:43:35Z</time>
      </trkpt>
      <trkpt lat="44.12306" lon="3.4685">
        <ele>1079</ele>
        <time>2009-07-09T07:43:37Z</time>
      </trkpt>
      <trkpt lat="44.12309" lon="3.46863">
        <ele>1080</ele>
        <time>2009-07-09T07:43:41Z</time>
      </trkpt>
      <trkpt lat="44.12331" lon="3.46903">
        <ele>1081</ele>
        <time>2009-07-09T07:43:55Z</time>
      </trkpt>
      <trkpt lat="44.12332" lon="3.46906">
        <ele>1081</ele>
        <time>2009-07-09T07:43:56Z</time>
      </trkpt>
      <trkpt lat="44.12344" lon="3.46922">
        <ele>1082</ele>
        <time>2009-07-09T07:44:03Z</time>
      </trkpt>
      <trkpt lat="44.12344" lon="3.4693">
        <ele>1082</ele>
        <time>2009-07-09T07:44:06Z</time>
      </trkpt>
      <trkpt lat="44.12328" lon="3.46941">
        <ele>1081</ele>
        <time>2009-07-09T07:44:12Z</time>
      </trkpt>
      <trkpt lat="44.12323" lon="3.46969">
        <ele>1082</ele>
        <time>2009-07-09T07:44:19Z</time>
      </trkpt>
      <trkpt lat="44.12321" lon="3.47019">
        <ele>1083</ele>
        <time>2009-07-09T07:44:31Z</time>
      </trkpt>
      <trkpt lat="44.12321" lon="3.47028">
        <ele>1083</ele>
        <time>2009-07-09T07:44:33Z</time>
      </trkpt>
      <trkpt lat="44.12318" lon="3.47044">
        <ele>1084</ele>
        <time>2009-07-09T07:44:37Z</time>
      </trkpt>
      <trkpt lat="44.12308" lon="3.47057">
        <ele>1084</ele>
        <time>2009-07-09T07:44:42Z</time>
      </trkpt>
      <trkpt lat="44.12294" lon="3.47085">
        <ele>1085</ele>
        <time>2009-07-09T07:44:50Z</time>
      </trkpt>
      <trkpt lat="44.12293" lon="3.47112">
        <ele>1086</ele>
        <time>2009-07-09T07:44:58Z</time>
      </trkpt>
      <trkpt lat="44.1231" lon="3.47144">
        <ele>1087</ele>
        <time>2009-07-09T07:45:08Z</time>
      </trkpt>
      <trkpt lat="44.12321" lon="3.47178">
        <ele>1088</ele>
        <time>2009-07-09T07:45:18Z</time>
      </trkpt>
      <trkpt lat="44.12333" lon="3.4719">
        <ele>1089</ele>
        <time>2009-07-09T07:45:23Z</time>
      </trkpt>
      <trkpt lat="44.12336" lon="3.47201">
        <ele>1089</ele>
        <time>2009-07-09T07:45:28Z</time>
      </trkpt>
      <trkpt lat="44.12313" lon="3.47236">
        <ele>1091</ele>
        <time>2009-07-09T07:45:38Z</time>
      </trkpt>
      <trkpt lat="44.12311" lon="3.4724">
        <ele>1090</ele>
        <time>2009-07-09T07:45:39Z</time>
      </trkpt>
      <trkpt lat="44.12314" lon="3.47271">
        <ele>1091</ele>
        <time>2009-07-09T07:45:46Z</time>
      </trkpt>
      <trkpt lat="44.12315" lon="3.47311">
        <ele>1092</ele>
        <time>2009-07-09T07:45:55Z</time>
      </trkpt>
      <trkpt lat="44.12314" lon="3.47318">
        <ele>1092</ele>
        <time>2009-07-09T07:45:56Z</time>
      </trkpt>
      <trkpt lat="44.12319" lon="3.47336">
        <ele>1092</ele>
        <time>2009-07-09T07:46:00Z</time>
      </trkpt>
      <trkpt lat="44.12336" lon="3.47351">
        <ele>1094</ele>
        <time>2009-07-09T07:46:07Z</time>
      </trkpt>
      <trkpt lat="44.1234" lon="3.47361">
        <ele>1094</ele>
        <time>2009-07-09T07:46:11Z</time>
      </trkpt>
      <trkpt lat="44.12342" lon="3.47377">
        <ele>1094</ele>
        <time>2009-07-09T07:46:15Z</time>
      </trkpt>
      <trkpt lat="44.12337" lon="3.47423">
        <ele>1095</ele>
        <time>2009-07-09T07:46:25Z</time>
      </trkpt>
      <trkpt lat="44.12335" lon="3.47468">
        <ele>1097</ele>
        <time>2009-07-09T07:46:35Z</time>
      </trkpt>
      <trkpt lat="44.12335" lon="3.47505">
        <ele>1097</ele>
        <time>2009-07-09T07:46:44Z</time>
      </trkpt>
      <trkpt lat="44.12338" lon="3.47507">
        <ele>1097</ele>
        <time>2009-07-09T07:46:45Z</time>
      </trkpt>
      <trkpt lat="44.12354" lon="3.47509">
        <ele>1097</ele>
        <time>2009-07-09T07:46:50Z</time>
      </trkpt>
      <trkpt lat="44.12374" lon="3.47521">
        <ele>1098</ele>
        <time>2009-07-09T07:46:58Z</time>
      </trkpt>
      <trkpt lat="44.12365" lon="3.47545">
        <ele>1098</ele>
        <time>2009-07-09T07:47:07Z</time>
      </trkpt>
      <trkpt lat="44.12345" lon="3.47588">
        <ele>1098</ele>
        <time>2009-07-09T07:47:19Z</time>
      </trkpt>
      <trkpt lat="44.12347" lon="3.47605">
        <ele>1099</ele>
        <time>2009-07-09T07:47:23Z</time>
      </trkpt>
      <trkpt lat="44.12348" lon="3.47627">
        <ele>1099</ele>
        <time>2009-07-09T07:47:28Z</time>
      </trkpt>
      <trkpt lat="44.12318" lon="3.47651">
        <ele>1101</ele>
        <time>2009-07-09T07:47:39Z</time>
      </trkpt>
      <trkpt lat="44.12317" lon="3.47666">
        <ele>1102</ele>
        <time>2009-07-09T07:47:43Z</time>
      </trkpt>
      <trkpt lat="44.12309" lon="3.47706">
        <ele>1103</ele>
        <time>2009-07-09T07:47:53Z</time>
      </trkpt>
      <trkpt lat="44.123" lon="3.47716">
        <ele>1103</ele>
        <time>2009-07-09T07:47:57Z</time>
      </trkpt>
      <trkpt lat="44.12272" lon="3.47744">
        <ele>1104</ele>
        <time>2009-07-09T07:48:08Z</time>
      </trkpt>
      <trkpt lat="44.12271" lon="3.47751">
        <ele>1104</ele>
        <time>2009-07-09T07:48:10Z</time>
      </trkpt>
      <trkpt lat="44.12276" lon="3.47762">
        <ele>1104</ele>
        <time>2009-07-09T07:48:14Z</time>
      </trkpt>
      <trkpt lat="44.12278" lon="3.47768">
        <ele>1104</ele>
        <time>2009-07-09T07:48:16Z</time>
      </trkpt>
      <trkpt lat="44.12274" lon="3.47782">
        <ele>1104</ele>
        <time>2009-07-09T07:48:20Z</time>
      </trkpt>
      <trkpt lat="44.12268" lon="3.47811">
        <ele>1106</ele>
        <time>2009-07-09T07:48:27Z</time>
      </trkpt>
      <trkpt lat="44.12261" lon="3.47822">
        <ele>1106</ele>
        <time>2009-07-09T07:48:30Z</time>
      </trkpt>
      <trkpt lat="44.12243" lon="3.47838">
        <ele>1107</ele>
        <time>2009-07-09T07:48:38Z</time>
      </trkpt>
      <trkpt lat="44.12233" lon="3.47849">
        <ele>1108</ele>
        <time>2009-07-09T07:48:43Z</time>
      </trkpt>
      <trkpt lat="44.12227" lon="3.47859">
        <ele>1109</ele>
        <time>2009-07-09T07:48:46Z</time>
      </trkpt>
      <trkpt lat="44.12203" lon="3.47859">
        <ele>1111</ele>
        <time>2009-07-09T07:48:57Z</time>
      </trkpt>
      <trkpt lat="44.12197" lon="3.47858">
        <ele>1111</ele>
        <time>2009-07-09T07:49:02Z</time>
      </trkpt>
      <trkpt lat="44.1219" lon="3.47856">
        <ele>1112</ele>
        <time>2009-07-09T07:49:08Z</time>
      </trkpt>
      <trkpt lat="44.12184" lon="3.47857">
        <ele>1111</ele>
        <time>2009-07-09T07:49:12Z</time>
      </trkpt>
      <trkpt lat="44.12159" lon="3.47881">
        <ele>1113</ele>
        <time>2009-07-09T07:49:24Z</time>
      </trkpt>
      <trkpt lat="44.12136" lon="3.47911">
        <ele>1114</ele>
        <time>2009-07-09T07:49:34Z</time>
      </trkpt>
      <trkpt lat="44.12132" lon="3.47921">
        <ele>1114</ele>
        <time>2009-07-09T07:49:37Z</time>
      </trkpt>
      <trkpt lat="44.12122" lon="3.47937">
        <ele>1114</ele>
        <time>2009-07-09T07:49:50Z</time>
      </trkpt>
      <trkpt lat="44.12118" lon="3.47954">
        <ele>1114</ele>
        <time>2009-07-09T07:50:26Z</time>
      </trkpt>
      <trkpt lat="44.12117" lon="3.4795">
        <ele>1114</ele>
        <time>2009-07-09T07:51:58Z</time>
      </trkpt>
      <trkpt lat="44.12116" lon="3.47945">
        <ele>1114</ele>
        <time>2009-07-09T07:52:46Z</time>
      </trkpt>
      <trkpt lat="44.12114" lon="3.47949">
        <ele>1114</ele>
        <time>2009-07-09T07:53:11Z</time>
      </trkpt>
      <trkpt lat="44.12101" lon="3.47947">
        <ele>1114</ele>
        <time>2009-07-09T07:53:18Z</time>
      </trkpt>
      <trkpt lat="44.12084" lon="3.47945">
        <ele>1110</ele>
        <time>2009-07-09T07:53:23Z</time>
      </trkpt>
      <trkpt lat="44.12079" lon="3.47944">
        <ele>1110</ele>
        <time>2009-07-09T07:53:24Z</time>
      </trkpt>
      <trkpt lat="44.12047" lon="3.47941">
        <ele>1109</ele>
        <time>2009-07-09T07:53:37Z</time>
      </trkpt>
      <trkpt lat="44.12043" lon="3.47941">
        <ele>1108</ele>
        <time>2009-07-09T07:53:49Z</time>
      </trkpt>
      <trkpt lat="44.12029" lon="3.47941">
        <ele>1107</ele>
        <time>2009-07-09T07:54:00Z</time>
      </trkpt>
      <trkpt lat="44.12022" lon="3.4794">
        <ele>1108</ele>
        <time>2009-07-09T07:54:03Z</time>
      </trkpt>
      <trkpt lat="44.12011" lon="3.47943">
        <ele>1106</ele>
        <time>2009-07-09T07:54:10Z</time>
      </trkpt>
      <trkpt lat="44.1199" lon="3.47959">
        <ele>1110</ele>
        <time>2009-07-09T07:54:21Z</time>
      </trkpt>
      <trkpt lat="44.11988" lon="3.47961">
        <ele>1110</ele>
        <time>2009-07-09T07:54:22Z</time>
      </trkpt>
      <trkpt lat="44.11964" lon="3.47978">
        <ele>1110</ele>
        <time>2009-07-09T07:54:34Z</time>
      </trkpt>
      <trkpt lat="44.11922" lon="3.47983">
        <ele>1109</ele>
        <time>2009-07-09T07:54:48Z</time>
      </trkpt>
      <trkpt lat="44.11912" lon="3.4799">
        <ele>1108</ele>
        <time>2009-07-09T07:54:52Z</time>
      </trkpt>
      <trkpt lat="44.11904" lon="3.48021">
        <ele>1107</ele>
        <time>2009-07-09T07:54:57Z</time>
      </trkpt>
      <trkpt lat="44.11897" lon="3.48063">
        <ele>1107</ele>
        <time>2009-07-09T07:55:06Z</time>
      </trkpt>
      <trkpt lat="44.11901" lon="3.48096">
        <ele>1108</ele>
        <time>2009-07-09T07:55:15Z</time>
      </trkpt>
      <trkpt lat="44.11915" lon="3.48135">
        <ele>1112</ele>
        <time>2009-07-09T07:55:28Z</time>
      </trkpt>
      <trkpt lat="44.11937" lon="3.48172">
        <ele>1113</ele>
        <time>2009-07-09T07:55:41Z</time>
      </trkpt>
      <trkpt lat="44.11964" lon="3.48204">
        <ele>1114</ele>
        <time>2009-07-09T07:55:55Z</time>
      </trkpt>
      <trkpt lat="44.12011" lon="3.48235">
        <ele>1115</ele>
        <time>2009-07-09T07:56:14Z</time>
      </trkpt>
      <trkpt lat="44.12052" lon="3.48252">
        <ele>1117</ele>
        <time>2009-07-09T07:56:30Z</time>
      </trkpt>
      <trkpt lat="44.1208" lon="3.48275">
        <ele>1120</ele>
        <time>2009-07-09T07:56:44Z</time>
      </trkpt>
      <trkpt lat="44.121" lon="3.48334">
        <ele>1122</ele>
        <time>2009-07-09T07:57:03Z</time>
      </trkpt>
      <trkpt lat="44.12109" lon="3.4836">
        <ele>1125</ele>
        <time>2009-07-09T07:57:12Z</time>
      </trkpt>
      <trkpt lat="44.12116" lon="3.48372">
        <ele>1126</ele>
        <time>2009-07-09T07:57:17Z</time>
      </trkpt>
      <trkpt lat="44.12119" lon="3.48391">
        <ele>1126</ele>
        <time>2009-07-09T07:57:23Z</time>
      </trkpt>
      <trkpt lat="44.12141" lon="3.48431">
        <ele>1128</ele>
        <time>2009-07-09T07:57:41Z</time>
      </trkpt>
      <trkpt lat="44.1216" lon="3.48457">
        <ele>1131</ele>
        <time>2009-07-09T07:57:53Z</time>
      </trkpt>
      <trkpt lat="44.12173" lon="3.48454">
        <ele>1134</ele>
        <time>2009-07-09T07:57:59Z</time>
      </trkpt>
      <trkpt lat="44.12175" lon="3.48453">
        <ele>1134</ele>
        <time>2009-07-09T07:58:00Z</time>
      </trkpt>
      <trkpt lat="44.12181" lon="3.48422">
        <ele>1135</ele>
        <time>2009-07-09T07:58:13Z</time>
      </trkpt>
      <trkpt lat="44.1217" lon="3.48393">
        <ele>1138</ele>
        <time>2009-07-09T07:58:25Z</time>
      </trkpt>
      <trkpt lat="44.12175" lon="3.48349">
        <ele>1139</ele>
        <time>2009-07-09T07:58:39Z</time>
      </trkpt>
      <trkpt lat="44.12179" lon="3.48335">
        <ele>1142</ele>
        <time>2009-07-09T07:58:44Z</time>
      </trkpt>
      <trkpt lat="44.12208" lon="3.48296">
        <ele>1145</ele>
        <time>2009-07-09T07:59:02Z</time>
      </trkpt>
      <trkpt lat="44.12228" lon="3.48287">
        <ele>1146</ele>
        <time>2009-07-09T07:59:12Z</time>
      </trkpt>
      <trkpt lat="44.12252" lon="3.48277">
        <ele>1149</ele>
        <time>2009-07-09T07:59:25Z</time>
      </trkpt>
      <trkpt lat="44.12266" lon="3.48291">
        <ele>1153</ele>
        <time>2009-07-09T07:59:35Z</time>
      </trkpt>
      <trkpt lat="44.1227" lon="3.48325">
        <ele>1156</ele>
        <time>2009-07-09T07:59:49Z</time>
      </trkpt>
      <trkpt lat="44.12271" lon="3.48335">
        <ele>1156</ele>
        <time>2009-07-09T08:00:01Z</time>
      </trkpt>
      <trkpt lat="44.12271" lon="3.48333">
        <ele>1156</ele>
        <time>2009-07-09T08:00:26Z</time>
      </trkpt>
      <trkpt lat="44.12269" lon="3.48335">
        <ele>1156</ele>
        <time>2009-07-09T08:00:47Z</time>
      </trkpt>
      <trkpt lat="44.1227" lon="3.48335">
        <ele>1157</ele>
        <time>2009-07-09T08:01:22Z</time>
      </trkpt>
      <trkpt lat="44.12272" lon="3.48336">
        <ele>1156</ele>
        <time>2009-07-09T08:03:52Z</time>
      </trkpt>
      <trkpt lat="44.12275" lon="3.48345">
        <ele>1156</ele>
        <time>2009-07-09T08:03:57Z</time>
      </trkpt>
      <trkpt lat="44.12283" lon="3.48391">
        <ele>1159</ele>
        <time>2009-07-09T08:04:14Z</time>
      </trkpt>
      <trkpt lat="44.12284" lon="3.4843">
        <ele>1162</ele>
        <time>2009-07-09T08:04:28Z</time>
      </trkpt>
      <trkpt lat="44.12294" lon="3.48455">
        <ele>1165</ele>
        <time>2009-07-09T08:04:40Z</time>
      </trkpt>
      <trkpt lat="44.12306" lon="3.48437">
        <ele>1165</ele>
        <time>2009-07-09T08:04:51Z</time>
      </trkpt>
      <trkpt lat="44.12305" lon="3.48415">
        <ele>1166</ele>
        <time>2009-07-09T08:04:59Z</time>
      </trkpt>
      <trkpt lat="44.12308" lon="3.48389">
        <ele>1169</ele>
        <time>2009-07-09T08:05:07Z</time>
      </trkpt>
      <trkpt lat="44.12319" lon="3.48333">
        <ele>1170</ele>
        <time>2009-07-09T08:05:26Z</time>
      </trkpt>
      <trkpt lat="44.1233" lon="3.483">
        <ele>1173</ele>
        <time>2009-07-09T08:05:39Z</time>
      </trkpt>
      <trkpt lat="44.12331" lon="3.48298">
        <ele>1173</ele>
        <time>2009-07-09T08:05:40Z</time>
      </trkpt>
      <trkpt lat="44.12347" lon="3.48248">
        <ele>1174</ele>
        <time>2009-07-09T08:05:58Z</time>
      </trkpt>
      <trkpt lat="44.1235" lon="3.48237">
        <ele>1175</ele>
        <time>2009-07-09T08:06:02Z</time>
      </trkpt>
      <trkpt lat="44.12364" lon="3.48204">
        <ele>1178</ele>
        <time>2009-07-09T08:06:15Z</time>
      </trkpt>
      <trkpt lat="44.12378" lon="3.48153">
        <ele>1179</ele>
        <time>2009-07-09T08:06:33Z</time>
      </trkpt>
      <trkpt lat="44.1239" lon="3.4811">
        <ele>1182</ele>
        <time>2009-07-09T08:06:49Z</time>
      </trkpt>
      <trkpt lat="44.124" lon="3.4808">
        <ele>1182</ele>
        <time>2009-07-09T08:07:01Z</time>
      </trkpt>
      <trkpt lat="44.12402" lon="3.48067">
        <ele>1183</ele>
        <time>2009-07-09T08:07:06Z</time>
      </trkpt>
      <trkpt lat="44.12409" lon="3.48055">
        <ele>1184</ele>
        <time>2009-07-09T08:07:11Z</time>
      </trkpt>
      <trkpt lat="44.12414" lon="3.48061">
        <ele>1184</ele>
        <time>2009-07-09T08:07:15Z</time>
      </trkpt>
      <trkpt lat="44.12417" lon="3.48067">
        <ele>1183</ele>
        <time>2009-07-09T08:07:28Z</time>
      </trkpt>
      <trkpt lat="44.12419" lon="3.48076">
        <ele>1184</ele>
        <time>2009-07-09T08:07:42Z</time>
      </trkpt>
      <trkpt lat="44.12417" lon="3.48078">
        <ele>1184</ele>
        <time>2009-07-09T08:08:00Z</time>
      </trkpt>
      <trkpt lat="44.12414" lon="3.48083">
        <ele>1184</ele>
        <time>2009-07-09T08:08:04Z</time>
      </trkpt>
      <trkpt lat="44.12413" lon="3.48094">
        <ele>1184</ele>
        <time>2009-07-09T08:08:08Z</time>
      </trkpt>
      <trkpt lat="44.12417" lon="3.48139">
        <ele>1185</ele>
        <time>2009-07-09T08:08:24Z</time>
      </trkpt>
      <trkpt lat="44.12416" lon="3.48187">
        <ele>1188</ele>
        <time>2009-07-09T08:08:40Z</time>
      </trkpt>
      <trkpt lat="44.12414" lon="3.48205">
        <ele>1188</ele>
        <time>2009-07-09T08:08:45Z</time>
      </trkpt>
      <trkpt lat="44.12402" lon="3.48237">
        <ele>1191</ele>
        <time>2009-07-09T08:08:58Z</time>
      </trkpt>
      <trkpt lat="44.12399" lon="3.48237">
        <ele>1191</ele>
        <time>2009-07-09T08:09:22Z</time>
      </trkpt>
      <trkpt lat="44.12403" lon="3.48233">
        <ele>1188</ele>
        <time>2009-07-09T08:09:37Z</time>
      </trkpt>
      <trkpt lat="44.12403" lon="3.48233">
        <ele>1194</ele>
        <time>2009-07-09T08:09:39Z</time>
      </trkpt>
      <trkpt lat="44.12402" lon="3.48233">
        <ele>1191</ele>
        <time>2009-07-09T08:09:40Z</time>
      </trkpt>
      <trkpt lat="44.12402" lon="3.48233">
        <ele>1190</ele>
        <time>2009-07-09T08:10:06Z</time>
      </trkpt>
      <trkpt lat="44.12404" lon="3.48228">
        <ele>1190</ele>
        <time>2009-07-09T08:10:27Z</time>
      </trkpt>
      <trkpt lat="44.12415" lon="3.48198">
        <ele>1188</ele>
        <time>2009-07-09T08:10:37Z</time>
      </trkpt>
      <trkpt lat="44.12418" lon="3.48168">
        <ele>1187</ele>
        <time>2009-07-09T08:10:45Z</time>
      </trkpt>
      <trkpt lat="44.12427" lon="3.48165">
        <ele>1187</ele>
        <time>2009-07-09T08:10:53Z</time>
      </trkpt>
      <trkpt lat="44.12421" lon="3.48168">
        <ele>1187</ele>
        <time>2009-07-09T08:10:59Z</time>
      </trkpt>
      <trkpt lat="44.12419" lon="3.48167">
        <ele>1187</ele>
        <time>2009-07-09T08:11:01Z</time>
      </trkpt>
      <trkpt lat="44.12418" lon="3.48156">
        <ele>1186</ele>
        <time>2009-07-09T08:11:05Z</time>
      </trkpt>
      <trkpt lat="44.12418" lon="3.48147">
        <ele>1185</ele>
        <time>2009-07-09T08:11:07Z</time>
      </trkpt>
      <trkpt lat="44.12413" lon="3.48118">
        <ele>1185</ele>
        <time>2009-07-09T08:11:13Z</time>
      </trkpt>
      <trkpt lat="44.12411" lon="3.48088">
        <ele>1183</ele>
        <time>2009-07-09T08:11:18Z</time>
      </trkpt>
      <trkpt lat="44.12422" lon="3.48091">
        <ele>1183</ele>
        <time>2009-07-09T08:11:24Z</time>
      </trkpt>
      <trkpt lat="44.12447" lon="3.4815">
        <ele>1182</ele>
        <time>2009-07-09T08:11:37Z</time>
      </trkpt>
      <trkpt lat="44.12469" lon="3.48208">
        <ele>1181</ele>
        <time>2009-07-09T08:11:50Z</time>
      </trkpt>
      <trkpt lat="44.12478" lon="3.48271">
        <ele>1181</ele>
        <time>2009-07-09T08:12:03Z</time>
      </trkpt>
      <trkpt lat="44.12463" lon="3.48342">
        <ele>1182</ele>
        <time>2009-07-09T08:12:16Z</time>
      </trkpt>
      <trkpt lat="44.12467" lon="3.48365">
        <ele>1179</ele>
        <time>2009-07-09T08:12:20Z</time>
      </trkpt>
      <trkpt lat="44.12485" lon="3.48346">
        <ele>1179</ele>
        <time>2009-07-09T08:12:25Z</time>
      </trkpt>
      <trkpt lat="44.12508" lon="3.48301">
        <ele>1182</ele>
        <time>2009-07-09T08:12:37Z</time>
      </trkpt>
      <trkpt lat="44.12509" lon="3.48298">
        <ele>1182</ele>
        <time>2009-07-09T08:12:38Z</time>
      </trkpt>
      <trkpt lat="44.12528" lon="3.48263">
        <ele>1185</ele>
        <time>2009-07-09T08:12:52Z</time>
      </trkpt>
      <trkpt lat="44.12547" lon="3.48227">
        <ele>1187</ele>
        <time>2009-07-09T08:13:07Z</time>
      </trkpt>
      <trkpt lat="44.12573" lon="3.48207">
        <ele>1187</ele>
        <time>2009-07-09T08:13:21Z</time>
      </trkpt>
      <trkpt lat="44.12612" lon="3.48191">
        <ele>1189</ele>
        <time>2009-07-09T08:13:39Z</time>
      </trkpt>
      <trkpt lat="44.12647" lon="3.4818">
        <ele>1190</ele>
        <time>2009-07-09T08:13:52Z</time>
      </trkpt>
      <trkpt lat="44.12696" lon="3.48178">
        <ele>1192</ele>
        <time>2009-07-09T08:14:12Z</time>
      </trkpt>
      <trkpt lat="44.12738" lon="3.48194">
        <ele>1195</ele>
        <time>2009-07-09T08:14:30Z</time>
      </trkpt>
      <trkpt lat="44.12765" lon="3.48224">
        <ele>1198</ele>
        <time>2009-07-09T08:14:44Z</time>
      </trkpt>
      <trkpt lat="44.12801" lon="3.4825">
        <ele>1200</ele>
        <time>2009-07-09T08:15:01Z</time>
      </trkpt>
      <trkpt lat="44.12849" lon="3.48269">
        <ele>1202</ele>
        <time>2009-07-09T08:15:21Z</time>
      </trkpt>
      <trkpt lat="44.1287" lon="3.48289">
        <ele>1205</ele>
        <time>2009-07-09T08:15:32Z</time>
      </trkpt>
      <trkpt lat="44.12871" lon="3.48292">
        <ele>1205</ele>
        <time>2009-07-09T08:15:33Z</time>
      </trkpt>
      <trkpt lat="44.12879" lon="3.48312">
        <ele>1206</ele>
        <time>2009-07-09T08:15:40Z</time>
      </trkpt>
      <trkpt lat="44.1287" lon="3.4835">
        <ele>1205</ele>
        <time>2009-07-09T08:15:50Z</time>
      </trkpt>
      <trkpt lat="44.12865" lon="3.48361">
        <ele>1205</ele>
        <time>2009-07-09T08:15:52Z</time>
      </trkpt>
      <trkpt lat="44.12855" lon="3.48388">
        <ele>1204</ele>
        <time>2009-07-09T08:15:56Z</time>
      </trkpt>
      <trkpt lat="44.12848" lon="3.48412">
        <ele>1204</ele>
        <time>2009-07-09T08:16:00Z</time>
      </trkpt>
      <trkpt lat="44.12847" lon="3.48456">
        <ele>1204</ele>
        <time>2009-07-09T08:16:09Z</time>
      </trkpt>
      <trkpt lat="44.1287" lon="3.48482">
        <ele>1204</ele>
        <time>2009-07-09T08:16:19Z</time>
      </trkpt>
      <trkpt lat="44.12893" lon="3.48478">
        <ele>1200</ele>
        <time>2009-07-09T08:16:25Z</time>
      </trkpt>
      <trkpt lat="44.1292" lon="3.48476">
        <ele>1196</ele>
        <time>2009-07-09T08:16:30Z</time>
      </trkpt>
      <trkpt lat="44.12979" lon="3.48489">
        <ele>1190</ele>
        <time>2009-07-09T08:16:38Z</time>
      </trkpt>
      <trkpt lat="44.12986" lon="3.48491">
        <ele>1190</ele>
        <time>2009-07-09T08:16:39Z</time>
      </trkpt>
      <trkpt lat="44.1302" lon="3.48513">
        <ele>1186</ele>
        <time>2009-07-09T08:16:44Z</time>
      </trkpt>
      <trkpt lat="44.13033" lon="3.48527">
        <ele>1185</ele>
        <time>2009-07-09T08:16:46Z</time>
      </trkpt>
      <trkpt lat="44.13046" lon="3.48541">
        <ele>1185</ele>
        <time>2009-07-09T08:16:48Z</time>
      </trkpt>
      <trkpt lat="44.13109" lon="3.4858">
        <ele>1185</ele>
        <time>2009-07-09T08:16:58Z</time>
      </trkpt>
      <trkpt lat="44.13118" lon="3.4858">
        <ele>1184</ele>
        <time>2009-07-09T08:17:06Z</time>
      </trkpt>
      <trkpt lat="44.13119" lon="3.48581">
        <ele>1184</ele>
        <time>2009-07-09T08:17:18Z</time>
      </trkpt>
      <trkpt lat="44.1314" lon="3.48581">
        <ele>1180</ele>
        <time>2009-07-09T08:17:24Z</time>
      </trkpt>
      <trkpt lat="44.13147" lon="3.48574">
        <ele>1181</ele>
        <time>2009-07-09T08:17:26Z</time>
      </trkpt>
      <trkpt lat="44.13157" lon="3.48562">
        <ele>1181</ele>
        <time>2009-07-09T08:17:29Z</time>
      </trkpt>
      <trkpt lat="44.13168" lon="3.48552">
        <ele>1180</ele>
        <time>2009-07-09T08:17:32Z</time>
      </trkpt>
      <trkpt lat="44.13175" lon="3.48546">
        <ele>1180</ele>
        <time>2009-07-09T08:17:34Z</time>
      </trkpt>
      <trkpt lat="44.13216" lon="3.48532">
        <ele>1179</ele>
        <time>2009-07-09T08:17:44Z</time>
      </trkpt>
      <trkpt lat="44.1325" lon="3.48527">
        <ele>1178</ele>
        <time>2009-07-09T08:17:52Z</time>
      </trkpt>
      <trkpt lat="44.13314" lon="3.48527">
        <ele>1179</ele>
        <time>2009-07-09T08:18:07Z</time>
      </trkpt>
      <trkpt lat="44.13383" lon="3.48517">
        <ele>1181</ele>
        <time>2009-07-09T08:18:25Z</time>
      </trkpt>
      <trkpt lat="44.13401" lon="3.48522">
        <ele>1181</ele>
        <time>2009-07-09T08:18:34Z</time>
      </trkpt>
      <trkpt lat="44.13432" lon="3.48544">
        <ele>1181</ele>
        <time>2009-07-09T08:18:45Z</time>
      </trkpt>
      <trkpt lat="44.13455" lon="3.48546">
        <ele>1180</ele>
        <time>2009-07-09T08:18:52Z</time>
      </trkpt>
      <trkpt lat="44.13476" lon="3.48573">
        <ele>1179</ele>
        <time>2009-07-09T08:19:00Z</time>
      </trkpt>
      <trkpt lat="44.13475" lon="3.48577">
        <ele>1179</ele>
        <time>2009-07-09T08:19:01Z</time>
      </trkpt>
      <trkpt lat="44.13469" lon="3.48615">
        <ele>1179</ele>
        <time>2009-07-09T08:19:12Z</time>
      </trkpt>
      <trkpt lat="44.13461" lon="3.48674">
        <ele>1179</ele>
        <time>2009-07-09T08:19:27Z</time>
      </trkpt>
      <trkpt lat="44.13468" lon="3.48732">
        <ele>1179</ele>
        <time>2009-07-09T08:19:39Z</time>
      </trkpt>
      <trkpt lat="44.13473" lon="3.48766">
        <ele>1179</ele>
        <time>2009-07-09T08:19:45Z</time>
      </trkpt>
      <trkpt lat="44.13484" lon="3.48836">
        <ele>1179</ele>
        <time>2009-07-09T08:19:57Z</time>
      </trkpt>
      <trkpt lat="44.13495" lon="3.48914">
        <ele>1181</ele>
        <time>2009-07-09T08:20:11Z</time>
      </trkpt>
      <trkpt lat="44.13498" lon="3.48919">
        <ele>1180</ele>
        <time>2009-07-09T08:20:12Z</time>
      </trkpt>
      <trkpt lat="44.13523" lon="3.4894">
        <ele>1180</ele>
        <time>2009-07-09T08:20:19Z</time>
      </trkpt>
      <trkpt lat="44.13539" lon="3.48945">
        <ele>1180</ele>
        <time>2009-07-09T08:20:23Z</time>
      </trkpt>
      <trkpt lat="44.13581" lon="3.48985">
        <ele>1181</ele>
        <time>2009-07-09T08:20:36Z</time>
      </trkpt>
      <trkpt lat="44.13596" lon="3.49017">
        <ele>1183</ele>
        <time>2009-07-09T08:20:44Z</time>
      </trkpt>
      <trkpt lat="44.13596" lon="3.4906">
        <ele>1186</ele>
        <time>2009-07-09T08:20:56Z</time>
      </trkpt>
      <trkpt lat="44.1358" lon="3.49096">
        <ele>1188</ele>
        <time>2009-07-09T08:21:08Z</time>
      </trkpt>
      <trkpt lat="44.13556" lon="3.49129">
        <ele>1189</ele>
        <time>2009-07-09T08:21:21Z</time>
      </trkpt>
      <trkpt lat="44.13525" lon="3.49155">
        <ele>1192</ele>
        <time>2009-07-09T08:21:34Z</time>
      </trkpt>
      <trkpt lat="44.13508" lon="3.49194">
        <ele>1194</ele>
        <time>2009-07-09T08:21:47Z</time>
      </trkpt>
      <trkpt lat="44.13536" lon="3.49251">
        <ele>1197</ele>
        <time>2009-07-09T08:22:05Z</time>
      </trkpt>
      <trkpt lat="44.13565" lon="3.4926">
        <ele>1198</ele>
        <time>2009-07-09T08:22:17Z</time>
      </trkpt>
      <trkpt lat="44.136" lon="3.49266">
        <ele>1199</ele>
        <time>2009-07-09T08:22:30Z</time>
      </trkpt>
      <trkpt lat="44.13622" lon="3.49309">
        <ele>1202</ele>
        <time>2009-07-09T08:22:44Z</time>
      </trkpt>
      <trkpt lat="44.13653" lon="3.49345">
        <ele>1204</ele>
        <time>2009-07-09T08:22:59Z</time>
      </trkpt>
      <trkpt lat="44.13689" lon="3.49395">
        <ele>1205</ele>
        <time>2009-07-09T08:23:16Z</time>
      </trkpt>
      <trkpt lat="44.1371" lon="3.49449">
        <ele>1207</ele>
        <time>2009-07-09T08:23:31Z</time>
      </trkpt>
      <trkpt lat="44.13708" lon="3.49491">
        <ele>1207</ele>
        <time>2009-07-09T08:23:41Z</time>
      </trkpt>
      <trkpt lat="44.1371" lon="3.49504">
        <ele>1207</ele>
        <time>2009-07-09T08:23:45Z</time>
      </trkpt>
      <trkpt lat="44.13709" lon="3.4951">
        <ele>1207</ele>
        <time>2009-07-09T08:24:04Z</time>
      </trkpt>
      <trkpt lat="44.1371" lon="3.49519">
        <ele>1207</ele>
        <time>2009-07-09T08:24:22Z</time>
      </trkpt>
      <trkpt lat="44.13715" lon="3.49514">
        <ele>1207</ele>
        <time>2009-07-09T08:25:16Z</time>
      </trkpt>
      <trkpt lat="44.13713" lon="3.49532">
        <ele>1208</ele>
        <time>2009-07-09T08:25:28Z</time>
      </trkpt>
      <trkpt lat="44.1371" lon="3.49602">
        <ele>1208</ele>
        <time>2009-07-09T08:25:43Z</time>
      </trkpt>
      <trkpt lat="44.13707" lon="3.49659">
        <ele>1208</ele>
        <time>2009-07-09T08:25:55Z</time>
      </trkpt>
      <trkpt lat="44.13702" lon="3.49711">
        <ele>1210</ele>
        <time>2009-07-09T08:26:05Z</time>
      </trkpt>
      <trkpt lat="44.13698" lon="3.49761">
        <ele>1212</ele>
        <time>2009-07-09T08:26:16Z</time>
      </trkpt>
      <trkpt lat="44.13686" lon="3.49801">
        <ele>1213</ele>
        <time>2009-07-09T08:26:27Z</time>
      </trkpt>
      <trkpt lat="44.13666" lon="3.49837">
        <ele>1217</ele>
        <time>2009-07-09T08:26:38Z</time>
      </trkpt>
      <trkpt lat="44.13636" lon="3.4987">
        <ele>1218</ele>
        <time>2009-07-09T08:26:51Z</time>
      </trkpt>
      <trkpt lat="44.13606" lon="3.49888">
        <ele>1218</ele>
        <time>2009-07-09T08:27:02Z</time>
      </trkpt>
      <trkpt lat="44.13567" lon="3.49895">
        <ele>1219</ele>
        <time>2009-07-09T08:27:15Z</time>
      </trkpt>
      <trkpt lat="44.13525" lon="3.49904">
        <ele>1221</ele>
        <time>2009-07-09T08:27:29Z</time>
      </trkpt>
      <trkpt lat="44.13497" lon="3.49913">
        <ele>1222</ele>
        <time>2009-07-09T08:27:40Z</time>
      </trkpt>
      <trkpt lat="44.13492" lon="3.49918">
        <ele>1223</ele>
        <time>2009-07-09T08:27:42Z</time>
      </trkpt>
      <trkpt lat="44.13476" lon="3.4993">
        <ele>1225</ele>
        <time>2009-07-09T08:27:48Z</time>
      </trkpt>
      <trkpt lat="44.13451" lon="3.49948">
        <ele>1227</ele>
        <time>2009-07-09T08:28:01Z</time>
      </trkpt>
      <trkpt lat="44.13424" lon="3.49961">
        <ele>1229</ele>
        <time>2009-07-09T08:28:13Z</time>
      </trkpt>
      <trkpt lat="44.13393" lon="3.49966">
        <ele>1232</ele>
        <time>2009-07-09T08:28:26Z</time>
      </trkpt>
      <trkpt lat="44.1336" lon="3.49968">
        <ele>1234</ele>
        <time>2009-07-09T08:28:40Z</time>
      </trkpt>
      <trkpt lat="44.13332" lon="3.49968">
        <ele>1237</ele>
        <time>2009-07-09T08:28:53Z</time>
      </trkpt>
      <trkpt lat="44.13328" lon="3.49967">
        <ele>1237</ele>
        <time>2009-07-09T08:28:55Z</time>
      </trkpt>
      <trkpt lat="44.13315" lon="3.4997">
        <ele>1238</ele>
        <time>2009-07-09T08:29:01Z</time>
      </trkpt>
      <trkpt lat="44.13282" lon="3.49981">
        <ele>1241</ele>
        <time>2009-07-09T08:29:16Z</time>
      </trkpt>
      <trkpt lat="44.13251" lon="3.49993">
        <ele>1242</ele>
        <time>2009-07-09T08:29:29Z</time>
      </trkpt>
      <trkpt lat="44.1323" lon="3.50026">
        <ele>1243</ele>
        <time>2009-07-09T08:29:41Z</time>
      </trkpt>
      <trkpt lat="44.13211" lon="3.50069">
        <ele>1242</ele>
        <time>2009-07-09T08:29:53Z</time>
      </trkpt>
      <trkpt lat="44.13194" lon="3.50095">
        <ele>1243</ele>
        <time>2009-07-09T08:30:03Z</time>
      </trkpt>
      <trkpt lat="44.13159" lon="3.50119">
        <ele>1244</ele>
        <time>2009-07-09T08:30:15Z</time>
      </trkpt>
      <trkpt lat="44.13141" lon="3.50148">
        <ele>1244</ele>
        <time>2009-07-09T08:30:25Z</time>
      </trkpt>
      <trkpt lat="44.13131" lon="3.50199">
        <ele>1246</ele>
        <time>2009-07-09T08:30:39Z</time>
      </trkpt>
      <trkpt lat="44.13133" lon="3.50266">
        <ele>1248</ele>
        <time>2009-07-09T08:30:54Z</time>
      </trkpt>
      <trkpt lat="44.13153" lon="3.50314">
        <ele>1251</ele>
        <time>2009-07-09T08:31:08Z</time>
      </trkpt>
      <trkpt lat="44.13154" lon="3.50318">
        <ele>1252</ele>
        <time>2009-07-09T08:31:09Z</time>
      </trkpt>
      <trkpt lat="44.13172" lon="3.50371">
        <ele>1255</ele>
        <time>2009-07-09T08:31:24Z</time>
      </trkpt>
      <trkpt lat="44.13163" lon="3.50383">
        <ele>1256</ele>
        <time>2009-07-09T08:31:30Z</time>
      </trkpt>
      <trkpt lat="44.13145" lon="3.50389">
        <ele>1258</ele>
        <time>2009-07-09T08:31:39Z</time>
      </trkpt>
      <trkpt lat="44.13139" lon="3.50387">
        <ele>1260</ele>
        <time>2009-07-09T08:31:42Z</time>
      </trkpt>
      <trkpt lat="44.13121" lon="3.50376">
        <ele>1262</ele>
        <time>2009-07-09T08:31:53Z</time>
      </trkpt>
      <trkpt lat="44.13113" lon="3.50376">
        <ele>1263</ele>
        <time>2009-07-09T08:31:57Z</time>
      </trkpt>
      <trkpt lat="44.13108" lon="3.50375">
        <ele>1263</ele>
        <time>2009-07-09T08:31:59Z</time>
      </trkpt>
      <trkpt lat="44.13082" lon="3.50365">
        <ele>1265</ele>
        <time>2009-07-09T08:32:12Z</time>
      </trkpt>
      <trkpt lat="44.13053" lon="3.5036">
        <ele>1268</ele>
        <time>2009-07-09T08:32:25Z</time>
      </trkpt>
      <trkpt lat="44.13048" lon="3.50359">
        <ele>1268</ele>
        <time>2009-07-09T08:32:27Z</time>
      </trkpt>
      <trkpt lat="44.13033" lon="3.50354">
        <ele>1271</ele>
        <time>2009-07-09T08:32:34Z</time>
      </trkpt>
      <trkpt lat="44.12996" lon="3.50337">
        <ele>1272</ele>
        <time>2009-07-09T08:32:51Z</time>
      </trkpt>
      <trkpt lat="44.12966" lon="3.50327">
        <ele>1273</ele>
        <time>2009-07-09T08:33:04Z</time>
      </trkpt>
      <trkpt lat="44.12925" lon="3.50318">
        <ele>1275</ele>
        <time>2009-07-09T08:33:20Z</time>
      </trkpt>
      <trkpt lat="44.12895" lon="3.5032">
        <ele>1276</ele>
        <time>2009-07-09T08:33:32Z</time>
      </trkpt>
      <trkpt lat="44.12893" lon="3.50321">
        <ele>1276</ele>
        <time>2009-07-09T08:33:33Z</time>
      </trkpt>
      <trkpt lat="44.12886" lon="3.50328">
        <ele>1277</ele>
        <time>2009-07-09T08:33:37Z</time>
      </trkpt>
      <trkpt lat="44.12858" lon="3.50362">
        <ele>1277</ele>
        <time>2009-07-09T08:33:50Z</time>
      </trkpt>
      <trkpt lat="44.12827" lon="3.50398">
        <ele>1280</ele>
        <time>2009-07-09T08:34:06Z</time>
      </trkpt>
      <trkpt lat="44.128" lon="3.50426">
        <ele>1283</ele>
        <time>2009-07-09T08:34:20Z</time>
      </trkpt>
      <trkpt lat="44.12769" lon="3.50463">
        <ele>1284</ele>
        <time>2009-07-09T08:34:36Z</time>
      </trkpt>
      <trkpt lat="44.12759" lon="3.50473">
        <ele>1285</ele>
        <time>2009-07-09T08:34:41Z</time>
      </trkpt>
      <trkpt lat="44.12743" lon="3.505">
        <ele>1287</ele>
        <time>2009-07-09T08:34:52Z</time>
      </trkpt>
      <trkpt lat="44.1274" lon="3.50543">
        <ele>1289</ele>
        <time>2009-07-09T08:35:04Z</time>
      </trkpt>
      <trkpt lat="44.12757" lon="3.50573">
        <ele>1292</ele>
        <time>2009-07-09T08:35:15Z</time>
      </trkpt>
      <trkpt lat="44.12773" lon="3.50621">
        <ele>1295</ele>
        <time>2009-07-09T08:35:30Z</time>
      </trkpt>
      <trkpt lat="44.12798" lon="3.50649">
        <ele>1296</ele>
        <time>2009-07-09T08:35:44Z</time>
      </trkpt>
      <trkpt lat="44.12803" lon="3.50649">
        <ele>1296</ele>
        <time>2009-07-09T08:35:46Z</time>
      </trkpt>
      <trkpt lat="44.1283" lon="3.50622">
        <ele>1299</ele>
        <time>2009-07-09T08:35:59Z</time>
      </trkpt>
      <trkpt lat="44.12865" lon="3.50604">
        <ele>1299</ele>
        <time>2009-07-09T08:36:12Z</time>
      </trkpt>
      <trkpt lat="44.12897" lon="3.50624">
        <ele>1301</ele>
        <time>2009-07-09T08:36:24Z</time>
      </trkpt>
      <trkpt lat="44.12919" lon="3.50666">
        <ele>1304</ele>
        <time>2009-07-09T08:36:38Z</time>
      </trkpt>
      <trkpt lat="44.12932" lon="3.50712">
        <ele>1305</ele>
        <time>2009-07-09T08:36:52Z</time>
      </trkpt>
      <trkpt lat="44.12953" lon="3.50765">
        <ele>1306</ele>
        <time>2009-07-09T08:37:09Z</time>
      </trkpt>
      <trkpt lat="44.12961" lon="3.50791">
        <ele>1309</ele>
        <time>2009-07-09T08:37:17Z</time>
      </trkpt>
      <trkpt lat="44.1297" lon="3.50833">
        <ele>1312</ele>
        <time>2009-07-09T08:37:29Z</time>
      </trkpt>
      <trkpt lat="44.12961" lon="3.50886">
        <ele>1314</ele>
        <time>2009-07-09T08:37:44Z</time>
      </trkpt>
      <trkpt lat="44.12956" lon="3.50906">
        <ele>1315</ele>
        <time>2009-07-09T08:37:50Z</time>
      </trkpt>
      <trkpt lat="44.1295" lon="3.50927">
        <ele>1318</ele>
        <time>2009-07-09T08:37:56Z</time>
      </trkpt>
      <trkpt lat="44.12929" lon="3.50968">
        <ele>1322</ele>
        <time>2009-07-09T08:38:11Z</time>
      </trkpt>
      <trkpt lat="44.12891" lon="3.51001">
        <ele>1323</ele>
        <time>2009-07-09T08:38:28Z</time>
      </trkpt>
      <trkpt lat="44.12865" lon="3.51018">
        <ele>1326</ele>
        <time>2009-07-09T08:38:39Z</time>
      </trkpt>
      <trkpt lat="44.12835" lon="3.51032">
        <ele>1327</ele>
        <time>2009-07-09T08:38:51Z</time>
      </trkpt>
      <trkpt lat="44.12804" lon="3.51041">
        <ele>1329</ele>
        <time>2009-07-09T08:39:02Z</time>
      </trkpt>
      <trkpt lat="44.12773" lon="3.51041">
        <ele>1332</ele>
        <time>2009-07-09T08:39:13Z</time>
      </trkpt>
      <trkpt lat="44.12744" lon="3.50999">
        <ele>1332</ele>
        <time>2009-07-09T08:39:28Z</time>
      </trkpt>
      <trkpt lat="44.12717" lon="3.50937">
        <ele>1335</ele>
        <time>2009-07-09T08:39:47Z</time>
      </trkpt>
      <trkpt lat="44.12704" lon="3.5091">
        <ele>1338</ele>
        <time>2009-07-09T08:39:56Z</time>
      </trkpt>
      <trkpt lat="44.12683" lon="3.50872">
        <ele>1341</ele>
        <time>2009-07-09T08:40:10Z</time>
      </trkpt>
      <trkpt lat="44.12664" lon="3.50828">
        <ele>1344</ele>
        <time>2009-07-09T08:40:24Z</time>
      </trkpt>
      <trkpt lat="44.12656" lon="3.50803">
        <ele>1345</ele>
        <time>2009-07-09T08:40:33Z</time>
      </trkpt>
      <trkpt lat="44.12648" lon="3.50807">
        <ele>1346</ele>
        <time>2009-07-09T08:40:44Z</time>
      </trkpt>
      <trkpt lat="44.12646" lon="3.50806">
        <ele>1344</ele>
        <time>2009-07-09T08:41:08Z</time>
      </trkpt>
      <trkpt lat="44.12645" lon="3.50805">
        <ele>1348</ele>
        <time>2009-07-09T08:41:18Z</time>
      </trkpt>
      <trkpt lat="44.12645" lon="3.50805">
        <ele>1346</ele>
        <time>2009-07-09T08:41:19Z</time>
      </trkpt>
      <trkpt lat="44.12646" lon="3.50805">
        <ele>1342</ele>
        <time>2009-07-09T08:41:22Z</time>
      </trkpt>
      <trkpt lat="44.12646" lon="3.50805">
        <ele>1345</ele>
        <time>2009-07-09T08:41:23Z</time>
      </trkpt>
      <trkpt lat="44.12646" lon="3.50805">
        <ele>1342</ele>
        <time>2009-07-09T08:41:29Z</time>
      </trkpt>
      <trkpt lat="44.12647" lon="3.50804">
        <ele>1346</ele>
        <time>2009-07-09T08:41:30Z</time>
      </trkpt>
      <trkpt lat="44.12647" lon="3.50804">
        <ele>1344</ele>
        <time>2009-07-09T08:41:44Z</time>
      </trkpt>
      <trkpt lat="44.12644" lon="3.50811">
        <ele>1343</ele>
        <time>2009-07-09T08:42:09Z</time>
      </trkpt>
      <trkpt lat="44.12643" lon="3.50811">
        <ele>1344</ele>
        <time>2009-07-09T08:42:13Z</time>
      </trkpt>
      <trkpt lat="44.12644" lon="3.50814">
        <ele>1344</ele>
        <time>2009-07-09T08:42:47Z</time>
      </trkpt>
      <trkpt lat="44.12644" lon="3.50812">
        <ele>1345</ele>
        <time>2009-07-09T08:43:03Z</time>
      </trkpt>
      <trkpt lat="44.12643" lon="3.50809">
        <ele>1345</ele>
        <time>2009-07-09T08:44:16Z</time>
      </trkpt>
      <trkpt lat="44.12644" lon="3.50809">
        <ele>1346</ele>
        <time>2009-07-09T08:45:08Z</time>
      </trkpt>
      <trkpt lat="44.12645" lon="3.50808">
        <ele>1346</ele>
        <time>2009-07-09T08:45:54Z</time>
      </trkpt>
      <trkpt lat="44.12644" lon="3.50812">
        <ele>1346</ele>
        <time>2009-07-09T08:47:01Z</time>
      </trkpt>
      <trkpt lat="44.12644" lon="3.50815">
        <ele>1345</ele>
        <time>2009-07-09T08:47:18Z</time>
      </trkpt>
      <trkpt lat="44.12647" lon="3.50835">
        <ele>1345</ele>
        <time>2009-07-09T08:47:26Z</time>
      </trkpt>
      <trkpt lat="44.12655" lon="3.50873">
        <ele>1347</ele>
        <time>2009-07-09T08:47:36Z</time>
      </trkpt>
      <trkpt lat="44.12652" lon="3.50932">
        <ele>1350</ele>
        <time>2009-07-09T08:47:52Z</time>
      </trkpt>
      <trkpt lat="44.12639" lon="3.50983">
        <ele>1353</ele>
        <time>2009-07-09T08:48:08Z</time>
      </trkpt>
      <trkpt lat="44.12623" lon="3.51019">
        <ele>1354</ele>
        <time>2009-07-09T08:48:22Z</time>
      </trkpt>
      <trkpt lat="44.12608" lon="3.51051">
        <ele>1357</ele>
        <time>2009-07-09T08:48:35Z</time>
      </trkpt>
      <trkpt lat="44.12606" lon="3.51057">
        <ele>1357</ele>
        <time>2009-07-09T08:48:37Z</time>
      </trkpt>
      <trkpt lat="44.12602" lon="3.51083">
        <ele>1360</ele>
        <time>2009-07-09T08:48:46Z</time>
      </trkpt>
      <trkpt lat="44.12599" lon="3.51116">
        <ele>1363</ele>
        <time>2009-07-09T08:48:57Z</time>
      </trkpt>
      <trkpt lat="44.12597" lon="3.51162">
        <ele>1364</ele>
        <time>2009-07-09T08:49:12Z</time>
      </trkpt>
      <trkpt lat="44.12589" lon="3.51201">
        <ele>1366</ele>
        <time>2009-07-09T08:49:25Z</time>
      </trkpt>
      <trkpt lat="44.12588" lon="3.51204">
        <ele>1366</ele>
        <time>2009-07-09T08:49:26Z</time>
      </trkpt>
      <trkpt lat="44.1258" lon="3.51227">
        <ele>1369</ele>
        <time>2009-07-09T08:49:34Z</time>
      </trkpt>
      <trkpt lat="44.12566" lon="3.5126">
        <ele>1373</ele>
        <time>2009-07-09T08:49:46Z</time>
      </trkpt>
      <trkpt lat="44.12546" lon="3.51302">
        <ele>1374</ele>
        <time>2009-07-09T08:50:02Z</time>
      </trkpt>
      <trkpt lat="44.12532" lon="3.51334">
        <ele>1377</ele>
        <time>2009-07-09T08:50:14Z</time>
      </trkpt>
      <trkpt lat="44.12518" lon="3.51369">
        <ele>1380</ele>
        <time>2009-07-09T08:50:27Z</time>
      </trkpt>
      <trkpt lat="44.12506" lon="3.51413">
        <ele>1382</ele>
        <time>2009-07-09T08:50:43Z</time>
      </trkpt>
      <trkpt lat="44.12498" lon="3.51449">
        <ele>1385</ele>
        <time>2009-07-09T08:50:55Z</time>
      </trkpt>
      <trkpt lat="44.12499" lon="3.51458">
        <ele>1385</ele>
        <time>2009-07-09T08:50:59Z</time>
      </trkpt>
      <trkpt lat="44.12502" lon="3.51475">
        <ele>1385</ele>
        <time>2009-07-09T08:51:06Z</time>
      </trkpt>
      <trkpt lat="44.12497" lon="3.51538">
        <ele>1385</ele>
        <time>2009-07-09T08:51:20Z</time>
      </trkpt>
      <trkpt lat="44.12497" lon="3.51576">
        <ele>1386</ele>
        <time>2009-07-09T08:51:29Z</time>
      </trkpt>
      <trkpt lat="44.12487" lon="3.51624">
        <ele>1387</ele>
        <time>2009-07-09T08:51:43Z</time>
      </trkpt>
      <trkpt lat="44.12485" lon="3.5163">
        <ele>1388</ele>
        <time>2009-07-09T08:51:45Z</time>
      </trkpt>
      <trkpt lat="44.12475" lon="3.51652">
        <ele>1390</ele>
        <time>2009-07-09T08:51:53Z</time>
      </trkpt>
      <trkpt lat="44.1247" lon="3.51664">
        <ele>1392</ele>
        <time>2009-07-09T08:51:57Z</time>
      </trkpt>
      <trkpt lat="44.12455" lon="3.51689">
        <ele>1394</ele>
        <time>2009-07-09T08:52:08Z</time>
      </trkpt>
      <trkpt lat="44.12436" lon="3.51694">
        <ele>1396</ele>
        <time>2009-07-09T08:52:19Z</time>
      </trkpt>
      <trkpt lat="44.1243" lon="3.51697">
        <ele>1398</ele>
        <time>2009-07-09T08:52:23Z</time>
      </trkpt>
      <trkpt lat="44.12418" lon="3.51707">
        <ele>1399</ele>
        <time>2009-07-09T08:52:32Z</time>
      </trkpt>
      <trkpt lat="44.12403" lon="3.51721">
        <ele>1402</ele>
        <time>2009-07-09T08:52:45Z</time>
      </trkpt>
      <trkpt lat="44.12402" lon="3.51722">
        <ele>1402</ele>
        <time>2009-07-09T08:52:46Z</time>
      </trkpt>
      <trkpt lat="44.12399" lon="3.51723">
        <ele>1403</ele>
        <time>2009-07-09T08:52:49Z</time>
      </trkpt>
      <trkpt lat="44.12393" lon="3.5173">
        <ele>1404</ele>
        <time>2009-07-09T08:52:53Z</time>
      </trkpt>
      <trkpt lat="44.12389" lon="3.51734">
        <ele>1404</ele>
        <time>2009-07-09T08:52:57Z</time>
      </trkpt>
      <trkpt lat="44.12382" lon="3.5175">
        <ele>1406</ele>
        <time>2009-07-09T08:53:05Z</time>
      </trkpt>
      <trkpt lat="44.12375" lon="3.5176">
        <ele>1407</ele>
        <time>2009-07-09T08:53:11Z</time>
      </trkpt>
      <trkpt lat="44.12374" lon="3.51764">
        <ele>1408</ele>
        <time>2009-07-09T08:53:13Z</time>
      </trkpt>
      <trkpt lat="44.12367" lon="3.51782">
        <ele>1411</ele>
        <time>2009-07-09T08:53:22Z</time>
      </trkpt>
      <trkpt lat="44.12362" lon="3.51801">
        <ele>1413</ele>
        <time>2009-07-09T08:53:32Z</time>
      </trkpt>
      <trkpt lat="44.1236" lon="3.51805">
        <ele>1413</ele>
        <time>2009-07-09T08:53:34Z</time>
      </trkpt>
      <trkpt lat="44.12353" lon="3.51839">
        <ele>1414</ele>
        <time>2009-07-09T08:53:49Z</time>
      </trkpt>
      <trkpt lat="44.12351" lon="3.51853">
        <ele>1417</ele>
        <time>2009-07-09T08:53:56Z</time>
      </trkpt>
      <trkpt lat="44.12353" lon="3.51873">
        <ele>1419</ele>
        <time>2009-07-09T08:54:05Z</time>
      </trkpt>
      <trkpt lat="44.12347" lon="3.51878">
        <ele>1420</ele>
        <time>2009-07-09T08:54:17Z</time>
      </trkpt>
      <trkpt lat="44.12344" lon="3.51881">
        <ele>1422</ele>
        <time>2009-07-09T08:54:22Z</time>
      </trkpt>
      <trkpt lat="44.12342" lon="3.51884">
        <ele>1422</ele>
        <time>2009-07-09T08:54:24Z</time>
      </trkpt>
      <trkpt lat="44.12341" lon="3.51893">
        <ele>1421</ele>
        <time>2009-07-09T08:54:45Z</time>
      </trkpt>
      <trkpt lat="44.12341" lon="3.51904">
        <ele>1420</ele>
        <time>2009-07-09T08:55:17Z</time>
      </trkpt>
      <trkpt lat="44.12344" lon="3.51902">
        <ele>1421</ele>
        <time>2009-07-09T08:55:40Z</time>
      </trkpt>
      <trkpt lat="44.1234" lon="3.51906">
        <ele>1422</ele>
        <time>2009-07-09T08:56:30Z</time>
      </trkpt>
      <trkpt lat="44.12343" lon="3.51912">
        <ele>1423</ele>
        <time>2009-07-09T08:56:49Z</time>
      </trkpt>
      <trkpt lat="44.12349" lon="3.51943">
        <ele>1425</ele>
        <time>2009-07-09T08:57:03Z</time>
      </trkpt>
      <trkpt lat="44.12357" lon="3.51976">
        <ele>1428</ele>
        <time>2009-07-09T08:57:16Z</time>
      </trkpt>
      <trkpt lat="44.12368" lon="3.52012">
        <ele>1430</ele>
        <time>2009-07-09T08:57:31Z</time>
      </trkpt>
      <trkpt lat="44.12357" lon="3.52057">
        <ele>1430</ele>
        <time>2009-07-09T08:57:46Z</time>
      </trkpt>
      <trkpt lat="44.12332" lon="3.5209">
        <ele>1433</ele>
        <time>2009-07-09T08:58:00Z</time>
      </trkpt>
      <trkpt lat="44.12303" lon="3.52119">
        <ele>1434</ele>
        <time>2009-07-09T08:58:13Z</time>
      </trkpt>
      <trkpt lat="44.12276" lon="3.52154">
        <ele>1436</ele>
        <time>2009-07-09T08:58:27Z</time>
      </trkpt>
      <trkpt lat="44.12247" lon="3.52189">
        <ele>1438</ele>
        <time>2009-07-09T08:58:41Z</time>
      </trkpt>
      <trkpt lat="44.1222" lon="3.5222">
        <ele>1439</ele>
        <time>2009-07-09T08:58:56Z</time>
      </trkpt>
      <trkpt lat="44.12214" lon="3.52262">
        <ele>1439</ele>
        <time>2009-07-09T08:59:07Z</time>
      </trkpt>
      <trkpt lat="44.12222" lon="3.5233">
        <ele>1442</ele>
        <time>2009-07-09T08:59:24Z</time>
      </trkpt>
      <trkpt lat="44.12223" lon="3.52385">
        <ele>1443</ele>
        <time>2009-07-09T08:59:38Z</time>
      </trkpt>
      <trkpt lat="44.12221" lon="3.52448">
        <ele>1444</ele>
        <time>2009-07-09T08:59:53Z</time>
      </trkpt>
      <trkpt lat="44.12214" lon="3.52513">
        <ele>1448</ele>
        <time>2009-07-09T09:00:09Z</time>
      </trkpt>
      <trkpt lat="44.12201" lon="3.52563">
        <ele>1450</ele>
        <time>2009-07-09T09:00:21Z</time>
      </trkpt>
      <trkpt lat="44.12192" lon="3.52626">
        <ele>1452</ele>
        <time>2009-07-09T09:00:35Z</time>
      </trkpt>
      <trkpt lat="44.12182" lon="3.52682">
        <ele>1453</ele>
        <time>2009-07-09T09:00:48Z</time>
      </trkpt>
      <trkpt lat="44.12172" lon="3.52728">
        <ele>1456</ele>
        <time>2009-07-09T09:00:58Z</time>
      </trkpt>
      <trkpt lat="44.12154" lon="3.5279">
        <ele>1459</ele>
        <time>2009-07-09T09:01:13Z</time>
      </trkpt>
      <trkpt lat="44.12127" lon="3.52872">
        <ele>1462</ele>
        <time>2009-07-09T09:01:34Z</time>
      </trkpt>
      <trkpt lat="44.1212" lon="3.52912">
        <ele>1463</ele>
        <time>2009-07-09T09:01:47Z</time>
      </trkpt>
      <trkpt lat="44.1212" lon="3.52919">
        <ele>1463</ele>
        <time>2009-07-09T09:02:02Z</time>
      </trkpt>
      <trkpt lat="44.12118" lon="3.52918">
        <ele>1463</ele>
        <time>2009-07-09T09:02:46Z</time>
      </trkpt>
      <trkpt lat="44.12119" lon="3.52921">
        <ele>1462</ele>
        <time>2009-07-09T09:03:02Z</time>
      </trkpt>
      <trkpt lat="44.12119" lon="3.52929">
        <ele>1462</ele>
        <time>2009-07-09T09:03:06Z</time>
      </trkpt>
      <trkpt lat="44.12117" lon="3.52968">
        <ele>1463</ele>
        <time>2009-07-09T09:03:18Z</time>
      </trkpt>
      <trkpt lat="44.12113" lon="3.53007">
        <ele>1465</ele>
        <time>2009-07-09T09:03:29Z</time>
      </trkpt>
      <trkpt lat="44.12111" lon="3.53068">
        <ele>1465</ele>
        <time>2009-07-09T09:03:43Z</time>
      </trkpt>
      <trkpt lat="44.12123" lon="3.53145">
        <ele>1463</ele>
        <time>2009-07-09T09:03:58Z</time>
      </trkpt>
      <trkpt lat="44.12112" lon="3.53225">
        <ele>1463</ele>
        <time>2009-07-09T09:04:13Z</time>
      </trkpt>
      <trkpt lat="44.12108" lon="3.53247">
        <ele>1462</ele>
        <time>2009-07-09T09:04:17Z</time>
      </trkpt>
      <trkpt lat="44.12106" lon="3.53259">
        <ele>1462</ele>
        <time>2009-07-09T09:04:19Z</time>
      </trkpt>
      <trkpt lat="44.12102" lon="3.53272">
        <ele>1461</ele>
        <time>2009-07-09T09:04:21Z</time>
      </trkpt>
      <trkpt lat="44.12097" lon="3.53309">
        <ele>1462</ele>
        <time>2009-07-09T09:04:26Z</time>
      </trkpt>
      <trkpt lat="44.12095" lon="3.53372">
        <ele>1461</ele>
        <time>2009-07-09T09:04:37Z</time>
      </trkpt>
      <trkpt lat="44.12109" lon="3.5343">
        <ele>1460</ele>
        <time>2009-07-09T09:04:48Z</time>
      </trkpt>
      <trkpt lat="44.12125" lon="3.53487">
        <ele>1461</ele>
        <time>2009-07-09T09:05:02Z</time>
      </trkpt>
      <trkpt lat="44.12125" lon="3.53525">
        <ele>1459</ele>
        <time>2009-07-09T09:05:10Z</time>
      </trkpt>
      <trkpt lat="44.12119" lon="3.53553">
        <ele>1459</ele>
        <time>2009-07-09T09:05:15Z</time>
      </trkpt>
      <trkpt lat="44.12107" lon="3.53589">
        <ele>1458</ele>
        <time>2009-07-09T09:05:22Z</time>
      </trkpt>
      <trkpt lat="44.12086" lon="3.5364">
        <ele>1457</ele>
        <time>2009-07-09T09:05:32Z</time>
      </trkpt>
      <trkpt lat="44.12081" lon="3.53656">
        <ele>1457</ele>
        <time>2009-07-09T09:05:35Z</time>
      </trkpt>
      <trkpt lat="44.12078" lon="3.53666">
        <ele>1456</ele>
        <time>2009-07-09T09:05:37Z</time>
      </trkpt>
      <trkpt lat="44.12073" lon="3.5369">
        <ele>1455</ele>
        <time>2009-07-09T09:05:41Z</time>
      </trkpt>
      <trkpt lat="44.1207" lon="3.53708">
        <ele>1454</ele>
        <time>2009-07-09T09:05:44Z</time>
      </trkpt>
      <trkpt lat="44.12065" lon="3.53784">
        <ele>1454</ele>
        <time>2009-07-09T09:05:57Z</time>
      </trkpt>
      <trkpt lat="44.12064" lon="3.5379">
        <ele>1454</ele>
        <time>2009-07-09T09:05:58Z</time>
      </trkpt>
      <trkpt lat="44.12048" lon="3.53853">
        <ele>1454</ele>
        <time>2009-07-09T09:06:09Z</time>
      </trkpt>
      <trkpt lat="44.12035" lon="3.53915">
        <ele>1453</ele>
        <time>2009-07-09T09:06:23Z</time>
      </trkpt>
      <trkpt lat="44.12031" lon="3.53956">
        <ele>1453</ele>
        <time>2009-07-09T09:06:35Z</time>
      </trkpt>
      <trkpt lat="44.1203" lon="3.53966">
        <ele>1453</ele>
        <time>2009-07-09T09:06:45Z</time>
      </trkpt>
      <trkpt lat="44.12027" lon="3.53987">
        <ele>1451</ele>
        <time>2009-07-09T09:07:05Z</time>
      </trkpt>
      <trkpt lat="44.12025" lon="3.54006">
        <ele>1453</ele>
        <time>2009-07-09T09:07:12Z</time>
      </trkpt>
      <trkpt lat="44.12037" lon="3.54011">
        <ele>1451</ele>
        <time>2009-07-09T09:07:19Z</time>
      </trkpt>
      <trkpt lat="44.12054" lon="3.54006">
        <ele>1451</ele>
        <time>2009-07-09T09:07:30Z</time>
      </trkpt>
      <trkpt lat="44.12042" lon="3.54007">
        <ele>1451</ele>
        <time>2009-07-09T09:07:54Z</time>
      </trkpt>
      <trkpt lat="44.12035" lon="3.54011">
        <ele>1450</ele>
        <time>2009-07-09T09:08:20Z</time>
      </trkpt>
      <trkpt lat="44.12027" lon="3.54014">
        <ele>1451</ele>
        <time>2009-07-09T09:08:36Z</time>
      </trkpt>
      <trkpt lat="44.12025" lon="3.54022">
        <ele>1451</ele>
        <time>2009-07-09T09:08:40Z</time>
      </trkpt>
      <trkpt lat="44.12006" lon="3.5409">
        <ele>1449</ele>
        <time>2009-07-09T09:08:55Z</time>
      </trkpt>
      <trkpt lat="44.12002" lon="3.541">
        <ele>1448</ele>
        <time>2009-07-09T09:08:57Z</time>
      </trkpt>
      <trkpt lat="44.11998" lon="3.54124">
        <ele>1448</ele>
        <time>2009-07-09T09:09:02Z</time>
      </trkpt>
      <trkpt lat="44.11978" lon="3.54141">
        <ele>1448</ele>
        <time>2009-07-09T09:09:07Z</time>
      </trkpt>
      <trkpt lat="44.11954" lon="3.54153">
        <ele>1446</ele>
        <time>2009-07-09T09:09:12Z</time>
      </trkpt>
      <trkpt lat="44.11929" lon="3.5416">
        <ele>1446</ele>
        <time>2009-07-09T09:09:17Z</time>
      </trkpt>
      <trkpt lat="44.11909" lon="3.54178">
        <ele>1445</ele>
        <time>2009-07-09T09:09:21Z</time>
      </trkpt>
      <trkpt lat="44.11867" lon="3.54233">
        <ele>1444</ele>
        <time>2009-07-09T09:09:31Z</time>
      </trkpt>
      <trkpt lat="44.11834" lon="3.54257">
        <ele>1442</ele>
        <time>2009-07-09T09:09:37Z</time>
      </trkpt>
      <trkpt lat="44.1182" lon="3.54275">
        <ele>1442</ele>
        <time>2009-07-09T09:09:40Z</time>
      </trkpt>
      <trkpt lat="44.11821" lon="3.54306">
        <ele>1441</ele>
        <time>2009-07-09T09:09:44Z</time>
      </trkpt>
      <trkpt lat="44.11825" lon="3.5433">
        <ele>1440</ele>
        <time>2009-07-09T09:09:47Z</time>
      </trkpt>
      <trkpt lat="44.1183" lon="3.54354">
        <ele>1440</ele>
        <time>2009-07-09T09:09:50Z</time>
      </trkpt>
      <trkpt lat="44.11843" lon="3.54429">
        <ele>1437</ele>
        <time>2009-07-09T09:09:59Z</time>
      </trkpt>
      <trkpt lat="44.11845" lon="3.54438">
        <ele>1437</ele>
        <time>2009-07-09T09:10:00Z</time>
      </trkpt>
      <trkpt lat="44.11862" lon="3.54545">
        <ele>1436</ele>
        <time>2009-07-09T09:10:13Z</time>
      </trkpt>
      <trkpt lat="44.11865" lon="3.54563">
        <ele>1436</ele>
        <time>2009-07-09T09:10:15Z</time>
      </trkpt>
      <trkpt lat="44.11856" lon="3.5465">
        <ele>1434</ele>
        <time>2009-07-09T09:10:25Z</time>
      </trkpt>
      <trkpt lat="44.1185" lon="3.54667">
        <ele>1432</ele>
        <time>2009-07-09T09:10:27Z</time>
      </trkpt>
      <trkpt lat="44.11846" lon="3.54675">
        <ele>1433</ele>
        <time>2009-07-09T09:10:28Z</time>
      </trkpt>
      <trkpt lat="44.1182" lon="3.54716">
        <ele>1431</ele>
        <time>2009-07-09T09:10:34Z</time>
      </trkpt>
      <trkpt lat="44.11777" lon="3.54765">
        <ele>1430</ele>
        <time>2009-07-09T09:10:42Z</time>
      </trkpt>
      <trkpt lat="44.1174" lon="3.54846">
        <ele>1428</ele>
        <time>2009-07-09T09:10:52Z</time>
      </trkpt>
      <trkpt lat="44.11726" lon="3.54926">
        <ele>1426</ele>
        <time>2009-07-09T09:11:01Z</time>
      </trkpt>
      <trkpt lat="44.11728" lon="3.54945">
        <ele>1425</ele>
        <time>2009-07-09T09:11:03Z</time>
      </trkpt>
      <trkpt lat="44.11732" lon="3.5497">
        <ele>1425</ele>
        <time>2009-07-09T09:11:06Z</time>
      </trkpt>
      <trkpt lat="44.1172" lon="3.55024">
        <ele>1422</ele>
        <time>2009-07-09T09:11:12Z</time>
      </trkpt>
      <trkpt lat="44.11716" lon="3.55032">
        <ele>1422</ele>
        <time>2009-07-09T09:11:13Z</time>
      </trkpt>
      <trkpt lat="44.11698" lon="3.55075">
        <ele>1421</ele>
        <time>2009-07-09T09:11:18Z</time>
      </trkpt>
      <trkpt lat="44.11663" lon="3.5514">
        <ele>1419</ele>
        <time>2009-07-09T09:11:27Z</time>
      </trkpt>
      <trkpt lat="44.11658" lon="3.55174">
        <ele>1421</ele>
        <time>2009-07-09T09:11:34Z</time>
      </trkpt>
      <trkpt lat="44.11659" lon="3.55185">
        <ele>1422</ele>
        <time>2009-07-09T09:11:37Z</time>
      </trkpt>
      <trkpt lat="44.11659" lon="3.55188">
        <ele>1422</ele>
        <time>2009-07-09T09:11:38Z</time>
      </trkpt>
      <trkpt lat="44.11656" lon="3.55193">
        <ele>1422</ele>
        <time>2009-07-09T09:11:47Z</time>
      </trkpt>
      <trkpt lat="44.11664" lon="3.55193">
        <ele>1422</ele>
        <time>2009-07-09T09:14:45Z</time>
      </trkpt>
      <trkpt lat="44.11671" lon="3.55248">
        <ele>1421</ele>
        <time>2009-07-09T09:14:56Z</time>
      </trkpt>
      <trkpt lat="44.11674" lon="3.55273">
        <ele>1417</ele>
        <time>2009-07-09T09:14:59Z</time>
      </trkpt>
      <trkpt lat="44.11699" lon="3.55366">
        <ele>1414</ele>
        <time>2009-07-09T09:15:09Z</time>
      </trkpt>
      <trkpt lat="44.11708" lon="3.55389">
        <ele>1418</ele>
        <time>2009-07-09T09:15:12Z</time>
      </trkpt>
      <trkpt lat="44.11711" lon="3.55397">
        <ele>1417</ele>
        <time>2009-07-09T09:15:13Z</time>
      </trkpt>
      <trkpt lat="44.11716" lon="3.55411">
        <ele>1416</ele>
        <time>2009-07-09T09:15:15Z</time>
      </trkpt>
      <trkpt lat="44.11728" lon="3.55443">
        <ele>1415</ele>
        <time>2009-07-09T09:15:20Z</time>
      </trkpt>
      <trkpt lat="44.11732" lon="3.55456">
        <ele>1418</ele>
        <time>2009-07-09T09:15:22Z</time>
      </trkpt>
      <trkpt lat="44.11752" lon="3.55507">
        <ele>1422</ele>
        <time>2009-07-09T09:15:32Z</time>
      </trkpt>
      <trkpt lat="44.11764" lon="3.5554">
        <ele>1420</ele>
        <time>2009-07-09T09:15:39Z</time>
      </trkpt>
      <trkpt lat="44.11794" lon="3.5562">
        <ele>1422</ele>
        <time>2009-07-09T09:15:56Z</time>
      </trkpt>
      <trkpt lat="44.11828" lon="3.55688">
        <ele>1425</ele>
        <time>2009-07-09T09:16:12Z</time>
      </trkpt>
      <trkpt lat="44.11865" lon="3.55757">
        <ele>1426</ele>
        <time>2009-07-09T09:16:30Z</time>
      </trkpt>
      <trkpt lat="44.11883" lon="3.55789">
        <ele>1430</ele>
        <time>2009-07-09T09:16:39Z</time>
      </trkpt>
      <trkpt lat="44.11885" lon="3.55793">
        <ele>1429</ele>
        <time>2009-07-09T09:16:40Z</time>
      </trkpt>
      <trkpt lat="44.11902" lon="3.55826">
        <ele>1429</ele>
        <time>2009-07-09T09:16:50Z</time>
      </trkpt>
      <trkpt lat="44.1193" lon="3.55873">
        <ele>1432</ele>
        <time>2009-07-09T09:17:07Z</time>
      </trkpt>
      <trkpt lat="44.11932" lon="3.55876">
        <ele>1434</ele>
        <time>2009-07-09T09:17:09Z</time>
      </trkpt>
      <trkpt lat="44.11934" lon="3.5588">
        <ele>1433</ele>
        <time>2009-07-09T09:17:24Z</time>
      </trkpt>
      <trkpt lat="44.11933" lon="3.5588">
        <ele>1433</ele>
        <time>2009-07-09T09:17:31Z</time>
      </trkpt>
      <trkpt lat="44.11923" lon="3.55866">
        <ele>1432</ele>
        <time>2009-07-09T09:17:37Z</time>
      </trkpt>
      <trkpt lat="44.1191" lon="3.55868">
        <ele>1432</ele>
        <time>2009-07-09T09:17:46Z</time>
      </trkpt>
      <trkpt lat="44.11912" lon="3.55866">
        <ele>1431</ele>
        <time>2009-07-09T09:17:51Z</time>
      </trkpt>
      <trkpt lat="44.11916" lon="3.55863">
        <ele>1431</ele>
        <time>2009-07-09T09:17:54Z</time>
      </trkpt>
      <trkpt lat="44.11907" lon="3.55835">
        <ele>1430</ele>
        <time>2009-07-09T09:18:02Z</time>
      </trkpt>
      <trkpt lat="44.11886" lon="3.55799">
        <ele>1425</ele>
        <time>2009-07-09T09:18:08Z</time>
      </trkpt>
      <trkpt lat="44.11882" lon="3.55791">
        <ele>1426</ele>
        <time>2009-07-09T09:18:09Z</time>
      </trkpt>
      <trkpt lat="44.11861" lon="3.55752">
        <ele>1425</ele>
        <time>2009-07-09T09:18:14Z</time>
      </trkpt>
      <trkpt lat="44.11819" lon="3.55676">
        <ele>1424</ele>
        <time>2009-07-09T09:18:26Z</time>
      </trkpt>
      <trkpt lat="44.11799" lon="3.55631">
        <ele>1422</ele>
        <time>2009-07-09T09:18:36Z</time>
      </trkpt>
      <trkpt lat="44.11775" lon="3.55582">
        <ele>1421</ele>
        <time>2009-07-09T09:18:48Z</time>
      </trkpt>
      <trkpt lat="44.11749" lon="3.55544">
        <ele>1421</ele>
        <time>2009-07-09T09:19:00Z</time>
      </trkpt>
      <trkpt lat="44.11734" lon="3.55528">
        <ele>1423</ele>
        <time>2009-07-09T09:19:06Z</time>
      </trkpt>
      <trkpt lat="44.11734" lon="3.55545">
        <ele>1422</ele>
        <time>2009-07-09T09:19:14Z</time>
      </trkpt>
      <trkpt lat="44.11747" lon="3.55565">
        <ele>1422</ele>
        <time>2009-07-09T09:19:24Z</time>
      </trkpt>
      <trkpt lat="44.11761" lon="3.55588">
        <ele>1421</ele>
        <time>2009-07-09T09:19:38Z</time>
      </trkpt>
      <trkpt lat="44.11784" lon="3.55637">
        <ele>1422</ele>
        <time>2009-07-09T09:19:52Z</time>
      </trkpt>
      <trkpt lat="44.11798" lon="3.55658">
        <ele>1422</ele>
        <time>2009-07-09T09:19:59Z</time>
      </trkpt>
      <trkpt lat="44.11816" lon="3.5571">
        <ele>1424</ele>
        <time>2009-07-09T09:20:13Z</time>
      </trkpt>
      <trkpt lat="44.11845" lon="3.55764">
        <ele>1426</ele>
        <time>2009-07-09T09:20:31Z</time>
      </trkpt>
      <trkpt lat="44.1186" lon="3.55797">
        <ele>1428</ele>
        <time>2009-07-09T09:20:44Z</time>
      </trkpt>
      <trkpt lat="44.11861" lon="3.55825">
        <ele>1429</ele>
        <time>2009-07-09T09:20:56Z</time>
      </trkpt>
      <trkpt lat="44.1187" lon="3.55861">
        <ele>1429</ele>
        <time>2009-07-09T09:21:09Z</time>
      </trkpt>
      <trkpt lat="44.1188" lon="3.55896">
        <ele>1432</ele>
        <time>2009-07-09T09:21:21Z</time>
      </trkpt>
      <trkpt lat="44.11896" lon="3.55927">
        <ele>1434</ele>
        <time>2009-07-09T09:21:35Z</time>
      </trkpt>
      <trkpt lat="44.11907" lon="3.55948">
        <ele>1436</ele>
        <time>2009-07-09T09:21:44Z</time>
      </trkpt>
      <trkpt lat="44.11931" lon="3.5597">
        <ele>1438</ele>
        <time>2009-07-09T09:21:59Z</time>
      </trkpt>
      <trkpt lat="44.11953" lon="3.55987">
        <ele>1442</ele>
        <time>2009-07-09T09:22:13Z</time>
      </trkpt>
      <trkpt lat="44.11986" lon="3.56006">
        <ele>1445</ele>
        <time>2009-07-09T09:22:30Z</time>
      </trkpt>
      <trkpt lat="44.1199" lon="3.56012">
        <ele>1445</ele>
        <time>2009-07-09T09:22:33Z</time>
      </trkpt>
      <trkpt lat="44.11992" lon="3.5602">
        <ele>1446</ele>
        <time>2009-07-09T09:22:36Z</time>
      </trkpt>
      <trkpt lat="44.11991" lon="3.56025">
        <ele>1447</ele>
        <time>2009-07-09T09:22:38Z</time>
      </trkpt>
      <trkpt lat="44.11965" lon="3.56047">
        <ele>1444</ele>
        <time>2009-07-09T09:22:50Z</time>
      </trkpt>
      <trkpt lat="44.11958" lon="3.56052">
        <ele>1444</ele>
        <time>2009-07-09T09:22:52Z</time>
      </trkpt>
      <trkpt lat="44.11944" lon="3.56096">
        <ele>1443</ele>
        <time>2009-07-09T09:23:02Z</time>
      </trkpt>
      <trkpt lat="44.1195" lon="3.56107">
        <ele>1443</ele>
        <time>2009-07-09T09:23:12Z</time>
      </trkpt>
      <trkpt lat="44.11956" lon="3.5611">
        <ele>1444</ele>
        <time>2009-07-09T09:23:37Z</time>
      </trkpt>
      <trkpt lat="44.11951" lon="3.56117">
        <ele>1444</ele>
        <time>2009-07-09T09:23:44Z</time>
      </trkpt>
      <trkpt lat="44.11937" lon="3.56125">
        <ele>1440</ele>
        <time>2009-07-09T09:23:51Z</time>
      </trkpt>
      <trkpt lat="44.11939" lon="3.56127">
        <ele>1439</ele>
        <time>2009-07-09T09:23:52Z</time>
      </trkpt>
      <trkpt lat="44.11964" lon="3.5617">
        <ele>1440</ele>
        <time>2009-07-09T09:24:06Z</time>
      </trkpt>
      <trkpt lat="44.11978" lon="3.56198">
        <ele>1443</ele>
        <time>2009-07-09T09:24:16Z</time>
      </trkpt>
      <trkpt lat="44.11986" lon="3.5625">
        <ele>1440</ele>
        <time>2009-07-09T09:24:30Z</time>
      </trkpt>
      <trkpt lat="44.11985" lon="3.56271">
        <ele>1438</ele>
        <time>2009-07-09T09:24:33Z</time>
      </trkpt>
      <trkpt lat="44.11995" lon="3.56297">
        <ele>1439</ele>
        <time>2009-07-09T09:24:38Z</time>
      </trkpt>
      <trkpt lat="44.11998" lon="3.56302">
        <ele>1440</ele>
        <time>2009-07-09T09:24:40Z</time>
      </trkpt>
      <trkpt lat="44.12007" lon="3.56306">
        <ele>1441</ele>
        <time>2009-07-09T09:24:44Z</time>
      </trkpt>
      <trkpt lat="44.12024" lon="3.56308">
        <ele>1444</ele>
        <time>2009-07-09T09:24:52Z</time>
      </trkpt>
      <trkpt lat="44.12034" lon="3.56312">
        <ele>1446</ele>
        <time>2009-07-09T09:24:57Z</time>
      </trkpt>
      <trkpt lat="44.12061" lon="3.56336">
        <ele>1449</ele>
        <time>2009-07-09T09:25:12Z</time>
      </trkpt>
      <trkpt lat="44.12081" lon="3.56367">
        <ele>1451</ele>
        <time>2009-07-09T09:25:26Z</time>
      </trkpt>
      <trkpt lat="44.12107" lon="3.56406">
        <ele>1452</ele>
        <time>2009-07-09T09:25:43Z</time>
      </trkpt>
      <trkpt lat="44.12111" lon="3.56453">
        <ele>1453</ele>
        <time>2009-07-09T09:25:57Z</time>
      </trkpt>
      <trkpt lat="44.12108" lon="3.56502">
        <ele>1453</ele>
        <time>2009-07-09T09:26:11Z</time>
      </trkpt>
      <trkpt lat="44.12081" lon="3.56515">
        <ele>1450</ele>
        <time>2009-07-09T09:26:20Z</time>
      </trkpt>
      <trkpt lat="44.12075" lon="3.56516">
        <ele>1450</ele>
        <time>2009-07-09T09:26:21Z</time>
      </trkpt>
      <trkpt lat="44.12056" lon="3.56532">
        <ele>1445</ele>
        <time>2009-07-09T09:26:25Z</time>
      </trkpt>
      <trkpt lat="44.12046" lon="3.56552">
        <ele>1444</ele>
        <time>2009-07-09T09:26:27Z</time>
      </trkpt>
      <trkpt lat="44.12035" lon="3.56575">
        <ele>1447</ele>
        <time>2009-07-09T09:26:31Z</time>
      </trkpt>
      <trkpt lat="44.12036" lon="3.56585">
        <ele>1449</ele>
        <time>2009-07-09T09:26:34Z</time>
      </trkpt>
      <trkpt lat="44.12038" lon="3.56621">
        <ele>1452</ele>
        <time>2009-07-09T09:26:46Z</time>
      </trkpt>
      <trkpt lat="44.12038" lon="3.56663">
        <ele>1454</ele>
        <time>2009-07-09T09:27:01Z</time>
      </trkpt>
      <trkpt lat="44.12038" lon="3.5668">
        <ele>1457</ele>
        <time>2009-07-09T09:27:08Z</time>
      </trkpt>
      <trkpt lat="44.12042" lon="3.56693">
        <ele>1457</ele>
        <time>2009-07-09T09:27:14Z</time>
      </trkpt>
      <trkpt lat="44.1204" lon="3.567">
        <ele>1459</ele>
        <time>2009-07-09T09:27:17Z</time>
      </trkpt>
      <trkpt lat="44.12038" lon="3.56704">
        <ele>1460</ele>
        <time>2009-07-09T09:27:19Z</time>
      </trkpt>
      <trkpt lat="44.12034" lon="3.56736">
        <ele>1463</ele>
        <time>2009-07-09T09:27:32Z</time>
      </trkpt>
      <trkpt lat="44.12031" lon="3.56771">
        <ele>1466</ele>
        <time>2009-07-09T09:27:47Z</time>
      </trkpt>
      <trkpt lat="44.12033" lon="3.56793">
        <ele>1469</ele>
        <time>2009-07-09T09:27:57Z</time>
      </trkpt>
      <trkpt lat="44.12045" lon="3.56817">
        <ele>1472</ele>
        <time>2009-07-09T09:28:10Z</time>
      </trkpt>
      <trkpt lat="44.12053" lon="3.56836">
        <ele>1475</ele>
        <time>2009-07-09T09:28:20Z</time>
      </trkpt>
      <trkpt lat="44.12054" lon="3.56838">
        <ele>1475</ele>
        <time>2009-07-09T09:28:21Z</time>
      </trkpt>
      <trkpt lat="44.12065" lon="3.56873">
        <ele>1478</ele>
        <time>2009-07-09T09:28:38Z</time>
      </trkpt>
      <trkpt lat="44.12059" lon="3.5689">
        <ele>1479</ele>
        <time>2009-07-09T09:28:45Z</time>
      </trkpt>
      <trkpt lat="44.12051" lon="3.56897">
        <ele>1479</ele>
        <time>2009-07-09T09:28:49Z</time>
      </trkpt>
      <trkpt lat="44.12041" lon="3.56897">
        <ele>1481</ele>
        <time>2009-07-09T09:28:56Z</time>
      </trkpt>
      <trkpt lat="44.12024" lon="3.56913">
        <ele>1483</ele>
        <time>2009-07-09T09:29:09Z</time>
      </trkpt>
      <trkpt lat="44.12017" lon="3.56921">
        <ele>1483</ele>
        <time>2009-07-09T09:29:14Z</time>
      </trkpt>
      <trkpt lat="44.12006" lon="3.56933">
        <ele>1485</ele>
        <time>2009-07-09T09:29:22Z</time>
      </trkpt>
      <trkpt lat="44.12001" lon="3.56945">
        <ele>1487</ele>
        <time>2009-07-09T09:29:29Z</time>
      </trkpt>
      <trkpt lat="44.1199" lon="3.56958">
        <ele>1489</ele>
        <time>2009-07-09T09:29:36Z</time>
      </trkpt>
      <trkpt lat="44.11978" lon="3.5698">
        <ele>1491</ele>
        <time>2009-07-09T09:29:49Z</time>
      </trkpt>
      <trkpt lat="44.11977" lon="3.56981">
        <ele>1491</ele>
        <time>2009-07-09T09:29:50Z</time>
      </trkpt>
      <trkpt lat="44.11967" lon="3.57">
        <ele>1494</ele>
        <time>2009-07-09T09:30:00Z</time>
      </trkpt>
      <trkpt lat="44.11953" lon="3.57029">
        <ele>1497</ele>
        <time>2009-07-09T09:30:15Z</time>
      </trkpt>
      <trkpt lat="44.11952" lon="3.57031">
        <ele>1498</ele>
        <time>2009-07-09T09:30:16Z</time>
      </trkpt>
      <trkpt lat="44.11946" lon="3.57062">
        <ele>1500</ele>
        <time>2009-07-09T09:30:30Z</time>
      </trkpt>
      <trkpt lat="44.11946" lon="3.57064">
        <ele>1500</ele>
        <time>2009-07-09T09:30:31Z</time>
      </trkpt>
      <trkpt lat="44.11942" lon="3.5708">
        <ele>1501</ele>
        <time>2009-07-09T09:30:38Z</time>
      </trkpt>
      <trkpt lat="44.11937" lon="3.57096">
        <ele>1504</ele>
        <time>2009-07-09T09:30:46Z</time>
      </trkpt>
      <trkpt lat="44.11929" lon="3.57124">
        <ele>1507</ele>
        <time>2009-07-09T09:30:59Z</time>
      </trkpt>
      <trkpt lat="44.11923" lon="3.57147">
        <ele>1510</ele>
        <time>2009-07-09T09:31:10Z</time>
      </trkpt>
      <trkpt lat="44.11917" lon="3.57176">
        <ele>1511</ele>
        <time>2009-07-09T09:31:24Z</time>
      </trkpt>
      <trkpt lat="44.11916" lon="3.57185">
        <ele>1513</ele>
        <time>2009-07-09T09:31:28Z</time>
      </trkpt>
      <trkpt lat="44.11913" lon="3.57219">
        <ele>1516</ele>
        <time>2009-07-09T09:31:43Z</time>
      </trkpt>
      <trkpt lat="44.11913" lon="3.5724">
        <ele>1519</ele>
        <time>2009-07-09T09:31:52Z</time>
      </trkpt>
      <trkpt lat="44.11916" lon="3.57261">
        <ele>1521</ele>
        <time>2009-07-09T09:32:01Z</time>
      </trkpt>
      <trkpt lat="44.11925" lon="3.57296">
        <ele>1523</ele>
        <time>2009-07-09T09:32:17Z</time>
      </trkpt>
      <trkpt lat="44.11937" lon="3.5733">
        <ele>1527</ele>
        <time>2009-07-09T09:32:32Z</time>
      </trkpt>
      <trkpt lat="44.11953" lon="3.5736">
        <ele>1528</ele>
        <time>2009-07-09T09:32:47Z</time>
      </trkpt>
      <trkpt lat="44.11975" lon="3.57388">
        <ele>1530</ele>
        <time>2009-07-09T09:33:03Z</time>
      </trkpt>
      <trkpt lat="44.11998" lon="3.5741">
        <ele>1532</ele>
        <time>2009-07-09T09:33:18Z</time>
      </trkpt>
      <trkpt lat="44.12024" lon="3.57431">
        <ele>1535</ele>
        <time>2009-07-09T09:33:34Z</time>
      </trkpt>
      <trkpt lat="44.12035" lon="3.57449">
        <ele>1538</ele>
        <time>2009-07-09T09:33:43Z</time>
      </trkpt>
      <trkpt lat="44.12036" lon="3.57451">
        <ele>1538</ele>
        <time>2009-07-09T09:33:44Z</time>
      </trkpt>
      <trkpt lat="44.12046" lon="3.57485">
        <ele>1540</ele>
        <time>2009-07-09T09:33:58Z</time>
      </trkpt>
      <trkpt lat="44.12055" lon="3.57524">
        <ele>1542</ele>
        <time>2009-07-09T09:34:14Z</time>
      </trkpt>
      <trkpt lat="44.12056" lon="3.57546">
        <ele>1544</ele>
        <time>2009-07-09T09:34:22Z</time>
      </trkpt>
      <trkpt lat="44.12058" lon="3.57578">
        <ele>1547</ele>
        <time>2009-07-09T09:34:35Z</time>
      </trkpt>
      <trkpt lat="44.12063" lon="3.57622">
        <ele>1550</ele>
        <time>2009-07-09T09:34:51Z</time>
      </trkpt>
      <trkpt lat="44.12064" lon="3.57624">
        <ele>1551</ele>
        <time>2009-07-09T09:34:52Z</time>
      </trkpt>
      <trkpt lat="44.12068" lon="3.57675">
        <ele>1553</ele>
        <time>2009-07-09T09:35:10Z</time>
      </trkpt>
      <trkpt lat="44.12069" lon="3.57712">
        <ele>1556</ele>
        <time>2009-07-09T09:35:23Z</time>
      </trkpt>
      <trkpt lat="44.12069" lon="3.57714">
        <ele>1556</ele>
        <time>2009-07-09T09:35:24Z</time>
      </trkpt>
      <trkpt lat="44.12066" lon="3.5775">
        <ele>1558</ele>
        <time>2009-07-09T09:35:37Z</time>
      </trkpt>
      <trkpt lat="44.12066" lon="3.5779">
        <ele>1561</ele>
        <time>2009-07-09T09:35:52Z</time>
      </trkpt>
      <trkpt lat="44.12072" lon="3.57835">
        <ele>1563</ele>
        <time>2009-07-09T09:36:08Z</time>
      </trkpt>
      <trkpt lat="44.12076" lon="3.57842">
        <ele>1564</ele>
        <time>2009-07-09T09:36:11Z</time>
      </trkpt>
      <trkpt lat="44.12089" lon="3.57844">
        <ele>1563</ele>
        <time>2009-07-09T09:36:17Z</time>
      </trkpt>
      <trkpt lat="44.12112" lon="3.57888">
        <ele>1565</ele>
        <time>2009-07-09T09:36:31Z</time>
      </trkpt>
      <trkpt lat="44.12118" lon="3.57897">
        <ele>1567</ele>
        <time>2009-07-09T09:36:37Z</time>
      </trkpt>
      <trkpt lat="44.12121" lon="3.57896">
        <ele>1565</ele>
        <time>2009-07-09T09:36:40Z</time>
      </trkpt>
      <trkpt lat="44.12119" lon="3.579">
        <ele>1566</ele>
        <time>2009-07-09T09:36:47Z</time>
      </trkpt>
      <trkpt lat="44.12122" lon="3.57968">
        <ele>1563</ele>
        <time>2009-07-09T09:37:02Z</time>
      </trkpt>
      <trkpt lat="44.12122" lon="3.57974">
        <ele>1563</ele>
        <time>2009-07-09T09:37:03Z</time>
      </trkpt>
      <trkpt lat="44.12137" lon="3.57997">
        <ele>1562</ele>
        <time>2009-07-09T09:37:09Z</time>
      </trkpt>
      <trkpt lat="44.12152" lon="3.57999">
        <ele>1563</ele>
        <time>2009-07-09T09:37:16Z</time>
      </trkpt>
      <trkpt lat="44.12154" lon="3.57994">
        <ele>1564</ele>
        <time>2009-07-09T09:37:20Z</time>
      </trkpt>
      <trkpt lat="44.12149" lon="3.57993">
        <ele>1564</ele>
        <time>2009-07-09T09:37:22Z</time>
      </trkpt>
      <trkpt lat="44.12141" lon="3.57999">
        <ele>1564</ele>
        <time>2009-07-09T09:37:25Z</time>
      </trkpt>
      <trkpt lat="44.12138" lon="3.58027">
        <ele>1562</ele>
        <time>2009-07-09T09:37:30Z</time>
      </trkpt>
      <trkpt lat="44.12156" lon="3.58091">
        <ele>1564</ele>
        <time>2009-07-09T09:37:42Z</time>
      </trkpt>
      <trkpt lat="44.12148" lon="3.58115">
        <ele>1568</ele>
        <time>2009-07-09T09:37:47Z</time>
      </trkpt>
      <trkpt lat="44.12137" lon="3.58118">
        <ele>1569</ele>
        <time>2009-07-09T09:37:50Z</time>
      </trkpt>
      <trkpt lat="44.12131" lon="3.58142">
        <ele>1569</ele>
        <time>2009-07-09T09:37:59Z</time>
      </trkpt>
      <trkpt lat="44.12125" lon="3.58144">
        <ele>1569</ele>
        <time>2009-07-09T09:38:03Z</time>
      </trkpt>
      <trkpt lat="44.12112" lon="3.58142">
        <ele>1570</ele>
        <time>2009-07-09T09:38:14Z</time>
      </trkpt>
      <trkpt lat="44.1211" lon="3.58139">
        <ele>1569</ele>
        <time>2009-07-09T09:39:05Z</time>
      </trkpt>
      <trkpt lat="44.12111" lon="3.58138">
        <ele>1570</ele>
        <time>2009-07-09T09:39:36Z</time>
      </trkpt>
      <trkpt lat="44.12111" lon="3.58138">
        <ele>1570</ele>
        <time>2009-07-09T09:40:05Z</time>
      </trkpt>
      <trkpt lat="44.12111" lon="3.58137">
        <ele>1572</ele>
        <time>2009-07-09T09:40:13Z</time>
      </trkpt>
      <trkpt lat="44.12112" lon="3.58139">
        <ele>1569</ele>
        <time>2009-07-09T09:41:30Z</time>
      </trkpt>
      <trkpt lat="44.1213" lon="3.5814">
        <ele>1569</ele>
        <time>2009-07-09T09:41:42Z</time>
      </trkpt>
      <trkpt lat="44.12133" lon="3.58133">
        <ele>1569</ele>
        <time>2009-07-09T09:41:47Z</time>
      </trkpt>
      <trkpt lat="44.12132" lon="3.58119">
        <ele>1569</ele>
        <time>2009-07-09T09:41:55Z</time>
      </trkpt>
      <trkpt lat="44.12154" lon="3.5811">
        <ele>1565</ele>
        <time>2009-07-09T09:42:05Z</time>
      </trkpt>
      <trkpt lat="44.12159" lon="3.5811">
        <ele>1567</ele>
        <time>2009-07-09T09:42:15Z</time>
      </trkpt>
      <trkpt lat="44.12162" lon="3.58141">
        <ele>1568</ele>
        <time>2009-07-09T09:42:26Z</time>
      </trkpt>
      <trkpt lat="44.12162" lon="3.58148">
        <ele>1568</ele>
        <time>2009-07-09T09:42:28Z</time>
      </trkpt>
      <trkpt lat="44.12168" lon="3.58166">
        <ele>1567</ele>
        <time>2009-07-09T09:42:35Z</time>
      </trkpt>
      <trkpt lat="44.12166" lon="3.58185">
        <ele>1566</ele>
        <time>2009-07-09T09:42:39Z</time>
      </trkpt>
      <trkpt lat="44.12158" lon="3.58191">
        <ele>1567</ele>
        <time>2009-07-09T09:42:48Z</time>
      </trkpt>
      <trkpt lat="44.12155" lon="3.58187">
        <ele>1567</ele>
        <time>2009-07-09T09:43:07Z</time>
      </trkpt>
      <trkpt lat="44.12155" lon="3.58184">
        <ele>1567</ele>
        <time>2009-07-09T09:43:22Z</time>
      </trkpt>
      <trkpt lat="44.12155" lon="3.58184">
        <ele>1567</ele>
        <time>2009-07-09T09:43:57Z</time>
      </trkpt>
      <trkpt lat="44.12155" lon="3.58192">
        <ele>1567</ele>
        <time>2009-07-09T09:44:35Z</time>
      </trkpt>
      <trkpt lat="44.12155" lon="3.58193">
        <ele>1567</ele>
        <time>2009-07-09T09:45:08Z</time>
      </trkpt>
      <trkpt lat="44.12156" lon="3.58186">
        <ele>1568</ele>
        <time>2009-07-09T09:45:48Z</time>
      </trkpt>
      <trkpt lat="44.12156" lon="3.58187">
        <ele>1568</ele>
        <time>2009-07-09T09:46:39Z</time>
      </trkpt>
      <trkpt lat="44.12157" lon="3.58189">
        <ele>1567</ele>
        <time>2009-07-09T09:47:21Z</time>
      </trkpt>
      <trkpt lat="44.12157" lon="3.58189">
        <ele>1567</ele>
        <time>2009-07-09T09:47:29Z</time>
      </trkpt>
      <trkpt lat="44.12157" lon="3.58187">
        <ele>1569</ele>
        <time>2009-07-09T09:48:03Z</time>
      </trkpt>
      <trkpt lat="44.12157" lon="3.58187">
        <ele>1569</ele>
        <time>2009-07-09T09:48:04Z</time>
      </trkpt>
      <trkpt lat="44.12159" lon="3.58185">
        <ele>1567</ele>
        <time>2009-07-09T09:48:24Z</time>
      </trkpt>
      <trkpt lat="44.12159" lon="3.58185">
        <ele>1568</ele>
        <time>2009-07-09T09:48:42Z</time>
      </trkpt>
      <trkpt lat="44.1216" lon="3.58187">
        <ele>1568</ele>
        <time>2009-07-09T09:48:54Z</time>
      </trkpt>
      <trkpt lat="44.12166" lon="3.58187">
        <ele>1566</ele>
        <time>2009-07-09T09:48:58Z</time>
      </trkpt>
      <trkpt lat="44.12167" lon="3.5818">
        <ele>1567</ele>
        <time>2009-07-09T09:49:01Z</time>
      </trkpt>
      <trkpt lat="44.12177" lon="3.5813">
        <ele>1568</ele>
        <time>2009-07-09T09:49:14Z</time>
      </trkpt>
      <trkpt lat="44.12175" lon="3.58109">
        <ele>1567</ele>
        <time>2009-07-09T09:49:18Z</time>
      </trkpt>
      <trkpt lat="44.12155" lon="3.58067">
        <ele>1566</ele>
        <time>2009-07-09T09:49:25Z</time>
      </trkpt>
      <trkpt lat="44.12151" lon="3.5806">
        <ele>1566</ele>
        <time>2009-07-09T09:49:26Z</time>
      </trkpt>
      <trkpt lat="44.12138" lon="3.58013">
        <ele>1564</ele>
        <time>2009-07-09T09:49:32Z</time>
      </trkpt>
      <trkpt lat="44.12152" lon="3.57972">
        <ele>1565</ele>
        <time>2009-07-09T09:49:40Z</time>
      </trkpt>
      <trkpt lat="44.12152" lon="3.57967">
        <ele>1565</ele>
        <time>2009-07-09T09:49:41Z</time>
      </trkpt>
      <trkpt lat="44.1215" lon="3.57952">
        <ele>1565</ele>
        <time>2009-07-09T09:49:44Z</time>
      </trkpt>
      <trkpt lat="44.12126" lon="3.57884">
        <ele>1567</ele>
        <time>2009-07-09T09:49:58Z</time>
      </trkpt>
      <trkpt lat="44.12121" lon="3.57867">
        <ele>1565</ele>
        <time>2009-07-09T09:50:01Z</time>
      </trkpt>
      <trkpt lat="44.12121" lon="3.57861">
        <ele>1564</ele>
        <time>2009-07-09T09:50:02Z</time>
      </trkpt>
      <trkpt lat="44.12123" lon="3.57836">
        <ele>1563</ele>
        <time>2009-07-09T09:50:06Z</time>
      </trkpt>
      <trkpt lat="44.12136" lon="3.57753">
        <ele>1563</ele>
        <time>2009-07-09T09:50:19Z</time>
      </trkpt>
      <trkpt lat="44.12143" lon="3.57735">
        <ele>1561</ele>
        <time>2009-07-09T09:50:22Z</time>
      </trkpt>
      <trkpt lat="44.1215" lon="3.57719">
        <ele>1561</ele>
        <time>2009-07-09T09:50:25Z</time>
      </trkpt>
      <trkpt lat="44.12156" lon="3.57689">
        <ele>1563</ele>
        <time>2009-07-09T09:50:30Z</time>
      </trkpt>
      <trkpt lat="44.12162" lon="3.57576">
        <ele>1564</ele>
        <time>2009-07-09T09:50:49Z</time>
      </trkpt>
      <trkpt lat="44.12163" lon="3.57527">
        <ele>1563</ele>
        <time>2009-07-09T09:51:01Z</time>
      </trkpt>
      <trkpt lat="44.12165" lon="3.57467">
        <ele>1560</ele>
        <time>2009-07-09T09:51:11Z</time>
      </trkpt>
      <trkpt lat="44.12164" lon="3.57407">
        <ele>1559</ele>
        <time>2009-07-09T09:51:19Z</time>
      </trkpt>
      <trkpt lat="44.12164" lon="3.57379">
        <ele>1559</ele>
        <time>2009-07-09T09:51:23Z</time>
      </trkpt>
      <trkpt lat="44.12164" lon="3.57283">
        <ele>1555</ele>
        <time>2009-07-09T09:51:37Z</time>
      </trkpt>
      <trkpt lat="44.12173" lon="3.57222">
        <ele>1552</ele>
        <time>2009-07-09T09:51:45Z</time>
      </trkpt>
      <trkpt lat="44.12209" lon="3.57087">
        <ele>1550</ele>
        <time>2009-07-09T09:52:03Z</time>
      </trkpt>
      <trkpt lat="44.12231" lon="3.57019">
        <ele>1547</ele>
        <time>2009-07-09T09:52:13Z</time>
      </trkpt>
      <trkpt lat="44.12268" lon="3.57004">
        <ele>1548</ele>
        <time>2009-07-09T09:52:21Z</time>
      </trkpt>
      <trkpt lat="44.12297" lon="3.57023">
        <ele>1546</ele>
        <time>2009-07-09T09:52:26Z</time>
      </trkpt>
      <trkpt lat="44.12336" lon="3.57027">
        <ele>1546</ele>
        <time>2009-07-09T09:52:33Z</time>
      </trkpt>
      <trkpt lat="44.12344" lon="3.57032">
        <ele>1545</ele>
        <time>2009-07-09T09:52:43Z</time>
      </trkpt>
      <trkpt lat="44.12344" lon="3.57031">
        <ele>1544</ele>
        <time>2009-07-09T09:52:46Z</time>
      </trkpt>
      <trkpt lat="44.12346" lon="3.5703">
        <ele>1544</ele>
        <time>2009-07-09T09:52:48Z</time>
      </trkpt>
      <trkpt lat="44.12357" lon="3.57027">
        <ele>1544</ele>
        <time>2009-07-09T09:52:53Z</time>
      </trkpt>
      <trkpt lat="44.12378" lon="3.57027">
        <ele>1544</ele>
        <time>2009-07-09T09:53:06Z</time>
      </trkpt>
      <trkpt lat="44.12379" lon="3.57026">
        <ele>1544</ele>
        <time>2009-07-09T09:53:08Z</time>
      </trkpt>
      <trkpt lat="44.12385" lon="3.57025">
        <ele>1544</ele>
        <time>2009-07-09T09:53:21Z</time>
      </trkpt>
      <trkpt lat="44.12426" lon="3.57024">
        <ele>1544</ele>
        <time>2009-07-09T09:53:33Z</time>
      </trkpt>
      <trkpt lat="44.12439" lon="3.57023">
        <ele>1541</ele>
        <time>2009-07-09T09:53:36Z</time>
      </trkpt>
      <trkpt lat="44.12464" lon="3.57023">
        <ele>1542</ele>
        <time>2009-07-09T09:53:41Z</time>
      </trkpt>
      <trkpt lat="44.12487" lon="3.57023">
        <ele>1540</ele>
        <time>2009-07-09T09:53:46Z</time>
      </trkpt>
      <trkpt lat="44.12516" lon="3.57022">
        <ele>1537</ele>
        <time>2009-07-09T09:53:52Z</time>
      </trkpt>
      <trkpt lat="44.12536" lon="3.57018">
        <ele>1536</ele>
        <time>2009-07-09T09:53:56Z</time>
      </trkpt>
      <trkpt lat="44.12552" lon="3.57015">
        <ele>1535</ele>
        <time>2009-07-09T09:53:59Z</time>
      </trkpt>
      <trkpt lat="44.12569" lon="3.57011">
        <ele>1533</ele>
        <time>2009-07-09T09:54:02Z</time>
      </trkpt>
      <trkpt lat="44.12592" lon="3.57007">
        <ele>1531</ele>
        <time>2009-07-09T09:54:06Z</time>
      </trkpt>
      <trkpt lat="44.1261" lon="3.57005">
        <ele>1530</ele>
        <time>2009-07-09T09:54:09Z</time>
      </trkpt>
      <trkpt lat="44.12621" lon="3.57003">
        <ele>1530</ele>
        <time>2009-07-09T09:54:11Z</time>
      </trkpt>
      <trkpt lat="44.12634" lon="3.57006">
        <ele>1529</ele>
        <time>2009-07-09T09:54:14Z</time>
      </trkpt>
      <trkpt lat="44.12661" lon="3.57021">
        <ele>1526</ele>
        <time>2009-07-09T09:54:20Z</time>
      </trkpt>
      <trkpt lat="44.1268" lon="3.57032">
        <ele>1526</ele>
        <time>2009-07-09T09:54:25Z</time>
      </trkpt>
      <trkpt lat="44.12716" lon="3.57045">
        <ele>1524</ele>
        <time>2009-07-09T09:54:34Z</time>
      </trkpt>
      <trkpt lat="44.12748" lon="3.57045">
        <ele>1525</ele>
        <time>2009-07-09T09:54:44Z</time>
      </trkpt>
      <trkpt lat="44.12797" lon="3.57034">
        <ele>1522</ele>
        <time>2009-07-09T09:54:57Z</time>
      </trkpt>
      <trkpt lat="44.12802" lon="3.57032">
        <ele>1521</ele>
        <time>2009-07-09T09:54:58Z</time>
      </trkpt>
      <trkpt lat="44.12825" lon="3.57024">
        <ele>1518</ele>
        <time>2009-07-09T09:55:03Z</time>
      </trkpt>
      <trkpt lat="44.12868" lon="3.57009">
        <ele>1518</ele>
        <time>2009-07-09T09:55:14Z</time>
      </trkpt>
      <trkpt lat="44.12893" lon="3.56996">
        <ele>1519</ele>
        <time>2009-07-09T09:55:23Z</time>
      </trkpt>
      <trkpt lat="44.12912" lon="3.56984">
        <ele>1517</ele>
        <time>2009-07-09T09:55:31Z</time>
      </trkpt>
      <trkpt lat="44.12958" lon="3.56964">
        <ele>1516</ele>
        <time>2009-07-09T09:55:45Z</time>
      </trkpt>
      <trkpt lat="44.12996" lon="3.56942">
        <ele>1516</ele>
        <time>2009-07-09T09:55:58Z</time>
      </trkpt>
      <trkpt lat="44.13002" lon="3.56938">
        <ele>1514</ele>
        <time>2009-07-09T09:56:01Z</time>
      </trkpt>
      <trkpt lat="44.13012" lon="3.56933">
        <ele>1515</ele>
        <time>2009-07-09T09:56:06Z</time>
      </trkpt>
      <trkpt lat="44.13026" lon="3.56925">
        <ele>1517</ele>
        <time>2009-07-09T09:56:11Z</time>
      </trkpt>
      <trkpt lat="44.13036" lon="3.56919">
        <ele>1517</ele>
        <time>2009-07-09T09:56:17Z</time>
      </trkpt>
      <trkpt lat="44.13045" lon="3.56909">
        <ele>1515</ele>
        <time>2009-07-09T09:56:22Z</time>
      </trkpt>
      <trkpt lat="44.13063" lon="3.56879">
        <ele>1516</ele>
        <time>2009-07-09T09:56:33Z</time>
      </trkpt>
      <trkpt lat="44.1307" lon="3.56841">
        <ele>1514</ele>
        <time>2009-07-09T09:56:44Z</time>
      </trkpt>
      <trkpt lat="44.13073" lon="3.5682">
        <ele>1515</ele>
        <time>2009-07-09T09:56:56Z</time>
      </trkpt>
      <trkpt lat="44.13072" lon="3.56818">
        <ele>1516</ele>
        <time>2009-07-09T09:57:10Z</time>
      </trkpt>
      <trkpt lat="44.13067" lon="3.56808">
        <ele>1513</ele>
        <time>2009-07-09T09:57:15Z</time>
      </trkpt>
      <trkpt lat="44.13075" lon="3.56759">
        <ele>1514</ele>
        <time>2009-07-09T09:57:28Z</time>
      </trkpt>
      <trkpt lat="44.1309" lon="3.56703">
        <ele>1514</ele>
        <time>2009-07-09T09:57:41Z</time>
      </trkpt>
      <trkpt lat="44.13112" lon="3.56648">
        <ele>1513</ele>
        <time>2009-07-09T09:57:55Z</time>
      </trkpt>
      <trkpt lat="44.13146" lon="3.56599">
        <ele>1513</ele>
        <time>2009-07-09T09:58:10Z</time>
      </trkpt>
      <trkpt lat="44.13186" lon="3.56548">
        <ele>1513</ele>
        <time>2009-07-09T09:58:29Z</time>
      </trkpt>
      <trkpt lat="44.13218" lon="3.56512">
        <ele>1512</ele>
        <time>2009-07-09T09:58:44Z</time>
      </trkpt>
      <trkpt lat="44.13247" lon="3.56487">
        <ele>1511</ele>
        <time>2009-07-09T09:58:56Z</time>
      </trkpt>
      <trkpt lat="44.13292" lon="3.56477">
        <ele>1509</ele>
        <time>2009-07-09T09:59:09Z</time>
      </trkpt>
      <trkpt lat="44.13328" lon="3.56475">
        <ele>1506</ele>
        <time>2009-07-09T09:59:20Z</time>
      </trkpt>
      <trkpt lat="44.13368" lon="3.56474">
        <ele>1509</ele>
        <time>2009-07-09T09:59:32Z</time>
      </trkpt>
      <trkpt lat="44.13377" lon="3.56473">
        <ele>1507</ele>
        <time>2009-07-09T09:59:35Z</time>
      </trkpt>
      <trkpt lat="44.13396" lon="3.5647">
        <ele>1508</ele>
        <time>2009-07-09T09:59:46Z</time>
      </trkpt>
      <trkpt lat="44.13403" lon="3.56467">
        <ele>1509</ele>
        <time>2009-07-09T10:00:02Z</time>
      </trkpt>
      <trkpt lat="44.13413" lon="3.56461">
        <ele>1509</ele>
        <time>2009-07-09T10:00:15Z</time>
      </trkpt>
      <trkpt lat="44.13445" lon="3.56441">
        <ele>1509</ele>
        <time>2009-07-09T10:00:26Z</time>
      </trkpt>
      <trkpt lat="44.13462" lon="3.56436">
        <ele>1510</ele>
        <time>2009-07-09T10:00:32Z</time>
      </trkpt>
      <trkpt lat="44.13476" lon="3.56442">
        <ele>1510</ele>
        <time>2009-07-09T10:00:38Z</time>
      </trkpt>
      <trkpt lat="44.13485" lon="3.56447">
        <ele>1511</ele>
        <time>2009-07-09T10:00:42Z</time>
      </trkpt>
      <trkpt lat="44.13493" lon="3.56449">
        <ele>1508</ele>
        <time>2009-07-09T10:00:46Z</time>
      </trkpt>
      <trkpt lat="44.13528" lon="3.56472">
        <ele>1508</ele>
        <time>2009-07-09T10:01:02Z</time>
      </trkpt>
      <trkpt lat="44.13531" lon="3.56474">
        <ele>1508</ele>
        <time>2009-07-09T10:01:03Z</time>
      </trkpt>
      <trkpt lat="44.13567" lon="3.56497">
        <ele>1508</ele>
        <time>2009-07-09T10:01:16Z</time>
      </trkpt>
      <trkpt lat="44.13582" lon="3.56506">
        <ele>1509</ele>
        <time>2009-07-09T10:01:22Z</time>
      </trkpt>
      <trkpt lat="44.13594" lon="3.56516">
        <ele>1511</ele>
        <time>2009-07-09T10:01:28Z</time>
      </trkpt>
      <trkpt lat="44.13607" lon="3.56517">
        <ele>1510</ele>
        <time>2009-07-09T10:01:34Z</time>
      </trkpt>
      <trkpt lat="44.13645" lon="3.56528">
        <ele>1510</ele>
        <time>2009-07-09T10:01:49Z</time>
      </trkpt>
      <trkpt lat="44.13685" lon="3.56548">
        <ele>1512</ele>
        <time>2009-07-09T10:02:05Z</time>
      </trkpt>
      <trkpt lat="44.13717" lon="3.56562">
        <ele>1514</ele>
        <time>2009-07-09T10:02:19Z</time>
      </trkpt>
      <trkpt lat="44.13758" lon="3.56573">
        <ele>1514</ele>
        <time>2009-07-09T10:02:35Z</time>
      </trkpt>
      <trkpt lat="44.138" lon="3.56585">
        <ele>1515</ele>
        <time>2009-07-09T10:02:52Z</time>
      </trkpt>
      <trkpt lat="44.13837" lon="3.56601">
        <ele>1516</ele>
        <time>2009-07-09T10:03:06Z</time>
      </trkpt>
      <trkpt lat="44.13878" lon="3.56624">
        <ele>1515</ele>
        <time>2009-07-09T10:03:21Z</time>
      </trkpt>
      <trkpt lat="44.13886" lon="3.56628">
        <ele>1513</ele>
        <time>2009-07-09T10:03:24Z</time>
      </trkpt>
      <trkpt lat="44.13904" lon="3.56633">
        <ele>1511</ele>
        <time>2009-07-09T10:03:29Z</time>
      </trkpt>
      <trkpt lat="44.13916" lon="3.56637">
        <ele>1509</ele>
        <time>2009-07-09T10:03:32Z</time>
      </trkpt>
      <trkpt lat="44.13934" lon="3.56645">
        <ele>1508</ele>
        <time>2009-07-09T10:03:36Z</time>
      </trkpt>
      <trkpt lat="44.13944" lon="3.56647">
        <ele>1507</ele>
        <time>2009-07-09T10:03:38Z</time>
      </trkpt>
      <trkpt lat="44.13962" lon="3.56648">
        <ele>1503</ele>
        <time>2009-07-09T10:03:41Z</time>
      </trkpt>
      <trkpt lat="44.13975" lon="3.56649">
        <ele>1501</ele>
        <time>2009-07-09T10:03:43Z</time>
      </trkpt>
      <trkpt lat="44.14" lon="3.56651">
        <ele>1499</ele>
        <time>2009-07-09T10:03:47Z</time>
      </trkpt>
      <trkpt lat="44.14006" lon="3.5665">
        <ele>1498</ele>
        <time>2009-07-09T10:03:48Z</time>
      </trkpt>
      <trkpt lat="44.14027" lon="3.56644">
        <ele>1492</ele>
        <time>2009-07-09T10:03:51Z</time>
      </trkpt>
      <trkpt lat="44.14034" lon="3.56643">
        <ele>1492</ele>
        <time>2009-07-09T10:03:52Z</time>
      </trkpt>
      <trkpt lat="44.14045" lon="3.56641">
        <ele>1491</ele>
        <time>2009-07-09T10:03:54Z</time>
      </trkpt>
      <trkpt lat="44.14058" lon="3.56628">
        <ele>1490</ele>
        <time>2009-07-09T10:03:59Z</time>
      </trkpt>
      <trkpt lat="44.14066" lon="3.5662">
        <ele>1489</ele>
        <time>2009-07-09T10:04:03Z</time>
      </trkpt>
      <trkpt lat="44.14082" lon="3.56612">
        <ele>1486</ele>
        <time>2009-07-09T10:04:07Z</time>
      </trkpt>
      <trkpt lat="44.14112" lon="3.56604">
        <ele>1481</ele>
        <time>2009-07-09T10:04:15Z</time>
      </trkpt>
      <trkpt lat="44.14125" lon="3.56599">
        <ele>1479</ele>
        <time>2009-07-09T10:04:19Z</time>
      </trkpt>
      <trkpt lat="44.1415" lon="3.56594">
        <ele>1477</ele>
        <time>2009-07-09T10:04:26Z</time>
      </trkpt>
      <trkpt lat="44.14156" lon="3.5659">
        <ele>1475</ele>
        <time>2009-07-09T10:04:28Z</time>
      </trkpt>
      <trkpt lat="44.14165" lon="3.56587">
        <ele>1473</ele>
        <time>2009-07-09T10:04:31Z</time>
      </trkpt>
      <trkpt lat="44.1417" lon="3.5658">
        <ele>1472</ele>
        <time>2009-07-09T10:04:33Z</time>
      </trkpt>
      <trkpt lat="44.14181" lon="3.56576">
        <ele>1471</ele>
        <time>2009-07-09T10:04:38Z</time>
      </trkpt>
      <trkpt lat="44.1418" lon="3.56575">
        <ele>1472</ele>
        <time>2009-07-09T10:04:46Z</time>
      </trkpt>
      <trkpt lat="44.14173" lon="3.56576">
        <ele>1472</ele>
        <time>2009-07-09T10:05:00Z</time>
      </trkpt>
      <trkpt lat="44.14173" lon="3.56576">
        <ele>1472</ele>
        <time>2009-07-09T10:05:15Z</time>
      </trkpt>
      <trkpt lat="44.14174" lon="3.56576">
        <ele>1472</ele>
        <time>2009-07-09T10:05:41Z</time>
      </trkpt>
      <trkpt lat="44.14175" lon="3.56576">
        <ele>1472</ele>
        <time>2009-07-09T10:05:42Z</time>
      </trkpt>
      <trkpt lat="44.14185" lon="3.56577">
        <ele>1471</ele>
        <time>2009-07-09T10:05:56Z</time>
      </trkpt>
      <trkpt lat="44.14188" lon="3.56575">
        <ele>1471</ele>
        <time>2009-07-09T10:06:10Z</time>
      </trkpt>
      <trkpt lat="44.14195" lon="3.56571">
        <ele>1470</ele>
        <time>2009-07-09T10:06:45Z</time>
      </trkpt>
      <trkpt lat="44.14198" lon="3.56565">
        <ele>1467</ele>
        <time>2009-07-09T10:06:52Z</time>
      </trkpt>
      <trkpt lat="44.142" lon="3.56563">
        <ele>1466</ele>
        <time>2009-07-09T10:06:54Z</time>
      </trkpt>
      <trkpt lat="44.14202" lon="3.5656">
        <ele>1465</ele>
        <time>2009-07-09T10:06:57Z</time>
      </trkpt>
      <trkpt lat="44.14206" lon="3.56553">
        <ele>1463</ele>
        <time>2009-07-09T10:07:08Z</time>
      </trkpt>
      <trkpt lat="44.14217" lon="3.5654">
        <ele>1460</ele>
        <time>2009-07-09T10:07:17Z</time>
      </trkpt>
      <trkpt lat="44.14223" lon="3.5653">
        <ele>1457</ele>
        <time>2009-07-09T10:07:20Z</time>
      </trkpt>
      <trkpt lat="44.14232" lon="3.5652">
        <ele>1453</ele>
        <time>2009-07-09T10:07:24Z</time>
      </trkpt>
      <trkpt lat="44.14234" lon="3.56517">
        <ele>1453</ele>
        <time>2009-07-09T10:07:25Z</time>
      </trkpt>
      <trkpt lat="44.14247" lon="3.56501">
        <ele>1450</ele>
        <time>2009-07-09T10:07:30Z</time>
      </trkpt>
      <trkpt lat="44.14249" lon="3.56498">
        <ele>1450</ele>
        <time>2009-07-09T10:07:31Z</time>
      </trkpt>
      <trkpt lat="44.14263" lon="3.56481">
        <ele>1446</ele>
        <time>2009-07-09T10:07:37Z</time>
      </trkpt>
      <trkpt lat="44.14271" lon="3.56472">
        <ele>1443</ele>
        <time>2009-07-09T10:07:41Z</time>
      </trkpt>
      <trkpt lat="44.14273" lon="3.5647">
        <ele>1442</ele>
        <time>2009-07-09T10:07:42Z</time>
      </trkpt>
      <trkpt lat="44.14294" lon="3.56461">
        <ele>1440</ele>
        <time>2009-07-09T10:07:50Z</time>
      </trkpt>
      <trkpt lat="44.14304" lon="3.56457">
        <ele>1436</ele>
        <time>2009-07-09T10:07:53Z</time>
      </trkpt>
      <trkpt lat="44.14317" lon="3.56452">
        <ele>1434</ele>
        <time>2009-07-09T10:07:56Z</time>
      </trkpt>
      <trkpt lat="44.14327" lon="3.56447">
        <ele>1433</ele>
        <time>2009-07-09T10:07:58Z</time>
      </trkpt>
      <trkpt lat="44.14343" lon="3.56433">
        <ele>1432</ele>
        <time>2009-07-09T10:08:03Z</time>
      </trkpt>
      <trkpt lat="44.14355" lon="3.56411">
        <ele>1429</ele>
        <time>2009-07-09T10:08:07Z</time>
      </trkpt>
      <trkpt lat="44.14365" lon="3.56399">
        <ele>1428</ele>
        <time>2009-07-09T10:08:09Z</time>
      </trkpt>
      <trkpt lat="44.1437" lon="3.56393">
        <ele>1426</ele>
        <time>2009-07-09T10:08:10Z</time>
      </trkpt>
      <trkpt lat="44.14383" lon="3.56382">
        <ele>1422</ele>
        <time>2009-07-09T10:08:12Z</time>
      </trkpt>
      <trkpt lat="44.1439" lon="3.56377">
        <ele>1424</ele>
        <time>2009-07-09T10:08:13Z</time>
      </trkpt>
      <trkpt lat="44.14409" lon="3.5636">
        <ele>1422</ele>
        <time>2009-07-09T10:08:16Z</time>
      </trkpt>
      <trkpt lat="44.14415" lon="3.56354">
        <ele>1422</ele>
        <time>2009-07-09T10:08:17Z</time>
      </trkpt>
      <trkpt lat="44.14427" lon="3.56346">
        <ele>1420</ele>
        <time>2009-07-09T10:08:19Z</time>
      </trkpt>
      <trkpt lat="44.14432" lon="3.56342">
        <ele>1420</ele>
        <time>2009-07-09T10:08:20Z</time>
      </trkpt>
      <trkpt lat="44.14442" lon="3.56337">
        <ele>1418</ele>
        <time>2009-07-09T10:08:22Z</time>
      </trkpt>
      <trkpt lat="44.14466" lon="3.56319">
        <ele>1414</ele>
        <time>2009-07-09T10:08:28Z</time>
      </trkpt>
      <trkpt lat="44.14484" lon="3.563">
        <ele>1411</ele>
        <time>2009-07-09T10:08:32Z</time>
      </trkpt>
      <trkpt lat="44.14496" lon="3.56293">
        <ele>1410</ele>
        <time>2009-07-09T10:08:34Z</time>
      </trkpt>
      <trkpt lat="44.14527" lon="3.56274">
        <ele>1410</ele>
        <time>2009-07-09T10:08:40Z</time>
      </trkpt>
      <trkpt lat="44.14538" lon="3.56268">
        <ele>1411</ele>
        <time>2009-07-09T10:08:43Z</time>
      </trkpt>
      <trkpt lat="44.14578" lon="3.56234">
        <ele>1413</ele>
        <time>2009-07-09T10:08:57Z</time>
      </trkpt>
      <trkpt lat="44.14623" lon="3.56185">
        <ele>1416</ele>
        <time>2009-07-09T10:09:15Z</time>
      </trkpt>
      <trkpt lat="44.14654" lon="3.56159">
        <ele>1419</ele>
        <time>2009-07-09T10:09:28Z</time>
      </trkpt>
      <trkpt lat="44.14671" lon="3.56145">
        <ele>1420</ele>
        <time>2009-07-09T10:09:35Z</time>
      </trkpt>
      <trkpt lat="44.14683" lon="3.56137">
        <ele>1419</ele>
        <time>2009-07-09T10:09:47Z</time>
      </trkpt>
      <trkpt lat="44.14686" lon="3.56135">
        <ele>1419</ele>
        <time>2009-07-09T10:10:00Z</time>
      </trkpt>
      <trkpt lat="44.14711" lon="3.56121">
        <ele>1421</ele>
        <time>2009-07-09T10:10:13Z</time>
      </trkpt>
      <trkpt lat="44.14736" lon="3.56097">
        <ele>1424</ele>
        <time>2009-07-09T10:10:27Z</time>
      </trkpt>
      <trkpt lat="44.14748" lon="3.56086">
        <ele>1427</ele>
        <time>2009-07-09T10:10:35Z</time>
      </trkpt>
      <trkpt lat="44.14749" lon="3.56084">
        <ele>1427</ele>
        <time>2009-07-09T10:10:36Z</time>
      </trkpt>
      <trkpt lat="44.14764" lon="3.5607">
        <ele>1431</ele>
        <time>2009-07-09T10:10:46Z</time>
      </trkpt>
      <trkpt lat="44.1478" lon="3.56047">
        <ele>1434</ele>
        <time>2009-07-09T10:11:01Z</time>
      </trkpt>
      <trkpt lat="44.14786" lon="3.56036">
        <ele>1436</ele>
        <time>2009-07-09T10:11:08Z</time>
      </trkpt>
      <trkpt lat="44.14802" lon="3.56012">
        <ele>1439</ele>
        <time>2009-07-09T10:11:23Z</time>
      </trkpt>
      <trkpt lat="44.14816" lon="3.55991">
        <ele>1442</ele>
        <time>2009-07-09T10:11:38Z</time>
      </trkpt>
      <trkpt lat="44.14824" lon="3.55985">
        <ele>1444</ele>
        <time>2009-07-09T10:11:45Z</time>
      </trkpt>
      <trkpt lat="44.14825" lon="3.55985">
        <ele>1443</ele>
        <time>2009-07-09T10:11:46Z</time>
      </trkpt>
      <trkpt lat="44.14832" lon="3.55979">
        <ele>1445</ele>
        <time>2009-07-09T10:11:52Z</time>
      </trkpt>
      <trkpt lat="44.14837" lon="3.55976">
        <ele>1447</ele>
        <time>2009-07-09T10:11:56Z</time>
      </trkpt>
      <trkpt lat="44.14865" lon="3.55965">
        <ele>1450</ele>
        <time>2009-07-09T10:12:17Z</time>
      </trkpt>
      <trkpt lat="44.1487" lon="3.55961">
        <ele>1452</ele>
        <time>2009-07-09T10:12:20Z</time>
      </trkpt>
      <trkpt lat="44.14894" lon="3.55942">
        <ele>1455</ele>
        <time>2009-07-09T10:12:35Z</time>
      </trkpt>
      <trkpt lat="44.14918" lon="3.55924">
        <ele>1457</ele>
        <time>2009-07-09T10:12:50Z</time>
      </trkpt>
      <trkpt lat="44.14949" lon="3.55904">
        <ele>1459</ele>
        <time>2009-07-09T10:13:08Z</time>
      </trkpt>
      <trkpt lat="44.1497" lon="3.55894">
        <ele>1461</ele>
        <time>2009-07-09T10:13:20Z</time>
      </trkpt>
      <trkpt lat="44.14995" lon="3.55885">
        <ele>1463</ele>
        <time>2009-07-09T10:13:33Z</time>
      </trkpt>
      <trkpt lat="44.15019" lon="3.55878">
        <ele>1465</ele>
        <time>2009-07-09T10:13:46Z</time>
      </trkpt>
      <trkpt lat="44.15048" lon="3.55871">
        <ele>1465</ele>
        <time>2009-07-09T10:13:59Z</time>
      </trkpt>
      <trkpt lat="44.15096" lon="3.55853">
        <ele>1468</ele>
        <time>2009-07-09T10:14:16Z</time>
      </trkpt>
      <trkpt lat="44.15144" lon="3.55832">
        <ele>1469</ele>
        <time>2009-07-09T10:14:33Z</time>
      </trkpt>
      <trkpt lat="44.15176" lon="3.5581">
        <ele>1469</ele>
        <time>2009-07-09T10:14:46Z</time>
      </trkpt>
      <trkpt lat="44.15219" lon="3.55785">
        <ele>1467</ele>
        <time>2009-07-09T10:15:00Z</time>
      </trkpt>
      <trkpt lat="44.15241" lon="3.55773">
        <ele>1466</ele>
        <time>2009-07-09T10:15:05Z</time>
      </trkpt>
      <trkpt lat="44.15259" lon="3.55766">
        <ele>1463</ele>
        <time>2009-07-09T10:15:08Z</time>
      </trkpt>
      <trkpt lat="44.15288" lon="3.55753">
        <ele>1458</ele>
        <time>2009-07-09T10:15:12Z</time>
      </trkpt>
      <trkpt lat="44.15303" lon="3.55744">
        <ele>1456</ele>
        <time>2009-07-09T10:15:14Z</time>
      </trkpt>
      <trkpt lat="44.15317" lon="3.55735">
        <ele>1455</ele>
        <time>2009-07-09T10:15:16Z</time>
      </trkpt>
      <trkpt lat="44.1535" lon="3.55721">
        <ele>1452</ele>
        <time>2009-07-09T10:15:20Z</time>
      </trkpt>
      <trkpt lat="44.15394" lon="3.55681">
        <ele>1452</ele>
        <time>2009-07-09T10:15:28Z</time>
      </trkpt>
      <trkpt lat="44.15404" lon="3.55664">
        <ele>1451</ele>
        <time>2009-07-09T10:15:31Z</time>
      </trkpt>
      <trkpt lat="44.1541" lon="3.55653">
        <ele>1451</ele>
        <time>2009-07-09T10:15:33Z</time>
      </trkpt>
      <trkpt lat="44.15416" lon="3.55641">
        <ele>1452</ele>
        <time>2009-07-09T10:15:35Z</time>
      </trkpt>
      <trkpt lat="44.15435" lon="3.55589">
        <ele>1452</ele>
        <time>2009-07-09T10:15:46Z</time>
      </trkpt>
      <trkpt lat="44.15448" lon="3.5552">
        <ele>1453</ele>
        <time>2009-07-09T10:16:00Z</time>
      </trkpt>
      <trkpt lat="44.15462" lon="3.5546">
        <ele>1453</ele>
        <time>2009-07-09T10:16:13Z</time>
      </trkpt>
      <trkpt lat="44.15491" lon="3.55425">
        <ele>1451</ele>
        <time>2009-07-09T10:16:25Z</time>
      </trkpt>
      <trkpt lat="44.15504" lon="3.55421">
        <ele>1451</ele>
        <time>2009-07-09T10:16:33Z</time>
      </trkpt>
      <trkpt lat="44.15505" lon="3.55421">
        <ele>1451</ele>
        <time>2009-07-09T10:17:00Z</time>
      </trkpt>
      <trkpt lat="44.15508" lon="3.55421">
        <ele>1449</ele>
        <time>2009-07-09T10:17:10Z</time>
      </trkpt>
      <trkpt lat="44.15515" lon="3.55425">
        <ele>1450</ele>
        <time>2009-07-09T10:17:51Z</time>
      </trkpt>
      <trkpt lat="44.15512" lon="3.55421">
        <ele>1451</ele>
        <time>2009-07-09T10:18:41Z</time>
      </trkpt>
      <trkpt lat="44.15511" lon="3.55421">
        <ele>1450</ele>
        <time>2009-07-09T10:19:08Z</time>
      </trkpt>
      <trkpt lat="44.1551" lon="3.5542">
        <ele>1450</ele>
        <time>2009-07-09T10:19:28Z</time>
      </trkpt>
      <trkpt lat="44.15515" lon="3.55416">
        <ele>1448</ele>
        <time>2009-07-09T10:19:48Z</time>
      </trkpt>
      <trkpt lat="44.15529" lon="3.55405">
        <ele>1446</ele>
        <time>2009-07-09T10:19:52Z</time>
      </trkpt>
      <trkpt lat="44.15533" lon="3.55401">
        <ele>1446</ele>
        <time>2009-07-09T10:19:53Z</time>
      </trkpt>
      <trkpt lat="44.15549" lon="3.55371">
        <ele>1441</ele>
        <time>2009-07-09T10:19:58Z</time>
      </trkpt>
      <trkpt lat="44.15554" lon="3.55366">
        <ele>1439</ele>
        <time>2009-07-09T10:19:59Z</time>
      </trkpt>
      <trkpt lat="44.15576" lon="3.55339">
        <ele>1432</ele>
        <time>2009-07-09T10:20:03Z</time>
      </trkpt>
      <trkpt lat="44.1558" lon="3.55333">
        <ele>1431</ele>
        <time>2009-07-09T10:20:04Z</time>
      </trkpt>
      <trkpt lat="44.15587" lon="3.5532">
        <ele>1430</ele>
        <time>2009-07-09T10:20:06Z</time>
      </trkpt>
      <trkpt lat="44.156" lon="3.55299">
        <ele>1427</ele>
        <time>2009-07-09T10:20:09Z</time>
      </trkpt>
      <trkpt lat="44.1562" lon="3.55272">
        <ele>1422</ele>
        <time>2009-07-09T10:20:13Z</time>
      </trkpt>
      <trkpt lat="44.15624" lon="3.55265">
        <ele>1420</ele>
        <time>2009-07-09T10:20:14Z</time>
      </trkpt>
      <trkpt lat="44.15635" lon="3.55234">
        <ele>1419</ele>
        <time>2009-07-09T10:20:18Z</time>
      </trkpt>
      <trkpt lat="44.15647" lon="3.55215">
        <ele>1413</ele>
        <time>2009-07-09T10:20:21Z</time>
      </trkpt>
      <trkpt lat="44.15663" lon="3.55184">
        <ele>1410</ele>
        <time>2009-07-09T10:20:25Z</time>
      </trkpt>
      <trkpt lat="44.15672" lon="3.55166">
        <ele>1408</ele>
        <time>2009-07-09T10:20:28Z</time>
      </trkpt>
      <trkpt lat="44.15684" lon="3.55131">
        <ele>1405</ele>
        <time>2009-07-09T10:20:37Z</time>
      </trkpt>
      <trkpt lat="44.15692" lon="3.55124">
        <ele>1403</ele>
        <time>2009-07-09T10:20:42Z</time>
      </trkpt>
      <trkpt lat="44.15697" lon="3.55123">
        <ele>1402</ele>
        <time>2009-07-09T10:20:44Z</time>
      </trkpt>
      <trkpt lat="44.15712" lon="3.5513">
        <ele>1398</ele>
        <time>2009-07-09T10:20:50Z</time>
      </trkpt>
      <trkpt lat="44.15719" lon="3.55143">
        <ele>1395</ele>
        <time>2009-07-09T10:20:55Z</time>
      </trkpt>
      <trkpt lat="44.15719" lon="3.55146">
        <ele>1395</ele>
        <time>2009-07-09T10:20:56Z</time>
      </trkpt>
      <trkpt lat="44.15732" lon="3.55184">
        <ele>1393</ele>
        <time>2009-07-09T10:21:07Z</time>
      </trkpt>
      <trkpt lat="44.15735" lon="3.55194">
        <ele>1392</ele>
        <time>2009-07-09T10:21:10Z</time>
      </trkpt>
      <trkpt lat="44.15738" lon="3.55196">
        <ele>1391</ele>
        <time>2009-07-09T10:21:12Z</time>
      </trkpt>
      <trkpt lat="44.1574" lon="3.552">
        <ele>1390</ele>
        <time>2009-07-09T10:21:14Z</time>
      </trkpt>
      <trkpt lat="44.15744" lon="3.55205">
        <ele>1388</ele>
        <time>2009-07-09T10:21:16Z</time>
      </trkpt>
      <trkpt lat="44.15746" lon="3.55212">
        <ele>1387</ele>
        <time>2009-07-09T10:21:18Z</time>
      </trkpt>
      <trkpt lat="44.1575" lon="3.55222">
        <ele>1387</ele>
        <time>2009-07-09T10:21:30Z</time>
      </trkpt>
      <trkpt lat="44.1575" lon="3.55223">
        <ele>1386</ele>
        <time>2009-07-09T10:21:34Z</time>
      </trkpt>
      <trkpt lat="44.15756" lon="3.55226">
        <ele>1385</ele>
        <time>2009-07-09T10:21:41Z</time>
      </trkpt>
      <trkpt lat="44.1576" lon="3.55225">
        <ele>1384</ele>
        <time>2009-07-09T10:21:46Z</time>
      </trkpt>
      <trkpt lat="44.15764" lon="3.55226">
        <ele>1381</ele>
        <time>2009-07-09T10:21:49Z</time>
      </trkpt>
      <trkpt lat="44.15766" lon="3.55229">
        <ele>1382</ele>
        <time>2009-07-09T10:21:54Z</time>
      </trkpt>
      <trkpt lat="44.15776" lon="3.55252">
        <ele>1377</ele>
        <time>2009-07-09T10:22:01Z</time>
      </trkpt>
      <trkpt lat="44.15777" lon="3.55256">
        <ele>1377</ele>
        <time>2009-07-09T10:22:02Z</time>
      </trkpt>
      <trkpt lat="44.15778" lon="3.55259">
        <ele>1375</ele>
        <time>2009-07-09T10:22:03Z</time>
      </trkpt>
      <trkpt lat="44.15787" lon="3.55264">
        <ele>1374</ele>
        <time>2009-07-09T10:22:07Z</time>
      </trkpt>
      <trkpt lat="44.15798" lon="3.55262">
        <ele>1371</ele>
        <time>2009-07-09T10:22:12Z</time>
      </trkpt>
      <trkpt lat="44.158" lon="3.55261">
        <ele>1370</ele>
        <time>2009-07-09T10:22:13Z</time>
      </trkpt>
      <trkpt lat="44.15805" lon="3.55259">
        <ele>1369</ele>
        <time>2009-07-09T10:22:16Z</time>
      </trkpt>
      <trkpt lat="44.15812" lon="3.55261">
        <ele>1367</ele>
        <time>2009-07-09T10:22:25Z</time>
      </trkpt>
      <trkpt lat="44.15813" lon="3.55261">
        <ele>1366</ele>
        <time>2009-07-09T10:22:27Z</time>
      </trkpt>
      <trkpt lat="44.1582" lon="3.55259">
        <ele>1363</ele>
        <time>2009-07-09T10:22:36Z</time>
      </trkpt>
      <trkpt lat="44.15825" lon="3.55255">
        <ele>1361</ele>
        <time>2009-07-09T10:22:42Z</time>
      </trkpt>
      <trkpt lat="44.15826" lon="3.55255">
        <ele>1362</ele>
        <time>2009-07-09T10:22:43Z</time>
      </trkpt>
      <trkpt lat="44.15833" lon="3.55246">
        <ele>1358</ele>
        <time>2009-07-09T10:22:57Z</time>
      </trkpt>
      <trkpt lat="44.15838" lon="3.55243">
        <ele>1357</ele>
        <time>2009-07-09T10:23:13Z</time>
      </trkpt>
      <trkpt lat="44.15841" lon="3.55242">
        <ele>1356</ele>
        <time>2009-07-09T10:23:17Z</time>
      </trkpt>
      <trkpt lat="44.15847" lon="3.55237">
        <ele>1352</ele>
        <time>2009-07-09T10:23:24Z</time>
      </trkpt>
      <trkpt lat="44.15848" lon="3.55237">
        <ele>1352</ele>
        <time>2009-07-09T10:23:25Z</time>
      </trkpt>
      <trkpt lat="44.15855" lon="3.55228">
        <ele>1350</ele>
        <time>2009-07-09T10:23:37Z</time>
      </trkpt>
      <trkpt lat="44.15858" lon="3.55228">
        <ele>1348</ele>
        <time>2009-07-09T10:23:42Z</time>
      </trkpt>
      <trkpt lat="44.15865" lon="3.55229">
        <ele>1346</ele>
        <time>2009-07-09T10:23:53Z</time>
      </trkpt>
      <trkpt lat="44.15873" lon="3.55225">
        <ele>1344</ele>
        <time>2009-07-09T10:24:03Z</time>
      </trkpt>
      <trkpt lat="44.15877" lon="3.55224">
        <ele>1340</ele>
        <time>2009-07-09T10:24:08Z</time>
      </trkpt>
      <trkpt lat="44.15887" lon="3.55222">
        <ele>1338</ele>
        <time>2009-07-09T10:24:23Z</time>
      </trkpt>
      <trkpt lat="44.15889" lon="3.55223">
        <ele>1337</ele>
        <time>2009-07-09T10:24:25Z</time>
      </trkpt>
      <trkpt lat="44.15895" lon="3.55225">
        <ele>1335</ele>
        <time>2009-07-09T10:24:36Z</time>
      </trkpt>
      <trkpt lat="44.159" lon="3.55226">
        <ele>1334</ele>
        <time>2009-07-09T10:24:45Z</time>
      </trkpt>
      <trkpt lat="44.15906" lon="3.55223">
        <ele>1331</ele>
        <time>2009-07-09T10:24:52Z</time>
      </trkpt>
      <trkpt lat="44.15912" lon="3.5522">
        <ele>1330</ele>
        <time>2009-07-09T10:25:05Z</time>
      </trkpt>
      <trkpt lat="44.15918" lon="3.55218">
        <ele>1327</ele>
        <time>2009-07-09T10:25:15Z</time>
      </trkpt>
      <trkpt lat="44.15924" lon="3.55217">
        <ele>1325</ele>
        <time>2009-07-09T10:25:22Z</time>
      </trkpt>
      <trkpt lat="44.15926" lon="3.55218">
        <ele>1324</ele>
        <time>2009-07-09T10:25:25Z</time>
      </trkpt>
      <trkpt lat="44.15929" lon="3.55215">
        <ele>1323</ele>
        <time>2009-07-09T10:25:31Z</time>
      </trkpt>
      <trkpt lat="44.15941" lon="3.55211">
        <ele>1317</ele>
        <time>2009-07-09T10:25:36Z</time>
      </trkpt>
      <trkpt lat="44.1596" lon="3.55205">
        <ele>1312</ele>
        <time>2009-07-09T10:25:41Z</time>
      </trkpt>
      <trkpt lat="44.15965" lon="3.55204">
        <ele>1312</ele>
        <time>2009-07-09T10:25:42Z</time>
      </trkpt>
      <trkpt lat="44.15973" lon="3.55203">
        <ele>1311</ele>
        <time>2009-07-09T10:25:44Z</time>
      </trkpt>
      <trkpt lat="44.15986" lon="3.55196">
        <ele>1306</ele>
        <time>2009-07-09T10:25:50Z</time>
      </trkpt>
      <trkpt lat="44.15995" lon="3.55189">
        <ele>1304</ele>
        <time>2009-07-09T10:25:53Z</time>
      </trkpt>
      <trkpt lat="44.16" lon="3.55188">
        <ele>1303</ele>
        <time>2009-07-09T10:25:55Z</time>
      </trkpt>
      <trkpt lat="44.16013" lon="3.55187">
        <ele>1301</ele>
        <time>2009-07-09T10:26:02Z</time>
      </trkpt>
      <trkpt lat="44.16024" lon="3.55176">
        <ele>1298</ele>
        <time>2009-07-09T10:26:09Z</time>
      </trkpt>
      <trkpt lat="44.16026" lon="3.55173">
        <ele>1297</ele>
        <time>2009-07-09T10:26:10Z</time>
      </trkpt>
      <trkpt lat="44.16035" lon="3.55165">
        <ele>1293</ele>
        <time>2009-07-09T10:26:13Z</time>
      </trkpt>
      <trkpt lat="44.16055" lon="3.55154">
        <ele>1291</ele>
        <time>2009-07-09T10:26:23Z</time>
      </trkpt>
      <trkpt lat="44.16065" lon="3.55148">
        <ele>1288</ele>
        <time>2009-07-09T10:26:27Z</time>
      </trkpt>
      <trkpt lat="44.16081" lon="3.5514">
        <ele>1284</ele>
        <time>2009-07-09T10:26:35Z</time>
      </trkpt>
      <trkpt lat="44.1609" lon="3.55124">
        <ele>1279</ele>
        <time>2009-07-09T10:26:40Z</time>
      </trkpt>
      <trkpt lat="44.16099" lon="3.55116">
        <ele>1276</ele>
        <time>2009-07-09T10:26:44Z</time>
      </trkpt>
      <trkpt lat="44.16103" lon="3.55108">
        <ele>1275</ele>
        <time>2009-07-09T10:26:46Z</time>
      </trkpt>
      <trkpt lat="44.16114" lon="3.5509">
        <ele>1274</ele>
        <time>2009-07-09T10:26:50Z</time>
      </trkpt>
      <trkpt lat="44.16125" lon="3.5508">
        <ele>1273</ele>
        <time>2009-07-09T10:26:53Z</time>
      </trkpt>
      <trkpt lat="44.16141" lon="3.55066">
        <ele>1269</ele>
        <time>2009-07-09T10:26:58Z</time>
      </trkpt>
      <trkpt lat="44.16145" lon="3.5506">
        <ele>1268</ele>
        <time>2009-07-09T10:27:00Z</time>
      </trkpt>
      <trkpt lat="44.16153" lon="3.55053">
        <ele>1265</ele>
        <time>2009-07-09T10:27:03Z</time>
      </trkpt>
      <trkpt lat="44.16154" lon="3.55052">
        <ele>1264</ele>
        <time>2009-07-09T10:27:04Z</time>
      </trkpt>
      <trkpt lat="44.16175" lon="3.55047">
        <ele>1261</ele>
        <time>2009-07-09T10:27:11Z</time>
      </trkpt>
      <trkpt lat="44.16192" lon="3.55043">
        <ele>1257</ele>
        <time>2009-07-09T10:27:15Z</time>
      </trkpt>
      <trkpt lat="44.16197" lon="3.55041">
        <ele>1257</ele>
        <time>2009-07-09T10:27:16Z</time>
      </trkpt>
      <trkpt lat="44.16216" lon="3.55035">
        <ele>1255</ele>
        <time>2009-07-09T10:27:23Z</time>
      </trkpt>
      <trkpt lat="44.16227" lon="3.55028">
        <ele>1254</ele>
        <time>2009-07-09T10:27:26Z</time>
      </trkpt>
      <trkpt lat="44.1625" lon="3.55022">
        <ele>1251</ele>
        <time>2009-07-09T10:27:32Z</time>
      </trkpt>
      <trkpt lat="44.16255" lon="3.55022">
        <ele>1250</ele>
        <time>2009-07-09T10:27:33Z</time>
      </trkpt>
      <trkpt lat="44.16272" lon="3.55008">
        <ele>1246</ele>
        <time>2009-07-09T10:27:37Z</time>
      </trkpt>
      <trkpt lat="44.16281" lon="3.54998">
        <ele>1245</ele>
        <time>2009-07-09T10:27:39Z</time>
      </trkpt>
      <trkpt lat="44.16292" lon="3.54989">
        <ele>1244</ele>
        <time>2009-07-09T10:27:42Z</time>
      </trkpt>
      <trkpt lat="44.16298" lon="3.54976">
        <ele>1244</ele>
        <time>2009-07-09T10:27:45Z</time>
      </trkpt>
      <trkpt lat="44.16311" lon="3.54959">
        <ele>1240</ele>
        <time>2009-07-09T10:27:49Z</time>
      </trkpt>
      <trkpt lat="44.16329" lon="3.54956">
        <ele>1235</ele>
        <time>2009-07-09T10:27:54Z</time>
      </trkpt>
      <trkpt lat="44.16348" lon="3.54953">
        <ele>1234</ele>
        <time>2009-07-09T10:28:00Z</time>
      </trkpt>
      <trkpt lat="44.16353" lon="3.54956">
        <ele>1231</ele>
        <time>2009-07-09T10:28:02Z</time>
      </trkpt>
      <trkpt lat="44.16377" lon="3.5495">
        <ele>1226</ele>
        <time>2009-07-09T10:28:08Z</time>
      </trkpt>
      <trkpt lat="44.16387" lon="3.5495">
        <ele>1226</ele>
        <time>2009-07-09T10:28:10Z</time>
      </trkpt>
      <trkpt lat="44.16393" lon="3.54951">
        <ele>1218</ele>
        <time>2009-07-09T10:28:11Z</time>
      </trkpt>
      <trkpt lat="44.16424" lon="3.5495">
        <ele>1212</ele>
        <time>2009-07-09T10:28:19Z</time>
      </trkpt>
      <trkpt lat="44.16427" lon="3.54948">
        <ele>1211</ele>
        <time>2009-07-09T10:28:20Z</time>
      </trkpt>
      <trkpt lat="44.1643" lon="3.54946">
        <ele>1212</ele>
        <time>2009-07-09T10:28:32Z</time>
      </trkpt>
      <trkpt lat="44.1643" lon="3.54947">
        <ele>1212</ele>
        <time>2009-07-09T10:28:48Z</time>
      </trkpt>
      <trkpt lat="44.16429" lon="3.54947">
        <ele>1210</ele>
        <time>2009-07-09T10:29:02Z</time>
      </trkpt>
      <trkpt lat="44.16428" lon="3.54947">
        <ele>1211</ele>
        <time>2009-07-09T10:31:26Z</time>
      </trkpt>
      <trkpt lat="44.16428" lon="3.54946">
        <ele>1211</ele>
        <time>2009-07-09T10:33:05Z</time>
      </trkpt>
      <trkpt lat="44.16428" lon="3.54947">
        <ele>1211</ele>
        <time>2009-07-09T10:33:41Z</time>
      </trkpt>
      <trkpt lat="44.16431" lon="3.54947">
        <ele>1210</ele>
        <time>2009-07-09T10:34:09Z</time>
      </trkpt>
      <trkpt lat="44.16443" lon="3.54951">
        <ele>1210</ele>
        <time>2009-07-09T10:34:15Z</time>
      </trkpt>
      <trkpt lat="44.1645" lon="3.54949">
        <ele>1209</ele>
        <time>2009-07-09T10:34:17Z</time>
      </trkpt>
      <trkpt lat="44.16493" lon="3.54906">
        <ele>1205</ele>
        <time>2009-07-09T10:34:27Z</time>
      </trkpt>
      <trkpt lat="44.16513" lon="3.54887">
        <ele>1204</ele>
        <time>2009-07-09T10:34:31Z</time>
      </trkpt>
      <trkpt lat="44.16528" lon="3.54874">
        <ele>1205</ele>
        <time>2009-07-09T10:34:34Z</time>
      </trkpt>
      <trkpt lat="44.1656" lon="3.54831">
        <ele>1202</ele>
        <time>2009-07-09T10:34:42Z</time>
      </trkpt>
      <trkpt lat="44.16577" lon="3.548">
        <ele>1203</ele>
        <time>2009-07-09T10:34:51Z</time>
      </trkpt>
      <trkpt lat="44.16578" lon="3.54799">
        <ele>1203</ele>
        <time>2009-07-09T10:35:15Z</time>
      </trkpt>
      <trkpt lat="44.16577" lon="3.54799">
        <ele>1204</ele>
        <time>2009-07-09T10:35:37Z</time>
      </trkpt>
      <trkpt lat="44.16579" lon="3.54797">
        <ele>1202</ele>
        <time>2009-07-09T10:36:16Z</time>
      </trkpt>
      <trkpt lat="44.16579" lon="3.54796">
        <ele>1205</ele>
        <time>2009-07-09T10:37:46Z</time>
      </trkpt>
      <trkpt lat="44.16582" lon="3.54793">
        <ele>1203</ele>
        <time>2009-07-09T10:41:44Z</time>
      </trkpt>
      <trkpt lat="44.16577" lon="3.54796">
        <ele>1202</ele>
        <time>2009-07-09T10:42:37Z</time>
      </trkpt>
    </trkseg>
  </trk>
  <trk>
    <name><![CDATA[D02]]></name>
    <trkseg>
      <trkpt lat="44.16586" lon="3.54786">
        <ele>1202</ele>
        <time>2009-07-09T11:24:11Z</time>
      </trkpt>
      <trkpt lat="44.16576" lon="3.54801">
        <ele>1200</ele>
        <time>2009-07-09T11:24:28Z</time>
      </trkpt>
      <trkpt lat="44.16577" lon="3.54801">
        <ele>1200</ele>
        <time>2009-07-09T11:25:33Z</time>
      </trkpt>
      <trkpt lat="44.16578" lon="3.54802">
        <ele>1200</ele>
        <time>2009-07-09T11:25:59Z</time>
      </trkpt>
      <trkpt lat="44.1659" lon="3.54796">
        <ele>1201</ele>
        <time>2009-07-09T11:27:20Z</time>
      </trkpt>
      <trkpt lat="44.16609" lon="3.54768">
        <ele>1199</ele>
        <time>2009-07-09T11:27:31Z</time>
      </trkpt>
      <trkpt lat="44.16644" lon="3.54734">
        <ele>1202</ele>
        <time>2009-07-09T11:27:45Z</time>
      </trkpt>
      <trkpt lat="44.16703" lon="3.54723">
        <ele>1199</ele>
        <time>2009-07-09T11:28:05Z</time>
      </trkpt>
      <trkpt lat="44.16729" lon="3.54712">
        <ele>1202</ele>
        <time>2009-07-09T11:28:15Z</time>
      </trkpt>
      <trkpt lat="44.16733" lon="3.54709">
        <ele>1198</ele>
        <time>2009-07-09T11:28:17Z</time>
      </trkpt>
      <trkpt lat="44.16737" lon="3.54707">
        <ele>1204</ele>
        <time>2009-07-09T11:28:19Z</time>
      </trkpt>
      <trkpt lat="44.16738" lon="3.54706">
        <ele>1201</ele>
        <time>2009-07-09T11:28:20Z</time>
      </trkpt>
      <trkpt lat="44.16758" lon="3.54688">
        <ele>1201</ele>
        <time>2009-07-09T11:28:33Z</time>
      </trkpt>
      <trkpt lat="44.16781" lon="3.54655">
        <ele>1200</ele>
        <time>2009-07-09T11:28:47Z</time>
      </trkpt>
      <trkpt lat="44.16791" lon="3.54627">
        <ele>1202</ele>
        <time>2009-07-09T11:28:56Z</time>
      </trkpt>
      <trkpt lat="44.16795" lon="3.54619">
        <ele>1203</ele>
        <time>2009-07-09T11:28:59Z</time>
      </trkpt>
      <trkpt lat="44.16798" lon="3.54614">
        <ele>1198</ele>
        <time>2009-07-09T11:29:01Z</time>
      </trkpt>
      <trkpt lat="44.16799" lon="3.54611">
        <ele>1202</ele>
        <time>2009-07-09T11:29:02Z</time>
      </trkpt>
      <trkpt lat="44.1682" lon="3.54581">
        <ele>1199</ele>
        <time>2009-07-09T11:29:14Z</time>
      </trkpt>
      <trkpt lat="44.16822" lon="3.54579">
        <ele>1206</ele>
        <time>2009-07-09T11:29:15Z</time>
      </trkpt>
      <trkpt lat="44.16823" lon="3.54577">
        <ele>1203</ele>
        <time>2009-07-09T11:29:16Z</time>
      </trkpt>
      <trkpt lat="44.16853" lon="3.54557">
        <ele>1205</ele>
        <time>2009-07-09T11:29:31Z</time>
      </trkpt>
      <trkpt lat="44.16874" lon="3.54549">
        <ele>1206</ele>
        <time>2009-07-09T11:29:41Z</time>
      </trkpt>
      <trkpt lat="44.16896" lon="3.54541">
        <ele>1209</ele>
        <time>2009-07-09T11:29:51Z</time>
      </trkpt>
      <trkpt lat="44.16929" lon="3.54529">
        <ele>1209</ele>
        <time>2009-07-09T11:30:06Z</time>
      </trkpt>
      <trkpt lat="44.16968" lon="3.54502">
        <ele>1212</ele>
        <time>2009-07-09T11:30:22Z</time>
      </trkpt>
      <trkpt lat="44.17017" lon="3.54458">
        <ele>1213</ele>
        <time>2009-07-09T11:30:41Z</time>
      </trkpt>
      <trkpt lat="44.17074" lon="3.54402">
        <ele>1213</ele>
        <time>2009-07-09T11:31:01Z</time>
      </trkpt>
      <trkpt lat="44.17146" lon="3.54337">
        <ele>1214</ele>
        <time>2009-07-09T11:31:25Z</time>
      </trkpt>
      <trkpt lat="44.17185" lon="3.54305">
        <ele>1213</ele>
        <time>2009-07-09T11:31:38Z</time>
      </trkpt>
      <trkpt lat="44.17231" lon="3.54263">
        <ele>1216</ele>
        <time>2009-07-09T11:31:55Z</time>
      </trkpt>
      <trkpt lat="44.17282" lon="3.54222">
        <ele>1220</ele>
        <time>2009-07-09T11:32:14Z</time>
      </trkpt>
      <trkpt lat="44.17342" lon="3.54182">
        <ele>1221</ele>
        <time>2009-07-09T11:32:35Z</time>
      </trkpt>
      <trkpt lat="44.17395" lon="3.54144">
        <ele>1225</ele>
        <time>2009-07-09T11:32:54Z</time>
      </trkpt>
      <trkpt lat="44.17431" lon="3.54122">
        <ele>1226</ele>
        <time>2009-07-09T11:33:07Z</time>
      </trkpt>
      <trkpt lat="44.17457" lon="3.54124">
        <ele>1229</ele>
        <time>2009-07-09T11:33:18Z</time>
      </trkpt>
      <trkpt lat="44.17471" lon="3.54123">
        <ele>1230</ele>
        <time>2009-07-09T11:33:30Z</time>
      </trkpt>
      <trkpt lat="44.17472" lon="3.54123">
        <ele>1231</ele>
        <time>2009-07-09T11:33:31Z</time>
      </trkpt>
      <trkpt lat="44.17488" lon="3.54112">
        <ele>1232</ele>
        <time>2009-07-09T11:33:43Z</time>
      </trkpt>
      <trkpt lat="44.17508" lon="3.54105">
        <ele>1234</ele>
        <time>2009-07-09T11:33:57Z</time>
      </trkpt>
      <trkpt lat="44.17523" lon="3.54109">
        <ele>1237</ele>
        <time>2009-07-09T11:34:08Z</time>
      </trkpt>
      <trkpt lat="44.17543" lon="3.54106">
        <ele>1239</ele>
        <time>2009-07-09T11:34:24Z</time>
      </trkpt>
      <trkpt lat="44.17567" lon="3.54086">
        <ele>1242</ele>
        <time>2009-07-09T11:34:42Z</time>
      </trkpt>
      <trkpt lat="44.17586" lon="3.5407">
        <ele>1245</ele>
        <time>2009-07-09T11:35:00Z</time>
      </trkpt>
      <trkpt lat="44.17604" lon="3.54041">
        <ele>1245</ele>
        <time>2009-07-09T11:35:14Z</time>
      </trkpt>
      <trkpt lat="44.17606" lon="3.54029">
        <ele>1245</ele>
        <time>2009-07-09T11:35:18Z</time>
      </trkpt>
      <trkpt lat="44.17607" lon="3.54016">
        <ele>1245</ele>
        <time>2009-07-09T11:35:22Z</time>
      </trkpt>
      <trkpt lat="44.17615" lon="3.53963">
        <ele>1247</ele>
        <time>2009-07-09T11:35:39Z</time>
      </trkpt>
      <trkpt lat="44.1762" lon="3.53945">
        <ele>1250</ele>
        <time>2009-07-09T11:35:45Z</time>
      </trkpt>
      <trkpt lat="44.1762" lon="3.53942">
        <ele>1250</ele>
        <time>2009-07-09T11:35:46Z</time>
      </trkpt>
      <trkpt lat="44.17632" lon="3.53906">
        <ele>1251</ele>
        <time>2009-07-09T11:36:00Z</time>
      </trkpt>
      <trkpt lat="44.17651" lon="3.53869">
        <ele>1253</ele>
        <time>2009-07-09T11:36:15Z</time>
      </trkpt>
      <trkpt lat="44.17665" lon="3.53843">
        <ele>1256</ele>
        <time>2009-07-09T11:36:26Z</time>
      </trkpt>
      <trkpt lat="44.17669" lon="3.53836">
        <ele>1256</ele>
        <time>2009-07-09T11:36:29Z</time>
      </trkpt>
      <trkpt lat="44.1769" lon="3.538">
        <ele>1258</ele>
        <time>2009-07-09T11:36:44Z</time>
      </trkpt>
      <trkpt lat="44.17709" lon="3.53771">
        <ele>1259</ele>
        <time>2009-07-09T11:36:58Z</time>
      </trkpt>
      <trkpt lat="44.17726" lon="3.53736">
        <ele>1259</ele>
        <time>2009-07-09T11:37:11Z</time>
      </trkpt>
      <trkpt lat="44.17751" lon="3.53685">
        <ele>1259</ele>
        <time>2009-07-09T11:37:25Z</time>
      </trkpt>
      <trkpt lat="44.17772" lon="3.53638">
        <ele>1260</ele>
        <time>2009-07-09T11:37:39Z</time>
      </trkpt>
      <trkpt lat="44.17779" lon="3.5361">
        <ele>1263</ele>
        <time>2009-07-09T11:37:47Z</time>
      </trkpt>
      <trkpt lat="44.17781" lon="3.53599">
        <ele>1265</ele>
        <time>2009-07-09T11:37:50Z</time>
      </trkpt>
      <trkpt lat="44.17781" lon="3.53571">
        <ele>1268</ele>
        <time>2009-07-09T11:37:59Z</time>
      </trkpt>
      <trkpt lat="44.1778" lon="3.53518">
        <ele>1269</ele>
        <time>2009-07-09T11:38:17Z</time>
      </trkpt>
      <trkpt lat="44.17781" lon="3.53515">
        <ele>1269</ele>
        <time>2009-07-09T11:38:18Z</time>
      </trkpt>
      <trkpt lat="44.17784" lon="3.53496">
        <ele>1269</ele>
        <time>2009-07-09T11:38:24Z</time>
      </trkpt>
      <trkpt lat="44.17805" lon="3.53446">
        <ele>1270</ele>
        <time>2009-07-09T11:38:39Z</time>
      </trkpt>
      <trkpt lat="44.17834" lon="3.53402">
        <ele>1268</ele>
        <time>2009-07-09T11:38:50Z</time>
      </trkpt>
      <trkpt lat="44.17854" lon="3.53375">
        <ele>1265</ele>
        <time>2009-07-09T11:38:55Z</time>
      </trkpt>
      <trkpt lat="44.17878" lon="3.53351">
        <ele>1261</ele>
        <time>2009-07-09T11:39:00Z</time>
      </trkpt>
      <trkpt lat="44.17884" lon="3.53348">
        <ele>1261</ele>
        <time>2009-07-09T11:39:01Z</time>
      </trkpt>
      <trkpt lat="44.17908" lon="3.53333">
        <ele>1260</ele>
        <time>2009-07-09T11:39:05Z</time>
      </trkpt>
      <trkpt lat="44.17929" lon="3.53311">
        <ele>1261</ele>
        <time>2009-07-09T11:39:10Z</time>
      </trkpt>
      <trkpt lat="44.17938" lon="3.53303">
        <ele>1259</ele>
        <time>2009-07-09T11:39:12Z</time>
      </trkpt>
      <trkpt lat="44.17999" lon="3.53242">
        <ele>1257</ele>
        <time>2009-07-09T11:39:25Z</time>
      </trkpt>
      <trkpt lat="44.18004" lon="3.53239">
        <ele>1257</ele>
        <time>2009-07-09T11:39:26Z</time>
      </trkpt>
      <trkpt lat="44.18023" lon="3.53223">
        <ele>1257</ele>
        <time>2009-07-09T11:39:30Z</time>
      </trkpt>
      <trkpt lat="44.1804" lon="3.53199">
        <ele>1253</ele>
        <time>2009-07-09T11:39:35Z</time>
      </trkpt>
      <trkpt lat="44.18055" lon="3.53181">
        <ele>1251</ele>
        <time>2009-07-09T11:39:38Z</time>
      </trkpt>
      <trkpt lat="44.18062" lon="3.53175">
        <ele>1251</ele>
        <time>2009-07-09T11:39:39Z</time>
      </trkpt>
      <trkpt lat="44.1811" lon="3.53133">
        <ele>1251</ele>
        <time>2009-07-09T11:39:49Z</time>
      </trkpt>
      <trkpt lat="44.18129" lon="3.53092">
        <ele>1249</ele>
        <time>2009-07-09T11:39:56Z</time>
      </trkpt>
      <trkpt lat="44.18136" lon="3.53078">
        <ele>1249</ele>
        <time>2009-07-09T11:39:58Z</time>
      </trkpt>
      <trkpt lat="44.18183" lon="3.5301">
        <ele>1249</ele>
        <time>2009-07-09T11:40:10Z</time>
      </trkpt>
      <trkpt lat="44.18193" lon="3.52994">
        <ele>1247</ele>
        <time>2009-07-09T11:40:13Z</time>
      </trkpt>
      <trkpt lat="44.18207" lon="3.52971">
        <ele>1246</ele>
        <time>2009-07-09T11:40:17Z</time>
      </trkpt>
      <trkpt lat="44.18224" lon="3.52945">
        <ele>1243</ele>
        <time>2009-07-09T11:40:21Z</time>
      </trkpt>
      <trkpt lat="44.18229" lon="3.52938">
        <ele>1242</ele>
        <time>2009-07-09T11:40:22Z</time>
      </trkpt>
      <trkpt lat="44.18253" lon="3.52896">
        <ele>1239</ele>
        <time>2009-07-09T11:40:27Z</time>
      </trkpt>
      <trkpt lat="44.18267" lon="3.52873">
        <ele>1237</ele>
        <time>2009-07-09T11:40:30Z</time>
      </trkpt>
      <trkpt lat="44.18279" lon="3.52846">
        <ele>1235</ele>
        <time>2009-07-09T11:40:33Z</time>
      </trkpt>
      <trkpt lat="44.18282" lon="3.52835">
        <ele>1235</ele>
        <time>2009-07-09T11:40:34Z</time>
      </trkpt>
      <trkpt lat="44.18307" lon="3.52784">
        <ele>1230</ele>
        <time>2009-07-09T11:40:39Z</time>
      </trkpt>
      <trkpt lat="44.18314" lon="3.52774">
        <ele>1230</ele>
        <time>2009-07-09T11:40:40Z</time>
      </trkpt>
      <trkpt lat="44.18325" lon="3.52752">
        <ele>1227</ele>
        <time>2009-07-09T11:40:42Z</time>
      </trkpt>
      <trkpt lat="44.18343" lon="3.52718">
        <ele>1225</ele>
        <time>2009-07-09T11:40:45Z</time>
      </trkpt>
      <trkpt lat="44.18372" lon="3.52661">
        <ele>1222</ele>
        <time>2009-07-09T11:40:50Z</time>
      </trkpt>
      <trkpt lat="44.18384" lon="3.52637">
        <ele>1221</ele>
        <time>2009-07-09T11:40:52Z</time>
      </trkpt>
      <trkpt lat="44.18401" lon="3.526">
        <ele>1218</ele>
        <time>2009-07-09T11:40:55Z</time>
      </trkpt>
      <trkpt lat="44.18429" lon="3.52561">
        <ele>1217</ele>
        <time>2009-07-09T11:40:59Z</time>
      </trkpt>
      <trkpt lat="44.18453" lon="3.52514">
        <ele>1214</ele>
        <time>2009-07-09T11:41:04Z</time>
      </trkpt>
      <trkpt lat="44.18471" lon="3.52485">
        <ele>1208</ele>
        <time>2009-07-09T11:41:07Z</time>
      </trkpt>
      <trkpt lat="44.18501" lon="3.52456">
        <ele>1204</ele>
        <time>2009-07-09T11:41:11Z</time>
      </trkpt>
      <trkpt lat="44.18533" lon="3.52442">
        <ele>1200</ele>
        <time>2009-07-09T11:41:14Z</time>
      </trkpt>
      <trkpt lat="44.18574" lon="3.52431">
        <ele>1194</ele>
        <time>2009-07-09T11:41:18Z</time>
      </trkpt>
      <trkpt lat="44.18595" lon="3.52424">
        <ele>1190</ele>
        <time>2009-07-09T11:41:20Z</time>
      </trkpt>
      <trkpt lat="44.18618" lon="3.52417">
        <ele>1187</ele>
        <time>2009-07-09T11:41:22Z</time>
      </trkpt>
      <trkpt lat="44.18639" lon="3.52408">
        <ele>1179</ele>
        <time>2009-07-09T11:41:24Z</time>
      </trkpt>
      <trkpt lat="44.1867" lon="3.52397">
        <ele>1174</ele>
        <time>2009-07-09T11:41:27Z</time>
      </trkpt>
      <trkpt lat="44.18688" lon="3.5239">
        <ele>1170</ele>
        <time>2009-07-09T11:41:29Z</time>
      </trkpt>
      <trkpt lat="44.18706" lon="3.52382">
        <ele>1169</ele>
        <time>2009-07-09T11:41:31Z</time>
      </trkpt>
      <trkpt lat="44.18726" lon="3.52374">
        <ele>1164</ele>
        <time>2009-07-09T11:41:33Z</time>
      </trkpt>
      <trkpt lat="44.18737" lon="3.52371">
        <ele>1160</ele>
        <time>2009-07-09T11:41:34Z</time>
      </trkpt>
      <trkpt lat="44.18757" lon="3.52363">
        <ele>1159</ele>
        <time>2009-07-09T11:41:36Z</time>
      </trkpt>
      <trkpt lat="44.18784" lon="3.52353">
        <ele>1155</ele>
        <time>2009-07-09T11:41:39Z</time>
      </trkpt>
      <trkpt lat="44.18803" lon="3.52349">
        <ele>1152</ele>
        <time>2009-07-09T11:41:41Z</time>
      </trkpt>
      <trkpt lat="44.18828" lon="3.52341">
        <ele>1148</ele>
        <time>2009-07-09T11:41:44Z</time>
      </trkpt>
      <trkpt lat="44.18845" lon="3.52335">
        <ele>1144</ele>
        <time>2009-07-09T11:41:46Z</time>
      </trkpt>
      <trkpt lat="44.18869" lon="3.52325">
        <ele>1141</ele>
        <time>2009-07-09T11:41:49Z</time>
      </trkpt>
      <trkpt lat="44.18886" lon="3.52318">
        <ele>1137</ele>
        <time>2009-07-09T11:41:51Z</time>
      </trkpt>
      <trkpt lat="44.18905" lon="3.5231">
        <ele>1132</ele>
        <time>2009-07-09T11:41:53Z</time>
      </trkpt>
      <trkpt lat="44.18924" lon="3.52303">
        <ele>1128</ele>
        <time>2009-07-09T11:41:55Z</time>
      </trkpt>
      <trkpt lat="44.18933" lon="3.52298">
        <ele>1125</ele>
        <time>2009-07-09T11:41:56Z</time>
      </trkpt>
      <trkpt lat="44.18952" lon="3.52288">
        <ele>1121</ele>
        <time>2009-07-09T11:41:58Z</time>
      </trkpt>
      <trkpt lat="44.18971" lon="3.52275">
        <ele>1118</ele>
        <time>2009-07-09T11:42:00Z</time>
      </trkpt>
      <trkpt lat="44.18979" lon="3.52269">
        <ele>1118</ele>
        <time>2009-07-09T11:42:01Z</time>
      </trkpt>
      <trkpt lat="44.18996" lon="3.52253">
        <ele>1113</ele>
        <time>2009-07-09T11:42:03Z</time>
      </trkpt>
      <trkpt lat="44.19012" lon="3.52236">
        <ele>1110</ele>
        <time>2009-07-09T11:42:05Z</time>
      </trkpt>
      <trkpt lat="44.19036" lon="3.52218">
        <ele>1109</ele>
        <time>2009-07-09T11:42:08Z</time>
      </trkpt>
      <trkpt lat="44.19052" lon="3.52206">
        <ele>1105</ele>
        <time>2009-07-09T11:42:13Z</time>
      </trkpt>
      <trkpt lat="44.19061" lon="3.52196">
        <ele>1103</ele>
        <time>2009-07-09T11:42:21Z</time>
      </trkpt>
      <trkpt lat="44.19063" lon="3.52198">
        <ele>1103</ele>
        <time>2009-07-09T11:42:34Z</time>
      </trkpt>
      <trkpt lat="44.19061" lon="3.522">
        <ele>1103</ele>
        <time>2009-07-09T11:43:17Z</time>
      </trkpt>
      <trkpt lat="44.19062" lon="3.52195">
        <ele>1103</ele>
        <time>2009-07-09T11:44:08Z</time>
      </trkpt>
      <trkpt lat="44.19062" lon="3.52196">
        <ele>1103</ele>
        <time>2009-07-09T11:45:07Z</time>
      </trkpt>
      <trkpt lat="44.19059" lon="3.52196">
        <ele>1105</ele>
        <time>2009-07-09T11:45:32Z</time>
      </trkpt>
      <trkpt lat="44.19061" lon="3.52197">
        <ele>1105</ele>
        <time>2009-07-09T11:45:54Z</time>
      </trkpt>
      <trkpt lat="44.19067" lon="3.52189">
        <ele>1104</ele>
        <time>2009-07-09T11:46:12Z</time>
      </trkpt>
      <trkpt lat="44.19075" lon="3.5218">
        <ele>1101</ele>
        <time>2009-07-09T11:46:15Z</time>
      </trkpt>
      <trkpt lat="44.19111" lon="3.5215">
        <ele>1093</ele>
        <time>2009-07-09T11:46:21Z</time>
      </trkpt>
      <trkpt lat="44.19118" lon="3.52145">
        <ele>1088</ele>
        <time>2009-07-09T11:46:22Z</time>
      </trkpt>
      <trkpt lat="44.19125" lon="3.52139">
        <ele>1088</ele>
        <time>2009-07-09T11:46:23Z</time>
      </trkpt>
      <trkpt lat="44.19171" lon="3.52118">
        <ele>1079</ele>
        <time>2009-07-09T11:46:29Z</time>
      </trkpt>
      <trkpt lat="44.19191" lon="3.52108">
        <ele>1076</ele>
        <time>2009-07-09T11:46:32Z</time>
      </trkpt>
      <trkpt lat="44.1921" lon="3.52088">
        <ele>1071</ele>
        <time>2009-07-09T11:46:35Z</time>
      </trkpt>
      <trkpt lat="44.19223" lon="3.52071">
        <ele>1069</ele>
        <time>2009-07-09T11:46:37Z</time>
      </trkpt>
      <trkpt lat="44.19249" lon="3.52059">
        <ele>1064</ele>
        <time>2009-07-09T11:46:41Z</time>
      </trkpt>
      <trkpt lat="44.19256" lon="3.52057">
        <ele>1063</ele>
        <time>2009-07-09T11:46:42Z</time>
      </trkpt>
      <trkpt lat="44.19281" lon="3.52046">
        <ele>1060</ele>
        <time>2009-07-09T11:46:46Z</time>
      </trkpt>
      <trkpt lat="44.19285" lon="3.52044">
        <ele>1059</ele>
        <time>2009-07-09T11:46:47Z</time>
      </trkpt>
      <trkpt lat="44.19304" lon="3.52034">
        <ele>1056</ele>
        <time>2009-07-09T11:46:54Z</time>
      </trkpt>
      <trkpt lat="44.19315" lon="3.52032">
        <ele>1053</ele>
        <time>2009-07-09T11:46:56Z</time>
      </trkpt>
      <trkpt lat="44.19322" lon="3.52031">
        <ele>1052</ele>
        <time>2009-07-09T11:46:57Z</time>
      </trkpt>
      <trkpt lat="44.19344" lon="3.52022">
        <ele>1053</ele>
        <time>2009-07-09T11:47:01Z</time>
      </trkpt>
      <trkpt lat="44.19371" lon="3.5202">
        <ele>1052</ele>
        <time>2009-07-09T11:47:06Z</time>
      </trkpt>
      <trkpt lat="44.19383" lon="3.5202">
        <ele>1051</ele>
        <time>2009-07-09T11:47:08Z</time>
      </trkpt>
      <trkpt lat="44.19405" lon="3.52022">
        <ele>1050</ele>
        <time>2009-07-09T11:47:12Z</time>
      </trkpt>
      <trkpt lat="44.19422" lon="3.52021">
        <ele>1050</ele>
        <time>2009-07-09T11:47:16Z</time>
      </trkpt>
      <trkpt lat="44.19438" lon="3.52023">
        <ele>1051</ele>
        <time>2009-07-09T11:47:29Z</time>
      </trkpt>
      <trkpt lat="44.19445" lon="3.52022">
        <ele>1051</ele>
        <time>2009-07-09T11:48:05Z</time>
      </trkpt>
      <trkpt lat="44.1949" lon="3.52014">
        <ele>1052</ele>
        <time>2009-07-09T11:48:18Z</time>
      </trkpt>
      <trkpt lat="44.19538" lon="3.52001">
        <ele>1053</ele>
        <time>2009-07-09T11:48:32Z</time>
      </trkpt>
      <trkpt lat="44.19557" lon="3.51994">
        <ele>1055</ele>
        <time>2009-07-09T11:48:38Z</time>
      </trkpt>
      <trkpt lat="44.196" lon="3.5197">
        <ele>1058</ele>
        <time>2009-07-09T11:48:52Z</time>
      </trkpt>
      <trkpt lat="44.19603" lon="3.51968">
        <ele>1058</ele>
        <time>2009-07-09T11:48:53Z</time>
      </trkpt>
      <trkpt lat="44.19644" lon="3.51923">
        <ele>1061</ele>
        <time>2009-07-09T11:49:11Z</time>
      </trkpt>
      <trkpt lat="44.19682" lon="3.5186">
        <ele>1063</ele>
        <time>2009-07-09T11:49:32Z</time>
      </trkpt>
      <trkpt lat="44.19694" lon="3.51822">
        <ele>1066</ele>
        <time>2009-07-09T11:49:43Z</time>
      </trkpt>
      <trkpt lat="44.19708" lon="3.5177">
        <ele>1069</ele>
        <time>2009-07-09T11:49:57Z</time>
      </trkpt>
      <trkpt lat="44.19738" lon="3.51717">
        <ele>1071</ele>
        <time>2009-07-09T11:50:14Z</time>
      </trkpt>
      <trkpt lat="44.19795" lon="3.5169">
        <ele>1071</ele>
        <time>2009-07-09T11:50:32Z</time>
      </trkpt>
      <trkpt lat="44.19831" lon="3.51676">
        <ele>1067</ele>
        <time>2009-07-09T11:50:39Z</time>
      </trkpt>
      <trkpt lat="44.19843" lon="3.51671">
        <ele>1066</ele>
        <time>2009-07-09T11:50:41Z</time>
      </trkpt>
      <trkpt lat="44.1987" lon="3.5166">
        <ele>1063</ele>
        <time>2009-07-09T11:50:45Z</time>
      </trkpt>
      <trkpt lat="44.19898" lon="3.51647">
        <ele>1060</ele>
        <time>2009-07-09T11:50:49Z</time>
      </trkpt>
      <trkpt lat="44.19913" lon="3.51641">
        <ele>1060</ele>
        <time>2009-07-09T11:50:51Z</time>
      </trkpt>
      <trkpt lat="44.1992" lon="3.51638">
        <ele>1059</ele>
        <time>2009-07-09T11:50:52Z</time>
      </trkpt>
      <trkpt lat="44.19935" lon="3.51639">
        <ele>1059</ele>
        <time>2009-07-09T11:50:54Z</time>
      </trkpt>
      <trkpt lat="44.19961" lon="3.51634">
        <ele>1058</ele>
        <time>2009-07-09T11:50:58Z</time>
      </trkpt>
      <trkpt lat="44.20018" lon="3.51613">
        <ele>1059</ele>
        <time>2009-07-09T11:51:11Z</time>
      </trkpt>
      <trkpt lat="44.20063" lon="3.51606">
        <ele>1060</ele>
        <time>2009-07-09T11:51:25Z</time>
      </trkpt>
      <trkpt lat="44.20063" lon="3.51606">
        <ele>1060</ele>
        <time>2009-07-09T11:51:44Z</time>
      </trkpt>
      <trkpt lat="44.20062" lon="3.51607">
        <ele>1060</ele>
        <time>2009-07-09T11:52:32Z</time>
      </trkpt>
      <trkpt lat="44.20079" lon="3.51609">
        <ele>1061</ele>
        <time>2009-07-09T11:52:46Z</time>
      </trkpt>
      <trkpt lat="44.20127" lon="3.51606">
        <ele>1061</ele>
        <time>2009-07-09T11:53:02Z</time>
      </trkpt>
      <trkpt lat="44.20176" lon="3.51595">
        <ele>1057</ele>
        <time>2009-07-09T11:53:18Z</time>
      </trkpt>
      <trkpt lat="44.20208" lon="3.51576">
        <ele>1057</ele>
        <time>2009-07-09T11:53:30Z</time>
      </trkpt>
      <trkpt lat="44.20213" lon="3.51575">
        <ele>1057</ele>
        <time>2009-07-09T11:53:36Z</time>
      </trkpt>
      <trkpt lat="44.20252" lon="3.51558">
        <ele>1054</ele>
        <time>2009-07-09T11:53:50Z</time>
      </trkpt>
      <trkpt lat="44.2027" lon="3.51549">
        <ele>1052</ele>
        <time>2009-07-09T11:53:54Z</time>
      </trkpt>
      <trkpt lat="44.20286" lon="3.51541">
        <ele>1051</ele>
        <time>2009-07-09T11:53:57Z</time>
      </trkpt>
      <trkpt lat="44.20312" lon="3.51533">
        <ele>1050</ele>
        <time>2009-07-09T11:54:02Z</time>
      </trkpt>
      <trkpt lat="44.20341" lon="3.51534">
        <ele>1047</ele>
        <time>2009-07-09T11:54:09Z</time>
      </trkpt>
      <trkpt lat="44.20365" lon="3.5153">
        <ele>1044</ele>
        <time>2009-07-09T11:54:15Z</time>
      </trkpt>
      <trkpt lat="44.20369" lon="3.51529">
        <ele>1043</ele>
        <time>2009-07-09T11:54:16Z</time>
      </trkpt>
      <trkpt lat="44.20378" lon="3.51525">
        <ele>1043</ele>
        <time>2009-07-09T11:54:18Z</time>
      </trkpt>
      <trkpt lat="44.20397" lon="3.51516">
        <ele>1042</ele>
        <time>2009-07-09T11:54:27Z</time>
      </trkpt>
      <trkpt lat="44.20398" lon="3.51515">
        <ele>1042</ele>
        <time>2009-07-09T11:54:33Z</time>
      </trkpt>
      <trkpt lat="44.20403" lon="3.51512">
        <ele>1041</ele>
        <time>2009-07-09T11:54:37Z</time>
      </trkpt>
      <trkpt lat="44.20406" lon="3.51507">
        <ele>1041</ele>
        <time>2009-07-09T11:54:39Z</time>
      </trkpt>
      <trkpt lat="44.20437" lon="3.51474">
        <ele>1040</ele>
        <time>2009-07-09T11:54:52Z</time>
      </trkpt>
      <trkpt lat="44.20463" lon="3.51442">
        <ele>1042</ele>
        <time>2009-07-09T11:55:06Z</time>
      </trkpt>
      <trkpt lat="44.20487" lon="3.51418">
        <ele>1045</ele>
        <time>2009-07-09T11:55:20Z</time>
      </trkpt>
      <trkpt lat="44.20492" lon="3.5141">
        <ele>1046</ele>
        <time>2009-07-09T11:55:24Z</time>
      </trkpt>
      <trkpt lat="44.20512" lon="3.51368">
        <ele>1049</ele>
        <time>2009-07-09T11:55:42Z</time>
      </trkpt>
      <trkpt lat="44.20525" lon="3.51325">
        <ele>1051</ele>
        <time>2009-07-09T11:56:00Z</time>
      </trkpt>
      <trkpt lat="44.20529" lon="3.51313">
        <ele>1053</ele>
        <time>2009-07-09T11:56:05Z</time>
      </trkpt>
      <trkpt lat="44.20534" lon="3.51288">
        <ele>1056</ele>
        <time>2009-07-09T11:56:15Z</time>
      </trkpt>
      <trkpt lat="44.20546" lon="3.51238">
        <ele>1058</ele>
        <time>2009-07-09T11:56:34Z</time>
      </trkpt>
      <trkpt lat="44.20562" lon="3.51191">
        <ele>1058</ele>
        <time>2009-07-09T11:56:53Z</time>
      </trkpt>
      <trkpt lat="44.20577" lon="3.51149">
        <ele>1062</ele>
        <time>2009-07-09T11:57:10Z</time>
      </trkpt>
      <trkpt lat="44.206" lon="3.51099">
        <ele>1063</ele>
        <time>2009-07-09T11:57:30Z</time>
      </trkpt>
      <trkpt lat="44.20618" lon="3.51074">
        <ele>1067</ele>
        <time>2009-07-09T11:57:42Z</time>
      </trkpt>
      <trkpt lat="44.20621" lon="3.5107">
        <ele>1068</ele>
        <time>2009-07-09T11:57:44Z</time>
      </trkpt>
      <trkpt lat="44.20651" lon="3.51048">
        <ele>1071</ele>
        <time>2009-07-09T11:58:00Z</time>
      </trkpt>
      <trkpt lat="44.20699" lon="3.5104">
        <ele>1072</ele>
        <time>2009-07-09T11:58:21Z</time>
      </trkpt>
      <trkpt lat="44.20728" lon="3.51034">
        <ele>1073</ele>
        <time>2009-07-09T11:58:33Z</time>
      </trkpt>
      <trkpt lat="44.20763" lon="3.51018">
        <ele>1076</ele>
        <time>2009-07-09T11:58:48Z</time>
      </trkpt>
      <trkpt lat="44.2079" lon="3.50993">
        <ele>1079</ele>
        <time>2009-07-09T11:59:01Z</time>
      </trkpt>
      <trkpt lat="44.20842" lon="3.50961">
        <ele>1078</ele>
        <time>2009-07-09T11:59:23Z</time>
      </trkpt>
      <trkpt lat="44.20854" lon="3.50951">
        <ele>1078</ele>
        <time>2009-07-09T11:59:28Z</time>
      </trkpt>
      <trkpt lat="44.20848" lon="3.50952">
        <ele>1080</ele>
        <time>2009-07-09T11:59:34Z</time>
      </trkpt>
      <trkpt lat="44.20817" lon="3.50968">
        <ele>1081</ele>
        <time>2009-07-09T11:59:49Z</time>
      </trkpt>
      <trkpt lat="44.20822" lon="3.51002">
        <ele>1080</ele>
        <time>2009-07-09T12:00:01Z</time>
      </trkpt>
      <trkpt lat="44.20838" lon="3.5103">
        <ele>1078</ele>
        <time>2009-07-09T12:00:09Z</time>
      </trkpt>
      <trkpt lat="44.20864" lon="3.51041">
        <ele>1075</ele>
        <time>2009-07-09T12:00:15Z</time>
      </trkpt>
      <trkpt lat="44.2091" lon="3.51053">
        <ele>1073</ele>
        <time>2009-07-09T12:00:25Z</time>
      </trkpt>
      <trkpt lat="44.2092" lon="3.51055">
        <ele>1072</ele>
        <time>2009-07-09T12:00:27Z</time>
      </trkpt>
      <trkpt lat="44.20929" lon="3.51058">
        <ele>1072</ele>
        <time>2009-07-09T12:00:29Z</time>
      </trkpt>
      <trkpt lat="44.20989" lon="3.51068">
        <ele>1067</ele>
        <time>2009-07-09T12:00:40Z</time>
      </trkpt>
      <trkpt lat="44.21" lon="3.51071">
        <ele>1066</ele>
        <time>2009-07-09T12:00:42Z</time>
      </trkpt>
      <trkpt lat="44.21016" lon="3.51075">
        <ele>1067</ele>
        <time>2009-07-09T12:00:45Z</time>
      </trkpt>
      <trkpt lat="44.21026" lon="3.5108">
        <ele>1067</ele>
        <time>2009-07-09T12:00:47Z</time>
      </trkpt>
      <trkpt lat="44.21055" lon="3.51084">
        <ele>1064</ele>
        <time>2009-07-09T12:00:53Z</time>
      </trkpt>
      <trkpt lat="44.2112" lon="3.5111">
        <ele>1066</ele>
        <time>2009-07-09T12:01:09Z</time>
      </trkpt>
      <trkpt lat="44.21171" lon="3.51126">
        <ele>1067</ele>
        <time>2009-07-09T12:01:23Z</time>
      </trkpt>
      <trkpt lat="44.21198" lon="3.51139">
        <ele>1064</ele>
        <time>2009-07-09T12:01:31Z</time>
      </trkpt>
      <trkpt lat="44.21201" lon="3.51141">
        <ele>1068</ele>
        <time>2009-07-09T12:01:32Z</time>
      </trkpt>
      <trkpt lat="44.21223" lon="3.51157">
        <ele>1064</ele>
        <time>2009-07-09T12:01:39Z</time>
      </trkpt>
      <trkpt lat="44.21248" lon="3.51174">
        <ele>1064</ele>
        <time>2009-07-09T12:01:46Z</time>
      </trkpt>
      <trkpt lat="44.21299" lon="3.51221">
        <ele>1064</ele>
        <time>2009-07-09T12:02:03Z</time>
      </trkpt>
      <trkpt lat="44.21326" lon="3.5124">
        <ele>1064</ele>
        <time>2009-07-09T12:02:16Z</time>
      </trkpt>
      <trkpt lat="44.21326" lon="3.51241">
        <ele>1065</ele>
        <time>2009-07-09T12:02:27Z</time>
      </trkpt>
      <trkpt lat="44.21325" lon="3.51238">
        <ele>1065</ele>
        <time>2009-07-09T12:02:30Z</time>
      </trkpt>
      <trkpt lat="44.21325" lon="3.51234">
        <ele>1064</ele>
        <time>2009-07-09T12:02:34Z</time>
      </trkpt>
      <trkpt lat="44.21327" lon="3.51232">
        <ele>1064</ele>
        <time>2009-07-09T12:02:49Z</time>
      </trkpt>
      <trkpt lat="44.21346" lon="3.51226">
        <ele>1064</ele>
        <time>2009-07-09T12:03:10Z</time>
      </trkpt>
      <trkpt lat="44.2136" lon="3.51222">
        <ele>1065</ele>
        <time>2009-07-09T12:03:21Z</time>
      </trkpt>
      <trkpt lat="44.21365" lon="3.51223">
        <ele>1066</ele>
        <time>2009-07-09T12:03:26Z</time>
      </trkpt>
      <trkpt lat="44.21381" lon="3.51226">
        <ele>1069</ele>
        <time>2009-07-09T12:03:44Z</time>
      </trkpt>
      <trkpt lat="44.21389" lon="3.51225">
        <ele>1071</ele>
        <time>2009-07-09T12:03:53Z</time>
      </trkpt>
      <trkpt lat="44.21402" lon="3.51226">
        <ele>1072</ele>
        <time>2009-07-09T12:04:10Z</time>
      </trkpt>
      <trkpt lat="44.21404" lon="3.51229">
        <ele>1072</ele>
        <time>2009-07-09T12:04:19Z</time>
      </trkpt>
      <trkpt lat="44.21406" lon="3.51232">
        <ele>1074</ele>
        <time>2009-07-09T12:04:22Z</time>
      </trkpt>
      <trkpt lat="44.21415" lon="3.51256">
        <ele>1075</ele>
        <time>2009-07-09T12:04:39Z</time>
      </trkpt>
      <trkpt lat="44.21419" lon="3.51257">
        <ele>1075</ele>
        <time>2009-07-09T12:04:53Z</time>
      </trkpt>
      <trkpt lat="44.2142" lon="3.51257">
        <ele>1074</ele>
        <time>2009-07-09T12:04:57Z</time>
      </trkpt>
      <trkpt lat="44.2145" lon="3.51254">
        <ele>1078</ele>
        <time>2009-07-09T12:05:15Z</time>
      </trkpt>
      <trkpt lat="44.21474" lon="3.51257">
        <ele>1081</ele>
        <time>2009-07-09T12:05:29Z</time>
      </trkpt>
      <trkpt lat="44.21494" lon="3.51247">
        <ele>1080</ele>
        <time>2009-07-09T12:05:43Z</time>
      </trkpt>
      <trkpt lat="44.21507" lon="3.51248">
        <ele>1082</ele>
        <time>2009-07-09T12:05:52Z</time>
      </trkpt>
      <trkpt lat="44.21523" lon="3.51249">
        <ele>1086</ele>
        <time>2009-07-09T12:06:03Z</time>
      </trkpt>
      <trkpt lat="44.21542" lon="3.5125">
        <ele>1089</ele>
        <time>2009-07-09T12:06:16Z</time>
      </trkpt>
      <trkpt lat="44.21544" lon="3.51251">
        <ele>1089</ele>
        <time>2009-07-09T12:06:17Z</time>
      </trkpt>
      <trkpt lat="44.21566" lon="3.51254">
        <ele>1093</ele>
        <time>2009-07-09T12:06:32Z</time>
      </trkpt>
      <trkpt lat="44.21594" lon="3.51256">
        <ele>1093</ele>
        <time>2009-07-09T12:06:49Z</time>
      </trkpt>
      <trkpt lat="44.21632" lon="3.51256">
        <ele>1094</ele>
        <time>2009-07-09T12:07:06Z</time>
      </trkpt>
      <trkpt lat="44.21648" lon="3.51255">
        <ele>1094</ele>
        <time>2009-07-09T12:07:13Z</time>
      </trkpt>
      <trkpt lat="44.21657" lon="3.51261">
        <ele>1094</ele>
        <time>2009-07-09T12:07:24Z</time>
      </trkpt>
      <trkpt lat="44.21656" lon="3.51261">
        <ele>1094</ele>
        <time>2009-07-09T12:07:48Z</time>
      </trkpt>
      <trkpt lat="44.21656" lon="3.51264">
        <ele>1094</ele>
        <time>2009-07-09T12:08:11Z</time>
      </trkpt>
      <trkpt lat="44.21655" lon="3.51261">
        <ele>1094</ele>
        <time>2009-07-09T12:12:24Z</time>
      </trkpt>
      <trkpt lat="44.21661" lon="3.51265">
        <ele>1093</ele>
        <time>2009-07-09T12:12:28Z</time>
      </trkpt>
      <trkpt lat="44.21696" lon="3.51294">
        <ele>1094</ele>
        <time>2009-07-09T12:12:43Z</time>
      </trkpt>
      <trkpt lat="44.21745" lon="3.51328">
        <ele>1094</ele>
        <time>2009-07-09T12:13:00Z</time>
      </trkpt>
      <trkpt lat="44.21802" lon="3.51384">
        <ele>1093</ele>
        <time>2009-07-09T12:13:19Z</time>
      </trkpt>
      <trkpt lat="44.21858" lon="3.51437">
        <ele>1093</ele>
        <time>2009-07-09T12:13:34Z</time>
      </trkpt>
      <trkpt lat="44.21871" lon="3.51442">
        <ele>1092</ele>
        <time>2009-07-09T12:13:37Z</time>
      </trkpt>
      <trkpt lat="44.21949" lon="3.51446">
        <ele>1092</ele>
        <time>2009-07-09T12:13:56Z</time>
      </trkpt>
      <trkpt lat="44.22038" lon="3.51467">
        <ele>1091</ele>
        <time>2009-07-09T12:14:16Z</time>
      </trkpt>
      <trkpt lat="44.2207" lon="3.51474">
        <ele>1091</ele>
        <time>2009-07-09T12:14:23Z</time>
      </trkpt>
      <trkpt lat="44.2211" lon="3.51503">
        <ele>1090</ele>
        <time>2009-07-09T12:14:33Z</time>
      </trkpt>
      <trkpt lat="44.22128" lon="3.51509">
        <ele>1090</ele>
        <time>2009-07-09T12:14:37Z</time>
      </trkpt>
      <trkpt lat="44.22144" lon="3.51517">
        <ele>1089</ele>
        <time>2009-07-09T12:14:41Z</time>
      </trkpt>
      <trkpt lat="44.22209" lon="3.51579">
        <ele>1088</ele>
        <time>2009-07-09T12:14:58Z</time>
      </trkpt>
      <trkpt lat="44.22279" lon="3.51659">
        <ele>1087</ele>
        <time>2009-07-09T12:15:16Z</time>
      </trkpt>
      <trkpt lat="44.2231" lon="3.517">
        <ele>1085</ele>
        <time>2009-07-09T12:15:23Z</time>
      </trkpt>
      <trkpt lat="44.22374" lon="3.51823">
        <ele>1084</ele>
        <time>2009-07-09T12:15:41Z</time>
      </trkpt>
      <trkpt lat="44.22435" lon="3.51917">
        <ele>1083</ele>
        <time>2009-07-09T12:15:58Z</time>
      </trkpt>
      <trkpt lat="44.22526" lon="3.52051">
        <ele>1083</ele>
        <time>2009-07-09T12:16:21Z</time>
      </trkpt>
      <trkpt lat="44.22605" lon="3.52166">
        <ele>1082</ele>
        <time>2009-07-09T12:16:40Z</time>
      </trkpt>
      <trkpt lat="44.22666" lon="3.52267">
        <ele>1082</ele>
        <time>2009-07-09T12:16:57Z</time>
      </trkpt>
      <trkpt lat="44.22716" lon="3.52348">
        <ele>1085</ele>
        <time>2009-07-09T12:17:13Z</time>
      </trkpt>
      <trkpt lat="44.22733" lon="3.52377">
        <ele>1088</ele>
        <time>2009-07-09T12:17:21Z</time>
      </trkpt>
      <trkpt lat="44.22769" lon="3.52434">
        <ele>1091</ele>
        <time>2009-07-09T12:17:40Z</time>
      </trkpt>
      <trkpt lat="44.22783" lon="3.52464">
        <ele>1093</ele>
        <time>2009-07-09T12:17:54Z</time>
      </trkpt>
      <trkpt lat="44.22783" lon="3.52496">
        <ele>1096</ele>
        <time>2009-07-09T12:18:08Z</time>
      </trkpt>
      <trkpt lat="44.22803" lon="3.52517">
        <ele>1098</ele>
        <time>2009-07-09T12:18:21Z</time>
      </trkpt>
      <trkpt lat="44.22805" lon="3.52516">
        <ele>1097</ele>
        <time>2009-07-09T12:18:25Z</time>
      </trkpt>
      <trkpt lat="44.22797" lon="3.52507">
        <ele>1096</ele>
        <time>2009-07-09T12:18:37Z</time>
      </trkpt>
      <trkpt lat="44.22785" lon="3.52495">
        <ele>1095</ele>
        <time>2009-07-09T12:18:52Z</time>
      </trkpt>
      <trkpt lat="44.22769" lon="3.52502">
        <ele>1095</ele>
        <time>2009-07-09T12:18:58Z</time>
      </trkpt>
      <trkpt lat="44.22761" lon="3.52518">
        <ele>1099</ele>
        <time>2009-07-09T12:19:04Z</time>
      </trkpt>
      <trkpt lat="44.22744" lon="3.5257">
        <ele>1102</ele>
        <time>2009-07-09T12:19:22Z</time>
      </trkpt>
      <trkpt lat="44.22749" lon="3.52596">
        <ele>1104</ele>
        <time>2009-07-09T12:19:32Z</time>
      </trkpt>
      <trkpt lat="44.22763" lon="3.52619">
        <ele>1108</ele>
        <time>2009-07-09T12:19:43Z</time>
      </trkpt>
      <trkpt lat="44.22765" lon="3.52623">
        <ele>1108</ele>
        <time>2009-07-09T12:19:45Z</time>
      </trkpt>
      <trkpt lat="44.22795" lon="3.52636">
        <ele>1108</ele>
        <time>2009-07-09T12:20:01Z</time>
      </trkpt>
      <trkpt lat="44.22809" lon="3.52633">
        <ele>1110</ele>
        <time>2009-07-09T12:20:08Z</time>
      </trkpt>
      <trkpt lat="44.22844" lon="3.52635">
        <ele>1112</ele>
        <time>2009-07-09T12:20:25Z</time>
      </trkpt>
      <trkpt lat="44.22859" lon="3.5265">
        <ele>1113</ele>
        <time>2009-07-09T12:20:33Z</time>
      </trkpt>
      <trkpt lat="44.22884" lon="3.52686">
        <ele>1114</ele>
        <time>2009-07-09T12:20:49Z</time>
      </trkpt>
      <trkpt lat="44.22894" lon="3.52698">
        <ele>1116</ele>
        <time>2009-07-09T12:20:55Z</time>
      </trkpt>
      <trkpt lat="44.2291" lon="3.52701">
        <ele>1118</ele>
        <time>2009-07-09T12:21:03Z</time>
      </trkpt>
      <trkpt lat="44.2293" lon="3.52702">
        <ele>1120</ele>
        <time>2009-07-09T12:21:17Z</time>
      </trkpt>
      <trkpt lat="44.2293" lon="3.52704">
        <ele>1120</ele>
        <time>2009-07-09T12:21:39Z</time>
      </trkpt>
      <trkpt lat="44.2293" lon="3.52704">
        <ele>1119</ele>
        <time>2009-07-09T12:22:17Z</time>
      </trkpt>
      <trkpt lat="44.22929" lon="3.52705">
        <ele>1119</ele>
        <time>2009-07-09T12:23:07Z</time>
      </trkpt>
      <trkpt lat="44.2293" lon="3.52705">
        <ele>1120</ele>
        <time>2009-07-09T12:23:27Z</time>
      </trkpt>
      <trkpt lat="44.2293" lon="3.52705">
        <ele>1119</ele>
        <time>2009-07-09T12:23:48Z</time>
      </trkpt>
      <trkpt lat="44.22936" lon="3.52707">
        <ele>1118</ele>
        <time>2009-07-09T12:23:53Z</time>
      </trkpt>
      <trkpt lat="44.22944" lon="3.52702">
        <ele>1118</ele>
        <time>2009-07-09T12:23:58Z</time>
      </trkpt>
      <trkpt lat="44.22974" lon="3.52665">
        <ele>1118</ele>
        <time>2009-07-09T12:24:15Z</time>
      </trkpt>
      <trkpt lat="44.22963" lon="3.52631">
        <ele>1119</ele>
        <time>2009-07-09T12:24:26Z</time>
      </trkpt>
      <trkpt lat="44.22944" lon="3.52607">
        <ele>1122</ele>
        <time>2009-07-09T12:24:36Z</time>
      </trkpt>
      <trkpt lat="44.22943" lon="3.52572">
        <ele>1121</ele>
        <time>2009-07-09T12:24:47Z</time>
      </trkpt>
      <trkpt lat="44.22944" lon="3.5257">
        <ele>1121</ele>
        <time>2009-07-09T12:24:48Z</time>
      </trkpt>
      <trkpt lat="44.22952" lon="3.52557">
        <ele>1122</ele>
        <time>2009-07-09T12:24:55Z</time>
      </trkpt>
      <trkpt lat="44.22952" lon="3.52557">
        <ele>1124</ele>
        <time>2009-07-09T12:25:52Z</time>
      </trkpt>
      <trkpt lat="44.22952" lon="3.52556">
        <ele>1125</ele>
        <time>2009-07-09T12:26:18Z</time>
      </trkpt>
      <trkpt lat="44.22952" lon="3.52556">
        <ele>1125</ele>
        <time>2009-07-09T12:26:20Z</time>
      </trkpt>
      <trkpt lat="44.22956" lon="3.52552">
        <ele>1125</ele>
        <time>2009-07-09T12:26:24Z</time>
      </trkpt>
      <trkpt lat="44.22997" lon="3.52524">
        <ele>1127</ele>
        <time>2009-07-09T12:26:42Z</time>
      </trkpt>
      <trkpt lat="44.23032" lon="3.52496">
        <ele>1129</ele>
        <time>2009-07-09T12:26:58Z</time>
      </trkpt>
      <trkpt lat="44.23056" lon="3.5248">
        <ele>1130</ele>
        <time>2009-07-09T12:27:08Z</time>
      </trkpt>
      <trkpt lat="44.231" lon="3.52455">
        <ele>1132</ele>
        <time>2009-07-09T12:27:27Z</time>
      </trkpt>
      <trkpt lat="44.23143" lon="3.52427">
        <ele>1133</ele>
        <time>2009-07-09T12:27:45Z</time>
      </trkpt>
      <trkpt lat="44.23182" lon="3.52402">
        <ele>1137</ele>
        <time>2009-07-09T12:28:01Z</time>
      </trkpt>
      <trkpt lat="44.23185" lon="3.524">
        <ele>1137</ele>
        <time>2009-07-09T12:28:02Z</time>
      </trkpt>
      <trkpt lat="44.2324" lon="3.52383">
        <ele>1139</ele>
        <time>2009-07-09T12:28:23Z</time>
      </trkpt>
      <trkpt lat="44.23299" lon="3.52358">
        <ele>1138</ele>
        <time>2009-07-09T12:28:42Z</time>
      </trkpt>
      <trkpt lat="44.23344" lon="3.52327">
        <ele>1142</ele>
        <time>2009-07-09T12:28:58Z</time>
      </trkpt>
      <trkpt lat="44.23397" lon="3.52303">
        <ele>1144</ele>
        <time>2009-07-09T12:29:17Z</time>
      </trkpt>
      <trkpt lat="44.23441" lon="3.52274">
        <ele>1145</ele>
        <time>2009-07-09T12:29:34Z</time>
      </trkpt>
      <trkpt lat="44.23477" lon="3.52227">
        <ele>1145</ele>
        <time>2009-07-09T12:29:50Z</time>
      </trkpt>
      <trkpt lat="44.23482" lon="3.52188">
        <ele>1145</ele>
        <time>2009-07-09T12:30:02Z</time>
      </trkpt>
      <trkpt lat="44.23481" lon="3.52188">
        <ele>1145</ele>
        <time>2009-07-09T12:30:25Z</time>
      </trkpt>
      <trkpt lat="44.23475" lon="3.52142">
        <ele>1146</ele>
        <time>2009-07-09T12:30:38Z</time>
      </trkpt>
      <trkpt lat="44.23453" lon="3.52081">
        <ele>1150</ele>
        <time>2009-07-09T12:30:54Z</time>
      </trkpt>
      <trkpt lat="44.23453" lon="3.52077">
        <ele>1150</ele>
        <time>2009-07-09T12:30:55Z</time>
      </trkpt>
      <trkpt lat="44.23459" lon="3.52064">
        <ele>1150</ele>
        <time>2009-07-09T12:31:00Z</time>
      </trkpt>
      <trkpt lat="44.23463" lon="3.52065">
        <ele>1152</ele>
        <time>2009-07-09T12:31:02Z</time>
      </trkpt>
      <trkpt lat="44.23467" lon="3.52068">
        <ele>1152</ele>
        <time>2009-07-09T12:31:04Z</time>
      </trkpt>
      <trkpt lat="44.23482" lon="3.52081">
        <ele>1154</ele>
        <time>2009-07-09T12:31:11Z</time>
      </trkpt>
      <trkpt lat="44.23521" lon="3.52087">
        <ele>1157</ele>
        <time>2009-07-09T12:31:27Z</time>
      </trkpt>
      <trkpt lat="44.2354" lon="3.52091">
        <ele>1160</ele>
        <time>2009-07-09T12:31:35Z</time>
      </trkpt>
      <trkpt lat="44.23584" lon="3.52096">
        <ele>1160</ele>
        <time>2009-07-09T12:31:52Z</time>
      </trkpt>
      <trkpt lat="44.23631" lon="3.52068">
        <ele>1160</ele>
        <time>2009-07-09T12:32:09Z</time>
      </trkpt>
      <trkpt lat="44.23677" lon="3.52025">
        <ele>1161</ele>
        <time>2009-07-09T12:32:26Z</time>
      </trkpt>
      <trkpt lat="44.23726" lon="3.51995">
        <ele>1162</ele>
        <time>2009-07-09T12:32:41Z</time>
      </trkpt>
      <trkpt lat="44.23775" lon="3.52023">
        <ele>1163</ele>
        <time>2009-07-09T12:32:55Z</time>
      </trkpt>
      <trkpt lat="44.2383" lon="3.52051">
        <ele>1161</ele>
        <time>2009-07-09T12:33:09Z</time>
      </trkpt>
      <trkpt lat="44.23839" lon="3.52054">
        <ele>1162</ele>
        <time>2009-07-09T12:33:11Z</time>
      </trkpt>
      <trkpt lat="44.23894" lon="3.52088">
        <ele>1163</ele>
        <time>2009-07-09T12:33:26Z</time>
      </trkpt>
      <trkpt lat="44.23915" lon="3.52124">
        <ele>1163</ele>
        <time>2009-07-09T12:33:35Z</time>
      </trkpt>
      <trkpt lat="44.23959" lon="3.52153">
        <ele>1164</ele>
        <time>2009-07-09T12:33:49Z</time>
      </trkpt>
      <trkpt lat="44.23976" lon="3.52151">
        <ele>1164</ele>
        <time>2009-07-09T12:34:01Z</time>
      </trkpt>
      <trkpt lat="44.23976" lon="3.52151">
        <ele>1165</ele>
        <time>2009-07-09T12:34:25Z</time>
      </trkpt>
      <trkpt lat="44.23976" lon="3.52151">
        <ele>1165</ele>
        <time>2009-07-09T12:34:47Z</time>
      </trkpt>
      <trkpt lat="44.2399" lon="3.52147">
        <ele>1164</ele>
        <time>2009-07-09T12:35:13Z</time>
      </trkpt>
      <trkpt lat="44.24059" lon="3.52137">
        <ele>1161</ele>
        <time>2009-07-09T12:35:30Z</time>
      </trkpt>
      <trkpt lat="44.24112" lon="3.52144">
        <ele>1161</ele>
        <time>2009-07-09T12:35:46Z</time>
      </trkpt>
      <trkpt lat="44.24131" lon="3.52148">
        <ele>1158</ele>
        <time>2009-07-09T12:35:51Z</time>
      </trkpt>
      <trkpt lat="44.24141" lon="3.5215">
        <ele>1157</ele>
        <time>2009-07-09T12:35:53Z</time>
      </trkpt>
      <trkpt lat="44.24215" lon="3.52164">
        <ele>1154</ele>
        <time>2009-07-09T12:36:08Z</time>
      </trkpt>
      <trkpt lat="44.24301" lon="3.52187">
        <ele>1151</ele>
        <time>2009-07-09T12:36:25Z</time>
      </trkpt>
      <trkpt lat="44.24307" lon="3.52188">
        <ele>1151</ele>
        <time>2009-07-09T12:36:26Z</time>
      </trkpt>
      <trkpt lat="44.24335" lon="3.52197">
        <ele>1149</ele>
        <time>2009-07-09T12:36:31Z</time>
      </trkpt>
      <trkpt lat="44.24351" lon="3.52204">
        <ele>1146</ele>
        <time>2009-07-09T12:36:34Z</time>
      </trkpt>
      <trkpt lat="44.24356" lon="3.52206">
        <ele>1146</ele>
        <time>2009-07-09T12:36:35Z</time>
      </trkpt>
      <trkpt lat="44.2438" lon="3.52216">
        <ele>1143</ele>
        <time>2009-07-09T12:36:39Z</time>
      </trkpt>
      <trkpt lat="44.24401" lon="3.52224">
        <ele>1138</ele>
        <time>2009-07-09T12:36:42Z</time>
      </trkpt>
      <trkpt lat="44.24409" lon="3.52227">
        <ele>1138</ele>
        <time>2009-07-09T12:36:43Z</time>
      </trkpt>
      <trkpt lat="44.24484" lon="3.52251">
        <ele>1137</ele>
        <time>2009-07-09T12:36:53Z</time>
      </trkpt>
      <trkpt lat="44.24574" lon="3.52251">
        <ele>1134</ele>
        <time>2009-07-09T12:37:06Z</time>
      </trkpt>
      <trkpt lat="44.2458" lon="3.5225">
        <ele>1134</ele>
        <time>2009-07-09T12:37:07Z</time>
      </trkpt>
      <trkpt lat="44.24594" lon="3.52249">
        <ele>1132</ele>
        <time>2009-07-09T12:37:09Z</time>
      </trkpt>
      <trkpt lat="44.24623" lon="3.52258">
        <ele>1130</ele>
        <time>2009-07-09T12:37:13Z</time>
      </trkpt>
      <trkpt lat="44.24644" lon="3.52274">
        <ele>1129</ele>
        <time>2009-07-09T12:37:16Z</time>
      </trkpt>
      <trkpt lat="44.24718" lon="3.52296">
        <ele>1127</ele>
        <time>2009-07-09T12:37:26Z</time>
      </trkpt>
      <trkpt lat="44.24742" lon="3.52299">
        <ele>1126</ele>
        <time>2009-07-09T12:37:30Z</time>
      </trkpt>
      <trkpt lat="44.24771" lon="3.52303">
        <ele>1122</ele>
        <time>2009-07-09T12:37:34Z</time>
      </trkpt>
      <trkpt lat="44.2487" lon="3.5235">
        <ele>1120</ele>
        <time>2009-07-09T12:37:47Z</time>
      </trkpt>
      <trkpt lat="44.24877" lon="3.52354">
        <ele>1119</ele>
        <time>2009-07-09T12:37:48Z</time>
      </trkpt>
      <trkpt lat="44.24905" lon="3.52352">
        <ele>1116</ele>
        <time>2009-07-09T12:37:52Z</time>
      </trkpt>
      <trkpt lat="44.2491" lon="3.52348">
        <ele>1117</ele>
        <time>2009-07-09T12:37:53Z</time>
      </trkpt>
      <trkpt lat="44.24938" lon="3.52325">
        <ele>1121</ele>
        <time>2009-07-09T12:37:59Z</time>
      </trkpt>
      <trkpt lat="44.24961" lon="3.52325">
        <ele>1123</ele>
        <time>2009-07-09T12:38:05Z</time>
      </trkpt>
      <trkpt lat="44.25004" lon="3.52333">
        <ele>1126</ele>
        <time>2009-07-09T12:38:17Z</time>
      </trkpt>
      <trkpt lat="44.25024" lon="3.52334">
        <ele>1128</ele>
        <time>2009-07-09T12:38:24Z</time>
      </trkpt>
      <trkpt lat="44.25057" lon="3.52322">
        <ele>1130</ele>
        <time>2009-07-09T12:38:37Z</time>
      </trkpt>
      <trkpt lat="44.25067" lon="3.5232">
        <ele>1130</ele>
        <time>2009-07-09T12:38:41Z</time>
      </trkpt>
      <trkpt lat="44.25092" lon="3.52322">
        <ele>1132</ele>
        <time>2009-07-09T12:38:56Z</time>
      </trkpt>
      <trkpt lat="44.25123" lon="3.5234">
        <ele>1131</ele>
        <time>2009-07-09T12:39:11Z</time>
      </trkpt>
      <trkpt lat="44.25161" lon="3.52367">
        <ele>1129</ele>
        <time>2009-07-09T12:39:27Z</time>
      </trkpt>
      <trkpt lat="44.25218" lon="3.524">
        <ele>1128</ele>
        <time>2009-07-09T12:39:39Z</time>
      </trkpt>
      <trkpt lat="44.25265" lon="3.52426">
        <ele>1128</ele>
        <time>2009-07-09T12:39:53Z</time>
      </trkpt>
      <trkpt lat="44.25278" lon="3.5244">
        <ele>1130</ele>
        <time>2009-07-09T12:39:58Z</time>
      </trkpt>
      <trkpt lat="44.25327" lon="3.52494">
        <ele>1131</ele>
        <time>2009-07-09T12:40:15Z</time>
      </trkpt>
      <trkpt lat="44.25372" lon="3.52533">
        <ele>1132</ele>
        <time>2009-07-09T12:40:30Z</time>
      </trkpt>
      <trkpt lat="44.2539" lon="3.52541">
        <ele>1129</ele>
        <time>2009-07-09T12:40:34Z</time>
      </trkpt>
      <trkpt lat="44.25395" lon="3.52544">
        <ele>1129</ele>
        <time>2009-07-09T12:40:35Z</time>
      </trkpt>
      <trkpt lat="44.25404" lon="3.52551">
        <ele>1129</ele>
        <time>2009-07-09T12:40:37Z</time>
      </trkpt>
      <trkpt lat="44.25429" lon="3.52582">
        <ele>1131</ele>
        <time>2009-07-09T12:40:45Z</time>
      </trkpt>
      <trkpt lat="44.2548" lon="3.5263">
        <ele>1132</ele>
        <time>2009-07-09T12:41:02Z</time>
      </trkpt>
      <trkpt lat="44.25499" lon="3.5264">
        <ele>1132</ele>
        <time>2009-07-09T12:41:08Z</time>
      </trkpt>
      <trkpt lat="44.25508" lon="3.52652">
        <ele>1131</ele>
        <time>2009-07-09T12:41:11Z</time>
      </trkpt>
      <trkpt lat="44.25512" lon="3.52656">
        <ele>1130</ele>
        <time>2009-07-09T12:41:12Z</time>
      </trkpt>
      <trkpt lat="44.25547" lon="3.5269">
        <ele>1128</ele>
        <time>2009-07-09T12:41:20Z</time>
      </trkpt>
      <trkpt lat="44.25559" lon="3.52709">
        <ele>1126</ele>
        <time>2009-07-09T12:41:23Z</time>
      </trkpt>
      <trkpt lat="44.25567" lon="3.52732">
        <ele>1125</ele>
        <time>2009-07-09T12:41:26Z</time>
      </trkpt>
      <trkpt lat="44.25576" lon="3.52774">
        <ele>1124</ele>
        <time>2009-07-09T12:41:31Z</time>
      </trkpt>
      <trkpt lat="44.2558" lon="3.52796">
        <ele>1125</ele>
        <time>2009-07-09T12:41:34Z</time>
      </trkpt>
      <trkpt lat="44.25584" lon="3.52809">
        <ele>1124</ele>
        <time>2009-07-09T12:41:38Z</time>
      </trkpt>
      <trkpt lat="44.256" lon="3.52804">
        <ele>1125</ele>
        <time>2009-07-09T12:41:47Z</time>
      </trkpt>
      <trkpt lat="44.256" lon="3.52802">
        <ele>1124</ele>
        <time>2009-07-09T12:42:27Z</time>
      </trkpt>
      <trkpt lat="44.25614" lon="3.52793">
        <ele>1123</ele>
        <time>2009-07-09T12:42:55Z</time>
      </trkpt>
      <trkpt lat="44.25626" lon="3.52781">
        <ele>1119</ele>
        <time>2009-07-09T12:42:58Z</time>
      </trkpt>
      <trkpt lat="44.25641" lon="3.52765">
        <ele>1116</ele>
        <time>2009-07-09T12:43:01Z</time>
      </trkpt>
      <trkpt lat="44.25662" lon="3.52752">
        <ele>1114</ele>
        <time>2009-07-09T12:43:04Z</time>
      </trkpt>
      <trkpt lat="44.25692" lon="3.52742">
        <ele>1112</ele>
        <time>2009-07-09T12:43:08Z</time>
      </trkpt>
      <trkpt lat="44.25714" lon="3.52741">
        <ele>1109</ele>
        <time>2009-07-09T12:43:11Z</time>
      </trkpt>
      <trkpt lat="44.25758" lon="3.52734">
        <ele>1109</ele>
        <time>2009-07-09T12:43:17Z</time>
      </trkpt>
      <trkpt lat="44.25817" lon="3.52732">
        <ele>1108</ele>
        <time>2009-07-09T12:43:26Z</time>
      </trkpt>
      <trkpt lat="44.25828" lon="3.52732">
        <ele>1109</ele>
        <time>2009-07-09T12:43:28Z</time>
      </trkpt>
      <trkpt lat="44.25839" lon="3.52734">
        <ele>1109</ele>
        <time>2009-07-09T12:43:30Z</time>
      </trkpt>
      <trkpt lat="44.25906" lon="3.52764">
        <ele>1108</ele>
        <time>2009-07-09T12:43:45Z</time>
      </trkpt>
      <trkpt lat="44.2591" lon="3.52764">
        <ele>1108</ele>
        <time>2009-07-09T12:43:46Z</time>
      </trkpt>
      <trkpt lat="44.25932" lon="3.5276">
        <ele>1107</ele>
        <time>2009-07-09T12:43:51Z</time>
      </trkpt>
      <trkpt lat="44.25963" lon="3.52758">
        <ele>1107</ele>
        <time>2009-07-09T12:43:58Z</time>
      </trkpt>
      <trkpt lat="44.25994" lon="3.52759">
        <ele>1103</ele>
        <time>2009-07-09T12:44:05Z</time>
      </trkpt>
      <trkpt lat="44.26021" lon="3.52754">
        <ele>1100</ele>
        <time>2009-07-09T12:44:10Z</time>
      </trkpt>
      <trkpt lat="44.26051" lon="3.52741">
        <ele>1098</ele>
        <time>2009-07-09T12:44:14Z</time>
      </trkpt>
      <trkpt lat="44.26091" lon="3.52741">
        <ele>1097</ele>
        <time>2009-07-09T12:44:19Z</time>
      </trkpt>
      <trkpt lat="44.26111" lon="3.52747">
        <ele>1096</ele>
        <time>2009-07-09T12:44:22Z</time>
      </trkpt>
      <trkpt lat="44.26136" lon="3.52766">
        <ele>1096</ele>
        <time>2009-07-09T12:44:27Z</time>
      </trkpt>
      <trkpt lat="44.26149" lon="3.52796">
        <ele>1096</ele>
        <time>2009-07-09T12:44:32Z</time>
      </trkpt>
      <trkpt lat="44.26218" lon="3.52886">
        <ele>1095</ele>
        <time>2009-07-09T12:44:50Z</time>
      </trkpt>
      <trkpt lat="44.26239" lon="3.52912">
        <ele>1093</ele>
        <time>2009-07-09T12:44:55Z</time>
      </trkpt>
      <trkpt lat="44.2626" lon="3.52929">
        <ele>1093</ele>
        <time>2009-07-09T12:44:59Z</time>
      </trkpt>
      <trkpt lat="44.26318" lon="3.52959">
        <ele>1090</ele>
        <time>2009-07-09T12:45:11Z</time>
      </trkpt>
      <trkpt lat="44.26347" lon="3.52983">
        <ele>1089</ele>
        <time>2009-07-09T12:45:17Z</time>
      </trkpt>
      <trkpt lat="44.26366" lon="3.5301">
        <ele>1090</ele>
        <time>2009-07-09T12:45:22Z</time>
      </trkpt>
      <trkpt lat="44.26408" lon="3.53056">
        <ele>1089</ele>
        <time>2009-07-09T12:45:32Z</time>
      </trkpt>
      <trkpt lat="44.26441" lon="3.53045">
        <ele>1087</ele>
        <time>2009-07-09T12:45:40Z</time>
      </trkpt>
      <trkpt lat="44.26453" lon="3.53031">
        <ele>1087</ele>
        <time>2009-07-09T12:45:43Z</time>
      </trkpt>
      <trkpt lat="44.26475" lon="3.53021">
        <ele>1087</ele>
        <time>2009-07-09T12:45:48Z</time>
      </trkpt>
      <trkpt lat="44.2651" lon="3.53027">
        <ele>1089</ele>
        <time>2009-07-09T12:46:00Z</time>
      </trkpt>
      <trkpt lat="44.26511" lon="3.53025">
        <ele>1087</ele>
        <time>2009-07-09T12:46:20Z</time>
      </trkpt>
      <trkpt lat="44.26511" lon="3.53026">
        <ele>1087</ele>
        <time>2009-07-09T12:47:23Z</time>
      </trkpt>
      <trkpt lat="44.2651" lon="3.53026">
        <ele>1088</ele>
        <time>2009-07-09T12:47:57Z</time>
      </trkpt>
      <trkpt lat="44.26525" lon="3.53038">
        <ele>1087</ele>
        <time>2009-07-09T12:48:09Z</time>
      </trkpt>
      <trkpt lat="44.26563" lon="3.53083">
        <ele>1087</ele>
        <time>2009-07-09T12:48:23Z</time>
      </trkpt>
      <trkpt lat="44.26618" lon="3.53143">
        <ele>1087</ele>
        <time>2009-07-09T12:48:41Z</time>
      </trkpt>
      <trkpt lat="44.26647" lon="3.53193">
        <ele>1089</ele>
        <time>2009-07-09T12:48:57Z</time>
      </trkpt>
      <trkpt lat="44.26654" lon="3.53212">
        <ele>1089</ele>
        <time>2009-07-09T12:49:04Z</time>
      </trkpt>
      <trkpt lat="44.26659" lon="3.53207">
        <ele>1090</ele>
        <time>2009-07-09T12:49:09Z</time>
      </trkpt>
      <trkpt lat="44.26669" lon="3.53129">
        <ele>1087</ele>
        <time>2009-07-09T12:49:25Z</time>
      </trkpt>
      <trkpt lat="44.26694" lon="3.53038">
        <ele>1088</ele>
        <time>2009-07-09T12:49:42Z</time>
      </trkpt>
      <trkpt lat="44.26701" lon="3.53">
        <ele>1090</ele>
        <time>2009-07-09T12:49:50Z</time>
      </trkpt>
      <trkpt lat="44.26713" lon="3.52931">
        <ele>1090</ele>
        <time>2009-07-09T12:50:07Z</time>
      </trkpt>
      <trkpt lat="44.26742" lon="3.52846">
        <ele>1091</ele>
        <time>2009-07-09T12:50:28Z</time>
      </trkpt>
      <trkpt lat="44.26772" lon="3.52752">
        <ele>1092</ele>
        <time>2009-07-09T12:50:48Z</time>
      </trkpt>
      <trkpt lat="44.268" lon="3.52663">
        <ele>1091</ele>
        <time>2009-07-09T12:51:05Z</time>
      </trkpt>
      <trkpt lat="44.26804" lon="3.52641">
        <ele>1093</ele>
        <time>2009-07-09T12:51:12Z</time>
      </trkpt>
      <trkpt lat="44.26812" lon="3.52639">
        <ele>1093</ele>
        <time>2009-07-09T12:51:29Z</time>
      </trkpt>
      <trkpt lat="44.26831" lon="3.52597">
        <ele>1094</ele>
        <time>2009-07-09T12:51:45Z</time>
      </trkpt>
      <trkpt lat="44.26858" lon="3.52528">
        <ele>1096</ele>
        <time>2009-07-09T12:52:04Z</time>
      </trkpt>
      <trkpt lat="44.26896" lon="3.52465">
        <ele>1098</ele>
        <time>2009-07-09T12:52:24Z</time>
      </trkpt>
      <trkpt lat="44.26898" lon="3.5245">
        <ele>1100</ele>
        <time>2009-07-09T12:52:28Z</time>
      </trkpt>
      <trkpt lat="44.26898" lon="3.52392">
        <ele>1101</ele>
        <time>2009-07-09T12:52:42Z</time>
      </trkpt>
      <trkpt lat="44.269" lon="3.52375">
        <ele>1101</ele>
        <time>2009-07-09T12:52:46Z</time>
      </trkpt>
      <trkpt lat="44.26899" lon="3.52314">
        <ele>1098</ele>
        <time>2009-07-09T12:52:59Z</time>
      </trkpt>
      <trkpt lat="44.26908" lon="3.52305">
        <ele>1098</ele>
        <time>2009-07-09T12:53:02Z</time>
      </trkpt>
      <trkpt lat="44.26917" lon="3.52272">
        <ele>1096</ele>
        <time>2009-07-09T12:53:09Z</time>
      </trkpt>
      <trkpt lat="44.26916" lon="3.52253">
        <ele>1094</ele>
        <time>2009-07-09T12:53:12Z</time>
      </trkpt>
      <trkpt lat="44.26912" lon="3.52225">
        <ele>1092</ele>
        <time>2009-07-09T12:53:16Z</time>
      </trkpt>
      <trkpt lat="44.26902" lon="3.5218">
        <ele>1088</ele>
        <time>2009-07-09T12:53:21Z</time>
      </trkpt>
      <trkpt lat="44.26898" lon="3.52159">
        <ele>1087</ele>
        <time>2009-07-09T12:53:23Z</time>
      </trkpt>
      <trkpt lat="44.26892" lon="3.52126">
        <ele>1084</ele>
        <time>2009-07-09T12:53:26Z</time>
      </trkpt>
      <trkpt lat="44.26888" lon="3.52102">
        <ele>1080</ele>
        <time>2009-07-09T12:53:28Z</time>
      </trkpt>
      <trkpt lat="44.2689" lon="3.5206">
        <ele>1077</ele>
        <time>2009-07-09T12:53:32Z</time>
      </trkpt>
      <trkpt lat="44.26909" lon="3.5207">
        <ele>1077</ele>
        <time>2009-07-09T12:53:36Z</time>
      </trkpt>
      <trkpt lat="44.26937" lon="3.52117">
        <ele>1077</ele>
        <time>2009-07-09T12:53:50Z</time>
      </trkpt>
      <trkpt lat="44.26943" lon="3.52128">
        <ele>1077</ele>
        <time>2009-07-09T12:54:02Z</time>
      </trkpt>
      <trkpt lat="44.26941" lon="3.52128">
        <ele>1078</ele>
        <time>2009-07-09T12:54:27Z</time>
      </trkpt>
      <trkpt lat="44.26939" lon="3.52128">
        <ele>1078</ele>
        <time>2009-07-09T12:54:39Z</time>
      </trkpt>
      <trkpt lat="44.26923" lon="3.52097">
        <ele>1078</ele>
        <time>2009-07-09T12:54:51Z</time>
      </trkpt>
      <trkpt lat="44.26903" lon="3.52066">
        <ele>1078</ele>
        <time>2009-07-09T12:55:04Z</time>
      </trkpt>
      <trkpt lat="44.26916" lon="3.52036">
        <ele>1077</ele>
        <time>2009-07-09T12:55:14Z</time>
      </trkpt>
      <trkpt lat="44.26931" lon="3.51988">
        <ele>1073</ele>
        <time>2009-07-09T12:55:24Z</time>
      </trkpt>
      <trkpt lat="44.26941" lon="3.51958">
        <ele>1071</ele>
        <time>2009-07-09T12:55:32Z</time>
      </trkpt>
      <trkpt lat="44.26943" lon="3.51955">
        <ele>1070</ele>
        <time>2009-07-09T12:55:33Z</time>
      </trkpt>
      <trkpt lat="44.26947" lon="3.51946">
        <ele>1069</ele>
        <time>2009-07-09T12:55:35Z</time>
      </trkpt>
      <trkpt lat="44.26956" lon="3.51922">
        <ele>1066</ele>
        <time>2009-07-09T12:55:39Z</time>
      </trkpt>
      <trkpt lat="44.26961" lon="3.51908">
        <ele>1065</ele>
        <time>2009-07-09T12:55:41Z</time>
      </trkpt>
      <trkpt lat="44.26967" lon="3.51863">
        <ele>1063</ele>
        <time>2009-07-09T12:55:48Z</time>
      </trkpt>
      <trkpt lat="44.26974" lon="3.51834">
        <ele>1059</ele>
        <time>2009-07-09T12:55:52Z</time>
      </trkpt>
      <trkpt lat="44.26978" lon="3.5182">
        <ele>1058</ele>
        <time>2009-07-09T12:55:54Z</time>
      </trkpt>
      <trkpt lat="44.26983" lon="3.51812">
        <ele>1060</ele>
        <time>2009-07-09T12:55:56Z</time>
      </trkpt>
      <trkpt lat="44.26987" lon="3.51799">
        <ele>1056</ele>
        <time>2009-07-09T12:55:59Z</time>
      </trkpt>
      <trkpt lat="44.27001" lon="3.51781">
        <ele>1056</ele>
        <time>2009-07-09T12:56:04Z</time>
      </trkpt>
      <trkpt lat="44.27034" lon="3.51769">
        <ele>1052</ele>
        <time>2009-07-09T12:56:16Z</time>
      </trkpt>
      <trkpt lat="44.27036" lon="3.51768">
        <ele>1052</ele>
        <time>2009-07-09T12:56:17Z</time>
      </trkpt>
      <trkpt lat="44.27072" lon="3.51761">
        <ele>1052</ele>
        <time>2009-07-09T12:56:30Z</time>
      </trkpt>
      <trkpt lat="44.27078" lon="3.51762">
        <ele>1052</ele>
        <time>2009-07-09T12:56:41Z</time>
      </trkpt>
      <trkpt lat="44.27078" lon="3.51761">
        <ele>1052</ele>
        <time>2009-07-09T12:56:42Z</time>
      </trkpt>
      <trkpt lat="44.27085" lon="3.51756">
        <ele>1053</ele>
        <time>2009-07-09T12:56:51Z</time>
      </trkpt>
      <trkpt lat="44.27099" lon="3.51766">
        <ele>1054</ele>
        <time>2009-07-09T12:57:06Z</time>
      </trkpt>
      <trkpt lat="44.27099" lon="3.51767">
        <ele>1053</ele>
        <time>2009-07-09T12:57:36Z</time>
      </trkpt>
      <trkpt lat="44.271" lon="3.51765">
        <ele>1054</ele>
        <time>2009-07-09T12:57:49Z</time>
      </trkpt>
      <trkpt lat="44.271" lon="3.51765">
        <ele>1054</ele>
        <time>2009-07-09T12:58:10Z</time>
      </trkpt>
      <trkpt lat="44.271" lon="3.51766">
        <ele>1054</ele>
        <time>2009-07-09T12:58:12Z</time>
      </trkpt>
      <trkpt lat="44.27102" lon="3.51775">
        <ele>1053</ele>
        <time>2009-07-09T12:58:16Z</time>
      </trkpt>
      <trkpt lat="44.27103" lon="3.51779">
        <ele>1053</ele>
        <time>2009-07-09T12:58:18Z</time>
      </trkpt>
      <trkpt lat="44.27109" lon="3.51801">
        <ele>1050</ele>
        <time>2009-07-09T12:58:26Z</time>
      </trkpt>
      <trkpt lat="44.2711" lon="3.51804">
        <ele>1050</ele>
        <time>2009-07-09T12:58:27Z</time>
      </trkpt>
      <trkpt lat="44.27117" lon="3.51813">
        <ele>1048</ele>
        <time>2009-07-09T12:58:31Z</time>
      </trkpt>
      <trkpt lat="44.27135" lon="3.51815">
        <ele>1046</ele>
        <time>2009-07-09T12:58:37Z</time>
      </trkpt>
      <trkpt lat="44.27147" lon="3.51815">
        <ele>1044</ele>
        <time>2009-07-09T12:58:40Z</time>
      </trkpt>
      <trkpt lat="44.27175" lon="3.51821">
        <ele>1041</ele>
        <time>2009-07-09T12:58:46Z</time>
      </trkpt>
      <trkpt lat="44.27184" lon="3.51825">
        <ele>1038</ele>
        <time>2009-07-09T12:58:48Z</time>
      </trkpt>
      <trkpt lat="44.27199" lon="3.51836">
        <ele>1036</ele>
        <time>2009-07-09T12:58:51Z</time>
      </trkpt>
      <trkpt lat="44.27243" lon="3.51861">
        <ele>1032</ele>
        <time>2009-07-09T12:58:58Z</time>
      </trkpt>
      <trkpt lat="44.2727" lon="3.51858">
        <ele>1031</ele>
        <time>2009-07-09T12:59:04Z</time>
      </trkpt>
      <trkpt lat="44.27274" lon="3.51857">
        <ele>1030</ele>
        <time>2009-07-09T12:59:05Z</time>
      </trkpt>
      <trkpt lat="44.27289" lon="3.51858">
        <ele>1030</ele>
        <time>2009-07-09T12:59:08Z</time>
      </trkpt>
      <trkpt lat="44.27306" lon="3.51867">
        <ele>1025</ele>
        <time>2009-07-09T12:59:11Z</time>
      </trkpt>
      <trkpt lat="44.2732" lon="3.51874">
        <ele>1025</ele>
        <time>2009-07-09T12:59:13Z</time>
      </trkpt>
      <trkpt lat="44.27372" lon="3.51904">
        <ele>1022</ele>
        <time>2009-07-09T12:59:20Z</time>
      </trkpt>
      <trkpt lat="44.27423" lon="3.51931">
        <ele>1023</ele>
        <time>2009-07-09T12:59:31Z</time>
      </trkpt>
      <trkpt lat="44.27472" lon="3.51925">
        <ele>1021</ele>
        <time>2009-07-09T12:59:45Z</time>
      </trkpt>
      <trkpt lat="44.27491" lon="3.51911">
        <ele>1020</ele>
        <time>2009-07-09T12:59:50Z</time>
      </trkpt>
      <trkpt lat="44.27511" lon="3.51896">
        <ele>1019</ele>
        <time>2009-07-09T12:59:55Z</time>
      </trkpt>
      <trkpt lat="44.2759" lon="3.51869">
        <ele>1016</ele>
        <time>2009-07-09T13:00:10Z</time>
      </trkpt>
      <trkpt lat="44.27596" lon="3.51867">
        <ele>1016</ele>
        <time>2009-07-09T13:00:11Z</time>
      </trkpt>
      <trkpt lat="44.27669" lon="3.51844">
        <ele>1008</ele>
        <time>2009-07-09T13:00:23Z</time>
      </trkpt>
      <trkpt lat="44.27675" lon="3.51843">
        <ele>1009</ele>
        <time>2009-07-09T13:00:24Z</time>
      </trkpt>
      <trkpt lat="44.27714" lon="3.51832">
        <ele>1005</ele>
        <time>2009-07-09T13:00:30Z</time>
      </trkpt>
      <trkpt lat="44.2775" lon="3.51809">
        <ele>1004</ele>
        <time>2009-07-09T13:00:36Z</time>
      </trkpt>
      <trkpt lat="44.27768" lon="3.51802">
        <ele>1003</ele>
        <time>2009-07-09T13:00:39Z</time>
      </trkpt>
      <trkpt lat="44.27846" lon="3.51792">
        <ele>1001</ele>
        <time>2009-07-09T13:00:51Z</time>
      </trkpt>
      <trkpt lat="44.27913" lon="3.51791">
        <ele>999</ele>
        <time>2009-07-09T13:01:02Z</time>
      </trkpt>
      <trkpt lat="44.27994" lon="3.51815">
        <ele>995</ele>
        <time>2009-07-09T13:01:16Z</time>
      </trkpt>
      <trkpt lat="44.28024" lon="3.51822">
        <ele>994</ele>
        <time>2009-07-09T13:01:21Z</time>
      </trkpt>
      <trkpt lat="44.28047" lon="3.51832">
        <ele>994</ele>
        <time>2009-07-09T13:01:25Z</time>
      </trkpt>
      <trkpt lat="44.28119" lon="3.51848">
        <ele>993</ele>
        <time>2009-07-09T13:01:38Z</time>
      </trkpt>
      <trkpt lat="44.28168" lon="3.51862">
        <ele>991</ele>
        <time>2009-07-09T13:01:47Z</time>
      </trkpt>
      <trkpt lat="44.28217" lon="3.51875">
        <ele>988</ele>
        <time>2009-07-09T13:01:56Z</time>
      </trkpt>
      <trkpt lat="44.28283" lon="3.51903">
        <ele>985</ele>
        <time>2009-07-09T13:02:07Z</time>
      </trkpt>
      <trkpt lat="44.28289" lon="3.51905">
        <ele>986</ele>
        <time>2009-07-09T13:02:08Z</time>
      </trkpt>
      <trkpt lat="44.28364" lon="3.51929">
        <ele>981</ele>
        <time>2009-07-09T13:02:18Z</time>
      </trkpt>
      <trkpt lat="44.28383" lon="3.51933">
        <ele>981</ele>
        <time>2009-07-09T13:02:20Z</time>
      </trkpt>
      <trkpt lat="44.28424" lon="3.51941">
        <ele>979</ele>
        <time>2009-07-09T13:02:24Z</time>
      </trkpt>
      <trkpt lat="44.28508" lon="3.51959">
        <ele>979</ele>
        <time>2009-07-09T13:02:33Z</time>
      </trkpt>
      <trkpt lat="44.28515" lon="3.51963">
        <ele>981</ele>
        <time>2009-07-09T13:02:41Z</time>
      </trkpt>
      <trkpt lat="44.28512" lon="3.51963">
        <ele>981</ele>
        <time>2009-07-09T13:03:16Z</time>
      </trkpt>
      <trkpt lat="44.28511" lon="3.51963">
        <ele>981</ele>
        <time>2009-07-09T13:03:50Z</time>
      </trkpt>
      <trkpt lat="44.28511" lon="3.51963">
        <ele>981</ele>
        <time>2009-07-09T13:03:52Z</time>
      </trkpt>
      <trkpt lat="44.28539" lon="3.51986">
        <ele>979</ele>
        <time>2009-07-09T13:04:05Z</time>
      </trkpt>
      <trkpt lat="44.2861" lon="3.51996">
        <ele>977</ele>
        <time>2009-07-09T13:04:21Z</time>
      </trkpt>
      <trkpt lat="44.28699" lon="3.52017">
        <ele>975</ele>
        <time>2009-07-09T13:04:38Z</time>
      </trkpt>
      <trkpt lat="44.28789" lon="3.52037">
        <ele>974</ele>
        <time>2009-07-09T13:04:55Z</time>
      </trkpt>
      <trkpt lat="44.28805" lon="3.52041">
        <ele>973</ele>
        <time>2009-07-09T13:04:58Z</time>
      </trkpt>
      <trkpt lat="44.28811" lon="3.52042">
        <ele>972</ele>
        <time>2009-07-09T13:04:59Z</time>
      </trkpt>
      <trkpt lat="44.28847" lon="3.52012">
        <ele>972</ele>
        <time>2009-07-09T13:05:07Z</time>
      </trkpt>
      <trkpt lat="44.28865" lon="3.51971">
        <ele>973</ele>
        <time>2009-07-09T13:05:13Z</time>
      </trkpt>
      <trkpt lat="44.28904" lon="3.51947">
        <ele>973</ele>
        <time>2009-07-09T13:05:22Z</time>
      </trkpt>
      <trkpt lat="44.29002" lon="3.51989">
        <ele>971</ele>
        <time>2009-07-09T13:05:41Z</time>
      </trkpt>
      <trkpt lat="44.29015" lon="3.51995">
        <ele>971</ele>
        <time>2009-07-09T13:05:44Z</time>
      </trkpt>
      <trkpt lat="44.29055" lon="3.52013">
        <ele>969</ele>
        <time>2009-07-09T13:05:52Z</time>
      </trkpt>
      <trkpt lat="44.29169" lon="3.52058">
        <ele>968</ele>
        <time>2009-07-09T13:06:13Z</time>
      </trkpt>
      <trkpt lat="44.2929" lon="3.52094">
        <ele>967</ele>
        <time>2009-07-09T13:06:34Z</time>
      </trkpt>
      <trkpt lat="44.29323" lon="3.52103">
        <ele>967</ele>
        <time>2009-07-09T13:06:40Z</time>
      </trkpt>
      <trkpt lat="44.29345" lon="3.52108">
        <ele>967</ele>
        <time>2009-07-09T13:06:44Z</time>
      </trkpt>
      <trkpt lat="44.29391" lon="3.52118">
        <ele>969</ele>
        <time>2009-07-09T13:06:53Z</time>
      </trkpt>
      <trkpt lat="44.29404" lon="3.52121">
        <ele>970</ele>
        <time>2009-07-09T13:06:56Z</time>
      </trkpt>
      <trkpt lat="44.29433" lon="3.52127">
        <ele>973</ele>
        <time>2009-07-09T13:07:03Z</time>
      </trkpt>
      <trkpt lat="44.29476" lon="3.52126">
        <ele>975</ele>
        <time>2009-07-09T13:07:13Z</time>
      </trkpt>
      <trkpt lat="44.29499" lon="3.52138">
        <ele>975</ele>
        <time>2009-07-09T13:07:19Z</time>
      </trkpt>
      <trkpt lat="44.2956" lon="3.52205">
        <ele>978</ele>
        <time>2009-07-09T13:07:37Z</time>
      </trkpt>
      <trkpt lat="44.29618" lon="3.52266">
        <ele>979</ele>
        <time>2009-07-09T13:07:54Z</time>
      </trkpt>
      <trkpt lat="44.29667" lon="3.52328">
        <ele>980</ele>
        <time>2009-07-09T13:08:09Z</time>
      </trkpt>
      <trkpt lat="44.29741" lon="3.5237">
        <ele>979</ele>
        <time>2009-07-09T13:08:25Z</time>
      </trkpt>
      <trkpt lat="44.29773" lon="3.52388">
        <ele>976</ele>
        <time>2009-07-09T13:08:31Z</time>
      </trkpt>
      <trkpt lat="44.29842" lon="3.52423">
        <ele>973</ele>
        <time>2009-07-09T13:08:44Z</time>
      </trkpt>
      <trkpt lat="44.29912" lon="3.5246">
        <ele>974</ele>
        <time>2009-07-09T13:09:00Z</time>
      </trkpt>
      <trkpt lat="44.29934" lon="3.52486">
        <ele>973</ele>
        <time>2009-07-09T13:09:07Z</time>
      </trkpt>
      <trkpt lat="44.29941" lon="3.52505">
        <ele>972</ele>
        <time>2009-07-09T13:09:10Z</time>
      </trkpt>
      <trkpt lat="44.29944" lon="3.52521">
        <ele>970</ele>
        <time>2009-07-09T13:09:12Z</time>
      </trkpt>
      <trkpt lat="44.29953" lon="3.52552">
        <ele>970</ele>
        <time>2009-07-09T13:09:16Z</time>
      </trkpt>
      <trkpt lat="44.2996" lon="3.52597">
        <ele>971</ele>
        <time>2009-07-09T13:09:22Z</time>
      </trkpt>
      <trkpt lat="44.29961" lon="3.52627">
        <ele>973</ele>
        <time>2009-07-09T13:09:27Z</time>
      </trkpt>
      <trkpt lat="44.29972" lon="3.52669">
        <ele>974</ele>
        <time>2009-07-09T13:09:37Z</time>
      </trkpt>
      <trkpt lat="44.29978" lon="3.52697">
        <ele>978</ele>
        <time>2009-07-09T13:09:46Z</time>
      </trkpt>
      <trkpt lat="44.29983" lon="3.52729">
        <ele>981</ele>
        <time>2009-07-09T13:09:56Z</time>
      </trkpt>
      <trkpt lat="44.29995" lon="3.52755">
        <ele>983</ele>
        <time>2009-07-09T13:10:05Z</time>
      </trkpt>
      <trkpt lat="44.30009" lon="3.52776">
        <ele>982</ele>
        <time>2009-07-09T13:10:18Z</time>
      </trkpt>
      <trkpt lat="44.30008" lon="3.52787">
        <ele>983</ele>
        <time>2009-07-09T13:10:29Z</time>
      </trkpt>
      <trkpt lat="44.30007" lon="3.52786">
        <ele>983</ele>
        <time>2009-07-09T13:10:56Z</time>
      </trkpt>
      <trkpt lat="44.30005" lon="3.52798">
        <ele>982</ele>
        <time>2009-07-09T13:11:27Z</time>
      </trkpt>
      <trkpt lat="44.29997" lon="3.52815">
        <ele>984</ele>
        <time>2009-07-09T13:11:35Z</time>
      </trkpt>
      <trkpt lat="44.29993" lon="3.52824">
        <ele>985</ele>
        <time>2009-07-09T13:11:39Z</time>
      </trkpt>
      <trkpt lat="44.29987" lon="3.52834">
        <ele>985</ele>
        <time>2009-07-09T13:11:51Z</time>
      </trkpt>
      <trkpt lat="44.29989" lon="3.52836">
        <ele>985</ele>
        <time>2009-07-09T13:12:26Z</time>
      </trkpt>
      <trkpt lat="44.29986" lon="3.52843">
        <ele>985</ele>
        <time>2009-07-09T13:12:30Z</time>
      </trkpt>
      <trkpt lat="44.29971" lon="3.52877">
        <ele>983</ele>
        <time>2009-07-09T13:12:43Z</time>
      </trkpt>
      <trkpt lat="44.29955" lon="3.52904">
        <ele>983</ele>
        <time>2009-07-09T13:12:55Z</time>
      </trkpt>
      <trkpt lat="44.29938" lon="3.52938">
        <ele>985</ele>
        <time>2009-07-09T13:13:08Z</time>
      </trkpt>
      <trkpt lat="44.29931" lon="3.53014">
        <ele>987</ele>
        <time>2009-07-09T13:13:27Z</time>
      </trkpt>
      <trkpt lat="44.29934" lon="3.53086">
        <ele>987</ele>
        <time>2009-07-09T13:13:44Z</time>
      </trkpt>
      <trkpt lat="44.29937" lon="3.5311">
        <ele>985</ele>
        <time>2009-07-09T13:13:47Z</time>
      </trkpt>
      <trkpt lat="44.29937" lon="3.53119">
        <ele>985</ele>
        <time>2009-07-09T13:13:48Z</time>
      </trkpt>
      <trkpt lat="44.29929" lon="3.53158">
        <ele>984</ele>
        <time>2009-07-09T13:13:52Z</time>
      </trkpt>
      <trkpt lat="44.29931" lon="3.53247">
        <ele>980</ele>
        <time>2009-07-09T13:14:00Z</time>
      </trkpt>
      <trkpt lat="44.29987" lon="3.53384">
        <ele>979</ele>
        <time>2009-07-09T13:14:15Z</time>
      </trkpt>
      <trkpt lat="44.30021" lon="3.53434">
        <ele>982</ele>
        <time>2009-07-09T13:14:25Z</time>
      </trkpt>
      <trkpt lat="44.30023" lon="3.53437">
        <ele>982</ele>
        <time>2009-07-09T13:14:26Z</time>
      </trkpt>
      <trkpt lat="44.30042" lon="3.5346">
        <ele>982</ele>
        <time>2009-07-09T13:14:34Z</time>
      </trkpt>
      <trkpt lat="44.30047" lon="3.53471">
        <ele>980</ele>
        <time>2009-07-09T13:14:36Z</time>
      </trkpt>
      <trkpt lat="44.30061" lon="3.53518">
        <ele>980</ele>
        <time>2009-07-09T13:14:43Z</time>
      </trkpt>
      <trkpt lat="44.30087" lon="3.53697">
        <ele>978</ele>
        <time>2009-07-09T13:15:06Z</time>
      </trkpt>
      <trkpt lat="44.30091" lon="3.53753">
        <ele>979</ele>
        <time>2009-07-09T13:15:13Z</time>
      </trkpt>
      <trkpt lat="44.3008" lon="3.53853">
        <ele>978</ele>
        <time>2009-07-09T13:15:25Z</time>
      </trkpt>
      <trkpt lat="44.30069" lon="3.53891">
        <ele>978</ele>
        <time>2009-07-09T13:15:30Z</time>
      </trkpt>
      <trkpt lat="44.3008" lon="3.5394">
        <ele>978</ele>
        <time>2009-07-09T13:15:37Z</time>
      </trkpt>
      <trkpt lat="44.30166" lon="3.54035">
        <ele>979</ele>
        <time>2009-07-09T13:15:56Z</time>
      </trkpt>
      <trkpt lat="44.30225" lon="3.54137">
        <ele>980</ele>
        <time>2009-07-09T13:16:16Z</time>
      </trkpt>
      <trkpt lat="44.30253" lon="3.54191">
        <ele>983</ele>
        <time>2009-07-09T13:16:27Z</time>
      </trkpt>
      <trkpt lat="44.30263" lon="3.54211">
        <ele>984</ele>
        <time>2009-07-09T13:16:31Z</time>
      </trkpt>
      <trkpt lat="44.30264" lon="3.54244">
        <ele>986</ele>
        <time>2009-07-09T13:16:37Z</time>
      </trkpt>
      <trkpt lat="44.30238" lon="3.54322">
        <ele>990</ele>
        <time>2009-07-09T13:16:55Z</time>
      </trkpt>
      <trkpt lat="44.30216" lon="3.54359">
        <ele>990</ele>
        <time>2009-07-09T13:17:07Z</time>
      </trkpt>
      <trkpt lat="44.30205" lon="3.54413">
        <ele>991</ele>
        <time>2009-07-09T13:17:19Z</time>
      </trkpt>
      <trkpt lat="44.30196" lon="3.54501">
        <ele>993</ele>
        <time>2009-07-09T13:17:37Z</time>
      </trkpt>
      <trkpt lat="44.30187" lon="3.54577">
        <ele>993</ele>
        <time>2009-07-09T13:17:53Z</time>
      </trkpt>
      <trkpt lat="44.30193" lon="3.54605">
        <ele>995</ele>
        <time>2009-07-09T13:17:59Z</time>
      </trkpt>
      <trkpt lat="44.3022" lon="3.54654">
        <ele>998</ele>
        <time>2009-07-09T13:18:14Z</time>
      </trkpt>
      <trkpt lat="44.30223" lon="3.54659">
        <ele>998</ele>
        <time>2009-07-09T13:18:28Z</time>
      </trkpt>
      <trkpt lat="44.30246" lon="3.54688">
        <ele>999</ele>
        <time>2009-07-09T13:18:42Z</time>
      </trkpt>
      <trkpt lat="44.30252" lon="3.54699">
        <ele>999</ele>
        <time>2009-07-09T13:18:48Z</time>
      </trkpt>
      <trkpt lat="44.30258" lon="3.547">
        <ele>1000</ele>
        <time>2009-07-09T13:18:52Z</time>
      </trkpt>
      <trkpt lat="44.30278" lon="3.54701">
        <ele>1001</ele>
        <time>2009-07-09T13:19:00Z</time>
      </trkpt>
      <trkpt lat="44.30296" lon="3.54725">
        <ele>1002</ele>
        <time>2009-07-09T13:19:14Z</time>
      </trkpt>
      <trkpt lat="44.30292" lon="3.5473">
        <ele>1003</ele>
        <time>2009-07-09T13:19:17Z</time>
      </trkpt>
      <trkpt lat="44.30284" lon="3.54733">
        <ele>1003</ele>
        <time>2009-07-09T13:19:21Z</time>
      </trkpt>
      <trkpt lat="44.30264" lon="3.54746">
        <ele>1006</ele>
        <time>2009-07-09T13:19:31Z</time>
      </trkpt>
      <trkpt lat="44.30266" lon="3.54752">
        <ele>1005</ele>
        <time>2009-07-09T13:19:35Z</time>
      </trkpt>
      <trkpt lat="44.30307" lon="3.54779">
        <ele>1004</ele>
        <time>2009-07-09T13:19:51Z</time>
      </trkpt>
      <trkpt lat="44.30332" lon="3.54784">
        <ele>1007</ele>
        <time>2009-07-09T13:20:01Z</time>
      </trkpt>
      <trkpt lat="44.3037" lon="3.54796">
        <ele>1008</ele>
        <time>2009-07-09T13:20:14Z</time>
      </trkpt>
      <trkpt lat="44.30411" lon="3.54776">
        <ele>1007</ele>
        <time>2009-07-09T13:20:27Z</time>
      </trkpt>
      <trkpt lat="44.30424" lon="3.54772">
        <ele>1009</ele>
        <time>2009-07-09T13:20:31Z</time>
      </trkpt>
      <trkpt lat="44.30479" lon="3.54759">
        <ele>1010</ele>
        <time>2009-07-09T13:20:47Z</time>
      </trkpt>
      <trkpt lat="44.30487" lon="3.54762">
        <ele>1010</ele>
        <time>2009-07-09T13:20:49Z</time>
      </trkpt>
      <trkpt lat="44.30503" lon="3.54771">
        <ele>1009</ele>
        <time>2009-07-09T13:20:53Z</time>
      </trkpt>
      <trkpt lat="44.30534" lon="3.54798">
        <ele>1008</ele>
        <time>2009-07-09T13:21:04Z</time>
      </trkpt>
      <trkpt lat="44.30541" lon="3.54827">
        <ele>1007</ele>
        <time>2009-07-09T13:21:09Z</time>
      </trkpt>
      <trkpt lat="44.30544" lon="3.54849">
        <ele>1005</ele>
        <time>2009-07-09T13:21:12Z</time>
      </trkpt>
      <trkpt lat="44.30558" lon="3.54885">
        <ele>1003</ele>
        <time>2009-07-09T13:21:17Z</time>
      </trkpt>
      <trkpt lat="44.30593" lon="3.54924">
        <ele>1001</ele>
        <time>2009-07-09T13:21:25Z</time>
      </trkpt>
      <trkpt lat="44.30612" lon="3.54966">
        <ele>1000</ele>
        <time>2009-07-09T13:21:31Z</time>
      </trkpt>
      <trkpt lat="44.30624" lon="3.54985">
        <ele>998</ele>
        <time>2009-07-09T13:21:34Z</time>
      </trkpt>
      <trkpt lat="44.30652" lon="3.54998">
        <ele>998</ele>
        <time>2009-07-09T13:21:40Z</time>
      </trkpt>
      <trkpt lat="44.30672" lon="3.54997">
        <ele>997</ele>
        <time>2009-07-09T13:21:44Z</time>
      </trkpt>
      <trkpt lat="44.30691" lon="3.55005">
        <ele>996</ele>
        <time>2009-07-09T13:21:48Z</time>
      </trkpt>
      <trkpt lat="44.30704" lon="3.55025">
        <ele>994</ele>
        <time>2009-07-09T13:21:51Z</time>
      </trkpt>
      <trkpt lat="44.30736" lon="3.55041">
        <ele>993</ele>
        <time>2009-07-09T13:21:56Z</time>
      </trkpt>
      <trkpt lat="44.30793" lon="3.55054">
        <ele>989</ele>
        <time>2009-07-09T13:22:05Z</time>
      </trkpt>
      <trkpt lat="44.308" lon="3.55057">
        <ele>988</ele>
        <time>2009-07-09T13:22:06Z</time>
      </trkpt>
      <trkpt lat="44.30821" lon="3.55072">
        <ele>985</ele>
        <time>2009-07-09T13:22:09Z</time>
      </trkpt>
      <trkpt lat="44.3084" lon="3.55086">
        <ele>985</ele>
        <time>2009-07-09T13:22:16Z</time>
      </trkpt>
      <trkpt lat="44.3084" lon="3.55088">
        <ele>984</ele>
        <time>2009-07-09T13:22:25Z</time>
      </trkpt>
      <trkpt lat="44.30843" lon="3.55086">
        <ele>983</ele>
        <time>2009-07-09T13:22:36Z</time>
      </trkpt>
      <trkpt lat="44.30842" lon="3.55085">
        <ele>984</ele>
        <time>2009-07-09T13:23:52Z</time>
      </trkpt>
      <trkpt lat="44.30873" lon="3.55125">
        <ele>982</ele>
        <time>2009-07-09T13:24:08Z</time>
      </trkpt>
      <trkpt lat="44.30922" lon="3.55158">
        <ele>981</ele>
        <time>2009-07-09T13:24:22Z</time>
      </trkpt>
      <trkpt lat="44.30974" lon="3.55193">
        <ele>981</ele>
        <time>2009-07-09T13:24:37Z</time>
      </trkpt>
      <trkpt lat="44.30987" lon="3.552">
        <ele>983</ele>
        <time>2009-07-09T13:24:41Z</time>
      </trkpt>
      <trkpt lat="44.3102" lon="3.55257">
        <ele>982</ele>
        <time>2009-07-09T13:24:56Z</time>
      </trkpt>
      <trkpt lat="44.31068" lon="3.55314">
        <ele>984</ele>
        <time>2009-07-09T13:25:15Z</time>
      </trkpt>
      <trkpt lat="44.31085" lon="3.55329">
        <ele>987</ele>
        <time>2009-07-09T13:25:22Z</time>
      </trkpt>
      <trkpt lat="44.31106" lon="3.5535">
        <ele>990</ele>
        <time>2009-07-09T13:25:34Z</time>
      </trkpt>
      <trkpt lat="44.31128" lon="3.55382">
        <ele>992</ele>
        <time>2009-07-09T13:25:48Z</time>
      </trkpt>
      <trkpt lat="44.31158" lon="3.55415">
        <ele>991</ele>
        <time>2009-07-09T13:26:02Z</time>
      </trkpt>
      <trkpt lat="44.31193" lon="3.55469">
        <ele>991</ele>
        <time>2009-07-09T13:26:18Z</time>
      </trkpt>
      <trkpt lat="44.31233" lon="3.55495">
        <ele>992</ele>
        <time>2009-07-09T13:26:31Z</time>
      </trkpt>
      <trkpt lat="44.31252" lon="3.55527">
        <ele>994</ele>
        <time>2009-07-09T13:26:43Z</time>
      </trkpt>
      <trkpt lat="44.31276" lon="3.55579">
        <ele>995</ele>
        <time>2009-07-09T13:26:58Z</time>
      </trkpt>
      <trkpt lat="44.31316" lon="3.55648">
        <ele>996</ele>
        <time>2009-07-09T13:27:17Z</time>
      </trkpt>
      <trkpt lat="44.31349" lon="3.55716">
        <ele>996</ele>
        <time>2009-07-09T13:27:33Z</time>
      </trkpt>
      <trkpt lat="44.31398" lon="3.5576">
        <ele>997</ele>
        <time>2009-07-09T13:27:48Z</time>
      </trkpt>
      <trkpt lat="44.31446" lon="3.55819">
        <ele>997</ele>
        <time>2009-07-09T13:28:04Z</time>
      </trkpt>
      <trkpt lat="44.31482" lon="3.55876">
        <ele>998</ele>
        <time>2009-07-09T13:28:18Z</time>
      </trkpt>
      <trkpt lat="44.31494" lon="3.55901">
        <ele>998</ele>
        <time>2009-07-09T13:28:23Z</time>
      </trkpt>
      <trkpt lat="44.31528" lon="3.55952">
        <ele>1000</ele>
        <time>2009-07-09T13:28:37Z</time>
      </trkpt>
      <trkpt lat="44.31563" lon="3.55996">
        <ele>1001</ele>
        <time>2009-07-09T13:28:49Z</time>
      </trkpt>
      <trkpt lat="44.31629" lon="3.56031">
        <ele>1005</ele>
        <time>2009-07-09T13:29:06Z</time>
      </trkpt>
      <trkpt lat="44.3168" lon="3.56056">
        <ele>1005</ele>
        <time>2009-07-09T13:29:19Z</time>
      </trkpt>
      <trkpt lat="44.31759" lon="3.56125">
        <ele>1006</ele>
        <time>2009-07-09T13:29:40Z</time>
      </trkpt>
      <trkpt lat="44.31827" lon="3.56157">
        <ele>1008</ele>
        <time>2009-07-09T13:29:55Z</time>
      </trkpt>
      <trkpt lat="44.31895" lon="3.56189">
        <ele>1008</ele>
        <time>2009-07-09T13:30:12Z</time>
      </trkpt>
      <trkpt lat="44.31899" lon="3.5619">
        <ele>1008</ele>
        <time>2009-07-09T13:30:13Z</time>
      </trkpt>
      <trkpt lat="44.31915" lon="3.56196">
        <ele>1008</ele>
        <time>2009-07-09T13:30:17Z</time>
      </trkpt>
      <trkpt lat="44.31938" lon="3.56198">
        <ele>1007</ele>
        <time>2009-07-09T13:30:22Z</time>
      </trkpt>
      <trkpt lat="44.32032" lon="3.56223">
        <ele>1008</ele>
        <time>2009-07-09T13:30:42Z</time>
      </trkpt>
      <trkpt lat="44.32117" lon="3.56251">
        <ele>1010</ele>
        <time>2009-07-09T13:31:00Z</time>
      </trkpt>
      <trkpt lat="44.32162" lon="3.56272">
        <ele>1010</ele>
        <time>2009-07-09T13:31:10Z</time>
      </trkpt>
      <trkpt lat="44.32226" lon="3.56346">
        <ele>1009</ele>
        <time>2009-07-09T13:31:28Z</time>
      </trkpt>
      <trkpt lat="44.32282" lon="3.5641">
        <ele>1013</ele>
        <time>2009-07-09T13:31:44Z</time>
      </trkpt>
      <trkpt lat="44.323" lon="3.56456">
        <ele>1016</ele>
        <time>2009-07-09T13:31:57Z</time>
      </trkpt>
      <trkpt lat="44.32306" lon="3.56503">
        <ele>1018</ele>
        <time>2009-07-09T13:32:11Z</time>
      </trkpt>
      <trkpt lat="44.32307" lon="3.56577">
        <ele>1021</ele>
        <time>2009-07-09T13:32:30Z</time>
      </trkpt>
      <trkpt lat="44.32305" lon="3.56575">
        <ele>1021</ele>
        <time>2009-07-09T13:32:42Z</time>
      </trkpt>
      <trkpt lat="44.32304" lon="3.56562">
        <ele>1022</ele>
        <time>2009-07-09T13:32:54Z</time>
      </trkpt>
      <trkpt lat="44.32306" lon="3.56559">
        <ele>1019</ele>
        <time>2009-07-09T13:33:12Z</time>
      </trkpt>
      <trkpt lat="44.32305" lon="3.56557">
        <ele>1020</ele>
        <time>2009-07-09T13:33:43Z</time>
      </trkpt>
      <trkpt lat="44.32306" lon="3.5656">
        <ele>1020</ele>
        <time>2009-07-09T13:34:03Z</time>
      </trkpt>
      <trkpt lat="44.32306" lon="3.56561">
        <ele>1021</ele>
        <time>2009-07-09T13:34:24Z</time>
      </trkpt>
      <trkpt lat="44.32309" lon="3.56601">
        <ele>1021</ele>
        <time>2009-07-09T13:34:34Z</time>
      </trkpt>
      <trkpt lat="44.32331" lon="3.56681">
        <ele>1022</ele>
        <time>2009-07-09T13:34:51Z</time>
      </trkpt>
      <trkpt lat="44.32356" lon="3.56719">
        <ele>1025</ele>
        <time>2009-07-09T13:35:04Z</time>
      </trkpt>
      <trkpt lat="44.32373" lon="3.56763">
        <ele>1024</ele>
        <time>2009-07-09T13:35:17Z</time>
      </trkpt>
      <trkpt lat="44.32387" lon="3.56828">
        <ele>1024</ele>
        <time>2009-07-09T13:35:33Z</time>
      </trkpt>
      <trkpt lat="44.32409" lon="3.56903">
        <ele>1025</ele>
        <time>2009-07-09T13:35:50Z</time>
      </trkpt>
      <trkpt lat="44.32433" lon="3.56989">
        <ele>1026</ele>
        <time>2009-07-09T13:36:09Z</time>
      </trkpt>
      <trkpt lat="44.32458" lon="3.57026">
        <ele>1028</ele>
        <time>2009-07-09T13:36:22Z</time>
      </trkpt>
      <trkpt lat="44.32504" lon="3.57042">
        <ele>1030</ele>
        <time>2009-07-09T13:36:40Z</time>
      </trkpt>
      <trkpt lat="44.32542" lon="3.57017">
        <ele>1030</ele>
        <time>2009-07-09T13:36:54Z</time>
      </trkpt>
      <trkpt lat="44.32608" lon="3.56947">
        <ele>1031</ele>
        <time>2009-07-09T13:37:16Z</time>
      </trkpt>
      <trkpt lat="44.32679" lon="3.56875">
        <ele>1031</ele>
        <time>2009-07-09T13:37:38Z</time>
      </trkpt>
      <trkpt lat="44.32735" lon="3.56817">
        <ele>1032</ele>
        <time>2009-07-09T13:37:59Z</time>
      </trkpt>
      <trkpt lat="44.32743" lon="3.56816">
        <ele>1033</ele>
        <time>2009-07-09T13:38:09Z</time>
      </trkpt>
      <trkpt lat="44.32748" lon="3.56816">
        <ele>1033</ele>
        <time>2009-07-09T13:38:19Z</time>
      </trkpt>
      <trkpt lat="44.32747" lon="3.56816">
        <ele>1033</ele>
        <time>2009-07-09T13:38:39Z</time>
      </trkpt>
      <trkpt lat="44.32753" lon="3.56812">
        <ele>1032</ele>
        <time>2009-07-09T13:38:55Z</time>
      </trkpt>
      <trkpt lat="44.32754" lon="3.56811">
        <ele>1033</ele>
        <time>2009-07-09T13:39:34Z</time>
      </trkpt>
      <trkpt lat="44.32751" lon="3.56815">
        <ele>1034</ele>
        <time>2009-07-09T13:39:40Z</time>
      </trkpt>
      <trkpt lat="44.3275" lon="3.56825">
        <ele>1034</ele>
        <time>2009-07-09T13:39:44Z</time>
      </trkpt>
      <trkpt lat="44.32754" lon="3.56875">
        <ele>1037</ele>
        <time>2009-07-09T13:40:02Z</time>
      </trkpt>
      <trkpt lat="44.32755" lon="3.56882">
        <ele>1039</ele>
        <time>2009-07-09T13:40:05Z</time>
      </trkpt>
      <trkpt lat="44.32757" lon="3.56903">
        <ele>1042</ele>
        <time>2009-07-09T13:40:14Z</time>
      </trkpt>
      <trkpt lat="44.32757" lon="3.56912">
        <ele>1044</ele>
        <time>2009-07-09T13:40:18Z</time>
      </trkpt>
      <trkpt lat="44.32756" lon="3.56948">
        <ele>1047</ele>
        <time>2009-07-09T13:40:33Z</time>
      </trkpt>
      <trkpt lat="44.32756" lon="3.56984">
        <ele>1050</ele>
        <time>2009-07-09T13:40:49Z</time>
      </trkpt>
      <trkpt lat="44.32756" lon="3.57002">
        <ele>1054</ele>
        <time>2009-07-09T13:40:57Z</time>
      </trkpt>
      <trkpt lat="44.32756" lon="3.57009">
        <ele>1055</ele>
        <time>2009-07-09T13:41:00Z</time>
      </trkpt>
      <trkpt lat="44.32755" lon="3.5704">
        <ele>1058</ele>
        <time>2009-07-09T13:41:13Z</time>
      </trkpt>
      <trkpt lat="44.32755" lon="3.57052">
        <ele>1060</ele>
        <time>2009-07-09T13:41:18Z</time>
      </trkpt>
      <trkpt lat="44.32752" lon="3.5709">
        <ele>1064</ele>
        <time>2009-07-09T13:41:34Z</time>
      </trkpt>
      <trkpt lat="44.32746" lon="3.57115">
        <ele>1067</ele>
        <time>2009-07-09T13:41:44Z</time>
      </trkpt>
      <trkpt lat="44.32739" lon="3.57138">
        <ele>1070</ele>
        <time>2009-07-09T13:41:53Z</time>
      </trkpt>
      <trkpt lat="44.32727" lon="3.57162">
        <ele>1072</ele>
        <time>2009-07-09T13:42:03Z</time>
      </trkpt>
      <trkpt lat="44.32708" lon="3.57192">
        <ele>1072</ele>
        <time>2009-07-09T13:42:18Z</time>
      </trkpt>
      <trkpt lat="44.32708" lon="3.57192">
        <ele>1070</ele>
        <time>2009-07-09T13:42:21Z</time>
      </trkpt>
      <trkpt lat="44.32708" lon="3.57189">
        <ele>1073</ele>
        <time>2009-07-09T13:45:54Z</time>
      </trkpt>
      <trkpt lat="44.32708" lon="3.57189">
        <ele>1074</ele>
        <time>2009-07-09T13:45:56Z</time>
      </trkpt>
      <trkpt lat="44.32706" lon="3.57188">
        <ele>1072</ele>
        <time>2009-07-09T13:45:59Z</time>
      </trkpt>
      <trkpt lat="44.32701" lon="3.5719">
        <ele>1074</ele>
        <time>2009-07-09T13:46:13Z</time>
      </trkpt>
      <trkpt lat="44.32699" lon="3.57191">
        <ele>1075</ele>
        <time>2009-07-09T13:46:27Z</time>
      </trkpt>
      <trkpt lat="44.32693" lon="3.57194">
        <ele>1075</ele>
        <time>2009-07-09T13:46:31Z</time>
      </trkpt>
      <trkpt lat="44.3268" lon="3.57195">
        <ele>1071</ele>
        <time>2009-07-09T13:46:36Z</time>
      </trkpt>
      <trkpt lat="44.32677" lon="3.57196">
        <ele>1071</ele>
        <time>2009-07-09T13:46:49Z</time>
      </trkpt>
      <trkpt lat="44.32677" lon="3.57195">
        <ele>1073</ele>
        <time>2009-07-09T13:47:22Z</time>
      </trkpt>
      <trkpt lat="44.32675" lon="3.57196">
        <ele>1072</ele>
        <time>2009-07-09T13:47:50Z</time>
      </trkpt>
      <trkpt lat="44.32674" lon="3.57196">
        <ele>1071</ele>
        <time>2009-07-09T13:48:22Z</time>
      </trkpt>
      <trkpt lat="44.32668" lon="3.57209">
        <ele>1074</ele>
        <time>2009-07-09T13:48:35Z</time>
      </trkpt>
      <trkpt lat="44.32661" lon="3.57219">
        <ele>1072</ele>
        <time>2009-07-09T13:48:39Z</time>
      </trkpt>
      <trkpt lat="44.32653" lon="3.5723">
        <ele>1070</ele>
        <time>2009-07-09T13:48:43Z</time>
      </trkpt>
      <trkpt lat="44.32629" lon="3.57253">
        <ele>1071</ele>
        <time>2009-07-09T13:48:55Z</time>
      </trkpt>
      <trkpt lat="44.32594" lon="3.57285">
        <ele>1071</ele>
        <time>2009-07-09T13:49:11Z</time>
      </trkpt>
      <trkpt lat="44.32589" lon="3.57288">
        <ele>1070</ele>
        <time>2009-07-09T13:49:13Z</time>
      </trkpt>
      <trkpt lat="44.32584" lon="3.57291">
        <ele>1069</ele>
        <time>2009-07-09T13:49:15Z</time>
      </trkpt>
      <trkpt lat="44.3258" lon="3.57289">
        <ele>1067</ele>
        <time>2009-07-09T13:49:18Z</time>
      </trkpt>
      <trkpt lat="44.32578" lon="3.5729">
        <ele>1067</ele>
        <time>2009-07-09T13:49:19Z</time>
      </trkpt>
      <trkpt lat="44.3257" lon="3.57291">
        <ele>1068</ele>
        <time>2009-07-09T13:49:24Z</time>
      </trkpt>
      <trkpt lat="44.32566" lon="3.57293">
        <ele>1066</ele>
        <time>2009-07-09T13:49:26Z</time>
      </trkpt>
      <trkpt lat="44.32541" lon="3.57319">
        <ele>1066</ele>
        <time>2009-07-09T13:49:39Z</time>
      </trkpt>
      <trkpt lat="44.32514" lon="3.57344">
        <ele>1066</ele>
        <time>2009-07-09T13:49:53Z</time>
      </trkpt>
      <trkpt lat="44.325" lon="3.57369">
        <ele>1067</ele>
        <time>2009-07-09T13:50:04Z</time>
      </trkpt>
      <trkpt lat="44.32491" lon="3.57378">
        <ele>1066</ele>
        <time>2009-07-09T13:50:09Z</time>
      </trkpt>
      <trkpt lat="44.32478" lon="3.57403">
        <ele>1067</ele>
        <time>2009-07-09T13:50:20Z</time>
      </trkpt>
      <trkpt lat="44.32477" lon="3.57405">
        <ele>1066</ele>
        <time>2009-07-09T13:50:21Z</time>
      </trkpt>
      <trkpt lat="44.32452" lon="3.5744">
        <ele>1069</ele>
        <time>2009-07-09T13:50:38Z</time>
      </trkpt>
      <trkpt lat="44.32419" lon="3.57468">
        <ele>1068</ele>
        <time>2009-07-09T13:50:54Z</time>
      </trkpt>
      <trkpt lat="44.32412" lon="3.57469">
        <ele>1068</ele>
        <time>2009-07-09T13:50:57Z</time>
      </trkpt>
      <trkpt lat="44.32389" lon="3.57488">
        <ele>1064</ele>
        <time>2009-07-09T13:51:06Z</time>
      </trkpt>
      <trkpt lat="44.32385" lon="3.5749">
        <ele>1065</ele>
        <time>2009-07-09T13:51:07Z</time>
      </trkpt>
      <trkpt lat="44.32381" lon="3.57492">
        <ele>1064</ele>
        <time>2009-07-09T13:51:08Z</time>
      </trkpt>
      <trkpt lat="44.32366" lon="3.57502">
        <ele>1063</ele>
        <time>2009-07-09T13:51:12Z</time>
      </trkpt>
      <trkpt lat="44.32338" lon="3.57517">
        <ele>1061</ele>
        <time>2009-07-09T13:51:18Z</time>
      </trkpt>
      <trkpt lat="44.32299" lon="3.57577">
        <ele>1059</ele>
        <time>2009-07-09T13:51:32Z</time>
      </trkpt>
      <trkpt lat="44.32291" lon="3.57593">
        <ele>1057</ele>
        <time>2009-07-09T13:51:35Z</time>
      </trkpt>
      <trkpt lat="44.32285" lon="3.57605">
        <ele>1057</ele>
        <time>2009-07-09T13:51:37Z</time>
      </trkpt>
      <trkpt lat="44.32276" lon="3.57632">
        <ele>1054</ele>
        <time>2009-07-09T13:51:41Z</time>
      </trkpt>
      <trkpt lat="44.32266" lon="3.57655">
        <ele>1052</ele>
        <time>2009-07-09T13:51:45Z</time>
      </trkpt>
      <trkpt lat="44.32253" lon="3.57678">
        <ele>1049</ele>
        <time>2009-07-09T13:51:49Z</time>
      </trkpt>
      <trkpt lat="44.32231" lon="3.57707">
        <ele>1050</ele>
        <time>2009-07-09T13:51:54Z</time>
      </trkpt>
      <trkpt lat="44.32214" lon="3.57721">
        <ele>1050</ele>
        <time>2009-07-09T13:51:59Z</time>
      </trkpt>
      <trkpt lat="44.32177" lon="3.57766">
        <ele>1053</ele>
        <time>2009-07-09T13:52:16Z</time>
      </trkpt>
      <trkpt lat="44.32151" lon="3.57803">
        <ele>1052</ele>
        <time>2009-07-09T13:52:29Z</time>
      </trkpt>
      <trkpt lat="44.32126" lon="3.57825">
        <ele>1050</ele>
        <time>2009-07-09T13:52:38Z</time>
      </trkpt>
      <trkpt lat="44.32087" lon="3.57862">
        <ele>1049</ele>
        <time>2009-07-09T13:52:52Z</time>
      </trkpt>
      <trkpt lat="44.32063" lon="3.57865">
        <ele>1053</ele>
        <time>2009-07-09T13:53:03Z</time>
      </trkpt>
      <trkpt lat="44.32061" lon="3.57866">
        <ele>1053</ele>
        <time>2009-07-09T13:53:04Z</time>
      </trkpt>
      <trkpt lat="44.32042" lon="3.57888">
        <ele>1055</ele>
        <time>2009-07-09T13:53:17Z</time>
      </trkpt>
      <trkpt lat="44.32033" lon="3.57897">
        <ele>1055</ele>
        <time>2009-07-09T13:53:22Z</time>
      </trkpt>
      <trkpt lat="44.32008" lon="3.57917">
        <ele>1057</ele>
        <time>2009-07-09T13:53:36Z</time>
      </trkpt>
      <trkpt lat="44.32003" lon="3.57921">
        <ele>1057</ele>
        <time>2009-07-09T13:53:39Z</time>
      </trkpt>
      <trkpt lat="44.31992" lon="3.57933">
        <ele>1058</ele>
        <time>2009-07-09T13:53:46Z</time>
      </trkpt>
      <trkpt lat="44.31973" lon="3.5796">
        <ele>1059</ele>
        <time>2009-07-09T13:54:00Z</time>
      </trkpt>
      <trkpt lat="44.31972" lon="3.57962">
        <ele>1059</ele>
        <time>2009-07-09T13:54:03Z</time>
      </trkpt>
      <trkpt lat="44.31959" lon="3.57976">
        <ele>1059</ele>
        <time>2009-07-09T13:54:13Z</time>
      </trkpt>
      <trkpt lat="44.31952" lon="3.57978">
        <ele>1060</ele>
        <time>2009-07-09T13:54:17Z</time>
      </trkpt>
      <trkpt lat="44.31939" lon="3.57995">
        <ele>1060</ele>
        <time>2009-07-09T13:54:29Z</time>
      </trkpt>
      <trkpt lat="44.31928" lon="3.58025">
        <ele>1059</ele>
        <time>2009-07-09T13:54:41Z</time>
      </trkpt>
      <trkpt lat="44.31908" lon="3.58059">
        <ele>1058</ele>
        <time>2009-07-09T13:54:54Z</time>
      </trkpt>
      <trkpt lat="44.31883" lon="3.58101">
        <ele>1057</ele>
        <time>2009-07-09T13:55:06Z</time>
      </trkpt>
      <trkpt lat="44.31882" lon="3.58101">
        <ele>1057</ele>
        <time>2009-07-09T13:55:15Z</time>
      </trkpt>
      <trkpt lat="44.31882" lon="3.58101">
        <ele>1057</ele>
        <time>2009-07-09T13:55:32Z</time>
      </trkpt>
      <trkpt lat="44.31881" lon="3.58099">
        <ele>1058</ele>
        <time>2009-07-09T13:56:29Z</time>
      </trkpt>
      <trkpt lat="44.31879" lon="3.58098">
        <ele>1058</ele>
        <time>2009-07-09T13:56:34Z</time>
      </trkpt>
      <trkpt lat="44.31876" lon="3.58097">
        <ele>1059</ele>
        <time>2009-07-09T13:56:37Z</time>
      </trkpt>
      <trkpt lat="44.31876" lon="3.58097">
        <ele>1059</ele>
        <time>2009-07-09T13:57:06Z</time>
      </trkpt>
      <trkpt lat="44.31874" lon="3.58099">
        <ele>1060</ele>
        <time>2009-07-09T13:57:29Z</time>
      </trkpt>
      <trkpt lat="44.31873" lon="3.581">
        <ele>1060</ele>
        <time>2009-07-09T13:57:39Z</time>
      </trkpt>
      <trkpt lat="44.31849" lon="3.58139">
        <ele>1059</ele>
        <time>2009-07-09T13:57:53Z</time>
      </trkpt>
      <trkpt lat="44.31828" lon="3.58173">
        <ele>1055</ele>
        <time>2009-07-09T13:58:03Z</time>
      </trkpt>
      <trkpt lat="44.31824" lon="3.58187">
        <ele>1053</ele>
        <time>2009-07-09T13:58:07Z</time>
      </trkpt>
      <trkpt lat="44.31804" lon="3.58219">
        <ele>1056</ele>
        <time>2009-07-09T13:58:17Z</time>
      </trkpt>
      <trkpt lat="44.31799" lon="3.58226">
        <ele>1058</ele>
        <time>2009-07-09T13:58:20Z</time>
      </trkpt>
      <trkpt lat="44.3179" lon="3.58243">
        <ele>1058</ele>
        <time>2009-07-09T13:58:27Z</time>
      </trkpt>
      <trkpt lat="44.31784" lon="3.58247">
        <ele>1061</ele>
        <time>2009-07-09T13:58:35Z</time>
      </trkpt>
      <trkpt lat="44.31782" lon="3.58248">
        <ele>1060</ele>
        <time>2009-07-09T13:58:51Z</time>
      </trkpt>
      <trkpt lat="44.3178" lon="3.58254">
        <ele>1060</ele>
        <time>2009-07-09T13:58:55Z</time>
      </trkpt>
      <trkpt lat="44.31767" lon="3.58279">
        <ele>1063</ele>
        <time>2009-07-09T13:59:07Z</time>
      </trkpt>
      <trkpt lat="44.31752" lon="3.58308">
        <ele>1064</ele>
        <time>2009-07-09T13:59:21Z</time>
      </trkpt>
      <trkpt lat="44.3175" lon="3.58313">
        <ele>1064</ele>
        <time>2009-07-09T13:59:32Z</time>
      </trkpt>
      <trkpt lat="44.31743" lon="3.58331">
        <ele>1065</ele>
        <time>2009-07-09T13:59:47Z</time>
      </trkpt>
      <trkpt lat="44.3174" lon="3.58338">
        <ele>1065</ele>
        <time>2009-07-09T13:59:58Z</time>
      </trkpt>
      <trkpt lat="44.31733" lon="3.58355">
        <ele>1067</ele>
        <time>2009-07-09T14:00:09Z</time>
      </trkpt>
      <trkpt lat="44.31711" lon="3.58389">
        <ele>1070</ele>
        <time>2009-07-09T14:00:24Z</time>
      </trkpt>
      <trkpt lat="44.31685" lon="3.58416">
        <ele>1073</ele>
        <time>2009-07-09T14:00:39Z</time>
      </trkpt>
      <trkpt lat="44.31673" lon="3.58427">
        <ele>1074</ele>
        <time>2009-07-09T14:00:53Z</time>
      </trkpt>
      <trkpt lat="44.31667" lon="3.58433">
        <ele>1074</ele>
        <time>2009-07-09T14:02:01Z</time>
      </trkpt>
      <trkpt lat="44.31665" lon="3.58435">
        <ele>1074</ele>
        <time>2009-07-09T14:02:02Z</time>
      </trkpt>
      <trkpt lat="44.31647" lon="3.58453">
        <ele>1077</ele>
        <time>2009-07-09T14:02:11Z</time>
      </trkpt>
      <trkpt lat="44.31617" lon="3.58481">
        <ele>1080</ele>
        <time>2009-07-09T14:02:28Z</time>
      </trkpt>
      <trkpt lat="44.31599" lon="3.58501">
        <ele>1083</ele>
        <time>2009-07-09T14:02:40Z</time>
      </trkpt>
      <trkpt lat="44.31583" lon="3.58526">
        <ele>1085</ele>
        <time>2009-07-09T14:02:57Z</time>
      </trkpt>
      <trkpt lat="44.31583" lon="3.58525">
        <ele>1084</ele>
        <time>2009-07-09T14:03:20Z</time>
      </trkpt>
      <trkpt lat="44.31583" lon="3.58525">
        <ele>1087</ele>
        <time>2009-07-09T14:03:21Z</time>
      </trkpt>
      <trkpt lat="44.31583" lon="3.58525">
        <ele>1084</ele>
        <time>2009-07-09T14:03:25Z</time>
      </trkpt>
      <trkpt lat="44.31583" lon="3.58525">
        <ele>1088</ele>
        <time>2009-07-09T14:03:30Z</time>
      </trkpt>
      <trkpt lat="44.31583" lon="3.58525">
        <ele>1083</ele>
        <time>2009-07-09T14:03:31Z</time>
      </trkpt>
      <trkpt lat="44.31583" lon="3.58525">
        <ele>1086</ele>
        <time>2009-07-09T14:03:33Z</time>
      </trkpt>
      <trkpt lat="44.31583" lon="3.58526">
        <ele>1086</ele>
        <time>2009-07-09T14:04:30Z</time>
      </trkpt>
      <trkpt lat="44.31581" lon="3.58527">
        <ele>1085</ele>
        <time>2009-07-09T14:04:57Z</time>
      </trkpt>
      <trkpt lat="44.31581" lon="3.58525">
        <ele>1083</ele>
        <time>2009-07-09T14:05:09Z</time>
      </trkpt>
      <trkpt lat="44.31581" lon="3.58524">
        <ele>1085</ele>
        <time>2009-07-09T14:05:11Z</time>
      </trkpt>
      <trkpt lat="44.31574" lon="3.58517">
        <ele>1083</ele>
        <time>2009-07-09T14:05:15Z</time>
      </trkpt>
      <trkpt lat="44.31552" lon="3.58502">
        <ele>1082</ele>
        <time>2009-07-09T14:05:21Z</time>
      </trkpt>
      <trkpt lat="44.31539" lon="3.58498">
        <ele>1079</ele>
        <time>2009-07-09T14:05:24Z</time>
      </trkpt>
      <trkpt lat="44.315" lon="3.58476">
        <ele>1072</ele>
        <time>2009-07-09T14:05:31Z</time>
      </trkpt>
      <trkpt lat="44.3147" lon="3.5846">
        <ele>1068</ele>
        <time>2009-07-09T14:05:36Z</time>
      </trkpt>
      <trkpt lat="44.31464" lon="3.58457">
        <ele>1066</ele>
        <time>2009-07-09T14:05:37Z</time>
      </trkpt>
      <trkpt lat="44.31416" lon="3.58433">
        <ele>1065</ele>
        <time>2009-07-09T14:05:44Z</time>
      </trkpt>
      <trkpt lat="44.31398" lon="3.58421">
        <ele>1063</ele>
        <time>2009-07-09T14:05:47Z</time>
      </trkpt>
      <trkpt lat="44.31355" lon="3.58407">
        <ele>1060</ele>
        <time>2009-07-09T14:05:54Z</time>
      </trkpt>
      <trkpt lat="44.31349" lon="3.58405">
        <ele>1060</ele>
        <time>2009-07-09T14:05:55Z</time>
      </trkpt>
      <trkpt lat="44.31333" lon="3.58395">
        <ele>1058</ele>
        <time>2009-07-09T14:05:58Z</time>
      </trkpt>
      <trkpt lat="44.3129" lon="3.58376">
        <ele>1059</ele>
        <time>2009-07-09T14:06:08Z</time>
      </trkpt>
      <trkpt lat="44.31241" lon="3.58381">
        <ele>1058</ele>
        <time>2009-07-09T14:06:22Z</time>
      </trkpt>
      <trkpt lat="44.3122" lon="3.58377">
        <ele>1058</ele>
        <time>2009-07-09T14:06:28Z</time>
      </trkpt>
      <trkpt lat="44.31165" lon="3.58364">
        <ele>1057</ele>
        <time>2009-07-09T14:06:43Z</time>
      </trkpt>
      <trkpt lat="44.3113" lon="3.58379">
        <ele>1057</ele>
        <time>2009-07-09T14:06:55Z</time>
      </trkpt>
      <trkpt lat="44.31092" lon="3.58406">
        <ele>1059</ele>
        <time>2009-07-09T14:07:09Z</time>
      </trkpt>
      <trkpt lat="44.31047" lon="3.58416">
        <ele>1060</ele>
        <time>2009-07-09T14:07:24Z</time>
      </trkpt>
      <trkpt lat="44.31031" lon="3.58419">
        <ele>1059</ele>
        <time>2009-07-09T14:07:29Z</time>
      </trkpt>
      <trkpt lat="44.30985" lon="3.58432">
        <ele>1057</ele>
        <time>2009-07-09T14:07:43Z</time>
      </trkpt>
      <trkpt lat="44.30942" lon="3.58423">
        <ele>1057</ele>
        <time>2009-07-09T14:07:56Z</time>
      </trkpt>
      <trkpt lat="44.30914" lon="3.58415">
        <ele>1055</ele>
        <time>2009-07-09T14:08:06Z</time>
      </trkpt>
      <trkpt lat="44.30885" lon="3.58412">
        <ele>1056</ele>
        <time>2009-07-09T14:08:18Z</time>
      </trkpt>
      <trkpt lat="44.30877" lon="3.5841">
        <ele>1059</ele>
        <time>2009-07-09T14:08:23Z</time>
      </trkpt>
      <trkpt lat="44.30874" lon="3.58411">
        <ele>1060</ele>
        <time>2009-07-09T14:08:25Z</time>
      </trkpt>
      <trkpt lat="44.30853" lon="3.58409">
        <ele>1063</ele>
        <time>2009-07-09T14:08:38Z</time>
      </trkpt>
      <trkpt lat="44.30828" lon="3.58398">
        <ele>1066</ele>
        <time>2009-07-09T14:08:54Z</time>
      </trkpt>
      <trkpt lat="44.30793" lon="3.5841">
        <ele>1066</ele>
        <time>2009-07-09T14:09:09Z</time>
      </trkpt>
      <trkpt lat="44.30758" lon="3.58424">
        <ele>1067</ele>
        <time>2009-07-09T14:09:22Z</time>
      </trkpt>
      <trkpt lat="44.30744" lon="3.58421">
        <ele>1066</ele>
        <time>2009-07-09T14:09:27Z</time>
      </trkpt>
      <trkpt lat="44.3071" lon="3.58407">
        <ele>1066</ele>
        <time>2009-07-09T14:09:39Z</time>
      </trkpt>
      <trkpt lat="44.30695" lon="3.58391">
        <ele>1063</ele>
        <time>2009-07-09T14:09:45Z</time>
      </trkpt>
      <trkpt lat="44.30693" lon="3.58389">
        <ele>1062</ele>
        <time>2009-07-09T14:09:46Z</time>
      </trkpt>
      <trkpt lat="44.30661" lon="3.58399">
        <ele>1065</ele>
        <time>2009-07-09T14:09:56Z</time>
      </trkpt>
      <trkpt lat="44.30627" lon="3.58406">
        <ele>1064</ele>
        <time>2009-07-09T14:10:07Z</time>
      </trkpt>
      <trkpt lat="44.30581" lon="3.58415">
        <ele>1063</ele>
        <time>2009-07-09T14:10:22Z</time>
      </trkpt>
      <trkpt lat="44.30552" lon="3.5842">
        <ele>1060</ele>
        <time>2009-07-09T14:10:31Z</time>
      </trkpt>
      <trkpt lat="44.30539" lon="3.58421">
        <ele>1059</ele>
        <time>2009-07-09T14:10:36Z</time>
      </trkpt>
      <trkpt lat="44.30513" lon="3.58437">
        <ele>1058</ele>
        <time>2009-07-09T14:10:47Z</time>
      </trkpt>
      <trkpt lat="44.30511" lon="3.58438">
        <ele>1058</ele>
        <time>2009-07-09T14:10:48Z</time>
      </trkpt>
      <trkpt lat="44.30493" lon="3.58446">
        <ele>1059</ele>
        <time>2009-07-09T14:10:57Z</time>
      </trkpt>
      <trkpt lat="44.30487" lon="3.58451">
        <ele>1063</ele>
        <time>2009-07-09T14:11:01Z</time>
      </trkpt>
      <trkpt lat="44.30485" lon="3.58451">
        <ele>1063</ele>
        <time>2009-07-09T14:11:02Z</time>
      </trkpt>
      <trkpt lat="44.30475" lon="3.58449">
        <ele>1065</ele>
        <time>2009-07-09T14:11:09Z</time>
      </trkpt>
      <trkpt lat="44.30454" lon="3.58441">
        <ele>1068</ele>
        <time>2009-07-09T14:11:23Z</time>
      </trkpt>
      <trkpt lat="44.30446" lon="3.58436">
        <ele>1070</ele>
        <time>2009-07-09T14:11:29Z</time>
      </trkpt>
      <trkpt lat="44.30431" lon="3.58429">
        <ele>1073</ele>
        <time>2009-07-09T14:11:41Z</time>
      </trkpt>
      <trkpt lat="44.30427" lon="3.58427">
        <ele>1075</ele>
        <time>2009-07-09T14:11:44Z</time>
      </trkpt>
      <trkpt lat="44.30421" lon="3.58425">
        <ele>1078</ele>
        <time>2009-07-09T14:11:49Z</time>
      </trkpt>
      <trkpt lat="44.30415" lon="3.58423">
        <ele>1079</ele>
        <time>2009-07-09T14:11:54Z</time>
      </trkpt>
      <trkpt lat="44.30392" lon="3.58428">
        <ele>1079</ele>
        <time>2009-07-09T14:12:10Z</time>
      </trkpt>
      <trkpt lat="44.30379" lon="3.58428">
        <ele>1081</ele>
        <time>2009-07-09T14:12:25Z</time>
      </trkpt>
      <trkpt lat="44.30379" lon="3.58428">
        <ele>1081</ele>
        <time>2009-07-09T14:12:28Z</time>
      </trkpt>
      <trkpt lat="44.30366" lon="3.58429">
        <ele>1082</ele>
        <time>2009-07-09T14:12:43Z</time>
      </trkpt>
      <trkpt lat="44.3036" lon="3.58427">
        <ele>1083</ele>
        <time>2009-07-09T14:12:54Z</time>
      </trkpt>
      <trkpt lat="44.30353" lon="3.58425">
        <ele>1084</ele>
        <time>2009-07-09T14:13:01Z</time>
      </trkpt>
      <trkpt lat="44.30343" lon="3.58421">
        <ele>1084</ele>
        <time>2009-07-09T14:13:15Z</time>
      </trkpt>
      <trkpt lat="44.30333" lon="3.58417">
        <ele>1087</ele>
        <time>2009-07-09T14:13:29Z</time>
      </trkpt>
      <trkpt lat="44.30326" lon="3.58418">
        <ele>1086</ele>
        <time>2009-07-09T14:13:44Z</time>
      </trkpt>
      <trkpt lat="44.3032" lon="3.58415">
        <ele>1088</ele>
        <time>2009-07-09T14:13:55Z</time>
      </trkpt>
      <trkpt lat="44.30313" lon="3.58415">
        <ele>1087</ele>
        <time>2009-07-09T14:14:08Z</time>
      </trkpt>
      <trkpt lat="44.30307" lon="3.58412">
        <ele>1089</ele>
        <time>2009-07-09T14:14:52Z</time>
      </trkpt>
      <trkpt lat="44.30305" lon="3.58409">
        <ele>1092</ele>
        <time>2009-07-09T14:15:02Z</time>
      </trkpt>
      <trkpt lat="44.30304" lon="3.58407">
        <ele>1093</ele>
        <time>2009-07-09T14:15:16Z</time>
      </trkpt>
      <trkpt lat="44.30307" lon="3.58406">
        <ele>1093</ele>
        <time>2009-07-09T14:15:20Z</time>
      </trkpt>
      <trkpt lat="44.30316" lon="3.58405">
        <ele>1094</ele>
        <time>2009-07-09T14:15:36Z</time>
      </trkpt>
      <trkpt lat="44.30316" lon="3.58402">
        <ele>1097</ele>
        <time>2009-07-09T14:15:45Z</time>
      </trkpt>
      <trkpt lat="44.30311" lon="3.584">
        <ele>1098</ele>
        <time>2009-07-09T14:15:49Z</time>
      </trkpt>
      <trkpt lat="44.303" lon="3.58398">
        <ele>1097</ele>
        <time>2009-07-09T14:16:00Z</time>
      </trkpt>
      <trkpt lat="44.30291" lon="3.58387">
        <ele>1100</ele>
        <time>2009-07-09T14:16:13Z</time>
      </trkpt>
      <trkpt lat="44.30289" lon="3.58387">
        <ele>1101</ele>
        <time>2009-07-09T14:16:15Z</time>
      </trkpt>
      <trkpt lat="44.30288" lon="3.58387">
        <ele>1101</ele>
        <time>2009-07-09T14:16:21Z</time>
      </trkpt>
      <trkpt lat="44.30268" lon="3.58384">
        <ele>1105</ele>
        <time>2009-07-09T14:16:34Z</time>
      </trkpt>
      <trkpt lat="44.30266" lon="3.58383">
        <ele>1105</ele>
        <time>2009-07-09T14:16:35Z</time>
      </trkpt>
      <trkpt lat="44.30262" lon="3.58381">
        <ele>1107</ele>
        <time>2009-07-09T14:16:38Z</time>
      </trkpt>
      <trkpt lat="44.30239" lon="3.5838">
        <ele>1107</ele>
        <time>2009-07-09T14:16:51Z</time>
      </trkpt>
      <trkpt lat="44.30226" lon="3.58379">
        <ele>1108</ele>
        <time>2009-07-09T14:16:59Z</time>
      </trkpt>
      <trkpt lat="44.30205" lon="3.58384">
        <ele>1108</ele>
        <time>2009-07-09T14:17:11Z</time>
      </trkpt>
      <trkpt lat="44.30176" lon="3.58402">
        <ele>1105</ele>
        <time>2009-07-09T14:17:25Z</time>
      </trkpt>
      <trkpt lat="44.30159" lon="3.58417">
        <ele>1102</ele>
        <time>2009-07-09T14:17:34Z</time>
      </trkpt>
      <trkpt lat="44.30156" lon="3.58422">
        <ele>1100</ele>
        <time>2009-07-09T14:17:36Z</time>
      </trkpt>
      <trkpt lat="44.30147" lon="3.58436">
        <ele>1096</ele>
        <time>2009-07-09T14:17:42Z</time>
      </trkpt>
      <trkpt lat="44.30143" lon="3.58442">
        <ele>1093</ele>
        <time>2009-07-09T14:17:44Z</time>
      </trkpt>
      <trkpt lat="44.30102" lon="3.58484">
        <ele>1091</ele>
        <time>2009-07-09T14:17:58Z</time>
      </trkpt>
      <trkpt lat="44.30072" lon="3.58541">
        <ele>1090</ele>
        <time>2009-07-09T14:18:12Z</time>
      </trkpt>
      <trkpt lat="44.30039" lon="3.58593">
        <ele>1089</ele>
        <time>2009-07-09T14:18:28Z</time>
      </trkpt>
      <trkpt lat="44.30029" lon="3.58613">
        <ele>1088</ele>
        <time>2009-07-09T14:18:33Z</time>
      </trkpt>
      <trkpt lat="44.30029" lon="3.5866">
        <ele>1087</ele>
        <time>2009-07-09T14:18:45Z</time>
      </trkpt>
      <trkpt lat="44.3003" lon="3.58667">
        <ele>1087</ele>
        <time>2009-07-09T14:18:57Z</time>
      </trkpt>
      <trkpt lat="44.30031" lon="3.58667">
        <ele>1087</ele>
        <time>2009-07-09T14:19:37Z</time>
      </trkpt>
      <trkpt lat="44.3003" lon="3.58667">
        <ele>1087</ele>
        <time>2009-07-09T14:19:41Z</time>
      </trkpt>
      <trkpt lat="44.30029" lon="3.58669">
        <ele>1084</ele>
        <time>2009-07-09T14:19:58Z</time>
      </trkpt>
      <trkpt lat="44.30028" lon="3.58669">
        <ele>1087</ele>
        <time>2009-07-09T14:22:09Z</time>
      </trkpt>
      <trkpt lat="44.30028" lon="3.58669">
        <ele>1084</ele>
        <time>2009-07-09T14:23:01Z</time>
      </trkpt>
      <trkpt lat="44.30029" lon="3.58667">
        <ele>1087</ele>
        <time>2009-07-09T14:29:19Z</time>
      </trkpt>
      <trkpt lat="44.30026" lon="3.58674">
        <ele>1087</ele>
        <time>2009-07-09T14:29:34Z</time>
      </trkpt>
      <trkpt lat="44.30011" lon="3.58711">
        <ele>1085</ele>
        <time>2009-07-09T14:29:48Z</time>
      </trkpt>
      <trkpt lat="44.29997" lon="3.58754">
        <ele>1085</ele>
        <time>2009-07-09T14:30:03Z</time>
      </trkpt>
      <trkpt lat="44.29962" lon="3.58768">
        <ele>1084</ele>
        <time>2009-07-09T14:30:18Z</time>
      </trkpt>
      <trkpt lat="44.29932" lon="3.58741">
        <ele>1083</ele>
        <time>2009-07-09T14:30:33Z</time>
      </trkpt>
      <trkpt lat="44.29905" lon="3.58704">
        <ele>1083</ele>
        <time>2009-07-09T14:30:48Z</time>
      </trkpt>
      <trkpt lat="44.29897" lon="3.58702">
        <ele>1082</ele>
        <time>2009-07-09T14:30:51Z</time>
      </trkpt>
      <trkpt lat="44.29885" lon="3.58693">
        <ele>1084</ele>
        <time>2009-07-09T14:30:58Z</time>
      </trkpt>
      <trkpt lat="44.29855" lon="3.58691">
        <ele>1087</ele>
        <time>2009-07-09T14:31:12Z</time>
      </trkpt>
      <trkpt lat="44.29833" lon="3.58676">
        <ele>1090</ele>
        <time>2009-07-09T14:31:24Z</time>
      </trkpt>
      <trkpt lat="44.29805" lon="3.58661">
        <ele>1089</ele>
        <time>2009-07-09T14:31:38Z</time>
      </trkpt>
      <trkpt lat="44.29775" lon="3.58664">
        <ele>1091</ele>
        <time>2009-07-09T14:31:52Z</time>
      </trkpt>
      <trkpt lat="44.29768" lon="3.58668">
        <ele>1090</ele>
        <time>2009-07-09T14:32:03Z</time>
      </trkpt>
      <trkpt lat="44.29768" lon="3.5867">
        <ele>1091</ele>
        <time>2009-07-09T14:32:26Z</time>
      </trkpt>
      <trkpt lat="44.29767" lon="3.5867">
        <ele>1091</ele>
        <time>2009-07-09T14:32:27Z</time>
      </trkpt>
      <trkpt lat="44.29763" lon="3.58665">
        <ele>1091</ele>
        <time>2009-07-09T14:32:33Z</time>
      </trkpt>
      <trkpt lat="44.29762" lon="3.58666">
        <ele>1090</ele>
        <time>2009-07-09T14:33:55Z</time>
      </trkpt>
      <trkpt lat="44.29757" lon="3.58666">
        <ele>1089</ele>
        <time>2009-07-09T14:33:58Z</time>
      </trkpt>
      <trkpt lat="44.29746" lon="3.58673">
        <ele>1088</ele>
        <time>2009-07-09T14:34:02Z</time>
      </trkpt>
      <trkpt lat="44.29724" lon="3.58687">
        <ele>1085</ele>
        <time>2009-07-09T14:34:08Z</time>
      </trkpt>
      <trkpt lat="44.29711" lon="3.58698">
        <ele>1083</ele>
        <time>2009-07-09T14:34:11Z</time>
      </trkpt>
      <trkpt lat="44.29704" lon="3.58708">
        <ele>1082</ele>
        <time>2009-07-09T14:34:13Z</time>
      </trkpt>
      <trkpt lat="44.29691" lon="3.58724">
        <ele>1078</ele>
        <time>2009-07-09T14:34:17Z</time>
      </trkpt>
      <trkpt lat="44.29687" lon="3.58728">
        <ele>1078</ele>
        <time>2009-07-09T14:34:18Z</time>
      </trkpt>
      <trkpt lat="44.29677" lon="3.5874">
        <ele>1074</ele>
        <time>2009-07-09T14:34:21Z</time>
      </trkpt>
      <trkpt lat="44.29669" lon="3.58747">
        <ele>1072</ele>
        <time>2009-07-09T14:34:23Z</time>
      </trkpt>
      <trkpt lat="44.29666" lon="3.58756">
        <ele>1072</ele>
        <time>2009-07-09T14:34:31Z</time>
      </trkpt>
      <trkpt lat="44.29664" lon="3.58761">
        <ele>1073</ele>
        <time>2009-07-09T14:34:49Z</time>
      </trkpt>
      <trkpt lat="44.29664" lon="3.58762">
        <ele>1074</ele>
        <time>2009-07-09T14:35:27Z</time>
      </trkpt>
      <trkpt lat="44.29678" lon="3.58764">
        <ele>1070</ele>
        <time>2009-07-09T14:35:37Z</time>
      </trkpt>
      <trkpt lat="44.29694" lon="3.5876">
        <ele>1066</ele>
        <time>2009-07-09T14:35:46Z</time>
      </trkpt>
      <trkpt lat="44.297" lon="3.58757">
        <ele>1065</ele>
        <time>2009-07-09T14:35:48Z</time>
      </trkpt>
      <trkpt lat="44.29711" lon="3.58755">
        <ele>1062</ele>
        <time>2009-07-09T14:35:52Z</time>
      </trkpt>
      <trkpt lat="44.29714" lon="3.58754">
        <ele>1062</ele>
        <time>2009-07-09T14:35:53Z</time>
      </trkpt>
      <trkpt lat="44.29737" lon="3.58748">
        <ele>1059</ele>
        <time>2009-07-09T14:35:59Z</time>
      </trkpt>
      <trkpt lat="44.29772" lon="3.5874">
        <ele>1055</ele>
        <time>2009-07-09T14:36:09Z</time>
      </trkpt>
      <trkpt lat="44.29796" lon="3.5874">
        <ele>1053</ele>
        <time>2009-07-09T14:36:16Z</time>
      </trkpt>
      <trkpt lat="44.29808" lon="3.58743">
        <ele>1051</ele>
        <time>2009-07-09T14:36:19Z</time>
      </trkpt>
      <trkpt lat="44.2984" lon="3.58767">
        <ele>1048</ele>
        <time>2009-07-09T14:36:28Z</time>
      </trkpt>
      <trkpt lat="44.29846" lon="3.58773">
        <ele>1045</ele>
        <time>2009-07-09T14:36:30Z</time>
      </trkpt>
      <trkpt lat="44.29853" lon="3.5878">
        <ele>1043</ele>
        <time>2009-07-09T14:36:32Z</time>
      </trkpt>
      <trkpt lat="44.29866" lon="3.58788">
        <ele>1039</ele>
        <time>2009-07-09T14:36:35Z</time>
      </trkpt>
      <trkpt lat="44.2987" lon="3.58789">
        <ele>1039</ele>
        <time>2009-07-09T14:36:36Z</time>
      </trkpt>
      <trkpt lat="44.29894" lon="3.58811">
        <ele>1036</ele>
        <time>2009-07-09T14:36:42Z</time>
      </trkpt>
      <trkpt lat="44.29902" lon="3.58836">
        <ele>1034</ele>
        <time>2009-07-09T14:36:47Z</time>
      </trkpt>
      <trkpt lat="44.29903" lon="3.58845">
        <ele>1034</ele>
        <time>2009-07-09T14:36:57Z</time>
      </trkpt>
      <trkpt lat="44.29904" lon="3.58846">
        <ele>1034</ele>
        <time>2009-07-09T14:37:12Z</time>
      </trkpt>
      <trkpt lat="44.29904" lon="3.58846">
        <ele>1033</ele>
        <time>2009-07-09T14:37:23Z</time>
      </trkpt>
      <trkpt lat="44.29901" lon="3.58846">
        <ele>1034</ele>
        <time>2009-07-09T14:37:32Z</time>
      </trkpt>
      <trkpt lat="44.299" lon="3.58845">
        <ele>1033</ele>
        <time>2009-07-09T14:37:34Z</time>
      </trkpt>
      <trkpt lat="44.29884" lon="3.58827">
        <ele>1029</ele>
        <time>2009-07-09T14:37:42Z</time>
      </trkpt>
      <trkpt lat="44.29877" lon="3.58821">
        <ele>1027</ele>
        <time>2009-07-09T14:37:45Z</time>
      </trkpt>
      <trkpt lat="44.29869" lon="3.58819">
        <ele>1026</ele>
        <time>2009-07-09T14:37:49Z</time>
      </trkpt>
      <trkpt lat="44.29873" lon="3.58832">
        <ele>1022</ele>
        <time>2009-07-09T14:37:54Z</time>
      </trkpt>
      <trkpt lat="44.29874" lon="3.58847">
        <ele>1019</ele>
        <time>2009-07-09T14:38:00Z</time>
      </trkpt>
      <trkpt lat="44.29865" lon="3.58838">
        <ele>1017</ele>
        <time>2009-07-09T14:38:05Z</time>
      </trkpt>
      <trkpt lat="44.2986" lon="3.58836">
        <ele>1015</ele>
        <time>2009-07-09T14:38:07Z</time>
      </trkpt>
      <trkpt lat="44.29848" lon="3.58837">
        <ele>1011</ele>
        <time>2009-07-09T14:38:12Z</time>
      </trkpt>
      <trkpt lat="44.29823" lon="3.58834">
        <ele>1008</ele>
        <time>2009-07-09T14:38:20Z</time>
      </trkpt>
      <trkpt lat="44.29809" lon="3.58836">
        <ele>1004</ele>
        <time>2009-07-09T14:38:25Z</time>
      </trkpt>
      <trkpt lat="44.29806" lon="3.58837">
        <ele>1004</ele>
        <time>2009-07-09T14:38:26Z</time>
      </trkpt>
      <trkpt lat="44.29799" lon="3.58837">
        <ele>1004</ele>
        <time>2009-07-09T14:38:29Z</time>
      </trkpt>
      <trkpt lat="44.29797" lon="3.5884">
        <ele>1002</ele>
        <time>2009-07-09T14:38:31Z</time>
      </trkpt>
      <trkpt lat="44.29804" lon="3.58842">
        <ele>1001</ele>
        <time>2009-07-09T14:38:34Z</time>
      </trkpt>
      <trkpt lat="44.29814" lon="3.58847">
        <ele>999</ele>
        <time>2009-07-09T14:38:37Z</time>
      </trkpt>
      <trkpt lat="44.29828" lon="3.58863">
        <ele>995</ele>
        <time>2009-07-09T14:38:43Z</time>
      </trkpt>
      <trkpt lat="44.29832" lon="3.58867">
        <ele>994</ele>
        <time>2009-07-09T14:38:45Z</time>
      </trkpt>
      <trkpt lat="44.29837" lon="3.58873">
        <ele>992</ele>
        <time>2009-07-09T14:38:48Z</time>
      </trkpt>
      <trkpt lat="44.29839" lon="3.58875">
        <ele>991</ele>
        <time>2009-07-09T14:38:49Z</time>
      </trkpt>
      <trkpt lat="44.2983" lon="3.58878">
        <ele>989</ele>
        <time>2009-07-09T14:38:56Z</time>
      </trkpt>
      <trkpt lat="44.29826" lon="3.58878">
        <ele>987</ele>
        <time>2009-07-09T14:38:58Z</time>
      </trkpt>
      <trkpt lat="44.29816" lon="3.58877">
        <ele>984</ele>
        <time>2009-07-09T14:39:02Z</time>
      </trkpt>
      <trkpt lat="44.29814" lon="3.58878">
        <ele>985</ele>
        <time>2009-07-09T14:39:03Z</time>
      </trkpt>
      <trkpt lat="44.29796" lon="3.58882">
        <ele>980</ele>
        <time>2009-07-09T14:39:10Z</time>
      </trkpt>
      <trkpt lat="44.29785" lon="3.58887">
        <ele>977</ele>
        <time>2009-07-09T14:39:14Z</time>
      </trkpt>
      <trkpt lat="44.29782" lon="3.58888">
        <ele>977</ele>
        <time>2009-07-09T14:39:15Z</time>
      </trkpt>
      <trkpt lat="44.2977" lon="3.5889">
        <ele>974</ele>
        <time>2009-07-09T14:39:18Z</time>
      </trkpt>
      <trkpt lat="44.29755" lon="3.58893">
        <ele>972</ele>
        <time>2009-07-09T14:39:22Z</time>
      </trkpt>
      <trkpt lat="44.29747" lon="3.58891">
        <ele>970</ele>
        <time>2009-07-09T14:39:24Z</time>
      </trkpt>
      <trkpt lat="44.29729" lon="3.58893">
        <ele>968</ele>
        <time>2009-07-09T14:39:29Z</time>
      </trkpt>
      <trkpt lat="44.29721" lon="3.58901">
        <ele>968</ele>
        <time>2009-07-09T14:39:32Z</time>
      </trkpt>
      <trkpt lat="44.29714" lon="3.58924">
        <ele>964</ele>
        <time>2009-07-09T14:39:37Z</time>
      </trkpt>
      <trkpt lat="44.29705" lon="3.58937">
        <ele>963</ele>
        <time>2009-07-09T14:39:45Z</time>
      </trkpt>
      <trkpt lat="44.29704" lon="3.58939">
        <ele>962</ele>
        <time>2009-07-09T14:39:57Z</time>
      </trkpt>
      <trkpt lat="44.29704" lon="3.58939">
        <ele>963</ele>
        <time>2009-07-09T14:40:27Z</time>
      </trkpt>
      <trkpt lat="44.29692" lon="3.58943">
        <ele>962</ele>
        <time>2009-07-09T14:41:01Z</time>
      </trkpt>
      <trkpt lat="44.29678" lon="3.58946">
        <ele>957</ele>
        <time>2009-07-09T14:41:05Z</time>
      </trkpt>
      <trkpt lat="44.29664" lon="3.58948">
        <ele>953</ele>
        <time>2009-07-09T14:41:09Z</time>
      </trkpt>
      <trkpt lat="44.29653" lon="3.58952">
        <ele>951</ele>
        <time>2009-07-09T14:41:13Z</time>
      </trkpt>
      <trkpt lat="44.29649" lon="3.58955">
        <ele>949</ele>
        <time>2009-07-09T14:41:15Z</time>
      </trkpt>
      <trkpt lat="44.29635" lon="3.58951">
        <ele>946</ele>
        <time>2009-07-09T14:41:22Z</time>
      </trkpt>
      <trkpt lat="44.29632" lon="3.58948">
        <ele>944</ele>
        <time>2009-07-09T14:41:29Z</time>
      </trkpt>
      <trkpt lat="44.29632" lon="3.58953">
        <ele>943</ele>
        <time>2009-07-09T14:41:36Z</time>
      </trkpt>
      <trkpt lat="44.2963" lon="3.58959">
        <ele>942</ele>
        <time>2009-07-09T14:41:40Z</time>
      </trkpt>
      <trkpt lat="44.29629" lon="3.5896">
        <ele>942</ele>
        <time>2009-07-09T14:41:41Z</time>
      </trkpt>
      <trkpt lat="44.29621" lon="3.58959">
        <ele>940</ele>
        <time>2009-07-09T14:41:55Z</time>
      </trkpt>
      <trkpt lat="44.29621" lon="3.58958">
        <ele>940</ele>
        <time>2009-07-09T14:41:59Z</time>
      </trkpt>
      <trkpt lat="44.29614" lon="3.5895">
        <ele>937</ele>
        <time>2009-07-09T14:42:04Z</time>
      </trkpt>
      <trkpt lat="44.29603" lon="3.58949">
        <ele>932</ele>
        <time>2009-07-09T14:42:10Z</time>
      </trkpt>
      <trkpt lat="44.29601" lon="3.58949">
        <ele>925</ele>
        <time>2009-07-09T14:42:11Z</time>
      </trkpt>
      <trkpt lat="44.29601" lon="3.5895">
        <ele>932</ele>
        <time>2009-07-09T14:42:12Z</time>
      </trkpt>
      <trkpt lat="44.29601" lon="3.5895">
        <ele>933</ele>
        <time>2009-07-09T14:42:14Z</time>
      </trkpt>
      <trkpt lat="44.29602" lon="3.5895">
        <ele>932</ele>
        <time>2009-07-09T14:42:17Z</time>
      </trkpt>
      <trkpt lat="44.29598" lon="3.5895">
        <ele>931</ele>
        <time>2009-07-09T14:42:23Z</time>
      </trkpt>
      <trkpt lat="44.29597" lon="3.58952">
        <ele>929</ele>
        <time>2009-07-09T14:42:25Z</time>
      </trkpt>
      <trkpt lat="44.29598" lon="3.58954">
        <ele>929</ele>
        <time>2009-07-09T14:42:28Z</time>
      </trkpt>
      <trkpt lat="44.29609" lon="3.58964">
        <ele>925</ele>
        <time>2009-07-09T14:42:34Z</time>
      </trkpt>
      <trkpt lat="44.29614" lon="3.5897">
        <ele>925</ele>
        <time>2009-07-09T14:42:37Z</time>
      </trkpt>
      <trkpt lat="44.29621" lon="3.58991">
        <ele>921</ele>
        <time>2009-07-09T14:42:45Z</time>
      </trkpt>
      <trkpt lat="44.29621" lon="3.58998">
        <ele>920</ele>
        <time>2009-07-09T14:42:47Z</time>
      </trkpt>
      <trkpt lat="44.29621" lon="3.59004">
        <ele>920</ele>
        <time>2009-07-09T14:42:49Z</time>
      </trkpt>
      <trkpt lat="44.29617" lon="3.59008">
        <ele>918</ele>
        <time>2009-07-09T14:42:52Z</time>
      </trkpt>
      <trkpt lat="44.29614" lon="3.59004">
        <ele>917</ele>
        <time>2009-07-09T14:42:54Z</time>
      </trkpt>
      <trkpt lat="44.29596" lon="3.58986">
        <ele>914</ele>
        <time>2009-07-09T14:43:03Z</time>
      </trkpt>
      <trkpt lat="44.2958" lon="3.58982">
        <ele>911</ele>
        <time>2009-07-09T14:43:09Z</time>
      </trkpt>
      <trkpt lat="44.29573" lon="3.58981">
        <ele>909</ele>
        <time>2009-07-09T14:43:12Z</time>
      </trkpt>
      <trkpt lat="44.29558" lon="3.5898">
        <ele>907</ele>
        <time>2009-07-09T14:43:18Z</time>
      </trkpt>
      <trkpt lat="44.29546" lon="3.58979">
        <ele>905</ele>
        <time>2009-07-09T14:43:24Z</time>
      </trkpt>
      <trkpt lat="44.29535" lon="3.5898">
        <ele>904</ele>
        <time>2009-07-09T14:43:29Z</time>
      </trkpt>
      <trkpt lat="44.29534" lon="3.58983">
        <ele>903</ele>
        <time>2009-07-09T14:43:31Z</time>
      </trkpt>
      <trkpt lat="44.29537" lon="3.58985">
        <ele>901</ele>
        <time>2009-07-09T14:43:33Z</time>
      </trkpt>
      <trkpt lat="44.29545" lon="3.5899">
        <ele>900</ele>
        <time>2009-07-09T14:43:37Z</time>
      </trkpt>
      <trkpt lat="44.29555" lon="3.59">
        <ele>897</ele>
        <time>2009-07-09T14:43:43Z</time>
      </trkpt>
      <trkpt lat="44.29557" lon="3.59001">
        <ele>897</ele>
        <time>2009-07-09T14:43:44Z</time>
      </trkpt>
      <trkpt lat="44.29562" lon="3.59004">
        <ele>895</ele>
        <time>2009-07-09T14:43:46Z</time>
      </trkpt>
      <trkpt lat="44.29577" lon="3.59011">
        <ele>894</ele>
        <time>2009-07-09T14:43:53Z</time>
      </trkpt>
      <trkpt lat="44.29578" lon="3.59017">
        <ele>890</ele>
        <time>2009-07-09T14:43:57Z</time>
      </trkpt>
      <trkpt lat="44.29574" lon="3.59019">
        <ele>889</ele>
        <time>2009-07-09T14:43:59Z</time>
      </trkpt>
      <trkpt lat="44.29562" lon="3.59021">
        <ele>888</ele>
        <time>2009-07-09T14:44:10Z</time>
      </trkpt>
      <trkpt lat="44.29562" lon="3.59021">
        <ele>887</ele>
        <time>2009-07-09T14:44:41Z</time>
      </trkpt>
      <trkpt lat="44.29561" lon="3.59022">
        <ele>886</ele>
        <time>2009-07-09T14:46:49Z</time>
      </trkpt>
      <trkpt lat="44.29561" lon="3.5902">
        <ele>885</ele>
        <time>2009-07-09T14:47:59Z</time>
      </trkpt>
      <trkpt lat="44.2955" lon="3.59022">
        <ele>884</ele>
        <time>2009-07-09T14:48:14Z</time>
      </trkpt>
      <trkpt lat="44.29548" lon="3.59023">
        <ele>884</ele>
        <time>2009-07-09T14:48:15Z</time>
      </trkpt>
      <trkpt lat="44.29542" lon="3.5902">
        <ele>883</ele>
        <time>2009-07-09T14:48:18Z</time>
      </trkpt>
      <trkpt lat="44.29536" lon="3.59021">
        <ele>880</ele>
        <time>2009-07-09T14:48:21Z</time>
      </trkpt>
      <trkpt lat="44.29527" lon="3.59024">
        <ele>878</ele>
        <time>2009-07-09T14:48:25Z</time>
      </trkpt>
      <trkpt lat="44.29514" lon="3.59031">
        <ele>874</ele>
        <time>2009-07-09T14:48:30Z</time>
      </trkpt>
      <trkpt lat="44.29504" lon="3.59036">
        <ele>872</ele>
        <time>2009-07-09T14:48:34Z</time>
      </trkpt>
      <trkpt lat="44.29483" lon="3.59041">
        <ele>868</ele>
        <time>2009-07-09T14:48:42Z</time>
      </trkpt>
      <trkpt lat="44.29473" lon="3.59041">
        <ele>867</ele>
        <time>2009-07-09T14:48:45Z</time>
      </trkpt>
      <trkpt lat="44.29449" lon="3.59045">
        <ele>864</ele>
        <time>2009-07-09T14:48:53Z</time>
      </trkpt>
      <trkpt lat="44.2944" lon="3.59046">
        <ele>860</ele>
        <time>2009-07-09T14:48:57Z</time>
      </trkpt>
      <trkpt lat="44.29437" lon="3.59047">
        <ele>860</ele>
        <time>2009-07-09T14:48:58Z</time>
      </trkpt>
      <trkpt lat="44.29423" lon="3.59051">
        <ele>857</ele>
        <time>2009-07-09T14:49:04Z</time>
      </trkpt>
      <trkpt lat="44.29421" lon="3.59052">
        <ele>857</ele>
        <time>2009-07-09T14:49:05Z</time>
      </trkpt>
      <trkpt lat="44.29413" lon="3.59052">
        <ele>854</ele>
        <time>2009-07-09T14:49:08Z</time>
      </trkpt>
      <trkpt lat="44.29407" lon="3.59056">
        <ele>853</ele>
        <time>2009-07-09T14:49:11Z</time>
      </trkpt>
      <trkpt lat="44.29398" lon="3.59058">
        <ele>850</ele>
        <time>2009-07-09T14:49:15Z</time>
      </trkpt>
      <trkpt lat="44.29392" lon="3.59058">
        <ele>849</ele>
        <time>2009-07-09T14:49:17Z</time>
      </trkpt>
      <trkpt lat="44.29388" lon="3.59058">
        <ele>847</ele>
        <time>2009-07-09T14:49:19Z</time>
      </trkpt>
      <trkpt lat="44.29386" lon="3.5906">
        <ele>846</ele>
        <time>2009-07-09T14:49:21Z</time>
      </trkpt>
      <trkpt lat="44.29388" lon="3.59067">
        <ele>843</ele>
        <time>2009-07-09T14:49:24Z</time>
      </trkpt>
      <trkpt lat="44.29389" lon="3.59071">
        <ele>843</ele>
        <time>2009-07-09T14:49:25Z</time>
      </trkpt>
      <trkpt lat="44.29404" lon="3.5908">
        <ele>841</ele>
        <time>2009-07-09T14:49:31Z</time>
      </trkpt>
      <trkpt lat="44.29409" lon="3.59081">
        <ele>840</ele>
        <time>2009-07-09T14:49:33Z</time>
      </trkpt>
      <trkpt lat="44.29411" lon="3.59086">
        <ele>838</ele>
        <time>2009-07-09T14:49:35Z</time>
      </trkpt>
      <trkpt lat="44.29398" lon="3.59096">
        <ele>835</ele>
        <time>2009-07-09T14:49:40Z</time>
      </trkpt>
      <trkpt lat="44.29394" lon="3.59097">
        <ele>833</ele>
        <time>2009-07-09T14:49:41Z</time>
      </trkpt>
      <trkpt lat="44.29385" lon="3.59099">
        <ele>831</ele>
        <time>2009-07-09T14:49:44Z</time>
      </trkpt>
      <trkpt lat="44.29385" lon="3.59094">
        <ele>832</ele>
        <time>2009-07-09T14:49:57Z</time>
      </trkpt>
      <trkpt lat="44.29386" lon="3.59095">
        <ele>831</ele>
        <time>2009-07-09T14:50:10Z</time>
      </trkpt>
      <trkpt lat="44.29386" lon="3.59096">
        <ele>830</ele>
        <time>2009-07-09T14:50:57Z</time>
      </trkpt>
      <trkpt lat="44.29387" lon="3.59098">
        <ele>831</ele>
        <time>2009-07-09T14:51:19Z</time>
      </trkpt>
      <trkpt lat="44.29387" lon="3.59102">
        <ele>831</ele>
        <time>2009-07-09T14:51:26Z</time>
      </trkpt>
      <trkpt lat="44.29389" lon="3.59105">
        <ele>830</ele>
        <time>2009-07-09T14:51:29Z</time>
      </trkpt>
      <trkpt lat="44.2939" lon="3.59104">
        <ele>828</ele>
        <time>2009-07-09T14:51:54Z</time>
      </trkpt>
      <trkpt lat="44.29394" lon="3.59102">
        <ele>830</ele>
        <time>2009-07-09T14:53:30Z</time>
      </trkpt>
      <trkpt lat="44.29415" lon="3.59119">
        <ele>825</ele>
        <time>2009-07-09T14:53:38Z</time>
      </trkpt>
      <trkpt lat="44.29424" lon="3.59129">
        <ele>822</ele>
        <time>2009-07-09T14:53:40Z</time>
      </trkpt>
      <trkpt lat="44.29447" lon="3.5916">
        <ele>819</ele>
        <time>2009-07-09T14:53:45Z</time>
      </trkpt>
      <trkpt lat="44.29467" lon="3.59188">
        <ele>815</ele>
        <time>2009-07-09T14:53:52Z</time>
      </trkpt>
      <trkpt lat="44.29473" lon="3.5919">
        <ele>813</ele>
        <time>2009-07-09T14:53:54Z</time>
      </trkpt>
      <trkpt lat="44.29495" lon="3.59187">
        <ele>808</ele>
        <time>2009-07-09T14:53:58Z</time>
      </trkpt>
      <trkpt lat="44.29502" lon="3.59184">
        <ele>808</ele>
        <time>2009-07-09T14:53:59Z</time>
      </trkpt>
      <trkpt lat="44.29514" lon="3.59174">
        <ele>805</ele>
        <time>2009-07-09T14:54:01Z</time>
      </trkpt>
      <trkpt lat="44.29549" lon="3.59179">
        <ele>802</ele>
        <time>2009-07-09T14:54:07Z</time>
      </trkpt>
      <trkpt lat="44.2956" lon="3.59188">
        <ele>801</ele>
        <time>2009-07-09T14:54:09Z</time>
      </trkpt>
      <trkpt lat="44.29576" lon="3.59206">
        <ele>800</ele>
        <time>2009-07-09T14:54:12Z</time>
      </trkpt>
      <trkpt lat="44.29605" lon="3.59249">
        <ele>798</ele>
        <time>2009-07-09T14:54:18Z</time>
      </trkpt>
      <trkpt lat="44.29629" lon="3.59267">
        <ele>794</ele>
        <time>2009-07-09T14:54:22Z</time>
      </trkpt>
      <trkpt lat="44.29649" lon="3.59275">
        <ele>790</ele>
        <time>2009-07-09T14:54:25Z</time>
      </trkpt>
      <trkpt lat="44.29662" lon="3.59279">
        <ele>788</ele>
        <time>2009-07-09T14:54:27Z</time>
      </trkpt>
      <trkpt lat="44.29692" lon="3.59274">
        <ele>784</ele>
        <time>2009-07-09T14:54:32Z</time>
      </trkpt>
      <trkpt lat="44.29723" lon="3.59273">
        <ele>782</ele>
        <time>2009-07-09T14:54:37Z</time>
      </trkpt>
      <trkpt lat="44.29738" lon="3.5929">
        <ele>781</ele>
        <time>2009-07-09T14:54:40Z</time>
      </trkpt>
      <trkpt lat="44.2975" lon="3.59297">
        <ele>780</ele>
        <time>2009-07-09T14:54:42Z</time>
      </trkpt>
      <trkpt lat="44.29782" lon="3.59329">
        <ele>782</ele>
        <time>2009-07-09T14:54:51Z</time>
      </trkpt>
      <trkpt lat="44.29804" lon="3.5936">
        <ele>786</ele>
        <time>2009-07-09T14:55:04Z</time>
      </trkpt>
      <trkpt lat="44.29818" lon="3.59377">
        <ele>788</ele>
        <time>2009-07-09T14:55:16Z</time>
      </trkpt>
      <trkpt lat="44.29815" lon="3.59379">
        <ele>787</ele>
        <time>2009-07-09T14:55:29Z</time>
      </trkpt>
      <trkpt lat="44.29815" lon="3.59379">
        <ele>791</ele>
        <time>2009-07-09T14:55:40Z</time>
      </trkpt>
      <trkpt lat="44.29815" lon="3.59379">
        <ele>791</ele>
        <time>2009-07-09T14:55:41Z</time>
      </trkpt>
      <trkpt lat="44.29815" lon="3.59379">
        <ele>788</ele>
        <time>2009-07-09T14:55:42Z</time>
      </trkpt>
      <trkpt lat="44.29815" lon="3.59379">
        <ele>791</ele>
        <time>2009-07-09T14:55:45Z</time>
      </trkpt>
      <trkpt lat="44.29815" lon="3.59379">
        <ele>788</ele>
        <time>2009-07-09T14:55:46Z</time>
      </trkpt>
      <trkpt lat="44.29813" lon="3.59378">
        <ele>787</ele>
        <time>2009-07-09T14:56:20Z</time>
      </trkpt>
      <trkpt lat="44.29821" lon="3.59387">
        <ele>788</ele>
        <time>2009-07-09T14:56:32Z</time>
      </trkpt>
      <trkpt lat="44.2983" lon="3.59397">
        <ele>789</ele>
        <time>2009-07-09T14:56:37Z</time>
      </trkpt>
      <trkpt lat="44.29849" lon="3.59418">
        <ele>793</ele>
        <time>2009-07-09T14:56:48Z</time>
      </trkpt>
      <trkpt lat="44.29886" lon="3.5944">
        <ele>794</ele>
        <time>2009-07-09T14:57:05Z</time>
      </trkpt>
      <trkpt lat="44.29923" lon="3.59433">
        <ele>791</ele>
        <time>2009-07-09T14:57:17Z</time>
      </trkpt>
      <trkpt lat="44.29942" lon="3.59427">
        <ele>790</ele>
        <time>2009-07-09T14:57:21Z</time>
      </trkpt>
      <trkpt lat="44.29963" lon="3.59428">
        <ele>789</ele>
        <time>2009-07-09T14:57:25Z</time>
      </trkpt>
      <trkpt lat="44.29998" lon="3.59441">
        <ele>786</ele>
        <time>2009-07-09T14:57:31Z</time>
      </trkpt>
      <trkpt lat="44.30028" lon="3.59431">
        <ele>785</ele>
        <time>2009-07-09T14:57:36Z</time>
      </trkpt>
      <trkpt lat="44.30092" lon="3.59378">
        <ele>782</ele>
        <time>2009-07-09T14:57:48Z</time>
      </trkpt>
      <trkpt lat="44.30112" lon="3.59353">
        <ele>780</ele>
        <time>2009-07-09T14:57:52Z</time>
      </trkpt>
      <trkpt lat="44.30123" lon="3.59328">
        <ele>778</ele>
        <time>2009-07-09T14:57:55Z</time>
      </trkpt>
      <trkpt lat="44.30125" lon="3.59318">
        <ele>778</ele>
        <time>2009-07-09T14:57:56Z</time>
      </trkpt>
      <trkpt lat="44.30144" lon="3.59234">
        <ele>777</ele>
        <time>2009-07-09T14:58:06Z</time>
      </trkpt>
      <trkpt lat="44.30173" lon="3.59195">
        <ele>776</ele>
        <time>2009-07-09T14:58:13Z</time>
      </trkpt>
      <trkpt lat="44.30177" lon="3.59191">
        <ele>777</ele>
        <time>2009-07-09T14:58:21Z</time>
      </trkpt>
      <trkpt lat="44.30175" lon="3.59191">
        <ele>774</ele>
        <time>2009-07-09T14:58:42Z</time>
      </trkpt>
      <trkpt lat="44.30176" lon="3.59187">
        <ele>774</ele>
        <time>2009-07-09T14:58:51Z</time>
      </trkpt>
      <trkpt lat="44.30179" lon="3.59185">
        <ele>774</ele>
        <time>2009-07-09T14:59:06Z</time>
      </trkpt>
      <trkpt lat="44.3019" lon="3.59177">
        <ele>774</ele>
        <time>2009-07-09T15:00:39Z</time>
      </trkpt>
      <trkpt lat="44.30195" lon="3.59172">
        <ele>773</ele>
        <time>2009-07-09T15:00:41Z</time>
      </trkpt>
      <trkpt lat="44.3023" lon="3.59157">
        <ele>772</ele>
        <time>2009-07-09T15:00:52Z</time>
      </trkpt>
      <trkpt lat="44.30266" lon="3.59157">
        <ele>770</ele>
        <time>2009-07-09T15:00:59Z</time>
      </trkpt>
      <trkpt lat="44.30301" lon="3.59128">
        <ele>768</ele>
        <time>2009-07-09T15:01:07Z</time>
      </trkpt>
      <trkpt lat="44.30325" lon="3.59105">
        <ele>766</ele>
        <time>2009-07-09T15:01:12Z</time>
      </trkpt>
      <trkpt lat="44.30347" lon="3.59082">
        <ele>763</ele>
        <time>2009-07-09T15:01:16Z</time>
      </trkpt>
      <trkpt lat="44.30366" lon="3.59064">
        <ele>760</ele>
        <time>2009-07-09T15:01:19Z</time>
      </trkpt>
      <trkpt lat="44.30385" lon="3.59047">
        <ele>758</ele>
        <time>2009-07-09T15:01:22Z</time>
      </trkpt>
      <trkpt lat="44.30403" lon="3.59028">
        <ele>756</ele>
        <time>2009-07-09T15:01:25Z</time>
      </trkpt>
      <trkpt lat="44.30418" lon="3.59023">
        <ele>756</ele>
        <time>2009-07-09T15:01:27Z</time>
      </trkpt>
      <trkpt lat="44.30456" lon="3.59032">
        <ele>755</ele>
        <time>2009-07-09T15:01:32Z</time>
      </trkpt>
      <trkpt lat="44.30469" lon="3.59039">
        <ele>755</ele>
        <time>2009-07-09T15:01:40Z</time>
      </trkpt>
      <trkpt lat="44.30467" lon="3.59039">
        <ele>755</ele>
        <time>2009-07-09T15:01:52Z</time>
      </trkpt>
      <trkpt lat="44.30476" lon="3.59054">
        <ele>755</ele>
        <time>2009-07-09T15:01:59Z</time>
      </trkpt>
      <trkpt lat="44.30482" lon="3.59058">
        <ele>754</ele>
        <time>2009-07-09T15:02:02Z</time>
      </trkpt>
      <trkpt lat="44.30485" lon="3.59062">
        <ele>756</ele>
        <time>2009-07-09T15:02:04Z</time>
      </trkpt>
      <trkpt lat="44.30498" lon="3.59091">
        <ele>756</ele>
        <time>2009-07-09T15:02:13Z</time>
      </trkpt>
      <trkpt lat="44.30502" lon="3.59096">
        <ele>757</ele>
        <time>2009-07-09T15:02:15Z</time>
      </trkpt>
      <trkpt lat="44.30529" lon="3.59131">
        <ele>759</ele>
        <time>2009-07-09T15:02:28Z</time>
      </trkpt>
      <trkpt lat="44.30534" lon="3.59147">
        <ele>758</ele>
        <time>2009-07-09T15:02:33Z</time>
      </trkpt>
      <trkpt lat="44.30543" lon="3.59167">
        <ele>757</ele>
        <time>2009-07-09T15:02:39Z</time>
      </trkpt>
      <trkpt lat="44.30577" lon="3.5922">
        <ele>756</ele>
        <time>2009-07-09T15:02:53Z</time>
      </trkpt>
      <trkpt lat="44.30603" lon="3.59257">
        <ele>758</ele>
        <time>2009-07-09T15:03:03Z</time>
      </trkpt>
      <trkpt lat="44.30609" lon="3.5927">
        <ele>759</ele>
        <time>2009-07-09T15:03:07Z</time>
      </trkpt>
      <trkpt lat="44.30627" lon="3.593">
        <ele>759</ele>
        <time>2009-07-09T15:03:15Z</time>
      </trkpt>
      <trkpt lat="44.30639" lon="3.5932">
        <ele>758</ele>
        <time>2009-07-09T15:03:20Z</time>
      </trkpt>
      <trkpt lat="44.30659" lon="3.59326">
        <ele>757</ele>
        <time>2009-07-09T15:03:25Z</time>
      </trkpt>
      <trkpt lat="44.30673" lon="3.59322">
        <ele>757</ele>
        <time>2009-07-09T15:03:28Z</time>
      </trkpt>
      <trkpt lat="44.30697" lon="3.59314">
        <ele>755</ele>
        <time>2009-07-09T15:03:32Z</time>
      </trkpt>
      <trkpt lat="44.30718" lon="3.59312">
        <ele>752</ele>
        <time>2009-07-09T15:03:35Z</time>
      </trkpt>
      <trkpt lat="44.30737" lon="3.59314">
        <ele>750</ele>
        <time>2009-07-09T15:03:38Z</time>
      </trkpt>
      <trkpt lat="44.30767" lon="3.59315">
        <ele>748</ele>
        <time>2009-07-09T15:03:46Z</time>
      </trkpt>
      <trkpt lat="44.30776" lon="3.59317">
        <ele>747</ele>
        <time>2009-07-09T15:03:48Z</time>
      </trkpt>
      <trkpt lat="44.308" lon="3.5932">
        <ele>743</ele>
        <time>2009-07-09T15:03:53Z</time>
      </trkpt>
      <trkpt lat="44.3081" lon="3.59322">
        <ele>742</ele>
        <time>2009-07-09T15:03:55Z</time>
      </trkpt>
      <trkpt lat="44.30824" lon="3.59323">
        <ele>737</ele>
        <time>2009-07-09T15:04:00Z</time>
      </trkpt>
      <trkpt lat="44.30817" lon="3.59333">
        <ele>736</ele>
        <time>2009-07-09T15:04:03Z</time>
      </trkpt>
      <trkpt lat="44.30804" lon="3.59343">
        <ele>734</ele>
        <time>2009-07-09T15:04:07Z</time>
      </trkpt>
      <trkpt lat="44.30801" lon="3.59345">
        <ele>734</ele>
        <time>2009-07-09T15:04:08Z</time>
      </trkpt>
      <trkpt lat="44.30807" lon="3.59349">
        <ele>732</ele>
        <time>2009-07-09T15:04:12Z</time>
      </trkpt>
      <trkpt lat="44.30825" lon="3.59346">
        <ele>731</ele>
        <time>2009-07-09T15:04:16Z</time>
      </trkpt>
      <trkpt lat="44.30838" lon="3.59342">
        <ele>729</ele>
        <time>2009-07-09T15:04:19Z</time>
      </trkpt>
      <trkpt lat="44.30849" lon="3.59357">
        <ele>726</ele>
        <time>2009-07-09T15:04:27Z</time>
      </trkpt>
      <trkpt lat="44.30844" lon="3.59373">
        <ele>725</ele>
        <time>2009-07-09T15:04:30Z</time>
      </trkpt>
      <trkpt lat="44.30841" lon="3.59377">
        <ele>722</ele>
        <time>2009-07-09T15:04:31Z</time>
      </trkpt>
      <trkpt lat="44.30815" lon="3.59394">
        <ele>719</ele>
        <time>2009-07-09T15:04:37Z</time>
      </trkpt>
      <trkpt lat="44.30797" lon="3.59403">
        <ele>717</ele>
        <time>2009-07-09T15:04:41Z</time>
      </trkpt>
      <trkpt lat="44.30805" lon="3.59411">
        <ele>714</ele>
        <time>2009-07-09T15:04:47Z</time>
      </trkpt>
      <trkpt lat="44.30817" lon="3.59413">
        <ele>712</ele>
        <time>2009-07-09T15:04:50Z</time>
      </trkpt>
      <trkpt lat="44.30846" lon="3.5941">
        <ele>710</ele>
        <time>2009-07-09T15:04:55Z</time>
      </trkpt>
      <trkpt lat="44.30882" lon="3.59393">
        <ele>707</ele>
        <time>2009-07-09T15:05:04Z</time>
      </trkpt>
      <trkpt lat="44.30889" lon="3.59389">
        <ele>706</ele>
        <time>2009-07-09T15:05:06Z</time>
      </trkpt>
      <trkpt lat="44.30889" lon="3.59398">
        <ele>703</ele>
        <time>2009-07-09T15:05:11Z</time>
      </trkpt>
      <trkpt lat="44.30885" lon="3.59405">
        <ele>702</ele>
        <time>2009-07-09T15:05:13Z</time>
      </trkpt>
      <trkpt lat="44.30882" lon="3.59409">
        <ele>702</ele>
        <time>2009-07-09T15:05:14Z</time>
      </trkpt>
      <trkpt lat="44.30867" lon="3.59424">
        <ele>699</ele>
        <time>2009-07-09T15:05:18Z</time>
      </trkpt>
      <trkpt lat="44.30872" lon="3.59427">
        <ele>699</ele>
        <time>2009-07-09T15:05:27Z</time>
      </trkpt>
      <trkpt lat="44.30883" lon="3.59421">
        <ele>698</ele>
        <time>2009-07-09T15:05:31Z</time>
      </trkpt>
      <trkpt lat="44.30899" lon="3.59411">
        <ele>695</ele>
        <time>2009-07-09T15:05:35Z</time>
      </trkpt>
      <trkpt lat="44.30906" lon="3.59403">
        <ele>695</ele>
        <time>2009-07-09T15:05:37Z</time>
      </trkpt>
      <trkpt lat="44.3091" lon="3.59395">
        <ele>693</ele>
        <time>2009-07-09T15:05:39Z</time>
      </trkpt>
      <trkpt lat="44.30918" lon="3.59375">
        <ele>690</ele>
        <time>2009-07-09T15:05:45Z</time>
      </trkpt>
      <trkpt lat="44.30919" lon="3.5939">
        <ele>687</ele>
        <time>2009-07-09T15:05:49Z</time>
      </trkpt>
      <trkpt lat="44.30919" lon="3.59396">
        <ele>686</ele>
        <time>2009-07-09T15:05:50Z</time>
      </trkpt>
      <trkpt lat="44.30917" lon="3.59425">
        <ele>683</ele>
        <time>2009-07-09T15:05:56Z</time>
      </trkpt>
      <trkpt lat="44.30916" lon="3.5943">
        <ele>682</ele>
        <time>2009-07-09T15:05:57Z</time>
      </trkpt>
      <trkpt lat="44.30915" lon="3.59446">
        <ele>677</ele>
        <time>2009-07-09T15:06:04Z</time>
      </trkpt>
      <trkpt lat="44.30918" lon="3.59444">
        <ele>677</ele>
        <time>2009-07-09T15:06:05Z</time>
      </trkpt>
      <trkpt lat="44.30928" lon="3.59436">
        <ele>674</ele>
        <time>2009-07-09T15:06:08Z</time>
      </trkpt>
      <trkpt lat="44.30934" lon="3.59428">
        <ele>673</ele>
        <time>2009-07-09T15:06:10Z</time>
      </trkpt>
      <trkpt lat="44.30945" lon="3.59409">
        <ele>668</ele>
        <time>2009-07-09T15:06:14Z</time>
      </trkpt>
      <trkpt lat="44.30953" lon="3.59392">
        <ele>665</ele>
        <time>2009-07-09T15:06:17Z</time>
      </trkpt>
      <trkpt lat="44.30958" lon="3.59379">
        <ele>663</ele>
        <time>2009-07-09T15:06:19Z</time>
      </trkpt>
      <trkpt lat="44.30962" lon="3.59365">
        <ele>662</ele>
        <time>2009-07-09T15:06:21Z</time>
      </trkpt>
      <trkpt lat="44.30967" lon="3.59337">
        <ele>659</ele>
        <time>2009-07-09T15:06:25Z</time>
      </trkpt>
      <trkpt lat="44.30971" lon="3.59324">
        <ele>657</ele>
        <time>2009-07-09T15:06:28Z</time>
      </trkpt>
      <trkpt lat="44.30977" lon="3.59321">
        <ele>656</ele>
        <time>2009-07-09T15:06:38Z</time>
      </trkpt>
      <trkpt lat="44.30979" lon="3.59322">
        <ele>655</ele>
        <time>2009-07-09T15:06:54Z</time>
      </trkpt>
      <trkpt lat="44.30979" lon="3.59326">
        <ele>656</ele>
        <time>2009-07-09T15:07:13Z</time>
      </trkpt>
      <trkpt lat="44.30978" lon="3.59329">
        <ele>656</ele>
        <time>2009-07-09T15:07:29Z</time>
      </trkpt>
      <trkpt lat="44.30978" lon="3.5933">
        <ele>655</ele>
        <time>2009-07-09T15:08:22Z</time>
      </trkpt>
      <trkpt lat="44.30978" lon="3.5933">
        <ele>654</ele>
        <time>2009-07-09T15:08:37Z</time>
      </trkpt>
      <trkpt lat="44.30978" lon="3.59335">
        <ele>654</ele>
        <time>2009-07-09T15:08:53Z</time>
      </trkpt>
      <trkpt lat="44.30979" lon="3.59342">
        <ele>652</ele>
        <time>2009-07-09T15:08:55Z</time>
      </trkpt>
      <trkpt lat="44.30979" lon="3.59368">
        <ele>649</ele>
        <time>2009-07-09T15:09:02Z</time>
      </trkpt>
      <trkpt lat="44.30983" lon="3.59412">
        <ele>644</ele>
        <time>2009-07-09T15:09:09Z</time>
      </trkpt>
      <trkpt lat="44.3098" lon="3.59442">
        <ele>641</ele>
        <time>2009-07-09T15:09:13Z</time>
      </trkpt>
      <trkpt lat="44.30977" lon="3.59458">
        <ele>640</ele>
        <time>2009-07-09T15:09:15Z</time>
      </trkpt>
      <trkpt lat="44.3097" lon="3.59481">
        <ele>638</ele>
        <time>2009-07-09T15:09:18Z</time>
      </trkpt>
      <trkpt lat="44.30963" lon="3.59503">
        <ele>637</ele>
        <time>2009-07-09T15:09:22Z</time>
      </trkpt>
      <trkpt lat="44.30975" lon="3.5949">
        <ele>637</ele>
        <time>2009-07-09T15:09:28Z</time>
      </trkpt>
      <trkpt lat="44.31009" lon="3.59426">
        <ele>634</ele>
        <time>2009-07-09T15:09:42Z</time>
      </trkpt>
      <trkpt lat="44.31035" lon="3.59413">
        <ele>636</ele>
        <time>2009-07-09T15:09:54Z</time>
      </trkpt>
      <trkpt lat="44.31035" lon="3.59413">
        <ele>636</ele>
        <time>2009-07-09T15:10:08Z</time>
      </trkpt>
      <trkpt lat="44.31035" lon="3.59413">
        <ele>636</ele>
        <time>2009-07-09T15:10:11Z</time>
      </trkpt>
      <trkpt lat="44.31023" lon="3.59416">
        <ele>635</ele>
        <time>2009-07-09T15:10:16Z</time>
      </trkpt>
      <trkpt lat="44.31017" lon="3.59441">
        <ele>632</ele>
        <time>2009-07-09T15:10:26Z</time>
      </trkpt>
      <trkpt lat="44.31012" lon="3.59481">
        <ele>630</ele>
        <time>2009-07-09T15:10:39Z</time>
      </trkpt>
      <trkpt lat="44.31013" lon="3.59481">
        <ele>630</ele>
        <time>2009-07-09T15:10:55Z</time>
      </trkpt>
      <trkpt lat="44.31013" lon="3.59481">
        <ele>627</ele>
        <time>2009-07-09T15:11:01Z</time>
      </trkpt>
      <trkpt lat="44.31013" lon="3.59481">
        <ele>631</ele>
        <time>2009-07-09T15:11:02Z</time>
      </trkpt>
      <trkpt lat="44.31013" lon="3.59481">
        <ele>629</ele>
        <time>2009-07-09T15:11:06Z</time>
      </trkpt>
      <trkpt lat="44.31013" lon="3.5948">
        <ele>630</ele>
        <time>2009-07-09T15:11:08Z</time>
      </trkpt>
      <trkpt lat="44.31013" lon="3.5948">
        <ele>630</ele>
        <time>2009-07-09T15:11:12Z</time>
      </trkpt>
      <trkpt lat="44.31013" lon="3.59478">
        <ele>629</ele>
        <time>2009-07-09T15:11:48Z</time>
      </trkpt>
      <trkpt lat="44.31014" lon="3.59475">
        <ele>629</ele>
        <time>2009-07-09T15:11:55Z</time>
      </trkpt>
      <trkpt lat="44.31014" lon="3.59467">
        <ele>630</ele>
        <time>2009-07-09T15:11:59Z</time>
      </trkpt>
      <trkpt lat="44.31016" lon="3.59421">
        <ele>634</ele>
        <time>2009-07-09T15:12:14Z</time>
      </trkpt>
      <trkpt lat="44.31036" lon="3.59409">
        <ele>636</ele>
        <time>2009-07-09T15:12:26Z</time>
      </trkpt>
      <trkpt lat="44.31045" lon="3.5941">
        <ele>639</ele>
        <time>2009-07-09T15:12:32Z</time>
      </trkpt>
      <trkpt lat="44.31057" lon="3.59414">
        <ele>641</ele>
        <time>2009-07-09T15:12:40Z</time>
      </trkpt>
      <trkpt lat="44.31082" lon="3.5943">
        <ele>642</ele>
        <time>2009-07-09T15:12:57Z</time>
      </trkpt>
      <trkpt lat="44.31104" lon="3.59446">
        <ele>646</ele>
        <time>2009-07-09T15:13:12Z</time>
      </trkpt>
      <trkpt lat="44.31105" lon="3.59447">
        <ele>646</ele>
        <time>2009-07-09T15:13:13Z</time>
      </trkpt>
      <trkpt lat="44.3112" lon="3.59461">
        <ele>646</ele>
        <time>2009-07-09T15:13:29Z</time>
      </trkpt>
      <trkpt lat="44.3112" lon="3.59461">
        <ele>647</ele>
        <time>2009-07-09T15:13:53Z</time>
      </trkpt>
      <trkpt lat="44.31121" lon="3.59462">
        <ele>647</ele>
        <time>2009-07-09T15:14:29Z</time>
      </trkpt>
      <trkpt lat="44.31128" lon="3.59464">
        <ele>648</ele>
        <time>2009-07-09T15:14:34Z</time>
      </trkpt>
      <trkpt lat="44.31151" lon="3.59439">
        <ele>649</ele>
        <time>2009-07-09T15:14:49Z</time>
      </trkpt>
      <trkpt lat="44.31168" lon="3.59403">
        <ele>650</ele>
        <time>2009-07-09T15:15:04Z</time>
      </trkpt>
      <trkpt lat="44.31169" lon="3.59401">
        <ele>651</ele>
        <time>2009-07-09T15:15:05Z</time>
      </trkpt>
      <trkpt lat="44.31178" lon="3.59377">
        <ele>654</ele>
        <time>2009-07-09T15:15:16Z</time>
      </trkpt>
      <trkpt lat="44.31192" lon="3.59337">
        <ele>655</ele>
        <time>2009-07-09T15:15:31Z</time>
      </trkpt>
      <trkpt lat="44.31194" lon="3.59333">
        <ele>654</ele>
        <time>2009-07-09T15:15:32Z</time>
      </trkpt>
      <trkpt lat="44.31212" lon="3.59311">
        <ele>656</ele>
        <time>2009-07-09T15:15:42Z</time>
      </trkpt>
      <trkpt lat="44.31213" lon="3.59315">
        <ele>656</ele>
        <time>2009-07-09T15:16:02Z</time>
      </trkpt>
      <trkpt lat="44.31211" lon="3.59317">
        <ele>655</ele>
        <time>2009-07-09T15:16:09Z</time>
      </trkpt>
      <trkpt lat="44.31193" lon="3.59336">
        <ele>655</ele>
        <time>2009-07-09T15:16:21Z</time>
      </trkpt>
      <trkpt lat="44.31179" lon="3.59365">
        <ele>656</ele>
        <time>2009-07-09T15:16:37Z</time>
      </trkpt>
      <trkpt lat="44.31176" lon="3.5937">
        <ele>656</ele>
        <time>2009-07-09T15:16:48Z</time>
      </trkpt>
      <trkpt lat="44.31171" lon="3.5939">
        <ele>652</ele>
        <time>2009-07-09T15:16:53Z</time>
      </trkpt>
      <trkpt lat="44.31169" lon="3.59398">
        <ele>652</ele>
        <time>2009-07-09T15:16:54Z</time>
      </trkpt>
      <trkpt lat="44.31159" lon="3.59417">
        <ele>650</ele>
        <time>2009-07-09T15:17:02Z</time>
      </trkpt>
      <trkpt lat="44.31161" lon="3.59417">
        <ele>649</ele>
        <time>2009-07-09T15:17:07Z</time>
      </trkpt>
      <trkpt lat="44.31164" lon="3.59416">
        <ele>648</ele>
        <time>2009-07-09T15:17:10Z</time>
      </trkpt>
      <trkpt lat="44.31172" lon="3.5941">
        <ele>647</ele>
        <time>2009-07-09T15:17:27Z</time>
      </trkpt>
      <trkpt lat="44.31182" lon="3.59399">
        <ele>644</ele>
        <time>2009-07-09T15:17:31Z</time>
      </trkpt>
      <trkpt lat="44.31189" lon="3.59393">
        <ele>643</ele>
        <time>2009-07-09T15:17:33Z</time>
      </trkpt>
      <trkpt lat="44.312" lon="3.59382">
        <ele>642</ele>
        <time>2009-07-09T15:17:38Z</time>
      </trkpt>
      <trkpt lat="44.31206" lon="3.59379">
        <ele>639</ele>
        <time>2009-07-09T15:17:41Z</time>
      </trkpt>
      <trkpt lat="44.31208" lon="3.59379">
        <ele>639</ele>
        <time>2009-07-09T15:17:42Z</time>
      </trkpt>
      <trkpt lat="44.31209" lon="3.59375">
        <ele>638</ele>
        <time>2009-07-09T15:17:46Z</time>
      </trkpt>
      <trkpt lat="44.31225" lon="3.59405">
        <ele>638</ele>
        <time>2009-07-09T15:17:58Z</time>
      </trkpt>
      <trkpt lat="44.31247" lon="3.59447">
        <ele>639</ele>
        <time>2009-07-09T15:18:11Z</time>
      </trkpt>
      <trkpt lat="44.31271" lon="3.59473">
        <ele>639</ele>
        <time>2009-07-09T15:18:23Z</time>
      </trkpt>
      <trkpt lat="44.3128" lon="3.59486">
        <ele>638</ele>
        <time>2009-07-09T15:18:29Z</time>
      </trkpt>
      <trkpt lat="44.31288" lon="3.59497">
        <ele>634</ele>
        <time>2009-07-09T15:18:34Z</time>
      </trkpt>
      <trkpt lat="44.31293" lon="3.59507">
        <ele>632</ele>
        <time>2009-07-09T15:18:37Z</time>
      </trkpt>
      <trkpt lat="44.31296" lon="3.59511">
        <ele>631</ele>
        <time>2009-07-09T15:18:39Z</time>
      </trkpt>
      <trkpt lat="44.31301" lon="3.59515">
        <ele>630</ele>
        <time>2009-07-09T15:18:41Z</time>
      </trkpt>
      <trkpt lat="44.31336" lon="3.59544">
        <ele>630</ele>
        <time>2009-07-09T15:18:54Z</time>
      </trkpt>
      <trkpt lat="44.31342" lon="3.59551">
        <ele>630</ele>
        <time>2009-07-09T15:18:57Z</time>
      </trkpt>
      <trkpt lat="44.31367" lon="3.5956">
        <ele>629</ele>
        <time>2009-07-09T15:19:08Z</time>
      </trkpt>
      <trkpt lat="44.31382" lon="3.59568">
        <ele>626</ele>
        <time>2009-07-09T15:19:13Z</time>
      </trkpt>
      <trkpt lat="44.31401" lon="3.59579">
        <ele>625</ele>
        <time>2009-07-09T15:19:22Z</time>
      </trkpt>
      <trkpt lat="44.31409" lon="3.59583">
        <ele>623</ele>
        <time>2009-07-09T15:19:29Z</time>
      </trkpt>
      <trkpt lat="44.31417" lon="3.59589">
        <ele>620</ele>
        <time>2009-07-09T15:19:42Z</time>
      </trkpt>
      <trkpt lat="44.31418" lon="3.5959">
        <ele>619</ele>
        <time>2009-07-09T15:19:43Z</time>
      </trkpt>
      <trkpt lat="44.31421" lon="3.59596">
        <ele>618</ele>
        <time>2009-07-09T15:19:45Z</time>
      </trkpt>
      <trkpt lat="44.31431" lon="3.59606">
        <ele>616</ele>
        <time>2009-07-09T15:19:49Z</time>
      </trkpt>
      <trkpt lat="44.31441" lon="3.59615">
        <ele>612</ele>
        <time>2009-07-09T15:19:53Z</time>
      </trkpt>
      <trkpt lat="44.31451" lon="3.59624">
        <ele>609</ele>
        <time>2009-07-09T15:19:57Z</time>
      </trkpt>
      <trkpt lat="44.31459" lon="3.59627">
        <ele>607</ele>
        <time>2009-07-09T15:19:59Z</time>
      </trkpt>
      <trkpt lat="44.31474" lon="3.59627">
        <ele>606</ele>
        <time>2009-07-09T15:20:04Z</time>
      </trkpt>
      <trkpt lat="44.31483" lon="3.59626">
        <ele>604</ele>
        <time>2009-07-09T15:20:14Z</time>
      </trkpt>
      <trkpt lat="44.31488" lon="3.59641">
        <ele>603</ele>
        <time>2009-07-09T15:20:25Z</time>
      </trkpt>
      <trkpt lat="44.3149" lon="3.59645">
        <ele>603</ele>
        <time>2009-07-09T15:20:27Z</time>
      </trkpt>
      <trkpt lat="44.31502" lon="3.59667">
        <ele>602</ele>
        <time>2009-07-09T15:20:37Z</time>
      </trkpt>
      <trkpt lat="44.31509" lon="3.597">
        <ele>602</ele>
        <time>2009-07-09T15:20:49Z</time>
      </trkpt>
      <trkpt lat="44.3151" lon="3.59704">
        <ele>602</ele>
        <time>2009-07-09T15:20:50Z</time>
      </trkpt>
      <trkpt lat="44.31536" lon="3.59712">
        <ele>598</ele>
        <time>2009-07-09T15:21:00Z</time>
      </trkpt>
      <trkpt lat="44.31544" lon="3.59712">
        <ele>595</ele>
        <time>2009-07-09T15:21:03Z</time>
      </trkpt>
      <trkpt lat="44.31554" lon="3.59714">
        <ele>593</ele>
        <time>2009-07-09T15:21:06Z</time>
      </trkpt>
      <trkpt lat="44.31574" lon="3.59732">
        <ele>590</ele>
        <time>2009-07-09T15:21:14Z</time>
      </trkpt>
      <trkpt lat="44.31584" lon="3.59754">
        <ele>587</ele>
        <time>2009-07-09T15:21:20Z</time>
      </trkpt>
      <trkpt lat="44.31585" lon="3.59757">
        <ele>586</ele>
        <time>2009-07-09T15:21:21Z</time>
      </trkpt>
      <trkpt lat="44.31587" lon="3.59762">
        <ele>585</ele>
        <time>2009-07-09T15:21:23Z</time>
      </trkpt>
      <trkpt lat="44.31592" lon="3.59771">
        <ele>582</ele>
        <time>2009-07-09T15:21:29Z</time>
      </trkpt>
      <trkpt lat="44.31601" lon="3.59774">
        <ele>578</ele>
        <time>2009-07-09T15:21:32Z</time>
      </trkpt>
      <trkpt lat="44.31615" lon="3.59781">
        <ele>575</ele>
        <time>2009-07-09T15:21:36Z</time>
      </trkpt>
      <trkpt lat="44.3163" lon="3.59788">
        <ele>572</ele>
        <time>2009-07-09T15:21:40Z</time>
      </trkpt>
      <trkpt lat="44.31639" lon="3.59794">
        <ele>569</ele>
        <time>2009-07-09T15:21:44Z</time>
      </trkpt>
      <trkpt lat="44.31647" lon="3.59799">
        <ele>566</ele>
        <time>2009-07-09T15:21:47Z</time>
      </trkpt>
      <trkpt lat="44.31656" lon="3.59804">
        <ele>563</ele>
        <time>2009-07-09T15:21:50Z</time>
      </trkpt>
      <trkpt lat="44.31658" lon="3.59805">
        <ele>563</ele>
        <time>2009-07-09T15:21:51Z</time>
      </trkpt>
      <trkpt lat="44.3167" lon="3.59804">
        <ele>563</ele>
        <time>2009-07-09T15:22:01Z</time>
      </trkpt>
      <trkpt lat="44.31669" lon="3.59804">
        <ele>563</ele>
        <time>2009-07-09T15:22:16Z</time>
      </trkpt>
      <trkpt lat="44.3167" lon="3.59805">
        <ele>561</ele>
        <time>2009-07-09T15:22:44Z</time>
      </trkpt>
      <trkpt lat="44.3167" lon="3.59805">
        <ele>562</ele>
        <time>2009-07-09T15:23:32Z</time>
      </trkpt>
      <trkpt lat="44.31689" lon="3.5981">
        <ele>559</ele>
        <time>2009-07-09T15:24:39Z</time>
      </trkpt>
      <trkpt lat="44.31732" lon="3.59811">
        <ele>561</ele>
        <time>2009-07-09T15:24:52Z</time>
      </trkpt>
      <trkpt lat="44.31816" lon="3.598">
        <ele>560</ele>
        <time>2009-07-09T15:25:11Z</time>
      </trkpt>
      <trkpt lat="44.31865" lon="3.59786">
        <ele>560</ele>
        <time>2009-07-09T15:25:22Z</time>
      </trkpt>
      <trkpt lat="44.319" lon="3.59793">
        <ele>561</ele>
        <time>2009-07-09T15:25:31Z</time>
      </trkpt>
      <trkpt lat="44.31907" lon="3.59784">
        <ele>561</ele>
        <time>2009-07-09T15:25:33Z</time>
      </trkpt>
      <trkpt lat="44.31929" lon="3.59768">
        <ele>560</ele>
        <time>2009-07-09T15:25:38Z</time>
      </trkpt>
      <trkpt lat="44.31974" lon="3.59753">
        <ele>559</ele>
        <time>2009-07-09T15:25:47Z</time>
      </trkpt>
      <trkpt lat="44.32039" lon="3.59715">
        <ele>560</ele>
        <time>2009-07-09T15:26:03Z</time>
      </trkpt>
      <trkpt lat="44.32108" lon="3.5967">
        <ele>558</ele>
        <time>2009-07-09T15:26:20Z</time>
      </trkpt>
      <trkpt lat="44.32119" lon="3.59662">
        <ele>559</ele>
        <time>2009-07-09T15:26:23Z</time>
      </trkpt>
      <trkpt lat="44.32191" lon="3.59601">
        <ele>561</ele>
        <time>2009-07-09T15:26:42Z</time>
      </trkpt>
      <trkpt lat="44.32243" lon="3.5955">
        <ele>559</ele>
        <time>2009-07-09T15:26:56Z</time>
      </trkpt>
      <trkpt lat="44.32295" lon="3.59496">
        <ele>559</ele>
        <time>2009-07-09T15:27:12Z</time>
      </trkpt>
      <trkpt lat="44.32327" lon="3.59474">
        <ele>561</ele>
        <time>2009-07-09T15:27:22Z</time>
      </trkpt>
      <trkpt lat="44.32334" lon="3.59472">
        <ele>562</ele>
        <time>2009-07-09T15:27:26Z</time>
      </trkpt>
      <trkpt lat="44.32339" lon="3.59468">
        <ele>562</ele>
        <time>2009-07-09T15:27:30Z</time>
      </trkpt>
      <trkpt lat="44.32351" lon="3.59465">
        <ele>561</ele>
        <time>2009-07-09T15:27:36Z</time>
      </trkpt>
      <trkpt lat="44.32355" lon="3.59464">
        <ele>562</ele>
        <time>2009-07-09T15:27:38Z</time>
      </trkpt>
      <trkpt lat="44.32367" lon="3.59457">
        <ele>561</ele>
        <time>2009-07-09T15:27:42Z</time>
      </trkpt>
      <trkpt lat="44.32395" lon="3.59438">
        <ele>561</ele>
        <time>2009-07-09T15:27:54Z</time>
      </trkpt>
      <trkpt lat="44.32406" lon="3.59417">
        <ele>561</ele>
        <time>2009-07-09T15:28:03Z</time>
      </trkpt>
      <trkpt lat="44.32404" lon="3.59406">
        <ele>561</ele>
        <time>2009-07-09T15:28:20Z</time>
      </trkpt>
      <trkpt lat="44.32405" lon="3.59406">
        <ele>562</ele>
        <time>2009-07-09T15:28:31Z</time>
      </trkpt>
      <trkpt lat="44.32409" lon="3.59401">
        <ele>561</ele>
        <time>2009-07-09T15:28:35Z</time>
      </trkpt>
      <trkpt lat="44.32414" lon="3.59395">
        <ele>562</ele>
        <time>2009-07-09T15:28:47Z</time>
      </trkpt>
      <trkpt lat="44.32413" lon="3.59396">
        <ele>561</ele>
        <time>2009-07-09T15:29:43Z</time>
      </trkpt>
      <trkpt lat="44.32421" lon="3.59385">
        <ele>560</ele>
        <time>2009-07-09T15:29:49Z</time>
      </trkpt>
      <trkpt lat="44.32427" lon="3.59382">
        <ele>561</ele>
        <time>2009-07-09T15:29:52Z</time>
      </trkpt>
      <trkpt lat="44.32452" lon="3.59365">
        <ele>561</ele>
        <time>2009-07-09T15:30:04Z</time>
      </trkpt>
      <trkpt lat="44.32474" lon="3.59346">
        <ele>560</ele>
        <time>2009-07-09T15:30:12Z</time>
      </trkpt>
      <trkpt lat="44.32505" lon="3.59308">
        <ele>560</ele>
        <time>2009-07-09T15:30:23Z</time>
      </trkpt>
      <trkpt lat="44.32526" lon="3.59278">
        <ele>561</ele>
        <time>2009-07-09T15:30:33Z</time>
      </trkpt>
      <trkpt lat="44.3255" lon="3.59257">
        <ele>561</ele>
        <time>2009-07-09T15:30:45Z</time>
      </trkpt>
      <trkpt lat="44.32553" lon="3.59255">
        <ele>562</ele>
        <time>2009-07-09T15:30:46Z</time>
      </trkpt>
      <trkpt lat="44.32544" lon="3.59252">
        <ele>561</ele>
        <time>2009-07-09T15:30:54Z</time>
      </trkpt>
      <trkpt lat="44.32543" lon="3.59294">
        <ele>561</ele>
        <time>2009-07-09T15:31:01Z</time>
      </trkpt>
      <trkpt lat="44.32529" lon="3.59322">
        <ele>560</ele>
        <time>2009-07-09T15:31:06Z</time>
      </trkpt>
      <trkpt lat="44.32523" lon="3.59332">
        <ele>559</ele>
        <time>2009-07-09T15:31:08Z</time>
      </trkpt>
      <trkpt lat="44.32513" lon="3.59348">
        <ele>559</ele>
        <time>2009-07-09T15:31:12Z</time>
      </trkpt>
      <trkpt lat="44.3248" lon="3.59388">
        <ele>559</ele>
        <time>2009-07-09T15:31:25Z</time>
      </trkpt>
      <trkpt lat="44.32473" lon="3.59397">
        <ele>560</ele>
        <time>2009-07-09T15:31:29Z</time>
      </trkpt>
      <trkpt lat="44.32471" lon="3.59404">
        <ele>559</ele>
        <time>2009-07-09T15:31:41Z</time>
      </trkpt>
      <trkpt lat="44.32472" lon="3.59408">
        <ele>560</ele>
        <time>2009-07-09T15:32:18Z</time>
      </trkpt>
      <trkpt lat="44.32482" lon="3.59415">
        <ele>559</ele>
        <time>2009-07-09T15:32:27Z</time>
      </trkpt>
      <trkpt lat="44.32514" lon="3.59372">
        <ele>560</ele>
        <time>2009-07-09T15:32:44Z</time>
      </trkpt>
      <trkpt lat="44.32548" lon="3.59313">
        <ele>558</ele>
        <time>2009-07-09T15:33:01Z</time>
      </trkpt>
      <trkpt lat="44.32555" lon="3.59254">
        <ele>560</ele>
        <time>2009-07-09T15:33:16Z</time>
      </trkpt>
      <trkpt lat="44.32586" lon="3.59237">
        <ele>558</ele>
        <time>2009-07-09T15:33:26Z</time>
      </trkpt>
      <trkpt lat="44.32615" lon="3.59224">
        <ele>557</ele>
        <time>2009-07-09T15:33:33Z</time>
      </trkpt>
      <trkpt lat="44.3264" lon="3.59225">
        <ele>555</ele>
        <time>2009-07-09T15:33:38Z</time>
      </trkpt>
      <trkpt lat="44.32649" lon="3.59228">
        <ele>555</ele>
        <time>2009-07-09T15:33:40Z</time>
      </trkpt>
      <trkpt lat="44.32671" lon="3.59229">
        <ele>554</ele>
        <time>2009-07-09T15:33:45Z</time>
      </trkpt>
      <trkpt lat="44.32728" lon="3.59211">
        <ele>554</ele>
        <time>2009-07-09T15:33:58Z</time>
      </trkpt>
      <trkpt lat="44.32744" lon="3.59197">
        <ele>554</ele>
        <time>2009-07-09T15:34:02Z</time>
      </trkpt>
      <trkpt lat="44.32826" lon="3.59137">
        <ele>551</ele>
        <time>2009-07-09T15:34:22Z</time>
      </trkpt>
      <trkpt lat="44.32845" lon="3.59128">
        <ele>550</ele>
        <time>2009-07-09T15:34:26Z</time>
      </trkpt>
      <trkpt lat="44.32875" lon="3.59161">
        <ele>550</ele>
        <time>2009-07-09T15:34:35Z</time>
      </trkpt>
      <trkpt lat="44.32879" lon="3.59177">
        <ele>550</ele>
        <time>2009-07-09T15:34:38Z</time>
      </trkpt>
      <trkpt lat="44.329" lon="3.59175">
        <ele>550</ele>
        <time>2009-07-09T15:34:43Z</time>
      </trkpt>
      <trkpt lat="44.32978" lon="3.59116">
        <ele>550</ele>
        <time>2009-07-09T15:35:02Z</time>
      </trkpt>
      <trkpt lat="44.33047" lon="3.59062">
        <ele>551</ele>
        <time>2009-07-09T15:35:19Z</time>
      </trkpt>
      <trkpt lat="44.33068" lon="3.59053">
        <ele>553</ele>
        <time>2009-07-09T15:35:24Z</time>
      </trkpt>
      <trkpt lat="44.33099" lon="3.59059">
        <ele>554</ele>
        <time>2009-07-09T15:35:32Z</time>
      </trkpt>
      <trkpt lat="44.33145" lon="3.59117">
        <ele>555</ele>
        <time>2009-07-09T15:35:48Z</time>
      </trkpt>
      <trkpt lat="44.33154" lon="3.5913">
        <ele>555</ele>
        <time>2009-07-09T15:35:54Z</time>
      </trkpt>
      <trkpt lat="44.33163" lon="3.59126">
        <ele>554</ele>
        <time>2009-07-09T15:35:57Z</time>
      </trkpt>
      <trkpt lat="44.33168" lon="3.5912">
        <ele>554</ele>
        <time>2009-07-09T15:35:59Z</time>
      </trkpt>
      <trkpt lat="44.33209" lon="3.59032">
        <ele>554</ele>
        <time>2009-07-09T15:36:17Z</time>
      </trkpt>
      <trkpt lat="44.33251" lon="3.58927">
        <ele>556</ele>
        <time>2009-07-09T15:36:35Z</time>
      </trkpt>
      <trkpt lat="44.33306" lon="3.58784">
        <ele>554</ele>
        <time>2009-07-09T15:36:58Z</time>
      </trkpt>
      <trkpt lat="44.3335" lon="3.58714">
        <ele>555</ele>
        <time>2009-07-09T15:37:11Z</time>
      </trkpt>
      <trkpt lat="44.3343" lon="3.58643">
        <ele>555</ele>
        <time>2009-07-09T15:37:29Z</time>
      </trkpt>
      <trkpt lat="44.33507" lon="3.58618">
        <ele>554</ele>
        <time>2009-07-09T15:37:44Z</time>
      </trkpt>
      <trkpt lat="44.33564" lon="3.58621">
        <ele>553</ele>
        <time>2009-07-09T15:37:55Z</time>
      </trkpt>
      <trkpt lat="44.33579" lon="3.58626">
        <ele>552</ele>
        <time>2009-07-09T15:37:58Z</time>
      </trkpt>
      <trkpt lat="44.33594" lon="3.58653">
        <ele>551</ele>
        <time>2009-07-09T15:38:03Z</time>
      </trkpt>
      <trkpt lat="44.33601" lon="3.58686">
        <ele>550</ele>
        <time>2009-07-09T15:38:07Z</time>
      </trkpt>
      <trkpt lat="44.33609" lon="3.58723">
        <ele>550</ele>
        <time>2009-07-09T15:38:14Z</time>
      </trkpt>
      <trkpt lat="44.33608" lon="3.58724">
        <ele>550</ele>
        <time>2009-07-09T15:38:25Z</time>
      </trkpt>
      <trkpt lat="44.33604" lon="3.58724">
        <ele>549</ele>
        <time>2009-07-09T15:39:00Z</time>
      </trkpt>
      <trkpt lat="44.33601" lon="3.58723">
        <ele>550</ele>
        <time>2009-07-09T15:39:32Z</time>
      </trkpt>
      <trkpt lat="44.33598" lon="3.58727">
        <ele>550</ele>
        <time>2009-07-09T15:40:16Z</time>
      </trkpt>
      <trkpt lat="44.33598" lon="3.58727">
        <ele>549</ele>
        <time>2009-07-09T15:40:38Z</time>
      </trkpt>
      <trkpt lat="44.33598" lon="3.58728">
        <ele>550</ele>
        <time>2009-07-09T15:41:00Z</time>
      </trkpt>
      <trkpt lat="44.33599" lon="3.58731">
        <ele>550</ele>
        <time>2009-07-09T15:41:24Z</time>
      </trkpt>
      <trkpt lat="44.3359" lon="3.58753">
        <ele>549</ele>
        <time>2009-07-09T15:41:40Z</time>
      </trkpt>
      <trkpt lat="44.33575" lon="3.58844">
        <ele>549</ele>
        <time>2009-07-09T15:41:58Z</time>
      </trkpt>
      <trkpt lat="44.33554" lon="3.58947">
        <ele>550</ele>
        <time>2009-07-09T15:42:17Z</time>
      </trkpt>
      <trkpt lat="44.3356" lon="3.59042">
        <ele>552</ele>
        <time>2009-07-09T15:42:36Z</time>
      </trkpt>
      <trkpt lat="44.33568" lon="3.59114">
        <ele>555</ele>
        <time>2009-07-09T15:42:53Z</time>
      </trkpt>
      <trkpt lat="44.33571" lon="3.59177">
        <ele>559</ele>
        <time>2009-07-09T15:43:09Z</time>
      </trkpt>
      <trkpt lat="44.33582" lon="3.5926">
        <ele>562</ele>
        <time>2009-07-09T15:43:32Z</time>
      </trkpt>
      <trkpt lat="44.33604" lon="3.59316">
        <ele>566</ele>
        <time>2009-07-09T15:43:49Z</time>
      </trkpt>
      <trkpt lat="44.3362" lon="3.59353">
        <ele>568</ele>
        <time>2009-07-09T15:44:00Z</time>
      </trkpt>
      <trkpt lat="44.33641" lon="3.59413">
        <ele>570</ele>
        <time>2009-07-09T15:44:18Z</time>
      </trkpt>
      <trkpt lat="44.3366" lon="3.59488">
        <ele>573</ele>
        <time>2009-07-09T15:44:39Z</time>
      </trkpt>
      <trkpt lat="44.33685" lon="3.59574">
        <ele>576</ele>
        <time>2009-07-09T15:45:03Z</time>
      </trkpt>
      <trkpt lat="44.33702" lon="3.59615">
        <ele>576</ele>
        <time>2009-07-09T15:45:17Z</time>
      </trkpt>
      <trkpt lat="44.33741" lon="3.59655">
        <ele>574</ele>
        <time>2009-07-09T15:45:34Z</time>
      </trkpt>
      <trkpt lat="44.33783" lon="3.59683">
        <ele>573</ele>
        <time>2009-07-09T15:45:48Z</time>
      </trkpt>
      <trkpt lat="44.33808" lon="3.59683">
        <ele>574</ele>
        <time>2009-07-09T15:45:55Z</time>
      </trkpt>
      <trkpt lat="44.33871" lon="3.59685">
        <ele>575</ele>
        <time>2009-07-09T15:46:15Z</time>
      </trkpt>
      <trkpt lat="44.33882" lon="3.59689">
        <ele>576</ele>
        <time>2009-07-09T15:46:19Z</time>
      </trkpt>
      <trkpt lat="44.33924" lon="3.59699">
        <ele>579</ele>
        <time>2009-07-09T15:46:35Z</time>
      </trkpt>
      <trkpt lat="44.33964" lon="3.59702">
        <ele>582</ele>
        <time>2009-07-09T15:46:52Z</time>
      </trkpt>
      <trkpt lat="44.34007" lon="3.597">
        <ele>584</ele>
        <time>2009-07-09T15:47:10Z</time>
      </trkpt>
      <trkpt lat="44.34052" lon="3.5969">
        <ele>587</ele>
        <time>2009-07-09T15:47:30Z</time>
      </trkpt>
      <trkpt lat="44.341" lon="3.59676">
        <ele>588</ele>
        <time>2009-07-09T15:47:50Z</time>
      </trkpt>
      <trkpt lat="44.34142" lon="3.5966">
        <ele>591</ele>
        <time>2009-07-09T15:48:08Z</time>
      </trkpt>
      <trkpt lat="44.34192" lon="3.59628">
        <ele>594</ele>
        <time>2009-07-09T15:48:31Z</time>
      </trkpt>
      <trkpt lat="44.34225" lon="3.59604">
        <ele>597</ele>
        <time>2009-07-09T15:48:46Z</time>
      </trkpt>
      <trkpt lat="44.34249" lon="3.59584">
        <ele>597</ele>
        <time>2009-07-09T15:48:58Z</time>
      </trkpt>
      <trkpt lat="44.34287" lon="3.59564">
        <ele>601</ele>
        <time>2009-07-09T15:49:15Z</time>
      </trkpt>
      <trkpt lat="44.34319" lon="3.59587">
        <ele>600</ele>
        <time>2009-07-09T15:49:29Z</time>
      </trkpt>
      <trkpt lat="44.3433" lon="3.59655">
        <ele>599</ele>
        <time>2009-07-09T15:49:44Z</time>
      </trkpt>
      <trkpt lat="44.34345" lon="3.5975">
        <ele>596</ele>
        <time>2009-07-09T15:49:59Z</time>
      </trkpt>
      <trkpt lat="44.34354" lon="3.59829">
        <ele>593</ele>
        <time>2009-07-09T15:50:07Z</time>
      </trkpt>
      <trkpt lat="44.34361" lon="3.59903">
        <ele>590</ele>
        <time>2009-07-09T15:50:13Z</time>
      </trkpt>
      <trkpt lat="44.34368" lon="3.59929">
        <ele>590</ele>
        <time>2009-07-09T15:50:15Z</time>
      </trkpt>
      <trkpt lat="44.34372" lon="3.6002">
        <ele>586</ele>
        <time>2009-07-09T15:50:21Z</time>
      </trkpt>
      <trkpt lat="44.34372" lon="3.60036">
        <ele>586</ele>
        <time>2009-07-09T15:50:22Z</time>
      </trkpt>
      <trkpt lat="44.34355" lon="3.60095">
        <ele>579</ele>
        <time>2009-07-09T15:50:26Z</time>
      </trkpt>
      <trkpt lat="44.34342" lon="3.60121">
        <ele>578</ele>
        <time>2009-07-09T15:50:28Z</time>
      </trkpt>
      <trkpt lat="44.34325" lon="3.60195">
        <ele>575</ele>
        <time>2009-07-09T15:50:33Z</time>
      </trkpt>
      <trkpt lat="44.34319" lon="3.60242">
        <ele>573</ele>
        <time>2009-07-09T15:50:36Z</time>
      </trkpt>
      <trkpt lat="44.34322" lon="3.60289">
        <ele>572</ele>
        <time>2009-07-09T15:50:39Z</time>
      </trkpt>
      <trkpt lat="44.34325" lon="3.60304">
        <ele>572</ele>
        <time>2009-07-09T15:50:40Z</time>
      </trkpt>
      <trkpt lat="44.34359" lon="3.60441">
        <ele>572</ele>
        <time>2009-07-09T15:50:50Z</time>
      </trkpt>
      <trkpt lat="44.34395" lon="3.6054">
        <ele>575</ele>
        <time>2009-07-09T15:51:01Z</time>
      </trkpt>
      <trkpt lat="44.34424" lon="3.60605">
        <ele>577</ele>
        <time>2009-07-09T15:51:14Z</time>
      </trkpt>
      <trkpt lat="44.34425" lon="3.60668">
        <ele>580</ele>
        <time>2009-07-09T15:51:28Z</time>
      </trkpt>
      <trkpt lat="44.34439" lon="3.60745">
        <ele>583</ele>
        <time>2009-07-09T15:51:45Z</time>
      </trkpt>
      <trkpt lat="44.34456" lon="3.60832">
        <ele>585</ele>
        <time>2009-07-09T15:52:04Z</time>
      </trkpt>
      <trkpt lat="44.3445" lon="3.60857">
        <ele>583</ele>
        <time>2009-07-09T15:52:09Z</time>
      </trkpt>
      <trkpt lat="44.34444" lon="3.60921">
        <ele>580</ele>
        <time>2009-07-09T15:52:17Z</time>
      </trkpt>
      <trkpt lat="44.34444" lon="3.60977">
        <ele>578</ele>
        <time>2009-07-09T15:52:22Z</time>
      </trkpt>
      <trkpt lat="44.34461" lon="3.61022">
        <ele>578</ele>
        <time>2009-07-09T15:52:27Z</time>
      </trkpt>
      <trkpt lat="44.34494" lon="3.6106">
        <ele>576</ele>
        <time>2009-07-09T15:52:33Z</time>
      </trkpt>
      <trkpt lat="44.34508" lon="3.61105">
        <ele>576</ele>
        <time>2009-07-09T15:52:39Z</time>
      </trkpt>
      <trkpt lat="44.34506" lon="3.61127">
        <ele>578</ele>
        <time>2009-07-09T15:52:42Z</time>
      </trkpt>
      <trkpt lat="44.3449" lon="3.61243">
        <ele>577</ele>
        <time>2009-07-09T15:53:00Z</time>
      </trkpt>
      <trkpt lat="44.34484" lon="3.61286">
        <ele>579</ele>
        <time>2009-07-09T15:53:07Z</time>
      </trkpt>
      <trkpt lat="44.3448" lon="3.6132">
        <ele>580</ele>
        <time>2009-07-09T15:53:18Z</time>
      </trkpt>
      <trkpt lat="44.34481" lon="3.61318">
        <ele>580</ele>
        <time>2009-07-09T15:54:19Z</time>
      </trkpt>
      <trkpt lat="44.34481" lon="3.6132">
        <ele>578</ele>
        <time>2009-07-09T15:56:11Z</time>
      </trkpt>
      <trkpt lat="44.34482" lon="3.6133">
        <ele>578</ele>
        <time>2009-07-09T15:56:28Z</time>
      </trkpt>
      <trkpt lat="44.34489" lon="3.61372">
        <ele>579</ele>
        <time>2009-07-09T15:56:40Z</time>
      </trkpt>
      <trkpt lat="44.34508" lon="3.61426">
        <ele>583</ele>
        <time>2009-07-09T15:56:57Z</time>
      </trkpt>
      <trkpt lat="44.34509" lon="3.61429">
        <ele>583</ele>
        <time>2009-07-09T15:56:58Z</time>
      </trkpt>
      <trkpt lat="44.3452" lon="3.61476">
        <ele>586</ele>
        <time>2009-07-09T15:57:13Z</time>
      </trkpt>
      <trkpt lat="44.34534" lon="3.61535">
        <ele>588</ele>
        <time>2009-07-09T15:57:33Z</time>
      </trkpt>
      <trkpt lat="44.34546" lon="3.61578">
        <ele>592</ele>
        <time>2009-07-09T15:57:48Z</time>
      </trkpt>
      <trkpt lat="44.34574" lon="3.61651">
        <ele>595</ele>
        <time>2009-07-09T15:58:12Z</time>
      </trkpt>
      <trkpt lat="44.34592" lon="3.61693">
        <ele>598</ele>
        <time>2009-07-09T15:58:25Z</time>
      </trkpt>
      <trkpt lat="44.3461" lon="3.61737">
        <ele>602</ele>
        <time>2009-07-09T15:58:39Z</time>
      </trkpt>
      <trkpt lat="44.34634" lon="3.61794">
        <ele>605</ele>
        <time>2009-07-09T15:58:57Z</time>
      </trkpt>
      <trkpt lat="44.3467" lon="3.61858">
        <ele>608</ele>
        <time>2009-07-09T15:59:17Z</time>
      </trkpt>
      <trkpt lat="44.34686" lon="3.61874">
        <ele>610</ele>
        <time>2009-07-09T15:59:23Z</time>
      </trkpt>
      <trkpt lat="44.34716" lon="3.61917">
        <ele>613</ele>
        <time>2009-07-09T15:59:37Z</time>
      </trkpt>
      <trkpt lat="44.34742" lon="3.61983">
        <ele>617</ele>
        <time>2009-07-09T15:59:53Z</time>
      </trkpt>
      <trkpt lat="44.34772" lon="3.62043">
        <ele>619</ele>
        <time>2009-07-09T16:00:09Z</time>
      </trkpt>
      <trkpt lat="44.34811" lon="3.62115">
        <ele>622</ele>
        <time>2009-07-09T16:00:29Z</time>
      </trkpt>
      <trkpt lat="44.3484" lon="3.62182">
        <ele>625</ele>
        <time>2009-07-09T16:00:47Z</time>
      </trkpt>
      <trkpt lat="44.34861" lon="3.62254">
        <ele>627</ele>
        <time>2009-07-09T16:01:05Z</time>
      </trkpt>
      <trkpt lat="44.34878" lon="3.62351">
        <ele>630</ele>
        <time>2009-07-09T16:01:28Z</time>
      </trkpt>
      <trkpt lat="44.34878" lon="3.62454">
        <ele>631</ele>
        <time>2009-07-09T16:01:49Z</time>
      </trkpt>
      <trkpt lat="44.34876" lon="3.62546">
        <ele>634</ele>
        <time>2009-07-09T16:02:07Z</time>
      </trkpt>
      <trkpt lat="44.34882" lon="3.62562">
        <ele>634</ele>
        <time>2009-07-09T16:02:10Z</time>
      </trkpt>
      <trkpt lat="44.34888" lon="3.62593">
        <ele>633</ele>
        <time>2009-07-09T16:02:15Z</time>
      </trkpt>
      <trkpt lat="44.34892" lon="3.62653">
        <ele>634</ele>
        <time>2009-07-09T16:02:24Z</time>
      </trkpt>
      <trkpt lat="44.34895" lon="3.62658">
        <ele>633</ele>
        <time>2009-07-09T16:02:25Z</time>
      </trkpt>
      <trkpt lat="44.34901" lon="3.62716">
        <ele>633</ele>
        <time>2009-07-09T16:02:34Z</time>
      </trkpt>
      <trkpt lat="44.34897" lon="3.62728">
        <ele>633</ele>
        <time>2009-07-09T16:02:36Z</time>
      </trkpt>
      <trkpt lat="44.34893" lon="3.62786">
        <ele>633</ele>
        <time>2009-07-09T16:02:44Z</time>
      </trkpt>
      <trkpt lat="44.34904" lon="3.62817">
        <ele>633</ele>
        <time>2009-07-09T16:02:49Z</time>
      </trkpt>
      <trkpt lat="44.34918" lon="3.62841">
        <ele>633</ele>
        <time>2009-07-09T16:02:53Z</time>
      </trkpt>
      <trkpt lat="44.34925" lon="3.6287">
        <ele>632</ele>
        <time>2009-07-09T16:02:57Z</time>
      </trkpt>
      <trkpt lat="44.34928" lon="3.63008">
        <ele>630</ele>
        <time>2009-07-09T16:03:15Z</time>
      </trkpt>
      <trkpt lat="44.34933" lon="3.631">
        <ele>632</ele>
        <time>2009-07-09T16:03:28Z</time>
      </trkpt>
      <trkpt lat="44.34947" lon="3.63121">
        <ele>632</ele>
        <time>2009-07-09T16:03:32Z</time>
      </trkpt>
      <trkpt lat="44.34972" lon="3.63137">
        <ele>631</ele>
        <time>2009-07-09T16:03:37Z</time>
      </trkpt>
      <trkpt lat="44.35042" lon="3.63129">
        <ele>631</ele>
        <time>2009-07-09T16:03:50Z</time>
      </trkpt>
      <trkpt lat="44.35065" lon="3.63112">
        <ele>630</ele>
        <time>2009-07-09T16:03:55Z</time>
      </trkpt>
      <trkpt lat="44.35139" lon="3.63025">
        <ele>630</ele>
        <time>2009-07-09T16:04:14Z</time>
      </trkpt>
      <trkpt lat="44.35156" lon="3.63007">
        <ele>630</ele>
        <time>2009-07-09T16:04:18Z</time>
      </trkpt>
      <trkpt lat="44.35232" lon="3.62981">
        <ele>628</ele>
        <time>2009-07-09T16:04:33Z</time>
      </trkpt>
      <trkpt lat="44.35277" lon="3.62981">
        <ele>628</ele>
        <time>2009-07-09T16:04:42Z</time>
      </trkpt>
      <trkpt lat="44.35291" lon="3.62986">
        <ele>629</ele>
        <time>2009-07-09T16:04:45Z</time>
      </trkpt>
      <trkpt lat="44.35326" lon="3.63005">
        <ele>628</ele>
        <time>2009-07-09T16:04:53Z</time>
      </trkpt>
      <trkpt lat="44.35345" lon="3.63003">
        <ele>627</ele>
        <time>2009-07-09T16:04:57Z</time>
      </trkpt>
      <trkpt lat="44.35378" lon="3.63005">
        <ele>623</ele>
        <time>2009-07-09T16:05:03Z</time>
      </trkpt>
      <trkpt lat="44.35382" lon="3.63012">
        <ele>623</ele>
        <time>2009-07-09T16:05:04Z</time>
      </trkpt>
      <trkpt lat="44.35387" lon="3.6302">
        <ele>622</ele>
        <time>2009-07-09T16:05:05Z</time>
      </trkpt>
      <trkpt lat="44.35405" lon="3.63052">
        <ele>620</ele>
        <time>2009-07-09T16:05:09Z</time>
      </trkpt>
      <trkpt lat="44.35416" lon="3.63093">
        <ele>617</ele>
        <time>2009-07-09T16:05:13Z</time>
      </trkpt>
      <trkpt lat="44.35412" lon="3.63142">
        <ele>618</ele>
        <time>2009-07-09T16:05:20Z</time>
      </trkpt>
      <trkpt lat="44.35409" lon="3.63148">
        <ele>618</ele>
        <time>2009-07-09T16:06:15Z</time>
      </trkpt>
      <trkpt lat="44.35409" lon="3.63188">
        <ele>616</ele>
        <time>2009-07-09T16:06:07Z</time>
      </trkpt>
      <trkpt lat="44.35412" lon="3.63211">
        <ele>614</ele>
        <time>2009-07-09T16:06:10Z</time>
      </trkpt>
      <trkpt lat="44.35414" lon="3.63219">
        <ele>614</ele>
        <time>2009-07-09T16:06:11Z</time>
      </trkpt>
      <trkpt lat="44.35416" lon="3.63235">
        <ele>612</ele>
        <time>2009-07-09T16:06:13Z</time>
      </trkpt>
      <trkpt lat="44.35407" lon="3.63316">
        <ele>613</ele>
        <time>2009-07-09T16:06:25Z</time>
      </trkpt>
      <trkpt lat="44.35408" lon="3.63414">
        <ele>616</ele>
        <time>2009-07-09T16:06:44Z</time>
      </trkpt>
      <trkpt lat="44.35413" lon="3.63448">
        <ele>619</ele>
        <time>2009-07-09T16:06:52Z</time>
      </trkpt>
      <trkpt lat="44.35424" lon="3.63528">
        <ele>622</ele>
        <time>2009-07-09T16:07:11Z</time>
      </trkpt>
      <trkpt lat="44.35427" lon="3.63548">
        <ele>623</ele>
        <time>2009-07-09T16:07:16Z</time>
      </trkpt>
      <trkpt lat="44.35436" lon="3.63643">
        <ele>626</ele>
        <time>2009-07-09T16:07:39Z</time>
      </trkpt>
      <trkpt lat="44.35456" lon="3.63741">
        <ele>628</ele>
        <time>2009-07-09T16:08:03Z</time>
      </trkpt>
      <trkpt lat="44.35478" lon="3.63762">
        <ele>628</ele>
        <time>2009-07-09T16:08:10Z</time>
      </trkpt>
      <trkpt lat="44.35539" lon="3.63833">
        <ele>626</ele>
        <time>2009-07-09T16:08:27Z</time>
      </trkpt>
      <trkpt lat="44.3557" lon="3.63859">
        <ele>624</ele>
        <time>2009-07-09T16:08:34Z</time>
      </trkpt>
      <trkpt lat="44.35604" lon="3.63901">
        <ele>623</ele>
        <time>2009-07-09T16:08:42Z</time>
      </trkpt>
      <trkpt lat="44.35611" lon="3.63915">
        <ele>622</ele>
        <time>2009-07-09T16:08:44Z</time>
      </trkpt>
      <trkpt lat="44.35617" lon="3.63931">
        <ele>622</ele>
        <time>2009-07-09T16:08:46Z</time>
      </trkpt>
      <trkpt lat="44.35628" lon="3.63966">
        <ele>619</ele>
        <time>2009-07-09T16:08:50Z</time>
      </trkpt>
      <trkpt lat="44.3564" lon="3.64">
        <ele>617</ele>
        <time>2009-07-09T16:08:54Z</time>
      </trkpt>
      <trkpt lat="44.35676" lon="3.64106">
        <ele>618</ele>
        <time>2009-07-09T16:09:07Z</time>
      </trkpt>
      <trkpt lat="44.35698" lon="3.64136">
        <ele>620</ele>
        <time>2009-07-09T16:09:15Z</time>
      </trkpt>
      <trkpt lat="44.35748" lon="3.6416">
        <ele>622</ele>
        <time>2009-07-09T16:09:29Z</time>
      </trkpt>
      <trkpt lat="44.35809" lon="3.6419">
        <ele>625</ele>
        <time>2009-07-09T16:09:47Z</time>
      </trkpt>
      <trkpt lat="44.35834" lon="3.64242">
        <ele>626</ele>
        <time>2009-07-09T16:10:01Z</time>
      </trkpt>
      <trkpt lat="44.35839" lon="3.64263">
        <ele>627</ele>
        <time>2009-07-09T16:10:07Z</time>
      </trkpt>
      <trkpt lat="44.3585" lon="3.64293">
        <ele>629</ele>
        <time>2009-07-09T16:10:16Z</time>
      </trkpt>
      <trkpt lat="44.35862" lon="3.64332">
        <ele>631</ele>
        <time>2009-07-09T16:10:30Z</time>
      </trkpt>
      <trkpt lat="44.35883" lon="3.64377">
        <ele>633</ele>
        <time>2009-07-09T16:10:46Z</time>
      </trkpt>
      <trkpt lat="44.35916" lon="3.64426">
        <ele>636</ele>
        <time>2009-07-09T16:11:04Z</time>
      </trkpt>
      <trkpt lat="44.35928" lon="3.64461">
        <ele>639</ele>
        <time>2009-07-09T16:11:15Z</time>
      </trkpt>
      <trkpt lat="44.35928" lon="3.64465">
        <ele>639</ele>
        <time>2009-07-09T16:11:16Z</time>
      </trkpt>
      <trkpt lat="44.35936" lon="3.64535">
        <ele>643</ele>
        <time>2009-07-09T16:11:36Z</time>
      </trkpt>
      <trkpt lat="44.35959" lon="3.64566">
        <ele>646</ele>
        <time>2009-07-09T16:11:49Z</time>
      </trkpt>
      <trkpt lat="44.35996" lon="3.64604">
        <ele>648</ele>
        <time>2009-07-09T16:12:07Z</time>
      </trkpt>
      <trkpt lat="44.36015" lon="3.64668">
        <ele>650</ele>
        <time>2009-07-09T16:12:26Z</time>
      </trkpt>
      <trkpt lat="44.36042" lon="3.64707">
        <ele>653</ele>
        <time>2009-07-09T16:12:42Z</time>
      </trkpt>
      <trkpt lat="44.36069" lon="3.64741">
        <ele>656</ele>
        <time>2009-07-09T16:12:57Z</time>
      </trkpt>
      <trkpt lat="44.36095" lon="3.64798">
        <ele>658</ele>
        <time>2009-07-09T16:13:16Z</time>
      </trkpt>
      <trkpt lat="44.36114" lon="3.64853">
        <ele>660</ele>
        <time>2009-07-09T16:13:34Z</time>
      </trkpt>
      <trkpt lat="44.36142" lon="3.64874">
        <ele>662</ele>
        <time>2009-07-09T16:13:48Z</time>
      </trkpt>
      <trkpt lat="44.36163" lon="3.64901">
        <ele>664</ele>
        <time>2009-07-09T16:14:00Z</time>
      </trkpt>
      <trkpt lat="44.3616" lon="3.64958">
        <ele>666</ele>
        <time>2009-07-09T16:14:17Z</time>
      </trkpt>
      <trkpt lat="44.36158" lon="3.65003">
        <ele>669</ele>
        <time>2009-07-09T16:14:30Z</time>
      </trkpt>
      <trkpt lat="44.36174" lon="3.65057">
        <ele>672</ele>
        <time>2009-07-09T16:14:48Z</time>
      </trkpt>
      <trkpt lat="44.36219" lon="3.6508">
        <ele>675</ele>
        <time>2009-07-09T16:15:06Z</time>
      </trkpt>
      <trkpt lat="44.36253" lon="3.6511">
        <ele>678</ele>
        <time>2009-07-09T16:15:22Z</time>
      </trkpt>
      <trkpt lat="44.36286" lon="3.65119">
        <ele>680</ele>
        <time>2009-07-09T16:15:36Z</time>
      </trkpt>
      <trkpt lat="44.36327" lon="3.65108">
        <ele>683</ele>
        <time>2009-07-09T16:15:53Z</time>
      </trkpt>
      <trkpt lat="44.36366" lon="3.65124">
        <ele>685</ele>
        <time>2009-07-09T16:16:11Z</time>
      </trkpt>
      <trkpt lat="44.36377" lon="3.65133">
        <ele>686</ele>
        <time>2009-07-09T16:16:16Z</time>
      </trkpt>
      <trkpt lat="44.36413" lon="3.65135">
        <ele>689</ele>
        <time>2009-07-09T16:16:31Z</time>
      </trkpt>
      <trkpt lat="44.3644" lon="3.65113">
        <ele>692</ele>
        <time>2009-07-09T16:16:44Z</time>
      </trkpt>
      <trkpt lat="44.36476" lon="3.65109">
        <ele>695</ele>
        <time>2009-07-09T16:16:59Z</time>
      </trkpt>
      <trkpt lat="44.36511" lon="3.65137">
        <ele>697</ele>
        <time>2009-07-09T16:17:15Z</time>
      </trkpt>
      <trkpt lat="44.3653" lon="3.65173">
        <ele>700</ele>
        <time>2009-07-09T16:17:29Z</time>
      </trkpt>
      <trkpt lat="44.36538" lon="3.65172">
        <ele>700</ele>
        <time>2009-07-09T16:17:39Z</time>
      </trkpt>
      <trkpt lat="44.3657" lon="3.65157">
        <ele>703</ele>
        <time>2009-07-09T16:17:54Z</time>
      </trkpt>
      <trkpt lat="44.36601" lon="3.65167">
        <ele>705</ele>
        <time>2009-07-09T16:18:08Z</time>
      </trkpt>
      <trkpt lat="44.36641" lon="3.65159">
        <ele>708</ele>
        <time>2009-07-09T16:18:25Z</time>
      </trkpt>
      <trkpt lat="44.3668" lon="3.65147">
        <ele>712</ele>
        <time>2009-07-09T16:18:42Z</time>
      </trkpt>
      <trkpt lat="44.36731" lon="3.65145">
        <ele>714</ele>
        <time>2009-07-09T16:19:03Z</time>
      </trkpt>
      <trkpt lat="44.36769" lon="3.65144">
        <ele>716</ele>
        <time>2009-07-09T16:19:19Z</time>
      </trkpt>
      <trkpt lat="44.36764" lon="3.65131">
        <ele>719</ele>
        <time>2009-07-09T16:19:27Z</time>
      </trkpt>
      <trkpt lat="44.36762" lon="3.65131">
        <ele>719</ele>
        <time>2009-07-09T16:19:28Z</time>
      </trkpt>
      <trkpt lat="44.36725" lon="3.65121">
        <ele>722</ele>
        <time>2009-07-09T16:19:45Z</time>
      </trkpt>
      <trkpt lat="44.36717" lon="3.65112">
        <ele>724</ele>
        <time>2009-07-09T16:19:57Z</time>
      </trkpt>
      <trkpt lat="44.36717" lon="3.65112">
        <ele>724</ele>
        <time>2009-07-09T16:20:00Z</time>
      </trkpt>
      <trkpt lat="44.36714" lon="3.65104">
        <ele>724</ele>
        <time>2009-07-09T16:20:04Z</time>
      </trkpt>
      <trkpt lat="44.36701" lon="3.65076">
        <ele>727</ele>
        <time>2009-07-09T16:20:14Z</time>
      </trkpt>
      <trkpt lat="44.36674" lon="3.65046">
        <ele>730</ele>
        <time>2009-07-09T16:20:30Z</time>
      </trkpt>
      <trkpt lat="44.36641" lon="3.65032">
        <ele>732</ele>
        <time>2009-07-09T16:20:47Z</time>
      </trkpt>
      <trkpt lat="44.36608" lon="3.65029">
        <ele>736</ele>
        <time>2009-07-09T16:21:03Z</time>
      </trkpt>
      <trkpt lat="44.36576" lon="3.65005">
        <ele>739</ele>
        <time>2009-07-09T16:21:20Z</time>
      </trkpt>
      <trkpt lat="44.36556" lon="3.64961">
        <ele>742</ele>
        <time>2009-07-09T16:21:37Z</time>
      </trkpt>
      <trkpt lat="44.36536" lon="3.64926">
        <ele>746</ele>
        <time>2009-07-09T16:21:53Z</time>
      </trkpt>
      <trkpt lat="44.36535" lon="3.64887">
        <ele>747</ele>
        <time>2009-07-09T16:22:07Z</time>
      </trkpt>
      <trkpt lat="44.36533" lon="3.64842">
        <ele>749</ele>
        <time>2009-07-09T16:22:23Z</time>
      </trkpt>
      <trkpt lat="44.36502" lon="3.64842">
        <ele>751</ele>
        <time>2009-07-09T16:22:37Z</time>
      </trkpt>
      <trkpt lat="44.36483" lon="3.64844">
        <ele>754</ele>
        <time>2009-07-09T16:22:46Z</time>
      </trkpt>
      <trkpt lat="44.36481" lon="3.64844">
        <ele>754</ele>
        <time>2009-07-09T16:22:47Z</time>
      </trkpt>
      <trkpt lat="44.36457" lon="3.6484">
        <ele>757</ele>
        <time>2009-07-09T16:22:58Z</time>
      </trkpt>
      <trkpt lat="44.36417" lon="3.64852">
        <ele>760</ele>
        <time>2009-07-09T16:23:17Z</time>
      </trkpt>
      <trkpt lat="44.36384" lon="3.6487">
        <ele>764</ele>
        <time>2009-07-09T16:23:33Z</time>
      </trkpt>
      <trkpt lat="44.3638" lon="3.64872">
        <ele>765</ele>
        <time>2009-07-09T16:23:35Z</time>
      </trkpt>
      <trkpt lat="44.36353" lon="3.64873">
        <ele>767</ele>
        <time>2009-07-09T16:23:50Z</time>
      </trkpt>
      <trkpt lat="44.36351" lon="3.6484">
        <ele>770</ele>
        <time>2009-07-09T16:24:03Z</time>
      </trkpt>
      <trkpt lat="44.36352" lon="3.64837">
        <ele>771</ele>
        <time>2009-07-09T16:24:14Z</time>
      </trkpt>
      <trkpt lat="44.36352" lon="3.64837">
        <ele>772</ele>
        <time>2009-07-09T16:24:34Z</time>
      </trkpt>
    </trkseg>
  </trk>
  <trk>
    <name><![CDATA[E01]]></name>
    <trkseg>
      <trkpt lat="44.36346" lon="3.64829">
        <ele>745</ele>
        <time>2009-07-10T06:38:57Z</time>
      </trkpt>
      <trkpt lat="44.36346" lon="3.64829">
        <ele>745</ele>
        <time>2009-07-10T06:39:04Z</time>
      </trkpt>
      <trkpt lat="44.36346" lon="3.64829">
        <ele>744</ele>
        <time>2009-07-10T06:39:06Z</time>
      </trkpt>
      <trkpt lat="44.36346" lon="3.64829">
        <ele>745</ele>
        <time>2009-07-10T06:39:10Z</time>
      </trkpt>
      <trkpt lat="44.36346" lon="3.64829">
        <ele>744</ele>
        <time>2009-07-10T06:39:12Z</time>
      </trkpt>
      <trkpt lat="44.36346" lon="3.6483">
        <ele>748</ele>
        <time>2009-07-10T06:39:29Z</time>
      </trkpt>
      <trkpt lat="44.36346" lon="3.64831">
        <ele>748</ele>
        <time>2009-07-10T06:39:30Z</time>
      </trkpt>
      <trkpt lat="44.36345" lon="3.64833">
        <ele>751</ele>
        <time>2009-07-10T06:39:34Z</time>
      </trkpt>
      <trkpt lat="44.36345" lon="3.64836">
        <ele>755</ele>
        <time>2009-07-10T06:39:38Z</time>
      </trkpt>
      <trkpt lat="44.36344" lon="3.64838">
        <ele>758</ele>
        <time>2009-07-10T06:39:42Z</time>
      </trkpt>
      <trkpt lat="44.36344" lon="3.6484">
        <ele>761</ele>
        <time>2009-07-10T06:39:46Z</time>
      </trkpt>
      <trkpt lat="44.36344" lon="3.64841">
        <ele>765</ele>
        <time>2009-07-10T06:39:50Z</time>
      </trkpt>
      <trkpt lat="44.36344" lon="3.64841">
        <ele>768</ele>
        <time>2009-07-10T06:39:55Z</time>
      </trkpt>
      <trkpt lat="44.36344" lon="3.64841">
        <ele>769</ele>
        <time>2009-07-10T06:39:56Z</time>
      </trkpt>
      <trkpt lat="44.36344" lon="3.6484">
        <ele>772</ele>
        <time>2009-07-10T06:40:01Z</time>
      </trkpt>
      <trkpt lat="44.36344" lon="3.6484">
        <ele>774</ele>
        <time>2009-07-10T06:40:05Z</time>
      </trkpt>
      <trkpt lat="44.36345" lon="3.64838">
        <ele>778</ele>
        <time>2009-07-10T06:40:13Z</time>
      </trkpt>
      <trkpt lat="44.36349" lon="3.6484">
        <ele>778</ele>
        <time>2009-07-10T06:41:51Z</time>
      </trkpt>
      <trkpt lat="44.36349" lon="3.6484">
        <ele>778</ele>
        <time>2009-07-10T06:44:22Z</time>
      </trkpt>
      <trkpt lat="44.36348" lon="3.64841">
        <ele>778</ele>
        <time>2009-07-10T06:44:52Z</time>
      </trkpt>
      <trkpt lat="44.36348" lon="3.6484">
        <ele>779</ele>
        <time>2009-07-10T06:45:14Z</time>
      </trkpt>
      <trkpt lat="44.36348" lon="3.64838">
        <ele>779</ele>
        <time>2009-07-10T06:45:54Z</time>
      </trkpt>
      <trkpt lat="44.36346" lon="3.64837">
        <ele>779</ele>
        <time>2009-07-10T06:46:26Z</time>
      </trkpt>
      <trkpt lat="44.36347" lon="3.64837">
        <ele>778</ele>
        <time>2009-07-10T06:46:56Z</time>
      </trkpt>
      <trkpt lat="44.36346" lon="3.64836">
        <ele>778</ele>
        <time>2009-07-10T06:47:19Z</time>
      </trkpt>
      <trkpt lat="44.36332" lon="3.64817">
        <ele>781</ele>
        <time>2009-07-10T06:47:34Z</time>
      </trkpt>
      <trkpt lat="44.36331" lon="3.64814">
        <ele>781</ele>
        <time>2009-07-10T06:47:36Z</time>
      </trkpt>
      <trkpt lat="44.36336" lon="3.64805">
        <ele>783</ele>
        <time>2009-07-10T06:47:43Z</time>
      </trkpt>
      <trkpt lat="44.36343" lon="3.64804">
        <ele>784</ele>
        <time>2009-07-10T06:47:49Z</time>
      </trkpt>
      <trkpt lat="44.36347" lon="3.64804">
        <ele>785</ele>
        <time>2009-07-10T06:47:52Z</time>
      </trkpt>
      <trkpt lat="44.36351" lon="3.64796">
        <ele>786</ele>
        <time>2009-07-10T06:47:58Z</time>
      </trkpt>
      <trkpt lat="44.36371" lon="3.64772">
        <ele>789</ele>
        <time>2009-07-10T06:48:16Z</time>
      </trkpt>
      <trkpt lat="44.36393" lon="3.64768">
        <ele>791</ele>
        <time>2009-07-10T06:48:32Z</time>
      </trkpt>
      <trkpt lat="44.36421" lon="3.64753">
        <ele>793</ele>
        <time>2009-07-10T06:48:53Z</time>
      </trkpt>
      <trkpt lat="44.36438" lon="3.64723">
        <ele>796</ele>
        <time>2009-07-10T06:49:12Z</time>
      </trkpt>
      <trkpt lat="44.36455" lon="3.64705">
        <ele>799</ele>
        <time>2009-07-10T06:49:27Z</time>
      </trkpt>
      <trkpt lat="44.36462" lon="3.647">
        <ele>801</ele>
        <time>2009-07-10T06:49:33Z</time>
      </trkpt>
      <trkpt lat="44.36468" lon="3.64679">
        <ele>804</ele>
        <time>2009-07-10T06:49:48Z</time>
      </trkpt>
      <trkpt lat="44.36452" lon="3.64662">
        <ele>807</ele>
        <time>2009-07-10T06:50:04Z</time>
      </trkpt>
      <trkpt lat="44.3645" lon="3.6466">
        <ele>808</ele>
        <time>2009-07-10T06:50:07Z</time>
      </trkpt>
      <trkpt lat="44.36463" lon="3.64651">
        <ele>811</ele>
        <time>2009-07-10T06:50:20Z</time>
      </trkpt>
      <trkpt lat="44.36482" lon="3.64653">
        <ele>814</ele>
        <time>2009-07-10T06:50:36Z</time>
      </trkpt>
      <trkpt lat="44.36497" lon="3.64656">
        <ele>817</ele>
        <time>2009-07-10T06:50:49Z</time>
      </trkpt>
      <trkpt lat="44.36499" lon="3.64656">
        <ele>818</ele>
        <time>2009-07-10T06:50:51Z</time>
      </trkpt>
      <trkpt lat="44.36517" lon="3.64653">
        <ele>821</ele>
        <time>2009-07-10T06:51:05Z</time>
      </trkpt>
      <trkpt lat="44.36525" lon="3.6465">
        <ele>823</ele>
        <time>2009-07-10T06:51:12Z</time>
      </trkpt>
      <trkpt lat="44.36541" lon="3.64644">
        <ele>826</ele>
        <time>2009-07-10T06:51:27Z</time>
      </trkpt>
      <trkpt lat="44.36555" lon="3.64637">
        <ele>829</ele>
        <time>2009-07-10T06:51:40Z</time>
      </trkpt>
      <trkpt lat="44.3657" lon="3.6463">
        <ele>832</ele>
        <time>2009-07-10T06:51:53Z</time>
      </trkpt>
      <trkpt lat="44.36582" lon="3.6462">
        <ele>836</ele>
        <time>2009-07-10T06:52:07Z</time>
      </trkpt>
      <trkpt lat="44.36591" lon="3.64613">
        <ele>839</ele>
        <time>2009-07-10T06:52:17Z</time>
      </trkpt>
      <trkpt lat="44.36593" lon="3.64612">
        <ele>840</ele>
        <time>2009-07-10T06:52:19Z</time>
      </trkpt>
      <trkpt lat="44.36601" lon="3.64606">
        <ele>841</ele>
        <time>2009-07-10T06:52:27Z</time>
      </trkpt>
      <trkpt lat="44.36595" lon="3.64598">
        <ele>842</ele>
        <time>2009-07-10T06:52:37Z</time>
      </trkpt>
      <trkpt lat="44.36585" lon="3.646">
        <ele>843</ele>
        <time>2009-07-10T06:52:45Z</time>
      </trkpt>
      <trkpt lat="44.36564" lon="3.64592">
        <ele>846</ele>
        <time>2009-07-10T06:53:02Z</time>
      </trkpt>
      <trkpt lat="44.36543" lon="3.64582">
        <ele>849</ele>
        <time>2009-07-10T06:53:20Z</time>
      </trkpt>
      <trkpt lat="44.36522" lon="3.64569">
        <ele>851</ele>
        <time>2009-07-10T06:53:37Z</time>
      </trkpt>
      <trkpt lat="44.36522" lon="3.64569">
        <ele>851</ele>
        <time>2009-07-10T06:54:06Z</time>
      </trkpt>
      <trkpt lat="44.36519" lon="3.64541">
        <ele>854</ele>
        <time>2009-07-10T06:54:22Z</time>
      </trkpt>
      <trkpt lat="44.36514" lon="3.64517">
        <ele>857</ele>
        <time>2009-07-10T06:54:36Z</time>
      </trkpt>
      <trkpt lat="44.36513" lon="3.64493">
        <ele>860</ele>
        <time>2009-07-10T06:54:49Z</time>
      </trkpt>
      <trkpt lat="44.3651" lon="3.64481">
        <ele>863</ele>
        <time>2009-07-10T06:54:56Z</time>
      </trkpt>
      <trkpt lat="44.36503" lon="3.64455">
        <ele>866</ele>
        <time>2009-07-10T06:55:12Z</time>
      </trkpt>
      <trkpt lat="44.36502" lon="3.64454">
        <ele>866</ele>
        <time>2009-07-10T06:55:13Z</time>
      </trkpt>
      <trkpt lat="44.36501" lon="3.64448">
        <ele>868</ele>
        <time>2009-07-10T06:55:17Z</time>
      </trkpt>
      <trkpt lat="44.36488" lon="3.64427">
        <ele>871</ele>
        <time>2009-07-10T06:55:33Z</time>
      </trkpt>
      <trkpt lat="44.36487" lon="3.64426">
        <ele>871</ele>
        <time>2009-07-10T06:55:34Z</time>
      </trkpt>
      <trkpt lat="44.36497" lon="3.64426">
        <ele>873</ele>
        <time>2009-07-10T06:55:44Z</time>
      </trkpt>
      <trkpt lat="44.36499" lon="3.64427">
        <ele>874</ele>
        <time>2009-07-10T06:55:46Z</time>
      </trkpt>
      <trkpt lat="44.36521" lon="3.64441">
        <ele>877</ele>
        <time>2009-07-10T06:56:05Z</time>
      </trkpt>
      <trkpt lat="44.36537" lon="3.64454">
        <ele>879</ele>
        <time>2009-07-10T06:56:20Z</time>
      </trkpt>
      <trkpt lat="44.3655" lon="3.64466">
        <ele>882</ele>
        <time>2009-07-10T06:56:34Z</time>
      </trkpt>
      <trkpt lat="44.36567" lon="3.64476">
        <ele>886</ele>
        <time>2009-07-10T06:56:49Z</time>
      </trkpt>
      <trkpt lat="44.36585" lon="3.64477">
        <ele>888</ele>
        <time>2009-07-10T06:57:04Z</time>
      </trkpt>
      <trkpt lat="44.3659" lon="3.64476">
        <ele>890</ele>
        <time>2009-07-10T06:57:08Z</time>
      </trkpt>
      <trkpt lat="44.3661" lon="3.64472">
        <ele>893</ele>
        <time>2009-07-10T06:57:24Z</time>
      </trkpt>
      <trkpt lat="44.36612" lon="3.64471">
        <ele>894</ele>
        <time>2009-07-10T06:57:26Z</time>
      </trkpt>
      <trkpt lat="44.36628" lon="3.64466">
        <ele>897</ele>
        <time>2009-07-10T06:57:39Z</time>
      </trkpt>
      <trkpt lat="44.36629" lon="3.64466">
        <ele>898</ele>
        <time>2009-07-10T06:57:40Z</time>
      </trkpt>
      <trkpt lat="44.36636" lon="3.64464">
        <ele>900</ele>
        <time>2009-07-10T06:57:46Z</time>
      </trkpt>
      <trkpt lat="44.36657" lon="3.64462">
        <ele>903</ele>
        <time>2009-07-10T06:58:03Z</time>
      </trkpt>
      <trkpt lat="44.36679" lon="3.64461">
        <ele>906</ele>
        <time>2009-07-10T06:58:21Z</time>
      </trkpt>
      <trkpt lat="44.36682" lon="3.6446">
        <ele>908</ele>
        <time>2009-07-10T06:58:23Z</time>
      </trkpt>
      <trkpt lat="44.36689" lon="3.64458">
        <ele>910</ele>
        <time>2009-07-10T06:58:36Z</time>
      </trkpt>
      <trkpt lat="44.36691" lon="3.64455">
        <ele>911</ele>
        <time>2009-07-10T06:58:41Z</time>
      </trkpt>
      <trkpt lat="44.36692" lon="3.64451">
        <ele>911</ele>
        <time>2009-07-10T06:58:44Z</time>
      </trkpt>
      <trkpt lat="44.36682" lon="3.64448">
        <ele>912</ele>
        <time>2009-07-10T06:58:51Z</time>
      </trkpt>
      <trkpt lat="44.36665" lon="3.64435">
        <ele>915</ele>
        <time>2009-07-10T06:59:05Z</time>
      </trkpt>
      <trkpt lat="44.36656" lon="3.64423">
        <ele>918</ele>
        <time>2009-07-10T06:59:15Z</time>
      </trkpt>
      <trkpt lat="44.36649" lon="3.64414">
        <ele>921</ele>
        <time>2009-07-10T06:59:23Z</time>
      </trkpt>
      <trkpt lat="44.36644" lon="3.64407">
        <ele>923</ele>
        <time>2009-07-10T06:59:29Z</time>
      </trkpt>
      <trkpt lat="44.36623" lon="3.64384">
        <ele>926</ele>
        <time>2009-07-10T06:59:50Z</time>
      </trkpt>
      <trkpt lat="44.36611" lon="3.6437">
        <ele>930</ele>
        <time>2009-07-10T07:00:03Z</time>
      </trkpt>
      <trkpt lat="44.36604" lon="3.6436">
        <ele>933</ele>
        <time>2009-07-10T07:00:11Z</time>
      </trkpt>
      <trkpt lat="44.36603" lon="3.64359">
        <ele>933</ele>
        <time>2009-07-10T07:00:12Z</time>
      </trkpt>
      <trkpt lat="44.36596" lon="3.64349">
        <ele>935</ele>
        <time>2009-07-10T07:00:20Z</time>
      </trkpt>
      <trkpt lat="44.36589" lon="3.64338">
        <ele>938</ele>
        <time>2009-07-10T07:00:29Z</time>
      </trkpt>
      <trkpt lat="44.36576" lon="3.64312">
        <ele>941</ele>
        <time>2009-07-10T07:00:47Z</time>
      </trkpt>
      <trkpt lat="44.36563" lon="3.64289">
        <ele>943</ele>
        <time>2009-07-10T07:01:04Z</time>
      </trkpt>
      <trkpt lat="44.3655" lon="3.64271">
        <ele>946</ele>
        <time>2009-07-10T07:01:18Z</time>
      </trkpt>
      <trkpt lat="44.36541" lon="3.64252">
        <ele>950</ele>
        <time>2009-07-10T07:01:31Z</time>
      </trkpt>
      <trkpt lat="44.36539" lon="3.64246">
        <ele>951</ele>
        <time>2009-07-10T07:01:35Z</time>
      </trkpt>
      <trkpt lat="44.36542" lon="3.64234">
        <ele>954</ele>
        <time>2009-07-10T07:01:48Z</time>
      </trkpt>
      <trkpt lat="44.36543" lon="3.64235">
        <ele>954</ele>
        <time>2009-07-10T07:01:49Z</time>
      </trkpt>
      <trkpt lat="44.36565" lon="3.64253">
        <ele>956</ele>
        <time>2009-07-10T07:02:07Z</time>
      </trkpt>
      <trkpt lat="44.36586" lon="3.64256">
        <ele>960</ele>
        <time>2009-07-10T07:02:24Z</time>
      </trkpt>
      <trkpt lat="44.36588" lon="3.64257">
        <ele>961</ele>
        <time>2009-07-10T07:02:26Z</time>
      </trkpt>
      <trkpt lat="44.36608" lon="3.64266">
        <ele>965</ele>
        <time>2009-07-10T07:02:42Z</time>
      </trkpt>
      <trkpt lat="44.36617" lon="3.64272">
        <ele>967</ele>
        <time>2009-07-10T07:02:50Z</time>
      </trkpt>
      <trkpt lat="44.36634" lon="3.64282">
        <ele>970</ele>
        <time>2009-07-10T07:03:05Z</time>
      </trkpt>
      <trkpt lat="44.36642" lon="3.64285">
        <ele>972</ele>
        <time>2009-07-10T07:03:11Z</time>
      </trkpt>
      <trkpt lat="44.36668" lon="3.64289">
        <ele>974</ele>
        <time>2009-07-10T07:03:31Z</time>
      </trkpt>
      <trkpt lat="44.36675" lon="3.64291">
        <ele>976</ele>
        <time>2009-07-10T07:03:36Z</time>
      </trkpt>
      <trkpt lat="44.36683" lon="3.64294">
        <ele>979</ele>
        <time>2009-07-10T07:03:43Z</time>
      </trkpt>
      <trkpt lat="44.36699" lon="3.64295">
        <ele>981</ele>
        <time>2009-07-10T07:03:55Z</time>
      </trkpt>
      <trkpt lat="44.36714" lon="3.64295">
        <ele>984</ele>
        <time>2009-07-10T07:04:07Z</time>
      </trkpt>
      <trkpt lat="44.36734" lon="3.64294">
        <ele>987</ele>
        <time>2009-07-10T07:04:23Z</time>
      </trkpt>
      <trkpt lat="44.36756" lon="3.64295">
        <ele>991</ele>
        <time>2009-07-10T07:04:40Z</time>
      </trkpt>
      <trkpt lat="44.36777" lon="3.64293">
        <ele>994</ele>
        <time>2009-07-10T07:04:56Z</time>
      </trkpt>
      <trkpt lat="44.36794" lon="3.64296">
        <ele>997</ele>
        <time>2009-07-10T07:05:10Z</time>
      </trkpt>
      <trkpt lat="44.36795" lon="3.64296">
        <ele>997</ele>
        <time>2009-07-10T07:05:11Z</time>
      </trkpt>
      <trkpt lat="44.36799" lon="3.64274">
        <ele>1000</ele>
        <time>2009-07-10T07:05:25Z</time>
      </trkpt>
      <trkpt lat="44.36788" lon="3.64235">
        <ele>1002</ele>
        <time>2009-07-10T07:05:44Z</time>
      </trkpt>
      <trkpt lat="44.36789" lon="3.64194">
        <ele>1005</ele>
        <time>2009-07-10T07:06:04Z</time>
      </trkpt>
      <trkpt lat="44.368" lon="3.64169">
        <ele>1008</ele>
        <time>2009-07-10T07:06:19Z</time>
      </trkpt>
      <trkpt lat="44.36803" lon="3.64167">
        <ele>1009</ele>
        <time>2009-07-10T07:06:21Z</time>
      </trkpt>
      <trkpt lat="44.36823" lon="3.64158">
        <ele>1013</ele>
        <time>2009-07-10T07:06:37Z</time>
      </trkpt>
      <trkpt lat="44.36833" lon="3.64149">
        <ele>1016</ele>
        <time>2009-07-10T07:06:46Z</time>
      </trkpt>
      <trkpt lat="44.36835" lon="3.64146">
        <ele>1017</ele>
        <time>2009-07-10T07:06:48Z</time>
      </trkpt>
      <trkpt lat="44.36851" lon="3.64125">
        <ele>1020</ele>
        <time>2009-07-10T07:07:04Z</time>
      </trkpt>
      <trkpt lat="44.3686" lon="3.64113">
        <ele>1021</ele>
        <time>2009-07-10T07:07:13Z</time>
      </trkpt>
      <trkpt lat="44.36884" lon="3.64094">
        <ele>1023</ele>
        <time>2009-07-10T07:07:32Z</time>
      </trkpt>
      <trkpt lat="44.36887" lon="3.64093">
        <ele>1023</ele>
        <time>2009-07-10T07:07:34Z</time>
      </trkpt>
      <trkpt lat="44.3689" lon="3.64095">
        <ele>1023</ele>
        <time>2009-07-10T07:07:50Z</time>
      </trkpt>
      <trkpt lat="44.36893" lon="3.64096">
        <ele>1022</ele>
        <time>2009-07-10T07:08:11Z</time>
      </trkpt>
      <trkpt lat="44.36894" lon="3.64098">
        <ele>1025</ele>
        <time>2009-07-10T07:17:32Z</time>
      </trkpt>
      <trkpt lat="44.36893" lon="3.64095">
        <ele>1025</ele>
        <time>2009-07-10T07:19:00Z</time>
      </trkpt>
      <trkpt lat="44.36902" lon="3.64058">
        <ele>1023</ele>
        <time>2009-07-10T07:19:12Z</time>
      </trkpt>
      <trkpt lat="44.36904" lon="3.64046">
        <ele>1023</ele>
        <time>2009-07-10T07:19:15Z</time>
      </trkpt>
      <trkpt lat="44.369" lon="3.64018">
        <ele>1020</ele>
        <time>2009-07-10T07:19:19Z</time>
      </trkpt>
      <trkpt lat="44.36897" lon="3.64002">
        <ele>1018</ele>
        <time>2009-07-10T07:19:21Z</time>
      </trkpt>
      <trkpt lat="44.36905" lon="3.6398">
        <ele>1018</ele>
        <time>2009-07-10T07:19:29Z</time>
      </trkpt>
      <trkpt lat="44.36907" lon="3.63977">
        <ele>1018</ele>
        <time>2009-07-10T07:19:40Z</time>
      </trkpt>
      <trkpt lat="44.36909" lon="3.63974">
        <ele>1019</ele>
        <time>2009-07-10T07:19:51Z</time>
      </trkpt>
      <trkpt lat="44.3691" lon="3.63972">
        <ele>1018</ele>
        <time>2009-07-10T07:20:01Z</time>
      </trkpt>
      <trkpt lat="44.36911" lon="3.63972">
        <ele>1018</ele>
        <time>2009-07-10T07:20:16Z</time>
      </trkpt>
      <trkpt lat="44.36913" lon="3.63973">
        <ele>1017</ele>
        <time>2009-07-10T07:20:21Z</time>
      </trkpt>
      <trkpt lat="44.36918" lon="3.63984">
        <ele>1018</ele>
        <time>2009-07-10T07:20:32Z</time>
      </trkpt>
      <trkpt lat="44.36943" lon="3.64027">
        <ele>1020</ele>
        <time>2009-07-10T07:20:51Z</time>
      </trkpt>
      <trkpt lat="44.36957" lon="3.64051">
        <ele>1020</ele>
        <time>2009-07-10T07:21:07Z</time>
      </trkpt>
      <trkpt lat="44.36956" lon="3.64051">
        <ele>1021</ele>
        <time>2009-07-10T07:22:14Z</time>
      </trkpt>
      <trkpt lat="44.36956" lon="3.64051">
        <ele>1021</ele>
        <time>2009-07-10T07:22:34Z</time>
      </trkpt>
      <trkpt lat="44.36957" lon="3.64053">
        <ele>1023</ele>
        <time>2009-07-10T07:22:42Z</time>
      </trkpt>
      <trkpt lat="44.36992" lon="3.64073">
        <ele>1022</ele>
        <time>2009-07-10T07:22:58Z</time>
      </trkpt>
      <trkpt lat="44.37041" lon="3.64101">
        <ele>1026</ele>
        <time>2009-07-10T07:23:21Z</time>
      </trkpt>
      <trkpt lat="44.37075" lon="3.64121">
        <ele>1028</ele>
        <time>2009-07-10T07:23:39Z</time>
      </trkpt>
      <trkpt lat="44.3711" lon="3.64158">
        <ele>1032</ele>
        <time>2009-07-10T07:23:59Z</time>
      </trkpt>
      <trkpt lat="44.3714" lon="3.64192">
        <ele>1032</ele>
        <time>2009-07-10T07:24:15Z</time>
      </trkpt>
      <trkpt lat="44.37179" lon="3.64235">
        <ele>1034</ele>
        <time>2009-07-10T07:24:34Z</time>
      </trkpt>
      <trkpt lat="44.37222" lon="3.64256">
        <ele>1037</ele>
        <time>2009-07-10T07:24:52Z</time>
      </trkpt>
      <trkpt lat="44.37259" lon="3.64262">
        <ele>1037</ele>
        <time>2009-07-10T07:25:06Z</time>
      </trkpt>
      <trkpt lat="44.37303" lon="3.64266">
        <ele>1039</ele>
        <time>2009-07-10T07:25:24Z</time>
      </trkpt>
      <trkpt lat="44.3733" lon="3.64267">
        <ele>1042</ele>
        <time>2009-07-10T07:25:35Z</time>
      </trkpt>
      <trkpt lat="44.37359" lon="3.64274">
        <ele>1044</ele>
        <time>2009-07-10T07:25:46Z</time>
      </trkpt>
      <trkpt lat="44.37396" lon="3.64305">
        <ele>1043</ele>
        <time>2009-07-10T07:26:01Z</time>
      </trkpt>
      <trkpt lat="44.37428" lon="3.64331">
        <ele>1043</ele>
        <time>2009-07-10T07:26:13Z</time>
      </trkpt>
      <trkpt lat="44.37454" lon="3.64369">
        <ele>1043</ele>
        <time>2009-07-10T07:26:26Z</time>
      </trkpt>
      <trkpt lat="44.37466" lon="3.64402">
        <ele>1039</ele>
        <time>2009-07-10T07:26:31Z</time>
      </trkpt>
      <trkpt lat="44.375" lon="3.64432">
        <ele>1039</ele>
        <time>2009-07-10T07:26:38Z</time>
      </trkpt>
      <trkpt lat="44.37536" lon="3.64439">
        <ele>1038</ele>
        <time>2009-07-10T07:26:46Z</time>
      </trkpt>
      <trkpt lat="44.3755" lon="3.64437">
        <ele>1036</ele>
        <time>2009-07-10T07:26:49Z</time>
      </trkpt>
      <trkpt lat="44.37555" lon="3.64436">
        <ele>1037</ele>
        <time>2009-07-10T07:26:50Z</time>
      </trkpt>
      <trkpt lat="44.37613" lon="3.64433">
        <ele>1036</ele>
        <time>2009-07-10T07:27:06Z</time>
      </trkpt>
      <trkpt lat="44.37636" lon="3.64434">
        <ele>1033</ele>
        <time>2009-07-10T07:27:11Z</time>
      </trkpt>
      <trkpt lat="44.3768" lon="3.64459">
        <ele>1032</ele>
        <time>2009-07-10T07:27:24Z</time>
      </trkpt>
      <trkpt lat="44.37728" lon="3.64496">
        <ele>1031</ele>
        <time>2009-07-10T07:27:39Z</time>
      </trkpt>
      <trkpt lat="44.37752" lon="3.64505">
        <ele>1032</ele>
        <time>2009-07-10T07:27:50Z</time>
      </trkpt>
      <trkpt lat="44.37773" lon="3.64512">
        <ele>1035</ele>
        <time>2009-07-10T07:28:02Z</time>
      </trkpt>
      <trkpt lat="44.37783" lon="3.64516">
        <ele>1038</ele>
        <time>2009-07-10T07:28:09Z</time>
      </trkpt>
      <trkpt lat="44.37805" lon="3.64516">
        <ele>1042</ele>
        <time>2009-07-10T07:28:25Z</time>
      </trkpt>
      <trkpt lat="44.37822" lon="3.64512">
        <ele>1045</ele>
        <time>2009-07-10T07:28:38Z</time>
      </trkpt>
      <trkpt lat="44.37823" lon="3.64512">
        <ele>1045</ele>
        <time>2009-07-10T07:28:39Z</time>
      </trkpt>
      <trkpt lat="44.37843" lon="3.64508">
        <ele>1048</ele>
        <time>2009-07-10T07:28:54Z</time>
      </trkpt>
      <trkpt lat="44.37864" lon="3.64506">
        <ele>1051</ele>
        <time>2009-07-10T07:29:11Z</time>
      </trkpt>
      <trkpt lat="44.3788" lon="3.64518">
        <ele>1054</ele>
        <time>2009-07-10T07:29:26Z</time>
      </trkpt>
      <trkpt lat="44.379" lon="3.64555">
        <ele>1057</ele>
        <time>2009-07-10T07:29:49Z</time>
      </trkpt>
      <trkpt lat="44.37908" lon="3.64576">
        <ele>1060</ele>
        <time>2009-07-10T07:30:01Z</time>
      </trkpt>
      <trkpt lat="44.37924" lon="3.6461">
        <ele>1061</ele>
        <time>2009-07-10T07:30:21Z</time>
      </trkpt>
      <trkpt lat="44.37939" lon="3.6463">
        <ele>1064</ele>
        <time>2009-07-10T07:30:35Z</time>
      </trkpt>
      <trkpt lat="44.37951" lon="3.64644">
        <ele>1068</ele>
        <time>2009-07-10T07:30:45Z</time>
      </trkpt>
      <trkpt lat="44.37979" lon="3.64683">
        <ele>1070</ele>
        <time>2009-07-10T07:31:05Z</time>
      </trkpt>
      <trkpt lat="44.38015" lon="3.64718">
        <ele>1071</ele>
        <time>2009-07-10T07:31:26Z</time>
      </trkpt>
      <trkpt lat="44.38042" lon="3.6474">
        <ele>1074</ele>
        <time>2009-07-10T07:31:38Z</time>
      </trkpt>
      <trkpt lat="44.38044" lon="3.64742">
        <ele>1075</ele>
        <time>2009-07-10T07:31:39Z</time>
      </trkpt>
      <trkpt lat="44.38084" lon="3.64752">
        <ele>1076</ele>
        <time>2009-07-10T07:31:55Z</time>
      </trkpt>
      <trkpt lat="44.38124" lon="3.64765">
        <ele>1078</ele>
        <time>2009-07-10T07:32:14Z</time>
      </trkpt>
      <trkpt lat="44.38136" lon="3.64769">
        <ele>1080</ele>
        <time>2009-07-10T07:32:21Z</time>
      </trkpt>
      <trkpt lat="44.38149" lon="3.6477">
        <ele>1082</ele>
        <time>2009-07-10T07:32:27Z</time>
      </trkpt>
      <trkpt lat="44.38169" lon="3.64776">
        <ele>1084</ele>
        <time>2009-07-10T07:32:39Z</time>
      </trkpt>
      <trkpt lat="44.38197" lon="3.6479">
        <ele>1087</ele>
        <time>2009-07-10T07:32:56Z</time>
      </trkpt>
      <trkpt lat="44.38218" lon="3.64807">
        <ele>1087</ele>
        <time>2009-07-10T07:33:09Z</time>
      </trkpt>
      <trkpt lat="44.38237" lon="3.64831">
        <ele>1089</ele>
        <time>2009-07-10T07:33:22Z</time>
      </trkpt>
      <trkpt lat="44.38256" lon="3.64869">
        <ele>1093</ele>
        <time>2009-07-10T07:33:40Z</time>
      </trkpt>
      <trkpt lat="44.38262" lon="3.64895">
        <ele>1094</ele>
        <time>2009-07-10T07:33:53Z</time>
      </trkpt>
      <trkpt lat="44.38267" lon="3.64898">
        <ele>1094</ele>
        <time>2009-07-10T07:33:57Z</time>
      </trkpt>
      <trkpt lat="44.38288" lon="3.64911">
        <ele>1098</ele>
        <time>2009-07-10T07:34:14Z</time>
      </trkpt>
      <trkpt lat="44.383" lon="3.64917">
        <ele>1100</ele>
        <time>2009-07-10T07:34:23Z</time>
      </trkpt>
      <trkpt lat="44.38315" lon="3.64926">
        <ele>1103</ele>
        <time>2009-07-10T07:34:35Z</time>
      </trkpt>
      <trkpt lat="44.38339" lon="3.64943">
        <ele>1106</ele>
        <time>2009-07-10T07:34:56Z</time>
      </trkpt>
      <trkpt lat="44.38363" lon="3.64962">
        <ele>1108</ele>
        <time>2009-07-10T07:35:16Z</time>
      </trkpt>
      <trkpt lat="44.3837" lon="3.64966">
        <ele>1111</ele>
        <time>2009-07-10T07:35:20Z</time>
      </trkpt>
      <trkpt lat="44.3838" lon="3.64975">
        <ele>1113</ele>
        <time>2009-07-10T07:35:27Z</time>
      </trkpt>
      <trkpt lat="44.38409" lon="3.64992">
        <ele>1116</ele>
        <time>2009-07-10T07:35:47Z</time>
      </trkpt>
      <trkpt lat="44.38424" lon="3.65001">
        <ele>1119</ele>
        <time>2009-07-10T07:35:58Z</time>
      </trkpt>
      <trkpt lat="44.38449" lon="3.65016">
        <ele>1122</ele>
        <time>2009-07-10T07:36:16Z</time>
      </trkpt>
      <trkpt lat="44.38463" lon="3.65025">
        <ele>1127</ele>
        <time>2009-07-10T07:36:26Z</time>
      </trkpt>
      <trkpt lat="44.38464" lon="3.65025">
        <ele>1126</ele>
        <time>2009-07-10T07:36:27Z</time>
      </trkpt>
      <trkpt lat="44.38476" lon="3.65034">
        <ele>1129</ele>
        <time>2009-07-10T07:36:36Z</time>
      </trkpt>
      <trkpt lat="44.38493" lon="3.65046">
        <ele>1132</ele>
        <time>2009-07-10T07:36:49Z</time>
      </trkpt>
      <trkpt lat="44.38504" lon="3.65054">
        <ele>1134</ele>
        <time>2009-07-10T07:36:58Z</time>
      </trkpt>
      <trkpt lat="44.38509" lon="3.65058">
        <ele>1135</ele>
        <time>2009-07-10T07:37:02Z</time>
      </trkpt>
      <trkpt lat="44.38529" lon="3.65072">
        <ele>1138</ele>
        <time>2009-07-10T07:37:18Z</time>
      </trkpt>
      <trkpt lat="44.38547" lon="3.65083">
        <ele>1142</ele>
        <time>2009-07-10T07:37:32Z</time>
      </trkpt>
      <trkpt lat="44.38563" lon="3.65092">
        <ele>1145</ele>
        <time>2009-07-10T07:37:44Z</time>
      </trkpt>
      <trkpt lat="44.38584" lon="3.65103">
        <ele>1148</ele>
        <time>2009-07-10T07:37:59Z</time>
      </trkpt>
      <trkpt lat="44.38602" lon="3.65111">
        <ele>1151</ele>
        <time>2009-07-10T07:38:11Z</time>
      </trkpt>
      <trkpt lat="44.3862" lon="3.65119">
        <ele>1154</ele>
        <time>2009-07-10T07:38:24Z</time>
      </trkpt>
      <trkpt lat="44.38629" lon="3.65122">
        <ele>1157</ele>
        <time>2009-07-10T07:38:30Z</time>
      </trkpt>
      <trkpt lat="44.38631" lon="3.65123">
        <ele>1157</ele>
        <time>2009-07-10T07:38:31Z</time>
      </trkpt>
      <trkpt lat="44.38653" lon="3.65134">
        <ele>1160</ele>
        <time>2009-07-10T07:38:48Z</time>
      </trkpt>
      <trkpt lat="44.38667" lon="3.6514">
        <ele>1163</ele>
        <time>2009-07-10T07:38:58Z</time>
      </trkpt>
      <trkpt lat="44.38683" lon="3.65146">
        <ele>1166</ele>
        <time>2009-07-10T07:39:10Z</time>
      </trkpt>
      <trkpt lat="44.38704" lon="3.65151">
        <ele>1169</ele>
        <time>2009-07-10T07:39:25Z</time>
      </trkpt>
      <trkpt lat="44.38728" lon="3.65156">
        <ele>1171</ele>
        <time>2009-07-10T07:39:42Z</time>
      </trkpt>
      <trkpt lat="44.38741" lon="3.6516">
        <ele>1175</ele>
        <time>2009-07-10T07:39:53Z</time>
      </trkpt>
      <trkpt lat="44.3876" lon="3.65164">
        <ele>1178</ele>
        <time>2009-07-10T07:40:07Z</time>
      </trkpt>
      <trkpt lat="44.38776" lon="3.65167">
        <ele>1181</ele>
        <time>2009-07-10T07:40:19Z</time>
      </trkpt>
      <trkpt lat="44.38794" lon="3.65169">
        <ele>1185</ele>
        <time>2009-07-10T07:40:32Z</time>
      </trkpt>
      <trkpt lat="44.38824" lon="3.65166">
        <ele>1187</ele>
        <time>2009-07-10T07:40:52Z</time>
      </trkpt>
      <trkpt lat="44.38832" lon="3.65165">
        <ele>1188</ele>
        <time>2009-07-10T07:40:57Z</time>
      </trkpt>
      <trkpt lat="44.38866" lon="3.65163">
        <ele>1191</ele>
        <time>2009-07-10T07:41:17Z</time>
      </trkpt>
      <trkpt lat="44.38901" lon="3.65155">
        <ele>1192</ele>
        <time>2009-07-10T07:41:36Z</time>
      </trkpt>
      <trkpt lat="44.38937" lon="3.65144">
        <ele>1196</ele>
        <time>2009-07-10T07:41:55Z</time>
      </trkpt>
      <trkpt lat="44.38943" lon="3.65142">
        <ele>1197</ele>
        <time>2009-07-10T07:41:58Z</time>
      </trkpt>
      <trkpt lat="44.38986" lon="3.65128">
        <ele>1199</ele>
        <time>2009-07-10T07:42:18Z</time>
      </trkpt>
      <trkpt lat="44.39002" lon="3.65124">
        <ele>1201</ele>
        <time>2009-07-10T07:42:25Z</time>
      </trkpt>
      <trkpt lat="44.39038" lon="3.65115">
        <ele>1203</ele>
        <time>2009-07-10T07:42:41Z</time>
      </trkpt>
      <trkpt lat="44.39068" lon="3.65092">
        <ele>1205</ele>
        <time>2009-07-10T07:42:55Z</time>
      </trkpt>
      <trkpt lat="44.39109" lon="3.65076">
        <ele>1206</ele>
        <time>2009-07-10T07:43:13Z</time>
      </trkpt>
      <trkpt lat="44.39121" lon="3.6507">
        <ele>1207</ele>
        <time>2009-07-10T07:43:26Z</time>
      </trkpt>
      <trkpt lat="44.39124" lon="3.65066">
        <ele>1208</ele>
        <time>2009-07-10T07:51:41Z</time>
      </trkpt>
      <trkpt lat="44.3915" lon="3.6504">
        <ele>1209</ele>
        <time>2009-07-10T07:51:56Z</time>
      </trkpt>
      <trkpt lat="44.39177" lon="3.65018">
        <ele>1213</ele>
        <time>2009-07-10T07:52:10Z</time>
      </trkpt>
      <trkpt lat="44.39199" lon="3.64998">
        <ele>1216</ele>
        <time>2009-07-10T07:52:25Z</time>
      </trkpt>
      <trkpt lat="44.39228" lon="3.64964">
        <ele>1217</ele>
        <time>2009-07-10T07:52:45Z</time>
      </trkpt>
      <trkpt lat="44.39235" lon="3.64956">
        <ele>1216</ele>
        <time>2009-07-10T07:52:49Z</time>
      </trkpt>
      <trkpt lat="44.39265" lon="3.64935">
        <ele>1215</ele>
        <time>2009-07-10T07:53:02Z</time>
      </trkpt>
      <trkpt lat="44.39305" lon="3.64905">
        <ele>1212</ele>
        <time>2009-07-10T07:53:16Z</time>
      </trkpt>
      <trkpt lat="44.39367" lon="3.64858">
        <ele>1211</ele>
        <time>2009-07-10T07:53:34Z</time>
      </trkpt>
      <trkpt lat="44.3941" lon="3.64838">
        <ele>1207</ele>
        <time>2009-07-10T07:53:44Z</time>
      </trkpt>
      <trkpt lat="44.39431" lon="3.64833">
        <ele>1203</ele>
        <time>2009-07-10T07:53:47Z</time>
      </trkpt>
      <trkpt lat="44.39455" lon="3.64829">
        <ele>1200</ele>
        <time>2009-07-10T07:53:50Z</time>
      </trkpt>
      <trkpt lat="44.3948" lon="3.64824">
        <ele>1196</ele>
        <time>2009-07-10T07:53:53Z</time>
      </trkpt>
      <trkpt lat="44.39489" lon="3.64822">
        <ele>1196</ele>
        <time>2009-07-10T07:53:54Z</time>
      </trkpt>
      <trkpt lat="44.39544" lon="3.64807">
        <ele>1196</ele>
        <time>2009-07-10T07:54:01Z</time>
      </trkpt>
      <trkpt lat="44.39606" lon="3.64792">
        <ele>1197</ele>
        <time>2009-07-10T07:54:13Z</time>
      </trkpt>
      <trkpt lat="44.39626" lon="3.64793">
        <ele>1197</ele>
        <time>2009-07-10T07:54:17Z</time>
      </trkpt>
      <trkpt lat="44.39695" lon="3.64792">
        <ele>1198</ele>
        <time>2009-07-10T07:54:33Z</time>
      </trkpt>
      <trkpt lat="44.39736" lon="3.64785">
        <ele>1202</ele>
        <time>2009-07-10T07:54:46Z</time>
      </trkpt>
      <trkpt lat="44.3978" lon="3.64765">
        <ele>1202</ele>
        <time>2009-07-10T07:55:03Z</time>
      </trkpt>
      <trkpt lat="44.39813" lon="3.64743">
        <ele>1201</ele>
        <time>2009-07-10T07:55:17Z</time>
      </trkpt>
      <trkpt lat="44.39833" lon="3.6471">
        <ele>1201</ele>
        <time>2009-07-10T07:55:29Z</time>
      </trkpt>
      <trkpt lat="44.39835" lon="3.64705">
        <ele>1201</ele>
        <time>2009-07-10T07:55:40Z</time>
      </trkpt>
      <trkpt lat="44.39836" lon="3.64701">
        <ele>1199</ele>
        <time>2009-07-10T07:55:46Z</time>
      </trkpt>
      <trkpt lat="44.39835" lon="3.647">
        <ele>1199</ele>
        <time>2009-07-10T07:56:17Z</time>
      </trkpt>
      <trkpt lat="44.39835" lon="3.647">
        <ele>1202</ele>
        <time>2009-07-10T07:56:49Z</time>
      </trkpt>
      <trkpt lat="44.39838" lon="3.64698">
        <ele>1201</ele>
        <time>2009-07-10T07:56:57Z</time>
      </trkpt>
      <trkpt lat="44.39842" lon="3.64695">
        <ele>1198</ele>
        <time>2009-07-10T07:57:03Z</time>
      </trkpt>
      <trkpt lat="44.39847" lon="3.6469">
        <ele>1197</ele>
        <time>2009-07-10T07:57:05Z</time>
      </trkpt>
      <trkpt lat="44.39855" lon="3.64682">
        <ele>1194</ele>
        <time>2009-07-10T07:57:07Z</time>
      </trkpt>
      <trkpt lat="44.39859" lon="3.64677">
        <ele>1193</ele>
        <time>2009-07-10T07:57:08Z</time>
      </trkpt>
      <trkpt lat="44.39877" lon="3.64663">
        <ele>1188</ele>
        <time>2009-07-10T07:57:11Z</time>
      </trkpt>
      <trkpt lat="44.39914" lon="3.64638">
        <ele>1185</ele>
        <time>2009-07-10T07:57:16Z</time>
      </trkpt>
      <trkpt lat="44.39947" lon="3.64618">
        <ele>1188</ele>
        <time>2009-07-10T07:57:22Z</time>
      </trkpt>
      <trkpt lat="44.3995" lon="3.64617">
        <ele>1189</ele>
        <time>2009-07-10T07:57:30Z</time>
      </trkpt>
      <trkpt lat="44.39952" lon="3.64616">
        <ele>1189</ele>
        <time>2009-07-10T07:57:35Z</time>
      </trkpt>
      <trkpt lat="44.39955" lon="3.64619">
        <ele>1189</ele>
        <time>2009-07-10T07:57:42Z</time>
      </trkpt>
      <trkpt lat="44.39965" lon="3.64619">
        <ele>1190</ele>
        <time>2009-07-10T07:57:48Z</time>
      </trkpt>
      <trkpt lat="44.40021" lon="3.64621">
        <ele>1189</ele>
        <time>2009-07-10T07:58:06Z</time>
      </trkpt>
      <trkpt lat="44.40089" lon="3.6462">
        <ele>1189</ele>
        <time>2009-07-10T07:58:24Z</time>
      </trkpt>
      <trkpt lat="44.40136" lon="3.64607">
        <ele>1185</ele>
        <time>2009-07-10T07:58:35Z</time>
      </trkpt>
      <trkpt lat="44.40149" lon="3.646">
        <ele>1185</ele>
        <time>2009-07-10T07:58:38Z</time>
      </trkpt>
      <trkpt lat="44.4017" lon="3.64599">
        <ele>1183</ele>
        <time>2009-07-10T07:58:42Z</time>
      </trkpt>
      <trkpt lat="44.40188" lon="3.64603">
        <ele>1182</ele>
        <time>2009-07-10T07:58:45Z</time>
      </trkpt>
      <trkpt lat="44.40222" lon="3.64619">
        <ele>1182</ele>
        <time>2009-07-10T07:58:51Z</time>
      </trkpt>
      <trkpt lat="44.40254" lon="3.6461">
        <ele>1182</ele>
        <time>2009-07-10T07:59:00Z</time>
      </trkpt>
      <trkpt lat="44.40295" lon="3.64601">
        <ele>1185</ele>
        <time>2009-07-10T07:59:16Z</time>
      </trkpt>
      <trkpt lat="44.40316" lon="3.64614">
        <ele>1188</ele>
        <time>2009-07-10T07:59:29Z</time>
      </trkpt>
      <trkpt lat="44.40337" lon="3.64624">
        <ele>1191</ele>
        <time>2009-07-10T07:59:44Z</time>
      </trkpt>
      <trkpt lat="44.40355" lon="3.64629">
        <ele>1195</ele>
        <time>2009-07-10T07:59:57Z</time>
      </trkpt>
      <trkpt lat="44.40365" lon="3.64631">
        <ele>1197</ele>
        <time>2009-07-10T08:00:05Z</time>
      </trkpt>
      <trkpt lat="44.40381" lon="3.64635">
        <ele>1200</ele>
        <time>2009-07-10T08:00:17Z</time>
      </trkpt>
      <trkpt lat="44.40394" lon="3.64638">
        <ele>1202</ele>
        <time>2009-07-10T08:00:27Z</time>
      </trkpt>
      <trkpt lat="44.404" lon="3.6464">
        <ele>1203</ele>
        <time>2009-07-10T08:00:32Z</time>
      </trkpt>
      <trkpt lat="44.4041" lon="3.64644">
        <ele>1206</ele>
        <time>2009-07-10T08:00:40Z</time>
      </trkpt>
      <trkpt lat="44.4043" lon="3.64649">
        <ele>1208</ele>
        <time>2009-07-10T08:00:55Z</time>
      </trkpt>
      <trkpt lat="44.40446" lon="3.64655">
        <ele>1212</ele>
        <time>2009-07-10T08:01:09Z</time>
      </trkpt>
      <trkpt lat="44.4046" lon="3.6466">
        <ele>1215</ele>
        <time>2009-07-10T08:01:21Z</time>
      </trkpt>
      <trkpt lat="44.40484" lon="3.64674">
        <ele>1217</ele>
        <time>2009-07-10T08:01:39Z</time>
      </trkpt>
      <trkpt lat="44.40513" lon="3.64687">
        <ele>1220</ele>
        <time>2009-07-10T08:01:56Z</time>
      </trkpt>
      <trkpt lat="44.40514" lon="3.64687">
        <ele>1221</ele>
        <time>2009-07-10T08:01:57Z</time>
      </trkpt>
      <trkpt lat="44.40534" lon="3.6469">
        <ele>1224</ele>
        <time>2009-07-10T08:02:08Z</time>
      </trkpt>
      <trkpt lat="44.4057" lon="3.64699">
        <ele>1227</ele>
        <time>2009-07-10T08:02:27Z</time>
      </trkpt>
      <trkpt lat="44.40579" lon="3.64701">
        <ele>1229</ele>
        <time>2009-07-10T08:02:31Z</time>
      </trkpt>
      <trkpt lat="44.40619" lon="3.64713">
        <ele>1232</ele>
        <time>2009-07-10T08:02:50Z</time>
      </trkpt>
      <trkpt lat="44.40658" lon="3.64731">
        <ele>1233</ele>
        <time>2009-07-10T08:03:09Z</time>
      </trkpt>
      <trkpt lat="44.40697" lon="3.64755">
        <ele>1232</ele>
        <time>2009-07-10T08:03:24Z</time>
      </trkpt>
      <trkpt lat="44.40733" lon="3.64777">
        <ele>1232</ele>
        <time>2009-07-10T08:03:37Z</time>
      </trkpt>
      <trkpt lat="44.40755" lon="3.64791">
        <ele>1231</ele>
        <time>2009-07-10T08:03:49Z</time>
      </trkpt>
      <trkpt lat="44.40755" lon="3.64792">
        <ele>1231</ele>
        <time>2009-07-10T08:04:01Z</time>
      </trkpt>
      <trkpt lat="44.40758" lon="3.64789">
        <ele>1231</ele>
        <time>2009-07-10T08:04:37Z</time>
      </trkpt>
      <trkpt lat="44.40759" lon="3.64787">
        <ele>1230</ele>
        <time>2009-07-10T08:04:59Z</time>
      </trkpt>
      <trkpt lat="44.40759" lon="3.64785">
        <ele>1234</ele>
        <time>2009-07-10T08:06:04Z</time>
      </trkpt>
      <trkpt lat="44.40763" lon="3.64785">
        <ele>1232</ele>
        <time>2009-07-10T08:07:13Z</time>
      </trkpt>
      <trkpt lat="44.40765" lon="3.64782">
        <ele>1232</ele>
        <time>2009-07-10T08:07:16Z</time>
      </trkpt>
      <trkpt lat="44.40782" lon="3.6478">
        <ele>1232</ele>
        <time>2009-07-10T08:07:31Z</time>
      </trkpt>
      <trkpt lat="44.40814" lon="3.64788">
        <ele>1235</ele>
        <time>2009-07-10T08:07:47Z</time>
      </trkpt>
      <trkpt lat="44.40842" lon="3.64792">
        <ele>1237</ele>
        <time>2009-07-10T08:08:01Z</time>
      </trkpt>
      <trkpt lat="44.40867" lon="3.64787">
        <ele>1241</ele>
        <time>2009-07-10T08:08:16Z</time>
      </trkpt>
      <trkpt lat="44.40869" lon="3.64787">
        <ele>1241</ele>
        <time>2009-07-10T08:08:17Z</time>
      </trkpt>
      <trkpt lat="44.40889" lon="3.6478">
        <ele>1244</ele>
        <time>2009-07-10T08:08:31Z</time>
      </trkpt>
      <trkpt lat="44.40908" lon="3.64776">
        <ele>1245</ele>
        <time>2009-07-10T08:08:45Z</time>
      </trkpt>
      <trkpt lat="44.40917" lon="3.64767">
        <ele>1246</ele>
        <time>2009-07-10T08:08:52Z</time>
      </trkpt>
      <trkpt lat="44.4092" lon="3.64781">
        <ele>1247</ele>
        <time>2009-07-10T08:09:03Z</time>
      </trkpt>
      <trkpt lat="44.40895" lon="3.64802">
        <ele>1250</ele>
        <time>2009-07-10T08:09:17Z</time>
      </trkpt>
      <trkpt lat="44.40867" lon="3.64827">
        <ele>1251</ele>
        <time>2009-07-10T08:09:33Z</time>
      </trkpt>
      <trkpt lat="44.4085" lon="3.6486">
        <ele>1254</ele>
        <time>2009-07-10T08:09:47Z</time>
      </trkpt>
      <trkpt lat="44.40834" lon="3.64898">
        <ele>1257</ele>
        <time>2009-07-10T08:10:05Z</time>
      </trkpt>
      <trkpt lat="44.40825" lon="3.64922">
        <ele>1260</ele>
        <time>2009-07-10T08:10:17Z</time>
      </trkpt>
      <trkpt lat="44.40804" lon="3.6496">
        <ele>1262</ele>
        <time>2009-07-10T08:10:37Z</time>
      </trkpt>
      <trkpt lat="44.40777" lon="3.64999">
        <ele>1263</ele>
        <time>2009-07-10T08:10:56Z</time>
      </trkpt>
      <trkpt lat="44.40759" lon="3.65046">
        <ele>1265</ele>
        <time>2009-07-10T08:11:10Z</time>
      </trkpt>
      <trkpt lat="44.40742" lon="3.65082">
        <ele>1268</ele>
        <time>2009-07-10T08:11:22Z</time>
      </trkpt>
      <trkpt lat="44.4072" lon="3.65113">
        <ele>1268</ele>
        <time>2009-07-10T08:11:35Z</time>
      </trkpt>
      <trkpt lat="44.40727" lon="3.65126">
        <ele>1269</ele>
        <time>2009-07-10T08:11:42Z</time>
      </trkpt>
      <trkpt lat="44.40754" lon="3.65091">
        <ele>1270</ele>
        <time>2009-07-10T08:12:00Z</time>
      </trkpt>
      <trkpt lat="44.4078" lon="3.65063">
        <ele>1271</ele>
        <time>2009-07-10T08:12:16Z</time>
      </trkpt>
      <trkpt lat="44.40802" lon="3.65037">
        <ele>1271</ele>
        <time>2009-07-10T08:12:30Z</time>
      </trkpt>
      <trkpt lat="44.4081" lon="3.65032">
        <ele>1274</ele>
        <time>2009-07-10T08:12:34Z</time>
      </trkpt>
      <trkpt lat="44.40843" lon="3.65009">
        <ele>1277</ele>
        <time>2009-07-10T08:12:51Z</time>
      </trkpt>
      <trkpt lat="44.40884" lon="3.64983">
        <ele>1279</ele>
        <time>2009-07-10T08:13:10Z</time>
      </trkpt>
      <trkpt lat="44.40896" lon="3.64978">
        <ele>1279</ele>
        <time>2009-07-10T08:13:15Z</time>
      </trkpt>
      <trkpt lat="44.4094" lon="3.64947">
        <ele>1280</ele>
        <time>2009-07-10T08:13:35Z</time>
      </trkpt>
      <trkpt lat="44.40968" lon="3.64914">
        <ele>1283</ele>
        <time>2009-07-10T08:13:50Z</time>
      </trkpt>
      <trkpt lat="44.40996" lon="3.64889">
        <ele>1285</ele>
        <time>2009-07-10T08:14:06Z</time>
      </trkpt>
      <trkpt lat="44.41002" lon="3.64884">
        <ele>1287</ele>
        <time>2009-07-10T08:14:09Z</time>
      </trkpt>
      <trkpt lat="44.41023" lon="3.64866">
        <ele>1288</ele>
        <time>2009-07-10T08:14:24Z</time>
      </trkpt>
      <trkpt lat="44.41023" lon="3.64866">
        <ele>1288</ele>
        <time>2009-07-10T08:14:41Z</time>
      </trkpt>
      <trkpt lat="44.41032" lon="3.64862">
        <ele>1290</ele>
        <time>2009-07-10T08:15:08Z</time>
      </trkpt>
      <trkpt lat="44.41034" lon="3.64857">
        <ele>1289</ele>
        <time>2009-07-10T08:15:24Z</time>
      </trkpt>
      <trkpt lat="44.41033" lon="3.64852">
        <ele>1289</ele>
        <time>2009-07-10T08:18:50Z</time>
      </trkpt>
      <trkpt lat="44.41035" lon="3.64848">
        <ele>1290</ele>
        <time>2009-07-10T08:20:23Z</time>
      </trkpt>
      <trkpt lat="44.41043" lon="3.64844">
        <ele>1290</ele>
        <time>2009-07-10T08:20:36Z</time>
      </trkpt>
      <trkpt lat="44.41075" lon="3.64826">
        <ele>1292</ele>
        <time>2009-07-10T08:20:53Z</time>
      </trkpt>
      <trkpt lat="44.41099" lon="3.64818">
        <ele>1295</ele>
        <time>2009-07-10T08:21:06Z</time>
      </trkpt>
      <trkpt lat="44.41129" lon="3.64802">
        <ele>1298</ele>
        <time>2009-07-10T08:21:23Z</time>
      </trkpt>
      <trkpt lat="44.41163" lon="3.64785">
        <ele>1300</ele>
        <time>2009-07-10T08:21:40Z</time>
      </trkpt>
      <trkpt lat="44.41195" lon="3.64763">
        <ele>1301</ele>
        <time>2009-07-10T08:21:57Z</time>
      </trkpt>
      <trkpt lat="44.41227" lon="3.64737">
        <ele>1303</ele>
        <time>2009-07-10T08:22:15Z</time>
      </trkpt>
      <trkpt lat="44.41233" lon="3.64733">
        <ele>1304</ele>
        <time>2009-07-10T08:22:28Z</time>
      </trkpt>
      <trkpt lat="44.41231" lon="3.64732">
        <ele>1303</ele>
        <time>2009-07-10T08:22:50Z</time>
      </trkpt>
      <trkpt lat="44.41236" lon="3.6473">
        <ele>1304</ele>
        <time>2009-07-10T08:23:15Z</time>
      </trkpt>
      <trkpt lat="44.41243" lon="3.64727">
        <ele>1304</ele>
        <time>2009-07-10T08:23:30Z</time>
      </trkpt>
      <trkpt lat="44.41272" lon="3.64716">
        <ele>1306</ele>
        <time>2009-07-10T08:23:47Z</time>
      </trkpt>
      <trkpt lat="44.41297" lon="3.64706">
        <ele>1309</ele>
        <time>2009-07-10T08:24:02Z</time>
      </trkpt>
      <trkpt lat="44.41324" lon="3.64676">
        <ele>1309</ele>
        <time>2009-07-10T08:24:21Z</time>
      </trkpt>
      <trkpt lat="44.41354" lon="3.64639">
        <ele>1310</ele>
        <time>2009-07-10T08:24:40Z</time>
      </trkpt>
      <trkpt lat="44.41364" lon="3.6461">
        <ele>1313</ele>
        <time>2009-07-10T08:24:51Z</time>
      </trkpt>
      <trkpt lat="44.41365" lon="3.6456">
        <ele>1314</ele>
        <time>2009-07-10T08:25:08Z</time>
      </trkpt>
      <trkpt lat="44.41364" lon="3.64516">
        <ele>1317</ele>
        <time>2009-07-10T08:25:24Z</time>
      </trkpt>
      <trkpt lat="44.41364" lon="3.64475">
        <ele>1320</ele>
        <time>2009-07-10T08:25:41Z</time>
      </trkpt>
      <trkpt lat="44.41369" lon="3.64438">
        <ele>1322</ele>
        <time>2009-07-10T08:25:56Z</time>
      </trkpt>
      <trkpt lat="44.41386" lon="3.64398">
        <ele>1322</ele>
        <time>2009-07-10T08:26:16Z</time>
      </trkpt>
      <trkpt lat="44.41392" lon="3.64388">
        <ele>1325</ele>
        <time>2009-07-10T08:26:27Z</time>
      </trkpt>
      <trkpt lat="44.41393" lon="3.64387">
        <ele>1324</ele>
        <time>2009-07-10T08:27:02Z</time>
      </trkpt>
      <trkpt lat="44.41412" lon="3.64359">
        <ele>1324</ele>
        <time>2009-07-10T08:27:13Z</time>
      </trkpt>
      <trkpt lat="44.41455" lon="3.64312">
        <ele>1325</ele>
        <time>2009-07-10T08:27:31Z</time>
      </trkpt>
      <trkpt lat="44.41508" lon="3.64282">
        <ele>1326</ele>
        <time>2009-07-10T08:27:50Z</time>
      </trkpt>
      <trkpt lat="44.41555" lon="3.64253">
        <ele>1329</ele>
        <time>2009-07-10T08:28:07Z</time>
      </trkpt>
      <trkpt lat="44.41598" lon="3.64236">
        <ele>1331</ele>
        <time>2009-07-10T08:28:23Z</time>
      </trkpt>
      <trkpt lat="44.41628" lon="3.64224">
        <ele>1330</ele>
        <time>2009-07-10T08:28:35Z</time>
      </trkpt>
      <trkpt lat="44.41641" lon="3.6422">
        <ele>1331</ele>
        <time>2009-07-10T08:28:48Z</time>
      </trkpt>
      <trkpt lat="44.41651" lon="3.64214">
        <ele>1332</ele>
        <time>2009-07-10T08:29:24Z</time>
      </trkpt>
      <trkpt lat="44.41678" lon="3.64202">
        <ele>1334</ele>
        <time>2009-07-10T08:29:35Z</time>
      </trkpt>
      <trkpt lat="44.41707" lon="3.64189">
        <ele>1338</ele>
        <time>2009-07-10T08:29:48Z</time>
      </trkpt>
      <trkpt lat="44.41753" lon="3.64169">
        <ele>1339</ele>
        <time>2009-07-10T08:30:08Z</time>
      </trkpt>
      <trkpt lat="44.41786" lon="3.64154">
        <ele>1342</ele>
        <time>2009-07-10T08:30:24Z</time>
      </trkpt>
      <trkpt lat="44.41826" lon="3.64127">
        <ele>1344</ele>
        <time>2009-07-10T08:30:43Z</time>
      </trkpt>
      <trkpt lat="44.41852" lon="3.64113">
        <ele>1346</ele>
        <time>2009-07-10T08:30:57Z</time>
      </trkpt>
      <trkpt lat="44.41881" lon="3.64099">
        <ele>1349</ele>
        <time>2009-07-10T08:31:11Z</time>
      </trkpt>
      <trkpt lat="44.41914" lon="3.64079">
        <ele>1349</ele>
        <time>2009-07-10T08:31:25Z</time>
      </trkpt>
      <trkpt lat="44.41916" lon="3.64078">
        <ele>1349</ele>
        <time>2009-07-10T08:31:26Z</time>
      </trkpt>
      <trkpt lat="44.41961" lon="3.64053">
        <ele>1352</ele>
        <time>2009-07-10T08:31:44Z</time>
      </trkpt>
      <trkpt lat="44.41975" lon="3.64046">
        <ele>1355</ele>
        <time>2009-07-10T08:31:51Z</time>
      </trkpt>
      <trkpt lat="44.41977" lon="3.64045">
        <ele>1356</ele>
        <time>2009-07-10T08:31:52Z</time>
      </trkpt>
      <trkpt lat="44.4201" lon="3.64034">
        <ele>1357</ele>
        <time>2009-07-10T08:32:09Z</time>
      </trkpt>
      <trkpt lat="44.42021" lon="3.64032">
        <ele>1358</ele>
        <time>2009-07-10T08:32:16Z</time>
      </trkpt>
      <trkpt lat="44.42048" lon="3.64019">
        <ele>1358</ele>
        <time>2009-07-10T08:32:29Z</time>
      </trkpt>
      <trkpt lat="44.42081" lon="3.63998">
        <ele>1361</ele>
        <time>2009-07-10T08:32:46Z</time>
      </trkpt>
      <trkpt lat="44.42083" lon="3.63998">
        <ele>1361</ele>
        <time>2009-07-10T08:32:47Z</time>
      </trkpt>
      <trkpt lat="44.42114" lon="3.63992">
        <ele>1363</ele>
        <time>2009-07-10T08:33:02Z</time>
      </trkpt>
      <trkpt lat="44.42151" lon="3.63986">
        <ele>1365</ele>
        <time>2009-07-10T08:33:20Z</time>
      </trkpt>
      <trkpt lat="44.4219" lon="3.63984">
        <ele>1367</ele>
        <time>2009-07-10T08:33:38Z</time>
      </trkpt>
      <trkpt lat="44.42228" lon="3.63986">
        <ele>1368</ele>
        <time>2009-07-10T08:33:55Z</time>
      </trkpt>
      <trkpt lat="44.42275" lon="3.63998">
        <ele>1369</ele>
        <time>2009-07-10T08:34:15Z</time>
      </trkpt>
      <trkpt lat="44.42317" lon="3.6403">
        <ele>1371</ele>
        <time>2009-07-10T08:34:35Z</time>
      </trkpt>
      <trkpt lat="44.42349" lon="3.64063">
        <ele>1371</ele>
        <time>2009-07-10T08:34:50Z</time>
      </trkpt>
      <trkpt lat="44.42376" lon="3.64092">
        <ele>1371</ele>
        <time>2009-07-10T08:35:01Z</time>
      </trkpt>
      <trkpt lat="44.42411" lon="3.64141">
        <ele>1372</ele>
        <time>2009-07-10T08:35:17Z</time>
      </trkpt>
      <trkpt lat="44.42431" lon="3.64183">
        <ele>1373</ele>
        <time>2009-07-10T08:35:29Z</time>
      </trkpt>
      <trkpt lat="44.42442" lon="3.64211">
        <ele>1375</ele>
        <time>2009-07-10T08:35:37Z</time>
      </trkpt>
      <trkpt lat="44.42449" lon="3.64234">
        <ele>1375</ele>
        <time>2009-07-10T08:35:43Z</time>
      </trkpt>
      <trkpt lat="44.42463" lon="3.64293">
        <ele>1378</ele>
        <time>2009-07-10T08:35:59Z</time>
      </trkpt>
      <trkpt lat="44.4247" lon="3.64349">
        <ele>1378</ele>
        <time>2009-07-10T08:36:14Z</time>
      </trkpt>
      <trkpt lat="44.42469" lon="3.6441">
        <ele>1380</ele>
        <time>2009-07-10T08:36:31Z</time>
      </trkpt>
      <trkpt lat="44.42463" lon="3.64472">
        <ele>1383</ele>
        <time>2009-07-10T08:36:49Z</time>
      </trkpt>
      <trkpt lat="44.4246" lon="3.64527">
        <ele>1384</ele>
        <time>2009-07-10T08:37:05Z</time>
      </trkpt>
      <trkpt lat="44.42451" lon="3.64589">
        <ele>1387</ele>
        <time>2009-07-10T08:37:24Z</time>
      </trkpt>
      <trkpt lat="44.4244" lon="3.64637">
        <ele>1390</ele>
        <time>2009-07-10T08:37:39Z</time>
      </trkpt>
      <trkpt lat="44.4243" lon="3.64683">
        <ele>1393</ele>
        <time>2009-07-10T08:37:53Z</time>
      </trkpt>
      <trkpt lat="44.42417" lon="3.64729">
        <ele>1395</ele>
        <time>2009-07-10T08:38:08Z</time>
      </trkpt>
      <trkpt lat="44.424" lon="3.64773">
        <ele>1398</ele>
        <time>2009-07-10T08:38:22Z</time>
      </trkpt>
      <trkpt lat="44.42381" lon="3.64834">
        <ele>1400</ele>
        <time>2009-07-10T08:38:39Z</time>
      </trkpt>
      <trkpt lat="44.42367" lon="3.64876">
        <ele>1398</ele>
        <time>2009-07-10T08:38:51Z</time>
      </trkpt>
      <trkpt lat="44.42348" lon="3.64937">
        <ele>1399</ele>
        <time>2009-07-10T08:39:06Z</time>
      </trkpt>
      <trkpt lat="44.42328" lon="3.65015">
        <ele>1397</ele>
        <time>2009-07-10T08:39:25Z</time>
      </trkpt>
      <trkpt lat="44.423" lon="3.65098">
        <ele>1395</ele>
        <time>2009-07-10T08:39:42Z</time>
      </trkpt>
      <trkpt lat="44.42283" lon="3.65186">
        <ele>1397</ele>
        <time>2009-07-10T08:40:00Z</time>
      </trkpt>
      <trkpt lat="44.4228" lon="3.65209">
        <ele>1398</ele>
        <time>2009-07-10T08:40:05Z</time>
      </trkpt>
      <trkpt lat="44.4228" lon="3.65248">
        <ele>1399</ele>
        <time>2009-07-10T08:40:15Z</time>
      </trkpt>
      <trkpt lat="44.42285" lon="3.65256">
        <ele>1398</ele>
        <time>2009-07-10T08:40:27Z</time>
      </trkpt>
      <trkpt lat="44.42283" lon="3.65255">
        <ele>1401</ele>
        <time>2009-07-10T08:40:46Z</time>
      </trkpt>
      <trkpt lat="44.42283" lon="3.65255">
        <ele>1399</ele>
        <time>2009-07-10T08:40:47Z</time>
      </trkpt>
      <trkpt lat="44.42284" lon="3.65253">
        <ele>1399</ele>
        <time>2009-07-10T08:41:19Z</time>
      </trkpt>
      <trkpt lat="44.42284" lon="3.6526">
        <ele>1399</ele>
        <time>2009-07-10T08:42:05Z</time>
      </trkpt>
      <trkpt lat="44.423" lon="3.65294">
        <ele>1397</ele>
        <time>2009-07-10T08:42:16Z</time>
      </trkpt>
      <trkpt lat="44.42302" lon="3.65298">
        <ele>1396</ele>
        <time>2009-07-10T08:42:17Z</time>
      </trkpt>
      <trkpt lat="44.4231" lon="3.65316">
        <ele>1394</ele>
        <time>2009-07-10T08:42:21Z</time>
      </trkpt>
      <trkpt lat="44.42323" lon="3.65341">
        <ele>1393</ele>
        <time>2009-07-10T08:42:27Z</time>
      </trkpt>
      <trkpt lat="44.42334" lon="3.65343">
        <ele>1392</ele>
        <time>2009-07-10T08:42:31Z</time>
      </trkpt>
      <trkpt lat="44.42345" lon="3.65336">
        <ele>1390</ele>
        <time>2009-07-10T08:42:34Z</time>
      </trkpt>
      <trkpt lat="44.42351" lon="3.65328">
        <ele>1389</ele>
        <time>2009-07-10T08:42:36Z</time>
      </trkpt>
      <trkpt lat="44.42368" lon="3.65275">
        <ele>1386</ele>
        <time>2009-07-10T08:42:43Z</time>
      </trkpt>
      <trkpt lat="44.42371" lon="3.65267">
        <ele>1386</ele>
        <time>2009-07-10T08:42:44Z</time>
      </trkpt>
      <trkpt lat="44.42401" lon="3.65184">
        <ele>1382</ele>
        <time>2009-07-10T08:42:54Z</time>
      </trkpt>
      <trkpt lat="44.42404" lon="3.65176">
        <ele>1382</ele>
        <time>2009-07-10T08:42:55Z</time>
      </trkpt>
      <trkpt lat="44.42427" lon="3.65109">
        <ele>1378</ele>
        <time>2009-07-10T08:43:03Z</time>
      </trkpt>
      <trkpt lat="44.4243" lon="3.65102">
        <ele>1378</ele>
        <time>2009-07-10T08:43:04Z</time>
      </trkpt>
      <trkpt lat="44.42446" lon="3.65056">
        <ele>1381</ele>
        <time>2009-07-10T08:43:12Z</time>
      </trkpt>
      <trkpt lat="44.42446" lon="3.65055">
        <ele>1383</ele>
        <time>2009-07-10T08:43:45Z</time>
      </trkpt>
      <trkpt lat="44.42446" lon="3.65056">
        <ele>1379</ele>
        <time>2009-07-10T08:44:15Z</time>
      </trkpt>
      <trkpt lat="44.42445" lon="3.65056">
        <ele>1382</ele>
        <time>2009-07-10T08:44:17Z</time>
      </trkpt>
      <trkpt lat="44.42445" lon="3.65056">
        <ele>1384</ele>
        <time>2009-07-10T08:44:20Z</time>
      </trkpt>
      <trkpt lat="44.42445" lon="3.65057">
        <ele>1380</ele>
        <time>2009-07-10T08:44:23Z</time>
      </trkpt>
      <trkpt lat="44.42445" lon="3.65057">
        <ele>1380</ele>
        <time>2009-07-10T08:44:24Z</time>
      </trkpt>
      <trkpt lat="44.42446" lon="3.65054">
        <ele>1381</ele>
        <time>2009-07-10T08:44:58Z</time>
      </trkpt>
      <trkpt lat="44.42454" lon="3.65033">
        <ele>1379</ele>
        <time>2009-07-10T08:45:14Z</time>
      </trkpt>
      <trkpt lat="44.42474" lon="3.64987">
        <ele>1376</ele>
        <time>2009-07-10T08:45:26Z</time>
      </trkpt>
      <trkpt lat="44.42476" lon="3.64983">
        <ele>1376</ele>
        <time>2009-07-10T08:45:27Z</time>
      </trkpt>
      <trkpt lat="44.42503" lon="3.64942">
        <ele>1373</ele>
        <time>2009-07-10T08:45:37Z</time>
      </trkpt>
      <trkpt lat="44.42528" lon="3.64895">
        <ele>1369</ele>
        <time>2009-07-10T08:45:46Z</time>
      </trkpt>
      <trkpt lat="44.42531" lon="3.64888">
        <ele>1369</ele>
        <time>2009-07-10T08:45:47Z</time>
      </trkpt>
      <trkpt lat="44.42556" lon="3.6483">
        <ele>1366</ele>
        <time>2009-07-10T08:45:55Z</time>
      </trkpt>
      <trkpt lat="44.42573" lon="3.6479">
        <ele>1363</ele>
        <time>2009-07-10T08:46:00Z</time>
      </trkpt>
      <trkpt lat="44.42584" lon="3.64765">
        <ele>1360</ele>
        <time>2009-07-10T08:46:03Z</time>
      </trkpt>
      <trkpt lat="44.42603" lon="3.64722">
        <ele>1357</ele>
        <time>2009-07-10T08:46:08Z</time>
      </trkpt>
      <trkpt lat="44.42613" lon="3.64692">
        <ele>1352</ele>
        <time>2009-07-10T08:46:11Z</time>
      </trkpt>
      <trkpt lat="44.42617" lon="3.64683">
        <ele>1354</ele>
        <time>2009-07-10T08:46:12Z</time>
      </trkpt>
      <trkpt lat="44.42635" lon="3.6464">
        <ele>1350</ele>
        <time>2009-07-10T08:46:16Z</time>
      </trkpt>
      <trkpt lat="44.42658" lon="3.64586">
        <ele>1346</ele>
        <time>2009-07-10T08:46:21Z</time>
      </trkpt>
      <trkpt lat="44.42668" lon="3.64564">
        <ele>1345</ele>
        <time>2009-07-10T08:46:23Z</time>
      </trkpt>
      <trkpt lat="44.42684" lon="3.64521">
        <ele>1343</ele>
        <time>2009-07-10T08:46:27Z</time>
      </trkpt>
      <trkpt lat="44.42697" lon="3.64482">
        <ele>1340</ele>
        <time>2009-07-10T08:46:31Z</time>
      </trkpt>
      <trkpt lat="44.42712" lon="3.64434">
        <ele>1336</ele>
        <time>2009-07-10T08:46:36Z</time>
      </trkpt>
      <trkpt lat="44.42726" lon="3.64397">
        <ele>1333</ele>
        <time>2009-07-10T08:46:40Z</time>
      </trkpt>
      <trkpt lat="44.42729" lon="3.64387">
        <ele>1334</ele>
        <time>2009-07-10T08:46:41Z</time>
      </trkpt>
      <trkpt lat="44.42739" lon="3.64349">
        <ele>1333</ele>
        <time>2009-07-10T08:46:49Z</time>
      </trkpt>
      <trkpt lat="44.42742" lon="3.64337">
        <ele>1332</ele>
        <time>2009-07-10T08:46:58Z</time>
      </trkpt>
      <trkpt lat="44.42745" lon="3.64322">
        <ele>1331</ele>
        <time>2009-07-10T08:47:39Z</time>
      </trkpt>
      <trkpt lat="44.42748" lon="3.64306">
        <ele>1329</ele>
        <time>2009-07-10T08:47:42Z</time>
      </trkpt>
      <trkpt lat="44.42755" lon="3.6426">
        <ele>1325</ele>
        <time>2009-07-10T08:47:49Z</time>
      </trkpt>
      <trkpt lat="44.42765" lon="3.64232">
        <ele>1323</ele>
        <time>2009-07-10T08:47:53Z</time>
      </trkpt>
      <trkpt lat="44.42769" lon="3.64204">
        <ele>1321</ele>
        <time>2009-07-10T08:47:57Z</time>
      </trkpt>
      <trkpt lat="44.42768" lon="3.64173">
        <ele>1318</ele>
        <time>2009-07-10T08:48:01Z</time>
      </trkpt>
      <trkpt lat="44.42767" lon="3.64165">
        <ele>1317</ele>
        <time>2009-07-10T08:48:02Z</time>
      </trkpt>
      <trkpt lat="44.42761" lon="3.64109">
        <ele>1315</ele>
        <time>2009-07-10T08:48:08Z</time>
      </trkpt>
      <trkpt lat="44.42749" lon="3.64057">
        <ele>1312</ele>
        <time>2009-07-10T08:48:13Z</time>
      </trkpt>
      <trkpt lat="44.42731" lon="3.64022">
        <ele>1311</ele>
        <time>2009-07-10T08:48:18Z</time>
      </trkpt>
      <trkpt lat="44.42672" lon="3.63958">
        <ele>1311</ele>
        <time>2009-07-10T08:48:32Z</time>
      </trkpt>
      <trkpt lat="44.42658" lon="3.6394">
        <ele>1311</ele>
        <time>2009-07-10T08:48:37Z</time>
      </trkpt>
      <trkpt lat="44.4265" lon="3.63925">
        <ele>1310</ele>
        <time>2009-07-10T08:48:40Z</time>
      </trkpt>
      <trkpt lat="44.42642" lon="3.63903">
        <ele>1306</ele>
        <time>2009-07-10T08:48:43Z</time>
      </trkpt>
      <trkpt lat="44.4264" lon="3.63894">
        <ele>1305</ele>
        <time>2009-07-10T08:48:44Z</time>
      </trkpt>
      <trkpt lat="44.42636" lon="3.63843">
        <ele>1303</ele>
        <time>2009-07-10T08:48:49Z</time>
      </trkpt>
      <trkpt lat="44.42629" lon="3.63813">
        <ele>1298</ele>
        <time>2009-07-10T08:48:53Z</time>
      </trkpt>
      <trkpt lat="44.42615" lon="3.6378">
        <ele>1295</ele>
        <time>2009-07-10T08:48:57Z</time>
      </trkpt>
      <trkpt lat="44.42611" lon="3.63758">
        <ele>1293</ele>
        <time>2009-07-10T08:49:00Z</time>
      </trkpt>
      <trkpt lat="44.42606" lon="3.63723">
        <ele>1287</ele>
        <time>2009-07-10T08:49:04Z</time>
      </trkpt>
      <trkpt lat="44.426" lon="3.63694">
        <ele>1284</ele>
        <time>2009-07-10T08:49:07Z</time>
      </trkpt>
      <trkpt lat="44.42598" lon="3.63685">
        <ele>1284</ele>
        <time>2009-07-10T08:49:08Z</time>
      </trkpt>
      <trkpt lat="44.42596" lon="3.6366">
        <ele>1280</ele>
        <time>2009-07-10T08:49:11Z</time>
      </trkpt>
      <trkpt lat="44.42595" lon="3.63651">
        <ele>1280</ele>
        <time>2009-07-10T08:49:12Z</time>
      </trkpt>
      <trkpt lat="44.426" lon="3.63619">
        <ele>1279</ele>
        <time>2009-07-10T08:49:16Z</time>
      </trkpt>
      <trkpt lat="44.42614" lon="3.63571">
        <ele>1283</ele>
        <time>2009-07-10T08:49:26Z</time>
      </trkpt>
      <trkpt lat="44.42615" lon="3.63568">
        <ele>1282</ele>
        <time>2009-07-10T08:49:27Z</time>
      </trkpt>
      <trkpt lat="44.42621" lon="3.63541">
        <ele>1284</ele>
        <time>2009-07-10T08:49:39Z</time>
      </trkpt>
      <trkpt lat="44.42629" lon="3.63537">
        <ele>1286</ele>
        <time>2009-07-10T08:49:44Z</time>
      </trkpt>
      <trkpt lat="44.42649" lon="3.63549">
        <ele>1289</ele>
        <time>2009-07-10T08:49:59Z</time>
      </trkpt>
      <trkpt lat="44.4265" lon="3.63551">
        <ele>1293</ele>
        <time>2009-07-10T08:50:33Z</time>
      </trkpt>
      <trkpt lat="44.4265" lon="3.63551">
        <ele>1290</ele>
        <time>2009-07-10T08:50:34Z</time>
      </trkpt>
      <trkpt lat="44.4265" lon="3.63551">
        <ele>1290</ele>
        <time>2009-07-10T08:50:41Z</time>
      </trkpt>
      <trkpt lat="44.42651" lon="3.63549">
        <ele>1289</ele>
        <time>2009-07-10T08:51:39Z</time>
      </trkpt>
      <trkpt lat="44.42651" lon="3.63549">
        <ele>1291</ele>
        <time>2009-07-10T08:51:49Z</time>
      </trkpt>
      <trkpt lat="44.42651" lon="3.63549">
        <ele>1288</ele>
        <time>2009-07-10T08:52:40Z</time>
      </trkpt>
      <trkpt lat="44.42651" lon="3.63548">
        <ele>1290</ele>
        <time>2009-07-10T08:52:42Z</time>
      </trkpt>
      <trkpt lat="44.42652" lon="3.63548">
        <ele>1291</ele>
        <time>2009-07-10T08:52:57Z</time>
      </trkpt>
      <trkpt lat="44.4267" lon="3.63549">
        <ele>1292</ele>
        <time>2009-07-10T08:53:13Z</time>
      </trkpt>
      <trkpt lat="44.42676" lon="3.63557">
        <ele>1295</ele>
        <time>2009-07-10T08:53:19Z</time>
      </trkpt>
      <trkpt lat="44.42676" lon="3.63559">
        <ele>1295</ele>
        <time>2009-07-10T08:53:20Z</time>
      </trkpt>
      <trkpt lat="44.42676" lon="3.63563">
        <ele>1295</ele>
        <time>2009-07-10T08:53:23Z</time>
      </trkpt>
      <trkpt lat="44.42682" lon="3.63566">
        <ele>1296</ele>
        <time>2009-07-10T08:53:37Z</time>
      </trkpt>
      <trkpt lat="44.42682" lon="3.63566">
        <ele>1293</ele>
        <time>2009-07-10T08:53:57Z</time>
      </trkpt>
      <trkpt lat="44.42682" lon="3.63565">
        <ele>1293</ele>
        <time>2009-07-10T08:53:58Z</time>
      </trkpt>
      <trkpt lat="44.42682" lon="3.63565">
        <ele>1296</ele>
        <time>2009-07-10T08:53:59Z</time>
      </trkpt>
      <trkpt lat="44.42682" lon="3.63565">
        <ele>1296</ele>
        <time>2009-07-10T08:54:00Z</time>
      </trkpt>
      <trkpt lat="44.42681" lon="3.63566">
        <ele>1295</ele>
        <time>2009-07-10T08:54:17Z</time>
      </trkpt>
      <trkpt lat="44.4269" lon="3.63589">
        <ele>1298</ele>
        <time>2009-07-10T08:54:31Z</time>
      </trkpt>
      <trkpt lat="44.42695" lon="3.63612">
        <ele>1301</ele>
        <time>2009-07-10T08:54:42Z</time>
      </trkpt>
      <trkpt lat="44.42697" lon="3.63643">
        <ele>1302</ele>
        <time>2009-07-10T08:54:56Z</time>
      </trkpt>
      <trkpt lat="44.42694" lon="3.63682">
        <ele>1305</ele>
        <time>2009-07-10T08:55:14Z</time>
      </trkpt>
      <trkpt lat="44.4269" lon="3.63698">
        <ele>1307</ele>
        <time>2009-07-10T08:55:22Z</time>
      </trkpt>
      <trkpt lat="44.42686" lon="3.63732">
        <ele>1309</ele>
        <time>2009-07-10T08:55:39Z</time>
      </trkpt>
      <trkpt lat="44.42686" lon="3.63733">
        <ele>1312</ele>
        <time>2009-07-10T08:55:48Z</time>
      </trkpt>
      <trkpt lat="44.42686" lon="3.63733">
        <ele>1305</ele>
        <time>2009-07-10T08:55:49Z</time>
      </trkpt>
      <trkpt lat="44.42686" lon="3.63733">
        <ele>1312</ele>
        <time>2009-07-10T08:55:50Z</time>
      </trkpt>
      <trkpt lat="44.42686" lon="3.63733">
        <ele>1307</ele>
        <time>2009-07-10T08:55:53Z</time>
      </trkpt>
      <trkpt lat="44.42686" lon="3.63733">
        <ele>1310</ele>
        <time>2009-07-10T08:55:54Z</time>
      </trkpt>
      <trkpt lat="44.42686" lon="3.63733">
        <ele>1307</ele>
        <time>2009-07-10T08:55:56Z</time>
      </trkpt>
      <trkpt lat="44.42686" lon="3.63733">
        <ele>1310</ele>
        <time>2009-07-10T08:55:57Z</time>
      </trkpt>
      <trkpt lat="44.42686" lon="3.63733">
        <ele>1307</ele>
        <time>2009-07-10T08:55:58Z</time>
      </trkpt>
      <trkpt lat="44.42686" lon="3.63733">
        <ele>1312</ele>
        <time>2009-07-10T08:55:59Z</time>
      </trkpt>
      <trkpt lat="44.42686" lon="3.63733">
        <ele>1309</ele>
        <time>2009-07-10T08:56:01Z</time>
      </trkpt>
      <trkpt lat="44.42687" lon="3.63749">
        <ele>1310</ele>
        <time>2009-07-10T08:56:16Z</time>
      </trkpt>
      <trkpt lat="44.42691" lon="3.63783">
        <ele>1310</ele>
        <time>2009-07-10T08:56:29Z</time>
      </trkpt>
      <trkpt lat="44.42711" lon="3.63857">
        <ele>1313</ele>
        <time>2009-07-10T08:56:49Z</time>
      </trkpt>
      <trkpt lat="44.42729" lon="3.63904">
        <ele>1316</ele>
        <time>2009-07-10T08:57:07Z</time>
      </trkpt>
      <trkpt lat="44.42749" lon="3.63936">
        <ele>1318</ele>
        <time>2009-07-10T08:57:21Z</time>
      </trkpt>
      <trkpt lat="44.4278" lon="3.63967">
        <ele>1319</ele>
        <time>2009-07-10T08:57:37Z</time>
      </trkpt>
      <trkpt lat="44.42818" lon="3.63998">
        <ele>1320</ele>
        <time>2009-07-10T08:57:53Z</time>
      </trkpt>
      <trkpt lat="44.42842" lon="3.64019">
        <ele>1323</ele>
        <time>2009-07-10T08:58:05Z</time>
      </trkpt>
      <trkpt lat="44.42871" lon="3.64045">
        <ele>1325</ele>
        <time>2009-07-10T08:58:20Z</time>
      </trkpt>
      <trkpt lat="44.42906" lon="3.64078">
        <ele>1328</ele>
        <time>2009-07-10T08:58:40Z</time>
      </trkpt>
      <trkpt lat="44.4291" lon="3.64085">
        <ele>1328</ele>
        <time>2009-07-10T08:58:55Z</time>
      </trkpt>
      <trkpt lat="44.42913" lon="3.64091">
        <ele>1327</ele>
        <time>2009-07-10T08:59:07Z</time>
      </trkpt>
      <trkpt lat="44.42916" lon="3.6409">
        <ele>1328</ele>
        <time>2009-07-10T08:59:13Z</time>
      </trkpt>
      <trkpt lat="44.42934" lon="3.64098">
        <ele>1330</ele>
        <time>2009-07-10T08:59:23Z</time>
      </trkpt>
      <trkpt lat="44.42966" lon="3.6411">
        <ele>1333</ele>
        <time>2009-07-10T08:59:40Z</time>
      </trkpt>
      <trkpt lat="44.42991" lon="3.641">
        <ele>1336</ele>
        <time>2009-07-10T08:59:55Z</time>
      </trkpt>
      <trkpt lat="44.42997" lon="3.64097">
        <ele>1335</ele>
        <time>2009-07-10T09:00:08Z</time>
      </trkpt>
      <trkpt lat="44.42996" lon="3.64098">
        <ele>1335</ele>
        <time>2009-07-10T09:00:29Z</time>
      </trkpt>
      <trkpt lat="44.42996" lon="3.64098">
        <ele>1336</ele>
        <time>2009-07-10T09:00:30Z</time>
      </trkpt>
      <trkpt lat="44.43001" lon="3.64111">
        <ele>1334</ele>
        <time>2009-07-10T09:00:45Z</time>
      </trkpt>
      <trkpt lat="44.43002" lon="3.64115">
        <ele>1335</ele>
        <time>2009-07-10T09:00:49Z</time>
      </trkpt>
      <trkpt lat="44.43008" lon="3.64118">
        <ele>1337</ele>
        <time>2009-07-10T09:01:01Z</time>
      </trkpt>
      <trkpt lat="44.43024" lon="3.6412">
        <ele>1338</ele>
        <time>2009-07-10T09:01:13Z</time>
      </trkpt>
      <trkpt lat="44.43036" lon="3.64118">
        <ele>1339</ele>
        <time>2009-07-10T09:01:24Z</time>
      </trkpt>
      <trkpt lat="44.43039" lon="3.64122">
        <ele>1341</ele>
        <time>2009-07-10T09:01:28Z</time>
      </trkpt>
      <trkpt lat="44.43041" lon="3.64128">
        <ele>1340</ele>
        <time>2009-07-10T09:01:32Z</time>
      </trkpt>
      <trkpt lat="44.43049" lon="3.64128">
        <ele>1341</ele>
        <time>2009-07-10T09:01:39Z</time>
      </trkpt>
      <trkpt lat="44.43053" lon="3.6413">
        <ele>1341</ele>
        <time>2009-07-10T09:01:42Z</time>
      </trkpt>
      <trkpt lat="44.43058" lon="3.64136">
        <ele>1342</ele>
        <time>2009-07-10T09:01:49Z</time>
      </trkpt>
      <trkpt lat="44.43061" lon="3.64142">
        <ele>1343</ele>
        <time>2009-07-10T09:01:54Z</time>
      </trkpt>
      <trkpt lat="44.43063" lon="3.64146">
        <ele>1345</ele>
        <time>2009-07-10T09:01:57Z</time>
      </trkpt>
      <trkpt lat="44.43064" lon="3.64171">
        <ele>1345</ele>
        <time>2009-07-10T09:02:14Z</time>
      </trkpt>
      <trkpt lat="44.43064" lon="3.64173">
        <ele>1345</ele>
        <time>2009-07-10T09:02:15Z</time>
      </trkpt>
      <trkpt lat="44.43065" lon="3.64187">
        <ele>1346</ele>
        <time>2009-07-10T09:02:29Z</time>
      </trkpt>
      <trkpt lat="44.43068" lon="3.64208">
        <ele>1350</ele>
        <time>2009-07-10T09:02:42Z</time>
      </trkpt>
      <trkpt lat="44.43073" lon="3.64216">
        <ele>1350</ele>
        <time>2009-07-10T09:02:48Z</time>
      </trkpt>
      <trkpt lat="44.43083" lon="3.64224">
        <ele>1352</ele>
        <time>2009-07-10T09:02:57Z</time>
      </trkpt>
      <trkpt lat="44.43099" lon="3.64237">
        <ele>1355</ele>
        <time>2009-07-10T09:03:12Z</time>
      </trkpt>
      <trkpt lat="44.43107" lon="3.64247">
        <ele>1356</ele>
        <time>2009-07-10T09:03:20Z</time>
      </trkpt>
      <trkpt lat="44.43124" lon="3.64262">
        <ele>1358</ele>
        <time>2009-07-10T09:03:37Z</time>
      </trkpt>
      <trkpt lat="44.43129" lon="3.64264">
        <ele>1360</ele>
        <time>2009-07-10T09:03:41Z</time>
      </trkpt>
      <trkpt lat="44.43135" lon="3.64275">
        <ele>1362</ele>
        <time>2009-07-10T09:03:49Z</time>
      </trkpt>
      <trkpt lat="44.43137" lon="3.6428">
        <ele>1362</ele>
        <time>2009-07-10T09:03:59Z</time>
      </trkpt>
      <trkpt lat="44.43142" lon="3.64278">
        <ele>1363</ele>
        <time>2009-07-10T09:04:06Z</time>
      </trkpt>
      <trkpt lat="44.43154" lon="3.64278">
        <ele>1366</ele>
        <time>2009-07-10T09:04:23Z</time>
      </trkpt>
      <trkpt lat="44.43156" lon="3.64281">
        <ele>1365</ele>
        <time>2009-07-10T09:04:30Z</time>
      </trkpt>
      <trkpt lat="44.43165" lon="3.64292">
        <ele>1367</ele>
        <time>2009-07-10T09:04:44Z</time>
      </trkpt>
      <trkpt lat="44.43173" lon="3.64295">
        <ele>1369</ele>
        <time>2009-07-10T09:04:56Z</time>
      </trkpt>
      <trkpt lat="44.43175" lon="3.64294">
        <ele>1368</ele>
        <time>2009-07-10T09:05:15Z</time>
      </trkpt>
      <trkpt lat="44.43174" lon="3.64296">
        <ele>1372</ele>
        <time>2009-07-10T09:05:57Z</time>
      </trkpt>
      <trkpt lat="44.43174" lon="3.64295">
        <ele>1372</ele>
        <time>2009-07-10T09:05:58Z</time>
      </trkpt>
      <trkpt lat="44.43179" lon="3.64296">
        <ele>1370</ele>
        <time>2009-07-10T09:06:04Z</time>
      </trkpt>
      <trkpt lat="44.43181" lon="3.64295">
        <ele>1371</ele>
        <time>2009-07-10T09:07:23Z</time>
      </trkpt>
      <trkpt lat="44.43186" lon="3.64302">
        <ele>1372</ele>
        <time>2009-07-10T09:07:37Z</time>
      </trkpt>
      <trkpt lat="44.43192" lon="3.64311">
        <ele>1374</ele>
        <time>2009-07-10T09:07:49Z</time>
      </trkpt>
      <trkpt lat="44.43199" lon="3.64314">
        <ele>1377</ele>
        <time>2009-07-10T09:08:01Z</time>
      </trkpt>
      <trkpt lat="44.43205" lon="3.64324">
        <ele>1378</ele>
        <time>2009-07-10T09:08:16Z</time>
      </trkpt>
      <trkpt lat="44.43208" lon="3.64329">
        <ele>1379</ele>
        <time>2009-07-10T09:08:29Z</time>
      </trkpt>
      <trkpt lat="44.4321" lon="3.6433">
        <ele>1379</ele>
        <time>2009-07-10T09:08:46Z</time>
      </trkpt>
      <trkpt lat="44.43214" lon="3.64336">
        <ele>1382</ele>
        <time>2009-07-10T09:08:59Z</time>
      </trkpt>
      <trkpt lat="44.43223" lon="3.64345">
        <ele>1384</ele>
        <time>2009-07-10T09:09:15Z</time>
      </trkpt>
      <trkpt lat="44.43225" lon="3.64347">
        <ele>1384</ele>
        <time>2009-07-10T09:09:18Z</time>
      </trkpt>
      <trkpt lat="44.4323" lon="3.64348">
        <ele>1384</ele>
        <time>2009-07-10T09:09:28Z</time>
      </trkpt>
      <trkpt lat="44.43235" lon="3.64355">
        <ele>1386</ele>
        <time>2009-07-10T09:09:42Z</time>
      </trkpt>
      <trkpt lat="44.43241" lon="3.64366">
        <ele>1389</ele>
        <time>2009-07-10T09:09:57Z</time>
      </trkpt>
      <trkpt lat="44.43242" lon="3.64367">
        <ele>1389</ele>
        <time>2009-07-10T09:09:58Z</time>
      </trkpt>
      <trkpt lat="44.43244" lon="3.64368">
        <ele>1391</ele>
        <time>2009-07-10T09:10:01Z</time>
      </trkpt>
      <trkpt lat="44.43248" lon="3.64376">
        <ele>1391</ele>
        <time>2009-07-10T09:10:19Z</time>
      </trkpt>
      <trkpt lat="44.43249" lon="3.64375">
        <ele>1393</ele>
        <time>2009-07-10T09:10:35Z</time>
      </trkpt>
      <trkpt lat="44.43251" lon="3.64376">
        <ele>1392</ele>
        <time>2009-07-10T09:10:36Z</time>
      </trkpt>
      <trkpt lat="44.43254" lon="3.64369">
        <ele>1393</ele>
        <time>2009-07-10T09:10:53Z</time>
      </trkpt>
      <trkpt lat="44.43255" lon="3.64363">
        <ele>1393</ele>
        <time>2009-07-10T09:11:23Z</time>
      </trkpt>
      <trkpt lat="44.43255" lon="3.64363">
        <ele>1394</ele>
        <time>2009-07-10T09:12:13Z</time>
      </trkpt>
      <trkpt lat="44.43255" lon="3.64364">
        <ele>1394</ele>
        <time>2009-07-10T09:12:40Z</time>
      </trkpt>
      <trkpt lat="44.43254" lon="3.64361">
        <ele>1393</ele>
        <time>2009-07-10T09:13:21Z</time>
      </trkpt>
      <trkpt lat="44.43257" lon="3.64358">
        <ele>1393</ele>
        <time>2009-07-10T09:13:25Z</time>
      </trkpt>
      <trkpt lat="44.43269" lon="3.64336">
        <ele>1394</ele>
        <time>2009-07-10T09:13:40Z</time>
      </trkpt>
      <trkpt lat="44.43286" lon="3.64306">
        <ele>1392</ele>
        <time>2009-07-10T09:13:54Z</time>
      </trkpt>
      <trkpt lat="44.43302" lon="3.64265">
        <ele>1391</ele>
        <time>2009-07-10T09:14:10Z</time>
      </trkpt>
      <trkpt lat="44.4332" lon="3.64219">
        <ele>1390</ele>
        <time>2009-07-10T09:14:25Z</time>
      </trkpt>
      <trkpt lat="44.43337" lon="3.64176">
        <ele>1388</ele>
        <time>2009-07-10T09:14:38Z</time>
      </trkpt>
      <trkpt lat="44.43365" lon="3.64137">
        <ele>1387</ele>
        <time>2009-07-10T09:14:52Z</time>
      </trkpt>
      <trkpt lat="44.43389" lon="3.64099">
        <ele>1386</ele>
        <time>2009-07-10T09:15:06Z</time>
      </trkpt>
      <trkpt lat="44.43403" lon="3.6408">
        <ele>1384</ele>
        <time>2009-07-10T09:15:13Z</time>
      </trkpt>
      <trkpt lat="44.4341" lon="3.64084">
        <ele>1385</ele>
        <time>2009-07-10T09:15:18Z</time>
      </trkpt>
      <trkpt lat="44.43421" lon="3.64101">
        <ele>1388</ele>
        <time>2009-07-10T09:15:30Z</time>
      </trkpt>
      <trkpt lat="44.4343" lon="3.64121">
        <ele>1392</ele>
        <time>2009-07-10T09:15:44Z</time>
      </trkpt>
      <trkpt lat="44.43442" lon="3.64139">
        <ele>1395</ele>
        <time>2009-07-10T09:15:59Z</time>
      </trkpt>
      <trkpt lat="44.43453" lon="3.64159">
        <ele>1398</ele>
        <time>2009-07-10T09:16:14Z</time>
      </trkpt>
      <trkpt lat="44.43464" lon="3.64181">
        <ele>1400</ele>
        <time>2009-07-10T09:16:29Z</time>
      </trkpt>
      <trkpt lat="44.43477" lon="3.64196">
        <ele>1404</ele>
        <time>2009-07-10T09:16:43Z</time>
      </trkpt>
      <trkpt lat="44.43478" lon="3.64197">
        <ele>1404</ele>
        <time>2009-07-10T09:16:44Z</time>
      </trkpt>
      <trkpt lat="44.43482" lon="3.64204">
        <ele>1404</ele>
        <time>2009-07-10T09:16:50Z</time>
      </trkpt>
      <trkpt lat="44.43487" lon="3.64219">
        <ele>1408</ele>
        <time>2009-07-10T09:17:00Z</time>
      </trkpt>
      <trkpt lat="44.435" lon="3.64241">
        <ele>1411</ele>
        <time>2009-07-10T09:17:17Z</time>
      </trkpt>
      <trkpt lat="44.43506" lon="3.64253">
        <ele>1414</ele>
        <time>2009-07-10T09:17:26Z</time>
      </trkpt>
      <trkpt lat="44.43516" lon="3.64273">
        <ele>1418</ele>
        <time>2009-07-10T09:17:41Z</time>
      </trkpt>
      <trkpt lat="44.43521" lon="3.64281">
        <ele>1420</ele>
        <time>2009-07-10T09:17:48Z</time>
      </trkpt>
      <trkpt lat="44.43534" lon="3.64302">
        <ele>1424</ele>
        <time>2009-07-10T09:18:05Z</time>
      </trkpt>
      <trkpt lat="44.43544" lon="3.64323">
        <ele>1427</ele>
        <time>2009-07-10T09:18:20Z</time>
      </trkpt>
      <trkpt lat="44.43552" lon="3.64339">
        <ele>1428</ele>
        <time>2009-07-10T09:18:33Z</time>
      </trkpt>
      <trkpt lat="44.43557" lon="3.64346">
        <ele>1430</ele>
        <time>2009-07-10T09:18:38Z</time>
      </trkpt>
      <trkpt lat="44.43562" lon="3.64353">
        <ele>1433</ele>
        <time>2009-07-10T09:18:44Z</time>
      </trkpt>
      <trkpt lat="44.43566" lon="3.64359">
        <ele>1434</ele>
        <time>2009-07-10T09:18:49Z</time>
      </trkpt>
      <trkpt lat="44.43578" lon="3.64385">
        <ele>1437</ele>
        <time>2009-07-10T09:19:06Z</time>
      </trkpt>
      <trkpt lat="44.43575" lon="3.64412">
        <ele>1439</ele>
        <time>2009-07-10T09:19:20Z</time>
      </trkpt>
      <trkpt lat="44.43566" lon="3.64448">
        <ele>1440</ele>
        <time>2009-07-10T09:19:37Z</time>
      </trkpt>
      <trkpt lat="44.4356" lon="3.64475">
        <ele>1442</ele>
        <time>2009-07-10T09:19:50Z</time>
      </trkpt>
      <trkpt lat="44.43556" lon="3.6449">
        <ele>1444</ele>
        <time>2009-07-10T09:19:57Z</time>
      </trkpt>
      <trkpt lat="44.43546" lon="3.64531">
        <ele>1446</ele>
        <time>2009-07-10T09:20:16Z</time>
      </trkpt>
      <trkpt lat="44.43535" lon="3.64564">
        <ele>1447</ele>
        <time>2009-07-10T09:20:33Z</time>
      </trkpt>
      <trkpt lat="44.43536" lon="3.64565">
        <ele>1447</ele>
        <time>2009-07-10T09:21:00Z</time>
      </trkpt>
      <trkpt lat="44.43536" lon="3.64564">
        <ele>1447</ele>
        <time>2009-07-10T09:22:04Z</time>
      </trkpt>
      <trkpt lat="44.43536" lon="3.64563">
        <ele>1446</ele>
        <time>2009-07-10T09:22:31Z</time>
      </trkpt>
      <trkpt lat="44.43533" lon="3.64562">
        <ele>1447</ele>
        <time>2009-07-10T09:23:14Z</time>
      </trkpt>
      <trkpt lat="44.43531" lon="3.64566">
        <ele>1448</ele>
        <time>2009-07-10T09:24:22Z</time>
      </trkpt>
      <trkpt lat="44.43527" lon="3.64583">
        <ele>1450</ele>
        <time>2009-07-10T09:24:36Z</time>
      </trkpt>
      <trkpt lat="44.43517" lon="3.64627">
        <ele>1452</ele>
        <time>2009-07-10T09:24:51Z</time>
      </trkpt>
      <trkpt lat="44.43505" lon="3.64679">
        <ele>1454</ele>
        <time>2009-07-10T09:25:09Z</time>
      </trkpt>
      <trkpt lat="44.43493" lon="3.64729">
        <ele>1454</ele>
        <time>2009-07-10T09:25:27Z</time>
      </trkpt>
      <trkpt lat="44.43484" lon="3.64773">
        <ele>1457</ele>
        <time>2009-07-10T09:25:42Z</time>
      </trkpt>
      <trkpt lat="44.43476" lon="3.64824">
        <ele>1459</ele>
        <time>2009-07-10T09:25:59Z</time>
      </trkpt>
      <trkpt lat="44.4347" lon="3.64861">
        <ele>1463</ele>
        <time>2009-07-10T09:26:12Z</time>
      </trkpt>
      <trkpt lat="44.43466" lon="3.64888">
        <ele>1465</ele>
        <time>2009-07-10T09:26:23Z</time>
      </trkpt>
      <trkpt lat="44.43463" lon="3.64912">
        <ele>1468</ele>
        <time>2009-07-10T09:26:33Z</time>
      </trkpt>
      <trkpt lat="44.43456" lon="3.64961">
        <ele>1470</ele>
        <time>2009-07-10T09:26:53Z</time>
      </trkpt>
      <trkpt lat="44.43451" lon="3.64999">
        <ele>1473</ele>
        <time>2009-07-10T09:27:08Z</time>
      </trkpt>
      <trkpt lat="44.43444" lon="3.65042">
        <ele>1475</ele>
        <time>2009-07-10T09:27:24Z</time>
      </trkpt>
      <trkpt lat="44.43443" lon="3.65086">
        <ele>1477</ele>
        <time>2009-07-10T09:27:40Z</time>
      </trkpt>
      <trkpt lat="44.43442" lon="3.65112">
        <ele>1480</ele>
        <time>2009-07-10T09:27:50Z</time>
      </trkpt>
      <trkpt lat="44.43442" lon="3.65146">
        <ele>1483</ele>
        <time>2009-07-10T09:28:04Z</time>
      </trkpt>
      <trkpt lat="44.43441" lon="3.65181">
        <ele>1485</ele>
        <time>2009-07-10T09:28:19Z</time>
      </trkpt>
      <trkpt lat="44.4344" lon="3.65228">
        <ele>1488</ele>
        <time>2009-07-10T09:28:37Z</time>
      </trkpt>
      <trkpt lat="44.4344" lon="3.65236">
        <ele>1489</ele>
        <time>2009-07-10T09:28:40Z</time>
      </trkpt>
      <trkpt lat="44.4344" lon="3.65241">
        <ele>1490</ele>
        <time>2009-07-10T09:28:42Z</time>
      </trkpt>
      <trkpt lat="44.4344" lon="3.65283">
        <ele>1491</ele>
        <time>2009-07-10T09:28:59Z</time>
      </trkpt>
      <trkpt lat="44.4344" lon="3.65314">
        <ele>1494</ele>
        <time>2009-07-10T09:29:12Z</time>
      </trkpt>
      <trkpt lat="44.43438" lon="3.65349">
        <ele>1496</ele>
        <time>2009-07-10T09:29:27Z</time>
      </trkpt>
      <trkpt lat="44.43441" lon="3.65377">
        <ele>1500</ele>
        <time>2009-07-10T09:29:39Z</time>
      </trkpt>
      <trkpt lat="44.43441" lon="3.65379">
        <ele>1500</ele>
        <time>2009-07-10T09:29:40Z</time>
      </trkpt>
      <trkpt lat="44.43441" lon="3.65403">
        <ele>1503</ele>
        <time>2009-07-10T09:29:50Z</time>
      </trkpt>
      <trkpt lat="44.43441" lon="3.65439">
        <ele>1506</ele>
        <time>2009-07-10T09:30:05Z</time>
      </trkpt>
      <trkpt lat="44.43443" lon="3.65475">
        <ele>1508</ele>
        <time>2009-07-10T09:30:20Z</time>
      </trkpt>
      <trkpt lat="44.43451" lon="3.65504">
        <ele>1509</ele>
        <time>2009-07-10T09:30:36Z</time>
      </trkpt>
      <trkpt lat="44.43449" lon="3.65506">
        <ele>1508</ele>
        <time>2009-07-10T09:30:58Z</time>
      </trkpt>
      <trkpt lat="44.43449" lon="3.65507">
        <ele>1513</ele>
        <time>2009-07-10T09:30:59Z</time>
      </trkpt>
      <trkpt lat="44.43449" lon="3.65507">
        <ele>1510</ele>
        <time>2009-07-10T09:31:00Z</time>
      </trkpt>
      <trkpt lat="44.43449" lon="3.65507">
        <ele>1506</ele>
        <time>2009-07-10T09:31:02Z</time>
      </trkpt>
      <trkpt lat="44.43449" lon="3.65507">
        <ele>1512</ele>
        <time>2009-07-10T09:31:03Z</time>
      </trkpt>
      <trkpt lat="44.43449" lon="3.65507">
        <ele>1507</ele>
        <time>2009-07-10T09:31:07Z</time>
      </trkpt>
      <trkpt lat="44.43449" lon="3.65507">
        <ele>1513</ele>
        <time>2009-07-10T09:31:09Z</time>
      </trkpt>
      <trkpt lat="44.43449" lon="3.65507">
        <ele>1507</ele>
        <time>2009-07-10T09:31:10Z</time>
      </trkpt>
      <trkpt lat="44.43449" lon="3.65507">
        <ele>1511</ele>
        <time>2009-07-10T09:31:11Z</time>
      </trkpt>
      <trkpt lat="44.43451" lon="3.65514">
        <ele>1509</ele>
        <time>2009-07-10T09:31:29Z</time>
      </trkpt>
      <trkpt lat="44.43457" lon="3.6555">
        <ele>1511</ele>
        <time>2009-07-10T09:31:45Z</time>
      </trkpt>
      <trkpt lat="44.43462" lon="3.65572">
        <ele>1514</ele>
        <time>2009-07-10T09:31:55Z</time>
      </trkpt>
      <trkpt lat="44.43471" lon="3.65609">
        <ele>1514</ele>
        <time>2009-07-10T09:32:10Z</time>
      </trkpt>
      <trkpt lat="44.43481" lon="3.65654">
        <ele>1515</ele>
        <time>2009-07-10T09:32:29Z</time>
      </trkpt>
      <trkpt lat="44.4349" lon="3.65686">
        <ele>1515</ele>
        <time>2009-07-10T09:32:43Z</time>
      </trkpt>
      <trkpt lat="44.435" lon="3.6573">
        <ele>1516</ele>
        <time>2009-07-10T09:33:01Z</time>
      </trkpt>
      <trkpt lat="44.43508" lon="3.6576">
        <ele>1518</ele>
        <time>2009-07-10T09:33:15Z</time>
      </trkpt>
      <trkpt lat="44.43515" lon="3.65789">
        <ele>1520</ele>
        <time>2009-07-10T09:33:28Z</time>
      </trkpt>
      <trkpt lat="44.43517" lon="3.658">
        <ele>1520</ele>
        <time>2009-07-10T09:33:33Z</time>
      </trkpt>
      <trkpt lat="44.4352" lon="3.65809">
        <ele>1521</ele>
        <time>2009-07-10T09:33:37Z</time>
      </trkpt>
      <trkpt lat="44.43521" lon="3.65819">
        <ele>1521</ele>
        <time>2009-07-10T09:33:49Z</time>
      </trkpt>
      <trkpt lat="44.43526" lon="3.65833">
        <ele>1523</ele>
        <time>2009-07-10T09:33:56Z</time>
      </trkpt>
      <trkpt lat="44.43533" lon="3.65863">
        <ele>1525</ele>
        <time>2009-07-10T09:34:12Z</time>
      </trkpt>
      <trkpt lat="44.43536" lon="3.65871">
        <ele>1526</ele>
        <time>2009-07-10T09:34:24Z</time>
      </trkpt>
      <trkpt lat="44.43536" lon="3.65872">
        <ele>1526</ele>
        <time>2009-07-10T09:34:28Z</time>
      </trkpt>
      <trkpt lat="44.43539" lon="3.65877">
        <ele>1526</ele>
        <time>2009-07-10T09:34:32Z</time>
      </trkpt>
      <trkpt lat="44.43543" lon="3.65885">
        <ele>1528</ele>
        <time>2009-07-10T09:34:37Z</time>
      </trkpt>
      <trkpt lat="44.43546" lon="3.65893">
        <ele>1531</ele>
        <time>2009-07-10T09:34:41Z</time>
      </trkpt>
      <trkpt lat="44.43549" lon="3.65897">
        <ele>1532</ele>
        <time>2009-07-10T09:34:43Z</time>
      </trkpt>
      <trkpt lat="44.43555" lon="3.6591">
        <ele>1533</ele>
        <time>2009-07-10T09:34:54Z</time>
      </trkpt>
      <trkpt lat="44.43561" lon="3.65921">
        <ele>1532</ele>
        <time>2009-07-10T09:35:07Z</time>
      </trkpt>
      <trkpt lat="44.43574" lon="3.65938">
        <ele>1534</ele>
        <time>2009-07-10T09:35:20Z</time>
      </trkpt>
      <trkpt lat="44.43582" lon="3.65957">
        <ele>1536</ele>
        <time>2009-07-10T09:35:28Z</time>
      </trkpt>
      <trkpt lat="44.43588" lon="3.65965">
        <ele>1537</ele>
        <time>2009-07-10T09:35:39Z</time>
      </trkpt>
      <trkpt lat="44.43591" lon="3.65972">
        <ele>1537</ele>
        <time>2009-07-10T09:35:45Z</time>
      </trkpt>
      <trkpt lat="44.436" lon="3.65979">
        <ele>1537</ele>
        <time>2009-07-10T09:35:59Z</time>
      </trkpt>
      <trkpt lat="44.43623" lon="3.66003">
        <ele>1539</ele>
        <time>2009-07-10T09:36:13Z</time>
      </trkpt>
      <trkpt lat="44.43642" lon="3.66024">
        <ele>1538</ele>
        <time>2009-07-10T09:36:24Z</time>
      </trkpt>
      <trkpt lat="44.43654" lon="3.66037">
        <ele>1538</ele>
        <time>2009-07-10T09:36:31Z</time>
      </trkpt>
      <trkpt lat="44.43675" lon="3.66065">
        <ele>1539</ele>
        <time>2009-07-10T09:36:44Z</time>
      </trkpt>
      <trkpt lat="44.43717" lon="3.66107">
        <ele>1537</ele>
        <time>2009-07-10T09:37:03Z</time>
      </trkpt>
      <trkpt lat="44.43744" lon="3.6614">
        <ele>1537</ele>
        <time>2009-07-10T09:37:18Z</time>
      </trkpt>
      <trkpt lat="44.43747" lon="3.66147">
        <ele>1536</ele>
        <time>2009-07-10T09:37:30Z</time>
      </trkpt>
      <trkpt lat="44.43747" lon="3.66147">
        <ele>1538</ele>
        <time>2009-07-10T09:37:32Z</time>
      </trkpt>
      <trkpt lat="44.43747" lon="3.66148">
        <ele>1534</ele>
        <time>2009-07-10T09:37:44Z</time>
      </trkpt>
      <trkpt lat="44.43747" lon="3.66148">
        <ele>1538</ele>
        <time>2009-07-10T09:37:45Z</time>
      </trkpt>
      <trkpt lat="44.43747" lon="3.66148">
        <ele>1535</ele>
        <time>2009-07-10T09:37:46Z</time>
      </trkpt>
      <trkpt lat="44.43747" lon="3.66148">
        <ele>1538</ele>
        <time>2009-07-10T09:37:47Z</time>
      </trkpt>
      <trkpt lat="44.43747" lon="3.66148">
        <ele>1537</ele>
        <time>2009-07-10T09:37:56Z</time>
      </trkpt>
      <trkpt lat="44.43747" lon="3.66148">
        <ele>1536</ele>
        <time>2009-07-10T09:37:58Z</time>
      </trkpt>
      <trkpt lat="44.43746" lon="3.66149">
        <ele>1537</ele>
        <time>2009-07-10T09:38:33Z</time>
      </trkpt>
      <trkpt lat="44.43747" lon="3.6615">
        <ele>1536</ele>
        <time>2009-07-10T09:38:53Z</time>
      </trkpt>
      <trkpt lat="44.43747" lon="3.66163">
        <ele>1535</ele>
        <time>2009-07-10T09:40:58Z</time>
      </trkpt>
      <trkpt lat="44.43752" lon="3.66179">
        <ele>1537</ele>
        <time>2009-07-10T09:41:03Z</time>
      </trkpt>
      <trkpt lat="44.43754" lon="3.66186">
        <ele>1535</ele>
        <time>2009-07-10T09:41:05Z</time>
      </trkpt>
      <trkpt lat="44.43761" lon="3.6621">
        <ele>1535</ele>
        <time>2009-07-10T09:41:11Z</time>
      </trkpt>
      <trkpt lat="44.43769" lon="3.66263">
        <ele>1537</ele>
        <time>2009-07-10T09:41:22Z</time>
      </trkpt>
      <trkpt lat="44.43766" lon="3.66355">
        <ele>1539</ele>
        <time>2009-07-10T09:41:41Z</time>
      </trkpt>
      <trkpt lat="44.43755" lon="3.66451">
        <ele>1542</ele>
        <time>2009-07-10T09:42:02Z</time>
      </trkpt>
      <trkpt lat="44.43739" lon="3.66533">
        <ele>1542</ele>
        <time>2009-07-10T09:42:20Z</time>
      </trkpt>
      <trkpt lat="44.437" lon="3.66625">
        <ele>1544</ele>
        <time>2009-07-10T09:42:42Z</time>
      </trkpt>
      <trkpt lat="44.43647" lon="3.66689">
        <ele>1546</ele>
        <time>2009-07-10T09:43:01Z</time>
      </trkpt>
      <trkpt lat="44.43574" lon="3.66747">
        <ele>1548</ele>
        <time>2009-07-10T09:43:24Z</time>
      </trkpt>
      <trkpt lat="44.43506" lon="3.66782">
        <ele>1551</ele>
        <time>2009-07-10T09:43:43Z</time>
      </trkpt>
      <trkpt lat="44.43432" lon="3.66822">
        <ele>1555</ele>
        <time>2009-07-10T09:44:04Z</time>
      </trkpt>
      <trkpt lat="44.43407" lon="3.66882">
        <ele>1556</ele>
        <time>2009-07-10T09:44:18Z</time>
      </trkpt>
      <trkpt lat="44.43412" lon="3.66992">
        <ele>1557</ele>
        <time>2009-07-10T09:44:39Z</time>
      </trkpt>
      <trkpt lat="44.43425" lon="3.671">
        <ele>1559</ele>
        <time>2009-07-10T09:45:01Z</time>
      </trkpt>
      <trkpt lat="44.43441" lon="3.6719">
        <ele>1561</ele>
        <time>2009-07-10T09:45:20Z</time>
      </trkpt>
      <trkpt lat="44.43481" lon="3.67247">
        <ele>1561</ele>
        <time>2009-07-10T09:45:36Z</time>
      </trkpt>
      <trkpt lat="44.43546" lon="3.67316">
        <ele>1563</ele>
        <time>2009-07-10T09:45:58Z</time>
      </trkpt>
      <trkpt lat="44.43593" lon="3.67368">
        <ele>1563</ele>
        <time>2009-07-10T09:46:13Z</time>
      </trkpt>
      <trkpt lat="44.43617" lon="3.6746">
        <ele>1564</ele>
        <time>2009-07-10T09:46:30Z</time>
      </trkpt>
      <trkpt lat="44.43618" lon="3.67472">
        <ele>1564</ele>
        <time>2009-07-10T09:46:32Z</time>
      </trkpt>
      <trkpt lat="44.43618" lon="3.67496">
        <ele>1564</ele>
        <time>2009-07-10T09:46:36Z</time>
      </trkpt>
      <trkpt lat="44.43619" lon="3.67607">
        <ele>1563</ele>
        <time>2009-07-10T09:46:54Z</time>
      </trkpt>
      <trkpt lat="44.4362" lon="3.67702">
        <ele>1563</ele>
        <time>2009-07-10T09:47:10Z</time>
      </trkpt>
      <trkpt lat="44.43616" lon="3.67809">
        <ele>1563</ele>
        <time>2009-07-10T09:47:29Z</time>
      </trkpt>
      <trkpt lat="44.43582" lon="3.67926">
        <ele>1561</ele>
        <time>2009-07-10T09:47:48Z</time>
      </trkpt>
      <trkpt lat="44.43551" lon="3.68">
        <ele>1558</ele>
        <time>2009-07-10T09:47:58Z</time>
      </trkpt>
      <trkpt lat="44.43524" lon="3.6804">
        <ele>1557</ele>
        <time>2009-07-10T09:48:04Z</time>
      </trkpt>
      <trkpt lat="44.43508" lon="3.68112">
        <ele>1557</ele>
        <time>2009-07-10T09:48:13Z</time>
      </trkpt>
      <trkpt lat="44.4351" lon="3.68119">
        <ele>1556</ele>
        <time>2009-07-10T09:48:14Z</time>
      </trkpt>
      <trkpt lat="44.43536" lon="3.68165">
        <ele>1556</ele>
        <time>2009-07-10T09:48:24Z</time>
      </trkpt>
      <trkpt lat="44.43548" lon="3.68182">
        <ele>1555</ele>
        <time>2009-07-10T09:48:28Z</time>
      </trkpt>
      <trkpt lat="44.43595" lon="3.68245">
        <ele>1556</ele>
        <time>2009-07-10T09:48:44Z</time>
      </trkpt>
      <trkpt lat="44.436" lon="3.68254">
        <ele>1555</ele>
        <time>2009-07-10T09:48:46Z</time>
      </trkpt>
      <trkpt lat="44.43605" lon="3.68265">
        <ele>1555</ele>
        <time>2009-07-10T09:48:48Z</time>
      </trkpt>
      <trkpt lat="44.43623" lon="3.6834">
        <ele>1555</ele>
        <time>2009-07-10T09:49:01Z</time>
      </trkpt>
      <trkpt lat="44.43631" lon="3.68368">
        <ele>1554</ele>
        <time>2009-07-10T09:49:06Z</time>
      </trkpt>
      <trkpt lat="44.4364" lon="3.6843">
        <ele>1553</ele>
        <time>2009-07-10T09:49:16Z</time>
      </trkpt>
      <trkpt lat="44.43639" lon="3.68455">
        <ele>1552</ele>
        <time>2009-07-10T09:49:20Z</time>
      </trkpt>
      <trkpt lat="44.43626" lon="3.6858">
        <ele>1550</ele>
        <time>2009-07-10T09:49:38Z</time>
      </trkpt>
      <trkpt lat="44.43614" lon="3.68711">
        <ele>1549</ele>
        <time>2009-07-10T09:49:55Z</time>
      </trkpt>
      <trkpt lat="44.43622" lon="3.68789">
        <ele>1547</ele>
        <time>2009-07-10T09:50:06Z</time>
      </trkpt>
      <trkpt lat="44.43624" lon="3.68816">
        <ele>1548</ele>
        <time>2009-07-10T09:50:16Z</time>
      </trkpt>
      <trkpt lat="44.43623" lon="3.68819">
        <ele>1546</ele>
        <time>2009-07-10T09:50:30Z</time>
      </trkpt>
      <trkpt lat="44.43623" lon="3.6882">
        <ele>1548</ele>
        <time>2009-07-10T09:56:48Z</time>
      </trkpt>
      <trkpt lat="44.43618" lon="3.68822">
        <ele>1549</ele>
        <time>2009-07-10T09:57:08Z</time>
      </trkpt>
      <trkpt lat="44.43617" lon="3.68821">
        <ele>1549</ele>
        <time>2009-07-10T09:57:24Z</time>
      </trkpt>
      <trkpt lat="44.43617" lon="3.68822">
        <ele>1549</ele>
        <time>2009-07-10T09:57:28Z</time>
      </trkpt>
      <trkpt lat="44.43613" lon="3.68825">
        <ele>1548</ele>
        <time>2009-07-10T09:57:31Z</time>
      </trkpt>
      <trkpt lat="44.43612" lon="3.68827">
        <ele>1548</ele>
        <time>2009-07-10T09:57:32Z</time>
      </trkpt>
      <trkpt lat="44.43594" lon="3.68861">
        <ele>1549</ele>
        <time>2009-07-10T09:57:46Z</time>
      </trkpt>
      <trkpt lat="44.43579" lon="3.68897">
        <ele>1552</ele>
        <time>2009-07-10T09:58:00Z</time>
      </trkpt>
      <trkpt lat="44.43569" lon="3.68922">
        <ele>1552</ele>
        <time>2009-07-10T09:58:20Z</time>
      </trkpt>
      <trkpt lat="44.43555" lon="3.68963">
        <ele>1555</ele>
        <time>2009-07-10T09:58:33Z</time>
      </trkpt>
      <trkpt lat="44.43538" lon="3.69003">
        <ele>1555</ele>
        <time>2009-07-10T09:58:47Z</time>
      </trkpt>
      <trkpt lat="44.43523" lon="3.69035">
        <ele>1557</ele>
        <time>2009-07-10T09:58:58Z</time>
      </trkpt>
      <trkpt lat="44.43509" lon="3.69073">
        <ele>1558</ele>
        <time>2009-07-10T09:59:14Z</time>
      </trkpt>
      <trkpt lat="44.43492" lon="3.69107">
        <ele>1560</ele>
        <time>2009-07-10T09:59:27Z</time>
      </trkpt>
      <trkpt lat="44.43475" lon="3.69145">
        <ele>1562</ele>
        <time>2009-07-10T09:59:40Z</time>
      </trkpt>
      <trkpt lat="44.4344" lon="3.69197">
        <ele>1564</ele>
        <time>2009-07-10T10:00:01Z</time>
      </trkpt>
      <trkpt lat="44.43415" lon="3.69228">
        <ele>1567</ele>
        <time>2009-07-10T10:00:15Z</time>
      </trkpt>
      <trkpt lat="44.43391" lon="3.69253">
        <ele>1569</ele>
        <time>2009-07-10T10:00:30Z</time>
      </trkpt>
      <trkpt lat="44.43368" lon="3.69281">
        <ele>1571</ele>
        <time>2009-07-10T10:00:46Z</time>
      </trkpt>
      <trkpt lat="44.43336" lon="3.69311">
        <ele>1571</ele>
        <time>2009-07-10T10:01:04Z</time>
      </trkpt>
      <trkpt lat="44.43295" lon="3.69337">
        <ele>1572</ele>
        <time>2009-07-10T10:01:21Z</time>
      </trkpt>
      <trkpt lat="44.43254" lon="3.69364">
        <ele>1573</ele>
        <time>2009-07-10T10:01:38Z</time>
      </trkpt>
      <trkpt lat="44.43209" lon="3.69382">
        <ele>1574</ele>
        <time>2009-07-10T10:01:56Z</time>
      </trkpt>
      <trkpt lat="44.43168" lon="3.69398">
        <ele>1575</ele>
        <time>2009-07-10T10:02:11Z</time>
      </trkpt>
      <trkpt lat="44.43111" lon="3.69409">
        <ele>1576</ele>
        <time>2009-07-10T10:02:29Z</time>
      </trkpt>
      <trkpt lat="44.43061" lon="3.69417">
        <ele>1577</ele>
        <time>2009-07-10T10:02:45Z</time>
      </trkpt>
      <trkpt lat="44.43004" lon="3.69438">
        <ele>1579</ele>
        <time>2009-07-10T10:03:03Z</time>
      </trkpt>
      <trkpt lat="44.42971" lon="3.69464">
        <ele>1580</ele>
        <time>2009-07-10T10:03:16Z</time>
      </trkpt>
      <trkpt lat="44.42946" lon="3.69499">
        <ele>1582</ele>
        <time>2009-07-10T10:03:29Z</time>
      </trkpt>
      <trkpt lat="44.42935" lon="3.6951">
        <ele>1583</ele>
        <time>2009-07-10T10:03:35Z</time>
      </trkpt>
      <trkpt lat="44.42924" lon="3.69529">
        <ele>1583</ele>
        <time>2009-07-10T10:03:42Z</time>
      </trkpt>
      <trkpt lat="44.42892" lon="3.69585">
        <ele>1586</ele>
        <time>2009-07-10T10:04:01Z</time>
      </trkpt>
      <trkpt lat="44.42882" lon="3.69607">
        <ele>1587</ele>
        <time>2009-07-10T10:04:08Z</time>
      </trkpt>
      <trkpt lat="44.4285" lon="3.69679">
        <ele>1589</ele>
        <time>2009-07-10T10:04:30Z</time>
      </trkpt>
      <trkpt lat="44.42822" lon="3.69734">
        <ele>1591</ele>
        <time>2009-07-10T10:04:49Z</time>
      </trkpt>
      <trkpt lat="44.42806" lon="3.6977">
        <ele>1594</ele>
        <time>2009-07-10T10:05:01Z</time>
      </trkpt>
      <trkpt lat="44.42778" lon="3.69826">
        <ele>1595</ele>
        <time>2009-07-10T10:05:17Z</time>
      </trkpt>
      <trkpt lat="44.42762" lon="3.69868">
        <ele>1596</ele>
        <time>2009-07-10T10:05:30Z</time>
      </trkpt>
      <trkpt lat="44.42752" lon="3.69914">
        <ele>1597</ele>
        <time>2009-07-10T10:05:43Z</time>
      </trkpt>
      <trkpt lat="44.42744" lon="3.69954">
        <ele>1600</ele>
        <time>2009-07-10T10:05:54Z</time>
      </trkpt>
      <trkpt lat="44.42753" lon="3.70007">
        <ele>1600</ele>
        <time>2009-07-10T10:06:09Z</time>
      </trkpt>
      <trkpt lat="44.42775" lon="3.70068">
        <ele>1603</ele>
        <time>2009-07-10T10:06:27Z</time>
      </trkpt>
      <trkpt lat="44.42793" lon="3.70125">
        <ele>1606</ele>
        <time>2009-07-10T10:06:44Z</time>
      </trkpt>
      <trkpt lat="44.42807" lon="3.70199">
        <ele>1605</ele>
        <time>2009-07-10T10:07:02Z</time>
      </trkpt>
      <trkpt lat="44.42817" lon="3.70275">
        <ele>1606</ele>
        <time>2009-07-10T10:07:20Z</time>
      </trkpt>
      <trkpt lat="44.42824" lon="3.70356">
        <ele>1608</ele>
        <time>2009-07-10T10:07:39Z</time>
      </trkpt>
      <trkpt lat="44.42826" lon="3.70397">
        <ele>1612</ele>
        <time>2009-07-10T10:07:49Z</time>
      </trkpt>
      <trkpt lat="44.42824" lon="3.70487">
        <ele>1614</ele>
        <time>2009-07-10T10:08:10Z</time>
      </trkpt>
      <trkpt lat="44.42804" lon="3.70564">
        <ele>1613</ele>
        <time>2009-07-10T10:08:29Z</time>
      </trkpt>
      <trkpt lat="44.42787" lon="3.70611">
        <ele>1613</ele>
        <time>2009-07-10T10:08:41Z</time>
      </trkpt>
      <trkpt lat="44.4278" lon="3.70632">
        <ele>1613</ele>
        <time>2009-07-10T10:08:46Z</time>
      </trkpt>
      <trkpt lat="44.42768" lon="3.70653">
        <ele>1612</ele>
        <time>2009-07-10T10:08:52Z</time>
      </trkpt>
      <trkpt lat="44.42744" lon="3.70716">
        <ele>1612</ele>
        <time>2009-07-10T10:09:07Z</time>
      </trkpt>
      <trkpt lat="44.42734" lon="3.70772">
        <ele>1612</ele>
        <time>2009-07-10T10:09:19Z</time>
      </trkpt>
      <trkpt lat="44.42751" lon="3.70833">
        <ele>1612</ele>
        <time>2009-07-10T10:09:33Z</time>
      </trkpt>
      <trkpt lat="44.42779" lon="3.70881">
        <ele>1611</ele>
        <time>2009-07-10T10:09:46Z</time>
      </trkpt>
      <trkpt lat="44.42834" lon="3.70953">
        <ele>1610</ele>
        <time>2009-07-10T10:10:07Z</time>
      </trkpt>
      <trkpt lat="44.42883" lon="3.70995">
        <ele>1610</ele>
        <time>2009-07-10T10:10:23Z</time>
      </trkpt>
      <trkpt lat="44.4292" lon="3.71037">
        <ele>1609</ele>
        <time>2009-07-10T10:10:36Z</time>
      </trkpt>
      <trkpt lat="44.42924" lon="3.71041">
        <ele>1609</ele>
        <time>2009-07-10T10:10:37Z</time>
      </trkpt>
      <trkpt lat="44.42948" lon="3.71108">
        <ele>1608</ele>
        <time>2009-07-10T10:10:52Z</time>
      </trkpt>
      <trkpt lat="44.42968" lon="3.71221">
        <ele>1610</ele>
        <time>2009-07-10T10:11:16Z</time>
      </trkpt>
      <trkpt lat="44.42962" lon="3.71297">
        <ele>1612</ele>
        <time>2009-07-10T10:11:31Z</time>
      </trkpt>
      <trkpt lat="44.42936" lon="3.71379">
        <ele>1612</ele>
        <time>2009-07-10T10:11:49Z</time>
      </trkpt>
      <trkpt lat="44.42908" lon="3.71425">
        <ele>1613</ele>
        <time>2009-07-10T10:12:01Z</time>
      </trkpt>
      <trkpt lat="44.42874" lon="3.71482">
        <ele>1617</ele>
        <time>2009-07-10T10:12:17Z</time>
      </trkpt>
      <trkpt lat="44.42846" lon="3.7153">
        <ele>1620</ele>
        <time>2009-07-10T10:12:32Z</time>
      </trkpt>
      <trkpt lat="44.42816" lon="3.71577">
        <ele>1621</ele>
        <time>2009-07-10T10:12:47Z</time>
      </trkpt>
      <trkpt lat="44.42784" lon="3.71632">
        <ele>1622</ele>
        <time>2009-07-10T10:13:03Z</time>
      </trkpt>
      <trkpt lat="44.42753" lon="3.71682">
        <ele>1623</ele>
        <time>2009-07-10T10:13:18Z</time>
      </trkpt>
      <trkpt lat="44.42725" lon="3.71738">
        <ele>1623</ele>
        <time>2009-07-10T10:13:33Z</time>
      </trkpt>
      <trkpt lat="44.4269" lon="3.71809">
        <ele>1625</ele>
        <time>2009-07-10T10:13:52Z</time>
      </trkpt>
      <trkpt lat="44.42663" lon="3.71865">
        <ele>1627</ele>
        <time>2009-07-10T10:14:08Z</time>
      </trkpt>
      <trkpt lat="44.42635" lon="3.71925">
        <ele>1628</ele>
        <time>2009-07-10T10:14:25Z</time>
      </trkpt>
      <trkpt lat="44.42613" lon="3.71973">
        <ele>1631</ele>
        <time>2009-07-10T10:14:39Z</time>
      </trkpt>
      <trkpt lat="44.42592" lon="3.72019">
        <ele>1632</ele>
        <time>2009-07-10T10:14:53Z</time>
      </trkpt>
      <trkpt lat="44.42568" lon="3.72078">
        <ele>1635</ele>
        <time>2009-07-10T10:15:09Z</time>
      </trkpt>
      <trkpt lat="44.42547" lon="3.72138">
        <ele>1637</ele>
        <time>2009-07-10T10:15:25Z</time>
      </trkpt>
      <trkpt lat="44.42536" lon="3.72184">
        <ele>1638</ele>
        <time>2009-07-10T10:15:39Z</time>
      </trkpt>
      <trkpt lat="44.42535" lon="3.72186">
        <ele>1639</ele>
        <time>2009-07-10T10:15:52Z</time>
      </trkpt>
      <trkpt lat="44.42534" lon="3.72196">
        <ele>1639</ele>
        <time>2009-07-10T10:16:13Z</time>
      </trkpt>
      <trkpt lat="44.42534" lon="3.72195">
        <ele>1641</ele>
        <time>2009-07-10T10:16:25Z</time>
      </trkpt>
      <trkpt lat="44.42534" lon="3.72195">
        <ele>1637</ele>
        <time>2009-07-10T10:16:26Z</time>
      </trkpt>
      <trkpt lat="44.42534" lon="3.72195">
        <ele>1642</ele>
        <time>2009-07-10T10:16:30Z</time>
      </trkpt>
      <trkpt lat="44.42534" lon="3.72195">
        <ele>1638</ele>
        <time>2009-07-10T10:16:31Z</time>
      </trkpt>
      <trkpt lat="44.42534" lon="3.72195">
        <ele>1642</ele>
        <time>2009-07-10T10:16:45Z</time>
      </trkpt>
      <trkpt lat="44.42534" lon="3.72195">
        <ele>1638</ele>
        <time>2009-07-10T10:16:46Z</time>
      </trkpt>
      <trkpt lat="44.42534" lon="3.72195">
        <ele>1642</ele>
        <time>2009-07-10T10:16:48Z</time>
      </trkpt>
      <trkpt lat="44.42534" lon="3.72195">
        <ele>1640</ele>
        <time>2009-07-10T10:16:49Z</time>
      </trkpt>
      <trkpt lat="44.42532" lon="3.72202">
        <ele>1640</ele>
        <time>2009-07-10T10:17:37Z</time>
      </trkpt>
      <trkpt lat="44.42531" lon="3.72207">
        <ele>1640</ele>
        <time>2009-07-10T10:17:54Z</time>
      </trkpt>
      <trkpt lat="44.42527" lon="3.72232">
        <ele>1641</ele>
        <time>2009-07-10T10:18:09Z</time>
      </trkpt>
      <trkpt lat="44.42516" lon="3.72283">
        <ele>1642</ele>
        <time>2009-07-10T10:18:25Z</time>
      </trkpt>
      <trkpt lat="44.42516" lon="3.72324">
        <ele>1644</ele>
        <time>2009-07-10T10:18:37Z</time>
      </trkpt>
      <trkpt lat="44.42525" lon="3.72361">
        <ele>1645</ele>
        <time>2009-07-10T10:18:48Z</time>
      </trkpt>
      <trkpt lat="44.42544" lon="3.72411">
        <ele>1646</ele>
        <time>2009-07-10T10:19:03Z</time>
      </trkpt>
      <trkpt lat="44.42564" lon="3.72455">
        <ele>1648</ele>
        <time>2009-07-10T10:19:17Z</time>
      </trkpt>
      <trkpt lat="44.42587" lon="3.72507">
        <ele>1650</ele>
        <time>2009-07-10T10:19:33Z</time>
      </trkpt>
      <trkpt lat="44.42619" lon="3.72581">
        <ele>1651</ele>
        <time>2009-07-10T10:19:53Z</time>
      </trkpt>
      <trkpt lat="44.42646" lon="3.72652">
        <ele>1652</ele>
        <time>2009-07-10T10:20:11Z</time>
      </trkpt>
      <trkpt lat="44.4267" lon="3.72729">
        <ele>1654</ele>
        <time>2009-07-10T10:20:29Z</time>
      </trkpt>
      <trkpt lat="44.42671" lon="3.72742">
        <ele>1655</ele>
        <time>2009-07-10T10:20:32Z</time>
      </trkpt>
      <trkpt lat="44.42673" lon="3.72818">
        <ele>1656</ele>
        <time>2009-07-10T10:20:50Z</time>
      </trkpt>
      <trkpt lat="44.42665" lon="3.72882">
        <ele>1656</ele>
        <time>2009-07-10T10:21:05Z</time>
      </trkpt>
      <trkpt lat="44.42648" lon="3.72946">
        <ele>1657</ele>
        <time>2009-07-10T10:21:22Z</time>
      </trkpt>
      <trkpt lat="44.4262" lon="3.7301">
        <ele>1658</ele>
        <time>2009-07-10T10:21:39Z</time>
      </trkpt>
      <trkpt lat="44.42583" lon="3.73072">
        <ele>1662</ele>
        <time>2009-07-10T10:21:57Z</time>
      </trkpt>
      <trkpt lat="44.42529" lon="3.73145">
        <ele>1662</ele>
        <time>2009-07-10T10:22:18Z</time>
      </trkpt>
      <trkpt lat="44.42477" lon="3.73203">
        <ele>1663</ele>
        <time>2009-07-10T10:22:36Z</time>
      </trkpt>
      <trkpt lat="44.42435" lon="3.7328">
        <ele>1663</ele>
        <time>2009-07-10T10:22:54Z</time>
      </trkpt>
      <trkpt lat="44.42397" lon="3.73346">
        <ele>1664</ele>
        <time>2009-07-10T10:23:10Z</time>
      </trkpt>
      <trkpt lat="44.42355" lon="3.73403">
        <ele>1666</ele>
        <time>2009-07-10T10:23:27Z</time>
      </trkpt>
      <trkpt lat="44.42337" lon="3.73431">
        <ele>1670</ele>
        <time>2009-07-10T10:23:36Z</time>
      </trkpt>
      <trkpt lat="44.42334" lon="3.73438">
        <ele>1670</ele>
        <time>2009-07-10T10:23:38Z</time>
      </trkpt>
      <trkpt lat="44.42311" lon="3.73468">
        <ele>1673</ele>
        <time>2009-07-10T10:23:49Z</time>
      </trkpt>
      <trkpt lat="44.42279" lon="3.73506">
        <ele>1676</ele>
        <time>2009-07-10T10:24:04Z</time>
      </trkpt>
      <trkpt lat="44.42244" lon="3.7355">
        <ele>1677</ele>
        <time>2009-07-10T10:24:20Z</time>
      </trkpt>
      <trkpt lat="44.4223" lon="3.73595">
        <ele>1677</ele>
        <time>2009-07-10T10:24:32Z</time>
      </trkpt>
      <trkpt lat="44.42234" lon="3.73647">
        <ele>1676</ele>
        <time>2009-07-10T10:24:43Z</time>
      </trkpt>
      <trkpt lat="44.42238" lon="3.73687">
        <ele>1674</ele>
        <time>2009-07-10T10:24:49Z</time>
      </trkpt>
      <trkpt lat="44.42242" lon="3.73709">
        <ele>1672</ele>
        <time>2009-07-10T10:24:52Z</time>
      </trkpt>
      <trkpt lat="44.4226" lon="3.73797">
        <ele>1671</ele>
        <time>2009-07-10T10:25:07Z</time>
      </trkpt>
      <trkpt lat="44.42265" lon="3.73843">
        <ele>1668</ele>
        <time>2009-07-10T10:25:16Z</time>
      </trkpt>
      <trkpt lat="44.42269" lon="3.73896">
        <ele>1669</ele>
        <time>2009-07-10T10:25:31Z</time>
      </trkpt>
      <trkpt lat="44.42269" lon="3.73895">
        <ele>1672</ele>
        <time>2009-07-10T10:25:45Z</time>
      </trkpt>
      <trkpt lat="44.42269" lon="3.73895">
        <ele>1669</ele>
        <time>2009-07-10T10:25:56Z</time>
      </trkpt>
      <trkpt lat="44.4227" lon="3.73895">
        <ele>1670</ele>
        <time>2009-07-10T10:26:33Z</time>
      </trkpt>
      <trkpt lat="44.4227" lon="3.73895">
        <ele>1669</ele>
        <time>2009-07-10T10:26:57Z</time>
      </trkpt>
      <trkpt lat="44.4227" lon="3.73895">
        <ele>1671</ele>
        <time>2009-07-10T10:27:42Z</time>
      </trkpt>
      <trkpt lat="44.42271" lon="3.73895">
        <ele>1670</ele>
        <time>2009-07-10T10:27:58Z</time>
      </trkpt>
      <trkpt lat="44.42271" lon="3.73894">
        <ele>1669</ele>
        <time>2009-07-10T10:28:02Z</time>
      </trkpt>
      <trkpt lat="44.42276" lon="3.73893">
        <ele>1670</ele>
        <time>2009-07-10T10:28:05Z</time>
      </trkpt>
      <trkpt lat="44.42289" lon="3.73889">
        <ele>1671</ele>
        <time>2009-07-10T10:28:12Z</time>
      </trkpt>
      <trkpt lat="44.42296" lon="3.73886">
        <ele>1672</ele>
        <time>2009-07-10T10:28:16Z</time>
      </trkpt>
      <trkpt lat="44.42319" lon="3.73883">
        <ele>1676</ele>
        <time>2009-07-10T10:28:31Z</time>
      </trkpt>
      <trkpt lat="44.42325" lon="3.73884">
        <ele>1677</ele>
        <time>2009-07-10T10:28:35Z</time>
      </trkpt>
      <trkpt lat="44.42335" lon="3.73883">
        <ele>1679</ele>
        <time>2009-07-10T10:28:42Z</time>
      </trkpt>
      <trkpt lat="44.4235" lon="3.7388">
        <ele>1681</ele>
        <time>2009-07-10T10:28:52Z</time>
      </trkpt>
      <trkpt lat="44.4236" lon="3.73879">
        <ele>1683</ele>
        <time>2009-07-10T10:28:59Z</time>
      </trkpt>
      <trkpt lat="44.42383" lon="3.73878">
        <ele>1686</ele>
        <time>2009-07-10T10:29:15Z</time>
      </trkpt>
      <trkpt lat="44.42407" lon="3.73878">
        <ele>1689</ele>
        <time>2009-07-10T10:29:31Z</time>
      </trkpt>
      <trkpt lat="44.4242" lon="3.73877">
        <ele>1692</ele>
        <time>2009-07-10T10:29:40Z</time>
      </trkpt>
      <trkpt lat="44.4245" lon="3.73879">
        <ele>1696</ele>
        <time>2009-07-10T10:30:00Z</time>
      </trkpt>
      <trkpt lat="44.4247" lon="3.73881">
        <ele>1694</ele>
        <time>2009-07-10T10:30:12Z</time>
      </trkpt>
      <trkpt lat="44.42483" lon="3.73885">
        <ele>1698</ele>
        <time>2009-07-10T10:30:20Z</time>
      </trkpt>
      <trkpt lat="44.42491" lon="3.73887">
        <ele>1699</ele>
        <time>2009-07-10T10:30:25Z</time>
      </trkpt>
      <trkpt lat="44.42521" lon="3.73896">
        <ele>1702</ele>
        <time>2009-07-10T10:30:42Z</time>
      </trkpt>
      <trkpt lat="44.42527" lon="3.73897">
        <ele>1700</ele>
        <time>2009-07-10T10:30:45Z</time>
      </trkpt>
      <trkpt lat="44.4253" lon="3.73898">
        <ele>1702</ele>
        <time>2009-07-10T10:30:47Z</time>
      </trkpt>
      <trkpt lat="44.42535" lon="3.739">
        <ele>1704</ele>
        <time>2009-07-10T10:30:50Z</time>
      </trkpt>
      <trkpt lat="44.42568" lon="3.73909">
        <ele>1703</ele>
        <time>2009-07-10T10:31:07Z</time>
      </trkpt>
      <trkpt lat="44.426" lon="3.73918">
        <ele>1705</ele>
        <time>2009-07-10T10:31:21Z</time>
      </trkpt>
      <trkpt lat="44.42602" lon="3.73918">
        <ele>1706</ele>
        <time>2009-07-10T10:31:31Z</time>
      </trkpt>
      <trkpt lat="44.42603" lon="3.73921">
        <ele>1708</ele>
        <time>2009-07-10T10:33:01Z</time>
      </trkpt>
      <trkpt lat="44.42601" lon="3.73925">
        <ele>1706</ele>
        <time>2009-07-10T10:33:13Z</time>
      </trkpt>
      <trkpt lat="44.42585" lon="3.73957">
        <ele>1706</ele>
        <time>2009-07-10T10:33:25Z</time>
      </trkpt>
      <trkpt lat="44.42554" lon="3.74011">
        <ele>1705</ele>
        <time>2009-07-10T10:33:39Z</time>
      </trkpt>
      <trkpt lat="44.42547" lon="3.74046">
        <ele>1702</ele>
        <time>2009-07-10T10:33:48Z</time>
      </trkpt>
      <trkpt lat="44.4254" lon="3.74083">
        <ele>1699</ele>
        <time>2009-07-10T10:33:55Z</time>
      </trkpt>
      <trkpt lat="44.42537" lon="3.74097">
        <ele>1698</ele>
        <time>2009-07-10T10:33:57Z</time>
      </trkpt>
      <trkpt lat="44.42532" lon="3.74121">
        <ele>1694</ele>
        <time>2009-07-10T10:34:00Z</time>
      </trkpt>
      <trkpt lat="44.42528" lon="3.7414">
        <ele>1692</ele>
        <time>2009-07-10T10:34:02Z</time>
      </trkpt>
      <trkpt lat="44.42525" lon="3.7415">
        <ele>1691</ele>
        <time>2009-07-10T10:34:03Z</time>
      </trkpt>
      <trkpt lat="44.42518" lon="3.74183">
        <ele>1688</ele>
        <time>2009-07-10T10:34:06Z</time>
      </trkpt>
      <trkpt lat="44.42512" lon="3.74218">
        <ele>1683</ele>
        <time>2009-07-10T10:34:09Z</time>
      </trkpt>
      <trkpt lat="44.42507" lon="3.74255">
        <ele>1678</ele>
        <time>2009-07-10T10:34:12Z</time>
      </trkpt>
      <trkpt lat="44.42503" lon="3.74283">
        <ele>1674</ele>
        <time>2009-07-10T10:34:14Z</time>
      </trkpt>
      <trkpt lat="44.42501" lon="3.74314">
        <ele>1670</ele>
        <time>2009-07-10T10:34:16Z</time>
      </trkpt>
      <trkpt lat="44.42499" lon="3.74345">
        <ele>1669</ele>
        <time>2009-07-10T10:34:18Z</time>
      </trkpt>
      <trkpt lat="44.42495" lon="3.74382">
        <ele>1670</ele>
        <time>2009-07-10T10:34:21Z</time>
      </trkpt>
      <trkpt lat="44.42489" lon="3.74408">
        <ele>1668</ele>
        <time>2009-07-10T10:34:26Z</time>
      </trkpt>
      <trkpt lat="44.42489" lon="3.7441">
        <ele>1667</ele>
        <time>2009-07-10T10:34:28Z</time>
      </trkpt>
      <trkpt lat="44.4249" lon="3.74411">
        <ele>1667</ele>
        <time>2009-07-10T10:34:44Z</time>
      </trkpt>
      <trkpt lat="44.42493" lon="3.74423">
        <ele>1667</ele>
        <time>2009-07-10T10:35:20Z</time>
      </trkpt>
      <trkpt lat="44.42489" lon="3.74465">
        <ele>1667</ele>
        <time>2009-07-10T10:35:28Z</time>
      </trkpt>
      <trkpt lat="44.42476" lon="3.74511">
        <ele>1664</ele>
        <time>2009-07-10T10:35:35Z</time>
      </trkpt>
      <trkpt lat="44.42467" lon="3.74545">
        <ele>1662</ele>
        <time>2009-07-10T10:35:39Z</time>
      </trkpt>
      <trkpt lat="44.42439" lon="3.74662">
        <ele>1660</ele>
        <time>2009-07-10T10:35:53Z</time>
      </trkpt>
      <trkpt lat="44.42428" lon="3.74702">
        <ele>1659</ele>
        <time>2009-07-10T10:35:58Z</time>
      </trkpt>
      <trkpt lat="44.42414" lon="3.74803">
        <ele>1653</ele>
        <time>2009-07-10T10:36:09Z</time>
      </trkpt>
      <trkpt lat="44.42413" lon="3.74813">
        <ele>1653</ele>
        <time>2009-07-10T10:36:10Z</time>
      </trkpt>
      <trkpt lat="44.42412" lon="3.74835">
        <ele>1653</ele>
        <time>2009-07-10T10:36:12Z</time>
      </trkpt>
      <trkpt lat="44.42414" lon="3.74857">
        <ele>1651</ele>
        <time>2009-07-10T10:36:14Z</time>
      </trkpt>
      <trkpt lat="44.42421" lon="3.74899">
        <ele>1649</ele>
        <time>2009-07-10T10:36:18Z</time>
      </trkpt>
      <trkpt lat="44.4245" lon="3.74989">
        <ele>1646</ele>
        <time>2009-07-10T10:36:27Z</time>
      </trkpt>
      <trkpt lat="44.42474" lon="3.7505">
        <ele>1642</ele>
        <time>2009-07-10T10:36:33Z</time>
      </trkpt>
      <trkpt lat="44.42485" lon="3.75078">
        <ele>1642</ele>
        <time>2009-07-10T10:36:36Z</time>
      </trkpt>
      <trkpt lat="44.42498" lon="3.75131">
        <ele>1641</ele>
        <time>2009-07-10T10:36:42Z</time>
      </trkpt>
      <trkpt lat="44.42497" lon="3.75153">
        <ele>1644</ele>
        <time>2009-07-10T10:36:47Z</time>
      </trkpt>
      <trkpt lat="44.42496" lon="3.75152">
        <ele>1643</ele>
        <time>2009-07-10T10:37:05Z</time>
      </trkpt>
      <trkpt lat="44.42496" lon="3.7515">
        <ele>1642</ele>
        <time>2009-07-10T10:37:50Z</time>
      </trkpt>
      <trkpt lat="44.42492" lon="3.75152">
        <ele>1643</ele>
        <time>2009-07-10T10:39:30Z</time>
      </trkpt>
      <trkpt lat="44.42479" lon="3.75151">
        <ele>1642</ele>
        <time>2009-07-10T10:39:35Z</time>
      </trkpt>
      <trkpt lat="44.4246" lon="3.75153">
        <ele>1640</ele>
        <time>2009-07-10T10:39:41Z</time>
      </trkpt>
      <trkpt lat="44.4244" lon="3.75156">
        <ele>1637</ele>
        <time>2009-07-10T10:39:46Z</time>
      </trkpt>
      <trkpt lat="44.4242" lon="3.75152">
        <ele>1631</ele>
        <time>2009-07-10T10:39:50Z</time>
      </trkpt>
      <trkpt lat="44.42394" lon="3.75144">
        <ele>1627</ele>
        <time>2009-07-10T10:39:54Z</time>
      </trkpt>
      <trkpt lat="44.42371" lon="3.75142">
        <ele>1622</ele>
        <time>2009-07-10T10:39:58Z</time>
      </trkpt>
      <trkpt lat="44.42367" lon="3.75141">
        <ele>1622</ele>
        <time>2009-07-10T10:39:59Z</time>
      </trkpt>
      <trkpt lat="44.42345" lon="3.7514">
        <ele>1620</ele>
        <time>2009-07-10T10:40:05Z</time>
      </trkpt>
      <trkpt lat="44.42328" lon="3.75142">
        <ele>1617</ele>
        <time>2009-07-10T10:40:12Z</time>
      </trkpt>
      <trkpt lat="44.42325" lon="3.75141">
        <ele>1617</ele>
        <time>2009-07-10T10:40:13Z</time>
      </trkpt>
      <trkpt lat="44.42315" lon="3.75139">
        <ele>1614</ele>
        <time>2009-07-10T10:40:18Z</time>
      </trkpt>
      <trkpt lat="44.42306" lon="3.75134">
        <ele>1613</ele>
        <time>2009-07-10T10:40:26Z</time>
      </trkpt>
      <trkpt lat="44.423" lon="3.7513">
        <ele>1610</ele>
        <time>2009-07-10T10:40:31Z</time>
      </trkpt>
      <trkpt lat="44.42296" lon="3.75131">
        <ele>1610</ele>
        <time>2009-07-10T10:40:33Z</time>
      </trkpt>
      <trkpt lat="44.42284" lon="3.75127">
        <ele>1609</ele>
        <time>2009-07-10T10:40:38Z</time>
      </trkpt>
      <trkpt lat="44.42275" lon="3.75114">
        <ele>1605</ele>
        <time>2009-07-10T10:40:44Z</time>
      </trkpt>
      <trkpt lat="44.4226" lon="3.7511">
        <ele>1603</ele>
        <time>2009-07-10T10:40:50Z</time>
      </trkpt>
      <trkpt lat="44.42253" lon="3.75106">
        <ele>1601</ele>
        <time>2009-07-10T10:40:52Z</time>
      </trkpt>
      <trkpt lat="44.42223" lon="3.75099">
        <ele>1597</ele>
        <time>2009-07-10T10:40:59Z</time>
      </trkpt>
      <trkpt lat="44.42219" lon="3.75099">
        <ele>1597</ele>
        <time>2009-07-10T10:41:00Z</time>
      </trkpt>
      <trkpt lat="44.42201" lon="3.75093">
        <ele>1590</ele>
        <time>2009-07-10T10:41:06Z</time>
      </trkpt>
      <trkpt lat="44.42197" lon="3.75093">
        <ele>1590</ele>
        <time>2009-07-10T10:41:07Z</time>
      </trkpt>
      <trkpt lat="44.42176" lon="3.75088">
        <ele>1586</ele>
        <time>2009-07-10T10:41:13Z</time>
      </trkpt>
      <trkpt lat="44.42173" lon="3.75087">
        <ele>1586</ele>
        <time>2009-07-10T10:41:14Z</time>
      </trkpt>
      <trkpt lat="44.42159" lon="3.75088">
        <ele>1584</ele>
        <time>2009-07-10T10:41:19Z</time>
      </trkpt>
      <trkpt lat="44.42141" lon="3.75088">
        <ele>1581</ele>
        <time>2009-07-10T10:41:25Z</time>
      </trkpt>
      <trkpt lat="44.42139" lon="3.75087">
        <ele>1580</ele>
        <time>2009-07-10T10:41:26Z</time>
      </trkpt>
      <trkpt lat="44.42133" lon="3.75084">
        <ele>1578</ele>
        <time>2009-07-10T10:41:31Z</time>
      </trkpt>
      <trkpt lat="44.42129" lon="3.75084">
        <ele>1577</ele>
        <time>2009-07-10T10:41:42Z</time>
      </trkpt>
      <trkpt lat="44.42124" lon="3.75084">
        <ele>1575</ele>
        <time>2009-07-10T10:41:55Z</time>
      </trkpt>
      <trkpt lat="44.4212" lon="3.75078">
        <ele>1574</ele>
        <time>2009-07-10T10:42:06Z</time>
      </trkpt>
      <trkpt lat="44.4212" lon="3.75079">
        <ele>1574</ele>
        <time>2009-07-10T10:42:29Z</time>
      </trkpt>
      <trkpt lat="44.4212" lon="3.75077">
        <ele>1573</ele>
        <time>2009-07-10T10:42:37Z</time>
      </trkpt>
      <trkpt lat="44.42118" lon="3.75068">
        <ele>1572</ele>
        <time>2009-07-10T10:42:41Z</time>
      </trkpt>
      <trkpt lat="44.42116" lon="3.75059">
        <ele>1569</ele>
        <time>2009-07-10T10:42:44Z</time>
      </trkpt>
      <trkpt lat="44.42101" lon="3.75052">
        <ele>1566</ele>
        <time>2009-07-10T10:42:49Z</time>
      </trkpt>
      <trkpt lat="44.42081" lon="3.75056">
        <ele>1562</ele>
        <time>2009-07-10T10:42:55Z</time>
      </trkpt>
      <trkpt lat="44.42069" lon="3.7506">
        <ele>1560</ele>
        <time>2009-07-10T10:42:58Z</time>
      </trkpt>
      <trkpt lat="44.42062" lon="3.75061">
        <ele>1557</ele>
        <time>2009-07-10T10:43:00Z</time>
      </trkpt>
      <trkpt lat="44.42052" lon="3.75064">
        <ele>1556</ele>
        <time>2009-07-10T10:43:02Z</time>
      </trkpt>
      <trkpt lat="44.42044" lon="3.75065">
        <ele>1555</ele>
        <time>2009-07-10T10:43:04Z</time>
      </trkpt>
      <trkpt lat="44.42034" lon="3.75073">
        <ele>1555</ele>
        <time>2009-07-10T10:43:08Z</time>
      </trkpt>
      <trkpt lat="44.42028" lon="3.75061">
        <ele>1550</ele>
        <time>2009-07-10T10:43:13Z</time>
      </trkpt>
      <trkpt lat="44.4203" lon="3.75054">
        <ele>1548</ele>
        <time>2009-07-10T10:43:14Z</time>
      </trkpt>
      <trkpt lat="44.42036" lon="3.75042">
        <ele>1547</ele>
        <time>2009-07-10T10:43:16Z</time>
      </trkpt>
      <trkpt lat="44.42043" lon="3.75026">
        <ele>1545</ele>
        <time>2009-07-10T10:43:20Z</time>
      </trkpt>
      <trkpt lat="44.42033" lon="3.75022">
        <ele>1543</ele>
        <time>2009-07-10T10:43:25Z</time>
      </trkpt>
      <trkpt lat="44.4201" lon="3.75031">
        <ele>1539</ele>
        <time>2009-07-10T10:43:30Z</time>
      </trkpt>
      <trkpt lat="44.41999" lon="3.75037">
        <ele>1537</ele>
        <time>2009-07-10T10:43:33Z</time>
      </trkpt>
      <trkpt lat="44.42" lon="3.75025">
        <ele>1535</ele>
        <time>2009-07-10T10:43:38Z</time>
      </trkpt>
      <trkpt lat="44.42003" lon="3.75015">
        <ele>1532</ele>
        <time>2009-07-10T10:43:42Z</time>
      </trkpt>
      <trkpt lat="44.41998" lon="3.7501">
        <ele>1531</ele>
        <time>2009-07-10T10:43:46Z</time>
      </trkpt>
      <trkpt lat="44.41982" lon="3.75017">
        <ele>1527</ele>
        <time>2009-07-10T10:43:52Z</time>
      </trkpt>
      <trkpt lat="44.41974" lon="3.75022">
        <ele>1526</ele>
        <time>2009-07-10T10:43:54Z</time>
      </trkpt>
      <trkpt lat="44.41968" lon="3.75026">
        <ele>1525</ele>
        <time>2009-07-10T10:43:56Z</time>
      </trkpt>
      <trkpt lat="44.41956" lon="3.7503">
        <ele>1523</ele>
        <time>2009-07-10T10:44:00Z</time>
      </trkpt>
      <trkpt lat="44.41937" lon="3.75043">
        <ele>1519</ele>
        <time>2009-07-10T10:44:06Z</time>
      </trkpt>
      <trkpt lat="44.41934" lon="3.75045">
        <ele>1519</ele>
        <time>2009-07-10T10:44:07Z</time>
      </trkpt>
      <trkpt lat="44.41929" lon="3.75047">
        <ele>1518</ele>
        <time>2009-07-10T10:44:09Z</time>
      </trkpt>
      <trkpt lat="44.41929" lon="3.75039">
        <ele>1515</ele>
        <time>2009-07-10T10:44:14Z</time>
      </trkpt>
      <trkpt lat="44.4193" lon="3.75035">
        <ele>1513</ele>
        <time>2009-07-10T10:44:17Z</time>
      </trkpt>
      <trkpt lat="44.41921" lon="3.75036">
        <ele>1511</ele>
        <time>2009-07-10T10:44:22Z</time>
      </trkpt>
      <trkpt lat="44.41916" lon="3.75031">
        <ele>1510</ele>
        <time>2009-07-10T10:44:29Z</time>
      </trkpt>
      <trkpt lat="44.41918" lon="3.75014">
        <ele>1507</ele>
        <time>2009-07-10T10:44:36Z</time>
      </trkpt>
      <trkpt lat="44.41906" lon="3.75017">
        <ele>1504</ele>
        <time>2009-07-10T10:44:41Z</time>
      </trkpt>
      <trkpt lat="44.41904" lon="3.75016">
        <ele>1503</ele>
        <time>2009-07-10T10:44:43Z</time>
      </trkpt>
      <trkpt lat="44.4191" lon="3.75002">
        <ele>1500</ele>
        <time>2009-07-10T10:44:47Z</time>
      </trkpt>
      <trkpt lat="44.41923" lon="3.74974">
        <ele>1495</ele>
        <time>2009-07-10T10:44:53Z</time>
      </trkpt>
      <trkpt lat="44.41922" lon="3.74967">
        <ele>1496</ele>
        <time>2009-07-10T10:44:55Z</time>
      </trkpt>
      <trkpt lat="44.41913" lon="3.7497">
        <ele>1494</ele>
        <time>2009-07-10T10:44:59Z</time>
      </trkpt>
      <trkpt lat="44.41902" lon="3.74976">
        <ele>1491</ele>
        <time>2009-07-10T10:45:03Z</time>
      </trkpt>
      <trkpt lat="44.41905" lon="3.74965">
        <ele>1490</ele>
        <time>2009-07-10T10:45:06Z</time>
      </trkpt>
      <trkpt lat="44.41902" lon="3.74935">
        <ele>1488</ele>
        <time>2009-07-10T10:45:15Z</time>
      </trkpt>
      <trkpt lat="44.41891" lon="3.74944">
        <ele>1488</ele>
        <time>2009-07-10T10:46:23Z</time>
      </trkpt>
      <trkpt lat="44.41883" lon="3.74945">
        <ele>1487</ele>
        <time>2009-07-10T10:46:29Z</time>
      </trkpt>
      <trkpt lat="44.41875" lon="3.74946">
        <ele>1484</ele>
        <time>2009-07-10T10:46:33Z</time>
      </trkpt>
      <trkpt lat="44.41867" lon="3.74945">
        <ele>1481</ele>
        <time>2009-07-10T10:46:36Z</time>
      </trkpt>
      <trkpt lat="44.41863" lon="3.74943">
        <ele>1479</ele>
        <time>2009-07-10T10:46:37Z</time>
      </trkpt>
      <trkpt lat="44.41848" lon="3.74944">
        <ele>1477</ele>
        <time>2009-07-10T10:46:41Z</time>
      </trkpt>
      <trkpt lat="44.41837" lon="3.7495">
        <ele>1476</ele>
        <time>2009-07-10T10:46:45Z</time>
      </trkpt>
      <trkpt lat="44.41822" lon="3.74964">
        <ele>1472</ele>
        <time>2009-07-10T10:46:50Z</time>
      </trkpt>
      <trkpt lat="44.41815" lon="3.74966">
        <ele>1472</ele>
        <time>2009-07-10T10:46:51Z</time>
      </trkpt>
      <trkpt lat="44.41789" lon="3.74986">
        <ele>1469</ele>
        <time>2009-07-10T10:46:58Z</time>
      </trkpt>
      <trkpt lat="44.41776" lon="3.74988">
        <ele>1465</ele>
        <time>2009-07-10T10:47:02Z</time>
      </trkpt>
      <trkpt lat="44.41763" lon="3.74993">
        <ele>1462</ele>
        <time>2009-07-10T10:47:06Z</time>
      </trkpt>
      <trkpt lat="44.4176" lon="3.74995">
        <ele>1462</ele>
        <time>2009-07-10T10:47:07Z</time>
      </trkpt>
      <trkpt lat="44.41753" lon="3.74998">
        <ele>1461</ele>
        <time>2009-07-10T10:47:09Z</time>
      </trkpt>
      <trkpt lat="44.41745" lon="3.74986">
        <ele>1458</ele>
        <time>2009-07-10T10:47:14Z</time>
      </trkpt>
      <trkpt lat="44.41743" lon="3.74967">
        <ele>1455</ele>
        <time>2009-07-10T10:47:18Z</time>
      </trkpt>
      <trkpt lat="44.41726" lon="3.74969">
        <ele>1454</ele>
        <time>2009-07-10T10:47:26Z</time>
      </trkpt>
      <trkpt lat="44.41698" lon="3.74987">
        <ele>1454</ele>
        <time>2009-07-10T10:47:38Z</time>
      </trkpt>
      <trkpt lat="44.4168" lon="3.74987">
        <ele>1451</ele>
        <time>2009-07-10T10:47:45Z</time>
      </trkpt>
      <trkpt lat="44.41671" lon="3.74985">
        <ele>1448</ele>
        <time>2009-07-10T10:47:48Z</time>
      </trkpt>
      <trkpt lat="44.41651" lon="3.74993">
        <ele>1445</ele>
        <time>2009-07-10T10:47:54Z</time>
      </trkpt>
      <trkpt lat="44.41634" lon="3.74996">
        <ele>1442</ele>
        <time>2009-07-10T10:47:59Z</time>
      </trkpt>
      <trkpt lat="44.41631" lon="3.74995">
        <ele>1442</ele>
        <time>2009-07-10T10:48:00Z</time>
      </trkpt>
      <trkpt lat="44.41623" lon="3.74994">
        <ele>1440</ele>
        <time>2009-07-10T10:48:02Z</time>
      </trkpt>
      <trkpt lat="44.416" lon="3.74998">
        <ele>1437</ele>
        <time>2009-07-10T10:48:08Z</time>
      </trkpt>
      <trkpt lat="44.41592" lon="3.75">
        <ele>1436</ele>
        <time>2009-07-10T10:48:11Z</time>
      </trkpt>
      <trkpt lat="44.41582" lon="3.75002">
        <ele>1432</ele>
        <time>2009-07-10T10:48:14Z</time>
      </trkpt>
      <trkpt lat="44.41578" lon="3.75002">
        <ele>1432</ele>
        <time>2009-07-10T10:48:15Z</time>
      </trkpt>
      <trkpt lat="44.41573" lon="3.74998">
        <ele>1431</ele>
        <time>2009-07-10T10:48:17Z</time>
      </trkpt>
      <trkpt lat="44.4157" lon="3.74996">
        <ele>1430</ele>
        <time>2009-07-10T10:48:18Z</time>
      </trkpt>
      <trkpt lat="44.41556" lon="3.74991">
        <ele>1429</ele>
        <time>2009-07-10T10:48:24Z</time>
      </trkpt>
      <trkpt lat="44.41549" lon="3.74994">
        <ele>1428</ele>
        <time>2009-07-10T10:48:39Z</time>
      </trkpt>
      <trkpt lat="44.41542" lon="3.74994">
        <ele>1427</ele>
        <time>2009-07-10T10:48:56Z</time>
      </trkpt>
      <trkpt lat="44.41541" lon="3.74994">
        <ele>1426</ele>
        <time>2009-07-10T10:48:59Z</time>
      </trkpt>
      <trkpt lat="44.41535" lon="3.74993">
        <ele>1424</ele>
        <time>2009-07-10T10:49:03Z</time>
      </trkpt>
      <trkpt lat="44.41519" lon="3.7499">
        <ele>1420</ele>
        <time>2009-07-10T10:49:11Z</time>
      </trkpt>
      <trkpt lat="44.4151" lon="3.7499">
        <ele>1416</ele>
        <time>2009-07-10T10:49:14Z</time>
      </trkpt>
      <trkpt lat="44.41507" lon="3.74991">
        <ele>1415</ele>
        <time>2009-07-10T10:49:15Z</time>
      </trkpt>
      <trkpt lat="44.41494" lon="3.74998">
        <ele>1412</ele>
        <time>2009-07-10T10:49:19Z</time>
      </trkpt>
      <trkpt lat="44.41486" lon="3.75002">
        <ele>1411</ele>
        <time>2009-07-10T10:49:22Z</time>
      </trkpt>
      <trkpt lat="44.4148" lon="3.75007">
        <ele>1410</ele>
        <time>2009-07-10T10:49:25Z</time>
      </trkpt>
      <trkpt lat="44.41453" lon="3.75003">
        <ele>1407</ele>
        <time>2009-07-10T10:49:33Z</time>
      </trkpt>
      <trkpt lat="44.4145" lon="3.75002">
        <ele>1406</ele>
        <time>2009-07-10T10:49:34Z</time>
      </trkpt>
      <trkpt lat="44.41447" lon="3.75003">
        <ele>1406</ele>
        <time>2009-07-10T10:49:35Z</time>
      </trkpt>
      <trkpt lat="44.41433" lon="3.7501">
        <ele>1404</ele>
        <time>2009-07-10T10:49:41Z</time>
      </trkpt>
      <trkpt lat="44.41428" lon="3.75012">
        <ele>1402</ele>
        <time>2009-07-10T10:49:43Z</time>
      </trkpt>
      <trkpt lat="44.41402" lon="3.75021">
        <ele>1398</ele>
        <time>2009-07-10T10:49:52Z</time>
      </trkpt>
      <trkpt lat="44.41389" lon="3.75031">
        <ele>1395</ele>
        <time>2009-07-10T10:49:57Z</time>
      </trkpt>
      <trkpt lat="44.41386" lon="3.75033">
        <ele>1395</ele>
        <time>2009-07-10T10:49:58Z</time>
      </trkpt>
      <trkpt lat="44.41382" lon="3.75035">
        <ele>1394</ele>
        <time>2009-07-10T10:50:01Z</time>
      </trkpt>
      <trkpt lat="44.41369" lon="3.75036">
        <ele>1393</ele>
        <time>2009-07-10T10:50:07Z</time>
      </trkpt>
      <trkpt lat="44.41358" lon="3.75038">
        <ele>1391</ele>
        <time>2009-07-10T10:50:10Z</time>
      </trkpt>
      <trkpt lat="44.41323" lon="3.75027">
        <ele>1387</ele>
        <time>2009-07-10T10:50:19Z</time>
      </trkpt>
      <trkpt lat="44.41303" lon="3.75026">
        <ele>1383</ele>
        <time>2009-07-10T10:50:25Z</time>
      </trkpt>
      <trkpt lat="44.41301" lon="3.75027">
        <ele>1384</ele>
        <time>2009-07-10T10:50:26Z</time>
      </trkpt>
      <trkpt lat="44.4127" lon="3.75025">
        <ele>1381</ele>
        <time>2009-07-10T10:50:36Z</time>
      </trkpt>
      <trkpt lat="44.41262" lon="3.75027">
        <ele>1379</ele>
        <time>2009-07-10T10:50:38Z</time>
      </trkpt>
      <trkpt lat="44.41257" lon="3.75031">
        <ele>1379</ele>
        <time>2009-07-10T10:50:47Z</time>
      </trkpt>
      <trkpt lat="44.41257" lon="3.75031">
        <ele>1378</ele>
        <time>2009-07-10T10:53:03Z</time>
      </trkpt>
      <trkpt lat="44.41242" lon="3.75052">
        <ele>1377</ele>
        <time>2009-07-10T10:54:31Z</time>
      </trkpt>
      <trkpt lat="44.41249" lon="3.75042">
        <ele>1375</ele>
        <time>2009-07-10T10:55:40Z</time>
      </trkpt>
      <trkpt lat="44.41245" lon="3.75061">
        <ele>1373</ele>
        <time>2009-07-10T10:56:35Z</time>
      </trkpt>
      <trkpt lat="44.41249" lon="3.75042">
        <ele>1373</ele>
        <time>2009-07-10T10:56:58Z</time>
      </trkpt>
      <trkpt lat="44.41254" lon="3.75032">
        <ele>1373</ele>
        <time>2009-07-10T10:59:03Z</time>
      </trkpt>
      <trkpt lat="44.41253" lon="3.75033">
        <ele>1373</ele>
        <time>2009-07-10T10:59:46Z</time>
      </trkpt>
      <trkpt lat="44.41245" lon="3.75033">
        <ele>1372</ele>
        <time>2009-07-10T11:01:25Z</time>
      </trkpt>
      <trkpt lat="44.4125" lon="3.75027">
        <ele>1373</ele>
        <time>2009-07-10T11:03:20Z</time>
      </trkpt>
      <trkpt lat="44.4125" lon="3.75027">
        <ele>1373</ele>
        <time>2009-07-10T11:03:23Z</time>
      </trkpt>
      <trkpt lat="44.41227" lon="3.75026">
        <ele>1371</ele>
        <time>2009-07-10T11:03:32Z</time>
      </trkpt>
      <trkpt lat="44.41218" lon="3.75031">
        <ele>1367</ele>
        <time>2009-07-10T11:03:35Z</time>
      </trkpt>
      <trkpt lat="44.41202" lon="3.75039">
        <ele>1365</ele>
        <time>2009-07-10T11:03:40Z</time>
      </trkpt>
      <trkpt lat="44.41188" lon="3.75042">
        <ele>1363</ele>
        <time>2009-07-10T11:03:43Z</time>
      </trkpt>
      <trkpt lat="44.4117" lon="3.75034">
        <ele>1361</ele>
        <time>2009-07-10T11:03:48Z</time>
      </trkpt>
      <trkpt lat="44.41164" lon="3.75033">
        <ele>1360</ele>
        <time>2009-07-10T11:03:50Z</time>
      </trkpt>
      <trkpt lat="44.41159" lon="3.75034">
        <ele>1358</ele>
        <time>2009-07-10T11:03:52Z</time>
      </trkpt>
      <trkpt lat="44.41146" lon="3.75036">
        <ele>1358</ele>
        <time>2009-07-10T11:03:55Z</time>
      </trkpt>
      <trkpt lat="44.4113" lon="3.75037">
        <ele>1356</ele>
        <time>2009-07-10T11:03:59Z</time>
      </trkpt>
      <trkpt lat="44.4112" lon="3.75043">
        <ele>1354</ele>
        <time>2009-07-10T11:04:02Z</time>
      </trkpt>
      <trkpt lat="44.41112" lon="3.75045">
        <ele>1352</ele>
        <time>2009-07-10T11:04:04Z</time>
      </trkpt>
      <trkpt lat="44.41105" lon="3.75049">
        <ele>1351</ele>
        <time>2009-07-10T11:04:06Z</time>
      </trkpt>
      <trkpt lat="44.41088" lon="3.75046">
        <ele>1347</ele>
        <time>2009-07-10T11:04:11Z</time>
      </trkpt>
      <trkpt lat="44.41066" lon="3.75048">
        <ele>1345</ele>
        <time>2009-07-10T11:04:15Z</time>
      </trkpt>
      <trkpt lat="44.41056" lon="3.7505">
        <ele>1345</ele>
        <time>2009-07-10T11:04:17Z</time>
      </trkpt>
      <trkpt lat="44.41047" lon="3.75052">
        <ele>1343</ele>
        <time>2009-07-10T11:04:19Z</time>
      </trkpt>
      <trkpt lat="44.41018" lon="3.75055">
        <ele>1339</ele>
        <time>2009-07-10T11:04:25Z</time>
      </trkpt>
      <trkpt lat="44.41011" lon="3.75052">
        <ele>1338</ele>
        <time>2009-07-10T11:04:28Z</time>
      </trkpt>
      <trkpt lat="44.41" lon="3.75051">
        <ele>1337</ele>
        <time>2009-07-10T11:04:31Z</time>
      </trkpt>
      <trkpt lat="44.40982" lon="3.75059">
        <ele>1334</ele>
        <time>2009-07-10T11:04:37Z</time>
      </trkpt>
      <trkpt lat="44.40971" lon="3.75048">
        <ele>1331</ele>
        <time>2009-07-10T11:04:41Z</time>
      </trkpt>
      <trkpt lat="44.40969" lon="3.75045">
        <ele>1331</ele>
        <time>2009-07-10T11:04:42Z</time>
      </trkpt>
      <trkpt lat="44.40964" lon="3.75043">
        <ele>1330</ele>
        <time>2009-07-10T11:04:44Z</time>
      </trkpt>
      <trkpt lat="44.40949" lon="3.75054">
        <ele>1328</ele>
        <time>2009-07-10T11:04:49Z</time>
      </trkpt>
      <trkpt lat="44.40931" lon="3.75059">
        <ele>1326</ele>
        <time>2009-07-10T11:04:54Z</time>
      </trkpt>
      <trkpt lat="44.4092" lon="3.75074">
        <ele>1324</ele>
        <time>2009-07-10T11:05:04Z</time>
      </trkpt>
      <trkpt lat="44.4091" lon="3.75087">
        <ele>1322</ele>
        <time>2009-07-10T11:05:37Z</time>
      </trkpt>
      <trkpt lat="44.40898" lon="3.75088">
        <ele>1319</ele>
        <time>2009-07-10T11:05:41Z</time>
      </trkpt>
      <trkpt lat="44.40885" lon="3.7508">
        <ele>1317</ele>
        <time>2009-07-10T11:05:44Z</time>
      </trkpt>
      <trkpt lat="44.40869" lon="3.75073">
        <ele>1316</ele>
        <time>2009-07-10T11:05:47Z</time>
      </trkpt>
      <trkpt lat="44.4084" lon="3.75061">
        <ele>1315</ele>
        <time>2009-07-10T11:05:52Z</time>
      </trkpt>
      <trkpt lat="44.40826" lon="3.75055">
        <ele>1312</ele>
        <time>2009-07-10T11:05:54Z</time>
      </trkpt>
      <trkpt lat="44.40811" lon="3.75052">
        <ele>1311</ele>
        <time>2009-07-10T11:05:56Z</time>
      </trkpt>
      <trkpt lat="44.40784" lon="3.75053">
        <ele>1308</ele>
        <time>2009-07-10T11:05:59Z</time>
      </trkpt>
      <trkpt lat="44.40767" lon="3.75055">
        <ele>1307</ele>
        <time>2009-07-10T11:06:01Z</time>
      </trkpt>
      <trkpt lat="44.40733" lon="3.75051">
        <ele>1301</ele>
        <time>2009-07-10T11:06:05Z</time>
      </trkpt>
      <trkpt lat="44.40715" lon="3.75042">
        <ele>1299</ele>
        <time>2009-07-10T11:06:07Z</time>
      </trkpt>
      <trkpt lat="44.40684" lon="3.75017">
        <ele>1297</ele>
        <time>2009-07-10T11:06:11Z</time>
      </trkpt>
      <trkpt lat="44.40663" lon="3.74998">
        <ele>1295</ele>
        <time>2009-07-10T11:06:14Z</time>
      </trkpt>
      <trkpt lat="44.4064" lon="3.74956">
        <ele>1291</ele>
        <time>2009-07-10T11:06:18Z</time>
      </trkpt>
      <trkpt lat="44.40637" lon="3.74943">
        <ele>1290</ele>
        <time>2009-07-10T11:06:19Z</time>
      </trkpt>
      <trkpt lat="44.40631" lon="3.74917">
        <ele>1290</ele>
        <time>2009-07-10T11:06:21Z</time>
      </trkpt>
      <trkpt lat="44.40611" lon="3.74875">
        <ele>1286</ele>
        <time>2009-07-10T11:06:25Z</time>
      </trkpt>
      <trkpt lat="44.40598" lon="3.74839">
        <ele>1281</ele>
        <time>2009-07-10T11:06:28Z</time>
      </trkpt>
      <trkpt lat="44.40592" lon="3.74811">
        <ele>1280</ele>
        <time>2009-07-10T11:06:30Z</time>
      </trkpt>
      <trkpt lat="44.40573" lon="3.7476">
        <ele>1278</ele>
        <time>2009-07-10T11:06:34Z</time>
      </trkpt>
      <trkpt lat="44.40564" lon="3.7471">
        <ele>1274</ele>
        <time>2009-07-10T11:06:38Z</time>
      </trkpt>
      <trkpt lat="44.40565" lon="3.74699">
        <ele>1273</ele>
        <time>2009-07-10T11:06:39Z</time>
      </trkpt>
      <trkpt lat="44.40575" lon="3.74644">
        <ele>1272</ele>
        <time>2009-07-10T11:06:44Z</time>
      </trkpt>
      <trkpt lat="44.40588" lon="3.74607">
        <ele>1268</ele>
        <time>2009-07-10T11:06:48Z</time>
      </trkpt>
      <trkpt lat="44.40604" lon="3.74568">
        <ele>1265</ele>
        <time>2009-07-10T11:06:52Z</time>
      </trkpt>
      <trkpt lat="44.40608" lon="3.74545">
        <ele>1263</ele>
        <time>2009-07-10T11:06:54Z</time>
      </trkpt>
      <trkpt lat="44.40585" lon="3.74523">
        <ele>1263</ele>
        <time>2009-07-10T11:06:58Z</time>
      </trkpt>
      <trkpt lat="44.40567" lon="3.74534">
        <ele>1261</ele>
        <time>2009-07-10T11:07:00Z</time>
      </trkpt>
      <trkpt lat="44.40539" lon="3.74547">
        <ele>1257</ele>
        <time>2009-07-10T11:07:03Z</time>
      </trkpt>
      <trkpt lat="44.40509" lon="3.74542">
        <ele>1255</ele>
        <time>2009-07-10T11:07:06Z</time>
      </trkpt>
      <trkpt lat="44.40499" lon="3.74537">
        <ele>1254</ele>
        <time>2009-07-10T11:07:07Z</time>
      </trkpt>
      <trkpt lat="44.40469" lon="3.74518">
        <ele>1253</ele>
        <time>2009-07-10T11:07:10Z</time>
      </trkpt>
      <trkpt lat="44.40443" lon="3.7448">
        <ele>1248</ele>
        <time>2009-07-10T11:07:13Z</time>
      </trkpt>
      <trkpt lat="44.40431" lon="3.74451">
        <ele>1245</ele>
        <time>2009-07-10T11:07:15Z</time>
      </trkpt>
      <trkpt lat="44.40424" lon="3.74428">
        <ele>1246</ele>
        <time>2009-07-10T11:07:17Z</time>
      </trkpt>
      <trkpt lat="44.40407" lon="3.74426">
        <ele>1246</ele>
        <time>2009-07-10T11:07:22Z</time>
      </trkpt>
      <trkpt lat="44.40416" lon="3.7445">
        <ele>1244</ele>
        <time>2009-07-10T11:07:29Z</time>
      </trkpt>
      <trkpt lat="44.40418" lon="3.74452">
        <ele>1244</ele>
        <time>2009-07-10T11:07:42Z</time>
      </trkpt>
      <trkpt lat="44.40421" lon="3.74476">
        <ele>1243</ele>
        <time>2009-07-10T11:08:01Z</time>
      </trkpt>
      <trkpt lat="44.40419" lon="3.74483">
        <ele>1244</ele>
        <time>2009-07-10T11:08:13Z</time>
      </trkpt>
      <trkpt lat="44.40417" lon="3.74483">
        <ele>1243</ele>
        <time>2009-07-10T11:08:55Z</time>
      </trkpt>
      <trkpt lat="44.40411" lon="3.74497">
        <ele>1239</ele>
        <time>2009-07-10T11:09:01Z</time>
      </trkpt>
      <trkpt lat="44.40408" lon="3.74504">
        <ele>1238</ele>
        <time>2009-07-10T11:09:03Z</time>
      </trkpt>
      <trkpt lat="44.40407" lon="3.74508">
        <ele>1237</ele>
        <time>2009-07-10T11:09:04Z</time>
      </trkpt>
      <trkpt lat="44.40377" lon="3.74526">
        <ele>1235</ele>
        <time>2009-07-10T11:09:14Z</time>
      </trkpt>
      <trkpt lat="44.40366" lon="3.74532">
        <ele>1234</ele>
        <time>2009-07-10T11:09:17Z</time>
      </trkpt>
      <trkpt lat="44.40346" lon="3.74525">
        <ele>1233</ele>
        <time>2009-07-10T11:09:21Z</time>
      </trkpt>
      <trkpt lat="44.40323" lon="3.74498">
        <ele>1232</ele>
        <time>2009-07-10T11:09:26Z</time>
      </trkpt>
      <trkpt lat="44.40276" lon="3.74483">
        <ele>1229</ele>
        <time>2009-07-10T11:09:35Z</time>
      </trkpt>
      <trkpt lat="44.40269" lon="3.74479">
        <ele>1228</ele>
        <time>2009-07-10T11:09:36Z</time>
      </trkpt>
      <trkpt lat="44.40233" lon="3.74455">
        <ele>1224</ele>
        <time>2009-07-10T11:09:41Z</time>
      </trkpt>
      <trkpt lat="44.40203" lon="3.74435">
        <ele>1223</ele>
        <time>2009-07-10T11:09:45Z</time>
      </trkpt>
      <trkpt lat="44.40188" lon="3.74429">
        <ele>1222</ele>
        <time>2009-07-10T11:09:47Z</time>
      </trkpt>
      <trkpt lat="44.40162" lon="3.74431">
        <ele>1218</ele>
        <time>2009-07-10T11:09:50Z</time>
      </trkpt>
      <trkpt lat="44.40133" lon="3.7443">
        <ele>1215</ele>
        <time>2009-07-10T11:09:53Z</time>
      </trkpt>
      <trkpt lat="44.40123" lon="3.74429">
        <ele>1215</ele>
        <time>2009-07-10T11:09:54Z</time>
      </trkpt>
      <trkpt lat="44.40087" lon="3.7441">
        <ele>1214</ele>
        <time>2009-07-10T11:09:59Z</time>
      </trkpt>
      <trkpt lat="44.40082" lon="3.74393">
        <ele>1214</ele>
        <time>2009-07-10T11:10:01Z</time>
      </trkpt>
      <trkpt lat="44.40073" lon="3.7438">
        <ele>1213</ele>
        <time>2009-07-10T11:10:03Z</time>
      </trkpt>
      <trkpt lat="44.4006" lon="3.74376">
        <ele>1212</ele>
        <time>2009-07-10T11:10:05Z</time>
      </trkpt>
      <trkpt lat="44.40024" lon="3.74367">
        <ele>1212</ele>
        <time>2009-07-10T11:10:11Z</time>
      </trkpt>
      <trkpt lat="44.40018" lon="3.74372">
        <ele>1210</ele>
        <time>2009-07-10T11:10:14Z</time>
      </trkpt>
      <trkpt lat="44.40013" lon="3.7439">
        <ele>1210</ele>
        <time>2009-07-10T11:10:23Z</time>
      </trkpt>
      <trkpt lat="44.40009" lon="3.74406">
        <ele>1207</ele>
        <time>2009-07-10T11:10:27Z</time>
      </trkpt>
      <trkpt lat="44.40005" lon="3.74417">
        <ele>1206</ele>
        <time>2009-07-10T11:10:29Z</time>
      </trkpt>
      <trkpt lat="44.4" lon="3.74427">
        <ele>1204</ele>
        <time>2009-07-10T11:10:31Z</time>
      </trkpt>
      <trkpt lat="44.3998" lon="3.74439">
        <ele>1204</ele>
        <time>2009-07-10T11:10:36Z</time>
      </trkpt>
      <trkpt lat="44.39962" lon="3.74439">
        <ele>1204</ele>
        <time>2009-07-10T11:10:40Z</time>
      </trkpt>
      <trkpt lat="44.39941" lon="3.74445">
        <ele>1204</ele>
        <time>2009-07-10T11:10:45Z</time>
      </trkpt>
      <trkpt lat="44.39918" lon="3.74455">
        <ele>1199</ele>
        <time>2009-07-10T11:10:49Z</time>
      </trkpt>
      <trkpt lat="44.39904" lon="3.74458">
        <ele>1197</ele>
        <time>2009-07-10T11:10:51Z</time>
      </trkpt>
      <trkpt lat="44.39861" lon="3.74447">
        <ele>1200</ele>
        <time>2009-07-10T11:10:58Z</time>
      </trkpt>
      <trkpt lat="44.39845" lon="3.74442">
        <ele>1201</ele>
        <time>2009-07-10T11:11:02Z</time>
      </trkpt>
      <trkpt lat="44.39783" lon="3.7445">
        <ele>1196</ele>
        <time>2009-07-10T11:11:14Z</time>
      </trkpt>
      <trkpt lat="44.39762" lon="3.74485">
        <ele>1196</ele>
        <time>2009-07-10T11:11:22Z</time>
      </trkpt>
      <trkpt lat="44.39755" lon="3.745">
        <ele>1196</ele>
        <time>2009-07-10T11:11:25Z</time>
      </trkpt>
      <trkpt lat="44.39734" lon="3.74511">
        <ele>1195</ele>
        <time>2009-07-10T11:11:30Z</time>
      </trkpt>
      <trkpt lat="44.39709" lon="3.74511">
        <ele>1195</ele>
        <time>2009-07-10T11:11:35Z</time>
      </trkpt>
      <trkpt lat="44.39689" lon="3.74508">
        <ele>1195</ele>
        <time>2009-07-10T11:11:39Z</time>
      </trkpt>
      <trkpt lat="44.39669" lon="3.74512">
        <ele>1195</ele>
        <time>2009-07-10T11:11:43Z</time>
      </trkpt>
      <trkpt lat="44.39622" lon="3.74511">
        <ele>1194</ele>
        <time>2009-07-10T11:11:52Z</time>
      </trkpt>
      <trkpt lat="44.39563" lon="3.74525">
        <ele>1191</ele>
        <time>2009-07-10T11:12:01Z</time>
      </trkpt>
      <trkpt lat="44.395" lon="3.74536">
        <ele>1187</ele>
        <time>2009-07-10T11:12:09Z</time>
      </trkpt>
      <trkpt lat="44.39479" lon="3.7454">
        <ele>1188</ele>
        <time>2009-07-10T11:12:12Z</time>
      </trkpt>
      <trkpt lat="44.39459" lon="3.74549">
        <ele>1187</ele>
        <time>2009-07-10T11:12:15Z</time>
      </trkpt>
      <trkpt lat="44.39438" lon="3.74562">
        <ele>1185</ele>
        <time>2009-07-10T11:12:18Z</time>
      </trkpt>
      <trkpt lat="44.39431" lon="3.74568">
        <ele>1184</ele>
        <time>2009-07-10T11:12:19Z</time>
      </trkpt>
      <trkpt lat="44.39402" lon="3.74595">
        <ele>1182</ele>
        <time>2009-07-10T11:12:24Z</time>
      </trkpt>
      <trkpt lat="44.39367" lon="3.74614">
        <ele>1177</ele>
        <time>2009-07-10T11:12:30Z</time>
      </trkpt>
      <trkpt lat="44.3935" lon="3.74573">
        <ele>1174</ele>
        <time>2009-07-10T11:12:36Z</time>
      </trkpt>
      <trkpt lat="44.3935" lon="3.74567">
        <ele>1173</ele>
        <time>2009-07-10T11:12:37Z</time>
      </trkpt>
      <trkpt lat="44.39351" lon="3.74558">
        <ele>1174</ele>
        <time>2009-07-10T11:12:51Z</time>
      </trkpt>
      <trkpt lat="44.39352" lon="3.74551">
        <ele>1173</ele>
        <time>2009-07-10T11:13:20Z</time>
      </trkpt>
      <trkpt lat="44.3936" lon="3.74526">
        <ele>1172</ele>
        <time>2009-07-10T11:13:31Z</time>
      </trkpt>
      <trkpt lat="44.39366" lon="3.74513">
        <ele>1169</ele>
        <time>2009-07-10T11:13:34Z</time>
      </trkpt>
      <trkpt lat="44.39368" lon="3.74507">
        <ele>1168</ele>
        <time>2009-07-10T11:13:35Z</time>
      </trkpt>
      <trkpt lat="44.39377" lon="3.74486">
        <ele>1165</ele>
        <time>2009-07-10T11:13:38Z</time>
      </trkpt>
      <trkpt lat="44.39388" lon="3.7446">
        <ele>1162</ele>
        <time>2009-07-10T11:13:41Z</time>
      </trkpt>
      <trkpt lat="44.39377" lon="3.74407">
        <ele>1161</ele>
        <time>2009-07-10T11:13:47Z</time>
      </trkpt>
      <trkpt lat="44.39363" lon="3.74393">
        <ele>1163</ele>
        <time>2009-07-10T11:13:50Z</time>
      </trkpt>
      <trkpt lat="44.39353" lon="3.74374">
        <ele>1165</ele>
        <time>2009-07-10T11:13:54Z</time>
      </trkpt>
      <trkpt lat="44.39324" lon="3.74343">
        <ele>1167</ele>
        <time>2009-07-10T11:14:07Z</time>
      </trkpt>
      <trkpt lat="44.3928" lon="3.74348">
        <ele>1165</ele>
        <time>2009-07-10T11:14:20Z</time>
      </trkpt>
      <trkpt lat="44.39263" lon="3.7435">
        <ele>1164</ele>
        <time>2009-07-10T11:14:31Z</time>
      </trkpt>
      <trkpt lat="44.39261" lon="3.7435">
        <ele>1164</ele>
        <time>2009-07-10T11:14:53Z</time>
      </trkpt>
      <trkpt lat="44.39253" lon="3.7435">
        <ele>1163</ele>
        <time>2009-07-10T11:15:12Z</time>
      </trkpt>
      <trkpt lat="44.39231" lon="3.74353">
        <ele>1160</ele>
        <time>2009-07-10T11:15:19Z</time>
      </trkpt>
      <trkpt lat="44.39227" lon="3.74354">
        <ele>1159</ele>
        <time>2009-07-10T11:15:20Z</time>
      </trkpt>
      <trkpt lat="44.39206" lon="3.74346">
        <ele>1154</ele>
        <time>2009-07-10T11:15:24Z</time>
      </trkpt>
      <trkpt lat="44.39192" lon="3.74317">
        <ele>1156</ele>
        <time>2009-07-10T11:15:29Z</time>
      </trkpt>
      <trkpt lat="44.39185" lon="3.74307">
        <ele>1157</ele>
        <time>2009-07-10T11:15:32Z</time>
      </trkpt>
      <trkpt lat="44.39149" lon="3.743">
        <ele>1155</ele>
        <time>2009-07-10T11:15:42Z</time>
      </trkpt>
      <trkpt lat="44.39132" lon="3.74306">
        <ele>1155</ele>
        <time>2009-07-10T11:15:47Z</time>
      </trkpt>
      <trkpt lat="44.39125" lon="3.74313">
        <ele>1154</ele>
        <time>2009-07-10T11:15:49Z</time>
      </trkpt>
      <trkpt lat="44.39109" lon="3.74333">
        <ele>1151</ele>
        <time>2009-07-10T11:15:53Z</time>
      </trkpt>
      <trkpt lat="44.3909" lon="3.7435">
        <ele>1149</ele>
        <time>2009-07-10T11:15:57Z</time>
      </trkpt>
      <trkpt lat="44.39055" lon="3.74366">
        <ele>1149</ele>
        <time>2009-07-10T11:16:04Z</time>
      </trkpt>
      <trkpt lat="44.39037" lon="3.7438">
        <ele>1148</ele>
        <time>2009-07-10T11:16:08Z</time>
      </trkpt>
      <trkpt lat="44.39026" lon="3.74395">
        <ele>1148</ele>
        <time>2009-07-10T11:16:11Z</time>
      </trkpt>
      <trkpt lat="44.39001" lon="3.74423">
        <ele>1149</ele>
        <time>2009-07-10T11:16:18Z</time>
      </trkpt>
      <trkpt lat="44.3897" lon="3.74451">
        <ele>1152</ele>
        <time>2009-07-10T11:16:28Z</time>
      </trkpt>
      <trkpt lat="44.3891" lon="3.74478">
        <ele>1155</ele>
        <time>2009-07-10T11:16:44Z</time>
      </trkpt>
      <trkpt lat="44.38863" lon="3.74473">
        <ele>1154</ele>
        <time>2009-07-10T11:16:56Z</time>
      </trkpt>
      <trkpt lat="44.38856" lon="3.74471">
        <ele>1153</ele>
        <time>2009-07-10T11:16:58Z</time>
      </trkpt>
      <trkpt lat="44.3881" lon="3.74479">
        <ele>1148</ele>
        <time>2009-07-10T11:17:07Z</time>
      </trkpt>
      <trkpt lat="44.38803" lon="3.74481">
        <ele>1148</ele>
        <time>2009-07-10T11:17:08Z</time>
      </trkpt>
      <trkpt lat="44.38778" lon="3.74489">
        <ele>1146</ele>
        <time>2009-07-10T11:17:12Z</time>
      </trkpt>
      <trkpt lat="44.38742" lon="3.745">
        <ele>1145</ele>
        <time>2009-07-10T11:17:17Z</time>
      </trkpt>
      <trkpt lat="44.38712" lon="3.74522">
        <ele>1144</ele>
        <time>2009-07-10T11:17:22Z</time>
      </trkpt>
      <trkpt lat="44.38699" lon="3.74534">
        <ele>1144</ele>
        <time>2009-07-10T11:17:25Z</time>
      </trkpt>
      <trkpt lat="44.38684" lon="3.74542">
        <ele>1143</ele>
        <time>2009-07-10T11:17:28Z</time>
      </trkpt>
      <trkpt lat="44.38662" lon="3.74547">
        <ele>1143</ele>
        <time>2009-07-10T11:17:38Z</time>
      </trkpt>
      <trkpt lat="44.38658" lon="3.74547">
        <ele>1143</ele>
        <time>2009-07-10T11:18:09Z</time>
      </trkpt>
      <trkpt lat="44.38611" lon="3.7453">
        <ele>1141</ele>
        <time>2009-07-10T11:18:21Z</time>
      </trkpt>
      <trkpt lat="44.38606" lon="3.74528">
        <ele>1140</ele>
        <time>2009-07-10T11:18:22Z</time>
      </trkpt>
      <trkpt lat="44.38569" lon="3.74495">
        <ele>1136</ele>
        <time>2009-07-10T11:18:29Z</time>
      </trkpt>
      <trkpt lat="44.38563" lon="3.7449">
        <ele>1136</ele>
        <time>2009-07-10T11:18:30Z</time>
      </trkpt>
      <trkpt lat="44.38557" lon="3.74485">
        <ele>1136</ele>
        <time>2009-07-10T11:18:31Z</time>
      </trkpt>
      <trkpt lat="44.38534" lon="3.74466">
        <ele>1137</ele>
        <time>2009-07-10T11:18:37Z</time>
      </trkpt>
      <trkpt lat="44.38519" lon="3.74463">
        <ele>1137</ele>
        <time>2009-07-10T11:18:40Z</time>
      </trkpt>
      <trkpt lat="44.38488" lon="3.74473">
        <ele>1134</ele>
        <time>2009-07-10T11:18:46Z</time>
      </trkpt>
      <trkpt lat="44.38441" lon="3.74479">
        <ele>1134</ele>
        <time>2009-07-10T11:18:54Z</time>
      </trkpt>
      <trkpt lat="44.38432" lon="3.74476">
        <ele>1135</ele>
        <time>2009-07-10T11:18:56Z</time>
      </trkpt>
      <trkpt lat="44.38414" lon="3.74464">
        <ele>1135</ele>
        <time>2009-07-10T11:19:01Z</time>
      </trkpt>
      <trkpt lat="44.38388" lon="3.74456">
        <ele>1132</ele>
        <time>2009-07-10T11:19:06Z</time>
      </trkpt>
      <trkpt lat="44.38354" lon="3.74457">
        <ele>1131</ele>
        <time>2009-07-10T11:19:11Z</time>
      </trkpt>
      <trkpt lat="44.38335" lon="3.7445">
        <ele>1131</ele>
        <time>2009-07-10T11:19:14Z</time>
      </trkpt>
      <trkpt lat="44.38306" lon="3.74449">
        <ele>1129</ele>
        <time>2009-07-10T11:19:19Z</time>
      </trkpt>
      <trkpt lat="44.38293" lon="3.74463">
        <ele>1130</ele>
        <time>2009-07-10T11:19:22Z</time>
      </trkpt>
      <trkpt lat="44.38258" lon="3.74497">
        <ele>1129</ele>
        <time>2009-07-10T11:19:31Z</time>
      </trkpt>
      <trkpt lat="44.38241" lon="3.74506">
        <ele>1128</ele>
        <time>2009-07-10T11:19:35Z</time>
      </trkpt>
      <trkpt lat="44.3823" lon="3.74516">
        <ele>1129</ele>
        <time>2009-07-10T11:19:38Z</time>
      </trkpt>
      <trkpt lat="44.38203" lon="3.74518">
        <ele>1129</ele>
        <time>2009-07-10T11:19:45Z</time>
      </trkpt>
      <trkpt lat="44.38176" lon="3.74508">
        <ele>1129</ele>
        <time>2009-07-10T11:19:53Z</time>
      </trkpt>
      <trkpt lat="44.38155" lon="3.74497">
        <ele>1126</ele>
        <time>2009-07-10T11:19:57Z</time>
      </trkpt>
      <trkpt lat="44.38119" lon="3.7448">
        <ele>1126</ele>
        <time>2009-07-10T11:20:03Z</time>
      </trkpt>
      <trkpt lat="44.38086" lon="3.7447">
        <ele>1124</ele>
        <time>2009-07-10T11:20:10Z</time>
      </trkpt>
      <trkpt lat="44.38069" lon="3.74479">
        <ele>1122</ele>
        <time>2009-07-10T11:20:15Z</time>
      </trkpt>
      <trkpt lat="44.38052" lon="3.7447">
        <ele>1117</ele>
        <time>2009-07-10T11:20:22Z</time>
      </trkpt>
      <trkpt lat="44.38044" lon="3.7445">
        <ele>1113</ele>
        <time>2009-07-10T11:20:26Z</time>
      </trkpt>
      <trkpt lat="44.38035" lon="3.74446">
        <ele>1112</ele>
        <time>2009-07-10T11:20:28Z</time>
      </trkpt>
      <trkpt lat="44.38031" lon="3.74447">
        <ele>1111</ele>
        <time>2009-07-10T11:20:29Z</time>
      </trkpt>
      <trkpt lat="44.38021" lon="3.7445">
        <ele>1111</ele>
        <time>2009-07-10T11:20:33Z</time>
      </trkpt>
      <trkpt lat="44.38019" lon="3.74455">
        <ele>1111</ele>
        <time>2009-07-10T11:20:48Z</time>
      </trkpt>
      <trkpt lat="44.38012" lon="3.74483">
        <ele>1111</ele>
        <time>2009-07-10T11:21:03Z</time>
      </trkpt>
      <trkpt lat="44.38009" lon="3.74506">
        <ele>1109</ele>
        <time>2009-07-10T11:21:08Z</time>
      </trkpt>
      <trkpt lat="44.38022" lon="3.74569">
        <ele>1110</ele>
        <time>2009-07-10T11:21:19Z</time>
      </trkpt>
      <trkpt lat="44.38031" lon="3.74592">
        <ele>1108</ele>
        <time>2009-07-10T11:21:23Z</time>
      </trkpt>
      <trkpt lat="44.38039" lon="3.74611">
        <ele>1107</ele>
        <time>2009-07-10T11:21:26Z</time>
      </trkpt>
      <trkpt lat="44.3805" lon="3.7463">
        <ele>1105</ele>
        <time>2009-07-10T11:21:29Z</time>
      </trkpt>
      <trkpt lat="44.38072" lon="3.74655">
        <ele>1101</ele>
        <time>2009-07-10T11:21:33Z</time>
      </trkpt>
      <trkpt lat="44.38086" lon="3.74667">
        <ele>1100</ele>
        <time>2009-07-10T11:21:35Z</time>
      </trkpt>
      <trkpt lat="44.38093" lon="3.74674">
        <ele>1100</ele>
        <time>2009-07-10T11:21:36Z</time>
      </trkpt>
      <trkpt lat="44.38111" lon="3.74702">
        <ele>1098</ele>
        <time>2009-07-10T11:21:39Z</time>
      </trkpt>
      <trkpt lat="44.38127" lon="3.74732">
        <ele>1095</ele>
        <time>2009-07-10T11:21:42Z</time>
      </trkpt>
      <trkpt lat="44.3815" lon="3.74785">
        <ele>1092</ele>
        <time>2009-07-10T11:21:47Z</time>
      </trkpt>
      <trkpt lat="44.38154" lon="3.74855">
        <ele>1092</ele>
        <time>2009-07-10T11:21:53Z</time>
      </trkpt>
      <trkpt lat="44.38164" lon="3.74947">
        <ele>1084</ele>
        <time>2009-07-10T11:22:02Z</time>
      </trkpt>
      <trkpt lat="44.38179" lon="3.74957">
        <ele>1083</ele>
        <time>2009-07-10T11:22:05Z</time>
      </trkpt>
      <trkpt lat="44.38205" lon="3.74978">
        <ele>1082</ele>
        <time>2009-07-10T11:22:14Z</time>
      </trkpt>
      <trkpt lat="44.38189" lon="3.74978">
        <ele>1080</ele>
        <time>2009-07-10T11:22:21Z</time>
      </trkpt>
      <trkpt lat="44.38166" lon="3.74967">
        <ele>1077</ele>
        <time>2009-07-10T11:22:26Z</time>
      </trkpt>
      <trkpt lat="44.38144" lon="3.74964">
        <ele>1076</ele>
        <time>2009-07-10T11:22:32Z</time>
      </trkpt>
      <trkpt lat="44.38142" lon="3.74968">
        <ele>1076</ele>
        <time>2009-07-10T11:22:45Z</time>
      </trkpt>
      <trkpt lat="44.38143" lon="3.7497">
        <ele>1076</ele>
        <time>2009-07-10T11:23:05Z</time>
      </trkpt>
      <trkpt lat="44.3815" lon="3.74974">
        <ele>1075</ele>
        <time>2009-07-10T11:23:17Z</time>
      </trkpt>
      <trkpt lat="44.38178" lon="3.7499">
        <ele>1070</ele>
        <time>2009-07-10T11:23:28Z</time>
      </trkpt>
      <trkpt lat="44.3818" lon="3.74993">
        <ele>1070</ele>
        <time>2009-07-10T11:23:29Z</time>
      </trkpt>
      <trkpt lat="44.3819" lon="3.75014">
        <ele>1068</ele>
        <time>2009-07-10T11:23:35Z</time>
      </trkpt>
      <trkpt lat="44.38216" lon="3.75023">
        <ele>1064</ele>
        <time>2009-07-10T11:23:43Z</time>
      </trkpt>
      <trkpt lat="44.38238" lon="3.75032">
        <ele>1063</ele>
        <time>2009-07-10T11:23:49Z</time>
      </trkpt>
      <trkpt lat="44.38253" lon="3.75038">
        <ele>1061</ele>
        <time>2009-07-10T11:23:53Z</time>
      </trkpt>
      <trkpt lat="44.38268" lon="3.75041">
        <ele>1058</ele>
        <time>2009-07-10T11:23:57Z</time>
      </trkpt>
      <trkpt lat="44.38272" lon="3.75042">
        <ele>1058</ele>
        <time>2009-07-10T11:23:58Z</time>
      </trkpt>
      <trkpt lat="44.38289" lon="3.75048">
        <ele>1056</ele>
        <time>2009-07-10T11:24:02Z</time>
      </trkpt>
      <trkpt lat="44.38312" lon="3.75058">
        <ele>1053</ele>
        <time>2009-07-10T11:24:07Z</time>
      </trkpt>
      <trkpt lat="44.38323" lon="3.75063">
        <ele>1051</ele>
        <time>2009-07-10T11:24:10Z</time>
      </trkpt>
      <trkpt lat="44.38329" lon="3.75066">
        <ele>1050</ele>
        <time>2009-07-10T11:24:20Z</time>
      </trkpt>
      <trkpt lat="44.3833" lon="3.75067">
        <ele>1050</ele>
        <time>2009-07-10T11:24:35Z</time>
      </trkpt>
      <trkpt lat="44.38337" lon="3.75072">
        <ele>1048</ele>
        <time>2009-07-10T11:24:40Z</time>
      </trkpt>
      <trkpt lat="44.3834" lon="3.75074">
        <ele>1048</ele>
        <time>2009-07-10T11:24:41Z</time>
      </trkpt>
      <trkpt lat="44.38336" lon="3.75084">
        <ele>1046</ele>
        <time>2009-07-10T11:24:46Z</time>
      </trkpt>
      <trkpt lat="44.38332" lon="3.75091">
        <ele>1044</ele>
        <time>2009-07-10T11:24:51Z</time>
      </trkpt>
      <trkpt lat="44.3835" lon="3.75094">
        <ele>1041</ele>
        <time>2009-07-10T11:24:58Z</time>
      </trkpt>
      <trkpt lat="44.38364" lon="3.75094">
        <ele>1039</ele>
        <time>2009-07-10T11:25:01Z</time>
      </trkpt>
      <trkpt lat="44.38385" lon="3.75103">
        <ele>1037</ele>
        <time>2009-07-10T11:25:08Z</time>
      </trkpt>
      <trkpt lat="44.38385" lon="3.75108">
        <ele>1037</ele>
        <time>2009-07-10T11:25:10Z</time>
      </trkpt>
      <trkpt lat="44.38385" lon="3.75115">
        <ele>1036</ele>
        <time>2009-07-10T11:25:23Z</time>
      </trkpt>
      <trkpt lat="44.38389" lon="3.75113">
        <ele>1035</ele>
        <time>2009-07-10T11:26:13Z</time>
      </trkpt>
      <trkpt lat="44.38391" lon="3.75121">
        <ele>1035</ele>
        <time>2009-07-10T11:26:28Z</time>
      </trkpt>
      <trkpt lat="44.3839" lon="3.75127">
        <ele>1035</ele>
        <time>2009-07-10T11:26:53Z</time>
      </trkpt>
      <trkpt lat="44.38387" lon="3.7513">
        <ele>1035</ele>
        <time>2009-07-10T11:26:58Z</time>
      </trkpt>
      <trkpt lat="44.38377" lon="3.75132">
        <ele>1036</ele>
        <time>2009-07-10T11:27:11Z</time>
      </trkpt>
      <trkpt lat="44.38373" lon="3.7513">
        <ele>1037</ele>
        <time>2009-07-10T11:27:35Z</time>
      </trkpt>
      <trkpt lat="44.38369" lon="3.75132">
        <ele>1037</ele>
        <time>2009-07-10T11:27:39Z</time>
      </trkpt>
      <trkpt lat="44.38359" lon="3.7514">
        <ele>1037</ele>
        <time>2009-07-10T11:27:45Z</time>
      </trkpt>
      <trkpt lat="44.38336" lon="3.75164">
        <ele>1035</ele>
        <time>2009-07-10T11:27:56Z</time>
      </trkpt>
      <trkpt lat="44.38333" lon="3.75176">
        <ele>1036</ele>
        <time>2009-07-10T11:28:05Z</time>
      </trkpt>
      <trkpt lat="44.38327" lon="3.75192">
        <ele>1036</ele>
        <time>2009-07-10T11:28:19Z</time>
      </trkpt>
      <trkpt lat="44.38323" lon="3.75193">
        <ele>1036</ele>
        <time>2009-07-10T11:28:34Z</time>
      </trkpt>
      <trkpt lat="44.3832" lon="3.75195">
        <ele>1036</ele>
        <time>2009-07-10T11:28:41Z</time>
      </trkpt>
      <trkpt lat="44.38315" lon="3.75197">
        <ele>1036</ele>
        <time>2009-07-10T11:28:55Z</time>
      </trkpt>
      <trkpt lat="44.38297" lon="3.75199">
        <ele>1035</ele>
        <time>2009-07-10T11:29:03Z</time>
      </trkpt>
      <trkpt lat="44.38291" lon="3.75206">
        <ele>1037</ele>
        <time>2009-07-10T11:29:07Z</time>
      </trkpt>
      <trkpt lat="44.38287" lon="3.75211">
        <ele>1038</ele>
        <time>2009-07-10T11:29:10Z</time>
      </trkpt>
      <trkpt lat="44.38246" lon="3.75216">
        <ele>1036</ele>
        <time>2009-07-10T11:29:25Z</time>
      </trkpt>
      <trkpt lat="44.38219" lon="3.75217">
        <ele>1033</ele>
        <time>2009-07-10T11:29:32Z</time>
      </trkpt>
      <trkpt lat="44.38186" lon="3.75221">
        <ele>1033</ele>
        <time>2009-07-10T11:29:42Z</time>
      </trkpt>
      <trkpt lat="44.38159" lon="3.75224">
        <ele>1033</ele>
        <time>2009-07-10T11:29:50Z</time>
      </trkpt>
      <trkpt lat="44.38115" lon="3.75215">
        <ele>1031</ele>
        <time>2009-07-10T11:30:01Z</time>
      </trkpt>
      <trkpt lat="44.38078" lon="3.75213">
        <ele>1030</ele>
        <time>2009-07-10T11:30:11Z</time>
      </trkpt>
      <trkpt lat="44.38066" lon="3.75209">
        <ele>1030</ele>
        <time>2009-07-10T11:30:20Z</time>
      </trkpt>
      <trkpt lat="44.38065" lon="3.75206">
        <ele>1030</ele>
        <time>2009-07-10T11:30:34Z</time>
      </trkpt>
      <trkpt lat="44.38058" lon="3.75201">
        <ele>1030</ele>
        <time>2009-07-10T11:31:25Z</time>
      </trkpt>
      <trkpt lat="44.38032" lon="3.75205">
        <ele>1031</ele>
        <time>2009-07-10T11:31:37Z</time>
      </trkpt>
      <trkpt lat="44.38002" lon="3.75202">
        <ele>1032</ele>
        <time>2009-07-10T11:31:51Z</time>
      </trkpt>
      <trkpt lat="44.37936" lon="3.75182">
        <ele>1030</ele>
        <time>2009-07-10T11:32:09Z</time>
      </trkpt>
      <trkpt lat="44.3788" lon="3.75179">
        <ele>1031</ele>
        <time>2009-07-10T11:32:24Z</time>
      </trkpt>
      <trkpt lat="44.37832" lon="3.75185">
        <ele>1031</ele>
        <time>2009-07-10T11:32:38Z</time>
      </trkpt>
      <trkpt lat="44.37785" lon="3.75186">
        <ele>1031</ele>
        <time>2009-07-10T11:32:51Z</time>
      </trkpt>
      <trkpt lat="44.37727" lon="3.75193">
        <ele>1033</ele>
        <time>2009-07-10T11:33:08Z</time>
      </trkpt>
      <trkpt lat="44.37724" lon="3.75197">
        <ele>1032</ele>
        <time>2009-07-10T11:33:16Z</time>
      </trkpt>
      <trkpt lat="44.37725" lon="3.75198">
        <ele>1034</ele>
        <time>2009-07-10T11:34:39Z</time>
      </trkpt>
      <trkpt lat="44.37726" lon="3.75202">
        <ele>1034</ele>
        <time>2009-07-10T11:34:47Z</time>
      </trkpt>
      <trkpt lat="44.37745" lon="3.75205">
        <ele>1036</ele>
        <time>2009-07-10T11:34:58Z</time>
      </trkpt>
      <trkpt lat="44.37792" lon="3.75218">
        <ele>1039</ele>
        <time>2009-07-10T11:35:17Z</time>
      </trkpt>
      <trkpt lat="44.37841" lon="3.75235">
        <ele>1042</ele>
        <time>2009-07-10T11:35:37Z</time>
      </trkpt>
      <trkpt lat="44.3788" lon="3.75231">
        <ele>1044</ele>
        <time>2009-07-10T11:35:52Z</time>
      </trkpt>
      <trkpt lat="44.37927" lon="3.75233">
        <ele>1047</ele>
        <time>2009-07-10T11:36:10Z</time>
      </trkpt>
      <trkpt lat="44.37965" lon="3.75245">
        <ele>1051</ele>
        <time>2009-07-10T11:36:25Z</time>
      </trkpt>
      <trkpt lat="44.38017" lon="3.75272">
        <ele>1052</ele>
        <time>2009-07-10T11:36:46Z</time>
      </trkpt>
      <trkpt lat="44.38056" lon="3.75281">
        <ele>1054</ele>
        <time>2009-07-10T11:37:02Z</time>
      </trkpt>
      <trkpt lat="44.38058" lon="3.75282">
        <ele>1055</ele>
        <time>2009-07-10T11:37:03Z</time>
      </trkpt>
      <trkpt lat="44.38067" lon="3.75278">
        <ele>1056</ele>
        <time>2009-07-10T11:37:07Z</time>
      </trkpt>
      <trkpt lat="44.381" lon="3.75277">
        <ele>1059</ele>
        <time>2009-07-10T11:37:20Z</time>
      </trkpt>
      <trkpt lat="44.38102" lon="3.75277">
        <ele>1059</ele>
        <time>2009-07-10T11:37:21Z</time>
      </trkpt>
      <trkpt lat="44.38108" lon="3.75277">
        <ele>1060</ele>
        <time>2009-07-10T11:37:23Z</time>
      </trkpt>
      <trkpt lat="44.38135" lon="3.75284">
        <ele>1062</ele>
        <time>2009-07-10T11:37:34Z</time>
      </trkpt>
      <trkpt lat="44.38168" lon="3.75282">
        <ele>1062</ele>
        <time>2009-07-10T11:37:47Z</time>
      </trkpt>
      <trkpt lat="44.38211" lon="3.75278">
        <ele>1063</ele>
        <time>2009-07-10T11:38:04Z</time>
      </trkpt>
      <trkpt lat="44.38252" lon="3.75298">
        <ele>1067</ele>
        <time>2009-07-10T11:38:21Z</time>
      </trkpt>
      <trkpt lat="44.38255" lon="3.75312">
        <ele>1069</ele>
        <time>2009-07-10T11:38:25Z</time>
      </trkpt>
      <trkpt lat="44.38254" lon="3.75359">
        <ele>1071</ele>
        <time>2009-07-10T11:38:38Z</time>
      </trkpt>
      <trkpt lat="44.38248" lon="3.75399">
        <ele>1072</ele>
        <time>2009-07-10T11:38:49Z</time>
      </trkpt>
      <trkpt lat="44.3824" lon="3.75462">
        <ele>1075</ele>
        <time>2009-07-10T11:39:07Z</time>
      </trkpt>
      <trkpt lat="44.3824" lon="3.75472">
        <ele>1076</ele>
        <time>2009-07-10T11:39:11Z</time>
      </trkpt>
      <trkpt lat="44.38241" lon="3.75474">
        <ele>1076</ele>
        <time>2009-07-10T11:39:25Z</time>
      </trkpt>
      <trkpt lat="44.38242" lon="3.75473">
        <ele>1077</ele>
        <time>2009-07-10T11:39:43Z</time>
      </trkpt>
      <trkpt lat="44.38241" lon="3.7547">
        <ele>1076</ele>
        <time>2009-07-10T11:39:46Z</time>
      </trkpt>
      <trkpt lat="44.38236" lon="3.75453">
        <ele>1079</ele>
        <time>2009-07-10T11:40:00Z</time>
      </trkpt>
      <trkpt lat="44.38232" lon="3.75443">
        <ele>1082</ele>
        <time>2009-07-10T11:40:12Z</time>
      </trkpt>
      <trkpt lat="44.3823" lon="3.75438">
        <ele>1083</ele>
        <time>2009-07-10T11:40:27Z</time>
      </trkpt>
      <trkpt lat="44.38224" lon="3.75423">
        <ele>1086</ele>
        <time>2009-07-10T11:40:36Z</time>
      </trkpt>
      <trkpt lat="44.38221" lon="3.75408">
        <ele>1088</ele>
        <time>2009-07-10T11:40:43Z</time>
      </trkpt>
      <trkpt lat="44.38222" lon="3.75394">
        <ele>1091</ele>
        <time>2009-07-10T11:40:50Z</time>
      </trkpt>
      <trkpt lat="44.38219" lon="3.75376">
        <ele>1094</ele>
        <time>2009-07-10T11:41:00Z</time>
      </trkpt>
      <trkpt lat="44.38203" lon="3.75362">
        <ele>1096</ele>
        <time>2009-07-10T11:41:16Z</time>
      </trkpt>
      <trkpt lat="44.38199" lon="3.75377">
        <ele>1099</ele>
        <time>2009-07-10T11:41:25Z</time>
      </trkpt>
      <trkpt lat="44.38197" lon="3.75383">
        <ele>1100</ele>
        <time>2009-07-10T11:41:29Z</time>
      </trkpt>
      <trkpt lat="44.38192" lon="3.75387">
        <ele>1100</ele>
        <time>2009-07-10T11:41:33Z</time>
      </trkpt>
      <trkpt lat="44.38172" lon="3.75396">
        <ele>1104</ele>
        <time>2009-07-10T11:41:49Z</time>
      </trkpt>
      <trkpt lat="44.38158" lon="3.75413">
        <ele>1108</ele>
        <time>2009-07-10T11:42:03Z</time>
      </trkpt>
      <trkpt lat="44.38152" lon="3.75423">
        <ele>1111</ele>
        <time>2009-07-10T11:42:11Z</time>
      </trkpt>
      <trkpt lat="44.3815" lon="3.75437">
        <ele>1113</ele>
        <time>2009-07-10T11:42:24Z</time>
      </trkpt>
      <trkpt lat="44.38146" lon="3.75449">
        <ele>1115</ele>
        <time>2009-07-10T11:42:37Z</time>
      </trkpt>
      <trkpt lat="44.38137" lon="3.75462">
        <ele>1116</ele>
        <time>2009-07-10T11:42:53Z</time>
      </trkpt>
      <trkpt lat="44.38133" lon="3.75467">
        <ele>1119</ele>
        <time>2009-07-10T11:43:00Z</time>
      </trkpt>
      <trkpt lat="44.38129" lon="3.75483">
        <ele>1122</ele>
        <time>2009-07-10T11:43:18Z</time>
      </trkpt>
      <trkpt lat="44.38133" lon="3.75489">
        <ele>1122</ele>
        <time>2009-07-10T11:43:29Z</time>
      </trkpt>
      <trkpt lat="44.38133" lon="3.75502">
        <ele>1125</ele>
        <time>2009-07-10T11:43:40Z</time>
      </trkpt>
      <trkpt lat="44.38132" lon="3.75503">
        <ele>1125</ele>
        <time>2009-07-10T11:43:41Z</time>
      </trkpt>
      <trkpt lat="44.38134" lon="3.75512">
        <ele>1128</ele>
        <time>2009-07-10T11:43:50Z</time>
      </trkpt>
      <trkpt lat="44.38134" lon="3.75515">
        <ele>1128</ele>
        <time>2009-07-10T11:44:02Z</time>
      </trkpt>
      <trkpt lat="44.38135" lon="3.75528">
        <ele>1129</ele>
        <time>2009-07-10T11:44:39Z</time>
      </trkpt>
      <trkpt lat="44.38133" lon="3.7553">
        <ele>1129</ele>
        <time>2009-07-10T11:44:54Z</time>
      </trkpt>
      <trkpt lat="44.38133" lon="3.75533">
        <ele>1129</ele>
        <time>2009-07-10T11:45:28Z</time>
      </trkpt>
      <trkpt lat="44.38136" lon="3.75547">
        <ele>1131</ele>
        <time>2009-07-10T11:45:39Z</time>
      </trkpt>
      <trkpt lat="44.38139" lon="3.75557">
        <ele>1133</ele>
        <time>2009-07-10T11:45:48Z</time>
      </trkpt>
      <trkpt lat="44.38144" lon="3.75576">
        <ele>1136</ele>
        <time>2009-07-10T11:46:03Z</time>
      </trkpt>
      <trkpt lat="44.38143" lon="3.75584">
        <ele>1137</ele>
        <time>2009-07-10T11:46:09Z</time>
      </trkpt>
      <trkpt lat="44.38145" lon="3.756">
        <ele>1139</ele>
        <time>2009-07-10T11:46:21Z</time>
      </trkpt>
      <trkpt lat="44.38144" lon="3.7561">
        <ele>1141</ele>
        <time>2009-07-10T11:46:37Z</time>
      </trkpt>
      <trkpt lat="44.38143" lon="3.7561">
        <ele>1140</ele>
        <time>2009-07-10T11:46:51Z</time>
      </trkpt>
      <trkpt lat="44.38142" lon="3.7561">
        <ele>1141</ele>
        <time>2009-07-10T11:46:54Z</time>
      </trkpt>
      <trkpt lat="44.38133" lon="3.75598">
        <ele>1141</ele>
        <time>2009-07-10T11:47:02Z</time>
      </trkpt>
      <trkpt lat="44.38115" lon="3.75593">
        <ele>1142</ele>
        <time>2009-07-10T11:47:18Z</time>
      </trkpt>
      <trkpt lat="44.38107" lon="3.75593">
        <ele>1143</ele>
        <time>2009-07-10T11:47:28Z</time>
      </trkpt>
      <trkpt lat="44.38093" lon="3.75596">
        <ele>1146</ele>
        <time>2009-07-10T11:47:40Z</time>
      </trkpt>
      <trkpt lat="44.3809" lon="3.75598">
        <ele>1146</ele>
        <time>2009-07-10T11:47:42Z</time>
      </trkpt>
      <trkpt lat="44.38084" lon="3.75598">
        <ele>1146</ele>
        <time>2009-07-10T11:47:46Z</time>
      </trkpt>
      <trkpt lat="44.38084" lon="3.75613">
        <ele>1146</ele>
        <time>2009-07-10T11:47:56Z</time>
      </trkpt>
      <trkpt lat="44.38084" lon="3.75615">
        <ele>1146</ele>
        <time>2009-07-10T11:47:59Z</time>
      </trkpt>
      <trkpt lat="44.38077" lon="3.75618">
        <ele>1146</ele>
        <time>2009-07-10T11:48:06Z</time>
      </trkpt>
      <trkpt lat="44.38073" lon="3.75621">
        <ele>1147</ele>
        <time>2009-07-10T11:48:10Z</time>
      </trkpt>
      <trkpt lat="44.38069" lon="3.75628">
        <ele>1150</ele>
        <time>2009-07-10T11:48:20Z</time>
      </trkpt>
      <trkpt lat="44.38069" lon="3.7563">
        <ele>1150</ele>
        <time>2009-07-10T11:48:23Z</time>
      </trkpt>
      <trkpt lat="44.38066" lon="3.75645">
        <ele>1154</ele>
        <time>2009-07-10T11:48:39Z</time>
      </trkpt>
      <trkpt lat="44.3806" lon="3.75656">
        <ele>1156</ele>
        <time>2009-07-10T11:48:56Z</time>
      </trkpt>
      <trkpt lat="44.38059" lon="3.75673">
        <ele>1160</ele>
        <time>2009-07-10T11:49:13Z</time>
      </trkpt>
      <trkpt lat="44.38061" lon="3.75685">
        <ele>1162</ele>
        <time>2009-07-10T11:49:28Z</time>
      </trkpt>
      <trkpt lat="44.38062" lon="3.75699">
        <ele>1162</ele>
        <time>2009-07-10T11:49:45Z</time>
      </trkpt>
      <trkpt lat="44.3806" lon="3.75706">
        <ele>1165</ele>
        <time>2009-07-10T11:49:59Z</time>
      </trkpt>
      <trkpt lat="44.38061" lon="3.75709">
        <ele>1166</ele>
        <time>2009-07-10T11:50:02Z</time>
      </trkpt>
      <trkpt lat="44.3806" lon="3.75717">
        <ele>1169</ele>
        <time>2009-07-10T11:50:13Z</time>
      </trkpt>
      <trkpt lat="44.3806" lon="3.75719">
        <ele>1170</ele>
        <time>2009-07-10T11:50:15Z</time>
      </trkpt>
      <trkpt lat="44.38058" lon="3.75725">
        <ele>1172</ele>
        <time>2009-07-10T11:50:25Z</time>
      </trkpt>
      <trkpt lat="44.38053" lon="3.7573">
        <ele>1173</ele>
        <time>2009-07-10T11:50:37Z</time>
      </trkpt>
      <trkpt lat="44.38045" lon="3.75734">
        <ele>1175</ele>
        <time>2009-07-10T11:50:51Z</time>
      </trkpt>
      <trkpt lat="44.38042" lon="3.75738">
        <ele>1177</ele>
        <time>2009-07-10T11:51:06Z</time>
      </trkpt>
      <trkpt lat="44.3804" lon="3.75746">
        <ele>1178</ele>
        <time>2009-07-10T11:51:22Z</time>
      </trkpt>
      <trkpt lat="44.38041" lon="3.75749">
        <ele>1179</ele>
        <time>2009-07-10T11:51:28Z</time>
      </trkpt>
      <trkpt lat="44.38039" lon="3.75747">
        <ele>1178</ele>
        <time>2009-07-10T11:51:40Z</time>
      </trkpt>
      <trkpt lat="44.38039" lon="3.75745">
        <ele>1178</ele>
        <time>2009-07-10T11:51:54Z</time>
      </trkpt>
      <trkpt lat="44.38037" lon="3.75744">
        <ele>1180</ele>
        <time>2009-07-10T11:53:46Z</time>
      </trkpt>
      <trkpt lat="44.3803" lon="3.75742">
        <ele>1179</ele>
        <time>2009-07-10T11:53:58Z</time>
      </trkpt>
      <trkpt lat="44.38009" lon="3.75736">
        <ele>1180</ele>
        <time>2009-07-10T11:54:13Z</time>
      </trkpt>
      <trkpt lat="44.37995" lon="3.75731">
        <ele>1179</ele>
        <time>2009-07-10T11:54:24Z</time>
      </trkpt>
      <trkpt lat="44.37991" lon="3.75728">
        <ele>1179</ele>
        <time>2009-07-10T11:54:35Z</time>
      </trkpt>
      <trkpt lat="44.37991" lon="3.75729">
        <ele>1180</ele>
        <time>2009-07-10T11:54:47Z</time>
      </trkpt>
      <trkpt lat="44.37987" lon="3.75731">
        <ele>1180</ele>
        <time>2009-07-10T11:55:00Z</time>
      </trkpt>
      <trkpt lat="44.37978" lon="3.75735">
        <ele>1180</ele>
        <time>2009-07-10T11:55:11Z</time>
      </trkpt>
      <trkpt lat="44.37965" lon="3.75739">
        <ele>1180</ele>
        <time>2009-07-10T11:55:25Z</time>
      </trkpt>
      <trkpt lat="44.37965" lon="3.75739">
        <ele>1180</ele>
        <time>2009-07-10T11:55:27Z</time>
      </trkpt>
      <trkpt lat="44.37958" lon="3.75742">
        <ele>1180</ele>
        <time>2009-07-10T11:55:32Z</time>
      </trkpt>
      <trkpt lat="44.37934" lon="3.75736">
        <ele>1180</ele>
        <time>2009-07-10T11:55:44Z</time>
      </trkpt>
      <trkpt lat="44.37931" lon="3.75724">
        <ele>1180</ele>
        <time>2009-07-10T11:55:55Z</time>
      </trkpt>
      <trkpt lat="44.37926" lon="3.75714">
        <ele>1180</ele>
        <time>2009-07-10T11:56:07Z</time>
      </trkpt>
      <trkpt lat="44.3792" lon="3.75706">
        <ele>1181</ele>
        <time>2009-07-10T11:56:18Z</time>
      </trkpt>
      <trkpt lat="44.37915" lon="3.75685">
        <ele>1179</ele>
        <time>2009-07-10T11:56:27Z</time>
      </trkpt>
      <trkpt lat="44.37915" lon="3.75678">
        <ele>1178</ele>
        <time>2009-07-10T11:56:39Z</time>
      </trkpt>
      <trkpt lat="44.3791" lon="3.75671">
        <ele>1180</ele>
        <time>2009-07-10T11:56:50Z</time>
      </trkpt>
      <trkpt lat="44.37904" lon="3.75659">
        <ele>1179</ele>
        <time>2009-07-10T11:57:01Z</time>
      </trkpt>
      <trkpt lat="44.37898" lon="3.75651">
        <ele>1178</ele>
        <time>2009-07-10T11:57:12Z</time>
      </trkpt>
      <trkpt lat="44.37896" lon="3.7565">
        <ele>1178</ele>
        <time>2009-07-10T11:57:14Z</time>
      </trkpt>
      <trkpt lat="44.37891" lon="3.7565">
        <ele>1180</ele>
        <time>2009-07-10T11:57:22Z</time>
      </trkpt>
      <trkpt lat="44.37881" lon="3.75639">
        <ele>1179</ele>
        <time>2009-07-10T11:57:33Z</time>
      </trkpt>
      <trkpt lat="44.37879" lon="3.75637">
        <ele>1179</ele>
        <time>2009-07-10T11:57:44Z</time>
      </trkpt>
      <trkpt lat="44.3787" lon="3.75629">
        <ele>1178</ele>
        <time>2009-07-10T11:57:55Z</time>
      </trkpt>
      <trkpt lat="44.37866" lon="3.75627">
        <ele>1178</ele>
        <time>2009-07-10T11:58:04Z</time>
      </trkpt>
      <trkpt lat="44.37866" lon="3.75627">
        <ele>1179</ele>
        <time>2009-07-10T11:58:05Z</time>
      </trkpt>
      <trkpt lat="44.37864" lon="3.75626">
        <ele>1179</ele>
        <time>2009-07-10T11:58:07Z</time>
      </trkpt>
      <trkpt lat="44.3785" lon="3.75617">
        <ele>1179</ele>
        <time>2009-07-10T11:58:23Z</time>
      </trkpt>
      <trkpt lat="44.37848" lon="3.75617">
        <ele>1178</ele>
        <time>2009-07-10T11:58:25Z</time>
      </trkpt>
      <trkpt lat="44.37835" lon="3.75611">
        <ele>1179</ele>
        <time>2009-07-10T11:58:37Z</time>
      </trkpt>
      <trkpt lat="44.37817" lon="3.75604">
        <ele>1179</ele>
        <time>2009-07-10T11:58:46Z</time>
      </trkpt>
      <trkpt lat="44.37808" lon="3.75604">
        <ele>1179</ele>
        <time>2009-07-10T11:58:50Z</time>
      </trkpt>
      <trkpt lat="44.37786" lon="3.75605">
        <ele>1179</ele>
        <time>2009-07-10T11:59:03Z</time>
      </trkpt>
      <trkpt lat="44.3778" lon="3.75604">
        <ele>1179</ele>
        <time>2009-07-10T11:59:17Z</time>
      </trkpt>
      <trkpt lat="44.37779" lon="3.75605">
        <ele>1179</ele>
        <time>2009-07-10T11:59:19Z</time>
      </trkpt>
      <trkpt lat="44.37774" lon="3.7561">
        <ele>1180</ele>
        <time>2009-07-10T11:59:29Z</time>
      </trkpt>
      <trkpt lat="44.37773" lon="3.7561">
        <ele>1180</ele>
        <time>2009-07-10T11:59:30Z</time>
      </trkpt>
      <trkpt lat="44.37765" lon="3.75609">
        <ele>1180</ele>
        <time>2009-07-10T11:59:39Z</time>
      </trkpt>
      <trkpt lat="44.3776" lon="3.75608">
        <ele>1179</ele>
        <time>2009-07-10T11:59:46Z</time>
      </trkpt>
      <trkpt lat="44.37756" lon="3.75609">
        <ele>1179</ele>
        <time>2009-07-10T12:00:02Z</time>
      </trkpt>
      <trkpt lat="44.37755" lon="3.75609">
        <ele>1181</ele>
        <time>2009-07-10T12:00:04Z</time>
      </trkpt>
      <trkpt lat="44.37751" lon="3.75611">
        <ele>1181</ele>
        <time>2009-07-10T12:00:18Z</time>
      </trkpt>
      <trkpt lat="44.3775" lon="3.75613">
        <ele>1182</ele>
        <time>2009-07-10T12:00:21Z</time>
      </trkpt>
      <trkpt lat="44.3774" lon="3.75613">
        <ele>1182</ele>
        <time>2009-07-10T12:00:35Z</time>
      </trkpt>
      <trkpt lat="44.37734" lon="3.7561">
        <ele>1182</ele>
        <time>2009-07-10T12:00:46Z</time>
      </trkpt>
      <trkpt lat="44.37732" lon="3.75603">
        <ele>1179</ele>
        <time>2009-07-10T12:00:59Z</time>
      </trkpt>
      <trkpt lat="44.3773" lon="3.75595">
        <ele>1179</ele>
        <time>2009-07-10T12:01:13Z</time>
      </trkpt>
      <trkpt lat="44.37727" lon="3.75589">
        <ele>1179</ele>
        <time>2009-07-10T12:01:29Z</time>
      </trkpt>
      <trkpt lat="44.37727" lon="3.75589">
        <ele>1179</ele>
        <time>2009-07-10T12:02:05Z</time>
      </trkpt>
      <trkpt lat="44.37725" lon="3.75588">
        <ele>1178</ele>
        <time>2009-07-10T12:02:35Z</time>
      </trkpt>
      <trkpt lat="44.37717" lon="3.7558">
        <ele>1178</ele>
        <time>2009-07-10T12:02:41Z</time>
      </trkpt>
      <trkpt lat="44.37706" lon="3.7557">
        <ele>1179</ele>
        <time>2009-07-10T12:02:48Z</time>
      </trkpt>
      <trkpt lat="44.37681" lon="3.7556">
        <ele>1178</ele>
        <time>2009-07-10T12:03:01Z</time>
      </trkpt>
      <trkpt lat="44.37656" lon="3.75559">
        <ele>1178</ele>
        <time>2009-07-10T12:03:14Z</time>
      </trkpt>
      <trkpt lat="44.3764" lon="3.7556">
        <ele>1178</ele>
        <time>2009-07-10T12:03:26Z</time>
      </trkpt>
      <trkpt lat="44.37629" lon="3.75561">
        <ele>1178</ele>
        <time>2009-07-10T12:03:36Z</time>
      </trkpt>
      <trkpt lat="44.37618" lon="3.75562">
        <ele>1178</ele>
        <time>2009-07-10T12:03:47Z</time>
      </trkpt>
      <trkpt lat="44.37607" lon="3.75564">
        <ele>1178</ele>
        <time>2009-07-10T12:03:58Z</time>
      </trkpt>
      <trkpt lat="44.37603" lon="3.75564">
        <ele>1177</ele>
        <time>2009-07-10T12:04:08Z</time>
      </trkpt>
      <trkpt lat="44.37587" lon="3.75563">
        <ele>1177</ele>
        <time>2009-07-10T12:04:19Z</time>
      </trkpt>
      <trkpt lat="44.37578" lon="3.75565">
        <ele>1178</ele>
        <time>2009-07-10T12:04:24Z</time>
      </trkpt>
      <trkpt lat="44.37566" lon="3.75565">
        <ele>1177</ele>
        <time>2009-07-10T12:04:35Z</time>
      </trkpt>
      <trkpt lat="44.37562" lon="3.75564">
        <ele>1178</ele>
        <time>2009-07-10T12:04:40Z</time>
      </trkpt>
      <trkpt lat="44.37558" lon="3.75562">
        <ele>1178</ele>
        <time>2009-07-10T12:04:44Z</time>
      </trkpt>
      <trkpt lat="44.37539" lon="3.7556">
        <ele>1179</ele>
        <time>2009-07-10T12:05:00Z</time>
      </trkpt>
      <trkpt lat="44.37528" lon="3.7556">
        <ele>1179</ele>
        <time>2009-07-10T12:05:12Z</time>
      </trkpt>
      <trkpt lat="44.37527" lon="3.7556">
        <ele>1178</ele>
        <time>2009-07-10T12:05:13Z</time>
      </trkpt>
      <trkpt lat="44.37519" lon="3.75558">
        <ele>1178</ele>
        <time>2009-07-10T12:05:24Z</time>
      </trkpt>
      <trkpt lat="44.37514" lon="3.75555">
        <ele>1179</ele>
        <time>2009-07-10T12:05:35Z</time>
      </trkpt>
      <trkpt lat="44.37509" lon="3.75552">
        <ele>1179</ele>
        <time>2009-07-10T12:05:48Z</time>
      </trkpt>
      <trkpt lat="44.37506" lon="3.75556">
        <ele>1180</ele>
        <time>2009-07-10T12:06:01Z</time>
      </trkpt>
      <trkpt lat="44.375" lon="3.75557">
        <ele>1181</ele>
        <time>2009-07-10T12:06:15Z</time>
      </trkpt>
      <trkpt lat="44.37496" lon="3.75559">
        <ele>1182</ele>
        <time>2009-07-10T12:06:28Z</time>
      </trkpt>
      <trkpt lat="44.37491" lon="3.75556">
        <ele>1179</ele>
        <time>2009-07-10T12:06:41Z</time>
      </trkpt>
      <trkpt lat="44.37491" lon="3.75555">
        <ele>1179</ele>
        <time>2009-07-10T12:06:42Z</time>
      </trkpt>
      <trkpt lat="44.37487" lon="3.75552">
        <ele>1179</ele>
        <time>2009-07-10T12:06:57Z</time>
      </trkpt>
      <trkpt lat="44.37484" lon="3.75552">
        <ele>1180</ele>
        <time>2009-07-10T12:07:06Z</time>
      </trkpt>
      <trkpt lat="44.37482" lon="3.75554">
        <ele>1179</ele>
        <time>2009-07-10T12:07:08Z</time>
      </trkpt>
      <trkpt lat="44.37466" lon="3.75559">
        <ele>1179</ele>
        <time>2009-07-10T12:07:24Z</time>
      </trkpt>
      <trkpt lat="44.37461" lon="3.75561">
        <ele>1178</ele>
        <time>2009-07-10T12:07:34Z</time>
      </trkpt>
      <trkpt lat="44.37456" lon="3.75563">
        <ele>1177</ele>
        <time>2009-07-10T12:07:46Z</time>
      </trkpt>
      <trkpt lat="44.3745" lon="3.75564">
        <ele>1177</ele>
        <time>2009-07-10T12:07:55Z</time>
      </trkpt>
      <trkpt lat="44.37444" lon="3.75564">
        <ele>1176</ele>
        <time>2009-07-10T12:08:00Z</time>
      </trkpt>
      <trkpt lat="44.37432" lon="3.75567">
        <ele>1176</ele>
        <time>2009-07-10T12:08:12Z</time>
      </trkpt>
      <trkpt lat="44.37423" lon="3.75569">
        <ele>1178</ele>
        <time>2009-07-10T12:08:25Z</time>
      </trkpt>
      <trkpt lat="44.37419" lon="3.7557">
        <ele>1177</ele>
        <time>2009-07-10T12:08:45Z</time>
      </trkpt>
      <trkpt lat="44.37412" lon="3.7557">
        <ele>1176</ele>
        <time>2009-07-10T12:08:59Z</time>
      </trkpt>
      <trkpt lat="44.37408" lon="3.75573">
        <ele>1177</ele>
        <time>2009-07-10T12:09:09Z</time>
      </trkpt>
      <trkpt lat="44.37399" lon="3.75574">
        <ele>1176</ele>
        <time>2009-07-10T12:09:21Z</time>
      </trkpt>
      <trkpt lat="44.37392" lon="3.75579">
        <ele>1177</ele>
        <time>2009-07-10T12:09:33Z</time>
      </trkpt>
      <trkpt lat="44.3739" lon="3.75579">
        <ele>1178</ele>
        <time>2009-07-10T12:09:36Z</time>
      </trkpt>
      <trkpt lat="44.37381" lon="3.75583">
        <ele>1178</ele>
        <time>2009-07-10T12:09:51Z</time>
      </trkpt>
      <trkpt lat="44.37378" lon="3.75584">
        <ele>1177</ele>
        <time>2009-07-10T12:10:07Z</time>
      </trkpt>
      <trkpt lat="44.37378" lon="3.75585">
        <ele>1178</ele>
        <time>2009-07-10T12:10:13Z</time>
      </trkpt>
      <trkpt lat="44.37377" lon="3.75586">
        <ele>1178</ele>
        <time>2009-07-10T12:10:14Z</time>
      </trkpt>
      <trkpt lat="44.37372" lon="3.7559">
        <ele>1178</ele>
        <time>2009-07-10T12:10:22Z</time>
      </trkpt>
      <trkpt lat="44.3736" lon="3.75595">
        <ele>1177</ele>
        <time>2009-07-10T12:10:35Z</time>
      </trkpt>
      <trkpt lat="44.37358" lon="3.75599">
        <ele>1177</ele>
        <time>2009-07-10T12:10:39Z</time>
      </trkpt>
      <trkpt lat="44.37351" lon="3.75605">
        <ele>1176</ele>
        <time>2009-07-10T12:10:51Z</time>
      </trkpt>
      <trkpt lat="44.37347" lon="3.75609">
        <ele>1176</ele>
        <time>2009-07-10T12:11:03Z</time>
      </trkpt>
      <trkpt lat="44.37346" lon="3.75609">
        <ele>1176</ele>
        <time>2009-07-10T12:11:05Z</time>
      </trkpt>
      <trkpt lat="44.37343" lon="3.75609">
        <ele>1175</ele>
        <time>2009-07-10T12:11:09Z</time>
      </trkpt>
      <trkpt lat="44.3734" lon="3.75608">
        <ele>1175</ele>
        <time>2009-07-10T12:11:12Z</time>
      </trkpt>
      <trkpt lat="44.37326" lon="3.7561">
        <ele>1175</ele>
        <time>2009-07-10T12:11:25Z</time>
      </trkpt>
      <trkpt lat="44.37317" lon="3.75612">
        <ele>1176</ele>
        <time>2009-07-10T12:11:42Z</time>
      </trkpt>
      <trkpt lat="44.37314" lon="3.75612">
        <ele>1174</ele>
        <time>2009-07-10T12:11:55Z</time>
      </trkpt>
      <trkpt lat="44.37315" lon="3.7561">
        <ele>1176</ele>
        <time>2009-07-10T12:12:25Z</time>
      </trkpt>
      <trkpt lat="44.37317" lon="3.75611">
        <ele>1177</ele>
        <time>2009-07-10T12:12:29Z</time>
      </trkpt>
      <trkpt lat="44.37321" lon="3.75613">
        <ele>1176</ele>
        <time>2009-07-10T12:12:43Z</time>
      </trkpt>
      <trkpt lat="44.37325" lon="3.75619">
        <ele>1179</ele>
        <time>2009-07-10T12:12:56Z</time>
      </trkpt>
      <trkpt lat="44.37326" lon="3.75621">
        <ele>1180</ele>
        <time>2009-07-10T12:13:09Z</time>
      </trkpt>
      <trkpt lat="44.37325" lon="3.75626">
        <ele>1182</ele>
        <time>2009-07-10T12:13:21Z</time>
      </trkpt>
      <trkpt lat="44.37327" lon="3.75633">
        <ele>1185</ele>
        <time>2009-07-10T12:13:36Z</time>
      </trkpt>
      <trkpt lat="44.37324" lon="3.7564">
        <ele>1185</ele>
        <time>2009-07-10T12:13:49Z</time>
      </trkpt>
      <trkpt lat="44.37315" lon="3.75645">
        <ele>1187</ele>
        <time>2009-07-10T12:14:02Z</time>
      </trkpt>
      <trkpt lat="44.37309" lon="3.75649">
        <ele>1188</ele>
        <time>2009-07-10T12:14:16Z</time>
      </trkpt>
      <trkpt lat="44.37304" lon="3.75649">
        <ele>1185</ele>
        <time>2009-07-10T12:14:29Z</time>
      </trkpt>
      <trkpt lat="44.373" lon="3.75646">
        <ele>1184</ele>
        <time>2009-07-10T12:14:38Z</time>
      </trkpt>
      <trkpt lat="44.37292" lon="3.75645">
        <ele>1183</ele>
        <time>2009-07-10T12:14:51Z</time>
      </trkpt>
      <trkpt lat="44.37284" lon="3.7565">
        <ele>1184</ele>
        <time>2009-07-10T12:15:03Z</time>
      </trkpt>
      <trkpt lat="44.37274" lon="3.75652">
        <ele>1185</ele>
        <time>2009-07-10T12:15:17Z</time>
      </trkpt>
      <trkpt lat="44.3727" lon="3.75653">
        <ele>1185</ele>
        <time>2009-07-10T12:15:21Z</time>
      </trkpt>
      <trkpt lat="44.37265" lon="3.75652">
        <ele>1185</ele>
        <time>2009-07-10T12:15:30Z</time>
      </trkpt>
      <trkpt lat="44.37256" lon="3.75647">
        <ele>1184</ele>
        <time>2009-07-10T12:15:43Z</time>
      </trkpt>
      <trkpt lat="44.37249" lon="3.75641">
        <ele>1185</ele>
        <time>2009-07-10T12:16:02Z</time>
      </trkpt>
      <trkpt lat="44.37247" lon="3.75638">
        <ele>1185</ele>
        <time>2009-07-10T12:16:04Z</time>
      </trkpt>
      <trkpt lat="44.37237" lon="3.75634">
        <ele>1185</ele>
        <time>2009-07-10T12:16:19Z</time>
      </trkpt>
      <trkpt lat="44.37234" lon="3.75635">
        <ele>1186</ele>
        <time>2009-07-10T12:16:30Z</time>
      </trkpt>
      <trkpt lat="44.3723" lon="3.75635">
        <ele>1185</ele>
        <time>2009-07-10T12:16:43Z</time>
      </trkpt>
      <trkpt lat="44.37228" lon="3.75633">
        <ele>1185</ele>
        <time>2009-07-10T12:17:00Z</time>
      </trkpt>
      <trkpt lat="44.37226" lon="3.75632">
        <ele>1185</ele>
        <time>2009-07-10T12:17:15Z</time>
      </trkpt>
      <trkpt lat="44.37224" lon="3.7563">
        <ele>1184</ele>
        <time>2009-07-10T12:17:22Z</time>
      </trkpt>
      <trkpt lat="44.37225" lon="3.7563">
        <ele>1184</ele>
        <time>2009-07-10T12:17:42Z</time>
      </trkpt>
      <trkpt lat="44.37225" lon="3.7563">
        <ele>1185</ele>
        <time>2009-07-10T12:17:47Z</time>
      </trkpt>
      <trkpt lat="44.37222" lon="3.75623">
        <ele>1181</ele>
        <time>2009-07-10T12:18:00Z</time>
      </trkpt>
      <trkpt lat="44.37221" lon="3.75618">
        <ele>1180</ele>
        <time>2009-07-10T12:18:14Z</time>
      </trkpt>
      <trkpt lat="44.37219" lon="3.75614">
        <ele>1176</ele>
        <time>2009-07-10T12:18:26Z</time>
      </trkpt>
      <trkpt lat="44.37219" lon="3.75609">
        <ele>1176</ele>
        <time>2009-07-10T12:18:34Z</time>
      </trkpt>
      <trkpt lat="44.37217" lon="3.75605">
        <ele>1175</ele>
        <time>2009-07-10T12:18:44Z</time>
      </trkpt>
      <trkpt lat="44.37207" lon="3.75604">
        <ele>1176</ele>
        <time>2009-07-10T12:18:55Z</time>
      </trkpt>
      <trkpt lat="44.37199" lon="3.75603">
        <ele>1175</ele>
        <time>2009-07-10T12:19:08Z</time>
      </trkpt>
      <trkpt lat="44.37194" lon="3.75603">
        <ele>1176</ele>
        <time>2009-07-10T12:19:16Z</time>
      </trkpt>
      <trkpt lat="44.37186" lon="3.75605">
        <ele>1177</ele>
        <time>2009-07-10T12:19:30Z</time>
      </trkpt>
      <trkpt lat="44.37171" lon="3.75603">
        <ele>1177</ele>
        <time>2009-07-10T12:19:50Z</time>
      </trkpt>
      <trkpt lat="44.37161" lon="3.75599">
        <ele>1176</ele>
        <time>2009-07-10T12:20:03Z</time>
      </trkpt>
      <trkpt lat="44.37159" lon="3.75599">
        <ele>1176</ele>
        <time>2009-07-10T12:20:05Z</time>
      </trkpt>
      <trkpt lat="44.37149" lon="3.75593">
        <ele>1175</ele>
        <time>2009-07-10T12:20:21Z</time>
      </trkpt>
      <trkpt lat="44.37148" lon="3.75594">
        <ele>1175</ele>
        <time>2009-07-10T12:20:31Z</time>
      </trkpt>
      <trkpt lat="44.37121" lon="3.7559">
        <ele>1177</ele>
        <time>2009-07-10T12:20:46Z</time>
      </trkpt>
      <trkpt lat="44.37111" lon="3.75589">
        <ele>1177</ele>
        <time>2009-07-10T12:20:52Z</time>
      </trkpt>
      <trkpt lat="44.37101" lon="3.75587">
        <ele>1177</ele>
        <time>2009-07-10T12:21:05Z</time>
      </trkpt>
      <trkpt lat="44.37096" lon="3.75589">
        <ele>1175</ele>
        <time>2009-07-10T12:21:18Z</time>
      </trkpt>
      <trkpt lat="44.3709" lon="3.75591">
        <ele>1176</ele>
        <time>2009-07-10T12:21:32Z</time>
      </trkpt>
      <trkpt lat="44.37081" lon="3.75592">
        <ele>1175</ele>
        <time>2009-07-10T12:21:39Z</time>
      </trkpt>
      <trkpt lat="44.37059" lon="3.75594">
        <ele>1177</ele>
        <time>2009-07-10T12:21:53Z</time>
      </trkpt>
      <trkpt lat="44.37056" lon="3.75597">
        <ele>1176</ele>
        <time>2009-07-10T12:22:07Z</time>
      </trkpt>
      <trkpt lat="44.37056" lon="3.75597">
        <ele>1176</ele>
        <time>2009-07-10T12:22:08Z</time>
      </trkpt>
      <trkpt lat="44.37052" lon="3.756">
        <ele>1176</ele>
        <time>2009-07-10T12:22:12Z</time>
      </trkpt>
      <trkpt lat="44.37042" lon="3.75605">
        <ele>1177</ele>
        <time>2009-07-10T12:22:26Z</time>
      </trkpt>
      <trkpt lat="44.37039" lon="3.75605">
        <ele>1175</ele>
        <time>2009-07-10T12:22:32Z</time>
      </trkpt>
      <trkpt lat="44.37031" lon="3.75606">
        <ele>1175</ele>
        <time>2009-07-10T12:22:41Z</time>
      </trkpt>
      <trkpt lat="44.3702" lon="3.7561">
        <ele>1175</ele>
        <time>2009-07-10T12:22:54Z</time>
      </trkpt>
      <trkpt lat="44.37004" lon="3.75615">
        <ele>1175</ele>
        <time>2009-07-10T12:23:08Z</time>
      </trkpt>
      <trkpt lat="44.37001" lon="3.75616">
        <ele>1175</ele>
        <time>2009-07-10T12:23:11Z</time>
      </trkpt>
      <trkpt lat="44.36995" lon="3.75618">
        <ele>1175</ele>
        <time>2009-07-10T12:23:16Z</time>
      </trkpt>
      <trkpt lat="44.36979" lon="3.75627">
        <ele>1175</ele>
        <time>2009-07-10T12:23:33Z</time>
      </trkpt>
      <trkpt lat="44.36966" lon="3.75639">
        <ele>1175</ele>
        <time>2009-07-10T12:23:44Z</time>
      </trkpt>
      <trkpt lat="44.36959" lon="3.75647">
        <ele>1176</ele>
        <time>2009-07-10T12:23:53Z</time>
      </trkpt>
      <trkpt lat="44.36958" lon="3.75641">
        <ele>1176</ele>
        <time>2009-07-10T12:24:10Z</time>
      </trkpt>
      <trkpt lat="44.36961" lon="3.75644">
        <ele>1175</ele>
        <time>2009-07-10T12:24:25Z</time>
      </trkpt>
      <trkpt lat="44.36963" lon="3.75645">
        <ele>1176</ele>
        <time>2009-07-10T12:25:31Z</time>
      </trkpt>
      <trkpt lat="44.36958" lon="3.75668">
        <ele>1177</ele>
        <time>2009-07-10T12:25:46Z</time>
      </trkpt>
      <trkpt lat="44.36962" lon="3.75693">
        <ele>1180</ele>
        <time>2009-07-10T12:25:57Z</time>
      </trkpt>
      <trkpt lat="44.36967" lon="3.75709">
        <ele>1182</ele>
        <time>2009-07-10T12:26:11Z</time>
      </trkpt>
      <trkpt lat="44.36968" lon="3.75711">
        <ele>1182</ele>
        <time>2009-07-10T12:26:20Z</time>
      </trkpt>
      <trkpt lat="44.36976" lon="3.75705">
        <ele>1184</ele>
        <time>2009-07-10T12:26:35Z</time>
      </trkpt>
      <trkpt lat="44.36981" lon="3.75697">
        <ele>1187</ele>
        <time>2009-07-10T12:26:45Z</time>
      </trkpt>
      <trkpt lat="44.3698" lon="3.75698">
        <ele>1188</ele>
        <time>2009-07-10T12:26:55Z</time>
      </trkpt>
      <trkpt lat="44.36976" lon="3.75706">
        <ele>1185</ele>
        <time>2009-07-10T12:26:59Z</time>
      </trkpt>
      <trkpt lat="44.36973" lon="3.75711">
        <ele>1183</ele>
        <time>2009-07-10T12:27:01Z</time>
      </trkpt>
      <trkpt lat="44.36965" lon="3.7571">
        <ele>1181</ele>
        <time>2009-07-10T12:27:06Z</time>
      </trkpt>
      <trkpt lat="44.36962" lon="3.75695">
        <ele>1176</ele>
        <time>2009-07-10T12:27:11Z</time>
      </trkpt>
      <trkpt lat="44.36961" lon="3.75693">
        <ele>1183</ele>
        <time>2009-07-10T12:27:12Z</time>
      </trkpt>
      <trkpt lat="44.3696" lon="3.75691">
        <ele>1179</ele>
        <time>2009-07-10T12:27:13Z</time>
      </trkpt>
      <trkpt lat="44.36956" lon="3.7567">
        <ele>1177</ele>
        <time>2009-07-10T12:27:19Z</time>
      </trkpt>
      <trkpt lat="44.36961" lon="3.75647">
        <ele>1177</ele>
        <time>2009-07-10T12:27:24Z</time>
      </trkpt>
      <trkpt lat="44.3696" lon="3.75645">
        <ele>1174</ele>
        <time>2009-07-10T12:27:35Z</time>
      </trkpt>
      <trkpt lat="44.3696" lon="3.75645">
        <ele>1178</ele>
        <time>2009-07-10T12:27:36Z</time>
      </trkpt>
      <trkpt lat="44.3696" lon="3.75644">
        <ele>1174</ele>
        <time>2009-07-10T12:27:39Z</time>
      </trkpt>
      <trkpt lat="44.3696" lon="3.75644">
        <ele>1176</ele>
        <time>2009-07-10T12:27:40Z</time>
      </trkpt>
      <trkpt lat="44.36959" lon="3.75644">
        <ele>1176</ele>
        <time>2009-07-10T12:27:48Z</time>
      </trkpt>
      <trkpt lat="44.36959" lon="3.75644">
        <ele>1178</ele>
        <time>2009-07-10T12:27:51Z</time>
      </trkpt>
      <trkpt lat="44.36959" lon="3.75644">
        <ele>1176</ele>
        <time>2009-07-10T12:27:55Z</time>
      </trkpt>
      <trkpt lat="44.36959" lon="3.75647">
        <ele>1176</ele>
        <time>2009-07-10T12:28:35Z</time>
      </trkpt>
      <trkpt lat="44.36951" lon="3.75671">
        <ele>1176</ele>
        <time>2009-07-10T12:28:46Z</time>
      </trkpt>
      <trkpt lat="44.3695" lon="3.7568">
        <ele>1177</ele>
        <time>2009-07-10T12:28:59Z</time>
      </trkpt>
      <trkpt lat="44.36951" lon="3.75698">
        <ele>1176</ele>
        <time>2009-07-10T12:29:13Z</time>
      </trkpt>
      <trkpt lat="44.36952" lon="3.75716">
        <ele>1176</ele>
        <time>2009-07-10T12:29:23Z</time>
      </trkpt>
      <trkpt lat="44.36951" lon="3.7572">
        <ele>1176</ele>
        <time>2009-07-10T12:29:35Z</time>
      </trkpt>
      <trkpt lat="44.3695" lon="3.75728">
        <ele>1176</ele>
        <time>2009-07-10T12:29:46Z</time>
      </trkpt>
      <trkpt lat="44.36951" lon="3.75729">
        <ele>1176</ele>
        <time>2009-07-10T12:29:49Z</time>
      </trkpt>
      <trkpt lat="44.36951" lon="3.75732">
        <ele>1175</ele>
        <time>2009-07-10T12:29:51Z</time>
      </trkpt>
      <trkpt lat="44.3695" lon="3.75749">
        <ele>1174</ele>
        <time>2009-07-10T12:30:05Z</time>
      </trkpt>
      <trkpt lat="44.36949" lon="3.75751">
        <ele>1176</ele>
        <time>2009-07-10T12:30:38Z</time>
      </trkpt>
      <trkpt lat="44.36949" lon="3.75751">
        <ele>1172</ele>
        <time>2009-07-10T12:31:28Z</time>
      </trkpt>
      <trkpt lat="44.36949" lon="3.75751">
        <ele>1178</ele>
        <time>2009-07-10T12:31:31Z</time>
      </trkpt>
      <trkpt lat="44.36949" lon="3.75751">
        <ele>1174</ele>
        <time>2009-07-10T12:31:34Z</time>
      </trkpt>
      <trkpt lat="44.36949" lon="3.7575">
        <ele>1178</ele>
        <time>2009-07-10T12:31:36Z</time>
      </trkpt>
      <trkpt lat="44.36949" lon="3.7575">
        <ele>1172</ele>
        <time>2009-07-10T12:31:37Z</time>
      </trkpt>
      <trkpt lat="44.36949" lon="3.7575">
        <ele>1178</ele>
        <time>2009-07-10T12:31:38Z</time>
      </trkpt>
      <trkpt lat="44.36949" lon="3.7575">
        <ele>1173</ele>
        <time>2009-07-10T12:31:39Z</time>
      </trkpt>
      <trkpt lat="44.36949" lon="3.7575">
        <ele>1176</ele>
        <time>2009-07-10T12:31:40Z</time>
      </trkpt>
      <trkpt lat="44.36949" lon="3.7575">
        <ele>1173</ele>
        <time>2009-07-10T12:31:44Z</time>
      </trkpt>
      <trkpt lat="44.36949" lon="3.75751">
        <ele>1177</ele>
        <time>2009-07-10T12:31:48Z</time>
      </trkpt>
      <trkpt lat="44.3695" lon="3.75749">
        <ele>1175</ele>
        <time>2009-07-10T12:31:56Z</time>
      </trkpt>
      <trkpt lat="44.36951" lon="3.75733">
        <ele>1177</ele>
        <time>2009-07-10T12:32:06Z</time>
      </trkpt>
      <trkpt lat="44.36951" lon="3.75722">
        <ele>1176</ele>
        <time>2009-07-10T12:32:19Z</time>
      </trkpt>
      <trkpt lat="44.36951" lon="3.75715">
        <ele>1177</ele>
        <time>2009-07-10T12:32:33Z</time>
      </trkpt>
      <trkpt lat="44.36951" lon="3.75696">
        <ele>1177</ele>
        <time>2009-07-10T12:32:46Z</time>
      </trkpt>
      <trkpt lat="44.36952" lon="3.75665">
        <ele>1176</ele>
        <time>2009-07-10T12:32:56Z</time>
      </trkpt>
      <trkpt lat="44.36955" lon="3.75655">
        <ele>1175</ele>
        <time>2009-07-10T12:33:06Z</time>
      </trkpt>
      <trkpt lat="44.36955" lon="3.75656">
        <ele>1179</ele>
        <time>2009-07-10T12:33:18Z</time>
      </trkpt>
      <trkpt lat="44.36955" lon="3.75656">
        <ele>1176</ele>
        <time>2009-07-10T12:33:19Z</time>
      </trkpt>
      <trkpt lat="44.36955" lon="3.75656">
        <ele>1180</ele>
        <time>2009-07-10T12:33:20Z</time>
      </trkpt>
      <trkpt lat="44.36955" lon="3.75656">
        <ele>1177</ele>
        <time>2009-07-10T12:33:21Z</time>
      </trkpt>
      <trkpt lat="44.36955" lon="3.75656">
        <ele>1180</ele>
        <time>2009-07-10T12:33:24Z</time>
      </trkpt>
      <trkpt lat="44.36955" lon="3.75656">
        <ele>1176</ele>
        <time>2009-07-10T12:33:25Z</time>
      </trkpt>
      <trkpt lat="44.36956" lon="3.75654">
        <ele>1176</ele>
        <time>2009-07-10T12:33:48Z</time>
      </trkpt>
      <trkpt lat="44.36958" lon="3.75651">
        <ele>1175</ele>
        <time>2009-07-10T12:33:51Z</time>
      </trkpt>
      <trkpt lat="44.36957" lon="3.75649">
        <ele>1175</ele>
        <time>2009-07-10T12:33:56Z</time>
      </trkpt>
      <trkpt lat="44.36955" lon="3.75645">
        <ele>1175</ele>
        <time>2009-07-10T12:33:58Z</time>
      </trkpt>
      <trkpt lat="44.36947" lon="3.75644">
        <ele>1173</ele>
        <time>2009-07-10T12:34:02Z</time>
      </trkpt>
      <trkpt lat="44.36931" lon="3.75672">
        <ele>1170</ele>
        <time>2009-07-10T12:34:13Z</time>
      </trkpt>
      <trkpt lat="44.36931" lon="3.75679">
        <ele>1170</ele>
        <time>2009-07-10T12:34:26Z</time>
      </trkpt>
      <trkpt lat="44.36932" lon="3.7569">
        <ele>1168</ele>
        <time>2009-07-10T12:34:29Z</time>
      </trkpt>
      <trkpt lat="44.36933" lon="3.757">
        <ele>1166</ele>
        <time>2009-07-10T12:34:31Z</time>
      </trkpt>
      <trkpt lat="44.36931" lon="3.75725">
        <ele>1166</ele>
        <time>2009-07-10T12:34:37Z</time>
      </trkpt>
      <trkpt lat="44.36922" lon="3.75743">
        <ele>1162</ele>
        <time>2009-07-10T12:34:42Z</time>
      </trkpt>
      <trkpt lat="44.36918" lon="3.75752">
        <ele>1161</ele>
        <time>2009-07-10T12:34:44Z</time>
      </trkpt>
      <trkpt lat="44.36913" lon="3.75771">
        <ele>1161</ele>
        <time>2009-07-10T12:34:48Z</time>
      </trkpt>
      <trkpt lat="44.36917" lon="3.7579">
        <ele>1159</ele>
        <time>2009-07-10T12:34:52Z</time>
      </trkpt>
      <trkpt lat="44.36913" lon="3.75814">
        <ele>1155</ele>
        <time>2009-07-10T12:34:56Z</time>
      </trkpt>
      <trkpt lat="44.3691" lon="3.75818">
        <ele>1154</ele>
        <time>2009-07-10T12:34:57Z</time>
      </trkpt>
      <trkpt lat="44.36896" lon="3.75839">
        <ele>1151</ele>
        <time>2009-07-10T12:35:07Z</time>
      </trkpt>
      <trkpt lat="44.36888" lon="3.75864">
        <ele>1149</ele>
        <time>2009-07-10T12:35:16Z</time>
      </trkpt>
      <trkpt lat="44.3688" lon="3.75907">
        <ele>1149</ele>
        <time>2009-07-10T12:35:29Z</time>
      </trkpt>
      <trkpt lat="44.36874" lon="3.75918">
        <ele>1146</ele>
        <time>2009-07-10T12:35:32Z</time>
      </trkpt>
      <trkpt lat="44.36872" lon="3.75922">
        <ele>1146</ele>
        <time>2009-07-10T12:35:33Z</time>
      </trkpt>
      <trkpt lat="44.36871" lon="3.75932">
        <ele>1146</ele>
        <time>2009-07-10T12:35:35Z</time>
      </trkpt>
      <trkpt lat="44.36888" lon="3.75965">
        <ele>1148</ele>
        <time>2009-07-10T12:35:46Z</time>
      </trkpt>
      <trkpt lat="44.3688" lon="3.76028">
        <ele>1148</ele>
        <time>2009-07-10T12:35:59Z</time>
      </trkpt>
      <trkpt lat="44.36876" lon="3.76109">
        <ele>1145</ele>
        <time>2009-07-10T12:36:13Z</time>
      </trkpt>
      <trkpt lat="44.36889" lon="3.76162">
        <ele>1142</ele>
        <time>2009-07-10T12:36:20Z</time>
      </trkpt>
      <trkpt lat="44.36892" lon="3.76171">
        <ele>1142</ele>
        <time>2009-07-10T12:36:21Z</time>
      </trkpt>
      <trkpt lat="44.36901" lon="3.76214">
        <ele>1141</ele>
        <time>2009-07-10T12:36:26Z</time>
      </trkpt>
      <trkpt lat="44.369" lon="3.76232">
        <ele>1137</ele>
        <time>2009-07-10T12:36:28Z</time>
      </trkpt>
      <trkpt lat="44.36883" lon="3.76261">
        <ele>1136</ele>
        <time>2009-07-10T12:36:32Z</time>
      </trkpt>
      <trkpt lat="44.36879" lon="3.7628">
        <ele>1134</ele>
        <time>2009-07-10T12:36:34Z</time>
      </trkpt>
      <trkpt lat="44.36873" lon="3.7631">
        <ele>1132</ele>
        <time>2009-07-10T12:36:37Z</time>
      </trkpt>
      <trkpt lat="44.36857" lon="3.7636">
        <ele>1134</ele>
        <time>2009-07-10T12:36:42Z</time>
      </trkpt>
      <trkpt lat="44.36845" lon="3.76419">
        <ele>1138</ele>
        <time>2009-07-10T12:36:54Z</time>
      </trkpt>
      <trkpt lat="44.36821" lon="3.76464">
        <ele>1142</ele>
        <time>2009-07-10T12:37:08Z</time>
      </trkpt>
      <trkpt lat="44.368" lon="3.76489">
        <ele>1145</ele>
        <time>2009-07-10T12:37:19Z</time>
      </trkpt>
      <trkpt lat="44.36793" lon="3.76542">
        <ele>1148</ele>
        <time>2009-07-10T12:37:35Z</time>
      </trkpt>
      <trkpt lat="44.36813" lon="3.76574">
        <ele>1151</ele>
        <time>2009-07-10T12:37:47Z</time>
      </trkpt>
      <trkpt lat="44.36839" lon="3.76606">
        <ele>1154</ele>
        <time>2009-07-10T12:38:02Z</time>
      </trkpt>
      <trkpt lat="44.36866" lon="3.76656">
        <ele>1157</ele>
        <time>2009-07-10T12:38:22Z</time>
      </trkpt>
      <trkpt lat="44.36866" lon="3.76679">
        <ele>1159</ele>
        <time>2009-07-10T12:38:29Z</time>
      </trkpt>
      <trkpt lat="44.36864" lon="3.76688">
        <ele>1160</ele>
        <time>2009-07-10T12:38:32Z</time>
      </trkpt>
      <trkpt lat="44.36856" lon="3.76714">
        <ele>1161</ele>
        <time>2009-07-10T12:38:41Z</time>
      </trkpt>
      <trkpt lat="44.36834" lon="3.76756">
        <ele>1164</ele>
        <time>2009-07-10T12:38:57Z</time>
      </trkpt>
      <trkpt lat="44.36828" lon="3.76819">
        <ele>1167</ele>
        <time>2009-07-10T12:39:17Z</time>
      </trkpt>
      <trkpt lat="44.36821" lon="3.76856">
        <ele>1170</ele>
        <time>2009-07-10T12:39:29Z</time>
      </trkpt>
      <trkpt lat="44.36811" lon="3.7691">
        <ele>1173</ele>
        <time>2009-07-10T12:39:47Z</time>
      </trkpt>
      <trkpt lat="44.36813" lon="3.76966">
        <ele>1177</ele>
        <time>2009-07-10T12:40:05Z</time>
      </trkpt>
      <trkpt lat="44.36813" lon="3.76969">
        <ele>1177</ele>
        <time>2009-07-10T12:40:06Z</time>
      </trkpt>
      <trkpt lat="44.36812" lon="3.76989">
        <ele>1179</ele>
        <time>2009-07-10T12:40:12Z</time>
      </trkpt>
      <trkpt lat="44.36822" lon="3.7705">
        <ele>1182</ele>
        <time>2009-07-10T12:40:31Z</time>
      </trkpt>
      <trkpt lat="44.36813" lon="3.77083">
        <ele>1185</ele>
        <time>2009-07-10T12:40:41Z</time>
      </trkpt>
      <trkpt lat="44.36801" lon="3.77132">
        <ele>1189</ele>
        <time>2009-07-10T12:40:55Z</time>
      </trkpt>
      <trkpt lat="44.36816" lon="3.77179">
        <ele>1192</ele>
        <time>2009-07-10T12:41:10Z</time>
      </trkpt>
      <trkpt lat="44.36851" lon="3.77206">
        <ele>1194</ele>
        <time>2009-07-10T12:41:26Z</time>
      </trkpt>
      <trkpt lat="44.36877" lon="3.77226">
        <ele>1196</ele>
        <time>2009-07-10T12:41:39Z</time>
      </trkpt>
      <trkpt lat="44.36893" lon="3.77236">
        <ele>1200</ele>
        <time>2009-07-10T12:41:46Z</time>
      </trkpt>
      <trkpt lat="44.36901" lon="3.77242">
        <ele>1201</ele>
        <time>2009-07-10T12:41:50Z</time>
      </trkpt>
      <trkpt lat="44.36925" lon="3.77258">
        <ele>1203</ele>
        <time>2009-07-10T12:42:02Z</time>
      </trkpt>
      <trkpt lat="44.36947" lon="3.77276">
        <ele>1205</ele>
        <time>2009-07-10T12:42:13Z</time>
      </trkpt>
      <trkpt lat="44.36975" lon="3.77294">
        <ele>1207</ele>
        <time>2009-07-10T12:42:26Z</time>
      </trkpt>
      <trkpt lat="44.37008" lon="3.77299">
        <ele>1210</ele>
        <time>2009-07-10T12:42:39Z</time>
      </trkpt>
      <trkpt lat="44.37044" lon="3.77294">
        <ele>1213</ele>
        <time>2009-07-10T12:42:53Z</time>
      </trkpt>
      <trkpt lat="44.37085" lon="3.77299">
        <ele>1216</ele>
        <time>2009-07-10T12:43:09Z</time>
      </trkpt>
      <trkpt lat="44.37116" lon="3.77303">
        <ele>1219</ele>
        <time>2009-07-10T12:43:21Z</time>
      </trkpt>
      <trkpt lat="44.37145" lon="3.77305">
        <ele>1221</ele>
        <time>2009-07-10T12:43:33Z</time>
      </trkpt>
      <trkpt lat="44.37191" lon="3.77318">
        <ele>1224</ele>
        <time>2009-07-10T12:43:52Z</time>
      </trkpt>
      <trkpt lat="44.37234" lon="3.77336">
        <ele>1228</ele>
        <time>2009-07-10T12:44:10Z</time>
      </trkpt>
      <trkpt lat="44.37241" lon="3.77339">
        <ele>1230</ele>
        <time>2009-07-10T12:44:13Z</time>
      </trkpt>
      <trkpt lat="44.37286" lon="3.77365">
        <ele>1233</ele>
        <time>2009-07-10T12:44:33Z</time>
      </trkpt>
      <trkpt lat="44.37312" lon="3.77389">
        <ele>1236</ele>
        <time>2009-07-10T12:44:46Z</time>
      </trkpt>
      <trkpt lat="44.37336" lon="3.7741">
        <ele>1239</ele>
        <time>2009-07-10T12:44:58Z</time>
      </trkpt>
      <trkpt lat="44.37376" lon="3.77454">
        <ele>1242</ele>
        <time>2009-07-10T12:45:19Z</time>
      </trkpt>
      <trkpt lat="44.37394" lon="3.77522">
        <ele>1245</ele>
        <time>2009-07-10T12:45:39Z</time>
      </trkpt>
      <trkpt lat="44.3739" lon="3.7758">
        <ele>1248</ele>
        <time>2009-07-10T12:45:54Z</time>
      </trkpt>
      <trkpt lat="44.37383" lon="3.77634">
        <ele>1251</ele>
        <time>2009-07-10T12:46:08Z</time>
      </trkpt>
      <trkpt lat="44.3739" lon="3.7765">
        <ele>1252</ele>
        <time>2009-07-10T12:46:15Z</time>
      </trkpt>
      <trkpt lat="44.37389" lon="3.77649">
        <ele>1251</ele>
        <time>2009-07-10T12:46:26Z</time>
      </trkpt>
      <trkpt lat="44.37389" lon="3.77644">
        <ele>1251</ele>
        <time>2009-07-10T12:46:43Z</time>
      </trkpt>
      <trkpt lat="44.37387" lon="3.77646">
        <ele>1251</ele>
        <time>2009-07-10T12:46:49Z</time>
      </trkpt>
      <trkpt lat="44.37391" lon="3.77662">
        <ele>1251</ele>
        <time>2009-07-10T12:47:05Z</time>
      </trkpt>
      <trkpt lat="44.37392" lon="3.77664">
        <ele>1251</ele>
        <time>2009-07-10T12:47:23Z</time>
      </trkpt>
      <trkpt lat="44.37393" lon="3.77664">
        <ele>1252</ele>
        <time>2009-07-10T12:47:25Z</time>
      </trkpt>
      <trkpt lat="44.37395" lon="3.77664">
        <ele>1252</ele>
        <time>2009-07-10T12:47:27Z</time>
      </trkpt>
      <trkpt lat="44.374" lon="3.7766">
        <ele>1252</ele>
        <time>2009-07-10T12:47:43Z</time>
      </trkpt>
      <trkpt lat="44.37403" lon="3.77674">
        <ele>1252</ele>
        <time>2009-07-10T12:49:42Z</time>
      </trkpt>
      <trkpt lat="44.37397" lon="3.77662">
        <ele>1252</ele>
        <time>2009-07-10T12:50:32Z</time>
      </trkpt>
      <trkpt lat="44.37398" lon="3.7766">
        <ele>1252</ele>
        <time>2009-07-10T12:51:12Z</time>
      </trkpt>
      <trkpt lat="44.37395" lon="3.77662">
        <ele>1255</ele>
        <time>2009-07-10T12:52:10Z</time>
      </trkpt>
      <trkpt lat="44.37396" lon="3.77665">
        <ele>1253</ele>
        <time>2009-07-10T12:53:10Z</time>
      </trkpt>
      <trkpt lat="44.37395" lon="3.77665">
        <ele>1254</ele>
        <time>2009-07-10T12:53:35Z</time>
      </trkpt>
      <trkpt lat="44.37397" lon="3.7766">
        <ele>1254</ele>
        <time>2009-07-10T12:56:27Z</time>
      </trkpt>
      <trkpt lat="44.37398" lon="3.77658">
        <ele>1254</ele>
        <time>2009-07-10T12:57:42Z</time>
      </trkpt>
      <trkpt lat="44.37399" lon="3.77659">
        <ele>1253</ele>
        <time>2009-07-10T12:58:22Z</time>
      </trkpt>
      <trkpt lat="44.37396" lon="3.77662">
        <ele>1254</ele>
        <time>2009-07-10T12:59:55Z</time>
      </trkpt>
      <trkpt lat="44.37398" lon="3.77662">
        <ele>1253</ele>
        <time>2009-07-10T13:01:31Z</time>
      </trkpt>
      <trkpt lat="44.37404" lon="3.77669">
        <ele>1254</ele>
        <time>2009-07-10T13:03:28Z</time>
      </trkpt>
      <trkpt lat="44.37398" lon="3.77668">
        <ele>1257</ele>
        <time>2009-07-10T13:08:10Z</time>
      </trkpt>
      <trkpt lat="44.37403" lon="3.77666">
        <ele>1257</ele>
        <time>2009-07-10T13:14:40Z</time>
      </trkpt>
      <trkpt lat="44.37398" lon="3.77662">
        <ele>1257</ele>
        <time>2009-07-10T13:19:29Z</time>
      </trkpt>
      <trkpt lat="44.37397" lon="3.77662">
        <ele>1258</ele>
        <time>2009-07-10T13:25:59Z</time>
      </trkpt>
      <trkpt lat="44.37398" lon="3.7766">
        <ele>1257</ele>
        <time>2009-07-10T13:26:58Z</time>
      </trkpt>
      <trkpt lat="44.37399" lon="3.77664">
        <ele>1257</ele>
        <time>2009-07-10T13:29:15Z</time>
      </trkpt>
      <trkpt lat="44.37397" lon="3.77665">
        <ele>1257</ele>
        <time>2009-07-10T13:30:48Z</time>
      </trkpt>
    </trkseg>
  </trk>
  <trk>
    <name><![CDATA[E02]]></name>
    <trkseg>
      <trkpt lat="44.37397" lon="3.77659">
        <ele>1257</ele>
        <time>2009-07-10T13:37:29Z</time>
      </trkpt>
      <trkpt lat="44.37396" lon="3.77669">
        <ele>1258</ele>
        <time>2009-07-10T13:38:39Z</time>
      </trkpt>
      <trkpt lat="44.37399" lon="3.77682">
        <ele>1258</ele>
        <time>2009-07-10T13:38:46Z</time>
      </trkpt>
      <trkpt lat="44.37412" lon="3.77717">
        <ele>1258</ele>
        <time>2009-07-10T13:38:59Z</time>
      </trkpt>
      <trkpt lat="44.37425" lon="3.77754">
        <ele>1258</ele>
        <time>2009-07-10T13:39:12Z</time>
      </trkpt>
      <trkpt lat="44.37439" lon="3.77792">
        <ele>1259</ele>
        <time>2009-07-10T13:39:26Z</time>
      </trkpt>
      <trkpt lat="44.37441" lon="3.77799">
        <ele>1259</ele>
        <time>2009-07-10T13:39:29Z</time>
      </trkpt>
      <trkpt lat="44.37423" lon="3.77844">
        <ele>1260</ele>
        <time>2009-07-10T13:39:46Z</time>
      </trkpt>
      <trkpt lat="44.3739" lon="3.77889">
        <ele>1261</ele>
        <time>2009-07-10T13:40:04Z</time>
      </trkpt>
      <trkpt lat="44.37363" lon="3.77939">
        <ele>1261</ele>
        <time>2009-07-10T13:40:21Z</time>
      </trkpt>
      <trkpt lat="44.37337" lon="3.78">
        <ele>1263</ele>
        <time>2009-07-10T13:40:40Z</time>
      </trkpt>
      <trkpt lat="44.37323" lon="3.78065">
        <ele>1266</ele>
        <time>2009-07-10T13:40:59Z</time>
      </trkpt>
      <trkpt lat="44.37316" lon="3.78142">
        <ele>1268</ele>
        <time>2009-07-10T13:41:20Z</time>
      </trkpt>
      <trkpt lat="44.37307" lon="3.78214">
        <ele>1268</ele>
        <time>2009-07-10T13:41:39Z</time>
      </trkpt>
      <trkpt lat="44.3728" lon="3.78281">
        <ele>1269</ele>
        <time>2009-07-10T13:41:58Z</time>
      </trkpt>
      <trkpt lat="44.37256" lon="3.78353">
        <ele>1269</ele>
        <time>2009-07-10T13:42:18Z</time>
      </trkpt>
      <trkpt lat="44.3724" lon="3.78393">
        <ele>1271</ele>
        <time>2009-07-10T13:42:30Z</time>
      </trkpt>
      <trkpt lat="44.3723" lon="3.78428">
        <ele>1274</ele>
        <time>2009-07-10T13:42:40Z</time>
      </trkpt>
      <trkpt lat="44.37226" lon="3.78498">
        <ele>1275</ele>
        <time>2009-07-10T13:42:59Z</time>
      </trkpt>
      <trkpt lat="44.37214" lon="3.78574">
        <ele>1277</ele>
        <time>2009-07-10T13:43:20Z</time>
      </trkpt>
      <trkpt lat="44.37198" lon="3.78665">
        <ele>1279</ele>
        <time>2009-07-10T13:43:45Z</time>
      </trkpt>
      <trkpt lat="44.37195" lon="3.7874">
        <ele>1282</ele>
        <time>2009-07-10T13:44:04Z</time>
      </trkpt>
      <trkpt lat="44.37201" lon="3.7882">
        <ele>1283</ele>
        <time>2009-07-10T13:44:24Z</time>
      </trkpt>
      <trkpt lat="44.37231" lon="3.78892">
        <ele>1283</ele>
        <time>2009-07-10T13:44:42Z</time>
      </trkpt>
      <trkpt lat="44.37282" lon="3.78953">
        <ele>1280</ele>
        <time>2009-07-10T13:44:58Z</time>
      </trkpt>
      <trkpt lat="44.37317" lon="3.78998">
        <ele>1278</ele>
        <time>2009-07-10T13:45:07Z</time>
      </trkpt>
      <trkpt lat="44.37324" lon="3.79032">
        <ele>1278</ele>
        <time>2009-07-10T13:45:12Z</time>
      </trkpt>
      <trkpt lat="44.37323" lon="3.79046">
        <ele>1277</ele>
        <time>2009-07-10T13:45:14Z</time>
      </trkpt>
      <trkpt lat="44.37306" lon="3.79065">
        <ele>1278</ele>
        <time>2009-07-10T13:45:21Z</time>
      </trkpt>
      <trkpt lat="44.37293" lon="3.79066">
        <ele>1279</ele>
        <time>2009-07-10T13:45:30Z</time>
      </trkpt>
      <trkpt lat="44.37258" lon="3.79067">
        <ele>1282</ele>
        <time>2009-07-10T13:45:43Z</time>
      </trkpt>
      <trkpt lat="44.37211" lon="3.79063">
        <ele>1282</ele>
        <time>2009-07-10T13:45:56Z</time>
      </trkpt>
      <trkpt lat="44.3716" lon="3.79072">
        <ele>1281</ele>
        <time>2009-07-10T13:46:11Z</time>
      </trkpt>
      <trkpt lat="44.37154" lon="3.79076">
        <ele>1281</ele>
        <time>2009-07-10T13:46:13Z</time>
      </trkpt>
      <trkpt lat="44.37151" lon="3.79097">
        <ele>1281</ele>
        <time>2009-07-10T13:46:18Z</time>
      </trkpt>
      <trkpt lat="44.3717" lon="3.7917">
        <ele>1281</ele>
        <time>2009-07-10T13:46:34Z</time>
      </trkpt>
      <trkpt lat="44.37151" lon="3.79247">
        <ele>1281</ele>
        <time>2009-07-10T13:46:49Z</time>
      </trkpt>
      <trkpt lat="44.37143" lon="3.79297">
        <ele>1280</ele>
        <time>2009-07-10T13:46:59Z</time>
      </trkpt>
      <trkpt lat="44.37147" lon="3.79344">
        <ele>1280</ele>
        <time>2009-07-10T13:47:10Z</time>
      </trkpt>
      <trkpt lat="44.37145" lon="3.79381">
        <ele>1278</ele>
        <time>2009-07-10T13:47:20Z</time>
      </trkpt>
      <trkpt lat="44.37145" lon="3.79391">
        <ele>1278</ele>
        <time>2009-07-10T13:47:26Z</time>
      </trkpt>
      <trkpt lat="44.37151" lon="3.79428">
        <ele>1279</ele>
        <time>2009-07-10T13:47:39Z</time>
      </trkpt>
      <trkpt lat="44.37156" lon="3.79439">
        <ele>1280</ele>
        <time>2009-07-10T13:47:44Z</time>
      </trkpt>
      <trkpt lat="44.37169" lon="3.79479">
        <ele>1282</ele>
        <time>2009-07-10T13:47:58Z</time>
      </trkpt>
      <trkpt lat="44.37172" lon="3.79487">
        <ele>1281</ele>
        <time>2009-07-10T13:48:00Z</time>
      </trkpt>
      <trkpt lat="44.37181" lon="3.79504">
        <ele>1280</ele>
        <time>2009-07-10T13:48:05Z</time>
      </trkpt>
      <trkpt lat="44.37201" lon="3.79572">
        <ele>1277</ele>
        <time>2009-07-10T13:48:19Z</time>
      </trkpt>
      <trkpt lat="44.37202" lon="3.79577">
        <ele>1275</ele>
        <time>2009-07-10T13:48:20Z</time>
      </trkpt>
      <trkpt lat="44.37195" lon="3.79585">
        <ele>1273</ele>
        <time>2009-07-10T13:48:33Z</time>
      </trkpt>
      <trkpt lat="44.37193" lon="3.79585">
        <ele>1274</ele>
        <time>2009-07-10T13:48:39Z</time>
      </trkpt>
      <trkpt lat="44.37194" lon="3.79596">
        <ele>1273</ele>
        <time>2009-07-10T13:48:43Z</time>
      </trkpt>
      <trkpt lat="44.37192" lon="3.79621">
        <ele>1274</ele>
        <time>2009-07-10T13:48:53Z</time>
      </trkpt>
      <trkpt lat="44.37189" lon="3.79626">
        <ele>1274</ele>
        <time>2009-07-10T13:49:05Z</time>
      </trkpt>
      <trkpt lat="44.37185" lon="3.79621">
        <ele>1274</ele>
        <time>2009-07-10T13:49:17Z</time>
      </trkpt>
      <trkpt lat="44.37181" lon="3.79627">
        <ele>1274</ele>
        <time>2009-07-10T13:49:26Z</time>
      </trkpt>
      <trkpt lat="44.37176" lon="3.79634">
        <ele>1274</ele>
        <time>2009-07-10T13:49:39Z</time>
      </trkpt>
      <trkpt lat="44.37175" lon="3.79634">
        <ele>1273</ele>
        <time>2009-07-10T13:49:40Z</time>
      </trkpt>
      <trkpt lat="44.37166" lon="3.79637">
        <ele>1273</ele>
        <time>2009-07-10T13:49:53Z</time>
      </trkpt>
      <trkpt lat="44.37161" lon="3.79626">
        <ele>1274</ele>
        <time>2009-07-10T13:50:03Z</time>
      </trkpt>
      <trkpt lat="44.37158" lon="3.79618">
        <ele>1274</ele>
        <time>2009-07-10T13:50:17Z</time>
      </trkpt>
      <trkpt lat="44.37153" lon="3.79604">
        <ele>1273</ele>
        <time>2009-07-10T13:50:29Z</time>
      </trkpt>
      <trkpt lat="44.37147" lon="3.79587">
        <ele>1274</ele>
        <time>2009-07-10T13:50:44Z</time>
      </trkpt>
      <trkpt lat="44.37136" lon="3.79578">
        <ele>1273</ele>
        <time>2009-07-10T13:50:57Z</time>
      </trkpt>
      <trkpt lat="44.37126" lon="3.7958">
        <ele>1274</ele>
        <time>2009-07-10T13:51:12Z</time>
      </trkpt>
      <trkpt lat="44.37126" lon="3.79582">
        <ele>1275</ele>
        <time>2009-07-10T13:54:00Z</time>
      </trkpt>
      <trkpt lat="44.37103" lon="3.79595">
        <ele>1276</ele>
        <time>2009-07-10T13:54:15Z</time>
      </trkpt>
      <trkpt lat="44.37101" lon="3.79594">
        <ele>1276</ele>
        <time>2009-07-10T13:54:16Z</time>
      </trkpt>
      <trkpt lat="44.37086" lon="3.79579">
        <ele>1278</ele>
        <time>2009-07-10T13:54:25Z</time>
      </trkpt>
      <trkpt lat="44.37077" lon="3.79571">
        <ele>1278</ele>
        <time>2009-07-10T13:54:31Z</time>
      </trkpt>
      <trkpt lat="44.3707" lon="3.79575">
        <ele>1278</ele>
        <time>2009-07-10T13:54:36Z</time>
      </trkpt>
      <trkpt lat="44.37064" lon="3.79592">
        <ele>1280</ele>
        <time>2009-07-10T13:54:44Z</time>
      </trkpt>
      <trkpt lat="44.37061" lon="3.79598">
        <ele>1280</ele>
        <time>2009-07-10T13:54:48Z</time>
      </trkpt>
      <trkpt lat="44.37051" lon="3.79624">
        <ele>1281</ele>
        <time>2009-07-10T13:55:02Z</time>
      </trkpt>
      <trkpt lat="44.3704" lon="3.79646">
        <ele>1284</ele>
        <time>2009-07-10T13:55:16Z</time>
      </trkpt>
      <trkpt lat="44.37034" lon="3.79665">
        <ele>1285</ele>
        <time>2009-07-10T13:55:26Z</time>
      </trkpt>
      <trkpt lat="44.3703" lon="3.79673">
        <ele>1286</ele>
        <time>2009-07-10T13:55:30Z</time>
      </trkpt>
      <trkpt lat="44.37032" lon="3.79682">
        <ele>1287</ele>
        <time>2009-07-10T13:55:34Z</time>
      </trkpt>
      <trkpt lat="44.37035" lon="3.79716">
        <ele>1288</ele>
        <time>2009-07-10T13:55:48Z</time>
      </trkpt>
      <trkpt lat="44.37034" lon="3.79747">
        <ele>1290</ele>
        <time>2009-07-10T13:56:01Z</time>
      </trkpt>
      <trkpt lat="44.37028" lon="3.79773">
        <ele>1293</ele>
        <time>2009-07-10T13:56:13Z</time>
      </trkpt>
      <trkpt lat="44.37023" lon="3.79793">
        <ele>1294</ele>
        <time>2009-07-10T13:56:22Z</time>
      </trkpt>
      <trkpt lat="44.3702" lon="3.79798">
        <ele>1294</ele>
        <time>2009-07-10T13:56:26Z</time>
      </trkpt>
      <trkpt lat="44.37013" lon="3.79808">
        <ele>1295</ele>
        <time>2009-07-10T13:56:32Z</time>
      </trkpt>
      <trkpt lat="44.37007" lon="3.79829">
        <ele>1297</ele>
        <time>2009-07-10T13:56:42Z</time>
      </trkpt>
      <trkpt lat="44.37008" lon="3.7987">
        <ele>1300</ele>
        <time>2009-07-10T13:56:59Z</time>
      </trkpt>
      <trkpt lat="44.37003" lon="3.79898">
        <ele>1303</ele>
        <time>2009-07-10T13:57:13Z</time>
      </trkpt>
      <trkpt lat="44.36999" lon="3.799">
        <ele>1304</ele>
        <time>2009-07-10T13:57:16Z</time>
      </trkpt>
      <trkpt lat="44.3699" lon="3.79915">
        <ele>1307</ele>
        <time>2009-07-10T13:57:26Z</time>
      </trkpt>
      <trkpt lat="44.36982" lon="3.79942">
        <ele>1309</ele>
        <time>2009-07-10T13:57:40Z</time>
      </trkpt>
      <trkpt lat="44.3698" lon="3.79954">
        <ele>1310</ele>
        <time>2009-07-10T13:57:46Z</time>
      </trkpt>
      <trkpt lat="44.36983" lon="3.79985">
        <ele>1312</ele>
        <time>2009-07-10T13:58:01Z</time>
      </trkpt>
      <trkpt lat="44.36978" lon="3.79993">
        <ele>1314</ele>
        <time>2009-07-10T13:58:07Z</time>
      </trkpt>
      <trkpt lat="44.36985" lon="3.8003">
        <ele>1314</ele>
        <time>2009-07-10T13:58:23Z</time>
      </trkpt>
      <trkpt lat="44.36988" lon="3.80038">
        <ele>1312</ele>
        <time>2009-07-10T13:58:36Z</time>
      </trkpt>
      <trkpt lat="44.36989" lon="3.80042">
        <ele>1314</ele>
        <time>2009-07-10T13:58:55Z</time>
      </trkpt>
      <trkpt lat="44.36991" lon="3.80041">
        <ele>1314</ele>
        <time>2009-07-10T13:59:34Z</time>
      </trkpt>
      <trkpt lat="44.3699" lon="3.80042">
        <ele>1312</ele>
        <time>2009-07-10T13:59:53Z</time>
      </trkpt>
      <trkpt lat="44.3699" lon="3.80042">
        <ele>1313</ele>
        <time>2009-07-10T14:00:02Z</time>
      </trkpt>
      <trkpt lat="44.36996" lon="3.80051">
        <ele>1313</ele>
        <time>2009-07-10T14:00:08Z</time>
      </trkpt>
      <trkpt lat="44.37014" lon="3.80096">
        <ele>1313</ele>
        <time>2009-07-10T14:00:24Z</time>
      </trkpt>
      <trkpt lat="44.37033" lon="3.8013">
        <ele>1315</ele>
        <time>2009-07-10T14:00:38Z</time>
      </trkpt>
      <trkpt lat="44.37052" lon="3.80154">
        <ele>1316</ele>
        <time>2009-07-10T14:00:49Z</time>
      </trkpt>
      <trkpt lat="44.37079" lon="3.80189">
        <ele>1314</ele>
        <time>2009-07-10T14:01:02Z</time>
      </trkpt>
      <trkpt lat="44.37104" lon="3.80222">
        <ele>1315</ele>
        <time>2009-07-10T14:01:15Z</time>
      </trkpt>
      <trkpt lat="44.37126" lon="3.80258">
        <ele>1317</ele>
        <time>2009-07-10T14:01:28Z</time>
      </trkpt>
      <trkpt lat="44.37142" lon="3.80298">
        <ele>1318</ele>
        <time>2009-07-10T14:01:41Z</time>
      </trkpt>
      <trkpt lat="44.37149" lon="3.80336">
        <ele>1319</ele>
        <time>2009-07-10T14:01:52Z</time>
      </trkpt>
      <trkpt lat="44.37165" lon="3.80376">
        <ele>1319</ele>
        <time>2009-07-10T14:02:04Z</time>
      </trkpt>
      <trkpt lat="44.37168" lon="3.80382">
        <ele>1319</ele>
        <time>2009-07-10T14:02:17Z</time>
      </trkpt>
      <trkpt lat="44.37171" lon="3.80385">
        <ele>1319</ele>
        <time>2009-07-10T14:02:20Z</time>
      </trkpt>
      <trkpt lat="44.37175" lon="3.80394">
        <ele>1319</ele>
        <time>2009-07-10T14:02:24Z</time>
      </trkpt>
      <trkpt lat="44.37188" lon="3.80431">
        <ele>1319</ele>
        <time>2009-07-10T14:02:38Z</time>
      </trkpt>
      <trkpt lat="44.37191" lon="3.80471">
        <ele>1322</ele>
        <time>2009-07-10T14:02:52Z</time>
      </trkpt>
      <trkpt lat="44.37198" lon="3.80514">
        <ele>1323</ele>
        <time>2009-07-10T14:03:05Z</time>
      </trkpt>
      <trkpt lat="44.37207" lon="3.80556">
        <ele>1323</ele>
        <time>2009-07-10T14:03:18Z</time>
      </trkpt>
      <trkpt lat="44.37206" lon="3.80594">
        <ele>1325</ele>
        <time>2009-07-10T14:03:31Z</time>
      </trkpt>
      <trkpt lat="44.37203" lon="3.80597">
        <ele>1326</ele>
        <time>2009-07-10T14:03:34Z</time>
      </trkpt>
      <trkpt lat="44.37193" lon="3.80618">
        <ele>1328</ele>
        <time>2009-07-10T14:03:46Z</time>
      </trkpt>
      <trkpt lat="44.37186" lon="3.80657">
        <ele>1328</ele>
        <time>2009-07-10T14:03:58Z</time>
      </trkpt>
      <trkpt lat="44.37175" lon="3.80681">
        <ele>1327</ele>
        <time>2009-07-10T14:04:10Z</time>
      </trkpt>
      <trkpt lat="44.37161" lon="3.80701">
        <ele>1327</ele>
        <time>2009-07-10T14:04:27Z</time>
      </trkpt>
      <trkpt lat="44.37148" lon="3.80713">
        <ele>1327</ele>
        <time>2009-07-10T14:04:47Z</time>
      </trkpt>
      <trkpt lat="44.37135" lon="3.8073">
        <ele>1324</ele>
        <time>2009-07-10T14:04:53Z</time>
      </trkpt>
      <trkpt lat="44.3712" lon="3.80764">
        <ele>1324</ele>
        <time>2009-07-10T14:05:01Z</time>
      </trkpt>
      <trkpt lat="44.37119" lon="3.80773">
        <ele>1326</ele>
        <time>2009-07-10T14:05:05Z</time>
      </trkpt>
      <trkpt lat="44.37109" lon="3.80806">
        <ele>1326</ele>
        <time>2009-07-10T14:05:15Z</time>
      </trkpt>
      <trkpt lat="44.37097" lon="3.80827">
        <ele>1326</ele>
        <time>2009-07-10T14:05:22Z</time>
      </trkpt>
      <trkpt lat="44.37089" lon="3.80844">
        <ele>1326</ele>
        <time>2009-07-10T14:05:28Z</time>
      </trkpt>
      <trkpt lat="44.37084" lon="3.80856">
        <ele>1325</ele>
        <time>2009-07-10T14:05:32Z</time>
      </trkpt>
      <trkpt lat="44.37074" lon="3.80864">
        <ele>1325</ele>
        <time>2009-07-10T14:05:36Z</time>
      </trkpt>
      <trkpt lat="44.37061" lon="3.8088">
        <ele>1325</ele>
        <time>2009-07-10T14:05:43Z</time>
      </trkpt>
      <trkpt lat="44.37046" lon="3.80896">
        <ele>1325</ele>
        <time>2009-07-10T14:05:53Z</time>
      </trkpt>
      <trkpt lat="44.37035" lon="3.80901">
        <ele>1325</ele>
        <time>2009-07-10T14:05:58Z</time>
      </trkpt>
      <trkpt lat="44.37032" lon="3.80903">
        <ele>1324</ele>
        <time>2009-07-10T14:06:00Z</time>
      </trkpt>
      <trkpt lat="44.37028" lon="3.80908">
        <ele>1324</ele>
        <time>2009-07-10T14:06:09Z</time>
      </trkpt>
      <trkpt lat="44.37026" lon="3.80909">
        <ele>1324</ele>
        <time>2009-07-10T14:06:12Z</time>
      </trkpt>
      <trkpt lat="44.37016" lon="3.80919">
        <ele>1323</ele>
        <time>2009-07-10T14:06:25Z</time>
      </trkpt>
      <trkpt lat="44.37013" lon="3.80925">
        <ele>1324</ele>
        <time>2009-07-10T14:06:35Z</time>
      </trkpt>
      <trkpt lat="44.37017" lon="3.80937">
        <ele>1325</ele>
        <time>2009-07-10T14:06:51Z</time>
      </trkpt>
      <trkpt lat="44.37017" lon="3.80938">
        <ele>1324</ele>
        <time>2009-07-10T14:06:55Z</time>
      </trkpt>
      <trkpt lat="44.37012" lon="3.80959">
        <ele>1324</ele>
        <time>2009-07-10T14:07:03Z</time>
      </trkpt>
      <trkpt lat="44.37011" lon="3.80991">
        <ele>1326</ele>
        <time>2009-07-10T14:07:12Z</time>
      </trkpt>
      <trkpt lat="44.37011" lon="3.80994">
        <ele>1326</ele>
        <time>2009-07-10T14:07:13Z</time>
      </trkpt>
      <trkpt lat="44.37003" lon="3.81053">
        <ele>1327</ele>
        <time>2009-07-10T14:07:29Z</time>
      </trkpt>
      <trkpt lat="44.37007" lon="3.81107">
        <ele>1327</ele>
        <time>2009-07-10T14:07:42Z</time>
      </trkpt>
      <trkpt lat="44.37003" lon="3.81153">
        <ele>1328</ele>
        <time>2009-07-10T14:07:53Z</time>
      </trkpt>
      <trkpt lat="44.36994" lon="3.81199">
        <ele>1327</ele>
        <time>2009-07-10T14:08:04Z</time>
      </trkpt>
      <trkpt lat="44.36994" lon="3.81204">
        <ele>1327</ele>
        <time>2009-07-10T14:08:05Z</time>
      </trkpt>
      <trkpt lat="44.36976" lon="3.81223">
        <ele>1327</ele>
        <time>2009-07-10T14:08:13Z</time>
      </trkpt>
      <trkpt lat="44.36937" lon="3.81249">
        <ele>1327</ele>
        <time>2009-07-10T14:08:26Z</time>
      </trkpt>
      <trkpt lat="44.36897" lon="3.81285">
        <ele>1328</ele>
        <time>2009-07-10T14:08:41Z</time>
      </trkpt>
      <trkpt lat="44.36883" lon="3.8129">
        <ele>1328</ele>
        <time>2009-07-10T14:08:45Z</time>
      </trkpt>
      <trkpt lat="44.36866" lon="3.81321">
        <ele>1327</ele>
        <time>2009-07-10T14:08:54Z</time>
      </trkpt>
      <trkpt lat="44.36846" lon="3.81346">
        <ele>1327</ele>
        <time>2009-07-10T14:09:04Z</time>
      </trkpt>
      <trkpt lat="44.36843" lon="3.8135">
        <ele>1327</ele>
        <time>2009-07-10T14:09:05Z</time>
      </trkpt>
      <trkpt lat="44.36833" lon="3.8137">
        <ele>1329</ele>
        <time>2009-07-10T14:09:13Z</time>
      </trkpt>
      <trkpt lat="44.36831" lon="3.81381">
        <ele>1330</ele>
        <time>2009-07-10T14:09:16Z</time>
      </trkpt>
      <trkpt lat="44.36827" lon="3.81392">
        <ele>1330</ele>
        <time>2009-07-10T14:09:19Z</time>
      </trkpt>
      <trkpt lat="44.36828" lon="3.81414">
        <ele>1330</ele>
        <time>2009-07-10T14:09:25Z</time>
      </trkpt>
      <trkpt lat="44.36828" lon="3.81433">
        <ele>1331</ele>
        <time>2009-07-10T14:09:30Z</time>
      </trkpt>
      <trkpt lat="44.3683" lon="3.81463">
        <ele>1329</ele>
        <time>2009-07-10T14:09:40Z</time>
      </trkpt>
      <trkpt lat="44.36837" lon="3.81481">
        <ele>1329</ele>
        <time>2009-07-10T14:09:48Z</time>
      </trkpt>
      <trkpt lat="44.36847" lon="3.81491">
        <ele>1328</ele>
        <time>2009-07-10T14:09:51Z</time>
      </trkpt>
      <trkpt lat="44.3685" lon="3.81495">
        <ele>1329</ele>
        <time>2009-07-10T14:09:53Z</time>
      </trkpt>
      <trkpt lat="44.36851" lon="3.81497">
        <ele>1329</ele>
        <time>2009-07-10T14:09:55Z</time>
      </trkpt>
      <trkpt lat="44.36853" lon="3.81506">
        <ele>1329</ele>
        <time>2009-07-10T14:10:00Z</time>
      </trkpt>
      <trkpt lat="44.36857" lon="3.81512">
        <ele>1329</ele>
        <time>2009-07-10T14:10:02Z</time>
      </trkpt>
      <trkpt lat="44.36871" lon="3.81521">
        <ele>1327</ele>
        <time>2009-07-10T14:10:06Z</time>
      </trkpt>
      <trkpt lat="44.36882" lon="3.81535">
        <ele>1327</ele>
        <time>2009-07-10T14:10:11Z</time>
      </trkpt>
      <trkpt lat="44.36898" lon="3.81542">
        <ele>1328</ele>
        <time>2009-07-10T14:10:16Z</time>
      </trkpt>
      <trkpt lat="44.36943" lon="3.81566">
        <ele>1327</ele>
        <time>2009-07-10T14:10:30Z</time>
      </trkpt>
      <trkpt lat="44.36995" lon="3.81592">
        <ele>1327</ele>
        <time>2009-07-10T14:10:46Z</time>
      </trkpt>
      <trkpt lat="44.37022" lon="3.8161">
        <ele>1328</ele>
        <time>2009-07-10T14:10:56Z</time>
      </trkpt>
      <trkpt lat="44.37029" lon="3.8163">
        <ele>1328</ele>
        <time>2009-07-10T14:11:01Z</time>
      </trkpt>
      <trkpt lat="44.37041" lon="3.8164">
        <ele>1328</ele>
        <time>2009-07-10T14:11:06Z</time>
      </trkpt>
      <trkpt lat="44.37056" lon="3.81649">
        <ele>1327</ele>
        <time>2009-07-10T14:11:11Z</time>
      </trkpt>
      <trkpt lat="44.37102" lon="3.81677">
        <ele>1329</ele>
        <time>2009-07-10T14:11:27Z</time>
      </trkpt>
      <trkpt lat="44.37128" lon="3.81713">
        <ele>1329</ele>
        <time>2009-07-10T14:11:39Z</time>
      </trkpt>
      <trkpt lat="44.37162" lon="3.81762">
        <ele>1329</ele>
        <time>2009-07-10T14:11:55Z</time>
      </trkpt>
      <trkpt lat="44.37174" lon="3.8181">
        <ele>1330</ele>
        <time>2009-07-10T14:12:06Z</time>
      </trkpt>
      <trkpt lat="44.37161" lon="3.81868">
        <ele>1329</ele>
        <time>2009-07-10T14:12:19Z</time>
      </trkpt>
      <trkpt lat="44.37158" lon="3.81874">
        <ele>1329</ele>
        <time>2009-07-10T14:12:23Z</time>
      </trkpt>
      <trkpt lat="44.3715" lon="3.81876">
        <ele>1330</ele>
        <time>2009-07-10T14:12:28Z</time>
      </trkpt>
      <trkpt lat="44.37147" lon="3.81892">
        <ele>1330</ele>
        <time>2009-07-10T14:12:33Z</time>
      </trkpt>
      <trkpt lat="44.37141" lon="3.81945">
        <ele>1329</ele>
        <time>2009-07-10T14:12:45Z</time>
      </trkpt>
      <trkpt lat="44.37128" lon="3.81987">
        <ele>1329</ele>
        <time>2009-07-10T14:12:56Z</time>
      </trkpt>
      <trkpt lat="44.37126" lon="3.8202">
        <ele>1330</ele>
        <time>2009-07-10T14:13:05Z</time>
      </trkpt>
      <trkpt lat="44.37126" lon="3.8203">
        <ele>1329</ele>
        <time>2009-07-10T14:13:07Z</time>
      </trkpt>
      <trkpt lat="44.3714" lon="3.82074">
        <ele>1330</ele>
        <time>2009-07-10T14:13:17Z</time>
      </trkpt>
      <trkpt lat="44.37144" lon="3.82081">
        <ele>1331</ele>
        <time>2009-07-10T14:13:19Z</time>
      </trkpt>
      <trkpt lat="44.37161" lon="3.82119">
        <ele>1332</ele>
        <time>2009-07-10T14:13:30Z</time>
      </trkpt>
      <trkpt lat="44.37176" lon="3.82157">
        <ele>1331</ele>
        <time>2009-07-10T14:13:40Z</time>
      </trkpt>
      <trkpt lat="44.37191" lon="3.82185">
        <ele>1330</ele>
        <time>2009-07-10T14:13:50Z</time>
      </trkpt>
      <trkpt lat="44.37213" lon="3.82208">
        <ele>1330</ele>
        <time>2009-07-10T14:13:59Z</time>
      </trkpt>
      <trkpt lat="44.37223" lon="3.82214">
        <ele>1329</ele>
        <time>2009-07-10T14:14:03Z</time>
      </trkpt>
      <trkpt lat="44.37234" lon="3.82208">
        <ele>1328</ele>
        <time>2009-07-10T14:14:10Z</time>
      </trkpt>
      <trkpt lat="44.37237" lon="3.82212">
        <ele>1329</ele>
        <time>2009-07-10T14:14:27Z</time>
      </trkpt>
      <trkpt lat="44.37236" lon="3.8221">
        <ele>1329</ele>
        <time>2009-07-10T14:14:47Z</time>
      </trkpt>
      <trkpt lat="44.37234" lon="3.82211">
        <ele>1331</ele>
        <time>2009-07-10T14:15:52Z</time>
      </trkpt>
      <trkpt lat="44.37235" lon="3.82211">
        <ele>1330</ele>
        <time>2009-07-10T14:16:47Z</time>
      </trkpt>
      <trkpt lat="44.37235" lon="3.82212">
        <ele>1331</ele>
        <time>2009-07-10T14:17:23Z</time>
      </trkpt>
      <trkpt lat="44.37234" lon="3.82215">
        <ele>1331</ele>
        <time>2009-07-10T14:17:38Z</time>
      </trkpt>
      <trkpt lat="44.37234" lon="3.8222">
        <ele>1332</ele>
        <time>2009-07-10T14:17:41Z</time>
      </trkpt>
      <trkpt lat="44.37251" lon="3.82253">
        <ele>1332</ele>
        <time>2009-07-10T14:17:56Z</time>
      </trkpt>
      <trkpt lat="44.37283" lon="3.82267">
        <ele>1333</ele>
        <time>2009-07-10T14:18:10Z</time>
      </trkpt>
      <trkpt lat="44.37317" lon="3.82272">
        <ele>1333</ele>
        <time>2009-07-10T14:18:22Z</time>
      </trkpt>
      <trkpt lat="44.37349" lon="3.82277">
        <ele>1333</ele>
        <time>2009-07-10T14:18:34Z</time>
      </trkpt>
      <trkpt lat="44.37377" lon="3.82284">
        <ele>1333</ele>
        <time>2009-07-10T14:18:47Z</time>
      </trkpt>
      <trkpt lat="44.37424" lon="3.82327">
        <ele>1333</ele>
        <time>2009-07-10T14:19:07Z</time>
      </trkpt>
      <trkpt lat="44.37461" lon="3.82367">
        <ele>1336</ele>
        <time>2009-07-10T14:19:23Z</time>
      </trkpt>
      <trkpt lat="44.37464" lon="3.82369">
        <ele>1336</ele>
        <time>2009-07-10T14:19:24Z</time>
      </trkpt>
      <trkpt lat="44.37501" lon="3.82408">
        <ele>1337</ele>
        <time>2009-07-10T14:19:39Z</time>
      </trkpt>
      <trkpt lat="44.37553" lon="3.82465">
        <ele>1337</ele>
        <time>2009-07-10T14:19:56Z</time>
      </trkpt>
      <trkpt lat="44.37572" lon="3.82491">
        <ele>1337</ele>
        <time>2009-07-10T14:20:03Z</time>
      </trkpt>
      <trkpt lat="44.37584" lon="3.82556">
        <ele>1339</ele>
        <time>2009-07-10T14:20:16Z</time>
      </trkpt>
      <trkpt lat="44.37568" lon="3.82625">
        <ele>1340</ele>
        <time>2009-07-10T14:20:31Z</time>
      </trkpt>
      <trkpt lat="44.37563" lon="3.82635">
        <ele>1340</ele>
        <time>2009-07-10T14:20:33Z</time>
      </trkpt>
      <trkpt lat="44.37556" lon="3.82655">
        <ele>1341</ele>
        <time>2009-07-10T14:20:37Z</time>
      </trkpt>
      <trkpt lat="44.37527" lon="3.82731">
        <ele>1342</ele>
        <time>2009-07-10T14:20:53Z</time>
      </trkpt>
      <trkpt lat="44.37521" lon="3.82738">
        <ele>1342</ele>
        <time>2009-07-10T14:20:55Z</time>
      </trkpt>
      <trkpt lat="44.37483" lon="3.82763">
        <ele>1343</ele>
        <time>2009-07-10T14:21:07Z</time>
      </trkpt>
      <trkpt lat="44.37435" lon="3.82777">
        <ele>1345</ele>
        <time>2009-07-10T14:21:22Z</time>
      </trkpt>
      <trkpt lat="44.3739" lon="3.82807">
        <ele>1347</ele>
        <time>2009-07-10T14:21:38Z</time>
      </trkpt>
      <trkpt lat="44.3738" lon="3.82856">
        <ele>1349</ele>
        <time>2009-07-10T14:21:50Z</time>
      </trkpt>
      <trkpt lat="44.37406" lon="3.82908">
        <ele>1350</ele>
        <time>2009-07-10T14:22:04Z</time>
      </trkpt>
      <trkpt lat="44.3744" lon="3.82967">
        <ele>1351</ele>
        <time>2009-07-10T14:22:21Z</time>
      </trkpt>
      <trkpt lat="44.37461" lon="3.83023">
        <ele>1353</ele>
        <time>2009-07-10T14:22:35Z</time>
      </trkpt>
      <trkpt lat="44.37468" lon="3.8307">
        <ele>1354</ele>
        <time>2009-07-10T14:22:46Z</time>
      </trkpt>
      <trkpt lat="44.37468" lon="3.83137">
        <ele>1357</ele>
        <time>2009-07-10T14:23:01Z</time>
      </trkpt>
      <trkpt lat="44.37454" lon="3.83204">
        <ele>1358</ele>
        <time>2009-07-10T14:23:16Z</time>
      </trkpt>
      <trkpt lat="44.37425" lon="3.83264">
        <ele>1357</ele>
        <time>2009-07-10T14:23:30Z</time>
      </trkpt>
      <trkpt lat="44.37395" lon="3.83334">
        <ele>1358</ele>
        <time>2009-07-10T14:23:45Z</time>
      </trkpt>
      <trkpt lat="44.37362" lon="3.83394">
        <ele>1358</ele>
        <time>2009-07-10T14:23:59Z</time>
      </trkpt>
      <trkpt lat="44.37322" lon="3.83465">
        <ele>1361</ele>
        <time>2009-07-10T14:24:17Z</time>
      </trkpt>
      <trkpt lat="44.37337" lon="3.83502">
        <ele>1362</ele>
        <time>2009-07-10T14:24:29Z</time>
      </trkpt>
      <trkpt lat="44.3734" lon="3.83504">
        <ele>1362</ele>
        <time>2009-07-10T14:24:42Z</time>
      </trkpt>
      <trkpt lat="44.37344" lon="3.83503">
        <ele>1362</ele>
        <time>2009-07-10T14:25:01Z</time>
      </trkpt>
      <trkpt lat="44.37341" lon="3.83506">
        <ele>1363</ele>
        <time>2009-07-10T14:25:40Z</time>
      </trkpt>
      <trkpt lat="44.37355" lon="3.83506">
        <ele>1364</ele>
        <time>2009-07-10T14:26:03Z</time>
      </trkpt>
      <trkpt lat="44.3739" lon="3.83485">
        <ele>1366</ele>
        <time>2009-07-10T14:26:16Z</time>
      </trkpt>
      <trkpt lat="44.37432" lon="3.83484">
        <ele>1367</ele>
        <time>2009-07-10T14:26:31Z</time>
      </trkpt>
      <trkpt lat="44.37479" lon="3.83508">
        <ele>1369</ele>
        <time>2009-07-10T14:26:48Z</time>
      </trkpt>
      <trkpt lat="44.37529" lon="3.83538">
        <ele>1370</ele>
        <time>2009-07-10T14:27:06Z</time>
      </trkpt>
      <trkpt lat="44.37532" lon="3.83542">
        <ele>1371</ele>
        <time>2009-07-10T14:27:21Z</time>
      </trkpt>
      <trkpt lat="44.37544" lon="3.83554">
        <ele>1372</ele>
        <time>2009-07-10T14:27:45Z</time>
      </trkpt>
      <trkpt lat="44.37548" lon="3.83559">
        <ele>1372</ele>
        <time>2009-07-10T14:28:00Z</time>
      </trkpt>
      <trkpt lat="44.37548" lon="3.83558">
        <ele>1372</ele>
        <time>2009-07-10T14:28:01Z</time>
      </trkpt>
      <trkpt lat="44.37521" lon="3.83534">
        <ele>1371</ele>
        <time>2009-07-10T14:28:12Z</time>
      </trkpt>
      <trkpt lat="44.37476" lon="3.83508">
        <ele>1370</ele>
        <time>2009-07-10T14:28:23Z</time>
      </trkpt>
      <trkpt lat="44.37453" lon="3.83491">
        <ele>1369</ele>
        <time>2009-07-10T14:28:29Z</time>
      </trkpt>
      <trkpt lat="44.37433" lon="3.83484">
        <ele>1368</ele>
        <time>2009-07-10T14:28:33Z</time>
      </trkpt>
      <trkpt lat="44.37415" lon="3.83481">
        <ele>1368</ele>
        <time>2009-07-10T14:28:37Z</time>
      </trkpt>
      <trkpt lat="44.37395" lon="3.83482">
        <ele>1365</ele>
        <time>2009-07-10T14:28:41Z</time>
      </trkpt>
      <trkpt lat="44.37353" lon="3.83504">
        <ele>1364</ele>
        <time>2009-07-10T14:28:52Z</time>
      </trkpt>
      <trkpt lat="44.37335" lon="3.83498">
        <ele>1362</ele>
        <time>2009-07-10T14:28:58Z</time>
      </trkpt>
      <trkpt lat="44.37326" lon="3.83482">
        <ele>1361</ele>
        <time>2009-07-10T14:29:03Z</time>
      </trkpt>
      <trkpt lat="44.3733" lon="3.83471">
        <ele>1360</ele>
        <time>2009-07-10T14:29:08Z</time>
      </trkpt>
      <trkpt lat="44.37353" lon="3.83467">
        <ele>1358</ele>
        <time>2009-07-10T14:29:17Z</time>
      </trkpt>
      <trkpt lat="44.37362" lon="3.83463">
        <ele>1358</ele>
        <time>2009-07-10T14:29:21Z</time>
      </trkpt>
      <trkpt lat="44.37373" lon="3.83446">
        <ele>1357</ele>
        <time>2009-07-10T14:29:25Z</time>
      </trkpt>
      <trkpt lat="44.3739" lon="3.83431">
        <ele>1357</ele>
        <time>2009-07-10T14:29:30Z</time>
      </trkpt>
      <trkpt lat="44.37409" lon="3.83423">
        <ele>1355</ele>
        <time>2009-07-10T14:29:35Z</time>
      </trkpt>
      <trkpt lat="44.37428" lon="3.83422">
        <ele>1354</ele>
        <time>2009-07-10T14:29:39Z</time>
      </trkpt>
      <trkpt lat="44.37447" lon="3.83419">
        <ele>1354</ele>
        <time>2009-07-10T14:29:43Z</time>
      </trkpt>
      <trkpt lat="44.37456" lon="3.83415">
        <ele>1351</ele>
        <time>2009-07-10T14:29:45Z</time>
      </trkpt>
      <trkpt lat="44.37466" lon="3.83414">
        <ele>1350</ele>
        <time>2009-07-10T14:29:47Z</time>
      </trkpt>
      <trkpt lat="44.37471" lon="3.83414">
        <ele>1351</ele>
        <time>2009-07-10T14:29:48Z</time>
      </trkpt>
      <trkpt lat="44.3749" lon="3.83417">
        <ele>1351</ele>
        <time>2009-07-10T14:29:52Z</time>
      </trkpt>
      <trkpt lat="44.37554" lon="3.83414">
        <ele>1351</ele>
        <time>2009-07-10T14:30:08Z</time>
      </trkpt>
      <trkpt lat="44.37568" lon="3.83409">
        <ele>1352</ele>
        <time>2009-07-10T14:30:12Z</time>
      </trkpt>
      <trkpt lat="44.3758" lon="3.83402">
        <ele>1352</ele>
        <time>2009-07-10T14:30:17Z</time>
      </trkpt>
      <trkpt lat="44.37612" lon="3.834">
        <ele>1353</ele>
        <time>2009-07-10T14:30:28Z</time>
      </trkpt>
      <trkpt lat="44.37656" lon="3.83402">
        <ele>1354</ele>
        <time>2009-07-10T14:30:43Z</time>
      </trkpt>
      <trkpt lat="44.3769" lon="3.83411">
        <ele>1354</ele>
        <time>2009-07-10T14:30:54Z</time>
      </trkpt>
      <trkpt lat="44.37719" lon="3.8342">
        <ele>1354</ele>
        <time>2009-07-10T14:31:04Z</time>
      </trkpt>
      <trkpt lat="44.37732" lon="3.83425">
        <ele>1352</ele>
        <time>2009-07-10T14:31:08Z</time>
      </trkpt>
      <trkpt lat="44.37772" lon="3.83436">
        <ele>1354</ele>
        <time>2009-07-10T14:31:21Z</time>
      </trkpt>
      <trkpt lat="44.37778" lon="3.8344">
        <ele>1355</ele>
        <time>2009-07-10T14:31:23Z</time>
      </trkpt>
      <trkpt lat="44.37788" lon="3.83444">
        <ele>1355</ele>
        <time>2009-07-10T14:31:27Z</time>
      </trkpt>
      <trkpt lat="44.37821" lon="3.83443">
        <ele>1354</ele>
        <time>2009-07-10T14:31:37Z</time>
      </trkpt>
      <trkpt lat="44.37831" lon="3.83435">
        <ele>1353</ele>
        <time>2009-07-10T14:31:40Z</time>
      </trkpt>
      <trkpt lat="44.37839" lon="3.83433">
        <ele>1353</ele>
        <time>2009-07-10T14:31:45Z</time>
      </trkpt>
      <trkpt lat="44.37842" lon="3.83433">
        <ele>1354</ele>
        <time>2009-07-10T14:31:50Z</time>
      </trkpt>
      <trkpt lat="44.37843" lon="3.83434">
        <ele>1353</ele>
        <time>2009-07-10T14:31:53Z</time>
      </trkpt>
      <trkpt lat="44.37851" lon="3.8343">
        <ele>1354</ele>
        <time>2009-07-10T14:32:07Z</time>
      </trkpt>
      <trkpt lat="44.37849" lon="3.83429">
        <ele>1353</ele>
        <time>2009-07-10T14:33:33Z</time>
      </trkpt>
      <trkpt lat="44.3785" lon="3.83428">
        <ele>1353</ele>
        <time>2009-07-10T14:34:18Z</time>
      </trkpt>
      <trkpt lat="44.37852" lon="3.83427">
        <ele>1353</ele>
        <time>2009-07-10T14:34:35Z</time>
      </trkpt>
      <trkpt lat="44.37852" lon="3.83427">
        <ele>1354</ele>
        <time>2009-07-10T14:34:43Z</time>
      </trkpt>
      <trkpt lat="44.37869" lon="3.8343">
        <ele>1354</ele>
        <time>2009-07-10T14:34:54Z</time>
      </trkpt>
      <trkpt lat="44.37883" lon="3.83472">
        <ele>1356</ele>
        <time>2009-07-10T14:35:09Z</time>
      </trkpt>
      <trkpt lat="44.37897" lon="3.83486">
        <ele>1358</ele>
        <time>2009-07-10T14:35:16Z</time>
      </trkpt>
      <trkpt lat="44.3792" lon="3.83507">
        <ele>1358</ele>
        <time>2009-07-10T14:35:29Z</time>
      </trkpt>
      <trkpt lat="44.37942" lon="3.83527">
        <ele>1361</ele>
        <time>2009-07-10T14:35:44Z</time>
      </trkpt>
      <trkpt lat="44.37944" lon="3.83527">
        <ele>1361</ele>
        <time>2009-07-10T14:35:47Z</time>
      </trkpt>
      <trkpt lat="44.37964" lon="3.83521">
        <ele>1364</ele>
        <time>2009-07-10T14:35:59Z</time>
      </trkpt>
      <trkpt lat="44.37993" lon="3.83517">
        <ele>1366</ele>
        <time>2009-07-10T14:36:13Z</time>
      </trkpt>
      <trkpt lat="44.3801" lon="3.8351">
        <ele>1368</ele>
        <time>2009-07-10T14:36:21Z</time>
      </trkpt>
      <trkpt lat="44.38046" lon="3.83485">
        <ele>1367</ele>
        <time>2009-07-10T14:36:38Z</time>
      </trkpt>
      <trkpt lat="44.38093" lon="3.83463">
        <ele>1368</ele>
        <time>2009-07-10T14:36:57Z</time>
      </trkpt>
      <trkpt lat="44.38146" lon="3.83452">
        <ele>1371</ele>
        <time>2009-07-10T14:37:18Z</time>
      </trkpt>
      <trkpt lat="44.3817" lon="3.83451">
        <ele>1371</ele>
        <time>2009-07-10T14:37:33Z</time>
      </trkpt>
      <trkpt lat="44.38179" lon="3.83455">
        <ele>1372</ele>
        <time>2009-07-10T14:37:45Z</time>
      </trkpt>
      <trkpt lat="44.38179" lon="3.83455">
        <ele>1371</ele>
        <time>2009-07-10T14:38:07Z</time>
      </trkpt>
      <trkpt lat="44.38176" lon="3.83457">
        <ele>1374</ele>
        <time>2009-07-10T14:39:14Z</time>
      </trkpt>
      <trkpt lat="44.38175" lon="3.83458">
        <ele>1374</ele>
        <time>2009-07-10T14:39:16Z</time>
      </trkpt>
      <trkpt lat="44.38184" lon="3.83495">
        <ele>1373</ele>
        <time>2009-07-10T14:39:31Z</time>
      </trkpt>
      <trkpt lat="44.38176" lon="3.83534">
        <ele>1375</ele>
        <time>2009-07-10T14:39:44Z</time>
      </trkpt>
      <trkpt lat="44.38181" lon="3.83577">
        <ele>1374</ele>
        <time>2009-07-10T14:39:56Z</time>
      </trkpt>
      <trkpt lat="44.38208" lon="3.83612">
        <ele>1374</ele>
        <time>2009-07-10T14:40:09Z</time>
      </trkpt>
      <trkpt lat="44.38226" lon="3.83667">
        <ele>1373</ele>
        <time>2009-07-10T14:40:21Z</time>
      </trkpt>
      <trkpt lat="44.3824" lon="3.83746">
        <ele>1370</ele>
        <time>2009-07-10T14:40:32Z</time>
      </trkpt>
      <trkpt lat="44.38253" lon="3.83788">
        <ele>1370</ele>
        <time>2009-07-10T14:40:38Z</time>
      </trkpt>
      <trkpt lat="44.38254" lon="3.83817">
        <ele>1369</ele>
        <time>2009-07-10T14:40:42Z</time>
      </trkpt>
      <trkpt lat="44.3825" lon="3.83859">
        <ele>1368</ele>
        <time>2009-07-10T14:40:47Z</time>
      </trkpt>
      <trkpt lat="44.38254" lon="3.83949">
        <ele>1368</ele>
        <time>2009-07-10T14:40:59Z</time>
      </trkpt>
      <trkpt lat="44.38245" lon="3.84017">
        <ele>1370</ele>
        <time>2009-07-10T14:41:15Z</time>
      </trkpt>
      <trkpt lat="44.38239" lon="3.84085">
        <ele>1372</ele>
        <time>2009-07-10T14:41:32Z</time>
      </trkpt>
      <trkpt lat="44.38269" lon="3.84119">
        <ele>1373</ele>
        <time>2009-07-10T14:41:45Z</time>
      </trkpt>
      <trkpt lat="44.38281" lon="3.84158">
        <ele>1374</ele>
        <time>2009-07-10T14:41:57Z</time>
      </trkpt>
      <trkpt lat="44.38261" lon="3.84206">
        <ele>1374</ele>
        <time>2009-07-10T14:42:11Z</time>
      </trkpt>
      <trkpt lat="44.38234" lon="3.84206">
        <ele>1376</ele>
        <time>2009-07-10T14:42:21Z</time>
      </trkpt>
      <trkpt lat="44.38194" lon="3.8421">
        <ele>1378</ele>
        <time>2009-07-10T14:42:36Z</time>
      </trkpt>
      <trkpt lat="44.38157" lon="3.8421">
        <ele>1382</ele>
        <time>2009-07-10T14:42:50Z</time>
      </trkpt>
      <trkpt lat="44.38114" lon="3.84207">
        <ele>1383</ele>
        <time>2009-07-10T14:43:06Z</time>
      </trkpt>
      <trkpt lat="44.38075" lon="3.84229">
        <ele>1386</ele>
        <time>2009-07-10T14:43:22Z</time>
      </trkpt>
      <trkpt lat="44.38052" lon="3.84273">
        <ele>1388</ele>
        <time>2009-07-10T14:43:37Z</time>
      </trkpt>
      <trkpt lat="44.38025" lon="3.84333">
        <ele>1390</ele>
        <time>2009-07-10T14:43:56Z</time>
      </trkpt>
      <trkpt lat="44.38015" lon="3.84391">
        <ele>1392</ele>
        <time>2009-07-10T14:44:12Z</time>
      </trkpt>
      <trkpt lat="44.38018" lon="3.84463">
        <ele>1395</ele>
        <time>2009-07-10T14:44:31Z</time>
      </trkpt>
      <trkpt lat="44.38025" lon="3.84503">
        <ele>1397</ele>
        <time>2009-07-10T14:44:42Z</time>
      </trkpt>
      <trkpt lat="44.38032" lon="3.84533">
        <ele>1399</ele>
        <time>2009-07-10T14:44:50Z</time>
      </trkpt>
      <trkpt lat="44.38042" lon="3.84583">
        <ele>1402</ele>
        <time>2009-07-10T14:45:04Z</time>
      </trkpt>
      <trkpt lat="44.3807" lon="3.84625">
        <ele>1403</ele>
        <time>2009-07-10T14:45:19Z</time>
      </trkpt>
      <trkpt lat="44.38096" lon="3.84664">
        <ele>1404</ele>
        <time>2009-07-10T14:45:34Z</time>
      </trkpt>
      <trkpt lat="44.38121" lon="3.84706">
        <ele>1407</ele>
        <time>2009-07-10T14:45:49Z</time>
      </trkpt>
      <trkpt lat="44.38136" lon="3.84731">
        <ele>1409</ele>
        <time>2009-07-10T14:45:58Z</time>
      </trkpt>
      <trkpt lat="44.38148" lon="3.84778">
        <ele>1412</ele>
        <time>2009-07-10T14:46:12Z</time>
      </trkpt>
      <trkpt lat="44.38136" lon="3.84835">
        <ele>1414</ele>
        <time>2009-07-10T14:46:28Z</time>
      </trkpt>
      <trkpt lat="44.38122" lon="3.84897">
        <ele>1415</ele>
        <time>2009-07-10T14:46:46Z</time>
      </trkpt>
      <trkpt lat="44.38126" lon="3.84931">
        <ele>1417</ele>
        <time>2009-07-10T14:46:55Z</time>
      </trkpt>
      <trkpt lat="44.38147" lon="3.8499">
        <ele>1418</ele>
        <time>2009-07-10T14:47:11Z</time>
      </trkpt>
      <trkpt lat="44.38169" lon="3.85057">
        <ele>1419</ele>
        <time>2009-07-10T14:47:29Z</time>
      </trkpt>
      <trkpt lat="44.38195" lon="3.85085">
        <ele>1421</ele>
        <time>2009-07-10T14:47:41Z</time>
      </trkpt>
      <trkpt lat="44.38243" lon="3.8509">
        <ele>1423</ele>
        <time>2009-07-10T14:47:57Z</time>
      </trkpt>
      <trkpt lat="44.38284" lon="3.85079">
        <ele>1423</ele>
        <time>2009-07-10T14:48:11Z</time>
      </trkpt>
      <trkpt lat="44.38324" lon="3.85086">
        <ele>1424</ele>
        <time>2009-07-10T14:48:24Z</time>
      </trkpt>
      <trkpt lat="44.38366" lon="3.85088">
        <ele>1426</ele>
        <time>2009-07-10T14:48:38Z</time>
      </trkpt>
      <trkpt lat="44.38419" lon="3.85119">
        <ele>1428</ele>
        <time>2009-07-10T14:48:56Z</time>
      </trkpt>
      <trkpt lat="44.38473" lon="3.85155">
        <ele>1429</ele>
        <time>2009-07-10T14:49:16Z</time>
      </trkpt>
      <trkpt lat="44.38483" lon="3.85192">
        <ele>1430</ele>
        <time>2009-07-10T14:49:27Z</time>
      </trkpt>
      <trkpt lat="44.38467" lon="3.85241">
        <ele>1431</ele>
        <time>2009-07-10T14:49:40Z</time>
      </trkpt>
      <trkpt lat="44.3842" lon="3.85263">
        <ele>1433</ele>
        <time>2009-07-10T14:49:55Z</time>
      </trkpt>
      <trkpt lat="44.38385" lon="3.8529">
        <ele>1436</ele>
        <time>2009-07-10T14:50:08Z</time>
      </trkpt>
      <trkpt lat="44.3836" lon="3.85309">
        <ele>1440</ele>
        <time>2009-07-10T14:50:18Z</time>
      </trkpt>
      <trkpt lat="44.38357" lon="3.8531">
        <ele>1439</ele>
        <time>2009-07-10T14:50:29Z</time>
      </trkpt>
      <trkpt lat="44.38356" lon="3.85308">
        <ele>1439</ele>
        <time>2009-07-10T14:51:22Z</time>
      </trkpt>
      <trkpt lat="44.38355" lon="3.85307">
        <ele>1440</ele>
        <time>2009-07-10T14:52:41Z</time>
      </trkpt>
      <trkpt lat="44.38355" lon="3.85309">
        <ele>1438</ele>
        <time>2009-07-10T14:52:56Z</time>
      </trkpt>
      <trkpt lat="44.38339" lon="3.85326">
        <ele>1440</ele>
        <time>2009-07-10T14:53:07Z</time>
      </trkpt>
      <trkpt lat="44.38311" lon="3.85359">
        <ele>1444</ele>
        <time>2009-07-10T14:53:20Z</time>
      </trkpt>
      <trkpt lat="44.38296" lon="3.85408">
        <ele>1442</ele>
        <time>2009-07-10T14:53:33Z</time>
      </trkpt>
      <trkpt lat="44.38298" lon="3.85436">
        <ele>1440</ele>
        <time>2009-07-10T14:53:38Z</time>
      </trkpt>
      <trkpt lat="44.38301" lon="3.85463">
        <ele>1438</ele>
        <time>2009-07-10T14:53:42Z</time>
      </trkpt>
      <trkpt lat="44.38317" lon="3.85523">
        <ele>1435</ele>
        <time>2009-07-10T14:53:50Z</time>
      </trkpt>
      <trkpt lat="44.38323" lon="3.85548">
        <ele>1434</ele>
        <time>2009-07-10T14:53:53Z</time>
      </trkpt>
      <trkpt lat="44.38352" lon="3.85628">
        <ele>1435</ele>
        <time>2009-07-10T14:54:05Z</time>
      </trkpt>
      <trkpt lat="44.38363" lon="3.85696">
        <ele>1434</ele>
        <time>2009-07-10T14:54:15Z</time>
      </trkpt>
      <trkpt lat="44.38363" lon="3.85826">
        <ele>1435</ele>
        <time>2009-07-10T14:54:34Z</time>
      </trkpt>
      <trkpt lat="44.3836" lon="3.8595">
        <ele>1434</ele>
        <time>2009-07-10T14:54:51Z</time>
      </trkpt>
      <trkpt lat="44.38359" lon="3.86035">
        <ele>1433</ele>
        <time>2009-07-10T14:55:02Z</time>
      </trkpt>
      <trkpt lat="44.38357" lon="3.86078">
        <ele>1433</ele>
        <time>2009-07-10T14:55:08Z</time>
      </trkpt>
      <trkpt lat="44.38352" lon="3.8613">
        <ele>1435</ele>
        <time>2009-07-10T14:55:16Z</time>
      </trkpt>
      <trkpt lat="44.3835" lon="3.86142">
        <ele>1435</ele>
        <time>2009-07-10T14:55:18Z</time>
      </trkpt>
      <trkpt lat="44.38346" lon="3.86161">
        <ele>1438</ele>
        <time>2009-07-10T14:55:21Z</time>
      </trkpt>
      <trkpt lat="44.38346" lon="3.86173">
        <ele>1439</ele>
        <time>2009-07-10T14:55:23Z</time>
      </trkpt>
      <trkpt lat="44.38342" lon="3.86241">
        <ele>1440</ele>
        <time>2009-07-10T14:55:36Z</time>
      </trkpt>
      <trkpt lat="44.38359" lon="3.86301">
        <ele>1439</ele>
        <time>2009-07-10T14:55:48Z</time>
      </trkpt>
      <trkpt lat="44.38374" lon="3.86337">
        <ele>1438</ele>
        <time>2009-07-10T14:55:54Z</time>
      </trkpt>
      <trkpt lat="44.38389" lon="3.86394">
        <ele>1437</ele>
        <time>2009-07-10T14:56:02Z</time>
      </trkpt>
      <trkpt lat="44.38397" lon="3.86414">
        <ele>1436</ele>
        <time>2009-07-10T14:56:05Z</time>
      </trkpt>
      <trkpt lat="44.3841" lon="3.86438">
        <ele>1435</ele>
        <time>2009-07-10T14:56:09Z</time>
      </trkpt>
      <trkpt lat="44.3842" lon="3.86473">
        <ele>1435</ele>
        <time>2009-07-10T14:56:14Z</time>
      </trkpt>
      <trkpt lat="44.38414" lon="3.86524">
        <ele>1433</ele>
        <time>2009-07-10T14:56:21Z</time>
      </trkpt>
      <trkpt lat="44.38409" lon="3.86536">
        <ele>1433</ele>
        <time>2009-07-10T14:56:23Z</time>
      </trkpt>
      <trkpt lat="44.38409" lon="3.86569">
        <ele>1433</ele>
        <time>2009-07-10T14:56:28Z</time>
      </trkpt>
      <trkpt lat="44.38413" lon="3.86583">
        <ele>1431</ele>
        <time>2009-07-10T14:56:30Z</time>
      </trkpt>
      <trkpt lat="44.38426" lon="3.86607">
        <ele>1432</ele>
        <time>2009-07-10T14:56:34Z</time>
      </trkpt>
      <trkpt lat="44.38436" lon="3.86631">
        <ele>1431</ele>
        <time>2009-07-10T14:56:38Z</time>
      </trkpt>
      <trkpt lat="44.38468" lon="3.86672">
        <ele>1431</ele>
        <time>2009-07-10T14:56:48Z</time>
      </trkpt>
      <trkpt lat="44.38497" lon="3.86701">
        <ele>1432</ele>
        <time>2009-07-10T14:56:56Z</time>
      </trkpt>
      <trkpt lat="44.38549" lon="3.86757">
        <ele>1433</ele>
        <time>2009-07-10T14:57:12Z</time>
      </trkpt>
      <trkpt lat="44.38553" lon="3.86766">
        <ele>1434</ele>
        <time>2009-07-10T14:57:25Z</time>
      </trkpt>
      <trkpt lat="44.38552" lon="3.86782">
        <ele>1434</ele>
        <time>2009-07-10T14:57:31Z</time>
      </trkpt>
      <trkpt lat="44.38568" lon="3.86839">
        <ele>1433</ele>
        <time>2009-07-10T14:57:47Z</time>
      </trkpt>
      <trkpt lat="44.38571" lon="3.86879">
        <ele>1433</ele>
        <time>2009-07-10T14:58:00Z</time>
      </trkpt>
      <trkpt lat="44.38574" lon="3.86928">
        <ele>1437</ele>
        <time>2009-07-10T14:58:13Z</time>
      </trkpt>
      <trkpt lat="44.38575" lon="3.86969">
        <ele>1437</ele>
        <time>2009-07-10T14:58:23Z</time>
      </trkpt>
      <trkpt lat="44.38575" lon="3.86976">
        <ele>1436</ele>
        <time>2009-07-10T14:58:24Z</time>
      </trkpt>
      <trkpt lat="44.38579" lon="3.87006">
        <ele>1433</ele>
        <time>2009-07-10T14:58:28Z</time>
      </trkpt>
      <trkpt lat="44.38593" lon="3.87104">
        <ele>1430</ele>
        <time>2009-07-10T14:58:39Z</time>
      </trkpt>
      <trkpt lat="44.38611" lon="3.87138">
        <ele>1431</ele>
        <time>2009-07-10T14:58:45Z</time>
      </trkpt>
      <trkpt lat="44.38637" lon="3.87163">
        <ele>1432</ele>
        <time>2009-07-10T14:58:51Z</time>
      </trkpt>
      <trkpt lat="44.38645" lon="3.87208">
        <ele>1430</ele>
        <time>2009-07-10T14:58:57Z</time>
      </trkpt>
      <trkpt lat="44.38643" lon="3.87227">
        <ele>1429</ele>
        <time>2009-07-10T14:58:59Z</time>
      </trkpt>
      <trkpt lat="44.38643" lon="3.87236">
        <ele>1428</ele>
        <time>2009-07-10T14:59:00Z</time>
      </trkpt>
      <trkpt lat="44.38644" lon="3.87253">
        <ele>1429</ele>
        <time>2009-07-10T14:59:02Z</time>
      </trkpt>
      <trkpt lat="44.38642" lon="3.87279">
        <ele>1429</ele>
        <time>2009-07-10T14:59:06Z</time>
      </trkpt>
      <trkpt lat="44.38637" lon="3.87319">
        <ele>1430</ele>
        <time>2009-07-10T14:59:13Z</time>
      </trkpt>
      <trkpt lat="44.38633" lon="3.87336">
        <ele>1431</ele>
        <time>2009-07-10T14:59:16Z</time>
      </trkpt>
      <trkpt lat="44.38619" lon="3.87377">
        <ele>1429</ele>
        <time>2009-07-10T14:59:24Z</time>
      </trkpt>
      <trkpt lat="44.38611" lon="3.87424">
        <ele>1430</ele>
        <time>2009-07-10T14:59:32Z</time>
      </trkpt>
      <trkpt lat="44.38599" lon="3.87487">
        <ele>1432</ele>
        <time>2009-07-10T14:59:45Z</time>
      </trkpt>
      <trkpt lat="44.38594" lon="3.8751">
        <ele>1430</ele>
        <time>2009-07-10T14:59:54Z</time>
      </trkpt>
      <trkpt lat="44.38596" lon="3.87524">
        <ele>1429</ele>
        <time>2009-07-10T14:59:59Z</time>
      </trkpt>
      <trkpt lat="44.38601" lon="3.87545">
        <ele>1430</ele>
        <time>2009-07-10T15:00:10Z</time>
      </trkpt>
      <trkpt lat="44.38584" lon="3.87542">
        <ele>1429</ele>
        <time>2009-07-10T15:00:18Z</time>
      </trkpt>
      <trkpt lat="44.38575" lon="3.87541">
        <ele>1429</ele>
        <time>2009-07-10T15:00:21Z</time>
      </trkpt>
      <trkpt lat="44.38572" lon="3.8755">
        <ele>1428</ele>
        <time>2009-07-10T15:00:25Z</time>
      </trkpt>
      <trkpt lat="44.38576" lon="3.8756">
        <ele>1428</ele>
        <time>2009-07-10T15:00:28Z</time>
      </trkpt>
      <trkpt lat="44.38575" lon="3.8757">
        <ele>1427</ele>
        <time>2009-07-10T15:00:32Z</time>
      </trkpt>
      <trkpt lat="44.3858" lon="3.87566">
        <ele>1428</ele>
        <time>2009-07-10T15:00:39Z</time>
      </trkpt>
      <trkpt lat="44.38577" lon="3.87557">
        <ele>1428</ele>
        <time>2009-07-10T15:00:44Z</time>
      </trkpt>
      <trkpt lat="44.38555" lon="3.8756">
        <ele>1428</ele>
        <time>2009-07-10T15:00:54Z</time>
      </trkpt>
      <trkpt lat="44.38543" lon="3.87551">
        <ele>1426</ele>
        <time>2009-07-10T15:01:00Z</time>
      </trkpt>
      <trkpt lat="44.38529" lon="3.87544">
        <ele>1425</ele>
        <time>2009-07-10T15:01:05Z</time>
      </trkpt>
      <trkpt lat="44.38518" lon="3.87563">
        <ele>1423</ele>
        <time>2009-07-10T15:01:13Z</time>
      </trkpt>
      <trkpt lat="44.38521" lon="3.87572">
        <ele>1423</ele>
        <time>2009-07-10T15:01:15Z</time>
      </trkpt>
      <trkpt lat="44.38536" lon="3.87608">
        <ele>1423</ele>
        <time>2009-07-10T15:01:27Z</time>
      </trkpt>
      <trkpt lat="44.38537" lon="3.87608">
        <ele>1423</ele>
        <time>2009-07-10T15:01:37Z</time>
      </trkpt>
      <trkpt lat="44.38537" lon="3.87624">
        <ele>1422</ele>
        <time>2009-07-10T15:01:42Z</time>
      </trkpt>
      <trkpt lat="44.38537" lon="3.87635">
        <ele>1421</ele>
        <time>2009-07-10T15:01:44Z</time>
      </trkpt>
      <trkpt lat="44.38543" lon="3.87658">
        <ele>1420</ele>
        <time>2009-07-10T15:01:48Z</time>
      </trkpt>
      <trkpt lat="44.38544" lon="3.87686">
        <ele>1419</ele>
        <time>2009-07-10T15:01:52Z</time>
      </trkpt>
      <trkpt lat="44.38513" lon="3.87775">
        <ele>1417</ele>
        <time>2009-07-10T15:02:06Z</time>
      </trkpt>
      <trkpt lat="44.38495" lon="3.87816">
        <ele>1417</ele>
        <time>2009-07-10T15:02:13Z</time>
      </trkpt>
      <trkpt lat="44.38467" lon="3.87873">
        <ele>1418</ele>
        <time>2009-07-10T15:02:26Z</time>
      </trkpt>
      <trkpt lat="44.38447" lon="3.87948">
        <ele>1418</ele>
        <time>2009-07-10T15:02:41Z</time>
      </trkpt>
      <trkpt lat="44.38444" lon="3.88036">
        <ele>1419</ele>
        <time>2009-07-10T15:02:57Z</time>
      </trkpt>
      <trkpt lat="44.38426" lon="3.88139">
        <ele>1416</ele>
        <time>2009-07-10T15:03:13Z</time>
      </trkpt>
      <trkpt lat="44.3841" lon="3.88178">
        <ele>1416</ele>
        <time>2009-07-10T15:03:19Z</time>
      </trkpt>
      <trkpt lat="44.38418" lon="3.88215">
        <ele>1412</ele>
        <time>2009-07-10T15:03:26Z</time>
      </trkpt>
      <trkpt lat="44.38431" lon="3.88215">
        <ele>1410</ele>
        <time>2009-07-10T15:03:28Z</time>
      </trkpt>
      <trkpt lat="44.38488" lon="3.88242">
        <ele>1407</ele>
        <time>2009-07-10T15:03:37Z</time>
      </trkpt>
      <trkpt lat="44.38492" lon="3.88253">
        <ele>1408</ele>
        <time>2009-07-10T15:03:38Z</time>
      </trkpt>
      <trkpt lat="44.38501" lon="3.88291">
        <ele>1406</ele>
        <time>2009-07-10T15:03:42Z</time>
      </trkpt>
      <trkpt lat="44.38505" lon="3.8833">
        <ele>1404</ele>
        <time>2009-07-10T15:03:46Z</time>
      </trkpt>
      <trkpt lat="44.38504" lon="3.88339">
        <ele>1403</ele>
        <time>2009-07-10T15:03:47Z</time>
      </trkpt>
      <trkpt lat="44.38504" lon="3.88358">
        <ele>1403</ele>
        <time>2009-07-10T15:03:49Z</time>
      </trkpt>
      <trkpt lat="44.38499" lon="3.88388">
        <ele>1404</ele>
        <time>2009-07-10T15:03:56Z</time>
      </trkpt>
      <trkpt lat="44.38499" lon="3.88388">
        <ele>1403</ele>
        <time>2009-07-10T15:03:58Z</time>
      </trkpt>
      <trkpt lat="44.38496" lon="3.88405">
        <ele>1402</ele>
        <time>2009-07-10T15:04:04Z</time>
      </trkpt>
      <trkpt lat="44.38504" lon="3.88419">
        <ele>1403</ele>
        <time>2009-07-10T15:04:14Z</time>
      </trkpt>
      <trkpt lat="44.38508" lon="3.88425">
        <ele>1402</ele>
        <time>2009-07-10T15:04:25Z</time>
      </trkpt>
      <trkpt lat="44.38518" lon="3.88441">
        <ele>1399</ele>
        <time>2009-07-10T15:04:30Z</time>
      </trkpt>
      <trkpt lat="44.38526" lon="3.88449">
        <ele>1397</ele>
        <time>2009-07-10T15:04:33Z</time>
      </trkpt>
      <trkpt lat="44.38549" lon="3.88461">
        <ele>1396</ele>
        <time>2009-07-10T15:04:40Z</time>
      </trkpt>
      <trkpt lat="44.38571" lon="3.88466">
        <ele>1393</ele>
        <time>2009-07-10T15:04:49Z</time>
      </trkpt>
      <trkpt lat="44.38587" lon="3.88467">
        <ele>1392</ele>
        <time>2009-07-10T15:05:04Z</time>
      </trkpt>
      <trkpt lat="44.38604" lon="3.88464">
        <ele>1390</ele>
        <time>2009-07-10T15:05:08Z</time>
      </trkpt>
      <trkpt lat="44.38614" lon="3.88461">
        <ele>1390</ele>
        <time>2009-07-10T15:05:10Z</time>
      </trkpt>
      <trkpt lat="44.38641" lon="3.88456">
        <ele>1388</ele>
        <time>2009-07-10T15:05:15Z</time>
      </trkpt>
      <trkpt lat="44.38666" lon="3.88462">
        <ele>1386</ele>
        <time>2009-07-10T15:05:19Z</time>
      </trkpt>
      <trkpt lat="44.38683" lon="3.88475">
        <ele>1386</ele>
        <time>2009-07-10T15:05:29Z</time>
      </trkpt>
      <trkpt lat="44.38682" lon="3.88474">
        <ele>1386</ele>
        <time>2009-07-10T15:05:53Z</time>
      </trkpt>
      <trkpt lat="44.38701" lon="3.88453">
        <ele>1387</ele>
        <time>2009-07-10T15:06:04Z</time>
      </trkpt>
      <trkpt lat="44.38704" lon="3.88447">
        <ele>1388</ele>
        <time>2009-07-10T15:06:07Z</time>
      </trkpt>
      <trkpt lat="44.38707" lon="3.88437">
        <ele>1388</ele>
        <time>2009-07-10T15:06:11Z</time>
      </trkpt>
      <trkpt lat="44.38723" lon="3.88405">
        <ele>1389</ele>
        <time>2009-07-10T15:06:25Z</time>
      </trkpt>
      <trkpt lat="44.38725" lon="3.88402">
        <ele>1390</ele>
        <time>2009-07-10T15:06:27Z</time>
      </trkpt>
      <trkpt lat="44.38742" lon="3.88379">
        <ele>1392</ele>
        <time>2009-07-10T15:06:40Z</time>
      </trkpt>
      <trkpt lat="44.38752" lon="3.88352">
        <ele>1393</ele>
        <time>2009-07-10T15:06:51Z</time>
      </trkpt>
      <trkpt lat="44.38765" lon="3.88319">
        <ele>1395</ele>
        <time>2009-07-10T15:07:06Z</time>
      </trkpt>
      <trkpt lat="44.38787" lon="3.88306">
        <ele>1396</ele>
        <time>2009-07-10T15:07:20Z</time>
      </trkpt>
      <trkpt lat="44.38798" lon="3.88299">
        <ele>1396</ele>
        <time>2009-07-10T15:07:28Z</time>
      </trkpt>
      <trkpt lat="44.38807" lon="3.88284">
        <ele>1397</ele>
        <time>2009-07-10T15:07:35Z</time>
      </trkpt>
      <trkpt lat="44.38819" lon="3.8827">
        <ele>1398</ele>
        <time>2009-07-10T15:07:43Z</time>
      </trkpt>
      <trkpt lat="44.38834" lon="3.88254">
        <ele>1401</ele>
        <time>2009-07-10T15:07:54Z</time>
      </trkpt>
      <trkpt lat="44.38839" lon="3.88249">
        <ele>1402</ele>
        <time>2009-07-10T15:07:58Z</time>
      </trkpt>
      <trkpt lat="44.38845" lon="3.88244">
        <ele>1403</ele>
        <time>2009-07-10T15:08:03Z</time>
      </trkpt>
      <trkpt lat="44.38863" lon="3.88237">
        <ele>1404</ele>
        <time>2009-07-10T15:08:14Z</time>
      </trkpt>
      <trkpt lat="44.38868" lon="3.88238">
        <ele>1403</ele>
        <time>2009-07-10T15:08:18Z</time>
      </trkpt>
      <trkpt lat="44.3887" lon="3.88241">
        <ele>1403</ele>
        <time>2009-07-10T15:08:21Z</time>
      </trkpt>
      <trkpt lat="44.38872" lon="3.88247">
        <ele>1403</ele>
        <time>2009-07-10T15:08:34Z</time>
      </trkpt>
      <trkpt lat="44.38875" lon="3.88249">
        <ele>1403</ele>
        <time>2009-07-10T15:09:14Z</time>
      </trkpt>
      <trkpt lat="44.38871" lon="3.88256">
        <ele>1402</ele>
        <time>2009-07-10T15:09:17Z</time>
      </trkpt>
      <trkpt lat="44.38869" lon="3.88259">
        <ele>1402</ele>
        <time>2009-07-10T15:09:18Z</time>
      </trkpt>
      <trkpt lat="44.38854" lon="3.8828">
        <ele>1398</ele>
        <time>2009-07-10T15:09:23Z</time>
      </trkpt>
      <trkpt lat="44.38849" lon="3.88292">
        <ele>1399</ele>
        <time>2009-07-10T15:09:26Z</time>
      </trkpt>
      <trkpt lat="44.38859" lon="3.88318">
        <ele>1399</ele>
        <time>2009-07-10T15:09:35Z</time>
      </trkpt>
      <trkpt lat="44.3886" lon="3.88319">
        <ele>1399</ele>
        <time>2009-07-10T15:09:36Z</time>
      </trkpt>
      <trkpt lat="44.38864" lon="3.88321">
        <ele>1399</ele>
        <time>2009-07-10T15:09:38Z</time>
      </trkpt>
      <trkpt lat="44.38881" lon="3.88347">
        <ele>1399</ele>
        <time>2009-07-10T15:09:48Z</time>
      </trkpt>
      <trkpt lat="44.38903" lon="3.88361">
        <ele>1399</ele>
        <time>2009-07-10T15:09:57Z</time>
      </trkpt>
      <trkpt lat="44.38906" lon="3.88363">
        <ele>1400</ele>
        <time>2009-07-10T15:09:59Z</time>
      </trkpt>
      <trkpt lat="44.38911" lon="3.88369">
        <ele>1400</ele>
        <time>2009-07-10T15:10:11Z</time>
      </trkpt>
      <trkpt lat="44.38915" lon="3.88372">
        <ele>1400</ele>
        <time>2009-07-10T15:10:25Z</time>
      </trkpt>
      <trkpt lat="44.38913" lon="3.88384">
        <ele>1401</ele>
        <time>2009-07-10T15:10:34Z</time>
      </trkpt>
      <trkpt lat="44.38914" lon="3.88391">
        <ele>1402</ele>
        <time>2009-07-10T15:10:39Z</time>
      </trkpt>
      <trkpt lat="44.38914" lon="3.88394">
        <ele>1402</ele>
        <time>2009-07-10T15:10:41Z</time>
      </trkpt>
      <trkpt lat="44.38911" lon="3.88409">
        <ele>1403</ele>
        <time>2009-07-10T15:10:56Z</time>
      </trkpt>
      <trkpt lat="44.3891" lon="3.88414">
        <ele>1403</ele>
        <time>2009-07-10T15:10:58Z</time>
      </trkpt>
      <trkpt lat="44.38913" lon="3.88441">
        <ele>1406</ele>
        <time>2009-07-10T15:11:09Z</time>
      </trkpt>
      <trkpt lat="44.38914" lon="3.88443">
        <ele>1406</ele>
        <time>2009-07-10T15:11:10Z</time>
      </trkpt>
      <trkpt lat="44.38917" lon="3.88451">
        <ele>1407</ele>
        <time>2009-07-10T15:11:14Z</time>
      </trkpt>
      <trkpt lat="44.38919" lon="3.8846">
        <ele>1408</ele>
        <time>2009-07-10T15:11:19Z</time>
      </trkpt>
      <trkpt lat="44.38918" lon="3.88477">
        <ele>1410</ele>
        <time>2009-07-10T15:11:27Z</time>
      </trkpt>
      <trkpt lat="44.38918" lon="3.88502">
        <ele>1413</ele>
        <time>2009-07-10T15:11:38Z</time>
      </trkpt>
      <trkpt lat="44.38917" lon="3.88509">
        <ele>1414</ele>
        <time>2009-07-10T15:11:41Z</time>
      </trkpt>
      <trkpt lat="44.38915" lon="3.88519">
        <ele>1414</ele>
        <time>2009-07-10T15:11:45Z</time>
      </trkpt>
      <trkpt lat="44.38915" lon="3.88523">
        <ele>1414</ele>
        <time>2009-07-10T15:11:47Z</time>
      </trkpt>
      <trkpt lat="44.38922" lon="3.8855">
        <ele>1415</ele>
        <time>2009-07-10T15:11:58Z</time>
      </trkpt>
      <trkpt lat="44.38927" lon="3.88559">
        <ele>1416</ele>
        <time>2009-07-10T15:12:02Z</time>
      </trkpt>
      <trkpt lat="44.38934" lon="3.88574">
        <ele>1417</ele>
        <time>2009-07-10T15:12:09Z</time>
      </trkpt>
      <trkpt lat="44.38939" lon="3.88583">
        <ele>1417</ele>
        <time>2009-07-10T15:12:14Z</time>
      </trkpt>
      <trkpt lat="44.38941" lon="3.88588">
        <ele>1419</ele>
        <time>2009-07-10T15:12:16Z</time>
      </trkpt>
      <trkpt lat="44.38962" lon="3.88615">
        <ele>1421</ele>
        <time>2009-07-10T15:12:31Z</time>
      </trkpt>
      <trkpt lat="44.38977" lon="3.88639">
        <ele>1422</ele>
        <time>2009-07-10T15:12:45Z</time>
      </trkpt>
      <trkpt lat="44.38994" lon="3.88658">
        <ele>1425</ele>
        <time>2009-07-10T15:12:58Z</time>
      </trkpt>
      <trkpt lat="44.3901" lon="3.88692">
        <ele>1426</ele>
        <time>2009-07-10T15:13:13Z</time>
      </trkpt>
      <trkpt lat="44.39015" lon="3.8871">
        <ele>1427</ele>
        <time>2009-07-10T15:13:19Z</time>
      </trkpt>
      <trkpt lat="44.39029" lon="3.88741">
        <ele>1430</ele>
        <time>2009-07-10T15:13:32Z</time>
      </trkpt>
      <trkpt lat="44.39038" lon="3.88753">
        <ele>1431</ele>
        <time>2009-07-10T15:13:38Z</time>
      </trkpt>
      <trkpt lat="44.39037" lon="3.88766">
        <ele>1432</ele>
        <time>2009-07-10T15:13:43Z</time>
      </trkpt>
      <trkpt lat="44.39038" lon="3.88796">
        <ele>1432</ele>
        <time>2009-07-10T15:13:56Z</time>
      </trkpt>
      <trkpt lat="44.39038" lon="3.88796">
        <ele>1432</ele>
        <time>2009-07-10T15:13:57Z</time>
      </trkpt>
      <trkpt lat="44.39046" lon="3.88798">
        <ele>1432</ele>
        <time>2009-07-10T15:14:35Z</time>
      </trkpt>
      <trkpt lat="44.39053" lon="3.88806">
        <ele>1431</ele>
        <time>2009-07-10T15:15:03Z</time>
      </trkpt>
      <trkpt lat="44.39054" lon="3.88808">
        <ele>1431</ele>
        <time>2009-07-10T15:15:32Z</time>
      </trkpt>
      <trkpt lat="44.39052" lon="3.88804">
        <ele>1432</ele>
        <time>2009-07-10T15:16:03Z</time>
      </trkpt>
      <trkpt lat="44.39047" lon="3.88799">
        <ele>1432</ele>
        <time>2009-07-10T15:16:26Z</time>
      </trkpt>
      <trkpt lat="44.39043" lon="3.88803">
        <ele>1433</ele>
        <time>2009-07-10T15:16:58Z</time>
      </trkpt>
      <trkpt lat="44.39044" lon="3.88814">
        <ele>1433</ele>
        <time>2009-07-10T15:17:10Z</time>
      </trkpt>
      <trkpt lat="44.39053" lon="3.88844">
        <ele>1433</ele>
        <time>2009-07-10T15:17:20Z</time>
      </trkpt>
      <trkpt lat="44.39062" lon="3.88862">
        <ele>1435</ele>
        <time>2009-07-10T15:17:26Z</time>
      </trkpt>
      <trkpt lat="44.39065" lon="3.88865">
        <ele>1435</ele>
        <time>2009-07-10T15:17:27Z</time>
      </trkpt>
      <trkpt lat="44.39093" lon="3.88898">
        <ele>1434</ele>
        <time>2009-07-10T15:17:39Z</time>
      </trkpt>
      <trkpt lat="44.39125" lon="3.88941">
        <ele>1435</ele>
        <time>2009-07-10T15:17:51Z</time>
      </trkpt>
      <trkpt lat="44.39159" lon="3.88953">
        <ele>1437</ele>
        <time>2009-07-10T15:18:01Z</time>
      </trkpt>
      <trkpt lat="44.39189" lon="3.88959">
        <ele>1440</ele>
        <time>2009-07-10T15:18:10Z</time>
      </trkpt>
      <trkpt lat="44.39203" lon="3.8899">
        <ele>1442</ele>
        <time>2009-07-10T15:18:21Z</time>
      </trkpt>
      <trkpt lat="44.39206" lon="3.89004">
        <ele>1444</ele>
        <time>2009-07-10T15:18:26Z</time>
      </trkpt>
      <trkpt lat="44.39209" lon="3.89015">
        <ele>1444</ele>
        <time>2009-07-10T15:18:31Z</time>
      </trkpt>
      <trkpt lat="44.3922" lon="3.89046">
        <ele>1446</ele>
        <time>2009-07-10T15:18:44Z</time>
      </trkpt>
      <trkpt lat="44.39226" lon="3.8907">
        <ele>1448</ele>
        <time>2009-07-10T15:18:53Z</time>
      </trkpt>
      <trkpt lat="44.39231" lon="3.89077">
        <ele>1448</ele>
        <time>2009-07-10T15:18:57Z</time>
      </trkpt>
      <trkpt lat="44.3924" lon="3.89083">
        <ele>1449</ele>
        <time>2009-07-10T15:19:02Z</time>
      </trkpt>
      <trkpt lat="44.39246" lon="3.89087">
        <ele>1452</ele>
        <time>2009-07-10T15:19:07Z</time>
      </trkpt>
      <trkpt lat="44.39247" lon="3.89088">
        <ele>1453</ele>
        <time>2009-07-10T15:19:08Z</time>
      </trkpt>
      <trkpt lat="44.39256" lon="3.89081">
        <ele>1454</ele>
        <time>2009-07-10T15:19:15Z</time>
      </trkpt>
      <trkpt lat="44.39268" lon="3.89024">
        <ele>1453</ele>
        <time>2009-07-10T15:19:32Z</time>
      </trkpt>
      <trkpt lat="44.39286" lon="3.88951">
        <ele>1455</ele>
        <time>2009-07-10T15:19:52Z</time>
      </trkpt>
      <trkpt lat="44.39295" lon="3.88915">
        <ele>1456</ele>
        <time>2009-07-10T15:20:04Z</time>
      </trkpt>
      <trkpt lat="44.39294" lon="3.88917">
        <ele>1456</ele>
        <time>2009-07-10T15:20:11Z</time>
      </trkpt>
      <trkpt lat="44.393" lon="3.8892">
        <ele>1457</ele>
        <time>2009-07-10T15:20:23Z</time>
      </trkpt>
      <trkpt lat="44.39311" lon="3.88922">
        <ele>1457</ele>
        <time>2009-07-10T15:20:35Z</time>
      </trkpt>
      <trkpt lat="44.39313" lon="3.88922">
        <ele>1457</ele>
        <time>2009-07-10T15:20:36Z</time>
      </trkpt>
      <trkpt lat="44.39321" lon="3.8893">
        <ele>1457</ele>
        <time>2009-07-10T15:20:41Z</time>
      </trkpt>
      <trkpt lat="44.39337" lon="3.8896">
        <ele>1459</ele>
        <time>2009-07-10T15:20:54Z</time>
      </trkpt>
      <trkpt lat="44.3935" lon="3.88976">
        <ele>1459</ele>
        <time>2009-07-10T15:21:05Z</time>
      </trkpt>
      <trkpt lat="44.39357" lon="3.88981">
        <ele>1457</ele>
        <time>2009-07-10T15:21:15Z</time>
      </trkpt>
      <trkpt lat="44.39362" lon="3.8898">
        <ele>1456</ele>
        <time>2009-07-10T15:21:18Z</time>
      </trkpt>
      <trkpt lat="44.39369" lon="3.88978">
        <ele>1455</ele>
        <time>2009-07-10T15:21:27Z</time>
      </trkpt>
      <trkpt lat="44.3937" lon="3.88983">
        <ele>1454</ele>
        <time>2009-07-10T15:21:30Z</time>
      </trkpt>
      <trkpt lat="44.39374" lon="3.88986">
        <ele>1452</ele>
        <time>2009-07-10T15:21:36Z</time>
      </trkpt>
      <trkpt lat="44.3938" lon="3.8899">
        <ele>1451</ele>
        <time>2009-07-10T15:21:39Z</time>
      </trkpt>
      <trkpt lat="44.39391" lon="3.88991">
        <ele>1448</ele>
        <time>2009-07-10T15:21:52Z</time>
      </trkpt>
      <trkpt lat="44.39398" lon="3.88993">
        <ele>1448</ele>
        <time>2009-07-10T15:21:59Z</time>
      </trkpt>
      <trkpt lat="44.39409" lon="3.89004">
        <ele>1444</ele>
        <time>2009-07-10T15:22:07Z</time>
      </trkpt>
      <trkpt lat="44.39412" lon="3.89004">
        <ele>1444</ele>
        <time>2009-07-10T15:22:08Z</time>
      </trkpt>
      <trkpt lat="44.39417" lon="3.89005">
        <ele>1443</ele>
        <time>2009-07-10T15:22:10Z</time>
      </trkpt>
      <trkpt lat="44.39426" lon="3.89004">
        <ele>1441</ele>
        <time>2009-07-10T15:22:15Z</time>
      </trkpt>
      <trkpt lat="44.39433" lon="3.89006">
        <ele>1440</ele>
        <time>2009-07-10T15:22:25Z</time>
      </trkpt>
      <trkpt lat="44.39438" lon="3.89006">
        <ele>1439</ele>
        <time>2009-07-10T15:22:31Z</time>
      </trkpt>
      <trkpt lat="44.39444" lon="3.89001">
        <ele>1437</ele>
        <time>2009-07-10T15:22:34Z</time>
      </trkpt>
      <trkpt lat="44.39448" lon="3.89">
        <ele>1436</ele>
        <time>2009-07-10T15:22:36Z</time>
      </trkpt>
      <trkpt lat="44.39454" lon="3.89003">
        <ele>1434</ele>
        <time>2009-07-10T15:22:48Z</time>
      </trkpt>
      <trkpt lat="44.39461" lon="3.89">
        <ele>1434</ele>
        <time>2009-07-10T15:22:58Z</time>
      </trkpt>
      <trkpt lat="44.39472" lon="3.88985">
        <ele>1432</ele>
        <time>2009-07-10T15:23:07Z</time>
      </trkpt>
      <trkpt lat="44.39479" lon="3.88973">
        <ele>1430</ele>
        <time>2009-07-10T15:23:19Z</time>
      </trkpt>
      <trkpt lat="44.39483" lon="3.88975">
        <ele>1429</ele>
        <time>2009-07-10T15:23:26Z</time>
      </trkpt>
      <trkpt lat="44.39493" lon="3.88973">
        <ele>1427</ele>
        <time>2009-07-10T15:23:37Z</time>
      </trkpt>
      <trkpt lat="44.39495" lon="3.88972">
        <ele>1427</ele>
        <time>2009-07-10T15:23:38Z</time>
      </trkpt>
      <trkpt lat="44.39501" lon="3.88971">
        <ele>1426</ele>
        <time>2009-07-10T15:23:48Z</time>
      </trkpt>
      <trkpt lat="44.395" lon="3.88972">
        <ele>1426</ele>
        <time>2009-07-10T15:24:40Z</time>
      </trkpt>
      <trkpt lat="44.39502" lon="3.8897">
        <ele>1427</ele>
        <time>2009-07-10T15:26:08Z</time>
      </trkpt>
      <trkpt lat="44.39511" lon="3.88964">
        <ele>1425</ele>
        <time>2009-07-10T15:26:19Z</time>
      </trkpt>
      <trkpt lat="44.39512" lon="3.88962">
        <ele>1424</ele>
        <time>2009-07-10T15:26:22Z</time>
      </trkpt>
      <trkpt lat="44.39522" lon="3.8895">
        <ele>1410</ele>
      </trkpt>
      <trkpt lat="44.39519" lon="3.88956">
        <ele>1424</ele>
        <time>2009-07-10T15:26:38Z</time>
      </trkpt>
      <trkpt lat="44.3953" lon="3.88957">
        <ele>1423</ele>
        <time>2009-07-10T15:26:54Z</time>
      </trkpt>
      <trkpt lat="44.39532" lon="3.88959">
        <ele>1420</ele>
        <time>2009-07-10T15:27:01Z</time>
      </trkpt>
      <trkpt lat="44.39535" lon="3.88959">
        <ele>1418</ele>
        <time>2009-07-10T15:27:04Z</time>
      </trkpt>
      <trkpt lat="44.39541" lon="3.88963">
        <ele>1417</ele>
        <time>2009-07-10T15:27:17Z</time>
      </trkpt>
      <trkpt lat="44.39548" lon="3.8897">
        <ele>1416</ele>
        <time>2009-07-10T15:27:27Z</time>
      </trkpt>
      <trkpt lat="44.39557" lon="3.88972">
        <ele>1413</ele>
        <time>2009-07-10T15:27:38Z</time>
      </trkpt>
      <trkpt lat="44.39566" lon="3.88974">
        <ele>1412</ele>
        <time>2009-07-10T15:27:54Z</time>
      </trkpt>
      <trkpt lat="44.39573" lon="3.88966">
        <ele>1409</ele>
        <time>2009-07-10T15:28:00Z</time>
      </trkpt>
      <trkpt lat="44.3958" lon="3.8896">
        <ele>1406</ele>
        <time>2009-07-10T15:28:04Z</time>
      </trkpt>
      <trkpt lat="44.39585" lon="3.88955">
        <ele>1405</ele>
        <time>2009-07-10T15:28:06Z</time>
      </trkpt>
      <trkpt lat="44.39591" lon="3.88954">
        <ele>1405</ele>
        <time>2009-07-10T15:28:09Z</time>
      </trkpt>
      <trkpt lat="44.39592" lon="3.88947">
        <ele>1405</ele>
        <time>2009-07-10T15:28:22Z</time>
      </trkpt>
      <trkpt lat="44.39591" lon="3.88948">
        <ele>1405</ele>
        <time>2009-07-10T15:28:31Z</time>
      </trkpt>
      <trkpt lat="44.39597" lon="3.88947">
        <ele>1403</ele>
        <time>2009-07-10T15:28:39Z</time>
      </trkpt>
      <trkpt lat="44.39596" lon="3.88939">
        <ele>1404</ele>
        <time>2009-07-10T15:28:49Z</time>
      </trkpt>
      <trkpt lat="44.39594" lon="3.88935">
        <ele>1404</ele>
        <time>2009-07-10T15:29:05Z</time>
      </trkpt>
      <trkpt lat="44.39595" lon="3.88933">
        <ele>1405</ele>
        <time>2009-07-10T15:29:20Z</time>
      </trkpt>
      <trkpt lat="44.39596" lon="3.88933">
        <ele>1404</ele>
        <time>2009-07-10T15:29:30Z</time>
      </trkpt>
      <trkpt lat="44.39602" lon="3.88919">
        <ele>1402</ele>
        <time>2009-07-10T15:29:38Z</time>
      </trkpt>
      <trkpt lat="44.39604" lon="3.88918">
        <ele>1401</ele>
        <time>2009-07-10T15:29:40Z</time>
      </trkpt>
      <trkpt lat="44.39608" lon="3.88917">
        <ele>1400</ele>
        <time>2009-07-10T15:29:44Z</time>
      </trkpt>
      <trkpt lat="44.3961" lon="3.88914">
        <ele>1400</ele>
        <time>2009-07-10T15:29:48Z</time>
      </trkpt>
      <trkpt lat="44.39613" lon="3.88909">
        <ele>1399</ele>
        <time>2009-07-10T15:30:02Z</time>
      </trkpt>
      <trkpt lat="44.39617" lon="3.88902">
        <ele>1398</ele>
        <time>2009-07-10T15:30:18Z</time>
      </trkpt>
      <trkpt lat="44.39621" lon="3.88899">
        <ele>1396</ele>
        <time>2009-07-10T15:30:25Z</time>
      </trkpt>
      <trkpt lat="44.39627" lon="3.88892">
        <ele>1395</ele>
        <time>2009-07-10T15:30:38Z</time>
      </trkpt>
      <trkpt lat="44.39633" lon="3.88887">
        <ele>1394</ele>
        <time>2009-07-10T15:30:50Z</time>
      </trkpt>
      <trkpt lat="44.39637" lon="3.88885">
        <ele>1392</ele>
        <time>2009-07-10T15:31:00Z</time>
      </trkpt>
      <trkpt lat="44.39641" lon="3.88876">
        <ele>1391</ele>
        <time>2009-07-10T15:31:13Z</time>
      </trkpt>
      <trkpt lat="44.39641" lon="3.88876">
        <ele>1392</ele>
        <time>2009-07-10T15:31:14Z</time>
      </trkpt>
      <trkpt lat="44.39644" lon="3.88867">
        <ele>1389</ele>
        <time>2009-07-10T15:31:19Z</time>
      </trkpt>
      <trkpt lat="44.3965" lon="3.88844">
        <ele>1385</ele>
        <time>2009-07-10T15:31:25Z</time>
      </trkpt>
      <trkpt lat="44.39653" lon="3.88841">
        <ele>1386</ele>
        <time>2009-07-10T15:31:28Z</time>
      </trkpt>
      <trkpt lat="44.39654" lon="3.88862">
        <ele>1386</ele>
        <time>2009-07-10T15:31:35Z</time>
      </trkpt>
      <trkpt lat="44.3966" lon="3.88854">
        <ele>1385</ele>
        <time>2009-07-10T15:31:41Z</time>
      </trkpt>
      <trkpt lat="44.39667" lon="3.8881">
        <ele>1381</ele>
        <time>2009-07-10T15:31:52Z</time>
      </trkpt>
      <trkpt lat="44.39668" lon="3.88805">
        <ele>1381</ele>
        <time>2009-07-10T15:31:53Z</time>
      </trkpt>
      <trkpt lat="44.39675" lon="3.88769">
        <ele>1377</ele>
        <time>2009-07-10T15:32:01Z</time>
      </trkpt>
      <trkpt lat="44.39682" lon="3.88739">
        <ele>1377</ele>
        <time>2009-07-10T15:32:10Z</time>
      </trkpt>
      <trkpt lat="44.3968" lon="3.88739">
        <ele>1376</ele>
        <time>2009-07-10T15:32:42Z</time>
      </trkpt>
      <trkpt lat="44.39683" lon="3.88737">
        <ele>1376</ele>
        <time>2009-07-10T15:33:02Z</time>
      </trkpt>
      <trkpt lat="44.39686" lon="3.88706">
        <ele>1373</ele>
        <time>2009-07-10T15:33:27Z</time>
      </trkpt>
      <trkpt lat="44.39687" lon="3.887">
        <ele>1374</ele>
        <time>2009-07-10T15:33:28Z</time>
      </trkpt>
      <trkpt lat="44.39689" lon="3.88649">
        <ele>1371</ele>
        <time>2009-07-10T15:33:35Z</time>
      </trkpt>
      <trkpt lat="44.3969" lon="3.88607">
        <ele>1367</ele>
        <time>2009-07-10T15:33:40Z</time>
      </trkpt>
      <trkpt lat="44.39707" lon="3.88561">
        <ele>1365</ele>
        <time>2009-07-10T15:33:46Z</time>
      </trkpt>
      <trkpt lat="44.3973" lon="3.88532">
        <ele>1360</ele>
        <time>2009-07-10T15:33:50Z</time>
      </trkpt>
      <trkpt lat="44.3975" lon="3.88509">
        <ele>1356</ele>
        <time>2009-07-10T15:33:53Z</time>
      </trkpt>
      <trkpt lat="44.39757" lon="3.88501">
        <ele>1356</ele>
        <time>2009-07-10T15:33:54Z</time>
      </trkpt>
      <trkpt lat="44.39823" lon="3.8845">
        <ele>1354</ele>
        <time>2009-07-10T15:34:03Z</time>
      </trkpt>
      <trkpt lat="44.39828" lon="3.88457">
        <ele>1353</ele>
        <time>2009-07-10T15:34:08Z</time>
      </trkpt>
      <trkpt lat="44.39825" lon="3.88464">
        <ele>1352</ele>
        <time>2009-07-10T15:34:10Z</time>
      </trkpt>
      <trkpt lat="44.39812" lon="3.88472">
        <ele>1350</ele>
        <time>2009-07-10T15:34:21Z</time>
      </trkpt>
      <trkpt lat="44.39798" lon="3.88487">
        <ele>1348</ele>
        <time>2009-07-10T15:34:26Z</time>
      </trkpt>
      <trkpt lat="44.3978" lon="3.88511">
        <ele>1346</ele>
        <time>2009-07-10T15:34:31Z</time>
      </trkpt>
      <trkpt lat="44.39758" lon="3.88549">
        <ele>1346</ele>
        <time>2009-07-10T15:34:38Z</time>
      </trkpt>
      <trkpt lat="44.39752" lon="3.88559">
        <ele>1346</ele>
        <time>2009-07-10T15:34:40Z</time>
      </trkpt>
      <trkpt lat="44.3974" lon="3.88612">
        <ele>1344</ele>
        <time>2009-07-10T15:34:50Z</time>
      </trkpt>
      <trkpt lat="44.39746" lon="3.88664">
        <ele>1340</ele>
        <time>2009-07-10T15:34:58Z</time>
      </trkpt>
      <trkpt lat="44.39745" lon="3.88679">
        <ele>1340</ele>
        <time>2009-07-10T15:35:00Z</time>
      </trkpt>
      <trkpt lat="44.39748" lon="3.88707">
        <ele>1339</ele>
        <time>2009-07-10T15:35:04Z</time>
      </trkpt>
      <trkpt lat="44.39766" lon="3.88773">
        <ele>1335</ele>
        <time>2009-07-10T15:35:14Z</time>
      </trkpt>
      <trkpt lat="44.39768" lon="3.88781">
        <ele>1335</ele>
        <time>2009-07-10T15:35:15Z</time>
      </trkpt>
      <trkpt lat="44.39776" lon="3.88802">
        <ele>1334</ele>
        <time>2009-07-10T15:35:18Z</time>
      </trkpt>
      <trkpt lat="44.39781" lon="3.88828">
        <ele>1332</ele>
        <time>2009-07-10T15:35:21Z</time>
      </trkpt>
      <trkpt lat="44.39781" lon="3.88837">
        <ele>1333</ele>
        <time>2009-07-10T15:35:22Z</time>
      </trkpt>
      <trkpt lat="44.39786" lon="3.88882">
        <ele>1330</ele>
        <time>2009-07-10T15:35:27Z</time>
      </trkpt>
      <trkpt lat="44.39791" lon="3.889">
        <ele>1330</ele>
        <time>2009-07-10T15:35:29Z</time>
      </trkpt>
      <trkpt lat="44.39803" lon="3.88935">
        <ele>1328</ele>
        <time>2009-07-10T15:35:33Z</time>
      </trkpt>
      <trkpt lat="44.39808" lon="3.88964">
        <ele>1327</ele>
        <time>2009-07-10T15:35:36Z</time>
      </trkpt>
      <trkpt lat="44.39809" lon="3.88993">
        <ele>1325</ele>
        <time>2009-07-10T15:35:39Z</time>
      </trkpt>
      <trkpt lat="44.39806" lon="3.89012">
        <ele>1324</ele>
        <time>2009-07-10T15:35:41Z</time>
      </trkpt>
      <trkpt lat="44.39791" lon="3.89045">
        <ele>1323</ele>
        <time>2009-07-10T15:35:45Z</time>
      </trkpt>
      <trkpt lat="44.39769" lon="3.89084">
        <ele>1320</ele>
        <time>2009-07-10T15:35:50Z</time>
      </trkpt>
      <trkpt lat="44.3976" lon="3.89102">
        <ele>1319</ele>
        <time>2009-07-10T15:35:52Z</time>
      </trkpt>
      <trkpt lat="44.39705" lon="3.89189">
        <ele>1316</ele>
        <time>2009-07-10T15:36:03Z</time>
      </trkpt>
      <trkpt lat="44.39696" lon="3.89222">
        <ele>1315</ele>
        <time>2009-07-10T15:36:07Z</time>
      </trkpt>
      <trkpt lat="44.39694" lon="3.89251">
        <ele>1310</ele>
        <time>2009-07-10T15:36:10Z</time>
      </trkpt>
      <trkpt lat="44.3969" lon="3.8927">
        <ele>1310</ele>
        <time>2009-07-10T15:36:12Z</time>
      </trkpt>
      <trkpt lat="44.39683" lon="3.89285">
        <ele>1308</ele>
        <time>2009-07-10T15:36:14Z</time>
      </trkpt>
      <trkpt lat="44.39676" lon="3.893">
        <ele>1306</ele>
        <time>2009-07-10T15:36:16Z</time>
      </trkpt>
      <trkpt lat="44.39662" lon="3.89324">
        <ele>1304</ele>
        <time>2009-07-10T15:36:20Z</time>
      </trkpt>
      <trkpt lat="44.39653" lon="3.89346">
        <ele>1300</ele>
        <time>2009-07-10T15:36:23Z</time>
      </trkpt>
      <trkpt lat="44.39645" lon="3.89359">
        <ele>1299</ele>
        <time>2009-07-10T15:36:25Z</time>
      </trkpt>
      <trkpt lat="44.39627" lon="3.89383">
        <ele>1296</ele>
        <time>2009-07-10T15:36:29Z</time>
      </trkpt>
      <trkpt lat="44.39605" lon="3.89407">
        <ele>1293</ele>
        <time>2009-07-10T15:36:33Z</time>
      </trkpt>
      <trkpt lat="44.39597" lon="3.89419">
        <ele>1292</ele>
        <time>2009-07-10T15:36:35Z</time>
      </trkpt>
      <trkpt lat="44.39582" lon="3.89457">
        <ele>1288</ele>
        <time>2009-07-10T15:36:42Z</time>
      </trkpt>
      <trkpt lat="44.39573" lon="3.89475">
        <ele>1285</ele>
        <time>2009-07-10T15:36:45Z</time>
      </trkpt>
      <trkpt lat="44.39525" lon="3.89548">
        <ele>1282</ele>
        <time>2009-07-10T15:36:57Z</time>
      </trkpt>
      <trkpt lat="44.39506" lon="3.89567">
        <ele>1278</ele>
        <time>2009-07-10T15:37:01Z</time>
      </trkpt>
      <trkpt lat="44.39501" lon="3.89603">
        <ele>1276</ele>
        <time>2009-07-10T15:37:09Z</time>
      </trkpt>
      <trkpt lat="44.395" lon="3.89625">
        <ele>1275</ele>
        <time>2009-07-10T15:37:14Z</time>
      </trkpt>
      <trkpt lat="44.39502" lon="3.89641">
        <ele>1273</ele>
        <time>2009-07-10T15:37:18Z</time>
      </trkpt>
      <trkpt lat="44.39518" lon="3.89674">
        <ele>1269</ele>
        <time>2009-07-10T15:37:23Z</time>
      </trkpt>
      <trkpt lat="44.39522" lon="3.8968">
        <ele>1269</ele>
        <time>2009-07-10T15:37:24Z</time>
      </trkpt>
      <trkpt lat="44.39524" lon="3.89689">
        <ele>1269</ele>
        <time>2009-07-10T15:37:31Z</time>
      </trkpt>
      <trkpt lat="44.39525" lon="3.8969">
        <ele>1269</ele>
        <time>2009-07-10T15:37:32Z</time>
      </trkpt>
      <trkpt lat="44.39526" lon="3.89692">
        <ele>1269</ele>
        <time>2009-07-10T15:37:34Z</time>
      </trkpt>
      <trkpt lat="44.3953" lon="3.89691">
        <ele>1269</ele>
        <time>2009-07-10T15:37:50Z</time>
      </trkpt>
      <trkpt lat="44.39541" lon="3.89705">
        <ele>1266</ele>
        <time>2009-07-10T15:39:47Z</time>
      </trkpt>
      <trkpt lat="44.39547" lon="3.89711">
        <ele>1265</ele>
        <time>2009-07-10T15:39:49Z</time>
      </trkpt>
      <trkpt lat="44.39571" lon="3.89721">
        <ele>1262</ele>
        <time>2009-07-10T15:39:57Z</time>
      </trkpt>
      <trkpt lat="44.39579" lon="3.89722">
        <ele>1261</ele>
        <time>2009-07-10T15:39:59Z</time>
      </trkpt>
      <trkpt lat="44.39589" lon="3.89722">
        <ele>1260</ele>
        <time>2009-07-10T15:40:02Z</time>
      </trkpt>
      <trkpt lat="44.39597" lon="3.89723">
        <ele>1258</ele>
        <time>2009-07-10T15:40:07Z</time>
      </trkpt>
      <trkpt lat="44.39615" lon="3.89722">
        <ele>1255</ele>
        <time>2009-07-10T15:40:13Z</time>
      </trkpt>
      <trkpt lat="44.39619" lon="3.89723">
        <ele>1254</ele>
        <time>2009-07-10T15:40:14Z</time>
      </trkpt>
      <trkpt lat="44.39653" lon="3.89735">
        <ele>1253</ele>
        <time>2009-07-10T15:40:25Z</time>
      </trkpt>
      <trkpt lat="44.39664" lon="3.89739">
        <ele>1253</ele>
        <time>2009-07-10T15:40:28Z</time>
      </trkpt>
      <trkpt lat="44.39673" lon="3.8974">
        <ele>1253</ele>
        <time>2009-07-10T15:40:30Z</time>
      </trkpt>
      <trkpt lat="44.397" lon="3.89748">
        <ele>1250</ele>
        <time>2009-07-10T15:40:36Z</time>
      </trkpt>
      <trkpt lat="44.39719" lon="3.89759">
        <ele>1251</ele>
        <time>2009-07-10T15:40:45Z</time>
      </trkpt>
      <trkpt lat="44.3972" lon="3.8976">
        <ele>1250</ele>
        <time>2009-07-10T15:40:47Z</time>
      </trkpt>
      <trkpt lat="44.39724" lon="3.89758">
        <ele>1251</ele>
        <time>2009-07-10T15:40:54Z</time>
      </trkpt>
      <trkpt lat="44.3973" lon="3.8976">
        <ele>1250</ele>
        <time>2009-07-10T15:40:57Z</time>
      </trkpt>
      <trkpt lat="44.39733" lon="3.89761">
        <ele>1248</ele>
        <time>2009-07-10T15:40:58Z</time>
      </trkpt>
      <trkpt lat="44.3976" lon="3.89774">
        <ele>1246</ele>
        <time>2009-07-10T15:41:05Z</time>
      </trkpt>
      <trkpt lat="44.39825" lon="3.89801">
        <ele>1246</ele>
        <time>2009-07-10T15:41:18Z</time>
      </trkpt>
      <trkpt lat="44.39831" lon="3.89803">
        <ele>1246</ele>
        <time>2009-07-10T15:41:19Z</time>
      </trkpt>
      <trkpt lat="44.3987" lon="3.8982">
        <ele>1245</ele>
        <time>2009-07-10T15:41:26Z</time>
      </trkpt>
      <trkpt lat="44.3988" lon="3.89826">
        <ele>1246</ele>
        <time>2009-07-10T15:41:28Z</time>
      </trkpt>
      <trkpt lat="44.39898" lon="3.89846">
        <ele>1245</ele>
        <time>2009-07-10T15:41:32Z</time>
      </trkpt>
      <trkpt lat="44.39909" lon="3.89864">
        <ele>1245</ele>
        <time>2009-07-10T15:41:35Z</time>
      </trkpt>
      <trkpt lat="44.39912" lon="3.89895">
        <ele>1244</ele>
        <time>2009-07-10T15:41:39Z</time>
      </trkpt>
      <trkpt lat="44.39906" lon="3.89919">
        <ele>1244</ele>
        <time>2009-07-10T15:41:42Z</time>
      </trkpt>
      <trkpt lat="44.39889" lon="3.89966">
        <ele>1242</ele>
        <time>2009-07-10T15:41:48Z</time>
      </trkpt>
      <trkpt lat="44.39877" lon="3.90007">
        <ele>1242</ele>
        <time>2009-07-10T15:41:53Z</time>
      </trkpt>
      <trkpt lat="44.39868" lon="3.90045">
        <ele>1242</ele>
        <time>2009-07-10T15:41:58Z</time>
      </trkpt>
      <trkpt lat="44.39863" lon="3.90079">
        <ele>1241</ele>
        <time>2009-07-10T15:42:06Z</time>
      </trkpt>
      <trkpt lat="44.39858" lon="3.901">
        <ele>1241</ele>
        <time>2009-07-10T15:42:11Z</time>
      </trkpt>
      <trkpt lat="44.39863" lon="3.90141">
        <ele>1241</ele>
        <time>2009-07-10T15:42:19Z</time>
      </trkpt>
      <trkpt lat="44.39865" lon="3.90166">
        <ele>1239</ele>
        <time>2009-07-10T15:42:23Z</time>
      </trkpt>
      <trkpt lat="44.39872" lon="3.90221">
        <ele>1239</ele>
        <time>2009-07-10T15:42:33Z</time>
      </trkpt>
      <trkpt lat="44.39874" lon="3.90239">
        <ele>1238</ele>
        <time>2009-07-10T15:42:36Z</time>
      </trkpt>
      <trkpt lat="44.39878" lon="3.90288">
        <ele>1238</ele>
        <time>2009-07-10T15:42:45Z</time>
      </trkpt>
      <trkpt lat="44.39869" lon="3.90354">
        <ele>1238</ele>
        <time>2009-07-10T15:42:58Z</time>
      </trkpt>
      <trkpt lat="44.39857" lon="3.90373">
        <ele>1237</ele>
        <time>2009-07-10T15:43:09Z</time>
      </trkpt>
      <trkpt lat="44.39853" lon="3.90378">
        <ele>1238</ele>
        <time>2009-07-10T15:43:46Z</time>
      </trkpt>
      <trkpt lat="44.39853" lon="3.90383">
        <ele>1235</ele>
        <time>2009-07-10T15:43:57Z</time>
      </trkpt>
      <trkpt lat="44.39857" lon="3.90384">
        <ele>1235</ele>
        <time>2009-07-10T15:44:09Z</time>
      </trkpt>
      <trkpt lat="44.39866" lon="3.90391">
        <ele>1232</ele>
        <time>2009-07-10T15:44:32Z</time>
      </trkpt>
      <trkpt lat="44.39865" lon="3.90397">
        <ele>1230</ele>
        <time>2009-07-10T15:44:48Z</time>
      </trkpt>
      <trkpt lat="44.39865" lon="3.90397">
        <ele>1230</ele>
        <time>2009-07-10T15:44:49Z</time>
      </trkpt>
      <trkpt lat="44.39859" lon="3.90405">
        <ele>1227</ele>
        <time>2009-07-10T15:45:00Z</time>
      </trkpt>
      <trkpt lat="44.39858" lon="3.90406">
        <ele>1228</ele>
        <time>2009-07-10T15:45:05Z</time>
      </trkpt>
      <trkpt lat="44.39856" lon="3.90408">
        <ele>1227</ele>
        <time>2009-07-10T15:45:08Z</time>
      </trkpt>
      <trkpt lat="44.39853" lon="3.90419">
        <ele>1224</ele>
        <time>2009-07-10T15:45:17Z</time>
      </trkpt>
      <trkpt lat="44.39852" lon="3.9042">
        <ele>1224</ele>
        <time>2009-07-10T15:45:18Z</time>
      </trkpt>
      <trkpt lat="44.39851" lon="3.90427">
        <ele>1224</ele>
        <time>2009-07-10T15:45:31Z</time>
      </trkpt>
      <trkpt lat="44.39849" lon="3.90433">
        <ele>1221</ele>
        <time>2009-07-10T15:45:44Z</time>
      </trkpt>
      <trkpt lat="44.39854" lon="3.90432">
        <ele>1219</ele>
        <time>2009-07-10T15:45:52Z</time>
      </trkpt>
      <trkpt lat="44.39859" lon="3.9043">
        <ele>1218</ele>
        <time>2009-07-10T15:45:55Z</time>
      </trkpt>
      <trkpt lat="44.39876" lon="3.90424">
        <ele>1214</ele>
        <time>2009-07-10T15:46:04Z</time>
      </trkpt>
      <trkpt lat="44.39878" lon="3.90423">
        <ele>1214</ele>
        <time>2009-07-10T15:46:05Z</time>
      </trkpt>
      <trkpt lat="44.39889" lon="3.90429">
        <ele>1213</ele>
        <time>2009-07-10T15:46:11Z</time>
      </trkpt>
      <trkpt lat="44.39884" lon="3.90438">
        <ele>1208</ele>
        <time>2009-07-10T15:46:16Z</time>
      </trkpt>
      <trkpt lat="44.39885" lon="3.9044">
        <ele>1208</ele>
        <time>2009-07-10T15:46:17Z</time>
      </trkpt>
      <trkpt lat="44.3989" lon="3.90445">
        <ele>1205</ele>
        <time>2009-07-10T15:46:21Z</time>
      </trkpt>
      <trkpt lat="44.39892" lon="3.90446">
        <ele>1204</ele>
        <time>2009-07-10T15:46:22Z</time>
      </trkpt>
      <trkpt lat="44.39887" lon="3.90457">
        <ele>1203</ele>
        <time>2009-07-10T15:46:27Z</time>
      </trkpt>
      <trkpt lat="44.3988" lon="3.90472">
        <ele>1200</ele>
        <time>2009-07-10T15:46:33Z</time>
      </trkpt>
      <trkpt lat="44.39876" lon="3.9048">
        <ele>1198</ele>
        <time>2009-07-10T15:46:36Z</time>
      </trkpt>
      <trkpt lat="44.39873" lon="3.90493">
        <ele>1196</ele>
        <time>2009-07-10T15:46:47Z</time>
      </trkpt>
      <trkpt lat="44.39874" lon="3.90505">
        <ele>1195</ele>
        <time>2009-07-10T15:46:59Z</time>
      </trkpt>
      <trkpt lat="44.39877" lon="3.90508">
        <ele>1193</ele>
        <time>2009-07-10T15:47:01Z</time>
      </trkpt>
      <trkpt lat="44.39888" lon="3.90508">
        <ele>1192</ele>
        <time>2009-07-10T15:47:11Z</time>
      </trkpt>
      <trkpt lat="44.39892" lon="3.90516">
        <ele>1188</ele>
        <time>2009-07-10T15:47:15Z</time>
      </trkpt>
      <trkpt lat="44.39898" lon="3.90518">
        <ele>1184</ele>
        <time>2009-07-10T15:47:18Z</time>
      </trkpt>
      <trkpt lat="44.399" lon="3.90518">
        <ele>1184</ele>
        <time>2009-07-10T15:47:19Z</time>
      </trkpt>
      <trkpt lat="44.39903" lon="3.90519">
        <ele>1183</ele>
        <time>2009-07-10T15:47:20Z</time>
      </trkpt>
      <trkpt lat="44.39916" lon="3.90519">
        <ele>1181</ele>
        <time>2009-07-10T15:47:24Z</time>
      </trkpt>
      <trkpt lat="44.39928" lon="3.90516">
        <ele>1179</ele>
        <time>2009-07-10T15:47:28Z</time>
      </trkpt>
      <trkpt lat="44.39934" lon="3.90517">
        <ele>1178</ele>
        <time>2009-07-10T15:47:31Z</time>
      </trkpt>
      <trkpt lat="44.3994" lon="3.90522">
        <ele>1176</ele>
        <time>2009-07-10T15:47:35Z</time>
      </trkpt>
      <trkpt lat="44.39942" lon="3.90529">
        <ele>1175</ele>
        <time>2009-07-10T15:47:43Z</time>
      </trkpt>
      <trkpt lat="44.39942" lon="3.90533">
        <ele>1174</ele>
        <time>2009-07-10T15:48:04Z</time>
      </trkpt>
      <trkpt lat="44.39941" lon="3.90537">
        <ele>1174</ele>
        <time>2009-07-10T15:48:13Z</time>
      </trkpt>
      <trkpt lat="44.39934" lon="3.90548">
        <ele>1173</ele>
        <time>2009-07-10T15:48:27Z</time>
      </trkpt>
      <trkpt lat="44.39928" lon="3.90551">
        <ele>1173</ele>
        <time>2009-07-10T15:48:39Z</time>
      </trkpt>
      <trkpt lat="44.39926" lon="3.90553">
        <ele>1173</ele>
        <time>2009-07-10T15:48:48Z</time>
      </trkpt>
      <trkpt lat="44.39926" lon="3.9056">
        <ele>1171</ele>
        <time>2009-07-10T15:48:56Z</time>
      </trkpt>
      <trkpt lat="44.3992" lon="3.90565">
        <ele>1169</ele>
        <time>2009-07-10T15:49:00Z</time>
      </trkpt>
      <trkpt lat="44.39912" lon="3.90572">
        <ele>1166</ele>
        <time>2009-07-10T15:49:04Z</time>
      </trkpt>
      <trkpt lat="44.39907" lon="3.90573">
        <ele>1166</ele>
        <time>2009-07-10T15:49:06Z</time>
      </trkpt>
      <trkpt lat="44.39897" lon="3.90576">
        <ele>1165</ele>
        <time>2009-07-10T15:49:11Z</time>
      </trkpt>
      <trkpt lat="44.39894" lon="3.9058">
        <ele>1161</ele>
        <time>2009-07-10T15:49:13Z</time>
      </trkpt>
      <trkpt lat="44.39894" lon="3.90581">
        <ele>1161</ele>
        <time>2009-07-10T15:49:15Z</time>
      </trkpt>
      <trkpt lat="44.39909" lon="3.90591">
        <ele>1160</ele>
        <time>2009-07-10T15:49:27Z</time>
      </trkpt>
      <trkpt lat="44.39931" lon="3.90593">
        <ele>1158</ele>
        <time>2009-07-10T15:49:52Z</time>
      </trkpt>
      <trkpt lat="44.3996" lon="3.90583">
        <ele>1157</ele>
        <time>2009-07-10T15:50:03Z</time>
      </trkpt>
      <trkpt lat="44.39989" lon="3.90557">
        <ele>1154</ele>
        <time>2009-07-10T15:50:16Z</time>
      </trkpt>
      <trkpt lat="44.39997" lon="3.90546">
        <ele>1154</ele>
        <time>2009-07-10T15:50:28Z</time>
      </trkpt>
      <trkpt lat="44.39999" lon="3.90546">
        <ele>1154</ele>
        <time>2009-07-10T15:51:13Z</time>
      </trkpt>
      <trkpt lat="44.4" lon="3.90547">
        <ele>1155</ele>
        <time>2009-07-10T15:52:06Z</time>
      </trkpt>
      <trkpt lat="44.4" lon="3.90548">
        <ele>1151</ele>
        <time>2009-07-10T15:52:52Z</time>
      </trkpt>
      <trkpt lat="44.4" lon="3.90548">
        <ele>1155</ele>
        <time>2009-07-10T15:52:53Z</time>
      </trkpt>
      <trkpt lat="44.4" lon="3.90548">
        <ele>1154</ele>
        <time>2009-07-10T15:52:57Z</time>
      </trkpt>
      <trkpt lat="44.4" lon="3.90545">
        <ele>1152</ele>
        <time>2009-07-10T15:53:39Z</time>
      </trkpt>
      <trkpt lat="44.40017" lon="3.90508">
        <ele>1150</ele>
        <time>2009-07-10T15:53:52Z</time>
      </trkpt>
      <trkpt lat="44.40025" lon="3.90486">
        <ele>1147</ele>
        <time>2009-07-10T15:53:56Z</time>
      </trkpt>
      <trkpt lat="44.40027" lon="3.9048">
        <ele>1147</ele>
        <time>2009-07-10T15:53:57Z</time>
      </trkpt>
      <trkpt lat="44.40039" lon="3.90443">
        <ele>1145</ele>
        <time>2009-07-10T15:54:02Z</time>
      </trkpt>
      <trkpt lat="44.40048" lon="3.90421">
        <ele>1143</ele>
        <time>2009-07-10T15:54:05Z</time>
      </trkpt>
      <trkpt lat="44.40075" lon="3.90376">
        <ele>1140</ele>
        <time>2009-07-10T15:54:12Z</time>
      </trkpt>
      <trkpt lat="44.40086" lon="3.9036">
        <ele>1139</ele>
        <time>2009-07-10T15:54:14Z</time>
      </trkpt>
      <trkpt lat="44.401" lon="3.9032">
        <ele>1136</ele>
        <time>2009-07-10T15:54:18Z</time>
      </trkpt>
      <trkpt lat="44.40102" lon="3.9031">
        <ele>1136</ele>
        <time>2009-07-10T15:54:19Z</time>
      </trkpt>
      <trkpt lat="44.40102" lon="3.90264">
        <ele>1135</ele>
        <time>2009-07-10T15:54:27Z</time>
      </trkpt>
      <trkpt lat="44.40096" lon="3.90247">
        <ele>1135</ele>
        <time>2009-07-10T15:54:31Z</time>
      </trkpt>
      <trkpt lat="44.40106" lon="3.90248">
        <ele>1133</ele>
        <time>2009-07-10T15:54:38Z</time>
      </trkpt>
      <trkpt lat="44.40115" lon="3.90285">
        <ele>1130</ele>
        <time>2009-07-10T15:54:45Z</time>
      </trkpt>
      <trkpt lat="44.40121" lon="3.90306">
        <ele>1129</ele>
        <time>2009-07-10T15:54:48Z</time>
      </trkpt>
      <trkpt lat="44.40125" lon="3.9033">
        <ele>1128</ele>
        <time>2009-07-10T15:54:51Z</time>
      </trkpt>
      <trkpt lat="44.40124" lon="3.90348">
        <ele>1127</ele>
        <time>2009-07-10T15:54:53Z</time>
      </trkpt>
      <trkpt lat="44.40111" lon="3.90393">
        <ele>1125</ele>
        <time>2009-07-10T15:54:58Z</time>
      </trkpt>
      <trkpt lat="44.40088" lon="3.90449">
        <ele>1121</ele>
        <time>2009-07-10T15:55:04Z</time>
      </trkpt>
      <trkpt lat="44.40082" lon="3.9047">
        <ele>1121</ele>
        <time>2009-07-10T15:55:06Z</time>
      </trkpt>
      <trkpt lat="44.40083" lon="3.90504">
        <ele>1119</ele>
        <time>2009-07-10T15:55:09Z</time>
      </trkpt>
      <trkpt lat="44.40085" lon="3.90516">
        <ele>1118</ele>
        <time>2009-07-10T15:55:10Z</time>
      </trkpt>
      <trkpt lat="44.40091" lon="3.90565">
        <ele>1115</ele>
        <time>2009-07-10T15:55:14Z</time>
      </trkpt>
      <trkpt lat="44.40099" lon="3.90626">
        <ele>1112</ele>
        <time>2009-07-10T15:55:19Z</time>
      </trkpt>
      <trkpt lat="44.40106" lon="3.90674">
        <ele>1109</ele>
        <time>2009-07-10T15:55:23Z</time>
      </trkpt>
      <trkpt lat="44.4011" lon="3.90681">
        <ele>1111</ele>
        <time>2009-07-10T15:55:26Z</time>
      </trkpt>
      <trkpt lat="44.40111" lon="3.90678">
        <ele>1111</ele>
        <time>2009-07-10T15:55:42Z</time>
      </trkpt>
      <trkpt lat="44.4011" lon="3.90679">
        <ele>1111</ele>
        <time>2009-07-10T15:55:54Z</time>
      </trkpt>
      <trkpt lat="44.40124" lon="3.90697">
        <ele>1112</ele>
        <time>2009-07-10T15:56:07Z</time>
      </trkpt>
      <trkpt lat="44.40145" lon="3.90706">
        <ele>1115</ele>
        <time>2009-07-10T15:56:19Z</time>
      </trkpt>
      <trkpt lat="44.40151" lon="3.90709">
        <ele>1116</ele>
        <time>2009-07-10T15:56:31Z</time>
      </trkpt>
      <trkpt lat="44.40159" lon="3.90714">
        <ele>1116</ele>
        <time>2009-07-10T15:56:44Z</time>
      </trkpt>
      <trkpt lat="44.40169" lon="3.9072">
        <ele>1117</ele>
        <time>2009-07-10T15:56:52Z</time>
      </trkpt>
      <trkpt lat="44.4019" lon="3.90733">
        <ele>1118</ele>
        <time>2009-07-10T15:57:08Z</time>
      </trkpt>
      <trkpt lat="44.40202" lon="3.9074">
        <ele>1120</ele>
        <time>2009-07-10T15:57:17Z</time>
      </trkpt>
      <trkpt lat="44.40218" lon="3.90746">
        <ele>1123</ele>
        <time>2009-07-10T15:57:29Z</time>
      </trkpt>
      <trkpt lat="44.40236" lon="3.9076">
        <ele>1124</ele>
        <time>2009-07-10T15:57:42Z</time>
      </trkpt>
      <trkpt lat="44.40256" lon="3.90789">
        <ele>1126</ele>
        <time>2009-07-10T15:58:01Z</time>
      </trkpt>
      <trkpt lat="44.40263" lon="3.90803">
        <ele>1128</ele>
        <time>2009-07-10T15:58:12Z</time>
      </trkpt>
      <trkpt lat="44.40275" lon="3.90837">
        <ele>1125</ele>
        <time>2009-07-10T15:58:22Z</time>
      </trkpt>
      <trkpt lat="44.40278" lon="3.90843">
        <ele>1124</ele>
        <time>2009-07-10T15:58:23Z</time>
      </trkpt>
      <trkpt lat="44.40283" lon="3.90856">
        <ele>1123</ele>
        <time>2009-07-10T15:58:25Z</time>
      </trkpt>
      <trkpt lat="44.40289" lon="3.90878">
        <ele>1121</ele>
        <time>2009-07-10T15:58:28Z</time>
      </trkpt>
      <trkpt lat="44.40292" lon="3.90934">
        <ele>1122</ele>
        <time>2009-07-10T15:58:38Z</time>
      </trkpt>
      <trkpt lat="44.40291" lon="3.90949">
        <ele>1122</ele>
        <time>2009-07-10T15:58:43Z</time>
      </trkpt>
      <trkpt lat="44.40295" lon="3.90958">
        <ele>1122</ele>
        <time>2009-07-10T15:58:47Z</time>
      </trkpt>
      <trkpt lat="44.40307" lon="3.9097">
        <ele>1124</ele>
        <time>2009-07-10T15:59:01Z</time>
      </trkpt>
      <trkpt lat="44.40313" lon="3.90977">
        <ele>1125</ele>
        <time>2009-07-10T15:59:14Z</time>
      </trkpt>
      <trkpt lat="44.40323" lon="3.90999">
        <ele>1127</ele>
        <time>2009-07-10T15:59:26Z</time>
      </trkpt>
      <trkpt lat="44.40325" lon="3.91006">
        <ele>1127</ele>
        <time>2009-07-10T15:59:29Z</time>
      </trkpt>
      <trkpt lat="44.40334" lon="3.9104">
        <ele>1127</ele>
        <time>2009-07-10T15:59:42Z</time>
      </trkpt>
      <trkpt lat="44.40333" lon="3.91043">
        <ele>1126</ele>
        <time>2009-07-10T15:59:43Z</time>
      </trkpt>
      <trkpt lat="44.40343" lon="3.91077">
        <ele>1127</ele>
        <time>2009-07-10T15:59:56Z</time>
      </trkpt>
      <trkpt lat="44.40347" lon="3.91097">
        <ele>1127</ele>
        <time>2009-07-10T16:00:06Z</time>
      </trkpt>
      <trkpt lat="44.40346" lon="3.91099">
        <ele>1127</ele>
        <time>2009-07-10T16:00:12Z</time>
      </trkpt>
      <trkpt lat="44.40348" lon="3.91105">
        <ele>1125</ele>
        <time>2009-07-10T16:00:29Z</time>
      </trkpt>
      <trkpt lat="44.40349" lon="3.91117">
        <ele>1123</ele>
        <time>2009-07-10T16:00:44Z</time>
      </trkpt>
      <trkpt lat="44.40349" lon="3.9112">
        <ele>1123</ele>
        <time>2009-07-10T16:00:57Z</time>
      </trkpt>
      <trkpt lat="44.40355" lon="3.91149">
        <ele>1124</ele>
        <time>2009-07-10T16:01:10Z</time>
      </trkpt>
      <trkpt lat="44.40353" lon="3.91175">
        <ele>1125</ele>
        <time>2009-07-10T16:01:22Z</time>
      </trkpt>
      <trkpt lat="44.40346" lon="3.91183">
        <ele>1125</ele>
        <time>2009-07-10T16:01:27Z</time>
      </trkpt>
      <trkpt lat="44.40345" lon="3.91193">
        <ele>1126</ele>
        <time>2009-07-10T16:01:40Z</time>
      </trkpt>
      <trkpt lat="44.40344" lon="3.91198">
        <ele>1127</ele>
        <time>2009-07-10T16:01:45Z</time>
      </trkpt>
      <trkpt lat="44.40344" lon="3.91212">
        <ele>1124</ele>
        <time>2009-07-10T16:01:55Z</time>
      </trkpt>
      <trkpt lat="44.40346" lon="3.91222">
        <ele>1124</ele>
        <time>2009-07-10T16:01:58Z</time>
      </trkpt>
      <trkpt lat="44.40347" lon="3.91234">
        <ele>1122</ele>
        <time>2009-07-10T16:02:03Z</time>
      </trkpt>
      <trkpt lat="44.40351" lon="3.91244">
        <ele>1124</ele>
        <time>2009-07-10T16:02:08Z</time>
      </trkpt>
      <trkpt lat="44.40353" lon="3.91247">
        <ele>1125</ele>
        <time>2009-07-10T16:02:11Z</time>
      </trkpt>
      <trkpt lat="44.40361" lon="3.91261">
        <ele>1126</ele>
        <time>2009-07-10T16:02:24Z</time>
      </trkpt>
      <trkpt lat="44.40369" lon="3.91271">
        <ele>1124</ele>
        <time>2009-07-10T16:02:36Z</time>
      </trkpt>
      <trkpt lat="44.40372" lon="3.9128">
        <ele>1122</ele>
        <time>2009-07-10T16:02:49Z</time>
      </trkpt>
      <trkpt lat="44.40372" lon="3.91284">
        <ele>1121</ele>
        <time>2009-07-10T16:02:53Z</time>
      </trkpt>
      <trkpt lat="44.40366" lon="3.91294">
        <ele>1120</ele>
        <time>2009-07-10T16:03:07Z</time>
      </trkpt>
      <trkpt lat="44.40371" lon="3.913">
        <ele>1118</ele>
        <time>2009-07-10T16:03:20Z</time>
      </trkpt>
      <trkpt lat="44.40374" lon="3.91303">
        <ele>1117</ele>
        <time>2009-07-10T16:03:25Z</time>
      </trkpt>
      <trkpt lat="44.40377" lon="3.91304">
        <ele>1116</ele>
        <time>2009-07-10T16:03:29Z</time>
      </trkpt>
      <trkpt lat="44.40383" lon="3.91315">
        <ele>1112</ele>
        <time>2009-07-10T16:03:40Z</time>
      </trkpt>
      <trkpt lat="44.40384" lon="3.91316">
        <ele>1112</ele>
        <time>2009-07-10T16:03:41Z</time>
      </trkpt>
      <trkpt lat="44.4039" lon="3.91322">
        <ele>1111</ele>
        <time>2009-07-10T16:03:51Z</time>
      </trkpt>
      <trkpt lat="44.40394" lon="3.91328">
        <ele>1109</ele>
        <time>2009-07-10T16:04:09Z</time>
      </trkpt>
      <trkpt lat="44.40396" lon="3.91327">
        <ele>1107</ele>
        <time>2009-07-10T16:04:28Z</time>
      </trkpt>
      <trkpt lat="44.40396" lon="3.91327">
        <ele>1110</ele>
        <time>2009-07-10T16:04:29Z</time>
      </trkpt>
      <trkpt lat="44.40396" lon="3.91327">
        <ele>1109</ele>
        <time>2009-07-10T16:04:30Z</time>
      </trkpt>
      <trkpt lat="44.40394" lon="3.91332">
        <ele>1108</ele>
        <time>2009-07-10T16:04:49Z</time>
      </trkpt>
      <trkpt lat="44.40398" lon="3.91349">
        <ele>1104</ele>
        <time>2009-07-10T16:04:54Z</time>
      </trkpt>
      <trkpt lat="44.40402" lon="3.91362">
        <ele>1103</ele>
        <time>2009-07-10T16:04:57Z</time>
      </trkpt>
      <trkpt lat="44.40405" lon="3.91371">
        <ele>1103</ele>
        <time>2009-07-10T16:05:05Z</time>
      </trkpt>
      <trkpt lat="44.40406" lon="3.91377">
        <ele>1103</ele>
        <time>2009-07-10T16:05:12Z</time>
      </trkpt>
      <trkpt lat="44.40404" lon="3.91391">
        <ele>1104</ele>
        <time>2009-07-10T16:05:24Z</time>
      </trkpt>
      <trkpt lat="44.40406" lon="3.91409">
        <ele>1103</ele>
        <time>2009-07-10T16:05:36Z</time>
      </trkpt>
      <trkpt lat="44.4041" lon="3.91438">
        <ele>1103</ele>
        <time>2009-07-10T16:05:48Z</time>
      </trkpt>
      <trkpt lat="44.40413" lon="3.91442">
        <ele>1103</ele>
        <time>2009-07-10T16:05:56Z</time>
      </trkpt>
      <trkpt lat="44.4042" lon="3.9144">
        <ele>1104</ele>
        <time>2009-07-10T16:06:10Z</time>
      </trkpt>
      <trkpt lat="44.4042" lon="3.91445">
        <ele>1107</ele>
        <time>2009-07-10T16:06:25Z</time>
      </trkpt>
      <trkpt lat="44.40417" lon="3.91449">
        <ele>1109</ele>
        <time>2009-07-10T16:06:40Z</time>
      </trkpt>
      <trkpt lat="44.40417" lon="3.91448">
        <ele>1112</ele>
        <time>2009-07-10T16:07:02Z</time>
      </trkpt>
      <trkpt lat="44.40417" lon="3.91448">
        <ele>1108</ele>
        <time>2009-07-10T16:07:05Z</time>
      </trkpt>
      <trkpt lat="44.40417" lon="3.91453">
        <ele>1110</ele>
        <time>2009-07-10T16:07:21Z</time>
      </trkpt>
      <trkpt lat="44.40417" lon="3.91458">
        <ele>1112</ele>
        <time>2009-07-10T16:07:35Z</time>
      </trkpt>
      <trkpt lat="44.40419" lon="3.91469">
        <ele>1115</ele>
        <time>2009-07-10T16:07:49Z</time>
      </trkpt>
      <trkpt lat="44.40418" lon="3.9148">
        <ele>1116</ele>
        <time>2009-07-10T16:08:02Z</time>
      </trkpt>
      <trkpt lat="44.40418" lon="3.91491">
        <ele>1119</ele>
        <time>2009-07-10T16:08:19Z</time>
      </trkpt>
      <trkpt lat="44.40418" lon="3.91496">
        <ele>1120</ele>
        <time>2009-07-10T16:08:25Z</time>
      </trkpt>
      <trkpt lat="44.4042" lon="3.91502">
        <ele>1120</ele>
        <time>2009-07-10T16:08:38Z</time>
      </trkpt>
      <trkpt lat="44.40421" lon="3.91512">
        <ele>1121</ele>
        <time>2009-07-10T16:08:51Z</time>
      </trkpt>
      <trkpt lat="44.40421" lon="3.91515">
        <ele>1122</ele>
        <time>2009-07-10T16:08:54Z</time>
      </trkpt>
      <trkpt lat="44.40424" lon="3.91537">
        <ele>1124</ele>
        <time>2009-07-10T16:09:11Z</time>
      </trkpt>
      <trkpt lat="44.40427" lon="3.91545">
        <ele>1124</ele>
        <time>2009-07-10T16:09:25Z</time>
      </trkpt>
      <trkpt lat="44.40439" lon="3.91565">
        <ele>1125</ele>
        <time>2009-07-10T16:09:37Z</time>
      </trkpt>
      <trkpt lat="44.40448" lon="3.9159">
        <ele>1124</ele>
        <time>2009-07-10T16:09:51Z</time>
      </trkpt>
      <trkpt lat="44.40461" lon="3.91621">
        <ele>1126</ele>
        <time>2009-07-10T16:10:05Z</time>
      </trkpt>
      <trkpt lat="44.4047" lon="3.91648">
        <ele>1124</ele>
        <time>2009-07-10T16:10:20Z</time>
      </trkpt>
      <trkpt lat="44.40475" lon="3.91658">
        <ele>1125</ele>
        <time>2009-07-10T16:10:34Z</time>
      </trkpt>
      <trkpt lat="44.4048" lon="3.91664">
        <ele>1125</ele>
        <time>2009-07-10T16:10:46Z</time>
      </trkpt>
      <trkpt lat="44.40484" lon="3.91668">
        <ele>1125</ele>
        <time>2009-07-10T16:11:00Z</time>
      </trkpt>
      <trkpt lat="44.40494" lon="3.9168">
        <ele>1123</ele>
        <time>2009-07-10T16:11:12Z</time>
      </trkpt>
      <trkpt lat="44.40496" lon="3.91683">
        <ele>1124</ele>
        <time>2009-07-10T16:11:24Z</time>
      </trkpt>
      <trkpt lat="44.40501" lon="3.91691">
        <ele>1123</ele>
        <time>2009-07-10T16:11:43Z</time>
      </trkpt>
      <trkpt lat="44.40508" lon="3.917">
        <ele>1123</ele>
        <time>2009-07-10T16:11:57Z</time>
      </trkpt>
      <trkpt lat="44.40512" lon="3.91705">
        <ele>1123</ele>
        <time>2009-07-10T16:12:09Z</time>
      </trkpt>
      <trkpt lat="44.40516" lon="3.91717">
        <ele>1123</ele>
        <time>2009-07-10T16:12:21Z</time>
      </trkpt>
      <trkpt lat="44.40518" lon="3.91727">
        <ele>1123</ele>
        <time>2009-07-10T16:12:34Z</time>
      </trkpt>
      <trkpt lat="44.40523" lon="3.91742">
        <ele>1123</ele>
        <time>2009-07-10T16:12:50Z</time>
      </trkpt>
      <trkpt lat="44.40524" lon="3.91746">
        <ele>1123</ele>
        <time>2009-07-10T16:13:01Z</time>
      </trkpt>
      <trkpt lat="44.40526" lon="3.91747">
        <ele>1123</ele>
        <time>2009-07-10T16:13:03Z</time>
      </trkpt>
      <trkpt lat="44.40539" lon="3.91763">
        <ele>1122</ele>
        <time>2009-07-10T16:13:16Z</time>
      </trkpt>
      <trkpt lat="44.40546" lon="3.91766">
        <ele>1121</ele>
        <time>2009-07-10T16:13:27Z</time>
      </trkpt>
      <trkpt lat="44.40548" lon="3.91766">
        <ele>1123</ele>
        <time>2009-07-10T16:13:45Z</time>
      </trkpt>
      <trkpt lat="44.40548" lon="3.91766">
        <ele>1119</ele>
        <time>2009-07-10T16:13:46Z</time>
      </trkpt>
      <trkpt lat="44.40548" lon="3.91766">
        <ele>1123</ele>
        <time>2009-07-10T16:13:48Z</time>
      </trkpt>
      <trkpt lat="44.40548" lon="3.91766">
        <ele>1118</ele>
        <time>2009-07-10T16:13:52Z</time>
      </trkpt>
      <trkpt lat="44.40548" lon="3.91766">
        <ele>1123</ele>
        <time>2009-07-10T16:13:53Z</time>
      </trkpt>
      <trkpt lat="44.40548" lon="3.91766">
        <ele>1119</ele>
        <time>2009-07-10T16:13:55Z</time>
      </trkpt>
      <trkpt lat="44.40548" lon="3.91766">
        <ele>1119</ele>
        <time>2009-07-10T16:13:56Z</time>
      </trkpt>
      <trkpt lat="44.40548" lon="3.91766">
        <ele>1121</ele>
        <time>2009-07-10T16:13:58Z</time>
      </trkpt>
      <trkpt lat="44.40549" lon="3.91766">
        <ele>1120</ele>
        <time>2009-07-10T16:14:15Z</time>
      </trkpt>
      <trkpt lat="44.40549" lon="3.91765">
        <ele>1120</ele>
        <time>2009-07-10T16:14:46Z</time>
      </trkpt>
      <trkpt lat="44.40549" lon="3.91763">
        <ele>1119</ele>
        <time>2009-07-10T16:16:52Z</time>
      </trkpt>
      <trkpt lat="44.40549" lon="3.91764">
        <ele>1120</ele>
        <time>2009-07-10T16:18:03Z</time>
      </trkpt>
      <trkpt lat="44.40567" lon="3.91766">
        <ele>1117</ele>
        <time>2009-07-10T16:18:16Z</time>
      </trkpt>
      <trkpt lat="44.40596" lon="3.91775">
        <ele>1114</ele>
        <time>2009-07-10T16:18:27Z</time>
      </trkpt>
      <trkpt lat="44.40615" lon="3.91784">
        <ele>1114</ele>
        <time>2009-07-10T16:18:38Z</time>
      </trkpt>
      <trkpt lat="44.40622" lon="3.91783">
        <ele>1114</ele>
        <time>2009-07-10T16:18:49Z</time>
      </trkpt>
      <trkpt lat="44.4064" lon="3.91795">
        <ele>1114</ele>
        <time>2009-07-10T16:19:04Z</time>
      </trkpt>
      <trkpt lat="44.40643" lon="3.91798">
        <ele>1116</ele>
        <time>2009-07-10T16:19:16Z</time>
      </trkpt>
      <trkpt lat="44.40647" lon="3.91798">
        <ele>1115</ele>
        <time>2009-07-10T16:19:31Z</time>
      </trkpt>
      <trkpt lat="44.40647" lon="3.91797">
        <ele>1116</ele>
        <time>2009-07-10T16:19:35Z</time>
      </trkpt>
      <trkpt lat="44.40641" lon="3.91798">
        <ele>1116</ele>
        <time>2009-07-10T16:19:46Z</time>
      </trkpt>
      <trkpt lat="44.4064" lon="3.91797">
        <ele>1117</ele>
        <time>2009-07-10T16:19:49Z</time>
      </trkpt>
      <trkpt lat="44.40635" lon="3.91794">
        <ele>1114</ele>
        <time>2009-07-10T16:19:52Z</time>
      </trkpt>
      <trkpt lat="44.40633" lon="3.91793">
        <ele>1114</ele>
        <time>2009-07-10T16:19:53Z</time>
      </trkpt>
      <trkpt lat="44.40619" lon="3.91783">
        <ele>1113</ele>
        <time>2009-07-10T16:20:04Z</time>
      </trkpt>
      <trkpt lat="44.40622" lon="3.91779">
        <ele>1112</ele>
        <time>2009-07-10T16:20:16Z</time>
      </trkpt>
      <trkpt lat="44.40622" lon="3.91779">
        <ele>1113</ele>
        <time>2009-07-10T16:20:21Z</time>
      </trkpt>
      <trkpt lat="44.40631" lon="3.91777">
        <ele>1113</ele>
        <time>2009-07-10T16:20:27Z</time>
      </trkpt>
      <trkpt lat="44.40665" lon="3.91789">
        <ele>1111</ele>
        <time>2009-07-10T16:20:42Z</time>
      </trkpt>
      <trkpt lat="44.40672" lon="3.91794">
        <ele>1108</ele>
        <time>2009-07-10T16:20:45Z</time>
      </trkpt>
      <trkpt lat="44.40682" lon="3.91793">
        <ele>1104</ele>
        <time>2009-07-10T16:20:50Z</time>
      </trkpt>
      <trkpt lat="44.40683" lon="3.91792">
        <ele>1104</ele>
        <time>2009-07-10T16:20:51Z</time>
      </trkpt>
      <trkpt lat="44.4069" lon="3.91785">
        <ele>1103</ele>
        <time>2009-07-10T16:21:01Z</time>
      </trkpt>
      <trkpt lat="44.40693" lon="3.91788">
        <ele>1102</ele>
        <time>2009-07-10T16:21:13Z</time>
      </trkpt>
      <trkpt lat="44.40698" lon="3.91787">
        <ele>1101</ele>
        <time>2009-07-10T16:21:21Z</time>
      </trkpt>
      <trkpt lat="44.40708" lon="3.91795">
        <ele>1097</ele>
        <time>2009-07-10T16:21:35Z</time>
      </trkpt>
      <trkpt lat="44.4071" lon="3.91796">
        <ele>1096</ele>
        <time>2009-07-10T16:21:37Z</time>
      </trkpt>
      <trkpt lat="44.40718" lon="3.91801">
        <ele>1093</ele>
        <time>2009-07-10T16:21:47Z</time>
      </trkpt>
      <trkpt lat="44.40718" lon="3.91801">
        <ele>1093</ele>
        <time>2009-07-10T16:21:48Z</time>
      </trkpt>
      <trkpt lat="44.4072" lon="3.91803">
        <ele>1092</ele>
        <time>2009-07-10T16:21:50Z</time>
      </trkpt>
      <trkpt lat="44.40722" lon="3.91806">
        <ele>1091</ele>
        <time>2009-07-10T16:21:53Z</time>
      </trkpt>
      <trkpt lat="44.40723" lon="3.91808">
        <ele>1090</ele>
        <time>2009-07-10T16:21:58Z</time>
      </trkpt>
      <trkpt lat="44.40727" lon="3.91812">
        <ele>1087</ele>
        <time>2009-07-10T16:22:03Z</time>
      </trkpt>
      <trkpt lat="44.40734" lon="3.91818">
        <ele>1084</ele>
        <time>2009-07-10T16:22:16Z</time>
      </trkpt>
      <trkpt lat="44.40738" lon="3.9182">
        <ele>1083</ele>
        <time>2009-07-10T16:22:30Z</time>
      </trkpt>
      <trkpt lat="44.40739" lon="3.9182">
        <ele>1083</ele>
        <time>2009-07-10T16:22:31Z</time>
      </trkpt>
      <trkpt lat="44.40754" lon="3.91821">
        <ele>1079</ele>
        <time>2009-07-10T16:22:37Z</time>
      </trkpt>
      <trkpt lat="44.40766" lon="3.91827">
        <ele>1077</ele>
        <time>2009-07-10T16:22:43Z</time>
      </trkpt>
      <trkpt lat="44.40768" lon="3.91829">
        <ele>1077</ele>
        <time>2009-07-10T16:22:55Z</time>
      </trkpt>
      <trkpt lat="44.40775" lon="3.9184">
        <ele>1075</ele>
        <time>2009-07-10T16:23:03Z</time>
      </trkpt>
      <trkpt lat="44.40784" lon="3.91852">
        <ele>1074</ele>
        <time>2009-07-10T16:23:13Z</time>
      </trkpt>
      <trkpt lat="44.4079" lon="3.91859">
        <ele>1074</ele>
        <time>2009-07-10T16:23:18Z</time>
      </trkpt>
      <trkpt lat="44.40804" lon="3.91873">
        <ele>1070</ele>
        <time>2009-07-10T16:23:25Z</time>
      </trkpt>
      <trkpt lat="44.40818" lon="3.91884">
        <ele>1067</ele>
        <time>2009-07-10T16:23:32Z</time>
      </trkpt>
      <trkpt lat="44.40822" lon="3.91885">
        <ele>1066</ele>
        <time>2009-07-10T16:23:42Z</time>
      </trkpt>
      <trkpt lat="44.4083" lon="3.91891">
        <ele>1065</ele>
        <time>2009-07-10T16:23:55Z</time>
      </trkpt>
      <trkpt lat="44.40846" lon="3.91903">
        <ele>1063</ele>
        <time>2009-07-10T16:24:05Z</time>
      </trkpt>
      <trkpt lat="44.40851" lon="3.91905">
        <ele>1062</ele>
        <time>2009-07-10T16:24:08Z</time>
      </trkpt>
      <trkpt lat="44.40853" lon="3.91907">
        <ele>1061</ele>
        <time>2009-07-10T16:24:20Z</time>
      </trkpt>
      <trkpt lat="44.40863" lon="3.91918">
        <ele>1058</ele>
        <time>2009-07-10T16:24:32Z</time>
      </trkpt>
      <trkpt lat="44.40869" lon="3.91923">
        <ele>1057</ele>
        <time>2009-07-10T16:24:42Z</time>
      </trkpt>
      <trkpt lat="44.40873" lon="3.91925">
        <ele>1056</ele>
        <time>2009-07-10T16:25:00Z</time>
      </trkpt>
      <trkpt lat="44.40884" lon="3.91934">
        <ele>1054</ele>
        <time>2009-07-10T16:25:15Z</time>
      </trkpt>
      <trkpt lat="44.40911" lon="3.91947">
        <ele>1053</ele>
        <time>2009-07-10T16:25:28Z</time>
      </trkpt>
      <trkpt lat="44.40943" lon="3.91951">
        <ele>1053</ele>
        <time>2009-07-10T16:25:43Z</time>
      </trkpt>
      <trkpt lat="44.40962" lon="3.91949">
        <ele>1055</ele>
        <time>2009-07-10T16:25:55Z</time>
      </trkpt>
      <trkpt lat="44.40984" lon="3.91943">
        <ele>1059</ele>
        <time>2009-07-10T16:26:10Z</time>
      </trkpt>
      <trkpt lat="44.41001" lon="3.91936">
        <ele>1060</ele>
        <time>2009-07-10T16:26:23Z</time>
      </trkpt>
      <trkpt lat="44.41002" lon="3.91934">
        <ele>1061</ele>
        <time>2009-07-10T16:26:41Z</time>
      </trkpt>
      <trkpt lat="44.41002" lon="3.91932">
        <ele>1062</ele>
        <time>2009-07-10T16:27:39Z</time>
      </trkpt>
      <trkpt lat="44.41002" lon="3.91934">
        <ele>1061</ele>
        <time>2009-07-10T16:28:00Z</time>
      </trkpt>
      <trkpt lat="44.41002" lon="3.91934">
        <ele>1058</ele>
        <time>2009-07-10T16:28:05Z</time>
      </trkpt>
      <trkpt lat="44.41002" lon="3.91934">
        <ele>1061</ele>
        <time>2009-07-10T16:28:06Z</time>
      </trkpt>
      <trkpt lat="44.41002" lon="3.91934">
        <ele>1057</ele>
        <time>2009-07-10T16:28:09Z</time>
      </trkpt>
      <trkpt lat="44.41002" lon="3.91934">
        <ele>1061</ele>
        <time>2009-07-10T16:28:10Z</time>
      </trkpt>
      <trkpt lat="44.41002" lon="3.91934">
        <ele>1064</ele>
        <time>2009-07-10T16:28:15Z</time>
      </trkpt>
      <trkpt lat="44.41002" lon="3.91934">
        <ele>1060</ele>
        <time>2009-07-10T16:28:16Z</time>
      </trkpt>
      <trkpt lat="44.41002" lon="3.91934">
        <ele>1065</ele>
        <time>2009-07-10T16:28:18Z</time>
      </trkpt>
      <trkpt lat="44.41002" lon="3.91934">
        <ele>1058</ele>
        <time>2009-07-10T16:28:19Z</time>
      </trkpt>
      <trkpt lat="44.41002" lon="3.91934">
        <ele>1062</ele>
        <time>2009-07-10T16:28:20Z</time>
      </trkpt>
      <trkpt lat="44.41002" lon="3.91934">
        <ele>1063</ele>
        <time>2009-07-10T16:28:25Z</time>
      </trkpt>
      <trkpt lat="44.41002" lon="3.91934">
        <ele>1060</ele>
        <time>2009-07-10T16:28:27Z</time>
      </trkpt>
      <trkpt lat="44.41002" lon="3.91934">
        <ele>1063</ele>
        <time>2009-07-10T16:28:28Z</time>
      </trkpt>
      <trkpt lat="44.41002" lon="3.91934">
        <ele>1060</ele>
        <time>2009-07-10T16:28:29Z</time>
      </trkpt>
      <trkpt lat="44.41002" lon="3.91934">
        <ele>1064</ele>
        <time>2009-07-10T16:28:30Z</time>
      </trkpt>
      <trkpt lat="44.41002" lon="3.91934">
        <ele>1061</ele>
        <time>2009-07-10T16:28:33Z</time>
      </trkpt>
      <trkpt lat="44.41002" lon="3.91934">
        <ele>1061</ele>
        <time>2009-07-10T16:29:18Z</time>
      </trkpt>
      <trkpt lat="44.41002" lon="3.91934">
        <ele>1060</ele>
        <time>2009-07-10T16:30:30Z</time>
      </trkpt>
      <trkpt lat="44.41002" lon="3.91934">
        <ele>1060</ele>
        <time>2009-07-10T16:31:59Z</time>
      </trkpt>
      <trkpt lat="44.41003" lon="3.91933">
        <ele>1060</ele>
        <time>2009-07-10T16:33:02Z</time>
      </trkpt>
      <trkpt lat="44.41003" lon="3.91933">
        <ele>1060</ele>
        <time>2009-07-10T16:33:33Z</time>
      </trkpt>
      <trkpt lat="44.41004" lon="3.91933">
        <ele>1061</ele>
        <time>2009-07-10T16:34:10Z</time>
      </trkpt>
      <trkpt lat="44.41004" lon="3.91933">
        <ele>1061</ele>
        <time>2009-07-10T16:34:44Z</time>
      </trkpt>
      <trkpt lat="44.41006" lon="3.91933">
        <ele>1061</ele>
        <time>2009-07-10T16:35:05Z</time>
      </trkpt>
      <trkpt lat="44.41035" lon="3.91923">
        <ele>1060</ele>
        <time>2009-07-10T16:35:18Z</time>
      </trkpt>
      <trkpt lat="44.41061" lon="3.91911">
        <ele>1055</ele>
        <time>2009-07-10T16:35:24Z</time>
      </trkpt>
      <trkpt lat="44.41117" lon="3.91879">
        <ele>1055</ele>
        <time>2009-07-10T16:35:38Z</time>
      </trkpt>
      <trkpt lat="44.41167" lon="3.91854">
        <ele>1058</ele>
        <time>2009-07-10T16:35:55Z</time>
      </trkpt>
      <trkpt lat="44.41203" lon="3.9183">
        <ele>1060</ele>
        <time>2009-07-10T16:36:09Z</time>
      </trkpt>
      <trkpt lat="44.41243" lon="3.9181">
        <ele>1062</ele>
        <time>2009-07-10T16:36:24Z</time>
      </trkpt>
      <trkpt lat="44.41259" lon="3.91808">
        <ele>1060</ele>
        <time>2009-07-10T16:36:30Z</time>
      </trkpt>
      <trkpt lat="44.41267" lon="3.9181">
        <ele>1058</ele>
        <time>2009-07-10T16:36:32Z</time>
      </trkpt>
      <trkpt lat="44.41277" lon="3.91811">
        <ele>1057</ele>
        <time>2009-07-10T16:36:34Z</time>
      </trkpt>
      <trkpt lat="44.41286" lon="3.9181">
        <ele>1055</ele>
        <time>2009-07-10T16:36:36Z</time>
      </trkpt>
      <trkpt lat="44.41296" lon="3.9181">
        <ele>1054</ele>
        <time>2009-07-10T16:36:38Z</time>
      </trkpt>
      <trkpt lat="44.41311" lon="3.91809">
        <ele>1052</ele>
        <time>2009-07-10T16:36:41Z</time>
      </trkpt>
      <trkpt lat="44.41328" lon="3.91807">
        <ele>1046</ele>
        <time>2009-07-10T16:36:44Z</time>
      </trkpt>
      <trkpt lat="44.41334" lon="3.91806">
        <ele>1045</ele>
        <time>2009-07-10T16:36:45Z</time>
      </trkpt>
      <trkpt lat="44.41349" lon="3.91804">
        <ele>1042</ele>
        <time>2009-07-10T16:36:48Z</time>
      </trkpt>
      <trkpt lat="44.41354" lon="3.91803">
        <ele>1043</ele>
        <time>2009-07-10T16:36:49Z</time>
      </trkpt>
      <trkpt lat="44.41373" lon="3.91799">
        <ele>1038</ele>
        <time>2009-07-10T16:36:53Z</time>
      </trkpt>
      <trkpt lat="44.41382" lon="3.91797">
        <ele>1034</ele>
        <time>2009-07-10T16:36:55Z</time>
      </trkpt>
      <trkpt lat="44.41397" lon="3.91795">
        <ele>1030</ele>
        <time>2009-07-10T16:36:58Z</time>
      </trkpt>
      <trkpt lat="44.41407" lon="3.91794">
        <ele>1027</ele>
        <time>2009-07-10T16:37:00Z</time>
      </trkpt>
      <trkpt lat="44.41422" lon="3.91791">
        <ele>1022</ele>
        <time>2009-07-10T16:37:03Z</time>
      </trkpt>
      <trkpt lat="44.41439" lon="3.91791">
        <ele>1019</ele>
        <time>2009-07-10T16:37:06Z</time>
      </trkpt>
      <trkpt lat="44.41454" lon="3.91792">
        <ele>1015</ele>
        <time>2009-07-10T16:37:08Z</time>
      </trkpt>
      <trkpt lat="44.41476" lon="3.91794">
        <ele>1012</ele>
        <time>2009-07-10T16:37:11Z</time>
      </trkpt>
      <trkpt lat="44.415" lon="3.91799">
        <ele>1008</ele>
        <time>2009-07-10T16:37:14Z</time>
      </trkpt>
      <trkpt lat="44.41517" lon="3.91804">
        <ele>1005</ele>
        <time>2009-07-10T16:37:16Z</time>
      </trkpt>
      <trkpt lat="44.41588" lon="3.91818">
        <ele>1004</ele>
        <time>2009-07-10T16:37:25Z</time>
      </trkpt>
      <trkpt lat="44.41643" lon="3.91831">
        <ele>1007</ele>
        <time>2009-07-10T16:37:36Z</time>
      </trkpt>
      <trkpt lat="44.4172" lon="3.91843">
        <ele>1006</ele>
        <time>2009-07-10T16:37:54Z</time>
      </trkpt>
      <trkpt lat="44.41736" lon="3.91849">
        <ele>1005</ele>
        <time>2009-07-10T16:37:57Z</time>
      </trkpt>
      <trkpt lat="44.41768" lon="3.91865">
        <ele>1006</ele>
        <time>2009-07-10T16:38:04Z</time>
      </trkpt>
      <trkpt lat="44.41792" lon="3.91877">
        <ele>1006</ele>
        <time>2009-07-10T16:38:10Z</time>
      </trkpt>
      <trkpt lat="44.41842" lon="3.9189">
        <ele>1008</ele>
        <time>2009-07-10T16:38:22Z</time>
      </trkpt>
      <trkpt lat="44.4187" lon="3.91892">
        <ele>1012</ele>
        <time>2009-07-10T16:38:30Z</time>
      </trkpt>
      <trkpt lat="44.41898" lon="3.91892">
        <ele>1012</ele>
        <time>2009-07-10T16:38:38Z</time>
      </trkpt>
      <trkpt lat="44.41934" lon="3.91888">
        <ele>1014</ele>
        <time>2009-07-10T16:38:50Z</time>
      </trkpt>
      <trkpt lat="44.41956" lon="3.91889">
        <ele>1016</ele>
        <time>2009-07-10T16:39:03Z</time>
      </trkpt>
      <trkpt lat="44.41957" lon="3.91889">
        <ele>1015</ele>
        <time>2009-07-10T16:39:23Z</time>
      </trkpt>
      <trkpt lat="44.4197" lon="3.91897">
        <ele>1012</ele>
        <time>2009-07-10T16:40:43Z</time>
      </trkpt>
      <trkpt lat="44.41983" lon="3.91909">
        <ele>1010</ele>
        <time>2009-07-10T16:40:46Z</time>
      </trkpt>
      <trkpt lat="44.41999" lon="3.91924">
        <ele>1007</ele>
        <time>2009-07-10T16:40:49Z</time>
      </trkpt>
      <trkpt lat="44.42028" lon="3.91952">
        <ele>1004</ele>
        <time>2009-07-10T16:40:55Z</time>
      </trkpt>
      <trkpt lat="44.42035" lon="3.91959">
        <ele>1003</ele>
        <time>2009-07-10T16:40:57Z</time>
      </trkpt>
      <trkpt lat="44.42044" lon="3.91968">
        <ele>999</ele>
        <time>2009-07-10T16:41:00Z</time>
      </trkpt>
      <trkpt lat="44.42058" lon="3.91985">
        <ele>996</ele>
        <time>2009-07-10T16:41:04Z</time>
      </trkpt>
      <trkpt lat="44.42068" lon="3.91996">
        <ele>992</ele>
        <time>2009-07-10T16:41:06Z</time>
      </trkpt>
      <trkpt lat="44.42078" lon="3.92009">
        <ele>991</ele>
        <time>2009-07-10T16:41:08Z</time>
      </trkpt>
      <trkpt lat="44.42107" lon="3.9203">
        <ele>986</ele>
        <time>2009-07-10T16:41:13Z</time>
      </trkpt>
      <trkpt lat="44.42118" lon="3.92036">
        <ele>984</ele>
        <time>2009-07-10T16:41:15Z</time>
      </trkpt>
      <trkpt lat="44.42179" lon="3.92095">
        <ele>985</ele>
        <time>2009-07-10T16:41:26Z</time>
      </trkpt>
      <trkpt lat="44.42182" lon="3.92098">
        <ele>984</ele>
        <time>2009-07-10T16:41:27Z</time>
      </trkpt>
      <trkpt lat="44.42203" lon="3.92124">
        <ele>983</ele>
        <time>2009-07-10T16:41:38Z</time>
      </trkpt>
      <trkpt lat="44.4221" lon="3.92134">
        <ele>982</ele>
        <time>2009-07-10T16:41:40Z</time>
      </trkpt>
      <trkpt lat="44.42233" lon="3.92152">
        <ele>980</ele>
        <time>2009-07-10T16:41:44Z</time>
      </trkpt>
      <trkpt lat="44.42253" lon="3.92167">
        <ele>978</ele>
        <time>2009-07-10T16:41:47Z</time>
      </trkpt>
      <trkpt lat="44.42279" lon="3.92193">
        <ele>981</ele>
        <time>2009-07-10T16:41:53Z</time>
      </trkpt>
      <trkpt lat="44.4229" lon="3.92208">
        <ele>984</ele>
        <time>2009-07-10T16:41:59Z</time>
      </trkpt>
      <trkpt lat="44.42298" lon="3.92221">
        <ele>987</ele>
        <time>2009-07-10T16:42:05Z</time>
      </trkpt>
      <trkpt lat="44.42309" lon="3.9223">
        <ele>988</ele>
        <time>2009-07-10T16:42:12Z</time>
      </trkpt>
      <trkpt lat="44.4231" lon="3.92231">
        <ele>988</ele>
        <time>2009-07-10T16:42:14Z</time>
      </trkpt>
      <trkpt lat="44.42313" lon="3.92232">
        <ele>988</ele>
        <time>2009-07-10T16:42:17Z</time>
      </trkpt>
      <trkpt lat="44.42316" lon="3.92233">
        <ele>989</ele>
        <time>2009-07-10T16:42:20Z</time>
      </trkpt>
      <trkpt lat="44.42327" lon="3.92236">
        <ele>988</ele>
        <time>2009-07-10T16:42:35Z</time>
      </trkpt>
      <trkpt lat="44.42366" lon="3.92242">
        <ele>986</ele>
        <time>2009-07-10T16:42:47Z</time>
      </trkpt>
      <trkpt lat="44.42399" lon="3.92269">
        <ele>990</ele>
        <time>2009-07-10T16:42:58Z</time>
      </trkpt>
      <trkpt lat="44.42449" lon="3.92303">
        <ele>991</ele>
        <time>2009-07-10T16:43:14Z</time>
      </trkpt>
      <trkpt lat="44.42506" lon="3.92317">
        <ele>992</ele>
        <time>2009-07-10T16:43:30Z</time>
      </trkpt>
      <trkpt lat="44.42551" lon="3.92324">
        <ele>989</ele>
        <time>2009-07-10T16:43:41Z</time>
      </trkpt>
      <trkpt lat="44.42569" lon="3.92337">
        <ele>985</ele>
        <time>2009-07-10T16:43:45Z</time>
      </trkpt>
      <trkpt lat="44.42575" lon="3.92341">
        <ele>982</ele>
        <time>2009-07-10T16:43:46Z</time>
      </trkpt>
      <trkpt lat="44.42597" lon="3.92357">
        <ele>978</ele>
        <time>2009-07-10T16:43:49Z</time>
      </trkpt>
      <trkpt lat="44.42604" lon="3.92363">
        <ele>980</ele>
        <time>2009-07-10T16:43:50Z</time>
      </trkpt>
      <trkpt lat="44.42633" lon="3.92377">
        <ele>974</ele>
        <time>2009-07-10T16:43:55Z</time>
      </trkpt>
      <trkpt lat="44.42655" lon="3.92387">
        <ele>969</ele>
        <time>2009-07-10T16:43:58Z</time>
      </trkpt>
      <trkpt lat="44.42661" lon="3.92389">
        <ele>969</ele>
        <time>2009-07-10T16:43:59Z</time>
      </trkpt>
      <trkpt lat="44.42673" lon="3.92392">
        <ele>967</ele>
        <time>2009-07-10T16:44:02Z</time>
      </trkpt>
      <trkpt lat="44.42687" lon="3.92393">
        <ele>961</ele>
        <time>2009-07-10T16:44:05Z</time>
      </trkpt>
      <trkpt lat="44.42703" lon="3.92393">
        <ele>956</ele>
        <time>2009-07-10T16:44:08Z</time>
      </trkpt>
      <trkpt lat="44.42715" lon="3.92394">
        <ele>952</ele>
        <time>2009-07-10T16:44:10Z</time>
      </trkpt>
      <trkpt lat="44.42734" lon="3.92396">
        <ele>949</ele>
        <time>2009-07-10T16:44:13Z</time>
      </trkpt>
      <trkpt lat="44.42745" lon="3.92398">
        <ele>947</ele>
        <time>2009-07-10T16:44:15Z</time>
      </trkpt>
      <trkpt lat="44.42763" lon="3.92399">
        <ele>943</ele>
        <time>2009-07-10T16:44:18Z</time>
      </trkpt>
      <trkpt lat="44.42776" lon="3.92399">
        <ele>939</ele>
        <time>2009-07-10T16:44:20Z</time>
      </trkpt>
      <trkpt lat="44.42793" lon="3.92403">
        <ele>934</ele>
        <time>2009-07-10T16:44:23Z</time>
      </trkpt>
      <trkpt lat="44.42804" lon="3.92404">
        <ele>930</ele>
        <time>2009-07-10T16:44:25Z</time>
      </trkpt>
      <trkpt lat="44.42819" lon="3.92406">
        <ele>925</ele>
        <time>2009-07-10T16:44:28Z</time>
      </trkpt>
      <trkpt lat="44.42845" lon="3.92408">
        <ele>925</ele>
        <time>2009-07-10T16:44:48Z</time>
      </trkpt>
      <trkpt lat="44.42851" lon="3.92409">
        <ele>917</ele>
        <time>2009-07-10T16:44:34Z</time>
      </trkpt>
      <trkpt lat="44.42874" lon="3.92411">
        <ele>914</ele>
        <time>2009-07-10T16:44:38Z</time>
      </trkpt>
      <trkpt lat="44.42879" lon="3.92411">
        <ele>911</ele>
        <time>2009-07-10T16:44:39Z</time>
      </trkpt>
      <trkpt lat="44.42885" lon="3.92411">
        <ele>911</ele>
        <time>2009-07-10T16:44:40Z</time>
      </trkpt>
      <trkpt lat="44.42897" lon="3.92411">
        <ele>907</ele>
        <time>2009-07-10T16:44:42Z</time>
      </trkpt>
      <trkpt lat="44.4291" lon="3.92414">
        <ele>904</ele>
        <time>2009-07-10T16:44:44Z</time>
      </trkpt>
      <trkpt lat="44.42923" lon="3.92416">
        <ele>900</ele>
        <time>2009-07-10T16:44:46Z</time>
      </trkpt>
      <trkpt lat="44.4295" lon="3.92417">
        <ele>894</ele>
        <time>2009-07-10T16:44:50Z</time>
      </trkpt>
      <trkpt lat="44.42963" lon="3.92415">
        <ele>889</ele>
        <time>2009-07-10T16:44:52Z</time>
      </trkpt>
      <trkpt lat="44.43009" lon="3.92418">
        <ele>883</ele>
        <time>2009-07-10T16:44:58Z</time>
      </trkpt>
      <trkpt lat="44.43027" lon="3.92417">
        <ele>880</ele>
        <time>2009-07-10T16:45:00Z</time>
      </trkpt>
      <trkpt lat="44.43036" lon="3.92416">
        <ele>880</ele>
        <time>2009-07-10T16:45:01Z</time>
      </trkpt>
      <trkpt lat="44.43083" lon="3.92415">
        <ele>882</ele>
        <time>2009-07-10T16:45:09Z</time>
      </trkpt>
      <trkpt lat="44.43084" lon="3.92415">
        <ele>881</ele>
        <time>2009-07-10T16:45:19Z</time>
      </trkpt>
      <trkpt lat="44.43083" lon="3.92414">
        <ele>877</ele>
        <time>2009-07-10T16:45:41Z</time>
      </trkpt>
      <trkpt lat="44.43083" lon="3.92414">
        <ele>880</ele>
        <time>2009-07-10T16:45:42Z</time>
      </trkpt>
      <trkpt lat="44.43083" lon="3.92414">
        <ele>880</ele>
        <time>2009-07-10T16:45:44Z</time>
      </trkpt>
      <trkpt lat="44.43083" lon="3.92413">
        <ele>881</ele>
        <time>2009-07-10T16:46:15Z</time>
      </trkpt>
      <trkpt lat="44.43083" lon="3.92413">
        <ele>880</ele>
        <time>2009-07-10T16:46:20Z</time>
      </trkpt>
      <trkpt lat="44.43101" lon="3.92413">
        <ele>878</ele>
        <time>2009-07-10T16:46:26Z</time>
      </trkpt>
      <trkpt lat="44.43119" lon="3.92411">
        <ele>877</ele>
        <time>2009-07-10T16:46:30Z</time>
      </trkpt>
      <trkpt lat="44.4313" lon="3.92409">
        <ele>873</ele>
        <time>2009-07-10T16:46:32Z</time>
      </trkpt>
      <trkpt lat="44.43136" lon="3.92408">
        <ele>873</ele>
        <time>2009-07-10T16:46:33Z</time>
      </trkpt>
      <trkpt lat="44.43142" lon="3.92406">
        <ele>872</ele>
        <time>2009-07-10T16:46:34Z</time>
      </trkpt>
      <trkpt lat="44.43158" lon="3.9242">
        <ele>871</ele>
        <time>2009-07-10T16:46:40Z</time>
      </trkpt>
      <trkpt lat="44.43156" lon="3.92418">
        <ele>871</ele>
        <time>2009-07-10T16:46:51Z</time>
      </trkpt>
      <trkpt lat="44.43142" lon="3.92433">
        <ele>868</ele>
        <time>2009-07-10T16:47:31Z</time>
      </trkpt>
      <trkpt lat="44.43122" lon="3.92443">
        <ele>866</ele>
        <time>2009-07-10T16:47:37Z</time>
      </trkpt>
      <trkpt lat="44.43101" lon="3.92456">
        <ele>864</ele>
        <time>2009-07-10T16:47:42Z</time>
      </trkpt>
      <trkpt lat="44.43091" lon="3.92464">
        <ele>863</ele>
        <time>2009-07-10T16:47:44Z</time>
      </trkpt>
      <trkpt lat="44.43085" lon="3.92468">
        <ele>862</ele>
        <time>2009-07-10T16:47:45Z</time>
      </trkpt>
      <trkpt lat="44.43046" lon="3.92494">
        <ele>858</ele>
        <time>2009-07-10T16:47:51Z</time>
      </trkpt>
      <trkpt lat="44.43024" lon="3.92506">
        <ele>857</ele>
        <time>2009-07-10T16:47:54Z</time>
      </trkpt>
      <trkpt lat="44.43" lon="3.92519">
        <ele>856</ele>
        <time>2009-07-10T16:47:57Z</time>
      </trkpt>
      <trkpt lat="44.42968" lon="3.92533">
        <ele>854</ele>
        <time>2009-07-10T16:48:01Z</time>
      </trkpt>
      <trkpt lat="44.42956" lon="3.92544">
        <ele>851</ele>
        <time>2009-07-10T16:48:03Z</time>
      </trkpt>
      <trkpt lat="44.42923" lon="3.92591">
        <ele>847</ele>
        <time>2009-07-10T16:48:08Z</time>
      </trkpt>
      <trkpt lat="44.42903" lon="3.92625">
        <ele>842</ele>
        <time>2009-07-10T16:48:11Z</time>
      </trkpt>
      <trkpt lat="44.4289" lon="3.92649">
        <ele>839</ele>
        <time>2009-07-10T16:48:13Z</time>
      </trkpt>
      <trkpt lat="44.42872" lon="3.92701">
        <ele>837</ele>
        <time>2009-07-10T16:48:17Z</time>
      </trkpt>
      <trkpt lat="44.42864" lon="3.92738">
        <ele>836</ele>
        <time>2009-07-10T16:48:20Z</time>
      </trkpt>
      <trkpt lat="44.42859" lon="3.92781">
        <ele>832</ele>
        <time>2009-07-10T16:48:23Z</time>
      </trkpt>
      <trkpt lat="44.42847" lon="3.92806">
        <ele>833</ele>
        <time>2009-07-10T16:48:26Z</time>
      </trkpt>
      <trkpt lat="44.42846" lon="3.9282">
        <ele>830</ele>
        <time>2009-07-10T16:48:30Z</time>
      </trkpt>
      <trkpt lat="44.42861" lon="3.92807">
        <ele>826</ele>
        <time>2009-07-10T16:48:34Z</time>
      </trkpt>
      <trkpt lat="44.42865" lon="3.92803">
        <ele>826</ele>
        <time>2009-07-10T16:48:35Z</time>
      </trkpt>
      <trkpt lat="44.42892" lon="3.92754">
        <ele>821</ele>
        <time>2009-07-10T16:48:41Z</time>
      </trkpt>
      <trkpt lat="44.42898" lon="3.92744">
        <ele>819</ele>
        <time>2009-07-10T16:48:42Z</time>
      </trkpt>
      <trkpt lat="44.42922" lon="3.92712">
        <ele>817</ele>
        <time>2009-07-10T16:48:46Z</time>
      </trkpt>
      <trkpt lat="44.42932" lon="3.92703">
        <ele>816</ele>
        <time>2009-07-10T16:48:48Z</time>
      </trkpt>
      <trkpt lat="44.4295" lon="3.92697">
        <ele>814</ele>
        <time>2009-07-10T16:48:52Z</time>
      </trkpt>
      <trkpt lat="44.42968" lon="3.92698">
        <ele>810</ele>
        <time>2009-07-10T16:48:56Z</time>
      </trkpt>
      <trkpt lat="44.42972" lon="3.927">
        <ele>810</ele>
        <time>2009-07-10T16:48:57Z</time>
      </trkpt>
      <trkpt lat="44.42988" lon="3.92705">
        <ele>808</ele>
        <time>2009-07-10T16:49:00Z</time>
      </trkpt>
      <trkpt lat="44.43016" lon="3.92709">
        <ele>804</ele>
        <time>2009-07-10T16:49:04Z</time>
      </trkpt>
      <trkpt lat="44.43044" lon="3.92691">
        <ele>800</ele>
        <time>2009-07-10T16:49:07Z</time>
      </trkpt>
      <trkpt lat="44.43093" lon="3.9268">
        <ele>795</ele>
        <time>2009-07-10T16:49:13Z</time>
      </trkpt>
      <trkpt lat="44.43125" lon="3.9267">
        <ele>792</ele>
        <time>2009-07-10T16:49:17Z</time>
      </trkpt>
      <trkpt lat="44.43134" lon="3.92664">
        <ele>790</ele>
        <time>2009-07-10T16:49:18Z</time>
      </trkpt>
      <trkpt lat="44.43175" lon="3.92658">
        <ele>787</ele>
        <time>2009-07-10T16:49:22Z</time>
      </trkpt>
      <trkpt lat="44.43204" lon="3.92668">
        <ele>781</ele>
        <time>2009-07-10T16:49:26Z</time>
      </trkpt>
      <trkpt lat="44.43215" lon="3.92693">
        <ele>779</ele>
        <time>2009-07-10T16:49:28Z</time>
      </trkpt>
      <trkpt lat="44.43231" lon="3.92725">
        <ele>777</ele>
        <time>2009-07-10T16:49:30Z</time>
      </trkpt>
      <trkpt lat="44.43247" lon="3.92754">
        <ele>773</ele>
        <time>2009-07-10T16:49:33Z</time>
      </trkpt>
      <trkpt lat="44.4326" lon="3.92774">
        <ele>770</ele>
        <time>2009-07-10T16:49:35Z</time>
      </trkpt>
      <trkpt lat="44.43277" lon="3.92784">
        <ele>768</ele>
        <time>2009-07-10T16:49:37Z</time>
      </trkpt>
      <trkpt lat="44.43297" lon="3.92785">
        <ele>766</ele>
        <time>2009-07-10T16:49:39Z</time>
      </trkpt>
      <trkpt lat="44.43347" lon="3.92788">
        <ele>761</ele>
        <time>2009-07-10T16:49:44Z</time>
      </trkpt>
      <trkpt lat="44.43357" lon="3.9279">
        <ele>759</ele>
        <time>2009-07-10T16:49:45Z</time>
      </trkpt>
      <trkpt lat="44.43385" lon="3.92798">
        <ele>757</ele>
        <time>2009-07-10T16:49:48Z</time>
      </trkpt>
      <trkpt lat="44.43412" lon="3.92795">
        <ele>756</ele>
        <time>2009-07-10T16:49:51Z</time>
      </trkpt>
      <trkpt lat="44.43423" lon="3.92798">
        <ele>756</ele>
        <time>2009-07-10T16:49:58Z</time>
      </trkpt>
      <trkpt lat="44.43417" lon="3.9281">
        <ele>756</ele>
        <time>2009-07-10T16:50:37Z</time>
      </trkpt>
      <trkpt lat="44.43418" lon="3.92809">
        <ele>756</ele>
        <time>2009-07-10T16:50:46Z</time>
      </trkpt>
      <trkpt lat="44.43402" lon="3.92817">
        <ele>755</ele>
        <time>2009-07-10T16:50:54Z</time>
      </trkpt>
      <trkpt lat="44.43382" lon="3.92823">
        <ele>752</ele>
        <time>2009-07-10T16:50:59Z</time>
      </trkpt>
      <trkpt lat="44.43371" lon="3.92835">
        <ele>748</ele>
        <time>2009-07-10T16:51:06Z</time>
      </trkpt>
      <trkpt lat="44.4338" lon="3.92837">
        <ele>748</ele>
        <time>2009-07-10T16:51:08Z</time>
      </trkpt>
      <trkpt lat="44.4339" lon="3.92841">
        <ele>746</ele>
        <time>2009-07-10T16:51:10Z</time>
      </trkpt>
      <trkpt lat="44.43415" lon="3.92846">
        <ele>744</ele>
        <time>2009-07-10T16:51:14Z</time>
      </trkpt>
      <trkpt lat="44.43434" lon="3.92849">
        <ele>742</ele>
        <time>2009-07-10T16:51:17Z</time>
      </trkpt>
      <trkpt lat="44.43451" lon="3.9285">
        <ele>740</ele>
        <time>2009-07-10T16:51:20Z</time>
      </trkpt>
      <trkpt lat="44.43453" lon="3.92869">
        <ele>735</ele>
        <time>2009-07-10T16:51:26Z</time>
      </trkpt>
      <trkpt lat="44.43441" lon="3.92883">
        <ele>732</ele>
        <time>2009-07-10T16:51:29Z</time>
      </trkpt>
      <trkpt lat="44.43424" lon="3.92905">
        <ele>729</ele>
        <time>2009-07-10T16:51:32Z</time>
      </trkpt>
      <trkpt lat="44.4342" lon="3.92919">
        <ele>727</ele>
        <time>2009-07-10T16:51:38Z</time>
      </trkpt>
      <trkpt lat="44.43428" lon="3.92918">
        <ele>726</ele>
        <time>2009-07-10T16:51:40Z</time>
      </trkpt>
      <trkpt lat="44.43439" lon="3.92921">
        <ele>726</ele>
        <time>2009-07-10T16:51:42Z</time>
      </trkpt>
      <trkpt lat="44.43453" lon="3.92922">
        <ele>723</ele>
        <time>2009-07-10T16:51:44Z</time>
      </trkpt>
      <trkpt lat="44.43481" lon="3.92906">
        <ele>718</ele>
        <time>2009-07-10T16:51:49Z</time>
      </trkpt>
      <trkpt lat="44.4349" lon="3.92901">
        <ele>715</ele>
        <time>2009-07-10T16:51:53Z</time>
      </trkpt>
      <trkpt lat="44.43493" lon="3.929">
        <ele>713</ele>
        <time>2009-07-10T16:51:55Z</time>
      </trkpt>
      <trkpt lat="44.43503" lon="3.92925">
        <ele>710</ele>
        <time>2009-07-10T16:51:58Z</time>
      </trkpt>
      <trkpt lat="44.43512" lon="3.92969">
        <ele>707</ele>
        <time>2009-07-10T16:52:01Z</time>
      </trkpt>
      <trkpt lat="44.43516" lon="3.92981">
        <ele>707</ele>
        <time>2009-07-10T16:52:02Z</time>
      </trkpt>
      <trkpt lat="44.43527" lon="3.92998">
        <ele>706</ele>
        <time>2009-07-10T16:52:04Z</time>
      </trkpt>
      <trkpt lat="44.43574" lon="3.93008">
        <ele>704</ele>
        <time>2009-07-10T16:52:07Z</time>
      </trkpt>
      <trkpt lat="44.43584" lon="3.93009">
        <ele>705</ele>
        <time>2009-07-10T16:52:08Z</time>
      </trkpt>
      <trkpt lat="44.43592" lon="3.93007">
        <ele>705</ele>
        <time>2009-07-10T16:52:24Z</time>
      </trkpt>
      <trkpt lat="44.43592" lon="3.93009">
        <ele>705</ele>
        <time>2009-07-10T16:52:36Z</time>
      </trkpt>
      <trkpt lat="44.43583" lon="3.93026">
        <ele>703</ele>
        <time>2009-07-10T16:52:44Z</time>
      </trkpt>
      <trkpt lat="44.43565" lon="3.93029">
        <ele>700</ele>
        <time>2009-07-10T16:52:49Z</time>
      </trkpt>
      <trkpt lat="44.43551" lon="3.93026">
        <ele>699</ele>
        <time>2009-07-10T16:52:52Z</time>
      </trkpt>
      <trkpt lat="44.43533" lon="3.93007">
        <ele>694</ele>
        <time>2009-07-10T16:52:56Z</time>
      </trkpt>
      <trkpt lat="44.43503" lon="3.92995">
        <ele>692</ele>
        <time>2009-07-10T16:53:02Z</time>
      </trkpt>
      <trkpt lat="44.43487" lon="3.93013">
        <ele>689</ele>
        <time>2009-07-10T16:53:06Z</time>
      </trkpt>
      <trkpt lat="44.43464" lon="3.93047">
        <ele>685</ele>
        <time>2009-07-10T16:53:11Z</time>
      </trkpt>
      <trkpt lat="44.43454" lon="3.93063">
        <ele>682</ele>
        <time>2009-07-10T16:53:13Z</time>
      </trkpt>
      <trkpt lat="44.4344" lon="3.93087">
        <ele>679</ele>
        <time>2009-07-10T16:53:16Z</time>
      </trkpt>
      <trkpt lat="44.43436" lon="3.93095">
        <ele>678</ele>
        <time>2009-07-10T16:53:17Z</time>
      </trkpt>
      <trkpt lat="44.43418" lon="3.93102">
        <ele>674</ele>
        <time>2009-07-10T16:53:20Z</time>
      </trkpt>
      <trkpt lat="44.43411" lon="3.93098">
        <ele>672</ele>
        <time>2009-07-10T16:53:21Z</time>
      </trkpt>
      <trkpt lat="44.43396" lon="3.9309">
        <ele>671</ele>
        <time>2009-07-10T16:53:23Z</time>
      </trkpt>
      <trkpt lat="44.43384" lon="3.93088">
        <ele>671</ele>
        <time>2009-07-10T16:53:25Z</time>
      </trkpt>
      <trkpt lat="44.43376" lon="3.93104">
        <ele>671</ele>
        <time>2009-07-10T16:53:31Z</time>
      </trkpt>
      <trkpt lat="44.43381" lon="3.93112">
        <ele>670</ele>
        <time>2009-07-10T16:53:34Z</time>
      </trkpt>
      <trkpt lat="44.4339" lon="3.93129">
        <ele>668</ele>
        <time>2009-07-10T16:53:45Z</time>
      </trkpt>
      <trkpt lat="44.43392" lon="3.93136">
        <ele>668</ele>
        <time>2009-07-10T16:53:47Z</time>
      </trkpt>
      <trkpt lat="44.43395" lon="3.93164">
        <ele>664</ele>
        <time>2009-07-10T16:53:51Z</time>
      </trkpt>
      <trkpt lat="44.43397" lon="3.93195">
        <ele>662</ele>
        <time>2009-07-10T16:53:54Z</time>
      </trkpt>
      <trkpt lat="44.43398" lon="3.93205">
        <ele>661</ele>
        <time>2009-07-10T16:53:55Z</time>
      </trkpt>
      <trkpt lat="44.43445" lon="3.93254">
        <ele>657</ele>
        <time>2009-07-10T16:54:03Z</time>
      </trkpt>
      <trkpt lat="44.4345" lon="3.93254">
        <ele>654</ele>
        <time>2009-07-10T16:54:04Z</time>
      </trkpt>
      <trkpt lat="44.43455" lon="3.93253">
        <ele>654</ele>
        <time>2009-07-10T16:54:05Z</time>
      </trkpt>
      <trkpt lat="44.43483" lon="3.93223">
        <ele>654</ele>
        <time>2009-07-10T16:54:11Z</time>
      </trkpt>
      <trkpt lat="44.43493" lon="3.93206">
        <ele>649</ele>
        <time>2009-07-10T16:54:13Z</time>
      </trkpt>
      <trkpt lat="44.43501" lon="3.9319">
        <ele>649</ele>
        <time>2009-07-10T16:54:15Z</time>
      </trkpt>
      <trkpt lat="44.43515" lon="3.93205">
        <ele>646</ele>
        <time>2009-07-10T16:54:19Z</time>
      </trkpt>
      <trkpt lat="44.43509" lon="3.93224">
        <ele>645</ele>
        <time>2009-07-10T16:54:21Z</time>
      </trkpt>
      <trkpt lat="44.43491" lon="3.9326">
        <ele>643</ele>
        <time>2009-07-10T16:54:25Z</time>
      </trkpt>
      <trkpt lat="44.43504" lon="3.93283">
        <ele>639</ele>
        <time>2009-07-10T16:54:32Z</time>
      </trkpt>
      <trkpt lat="44.43516" lon="3.93276">
        <ele>638</ele>
        <time>2009-07-10T16:54:34Z</time>
      </trkpt>
      <trkpt lat="44.43529" lon="3.93268">
        <ele>636</ele>
        <time>2009-07-10T16:54:36Z</time>
      </trkpt>
      <trkpt lat="44.43559" lon="3.93255">
        <ele>630</ele>
        <time>2009-07-10T16:54:42Z</time>
      </trkpt>
      <trkpt lat="44.43556" lon="3.93289">
        <ele>627</ele>
        <time>2009-07-10T16:54:45Z</time>
      </trkpt>
      <trkpt lat="44.43538" lon="3.93314">
        <ele>625</ele>
        <time>2009-07-10T16:54:49Z</time>
      </trkpt>
      <trkpt lat="44.43539" lon="3.93319">
        <ele>626</ele>
        <time>2009-07-10T16:54:57Z</time>
      </trkpt>
      <trkpt lat="44.43539" lon="3.93319">
        <ele>626</ele>
        <time>2009-07-10T16:54:58Z</time>
      </trkpt>
      <trkpt lat="44.43575" lon="3.93324">
        <ele>622</ele>
        <time>2009-07-10T16:55:07Z</time>
      </trkpt>
      <trkpt lat="44.43588" lon="3.93324">
        <ele>620</ele>
        <time>2009-07-10T16:55:09Z</time>
      </trkpt>
      <trkpt lat="44.43612" lon="3.93323">
        <ele>619</ele>
        <time>2009-07-10T16:55:12Z</time>
      </trkpt>
      <trkpt lat="44.43668" lon="3.93327">
        <ele>614</ele>
        <time>2009-07-10T16:55:19Z</time>
      </trkpt>
      <trkpt lat="44.43722" lon="3.93327">
        <ele>610</ele>
        <time>2009-07-10T16:55:25Z</time>
      </trkpt>
      <trkpt lat="44.43765" lon="3.93322">
        <ele>609</ele>
        <time>2009-07-10T16:55:30Z</time>
      </trkpt>
      <trkpt lat="44.43784" lon="3.93309">
        <ele>607</ele>
        <time>2009-07-10T16:55:33Z</time>
      </trkpt>
      <trkpt lat="44.43798" lon="3.93281">
        <ele>607</ele>
        <time>2009-07-10T16:55:36Z</time>
      </trkpt>
      <trkpt lat="44.43813" lon="3.93258">
        <ele>605</ele>
        <time>2009-07-10T16:55:39Z</time>
      </trkpt>
      <trkpt lat="44.43874" lon="3.93223">
        <ele>604</ele>
        <time>2009-07-10T16:55:48Z</time>
      </trkpt>
      <trkpt lat="44.43904" lon="3.93224">
        <ele>602</ele>
        <time>2009-07-10T16:55:52Z</time>
      </trkpt>
      <trkpt lat="44.43974" lon="3.93208">
        <ele>601</ele>
        <time>2009-07-10T16:56:03Z</time>
      </trkpt>
      <trkpt lat="44.43993" lon="3.93206">
        <ele>602</ele>
        <time>2009-07-10T16:56:06Z</time>
      </trkpt>
      <trkpt lat="44.4411" lon="3.93194">
        <ele>600</ele>
        <time>2009-07-10T16:56:25Z</time>
      </trkpt>
      <trkpt lat="44.44134" lon="3.93189">
        <ele>599</ele>
        <time>2009-07-10T16:56:29Z</time>
      </trkpt>
      <trkpt lat="44.44185" lon="3.93184">
        <ele>599</ele>
        <time>2009-07-10T16:56:38Z</time>
      </trkpt>
      <trkpt lat="44.44208" lon="3.93195">
        <ele>598</ele>
        <time>2009-07-10T16:56:42Z</time>
      </trkpt>
      <trkpt lat="44.44279" lon="3.93273">
        <ele>596</ele>
        <time>2009-07-10T16:56:57Z</time>
      </trkpt>
      <trkpt lat="44.44287" lon="3.93287">
        <ele>597</ele>
        <time>2009-07-10T16:57:04Z</time>
      </trkpt>
      <trkpt lat="44.44287" lon="3.93287">
        <ele>597</ele>
        <time>2009-07-10T16:57:22Z</time>
      </trkpt>
      <trkpt lat="44.44285" lon="3.93285">
        <ele>598</ele>
        <time>2009-07-10T16:59:06Z</time>
      </trkpt>
      <trkpt lat="44.44284" lon="3.93286">
        <ele>597</ele>
        <time>2009-07-10T17:00:12Z</time>
      </trkpt>
      <trkpt lat="44.44283" lon="3.93286">
        <ele>592</ele>
        <time>2009-07-10T17:02:36Z</time>
      </trkpt>
      <trkpt lat="44.44283" lon="3.93286">
        <ele>599</ele>
        <time>2009-07-10T17:02:37Z</time>
      </trkpt>
      <trkpt lat="44.44283" lon="3.93286">
        <ele>596</ele>
        <time>2009-07-10T17:02:38Z</time>
      </trkpt>
    </trkseg>
  </trk>
  <trk>
    <name><![CDATA[F01]]></name>
    <trkseg>
      <trkpt lat="44.49878" lon="3.93054">
        <ele>861</ele>
        <time>2009-07-11T06:46:03Z</time>
      </trkpt>
      <trkpt lat="44.49882" lon="3.93052">
        <ele>863</ele>
        <time>2009-07-11T06:46:10Z</time>
      </trkpt>
      <trkpt lat="44.49882" lon="3.93052">
        <ele>865</ele>
        <time>2009-07-11T06:46:14Z</time>
      </trkpt>
      <trkpt lat="44.49882" lon="3.93052">
        <ele>868</ele>
        <time>2009-07-11T06:46:19Z</time>
      </trkpt>
      <trkpt lat="44.49882" lon="3.93052">
        <ele>868</ele>
        <time>2009-07-11T06:46:20Z</time>
      </trkpt>
      <trkpt lat="44.49881" lon="3.93052">
        <ele>871</ele>
        <time>2009-07-11T06:46:33Z</time>
      </trkpt>
      <trkpt lat="44.49881" lon="3.93052">
        <ele>873</ele>
        <time>2009-07-11T06:46:40Z</time>
      </trkpt>
      <trkpt lat="44.49881" lon="3.93052">
        <ele>875</ele>
        <time>2009-07-11T06:46:57Z</time>
      </trkpt>
      <trkpt lat="44.4988" lon="3.93053">
        <ele>878</ele>
        <time>2009-07-11T06:47:22Z</time>
      </trkpt>
      <trkpt lat="44.4988" lon="3.93054">
        <ele>881</ele>
        <time>2009-07-11T06:47:43Z</time>
      </trkpt>
      <trkpt lat="44.49879" lon="3.93054">
        <ele>883</ele>
        <time>2009-07-11T06:52:30Z</time>
      </trkpt>
      <trkpt lat="44.49881" lon="3.93053">
        <ele>883</ele>
        <time>2009-07-11T06:54:08Z</time>
      </trkpt>
      <trkpt lat="44.49881" lon="3.93053">
        <ele>883</ele>
        <time>2009-07-11T06:54:09Z</time>
      </trkpt>
      <trkpt lat="44.49879" lon="3.93063">
        <ele>881</ele>
        <time>2009-07-11T06:54:14Z</time>
      </trkpt>
      <trkpt lat="44.49869" lon="3.93066">
        <ele>880</ele>
        <time>2009-07-11T06:54:19Z</time>
      </trkpt>
      <trkpt lat="44.49863" lon="3.93068">
        <ele>878</ele>
        <time>2009-07-11T06:54:30Z</time>
      </trkpt>
      <trkpt lat="44.49863" lon="3.93068">
        <ele>878</ele>
        <time>2009-07-11T06:55:09Z</time>
      </trkpt>
      <trkpt lat="44.49864" lon="3.93071">
        <ele>879</ele>
        <time>2009-07-11T06:56:20Z</time>
      </trkpt>
      <trkpt lat="44.49866" lon="3.93072">
        <ele>878</ele>
        <time>2009-07-11T06:56:50Z</time>
      </trkpt>
      <trkpt lat="44.49869" lon="3.93078">
        <ele>878</ele>
        <time>2009-07-11T06:56:54Z</time>
      </trkpt>
      <trkpt lat="44.49872" lon="3.93086">
        <ele>876</ele>
        <time>2009-07-11T06:56:57Z</time>
      </trkpt>
      <trkpt lat="44.49876" lon="3.93104">
        <ele>875</ele>
        <time>2009-07-11T06:57:02Z</time>
      </trkpt>
      <trkpt lat="44.49879" lon="3.93113">
        <ele>871</ele>
        <time>2009-07-11T06:57:05Z</time>
      </trkpt>
      <trkpt lat="44.49879" lon="3.93119">
        <ele>870</ele>
        <time>2009-07-11T06:57:14Z</time>
      </trkpt>
      <trkpt lat="44.4988" lon="3.93123">
        <ele>866</ele>
        <time>2009-07-11T06:57:25Z</time>
      </trkpt>
      <trkpt lat="44.4988" lon="3.93123">
        <ele>866</ele>
        <time>2009-07-11T06:57:26Z</time>
      </trkpt>
      <trkpt lat="44.49882" lon="3.93123">
        <ele>866</ele>
        <time>2009-07-11T06:57:31Z</time>
      </trkpt>
      <trkpt lat="44.49887" lon="3.93135">
        <ele>861</ele>
        <time>2009-07-11T06:57:36Z</time>
      </trkpt>
      <trkpt lat="44.49886" lon="3.93152">
        <ele>861</ele>
        <time>2009-07-11T06:57:40Z</time>
      </trkpt>
      <trkpt lat="44.49887" lon="3.93156">
        <ele>863</ele>
        <time>2009-07-11T06:57:52Z</time>
      </trkpt>
      <trkpt lat="44.49887" lon="3.93154">
        <ele>862</ele>
        <time>2009-07-11T06:58:12Z</time>
      </trkpt>
      <trkpt lat="44.49882" lon="3.9315">
        <ele>861</ele>
        <time>2009-07-11T06:58:16Z</time>
      </trkpt>
      <trkpt lat="44.49849" lon="3.93116">
        <ele>862</ele>
        <time>2009-07-11T06:58:32Z</time>
      </trkpt>
      <trkpt lat="44.49806" lon="3.93093">
        <ele>862</ele>
        <time>2009-07-11T06:58:49Z</time>
      </trkpt>
      <trkpt lat="44.49771" lon="3.93122">
        <ele>860</ele>
        <time>2009-07-11T06:59:03Z</time>
      </trkpt>
      <trkpt lat="44.49778" lon="3.93174">
        <ele>862</ele>
        <time>2009-07-11T06:59:14Z</time>
      </trkpt>
      <trkpt lat="44.49764" lon="3.93214">
        <ele>862</ele>
        <time>2009-07-11T06:59:24Z</time>
      </trkpt>
      <trkpt lat="44.49763" lon="3.93218">
        <ele>862</ele>
        <time>2009-07-11T06:59:27Z</time>
      </trkpt>
      <trkpt lat="44.49766" lon="3.93222">
        <ele>861</ele>
        <time>2009-07-11T06:59:31Z</time>
      </trkpt>
      <trkpt lat="44.49776" lon="3.93234">
        <ele>859</ele>
        <time>2009-07-11T06:59:37Z</time>
      </trkpt>
      <trkpt lat="44.49787" lon="3.93243">
        <ele>858</ele>
        <time>2009-07-11T06:59:40Z</time>
      </trkpt>
      <trkpt lat="44.49795" lon="3.9325">
        <ele>856</ele>
        <time>2009-07-11T06:59:42Z</time>
      </trkpt>
      <trkpt lat="44.49803" lon="3.93269">
        <ele>854</ele>
        <time>2009-07-11T06:59:46Z</time>
      </trkpt>
      <trkpt lat="44.49805" lon="3.93284">
        <ele>854</ele>
        <time>2009-07-11T06:59:49Z</time>
      </trkpt>
      <trkpt lat="44.49826" lon="3.93276">
        <ele>850</ele>
        <time>2009-07-11T06:59:56Z</time>
      </trkpt>
      <trkpt lat="44.49833" lon="3.93234">
        <ele>847</ele>
        <time>2009-07-11T07:00:01Z</time>
      </trkpt>
      <trkpt lat="44.49842" lon="3.93227">
        <ele>845</ele>
        <time>2009-07-11T07:00:03Z</time>
      </trkpt>
      <trkpt lat="44.49861" lon="3.93237">
        <ele>846</ele>
        <time>2009-07-11T07:00:07Z</time>
      </trkpt>
      <trkpt lat="44.49891" lon="3.93274">
        <ele>846</ele>
        <time>2009-07-11T07:00:20Z</time>
      </trkpt>
      <trkpt lat="44.4991" lon="3.93276">
        <ele>842</ele>
        <time>2009-07-11T07:00:24Z</time>
      </trkpt>
      <trkpt lat="44.49935" lon="3.93271">
        <ele>838</ele>
        <time>2009-07-11T07:00:28Z</time>
      </trkpt>
      <trkpt lat="44.49973" lon="3.93261">
        <ele>834</ele>
        <time>2009-07-11T07:00:34Z</time>
      </trkpt>
      <trkpt lat="44.50003" lon="3.93264">
        <ele>830</ele>
        <time>2009-07-11T07:00:39Z</time>
      </trkpt>
      <trkpt lat="44.50027" lon="3.93257">
        <ele>825</ele>
        <time>2009-07-11T07:00:43Z</time>
      </trkpt>
      <trkpt lat="44.50044" lon="3.93246">
        <ele>822</ele>
        <time>2009-07-11T07:00:46Z</time>
      </trkpt>
      <trkpt lat="44.50054" lon="3.93223">
        <ele>819</ele>
        <time>2009-07-11T07:00:50Z</time>
      </trkpt>
      <trkpt lat="44.50055" lon="3.93208">
        <ele>818</ele>
        <time>2009-07-11T07:00:52Z</time>
      </trkpt>
      <trkpt lat="44.50067" lon="3.93202">
        <ele>816</ele>
        <time>2009-07-11T07:00:58Z</time>
      </trkpt>
      <trkpt lat="44.5007" lon="3.93202">
        <ele>816</ele>
        <time>2009-07-11T07:01:03Z</time>
      </trkpt>
      <trkpt lat="44.50088" lon="3.93185">
        <ele>814</ele>
        <time>2009-07-11T07:01:10Z</time>
      </trkpt>
      <trkpt lat="44.50111" lon="3.9317">
        <ele>811</ele>
        <time>2009-07-11T07:01:16Z</time>
      </trkpt>
      <trkpt lat="44.50121" lon="3.93161">
        <ele>810</ele>
        <time>2009-07-11T07:01:19Z</time>
      </trkpt>
      <trkpt lat="44.50115" lon="3.93182">
        <ele>807</ele>
        <time>2009-07-11T07:01:26Z</time>
      </trkpt>
      <trkpt lat="44.50115" lon="3.93193">
        <ele>805</ele>
        <time>2009-07-11T07:01:29Z</time>
      </trkpt>
      <trkpt lat="44.50121" lon="3.932">
        <ele>804</ele>
        <time>2009-07-11T07:01:31Z</time>
      </trkpt>
      <trkpt lat="44.50133" lon="3.93193">
        <ele>804</ele>
        <time>2009-07-11T07:01:35Z</time>
      </trkpt>
      <trkpt lat="44.50144" lon="3.93174">
        <ele>805</ele>
        <time>2009-07-11T07:01:46Z</time>
      </trkpt>
      <trkpt lat="44.50155" lon="3.93156">
        <ele>805</ele>
        <time>2009-07-11T07:01:57Z</time>
      </trkpt>
      <trkpt lat="44.50157" lon="3.93156">
        <ele>805</ele>
        <time>2009-07-11T07:01:58Z</time>
      </trkpt>
      <trkpt lat="44.50166" lon="3.93162">
        <ele>806</ele>
        <time>2009-07-11T07:02:02Z</time>
      </trkpt>
      <trkpt lat="44.50187" lon="3.93188">
        <ele>807</ele>
        <time>2009-07-11T07:02:16Z</time>
      </trkpt>
      <trkpt lat="44.50187" lon="3.93209">
        <ele>809</ele>
        <time>2009-07-11T07:02:28Z</time>
      </trkpt>
      <trkpt lat="44.50188" lon="3.93215">
        <ele>810</ele>
        <time>2009-07-11T07:02:40Z</time>
      </trkpt>
      <trkpt lat="44.50194" lon="3.9321">
        <ele>812</ele>
        <time>2009-07-11T07:03:01Z</time>
      </trkpt>
      <trkpt lat="44.502" lon="3.93217">
        <ele>814</ele>
        <time>2009-07-11T07:03:16Z</time>
      </trkpt>
      <trkpt lat="44.5021" lon="3.93228">
        <ele>818</ele>
        <time>2009-07-11T07:03:36Z</time>
      </trkpt>
      <trkpt lat="44.5021" lon="3.93228">
        <ele>818</ele>
        <time>2009-07-11T07:03:37Z</time>
      </trkpt>
      <trkpt lat="44.50218" lon="3.93228">
        <ele>820</ele>
        <time>2009-07-11T07:03:49Z</time>
      </trkpt>
      <trkpt lat="44.50224" lon="3.93233">
        <ele>822</ele>
        <time>2009-07-11T07:04:02Z</time>
      </trkpt>
      <trkpt lat="44.50227" lon="3.93241">
        <ele>824</ele>
        <time>2009-07-11T07:04:16Z</time>
      </trkpt>
      <trkpt lat="44.50233" lon="3.9324">
        <ele>827</ele>
        <time>2009-07-11T07:04:30Z</time>
      </trkpt>
      <trkpt lat="44.50233" lon="3.93239">
        <ele>827</ele>
        <time>2009-07-11T07:04:31Z</time>
      </trkpt>
      <trkpt lat="44.50246" lon="3.93242">
        <ele>827</ele>
        <time>2009-07-11T07:04:47Z</time>
      </trkpt>
      <trkpt lat="44.50273" lon="3.93235">
        <ele>827</ele>
        <time>2009-07-11T07:04:58Z</time>
      </trkpt>
      <trkpt lat="44.503" lon="3.93234">
        <ele>828</ele>
        <time>2009-07-11T07:05:08Z</time>
      </trkpt>
      <trkpt lat="44.50324" lon="3.93229">
        <ele>829</ele>
        <time>2009-07-11T07:05:17Z</time>
      </trkpt>
      <trkpt lat="44.50354" lon="3.93229">
        <ele>830</ele>
        <time>2009-07-11T07:05:29Z</time>
      </trkpt>
      <trkpt lat="44.50379" lon="3.93232">
        <ele>832</ele>
        <time>2009-07-11T07:05:40Z</time>
      </trkpt>
      <trkpt lat="44.50405" lon="3.93243">
        <ele>832</ele>
        <time>2009-07-11T07:05:52Z</time>
      </trkpt>
      <trkpt lat="44.50408" lon="3.93244">
        <ele>832</ele>
        <time>2009-07-11T07:06:04Z</time>
      </trkpt>
      <trkpt lat="44.50416" lon="3.93249">
        <ele>833</ele>
        <time>2009-07-11T07:06:10Z</time>
      </trkpt>
      <trkpt lat="44.50436" lon="3.93258">
        <ele>835</ele>
        <time>2009-07-11T07:06:21Z</time>
      </trkpt>
      <trkpt lat="44.50464" lon="3.93262">
        <ele>834</ele>
        <time>2009-07-11T07:06:33Z</time>
      </trkpt>
      <trkpt lat="44.50466" lon="3.93264">
        <ele>834</ele>
        <time>2009-07-11T07:06:34Z</time>
      </trkpt>
      <trkpt lat="44.50478" lon="3.93263">
        <ele>834</ele>
        <time>2009-07-11T07:06:45Z</time>
      </trkpt>
      <trkpt lat="44.50482" lon="3.93259">
        <ele>833</ele>
        <time>2009-07-11T07:06:54Z</time>
      </trkpt>
      <trkpt lat="44.50488" lon="3.9325">
        <ele>835</ele>
        <time>2009-07-11T07:07:05Z</time>
      </trkpt>
      <trkpt lat="44.50491" lon="3.93244">
        <ele>835</ele>
        <time>2009-07-11T07:07:19Z</time>
      </trkpt>
      <trkpt lat="44.50493" lon="3.93242">
        <ele>835</ele>
        <time>2009-07-11T07:07:21Z</time>
      </trkpt>
      <trkpt lat="44.50495" lon="3.93201">
        <ele>838</ele>
        <time>2009-07-11T07:07:37Z</time>
      </trkpt>
      <trkpt lat="44.50509" lon="3.93177">
        <ele>839</ele>
        <time>2009-07-11T07:07:49Z</time>
      </trkpt>
      <trkpt lat="44.50512" lon="3.93175">
        <ele>840</ele>
        <time>2009-07-11T07:07:51Z</time>
      </trkpt>
      <trkpt lat="44.50523" lon="3.93165">
        <ele>843</ele>
        <time>2009-07-11T07:07:59Z</time>
      </trkpt>
      <trkpt lat="44.50539" lon="3.93149">
        <ele>846</ele>
        <time>2009-07-11T07:08:12Z</time>
      </trkpt>
      <trkpt lat="44.50547" lon="3.93141">
        <ele>847</ele>
        <time>2009-07-11T07:08:18Z</time>
      </trkpt>
      <trkpt lat="44.50559" lon="3.9313">
        <ele>849</ele>
        <time>2009-07-11T07:08:27Z</time>
      </trkpt>
      <trkpt lat="44.50575" lon="3.93119">
        <ele>851</ele>
        <time>2009-07-11T07:08:40Z</time>
      </trkpt>
      <trkpt lat="44.50593" lon="3.93107">
        <ele>855</ele>
        <time>2009-07-11T07:08:51Z</time>
      </trkpt>
      <trkpt lat="44.50601" lon="3.93102">
        <ele>855</ele>
        <time>2009-07-11T07:08:56Z</time>
      </trkpt>
      <trkpt lat="44.50609" lon="3.931">
        <ele>855</ele>
        <time>2009-07-11T07:09:01Z</time>
      </trkpt>
      <trkpt lat="44.50624" lon="3.93097">
        <ele>858</ele>
        <time>2009-07-11T07:09:11Z</time>
      </trkpt>
      <trkpt lat="44.50646" lon="3.93081">
        <ele>861</ele>
        <time>2009-07-11T07:09:26Z</time>
      </trkpt>
      <trkpt lat="44.50664" lon="3.93067">
        <ele>863</ele>
        <time>2009-07-11T07:09:37Z</time>
      </trkpt>
      <trkpt lat="44.50687" lon="3.93052">
        <ele>864</ele>
        <time>2009-07-11T07:09:48Z</time>
      </trkpt>
      <trkpt lat="44.50704" lon="3.93046">
        <ele>864</ele>
        <time>2009-07-11T07:09:55Z</time>
      </trkpt>
      <trkpt lat="44.50713" lon="3.93043">
        <ele>864</ele>
        <time>2009-07-11T07:09:59Z</time>
      </trkpt>
      <trkpt lat="44.50723" lon="3.93042">
        <ele>864</ele>
        <time>2009-07-11T07:10:03Z</time>
      </trkpt>
      <trkpt lat="44.5075" lon="3.93043">
        <ele>865</ele>
        <time>2009-07-11T07:10:14Z</time>
      </trkpt>
      <trkpt lat="44.5078" lon="3.93031">
        <ele>864</ele>
        <time>2009-07-11T07:10:24Z</time>
      </trkpt>
      <trkpt lat="44.50821" lon="3.93009">
        <ele>863</ele>
        <time>2009-07-11T07:10:38Z</time>
      </trkpt>
      <trkpt lat="44.50857" lon="3.92993">
        <ele>861</ele>
        <time>2009-07-11T07:10:48Z</time>
      </trkpt>
      <trkpt lat="44.50894" lon="3.9298">
        <ele>861</ele>
        <time>2009-07-11T07:10:59Z</time>
      </trkpt>
      <trkpt lat="44.50916" lon="3.92974">
        <ele>861</ele>
        <time>2009-07-11T07:11:09Z</time>
      </trkpt>
      <trkpt lat="44.50919" lon="3.92974">
        <ele>861</ele>
        <time>2009-07-11T07:11:56Z</time>
      </trkpt>
      <trkpt lat="44.50923" lon="3.92967">
        <ele>859</ele>
        <time>2009-07-11T07:14:00Z</time>
      </trkpt>
      <trkpt lat="44.50926" lon="3.9296">
        <ele>858</ele>
        <time>2009-07-11T07:14:03Z</time>
      </trkpt>
      <trkpt lat="44.50938" lon="3.9292">
        <ele>856</ele>
        <time>2009-07-11T07:14:12Z</time>
      </trkpt>
      <trkpt lat="44.50932" lon="3.92913">
        <ele>855</ele>
        <time>2009-07-11T07:14:22Z</time>
      </trkpt>
      <trkpt lat="44.50929" lon="3.92912">
        <ele>855</ele>
        <time>2009-07-11T07:14:43Z</time>
      </trkpt>
      <trkpt lat="44.50934" lon="3.92916">
        <ele>856</ele>
        <time>2009-07-11T07:15:19Z</time>
      </trkpt>
      <trkpt lat="44.5094" lon="3.92911">
        <ele>857</ele>
        <time>2009-07-11T07:15:32Z</time>
      </trkpt>
      <trkpt lat="44.50938" lon="3.92901">
        <ele>858</ele>
        <time>2009-07-11T07:15:43Z</time>
      </trkpt>
      <trkpt lat="44.5094" lon="3.92885">
        <ele>858</ele>
        <time>2009-07-11T07:15:54Z</time>
      </trkpt>
      <trkpt lat="44.50949" lon="3.92852">
        <ele>855</ele>
        <time>2009-07-11T07:16:05Z</time>
      </trkpt>
      <trkpt lat="44.50958" lon="3.92833">
        <ele>856</ele>
        <time>2009-07-11T07:16:15Z</time>
      </trkpt>
      <trkpt lat="44.50966" lon="3.92823">
        <ele>857</ele>
        <time>2009-07-11T07:16:29Z</time>
      </trkpt>
      <trkpt lat="44.50969" lon="3.92817">
        <ele>857</ele>
        <time>2009-07-11T07:16:37Z</time>
      </trkpt>
      <trkpt lat="44.50965" lon="3.92803">
        <ele>857</ele>
        <time>2009-07-11T07:16:49Z</time>
      </trkpt>
      <trkpt lat="44.50968" lon="3.92797">
        <ele>857</ele>
        <time>2009-07-11T07:16:53Z</time>
      </trkpt>
      <trkpt lat="44.50975" lon="3.92787">
        <ele>858</ele>
        <time>2009-07-11T07:17:05Z</time>
      </trkpt>
      <trkpt lat="44.50987" lon="3.92771">
        <ele>860</ele>
        <time>2009-07-11T07:17:22Z</time>
      </trkpt>
      <trkpt lat="44.5099" lon="3.92762">
        <ele>861</ele>
        <time>2009-07-11T07:17:37Z</time>
      </trkpt>
      <trkpt lat="44.50991" lon="3.92758">
        <ele>861</ele>
        <time>2009-07-11T07:17:49Z</time>
      </trkpt>
      <trkpt lat="44.50995" lon="3.9275">
        <ele>862</ele>
        <time>2009-07-11T07:18:02Z</time>
      </trkpt>
      <trkpt lat="44.51001" lon="3.92736">
        <ele>865</ele>
        <time>2009-07-11T07:18:18Z</time>
      </trkpt>
      <trkpt lat="44.51008" lon="3.92719">
        <ele>867</ele>
        <time>2009-07-11T07:18:34Z</time>
      </trkpt>
      <trkpt lat="44.51017" lon="3.92703">
        <ele>871</ele>
        <time>2009-07-11T07:18:52Z</time>
      </trkpt>
      <trkpt lat="44.51027" lon="3.92689">
        <ele>873</ele>
        <time>2009-07-11T07:19:09Z</time>
      </trkpt>
      <trkpt lat="44.51035" lon="3.92675">
        <ele>875</ele>
        <time>2009-07-11T07:19:25Z</time>
      </trkpt>
      <trkpt lat="44.51042" lon="3.9266">
        <ele>878</ele>
        <time>2009-07-11T07:19:41Z</time>
      </trkpt>
      <trkpt lat="44.51045" lon="3.92649">
        <ele>881</ele>
        <time>2009-07-11T07:19:52Z</time>
      </trkpt>
      <trkpt lat="44.5105" lon="3.92631">
        <ele>882</ele>
        <time>2009-07-11T07:20:09Z</time>
      </trkpt>
      <trkpt lat="44.5105" lon="3.92628">
        <ele>883</ele>
        <time>2009-07-11T07:20:27Z</time>
      </trkpt>
      <trkpt lat="44.51056" lon="3.92605">
        <ele>885</ele>
        <time>2009-07-11T07:20:40Z</time>
      </trkpt>
      <trkpt lat="44.51059" lon="3.92594">
        <ele>886</ele>
        <time>2009-07-11T07:20:45Z</time>
      </trkpt>
      <trkpt lat="44.51064" lon="3.92571">
        <ele>889</ele>
        <time>2009-07-11T07:20:57Z</time>
      </trkpt>
      <trkpt lat="44.51066" lon="3.92562">
        <ele>890</ele>
        <time>2009-07-11T07:21:11Z</time>
      </trkpt>
      <trkpt lat="44.51071" lon="3.92543">
        <ele>892</ele>
        <time>2009-07-11T07:21:28Z</time>
      </trkpt>
      <trkpt lat="44.5108" lon="3.92512">
        <ele>893</ele>
        <time>2009-07-11T07:21:43Z</time>
      </trkpt>
      <trkpt lat="44.51086" lon="3.92495">
        <ele>896</ele>
        <time>2009-07-11T07:21:52Z</time>
      </trkpt>
      <trkpt lat="44.51093" lon="3.92461">
        <ele>898</ele>
        <time>2009-07-11T07:22:08Z</time>
      </trkpt>
      <trkpt lat="44.51097" lon="3.92415">
        <ele>900</ele>
        <time>2009-07-11T07:22:26Z</time>
      </trkpt>
      <trkpt lat="44.51097" lon="3.92369">
        <ele>903</ele>
        <time>2009-07-11T07:22:45Z</time>
      </trkpt>
      <trkpt lat="44.51102" lon="3.92319">
        <ele>906</ele>
        <time>2009-07-11T07:23:05Z</time>
      </trkpt>
      <trkpt lat="44.51106" lon="3.92289">
        <ele>907</ele>
        <time>2009-07-11T07:23:19Z</time>
      </trkpt>
      <trkpt lat="44.51106" lon="3.92289">
        <ele>907</ele>
        <time>2009-07-11T07:23:57Z</time>
      </trkpt>
      <trkpt lat="44.51106" lon="3.9229">
        <ele>907</ele>
        <time>2009-07-11T07:25:43Z</time>
      </trkpt>
      <trkpt lat="44.51116" lon="3.92267">
        <ele>906</ele>
        <time>2009-07-11T07:25:55Z</time>
      </trkpt>
      <trkpt lat="44.51133" lon="3.92246">
        <ele>903</ele>
        <time>2009-07-11T07:26:05Z</time>
      </trkpt>
      <trkpt lat="44.51147" lon="3.92239">
        <ele>902</ele>
        <time>2009-07-11T07:26:09Z</time>
      </trkpt>
      <trkpt lat="44.51181" lon="3.92214">
        <ele>899</ele>
        <time>2009-07-11T07:26:20Z</time>
      </trkpt>
      <trkpt lat="44.51192" lon="3.92201">
        <ele>897</ele>
        <time>2009-07-11T07:26:25Z</time>
      </trkpt>
      <trkpt lat="44.51204" lon="3.9219">
        <ele>894</ele>
        <time>2009-07-11T07:26:30Z</time>
      </trkpt>
      <trkpt lat="44.51209" lon="3.92187">
        <ele>894</ele>
        <time>2009-07-11T07:26:32Z</time>
      </trkpt>
      <trkpt lat="44.51228" lon="3.92182">
        <ele>889</ele>
        <time>2009-07-11T07:26:39Z</time>
      </trkpt>
      <trkpt lat="44.51251" lon="3.92173">
        <ele>887</ele>
        <time>2009-07-11T07:26:48Z</time>
      </trkpt>
      <trkpt lat="44.5126" lon="3.92169">
        <ele>885</ele>
        <time>2009-07-11T07:26:52Z</time>
      </trkpt>
      <trkpt lat="44.51267" lon="3.92168">
        <ele>884</ele>
        <time>2009-07-11T07:26:55Z</time>
      </trkpt>
      <trkpt lat="44.51275" lon="3.92165">
        <ele>881</ele>
        <time>2009-07-11T07:26:59Z</time>
      </trkpt>
      <trkpt lat="44.51282" lon="3.92161">
        <ele>880</ele>
        <time>2009-07-11T07:27:02Z</time>
      </trkpt>
      <trkpt lat="44.51296" lon="3.92155">
        <ele>877</ele>
        <time>2009-07-11T07:27:08Z</time>
      </trkpt>
      <trkpt lat="44.51309" lon="3.92144">
        <ele>873</ele>
        <time>2009-07-11T07:27:14Z</time>
      </trkpt>
      <trkpt lat="44.51311" lon="3.92142">
        <ele>873</ele>
        <time>2009-07-11T07:27:15Z</time>
      </trkpt>
      <trkpt lat="44.51315" lon="3.92137">
        <ele>870</ele>
        <time>2009-07-11T07:27:18Z</time>
      </trkpt>
      <trkpt lat="44.51327" lon="3.92127">
        <ele>869</ele>
        <time>2009-07-11T07:27:29Z</time>
      </trkpt>
      <trkpt lat="44.51331" lon="3.92122">
        <ele>868</ele>
        <time>2009-07-11T07:27:53Z</time>
      </trkpt>
      <trkpt lat="44.51339" lon="3.92117">
        <ele>865</ele>
        <time>2009-07-11T07:28:10Z</time>
      </trkpt>
      <trkpt lat="44.5134" lon="3.92116">
        <ele>864</ele>
        <time>2009-07-11T07:28:11Z</time>
      </trkpt>
      <trkpt lat="44.51359" lon="3.92102">
        <ele>861</ele>
        <time>2009-07-11T07:28:21Z</time>
      </trkpt>
      <trkpt lat="44.51369" lon="3.92094">
        <ele>859</ele>
        <time>2009-07-11T07:28:26Z</time>
      </trkpt>
      <trkpt lat="44.51385" lon="3.92073">
        <ele>856</ele>
        <time>2009-07-11T07:28:36Z</time>
      </trkpt>
      <trkpt lat="44.51397" lon="3.92055">
        <ele>854</ele>
        <time>2009-07-11T07:28:44Z</time>
      </trkpt>
      <trkpt lat="44.51411" lon="3.92038">
        <ele>853</ele>
        <time>2009-07-11T07:28:54Z</time>
      </trkpt>
      <trkpt lat="44.51422" lon="3.92023">
        <ele>851</ele>
        <time>2009-07-11T07:29:05Z</time>
      </trkpt>
      <trkpt lat="44.51438" lon="3.91998">
        <ele>849</ele>
        <time>2009-07-11T07:29:16Z</time>
      </trkpt>
      <trkpt lat="44.51444" lon="3.91992">
        <ele>849</ele>
        <time>2009-07-11T07:29:24Z</time>
      </trkpt>
      <trkpt lat="44.51445" lon="3.91988">
        <ele>849</ele>
        <time>2009-07-11T07:29:58Z</time>
      </trkpt>
      <trkpt lat="44.51445" lon="3.91987">
        <ele>848</ele>
        <time>2009-07-11T07:29:59Z</time>
      </trkpt>
      <trkpt lat="44.51446" lon="3.9198">
        <ele>848</ele>
        <time>2009-07-11T07:30:20Z</time>
      </trkpt>
      <trkpt lat="44.51445" lon="3.9198">
        <ele>849</ele>
        <time>2009-07-11T07:34:26Z</time>
      </trkpt>
      <trkpt lat="44.51456" lon="3.91975">
        <ele>849</ele>
        <time>2009-07-11T07:34:38Z</time>
      </trkpt>
      <trkpt lat="44.51475" lon="3.91954">
        <ele>852</ele>
        <time>2009-07-11T07:34:50Z</time>
      </trkpt>
      <trkpt lat="44.51478" lon="3.91949">
        <ele>848</ele>
        <time>2009-07-11T07:34:53Z</time>
      </trkpt>
      <trkpt lat="44.51478" lon="3.91948">
        <ele>835</ele>
        <time>2009-07-11T07:34:54Z</time>
      </trkpt>
      <trkpt lat="44.51478" lon="3.91948">
        <ele>867</ele>
        <time>2009-07-11T07:34:55Z</time>
      </trkpt>
      <trkpt lat="44.51479" lon="3.91947">
        <ele>855</ele>
        <time>2009-07-11T07:34:56Z</time>
      </trkpt>
      <trkpt lat="44.51479" lon="3.91948">
        <ele>852</ele>
        <time>2009-07-11T07:34:58Z</time>
      </trkpt>
      <trkpt lat="44.51484" lon="3.9194">
        <ele>852</ele>
        <time>2009-07-11T07:35:12Z</time>
      </trkpt>
      <trkpt lat="44.51484" lon="3.9194">
        <ele>851</ele>
        <time>2009-07-11T07:35:15Z</time>
      </trkpt>
      <trkpt lat="44.51485" lon="3.91937">
        <ele>851</ele>
        <time>2009-07-11T07:35:17Z</time>
      </trkpt>
      <trkpt lat="44.5149" lon="3.91929">
        <ele>853</ele>
        <time>2009-07-11T07:35:26Z</time>
      </trkpt>
      <trkpt lat="44.51492" lon="3.91928">
        <ele>854</ele>
        <time>2009-07-11T07:35:28Z</time>
      </trkpt>
      <trkpt lat="44.51497" lon="3.91925">
        <ele>854</ele>
        <time>2009-07-11T07:35:32Z</time>
      </trkpt>
      <trkpt lat="44.51501" lon="3.91912">
        <ele>856</ele>
        <time>2009-07-11T07:35:44Z</time>
      </trkpt>
      <trkpt lat="44.51502" lon="3.91902">
        <ele>856</ele>
        <time>2009-07-11T07:35:56Z</time>
      </trkpt>
      <trkpt lat="44.51503" lon="3.91898">
        <ele>856</ele>
        <time>2009-07-11T07:35:59Z</time>
      </trkpt>
      <trkpt lat="44.51504" lon="3.91887">
        <ele>859</ele>
        <time>2009-07-11T07:36:07Z</time>
      </trkpt>
      <trkpt lat="44.51503" lon="3.9187">
        <ele>859</ele>
        <time>2009-07-11T07:36:19Z</time>
      </trkpt>
      <trkpt lat="44.51505" lon="3.91865">
        <ele>859</ele>
        <time>2009-07-11T07:36:26Z</time>
      </trkpt>
      <trkpt lat="44.5152" lon="3.91853">
        <ele>862</ele>
        <time>2009-07-11T07:36:38Z</time>
      </trkpt>
      <trkpt lat="44.51521" lon="3.91852">
        <ele>862</ele>
        <time>2009-07-11T07:36:39Z</time>
      </trkpt>
      <trkpt lat="44.51532" lon="3.91832">
        <ele>865</ele>
        <time>2009-07-11T07:36:52Z</time>
      </trkpt>
      <trkpt lat="44.51534" lon="3.9182">
        <ele>866</ele>
        <time>2009-07-11T07:37:07Z</time>
      </trkpt>
      <trkpt lat="44.51541" lon="3.91803">
        <ele>868</ele>
        <time>2009-07-11T07:37:25Z</time>
      </trkpt>
      <trkpt lat="44.51543" lon="3.91793">
        <ele>871</ele>
        <time>2009-07-11T07:37:37Z</time>
      </trkpt>
      <trkpt lat="44.51547" lon="3.91785">
        <ele>871</ele>
        <time>2009-07-11T07:37:47Z</time>
      </trkpt>
      <trkpt lat="44.51555" lon="3.91764">
        <ele>873</ele>
        <time>2009-07-11T07:38:04Z</time>
      </trkpt>
      <trkpt lat="44.51556" lon="3.91757">
        <ele>874</ele>
        <time>2009-07-11T07:38:21Z</time>
      </trkpt>
      <trkpt lat="44.51558" lon="3.91746">
        <ele>876</ele>
        <time>2009-07-11T07:38:33Z</time>
      </trkpt>
      <trkpt lat="44.51559" lon="3.91742">
        <ele>877</ele>
        <time>2009-07-11T07:38:35Z</time>
      </trkpt>
      <trkpt lat="44.51561" lon="3.91726">
        <ele>879</ele>
        <time>2009-07-11T07:38:46Z</time>
      </trkpt>
      <trkpt lat="44.51557" lon="3.91711">
        <ele>881</ele>
        <time>2009-07-11T07:39:01Z</time>
      </trkpt>
      <trkpt lat="44.51557" lon="3.91711">
        <ele>878</ele>
        <time>2009-07-11T07:39:02Z</time>
      </trkpt>
      <trkpt lat="44.51557" lon="3.91711">
        <ele>884</ele>
        <time>2009-07-11T07:39:03Z</time>
      </trkpt>
      <trkpt lat="44.51557" lon="3.91711">
        <ele>881</ele>
        <time>2009-07-11T07:39:04Z</time>
      </trkpt>
      <trkpt lat="44.51557" lon="3.9171">
        <ele>882</ele>
        <time>2009-07-11T07:39:08Z</time>
      </trkpt>
      <trkpt lat="44.51548" lon="3.91693">
        <ele>884</ele>
        <time>2009-07-11T07:39:24Z</time>
      </trkpt>
      <trkpt lat="44.51543" lon="3.91681">
        <ele>885</ele>
        <time>2009-07-11T07:39:36Z</time>
      </trkpt>
      <trkpt lat="44.51542" lon="3.91677">
        <ele>886</ele>
        <time>2009-07-11T07:39:40Z</time>
      </trkpt>
      <trkpt lat="44.51546" lon="3.91667">
        <ele>889</ele>
        <time>2009-07-11T07:39:50Z</time>
      </trkpt>
      <trkpt lat="44.51547" lon="3.91659">
        <ele>890</ele>
        <time>2009-07-11T07:40:04Z</time>
      </trkpt>
      <trkpt lat="44.51543" lon="3.9165">
        <ele>892</ele>
        <time>2009-07-11T07:40:18Z</time>
      </trkpt>
      <trkpt lat="44.5155" lon="3.91649">
        <ele>894</ele>
        <time>2009-07-11T07:40:33Z</time>
      </trkpt>
      <trkpt lat="44.51554" lon="3.91651">
        <ele>895</ele>
        <time>2009-07-11T07:40:39Z</time>
      </trkpt>
      <trkpt lat="44.5156" lon="3.91657">
        <ele>896</ele>
        <time>2009-07-11T07:40:46Z</time>
      </trkpt>
      <trkpt lat="44.51565" lon="3.91661">
        <ele>896</ele>
        <time>2009-07-11T07:40:53Z</time>
      </trkpt>
      <trkpt lat="44.51573" lon="3.9165">
        <ele>899</ele>
        <time>2009-07-11T07:41:08Z</time>
      </trkpt>
      <trkpt lat="44.51577" lon="3.91642">
        <ele>900</ele>
        <time>2009-07-11T07:41:16Z</time>
      </trkpt>
      <trkpt lat="44.51581" lon="3.91628">
        <ele>901</ele>
        <time>2009-07-11T07:41:32Z</time>
      </trkpt>
      <trkpt lat="44.51587" lon="3.91618">
        <ele>901</ele>
        <time>2009-07-11T07:41:47Z</time>
      </trkpt>
      <trkpt lat="44.51597" lon="3.91601">
        <ele>903</ele>
        <time>2009-07-11T07:41:55Z</time>
      </trkpt>
      <trkpt lat="44.51599" lon="3.91597">
        <ele>904</ele>
        <time>2009-07-11T07:42:03Z</time>
      </trkpt>
      <trkpt lat="44.51606" lon="3.91591">
        <ele>905</ele>
        <time>2009-07-11T07:42:20Z</time>
      </trkpt>
      <trkpt lat="44.51614" lon="3.91582">
        <ele>908</ele>
        <time>2009-07-11T07:42:35Z</time>
      </trkpt>
      <trkpt lat="44.51616" lon="3.91578">
        <ele>907</ele>
        <time>2009-07-11T07:42:49Z</time>
      </trkpt>
      <trkpt lat="44.51635" lon="3.91569">
        <ele>911</ele>
        <time>2009-07-11T07:43:00Z</time>
      </trkpt>
      <trkpt lat="44.51639" lon="3.91566">
        <ele>913</ele>
        <time>2009-07-11T07:43:09Z</time>
      </trkpt>
      <trkpt lat="44.51648" lon="3.91557">
        <ele>914</ele>
        <time>2009-07-11T07:43:25Z</time>
      </trkpt>
      <trkpt lat="44.51654" lon="3.91554">
        <ele>915</ele>
        <time>2009-07-11T07:43:31Z</time>
      </trkpt>
      <trkpt lat="44.5166" lon="3.91549">
        <ele>917</ele>
        <time>2009-07-11T07:43:38Z</time>
      </trkpt>
      <trkpt lat="44.51673" lon="3.91529">
        <ele>917</ele>
        <time>2009-07-11T07:43:56Z</time>
      </trkpt>
      <trkpt lat="44.5168" lon="3.9152">
        <ele>918</ele>
        <time>2009-07-11T07:44:11Z</time>
      </trkpt>
      <trkpt lat="44.51685" lon="3.91521">
        <ele>919</ele>
        <time>2009-07-11T07:44:25Z</time>
      </trkpt>
      <trkpt lat="44.51685" lon="3.91521">
        <ele>915</ele>
        <time>2009-07-11T07:44:27Z</time>
      </trkpt>
      <trkpt lat="44.51685" lon="3.91521">
        <ele>921</ele>
        <time>2009-07-11T07:44:28Z</time>
      </trkpt>
      <trkpt lat="44.51685" lon="3.91521">
        <ele>916</ele>
        <time>2009-07-11T07:44:29Z</time>
      </trkpt>
      <trkpt lat="44.51685" lon="3.91521">
        <ele>920</ele>
        <time>2009-07-11T07:44:31Z</time>
      </trkpt>
      <trkpt lat="44.51685" lon="3.91521">
        <ele>916</ele>
        <time>2009-07-11T07:44:32Z</time>
      </trkpt>
      <trkpt lat="44.51685" lon="3.91521">
        <ele>919</ele>
        <time>2009-07-11T07:44:33Z</time>
      </trkpt>
      <trkpt lat="44.51685" lon="3.91522">
        <ele>915</ele>
        <time>2009-07-11T07:44:43Z</time>
      </trkpt>
      <trkpt lat="44.51685" lon="3.91522">
        <ele>919</ele>
        <time>2009-07-11T07:44:44Z</time>
      </trkpt>
      <trkpt lat="44.51685" lon="3.91522">
        <ele>916</ele>
        <time>2009-07-11T07:44:45Z</time>
      </trkpt>
      <trkpt lat="44.51685" lon="3.91522">
        <ele>919</ele>
        <time>2009-07-11T07:44:47Z</time>
      </trkpt>
      <trkpt lat="44.51685" lon="3.91522">
        <ele>915</ele>
        <time>2009-07-11T07:44:51Z</time>
      </trkpt>
      <trkpt lat="44.51685" lon="3.91522">
        <ele>920</ele>
        <time>2009-07-11T07:44:52Z</time>
      </trkpt>
      <trkpt lat="44.51685" lon="3.91522">
        <ele>915</ele>
        <time>2009-07-11T07:44:53Z</time>
      </trkpt>
      <trkpt lat="44.51685" lon="3.91522">
        <ele>919</ele>
        <time>2009-07-11T07:44:54Z</time>
      </trkpt>
      <trkpt lat="44.51685" lon="3.91522">
        <ele>916</ele>
        <time>2009-07-11T07:45:01Z</time>
      </trkpt>
      <trkpt lat="44.51685" lon="3.91522">
        <ele>920</ele>
        <time>2009-07-11T07:45:04Z</time>
      </trkpt>
      <trkpt lat="44.51685" lon="3.91522">
        <ele>915</ele>
        <time>2009-07-11T07:45:05Z</time>
      </trkpt>
      <trkpt lat="44.51685" lon="3.91522">
        <ele>919</ele>
        <time>2009-07-11T07:45:06Z</time>
      </trkpt>
      <trkpt lat="44.51687" lon="3.91526">
        <ele>918</ele>
        <time>2009-07-11T07:45:25Z</time>
      </trkpt>
      <trkpt lat="44.51686" lon="3.91527">
        <ele>918</ele>
        <time>2009-07-11T07:46:13Z</time>
      </trkpt>
      <trkpt lat="44.5169" lon="3.91527">
        <ele>919</ele>
        <time>2009-07-11T07:46:42Z</time>
      </trkpt>
      <trkpt lat="44.51691" lon="3.91527">
        <ele>918</ele>
        <time>2009-07-11T07:47:10Z</time>
      </trkpt>
      <trkpt lat="44.51715" lon="3.9154">
        <ele>920</ele>
        <time>2009-07-11T07:47:26Z</time>
      </trkpt>
      <trkpt lat="44.51746" lon="3.91558">
        <ele>921</ele>
        <time>2009-07-11T07:47:41Z</time>
      </trkpt>
      <trkpt lat="44.51766" lon="3.91566">
        <ele>923</ele>
        <time>2009-07-11T07:47:54Z</time>
      </trkpt>
      <trkpt lat="44.51786" lon="3.91579">
        <ele>914</ele>
        <time>2009-07-11T07:48:03Z</time>
      </trkpt>
      <trkpt lat="44.5179" lon="3.9158">
        <ele>924</ele>
        <time>2009-07-11T07:48:04Z</time>
      </trkpt>
      <trkpt lat="44.51793" lon="3.91581">
        <ele>921</ele>
        <time>2009-07-11T07:48:05Z</time>
      </trkpt>
      <trkpt lat="44.51845" lon="3.91596">
        <ele>921</ele>
        <time>2009-07-11T07:48:19Z</time>
      </trkpt>
      <trkpt lat="44.51888" lon="3.91617">
        <ele>920</ele>
        <time>2009-07-11T07:48:33Z</time>
      </trkpt>
      <trkpt lat="44.51894" lon="3.91643">
        <ele>920</ele>
        <time>2009-07-11T07:48:40Z</time>
      </trkpt>
      <trkpt lat="44.51877" lon="3.91667">
        <ele>923</ele>
        <time>2009-07-11T07:48:49Z</time>
      </trkpt>
      <trkpt lat="44.51854" lon="3.91684">
        <ele>926</ele>
        <time>2009-07-11T07:49:02Z</time>
      </trkpt>
      <trkpt lat="44.51834" lon="3.91719">
        <ele>928</ele>
        <time>2009-07-11T07:49:19Z</time>
      </trkpt>
      <trkpt lat="44.51835" lon="3.91761">
        <ele>932</ele>
        <time>2009-07-11T07:49:35Z</time>
      </trkpt>
      <trkpt lat="44.51836" lon="3.91763">
        <ele>932</ele>
        <time>2009-07-11T07:49:36Z</time>
      </trkpt>
      <trkpt lat="44.51839" lon="3.91767">
        <ele>930</ele>
        <time>2009-07-11T07:49:38Z</time>
      </trkpt>
      <trkpt lat="44.51847" lon="3.9177">
        <ele>932</ele>
        <time>2009-07-11T07:49:42Z</time>
      </trkpt>
      <trkpt lat="44.51869" lon="3.91788">
        <ele>934</ele>
        <time>2009-07-11T07:49:54Z</time>
      </trkpt>
      <trkpt lat="44.51894" lon="3.91809">
        <ele>937</ele>
        <time>2009-07-11T07:50:08Z</time>
      </trkpt>
      <trkpt lat="44.51896" lon="3.9181">
        <ele>937</ele>
        <time>2009-07-11T07:50:09Z</time>
      </trkpt>
      <trkpt lat="44.51921" lon="3.91831">
        <ele>938</ele>
        <time>2009-07-11T07:50:22Z</time>
      </trkpt>
      <trkpt lat="44.51923" lon="3.91832">
        <ele>938</ele>
        <time>2009-07-11T07:50:23Z</time>
      </trkpt>
      <trkpt lat="44.51965" lon="3.91862">
        <ele>937</ele>
        <time>2009-07-11T07:50:43Z</time>
      </trkpt>
      <trkpt lat="44.51976" lon="3.91868">
        <ele>936</ele>
        <time>2009-07-11T07:50:48Z</time>
      </trkpt>
      <trkpt lat="44.51986" lon="3.91872">
        <ele>938</ele>
        <time>2009-07-11T07:50:52Z</time>
      </trkpt>
      <trkpt lat="44.52042" lon="3.91895">
        <ele>938</ele>
        <time>2009-07-11T07:51:12Z</time>
      </trkpt>
      <trkpt lat="44.5205" lon="3.91894">
        <ele>938</ele>
        <time>2009-07-11T07:51:15Z</time>
      </trkpt>
      <trkpt lat="44.52059" lon="3.91881">
        <ele>942</ele>
        <time>2009-07-11T07:51:20Z</time>
      </trkpt>
      <trkpt lat="44.52069" lon="3.91865">
        <ele>939</ele>
        <time>2009-07-11T07:51:25Z</time>
      </trkpt>
      <trkpt lat="44.52071" lon="3.91862">
        <ele>939</ele>
        <time>2009-07-11T07:51:26Z</time>
      </trkpt>
      <trkpt lat="44.52089" lon="3.91846">
        <ele>942</ele>
        <time>2009-07-11T07:51:34Z</time>
      </trkpt>
      <trkpt lat="44.52105" lon="3.91838">
        <ele>945</ele>
        <time>2009-07-11T07:51:40Z</time>
      </trkpt>
      <trkpt lat="44.52107" lon="3.91839">
        <ele>945</ele>
        <time>2009-07-11T07:51:41Z</time>
      </trkpt>
      <trkpt lat="44.52137" lon="3.91862">
        <ele>947</ele>
        <time>2009-07-11T07:51:55Z</time>
      </trkpt>
      <trkpt lat="44.5214" lon="3.91867">
        <ele>948</ele>
        <time>2009-07-11T07:51:57Z</time>
      </trkpt>
      <trkpt lat="44.52171" lon="3.91895">
        <ele>949</ele>
        <time>2009-07-11T07:52:13Z</time>
      </trkpt>
      <trkpt lat="44.52208" lon="3.9191">
        <ele>952</ele>
        <time>2009-07-11T07:52:29Z</time>
      </trkpt>
      <trkpt lat="44.52237" lon="3.9193">
        <ele>952</ele>
        <time>2009-07-11T07:52:42Z</time>
      </trkpt>
      <trkpt lat="44.52251" lon="3.91943">
        <ele>952</ele>
        <time>2009-07-11T07:52:49Z</time>
      </trkpt>
      <trkpt lat="44.52283" lon="3.91965">
        <ele>954</ele>
        <time>2009-07-11T07:53:02Z</time>
      </trkpt>
      <trkpt lat="44.52319" lon="3.9199">
        <ele>955</ele>
        <time>2009-07-11T07:53:16Z</time>
      </trkpt>
      <trkpt lat="44.52346" lon="3.92051">
        <ele>956</ele>
        <time>2009-07-11T07:53:33Z</time>
      </trkpt>
      <trkpt lat="44.5238" lon="3.92092">
        <ele>955</ele>
        <time>2009-07-11T07:53:48Z</time>
      </trkpt>
      <trkpt lat="44.52418" lon="3.92102">
        <ele>953</ele>
        <time>2009-07-11T07:54:01Z</time>
      </trkpt>
      <trkpt lat="44.52434" lon="3.92112">
        <ele>957</ele>
        <time>2009-07-11T07:54:07Z</time>
      </trkpt>
      <trkpt lat="44.52437" lon="3.92113">
        <ele>957</ele>
        <time>2009-07-11T07:54:08Z</time>
      </trkpt>
      <trkpt lat="44.52454" lon="3.92124">
        <ele>957</ele>
        <time>2009-07-11T07:54:15Z</time>
      </trkpt>
      <trkpt lat="44.5247" lon="3.92131">
        <ele>959</ele>
        <time>2009-07-11T07:54:21Z</time>
      </trkpt>
      <trkpt lat="44.52518" lon="3.92153">
        <ele>961</ele>
        <time>2009-07-11T07:54:39Z</time>
      </trkpt>
      <trkpt lat="44.52571" lon="3.92168">
        <ele>961</ele>
        <time>2009-07-11T07:54:59Z</time>
      </trkpt>
      <trkpt lat="44.52611" lon="3.92172">
        <ele>964</ele>
        <time>2009-07-11T07:55:15Z</time>
      </trkpt>
      <trkpt lat="44.52628" lon="3.92174">
        <ele>966</ele>
        <time>2009-07-11T07:55:22Z</time>
      </trkpt>
      <trkpt lat="44.52645" lon="3.9217">
        <ele>967</ele>
        <time>2009-07-11T07:55:30Z</time>
      </trkpt>
      <trkpt lat="44.52675" lon="3.9218">
        <ele>968</ele>
        <time>2009-07-11T07:55:44Z</time>
      </trkpt>
      <trkpt lat="44.52704" lon="3.92194">
        <ele>971</ele>
        <time>2009-07-11T07:55:57Z</time>
      </trkpt>
      <trkpt lat="44.52708" lon="3.92197">
        <ele>972</ele>
        <time>2009-07-11T07:55:59Z</time>
      </trkpt>
      <trkpt lat="44.52735" lon="3.92217">
        <ele>972</ele>
        <time>2009-07-11T07:56:14Z</time>
      </trkpt>
      <trkpt lat="44.52741" lon="3.92222">
        <ele>974</ele>
        <time>2009-07-11T07:56:27Z</time>
      </trkpt>
      <trkpt lat="44.52741" lon="3.92222">
        <ele>973</ele>
        <time>2009-07-11T07:56:57Z</time>
      </trkpt>
      <trkpt lat="44.52742" lon="3.92222">
        <ele>973</ele>
        <time>2009-07-11T07:57:24Z</time>
      </trkpt>
      <trkpt lat="44.52751" lon="3.92227">
        <ele>973</ele>
        <time>2009-07-11T07:57:42Z</time>
      </trkpt>
      <trkpt lat="44.5278" lon="3.92244">
        <ele>973</ele>
        <time>2009-07-11T07:57:54Z</time>
      </trkpt>
      <trkpt lat="44.52824" lon="3.92264">
        <ele>971</ele>
        <time>2009-07-11T07:58:09Z</time>
      </trkpt>
      <trkpt lat="44.52843" lon="3.92271">
        <ele>971</ele>
        <time>2009-07-11T07:58:15Z</time>
      </trkpt>
      <trkpt lat="44.52882" lon="3.92294">
        <ele>971</ele>
        <time>2009-07-11T07:58:28Z</time>
      </trkpt>
      <trkpt lat="44.52909" lon="3.92315">
        <ele>974</ele>
        <time>2009-07-11T07:58:38Z</time>
      </trkpt>
      <trkpt lat="44.52947" lon="3.92344">
        <ele>976</ele>
        <time>2009-07-11T07:58:53Z</time>
      </trkpt>
      <trkpt lat="44.52975" lon="3.92341">
        <ele>976</ele>
        <time>2009-07-11T07:59:05Z</time>
      </trkpt>
      <trkpt lat="44.52989" lon="3.9234">
        <ele>976</ele>
        <time>2009-07-11T07:59:17Z</time>
      </trkpt>
      <trkpt lat="44.53035" lon="3.92348">
        <ele>979</ele>
        <time>2009-07-11T07:59:34Z</time>
      </trkpt>
      <trkpt lat="44.53082" lon="3.92349">
        <ele>979</ele>
        <time>2009-07-11T07:59:49Z</time>
      </trkpt>
      <trkpt lat="44.53132" lon="3.92362">
        <ele>980</ele>
        <time>2009-07-11T08:00:05Z</time>
      </trkpt>
      <trkpt lat="44.53167" lon="3.92369">
        <ele>982</ele>
        <time>2009-07-11T08:00:17Z</time>
      </trkpt>
      <trkpt lat="44.5322" lon="3.92346">
        <ele>983</ele>
        <time>2009-07-11T08:00:34Z</time>
      </trkpt>
      <trkpt lat="44.53244" lon="3.92334">
        <ele>982</ele>
        <time>2009-07-11T08:00:41Z</time>
      </trkpt>
      <trkpt lat="44.53256" lon="3.92326">
        <ele>981</ele>
        <time>2009-07-11T08:00:44Z</time>
      </trkpt>
      <trkpt lat="44.53265" lon="3.92321">
        <ele>981</ele>
        <time>2009-07-11T08:00:46Z</time>
      </trkpt>
      <trkpt lat="44.53297" lon="3.92304">
        <ele>979</ele>
        <time>2009-07-11T08:00:53Z</time>
      </trkpt>
      <trkpt lat="44.53312" lon="3.92298">
        <ele>981</ele>
        <time>2009-07-11T08:00:57Z</time>
      </trkpt>
      <trkpt lat="44.53315" lon="3.9226">
        <ele>980</ele>
        <time>2009-07-11T08:01:07Z</time>
      </trkpt>
      <trkpt lat="44.53316" lon="3.92253">
        <ele>980</ele>
        <time>2009-07-11T08:01:09Z</time>
      </trkpt>
      <trkpt lat="44.53303" lon="3.92193">
        <ele>982</ele>
        <time>2009-07-11T08:01:26Z</time>
      </trkpt>
      <trkpt lat="44.53266" lon="3.92159">
        <ele>984</ele>
        <time>2009-07-11T08:01:42Z</time>
      </trkpt>
      <trkpt lat="44.5326" lon="3.92147">
        <ele>984</ele>
        <time>2009-07-11T08:01:53Z</time>
      </trkpt>
      <trkpt lat="44.53255" lon="3.92119">
        <ele>985</ele>
        <time>2009-07-11T08:02:03Z</time>
      </trkpt>
      <trkpt lat="44.53255" lon="3.9204">
        <ele>987</ele>
        <time>2009-07-11T08:02:20Z</time>
      </trkpt>
      <trkpt lat="44.53256" lon="3.92036">
        <ele>987</ele>
        <time>2009-07-11T08:02:21Z</time>
      </trkpt>
      <trkpt lat="44.53254" lon="3.92005">
        <ele>987</ele>
        <time>2009-07-11T08:02:28Z</time>
      </trkpt>
      <trkpt lat="44.53255" lon="3.91996">
        <ele>987</ele>
        <time>2009-07-11T08:02:30Z</time>
      </trkpt>
      <trkpt lat="44.53267" lon="3.91993">
        <ele>988</ele>
        <time>2009-07-11T08:02:36Z</time>
      </trkpt>
      <trkpt lat="44.53301" lon="3.92011">
        <ele>990</ele>
        <time>2009-07-11T08:02:51Z</time>
      </trkpt>
      <trkpt lat="44.53319" lon="3.92015">
        <ele>992</ele>
        <time>2009-07-11T08:02:59Z</time>
      </trkpt>
      <trkpt lat="44.53333" lon="3.92016">
        <ele>993</ele>
        <time>2009-07-11T08:03:11Z</time>
      </trkpt>
      <trkpt lat="44.53334" lon="3.92017">
        <ele>992</ele>
        <time>2009-07-11T08:03:45Z</time>
      </trkpt>
      <trkpt lat="44.5336" lon="3.92012">
        <ele>993</ele>
        <time>2009-07-11T08:03:59Z</time>
      </trkpt>
      <trkpt lat="44.53387" lon="3.91996">
        <ele>995</ele>
        <time>2009-07-11T08:04:12Z</time>
      </trkpt>
      <trkpt lat="44.53419" lon="3.91979">
        <ele>996</ele>
        <time>2009-07-11T08:04:26Z</time>
      </trkpt>
      <trkpt lat="44.53449" lon="3.91957">
        <ele>997</ele>
        <time>2009-07-11T08:04:40Z</time>
      </trkpt>
      <trkpt lat="44.53485" lon="3.91939">
        <ele>998</ele>
        <time>2009-07-11T08:04:56Z</time>
      </trkpt>
      <trkpt lat="44.53525" lon="3.9193">
        <ele>1000</ele>
        <time>2009-07-11T08:05:13Z</time>
      </trkpt>
      <trkpt lat="44.53562" lon="3.91925">
        <ele>1001</ele>
        <time>2009-07-11T08:05:28Z</time>
      </trkpt>
      <trkpt lat="44.53605" lon="3.9192">
        <ele>1001</ele>
        <time>2009-07-11T08:05:43Z</time>
      </trkpt>
      <trkpt lat="44.53639" lon="3.91922">
        <ele>1003</ele>
        <time>2009-07-11T08:05:55Z</time>
      </trkpt>
      <trkpt lat="44.53683" lon="3.91936">
        <ele>1001</ele>
        <time>2009-07-11T08:06:10Z</time>
      </trkpt>
      <trkpt lat="44.53715" lon="3.91945">
        <ele>1003</ele>
        <time>2009-07-11T08:06:21Z</time>
      </trkpt>
      <trkpt lat="44.53747" lon="3.91948">
        <ele>1004</ele>
        <time>2009-07-11T08:06:32Z</time>
      </trkpt>
      <trkpt lat="44.53781" lon="3.91952">
        <ele>1006</ele>
        <time>2009-07-11T08:06:46Z</time>
      </trkpt>
      <trkpt lat="44.53817" lon="3.91946">
        <ele>1007</ele>
        <time>2009-07-11T08:06:59Z</time>
      </trkpt>
      <trkpt lat="44.53843" lon="3.91928">
        <ele>1009</ele>
        <time>2009-07-11T08:07:11Z</time>
      </trkpt>
      <trkpt lat="44.53873" lon="3.91901">
        <ele>1010</ele>
        <time>2009-07-11T08:07:25Z</time>
      </trkpt>
      <trkpt lat="44.53919" lon="3.91853">
        <ele>1011</ele>
        <time>2009-07-11T08:07:46Z</time>
      </trkpt>
      <trkpt lat="44.53953" lon="3.91832">
        <ele>1011</ele>
        <time>2009-07-11T08:07:59Z</time>
      </trkpt>
      <trkpt lat="44.53987" lon="3.91815">
        <ele>1012</ele>
        <time>2009-07-11T08:08:11Z</time>
      </trkpt>
      <trkpt lat="44.54028" lon="3.91795">
        <ele>1011</ele>
        <time>2009-07-11T08:08:25Z</time>
      </trkpt>
      <trkpt lat="44.54039" lon="3.91792">
        <ele>1011</ele>
        <time>2009-07-11T08:08:36Z</time>
      </trkpt>
      <trkpt lat="44.54039" lon="3.9179">
        <ele>1010</ele>
        <time>2009-07-11T08:09:07Z</time>
      </trkpt>
      <trkpt lat="44.54055" lon="3.91781">
        <ele>1009</ele>
        <time>2009-07-11T08:09:49Z</time>
      </trkpt>
      <trkpt lat="44.54087" lon="3.91771">
        <ele>1007</ele>
        <time>2009-07-11T08:10:00Z</time>
      </trkpt>
      <trkpt lat="44.54095" lon="3.91768">
        <ele>1006</ele>
        <time>2009-07-11T08:10:02Z</time>
      </trkpt>
      <trkpt lat="44.5414" lon="3.9176">
        <ele>1005</ele>
        <time>2009-07-11T08:10:13Z</time>
      </trkpt>
      <trkpt lat="44.54153" lon="3.91756">
        <ele>1003</ele>
        <time>2009-07-11T08:10:16Z</time>
      </trkpt>
      <trkpt lat="44.54175" lon="3.91745">
        <ele>1003</ele>
        <time>2009-07-11T08:10:22Z</time>
      </trkpt>
      <trkpt lat="44.542" lon="3.91739">
        <ele>1004</ele>
        <time>2009-07-11T08:10:32Z</time>
      </trkpt>
      <trkpt lat="44.54203" lon="3.91736">
        <ele>1004</ele>
        <time>2009-07-11T08:10:51Z</time>
      </trkpt>
      <trkpt lat="44.54205" lon="3.91731">
        <ele>1004</ele>
        <time>2009-07-11T08:11:16Z</time>
      </trkpt>
      <trkpt lat="44.54227" lon="3.91724">
        <ele>1005</ele>
        <time>2009-07-11T08:11:27Z</time>
      </trkpt>
      <trkpt lat="44.54261" lon="3.91716">
        <ele>1007</ele>
        <time>2009-07-11T08:11:40Z</time>
      </trkpt>
      <trkpt lat="44.54284" lon="3.91707">
        <ele>1008</ele>
        <time>2009-07-11T08:11:51Z</time>
      </trkpt>
      <trkpt lat="44.54315" lon="3.91682">
        <ele>1008</ele>
        <time>2009-07-11T08:12:04Z</time>
      </trkpt>
      <trkpt lat="44.54353" lon="3.91647">
        <ele>1009</ele>
        <time>2009-07-11T08:12:21Z</time>
      </trkpt>
      <trkpt lat="44.54384" lon="3.91605">
        <ele>1007</ele>
        <time>2009-07-11T08:12:34Z</time>
      </trkpt>
      <trkpt lat="44.54399" lon="3.91586">
        <ele>1006</ele>
        <time>2009-07-11T08:12:39Z</time>
      </trkpt>
      <trkpt lat="44.54409" lon="3.91566">
        <ele>1005</ele>
        <time>2009-07-11T08:12:43Z</time>
      </trkpt>
      <trkpt lat="44.54445" lon="3.91489">
        <ele>1002</ele>
        <time>2009-07-11T08:12:56Z</time>
      </trkpt>
      <trkpt lat="44.54463" lon="3.91455">
        <ele>1001</ele>
        <time>2009-07-11T08:13:07Z</time>
      </trkpt>
      <trkpt lat="44.545" lon="3.91419">
        <ele>1001</ele>
        <time>2009-07-11T08:13:21Z</time>
      </trkpt>
      <trkpt lat="44.5455" lon="3.91382">
        <ele>1003</ele>
        <time>2009-07-11T08:13:38Z</time>
      </trkpt>
      <trkpt lat="44.54556" lon="3.91378">
        <ele>1004</ele>
        <time>2009-07-11T08:13:40Z</time>
      </trkpt>
      <trkpt lat="44.54598" lon="3.91355">
        <ele>1004</ele>
        <time>2009-07-11T08:13:54Z</time>
      </trkpt>
      <trkpt lat="44.54643" lon="3.91331">
        <ele>1006</ele>
        <time>2009-07-11T08:14:11Z</time>
      </trkpt>
      <trkpt lat="44.5469" lon="3.91304">
        <ele>1008</ele>
        <time>2009-07-11T08:14:30Z</time>
      </trkpt>
      <trkpt lat="44.54734" lon="3.9127">
        <ele>1008</ele>
        <time>2009-07-11T08:14:49Z</time>
      </trkpt>
      <trkpt lat="44.54738" lon="3.91266">
        <ele>1011</ele>
        <time>2009-07-11T08:14:51Z</time>
      </trkpt>
      <trkpt lat="44.54802" lon="3.91213">
        <ele>1013</ele>
        <time>2009-07-11T08:15:16Z</time>
      </trkpt>
      <trkpt lat="44.54856" lon="3.91171">
        <ele>1014</ele>
        <time>2009-07-11T08:15:34Z</time>
      </trkpt>
      <trkpt lat="44.54892" lon="3.91144">
        <ele>1017</ele>
        <time>2009-07-11T08:15:46Z</time>
      </trkpt>
      <trkpt lat="44.54916" lon="3.91129">
        <ele>1018</ele>
        <time>2009-07-11T08:15:54Z</time>
      </trkpt>
      <trkpt lat="44.54984" lon="3.91102">
        <ele>1020</ele>
        <time>2009-07-11T08:16:16Z</time>
      </trkpt>
      <trkpt lat="44.54992" lon="3.91099">
        <ele>1021</ele>
        <time>2009-07-11T08:16:30Z</time>
      </trkpt>
      <trkpt lat="44.54991" lon="3.91096">
        <ele>1021</ele>
        <time>2009-07-11T08:16:39Z</time>
      </trkpt>
      <trkpt lat="44.54992" lon="3.91092">
        <ele>1023</ele>
        <time>2009-07-11T08:16:42Z</time>
      </trkpt>
      <trkpt lat="44.54987" lon="3.91091">
        <ele>1022</ele>
        <time>2009-07-11T08:16:44Z</time>
      </trkpt>
      <trkpt lat="44.54981" lon="3.91093">
        <ele>1021</ele>
        <time>2009-07-11T08:16:46Z</time>
      </trkpt>
      <trkpt lat="44.54943" lon="3.91108">
        <ele>1019</ele>
        <time>2009-07-11T08:16:59Z</time>
      </trkpt>
      <trkpt lat="44.54942" lon="3.91109">
        <ele>1019</ele>
        <time>2009-07-11T08:17:00Z</time>
      </trkpt>
      <trkpt lat="44.54945" lon="3.91098">
        <ele>1019</ele>
        <time>2009-07-11T08:17:08Z</time>
      </trkpt>
      <trkpt lat="44.54951" lon="3.91097">
        <ele>1020</ele>
        <time>2009-07-11T08:17:11Z</time>
      </trkpt>
      <trkpt lat="44.54974" lon="3.91082">
        <ele>1023</ele>
        <time>2009-07-11T08:17:24Z</time>
      </trkpt>
      <trkpt lat="44.54999" lon="3.91067">
        <ele>1025</ele>
        <time>2009-07-11T08:17:40Z</time>
      </trkpt>
      <trkpt lat="44.55005" lon="3.91063">
        <ele>1027</ele>
        <time>2009-07-11T08:17:44Z</time>
      </trkpt>
      <trkpt lat="44.55031" lon="3.91051">
        <ele>1030</ele>
        <time>2009-07-11T08:18:00Z</time>
      </trkpt>
      <trkpt lat="44.55047" lon="3.91041">
        <ele>1033</ele>
        <time>2009-07-11T08:18:10Z</time>
      </trkpt>
      <trkpt lat="44.55075" lon="3.91022">
        <ele>1035</ele>
        <time>2009-07-11T08:18:29Z</time>
      </trkpt>
      <trkpt lat="44.55079" lon="3.91019">
        <ele>1038</ele>
        <time>2009-07-11T08:18:32Z</time>
      </trkpt>
      <trkpt lat="44.55082" lon="3.91017">
        <ele>1039</ele>
        <time>2009-07-11T08:18:34Z</time>
      </trkpt>
      <trkpt lat="44.55107" lon="3.91001">
        <ele>1042</ele>
        <time>2009-07-11T08:18:51Z</time>
      </trkpt>
      <trkpt lat="44.55129" lon="3.90987">
        <ele>1046</ele>
        <time>2009-07-11T08:19:06Z</time>
      </trkpt>
      <trkpt lat="44.55144" lon="3.90975">
        <ele>1049</ele>
        <time>2009-07-11T08:19:17Z</time>
      </trkpt>
      <trkpt lat="44.55163" lon="3.90962">
        <ele>1052</ele>
        <time>2009-07-11T08:19:30Z</time>
      </trkpt>
      <trkpt lat="44.55188" lon="3.90945">
        <ele>1054</ele>
        <time>2009-07-11T08:19:47Z</time>
      </trkpt>
      <trkpt lat="44.55212" lon="3.90926">
        <ele>1056</ele>
        <time>2009-07-11T08:20:04Z</time>
      </trkpt>
      <trkpt lat="44.55227" lon="3.90915">
        <ele>1059</ele>
        <time>2009-07-11T08:20:14Z</time>
      </trkpt>
      <trkpt lat="44.55245" lon="3.90903">
        <ele>1063</ele>
        <time>2009-07-11T08:20:27Z</time>
      </trkpt>
      <trkpt lat="44.55263" lon="3.90888">
        <ele>1066</ele>
        <time>2009-07-11T08:20:40Z</time>
      </trkpt>
      <trkpt lat="44.55264" lon="3.90887">
        <ele>1067</ele>
        <time>2009-07-11T08:20:41Z</time>
      </trkpt>
      <trkpt lat="44.55286" lon="3.90874">
        <ele>1070</ele>
        <time>2009-07-11T08:20:55Z</time>
      </trkpt>
      <trkpt lat="44.55287" lon="3.90874">
        <ele>1070</ele>
        <time>2009-07-11T08:20:56Z</time>
      </trkpt>
      <trkpt lat="44.55318" lon="3.90855">
        <ele>1073</ele>
        <time>2009-07-11T08:21:16Z</time>
      </trkpt>
      <trkpt lat="44.5534" lon="3.9085">
        <ele>1074</ele>
        <time>2009-07-11T08:21:31Z</time>
      </trkpt>
      <trkpt lat="44.5537" lon="3.9087">
        <ele>1076</ele>
        <time>2009-07-11T08:21:47Z</time>
      </trkpt>
      <trkpt lat="44.5539" lon="3.90894">
        <ele>1079</ele>
        <time>2009-07-11T08:22:00Z</time>
      </trkpt>
      <trkpt lat="44.55411" lon="3.90922">
        <ele>1082</ele>
        <time>2009-07-11T08:22:14Z</time>
      </trkpt>
      <trkpt lat="44.55413" lon="3.90927">
        <ele>1083</ele>
        <time>2009-07-11T08:22:16Z</time>
      </trkpt>
      <trkpt lat="44.55432" lon="3.90953">
        <ele>1083</ele>
        <time>2009-07-11T08:22:30Z</time>
      </trkpt>
      <trkpt lat="44.55447" lon="3.9098">
        <ele>1084</ele>
        <time>2009-07-11T08:22:43Z</time>
      </trkpt>
      <trkpt lat="44.55448" lon="3.90989">
        <ele>1085</ele>
        <time>2009-07-11T08:22:47Z</time>
      </trkpt>
      <trkpt lat="44.55442" lon="3.91017">
        <ele>1088</ele>
        <time>2009-07-11T08:22:58Z</time>
      </trkpt>
      <trkpt lat="44.55445" lon="3.91028">
        <ele>1088</ele>
        <time>2009-07-11T08:23:02Z</time>
      </trkpt>
      <trkpt lat="44.55445" lon="3.91033">
        <ele>1088</ele>
        <time>2009-07-11T08:23:04Z</time>
      </trkpt>
      <trkpt lat="44.55444" lon="3.91055">
        <ele>1090</ele>
        <time>2009-07-11T08:23:13Z</time>
      </trkpt>
      <trkpt lat="44.5544" lon="3.91064">
        <ele>1090</ele>
        <time>2009-07-11T08:23:23Z</time>
      </trkpt>
      <trkpt lat="44.55439" lon="3.91085">
        <ele>1094</ele>
        <time>2009-07-11T08:23:34Z</time>
      </trkpt>
      <trkpt lat="44.55439" lon="3.91087">
        <ele>1093</ele>
        <time>2009-07-11T08:23:35Z</time>
      </trkpt>
      <trkpt lat="44.55441" lon="3.91123">
        <ele>1095</ele>
        <time>2009-07-11T08:23:50Z</time>
      </trkpt>
      <trkpt lat="44.55448" lon="3.91143">
        <ele>1097</ele>
        <time>2009-07-11T08:24:00Z</time>
      </trkpt>
      <trkpt lat="44.55452" lon="3.91146">
        <ele>1098</ele>
        <time>2009-07-11T08:24:03Z</time>
      </trkpt>
      <trkpt lat="44.55475" lon="3.91149">
        <ele>1099</ele>
        <time>2009-07-11T08:24:16Z</time>
      </trkpt>
      <trkpt lat="44.55502" lon="3.9113">
        <ele>1102</ele>
        <time>2009-07-11T08:24:32Z</time>
      </trkpt>
      <trkpt lat="44.55528" lon="3.91105">
        <ele>1105</ele>
        <time>2009-07-11T08:24:49Z</time>
      </trkpt>
      <trkpt lat="44.55547" lon="3.91088">
        <ele>1106</ele>
        <time>2009-07-11T08:25:03Z</time>
      </trkpt>
      <trkpt lat="44.55546" lon="3.91088">
        <ele>1104</ele>
        <time>2009-07-11T08:25:27Z</time>
      </trkpt>
      <trkpt lat="44.55551" lon="3.91088">
        <ele>1104</ele>
        <time>2009-07-11T08:25:46Z</time>
      </trkpt>
      <trkpt lat="44.55554" lon="3.91084">
        <ele>1105</ele>
        <time>2009-07-11T08:26:22Z</time>
      </trkpt>
      <trkpt lat="44.55553" lon="3.91085">
        <ele>1106</ele>
        <time>2009-07-11T08:27:17Z</time>
      </trkpt>
      <trkpt lat="44.55552" lon="3.91083">
        <ele>1106</ele>
        <time>2009-07-11T08:30:01Z</time>
      </trkpt>
      <trkpt lat="44.55553" lon="3.91081">
        <ele>1105</ele>
        <time>2009-07-11T08:31:19Z</time>
      </trkpt>
      <trkpt lat="44.55554" lon="3.9108">
        <ele>1105</ele>
        <time>2009-07-11T08:31:45Z</time>
      </trkpt>
      <trkpt lat="44.5557" lon="3.91068">
        <ele>1106</ele>
        <time>2009-07-11T08:31:58Z</time>
      </trkpt>
      <trkpt lat="44.55595" lon="3.9105">
        <ele>1108</ele>
        <time>2009-07-11T08:32:11Z</time>
      </trkpt>
      <trkpt lat="44.55618" lon="3.91024">
        <ele>1109</ele>
        <time>2009-07-11T08:32:24Z</time>
      </trkpt>
      <trkpt lat="44.55635" lon="3.90991">
        <ele>1110</ele>
        <time>2009-07-11T08:32:38Z</time>
      </trkpt>
      <trkpt lat="44.55659" lon="3.90982">
        <ele>1112</ele>
        <time>2009-07-11T08:32:54Z</time>
      </trkpt>
      <trkpt lat="44.55663" lon="3.90979">
        <ele>1114</ele>
        <time>2009-07-11T08:32:57Z</time>
      </trkpt>
      <trkpt lat="44.55681" lon="3.9096">
        <ele>1116</ele>
        <time>2009-07-11T08:33:12Z</time>
      </trkpt>
      <trkpt lat="44.55685" lon="3.90956">
        <ele>1118</ele>
        <time>2009-07-11T08:33:15Z</time>
      </trkpt>
      <trkpt lat="44.557" lon="3.90941">
        <ele>1119</ele>
        <time>2009-07-11T08:33:28Z</time>
      </trkpt>
      <trkpt lat="44.55712" lon="3.9093">
        <ele>1121</ele>
        <time>2009-07-11T08:33:39Z</time>
      </trkpt>
      <trkpt lat="44.55728" lon="3.90908">
        <ele>1123</ele>
        <time>2009-07-11T08:33:55Z</time>
      </trkpt>
      <trkpt lat="44.55751" lon="3.90883">
        <ele>1125</ele>
        <time>2009-07-11T08:34:16Z</time>
      </trkpt>
      <trkpt lat="44.55754" lon="3.90879">
        <ele>1127</ele>
        <time>2009-07-11T08:34:19Z</time>
      </trkpt>
      <trkpt lat="44.5577" lon="3.90849">
        <ele>1129</ele>
        <time>2009-07-11T08:34:37Z</time>
      </trkpt>
      <trkpt lat="44.55783" lon="3.90832">
        <ele>1131</ele>
        <time>2009-07-11T08:34:49Z</time>
      </trkpt>
      <trkpt lat="44.55802" lon="3.908">
        <ele>1133</ele>
        <time>2009-07-11T08:35:05Z</time>
      </trkpt>
      <trkpt lat="44.55817" lon="3.90776">
        <ele>1136</ele>
        <time>2009-07-11T08:35:17Z</time>
      </trkpt>
      <trkpt lat="44.55839" lon="3.90746">
        <ele>1138</ele>
        <time>2009-07-11T08:35:34Z</time>
      </trkpt>
      <trkpt lat="44.55856" lon="3.90727">
        <ele>1139</ele>
        <time>2009-07-11T08:35:49Z</time>
      </trkpt>
      <trkpt lat="44.55858" lon="3.90725">
        <ele>1139</ele>
        <time>2009-07-11T08:35:51Z</time>
      </trkpt>
      <trkpt lat="44.55889" lon="3.90716">
        <ele>1140</ele>
        <time>2009-07-11T08:36:06Z</time>
      </trkpt>
      <trkpt lat="44.55931" lon="3.90721">
        <ele>1138</ele>
        <time>2009-07-11T08:36:19Z</time>
      </trkpt>
      <trkpt lat="44.5598" lon="3.90723">
        <ele>1134</ele>
        <time>2009-07-11T08:36:29Z</time>
      </trkpt>
      <trkpt lat="44.56015" lon="3.9072">
        <ele>1133</ele>
        <time>2009-07-11T08:36:37Z</time>
      </trkpt>
      <trkpt lat="44.56041" lon="3.90724">
        <ele>1131</ele>
        <time>2009-07-11T08:36:43Z</time>
      </trkpt>
      <trkpt lat="44.56065" lon="3.90727">
        <ele>1132</ele>
        <time>2009-07-11T08:36:50Z</time>
      </trkpt>
      <trkpt lat="44.56081" lon="3.90724">
        <ele>1133</ele>
        <time>2009-07-11T08:37:01Z</time>
      </trkpt>
      <trkpt lat="44.56087" lon="3.90725">
        <ele>1132</ele>
        <time>2009-07-11T08:37:13Z</time>
      </trkpt>
      <trkpt lat="44.56086" lon="3.90725">
        <ele>1132</ele>
        <time>2009-07-11T08:37:56Z</time>
      </trkpt>
      <trkpt lat="44.56087" lon="3.90724">
        <ele>1132</ele>
        <time>2009-07-11T08:41:08Z</time>
      </trkpt>
      <trkpt lat="44.56086" lon="3.90726">
        <ele>1133</ele>
        <time>2009-07-11T08:41:44Z</time>
      </trkpt>
      <trkpt lat="44.5609" lon="3.90729">
        <ele>1133</ele>
        <time>2009-07-11T08:41:47Z</time>
      </trkpt>
      <trkpt lat="44.56137" lon="3.9073">
        <ele>1132</ele>
        <time>2009-07-11T08:42:03Z</time>
      </trkpt>
      <trkpt lat="44.5621" lon="3.90739">
        <ele>1130</ele>
        <time>2009-07-11T08:42:22Z</time>
      </trkpt>
      <trkpt lat="44.56227" lon="3.90743">
        <ele>1130</ele>
        <time>2009-07-11T08:42:26Z</time>
      </trkpt>
      <trkpt lat="44.56321" lon="3.90746">
        <ele>1128</ele>
        <time>2009-07-11T08:42:44Z</time>
      </trkpt>
      <trkpt lat="44.56356" lon="3.90747">
        <ele>1126</ele>
        <time>2009-07-11T08:42:50Z</time>
      </trkpt>
      <trkpt lat="44.56373" lon="3.9075">
        <ele>1125</ele>
        <time>2009-07-11T08:42:53Z</time>
      </trkpt>
      <trkpt lat="44.56384" lon="3.90754">
        <ele>1124</ele>
        <time>2009-07-11T08:42:55Z</time>
      </trkpt>
      <trkpt lat="44.56457" lon="3.90777">
        <ele>1121</ele>
        <time>2009-07-11T08:43:07Z</time>
      </trkpt>
      <trkpt lat="44.56479" lon="3.90782">
        <ele>1116</ele>
        <time>2009-07-11T08:43:10Z</time>
      </trkpt>
      <trkpt lat="44.56486" lon="3.90782">
        <ele>1117</ele>
        <time>2009-07-11T08:43:11Z</time>
      </trkpt>
      <trkpt lat="44.56508" lon="3.90782">
        <ele>1119</ele>
        <time>2009-07-11T08:43:14Z</time>
      </trkpt>
      <trkpt lat="44.56528" lon="3.90782">
        <ele>1117</ele>
        <time>2009-07-11T08:43:17Z</time>
      </trkpt>
      <trkpt lat="44.5654" lon="3.90782">
        <ele>1119</ele>
        <time>2009-07-11T08:43:19Z</time>
      </trkpt>
      <trkpt lat="44.56554" lon="3.90782">
        <ele>1120</ele>
        <time>2009-07-11T08:43:22Z</time>
      </trkpt>
      <trkpt lat="44.56599" lon="3.90778">
        <ele>1123</ele>
        <time>2009-07-11T08:43:35Z</time>
      </trkpt>
      <trkpt lat="44.56643" lon="3.90754">
        <ele>1124</ele>
        <time>2009-07-11T08:43:50Z</time>
      </trkpt>
      <trkpt lat="44.5668" lon="3.90708">
        <ele>1124</ele>
        <time>2009-07-11T08:44:05Z</time>
      </trkpt>
      <trkpt lat="44.56721" lon="3.90683">
        <ele>1122</ele>
        <time>2009-07-11T08:44:16Z</time>
      </trkpt>
      <trkpt lat="44.56781" lon="3.90662">
        <ele>1122</ele>
        <time>2009-07-11T08:44:31Z</time>
      </trkpt>
      <trkpt lat="44.56799" lon="3.90656">
        <ele>1122</ele>
        <time>2009-07-11T08:44:37Z</time>
      </trkpt>
      <trkpt lat="44.56806" lon="3.9066">
        <ele>1124</ele>
        <time>2009-07-11T08:44:41Z</time>
      </trkpt>
      <trkpt lat="44.56818" lon="3.90665">
        <ele>1122</ele>
        <time>2009-07-11T08:44:47Z</time>
      </trkpt>
      <trkpt lat="44.56839" lon="3.9066">
        <ele>1123</ele>
        <time>2009-07-11T08:44:58Z</time>
      </trkpt>
      <trkpt lat="44.56853" lon="3.90654">
        <ele>1122</ele>
        <time>2009-07-11T08:45:06Z</time>
      </trkpt>
      <trkpt lat="44.56889" lon="3.90634">
        <ele>1122</ele>
        <time>2009-07-11T08:45:19Z</time>
      </trkpt>
      <trkpt lat="44.5692" lon="3.90595">
        <ele>1121</ele>
        <time>2009-07-11T08:45:32Z</time>
      </trkpt>
      <trkpt lat="44.5692" lon="3.90593">
        <ele>1122</ele>
        <time>2009-07-11T08:45:43Z</time>
      </trkpt>
      <trkpt lat="44.56919" lon="3.90592">
        <ele>1121</ele>
        <time>2009-07-11T08:45:45Z</time>
      </trkpt>
      <trkpt lat="44.56919" lon="3.90589">
        <ele>1122</ele>
        <time>2009-07-11T08:45:49Z</time>
      </trkpt>
      <trkpt lat="44.5693" lon="3.90576">
        <ele>1120</ele>
        <time>2009-07-11T08:45:56Z</time>
      </trkpt>
      <trkpt lat="44.56933" lon="3.90574">
        <ele>1120</ele>
        <time>2009-07-11T08:45:57Z</time>
      </trkpt>
      <trkpt lat="44.5695" lon="3.9056">
        <ele>1121</ele>
        <time>2009-07-11T08:46:02Z</time>
      </trkpt>
      <trkpt lat="44.56981" lon="3.90536">
        <ele>1116</ele>
        <time>2009-07-11T08:46:10Z</time>
      </trkpt>
      <trkpt lat="44.56985" lon="3.90533">
        <ele>1116</ele>
        <time>2009-07-11T08:46:11Z</time>
      </trkpt>
      <trkpt lat="44.57073" lon="3.90484">
        <ele>1112</ele>
        <time>2009-07-11T08:46:27Z</time>
      </trkpt>
      <trkpt lat="44.57087" lon="3.90479">
        <ele>1110</ele>
        <time>2009-07-11T08:46:29Z</time>
      </trkpt>
      <trkpt lat="44.57116" lon="3.9047">
        <ele>1107</ele>
        <time>2009-07-11T08:46:33Z</time>
      </trkpt>
      <trkpt lat="44.57164" lon="3.90457">
        <ele>1105</ele>
        <time>2009-07-11T08:46:39Z</time>
      </trkpt>
      <trkpt lat="44.5718" lon="3.90453">
        <ele>1102</ele>
        <time>2009-07-11T08:46:41Z</time>
      </trkpt>
      <trkpt lat="44.57197" lon="3.90449">
        <ele>1101</ele>
        <time>2009-07-11T08:46:43Z</time>
      </trkpt>
      <trkpt lat="44.57254" lon="3.90435">
        <ele>1098</ele>
        <time>2009-07-11T08:46:50Z</time>
      </trkpt>
      <trkpt lat="44.57262" lon="3.90433">
        <ele>1098</ele>
        <time>2009-07-11T08:46:51Z</time>
      </trkpt>
      <trkpt lat="44.57388" lon="3.90401">
        <ele>1099</ele>
        <time>2009-07-11T08:47:08Z</time>
      </trkpt>
      <trkpt lat="44.57402" lon="3.90398">
        <ele>1096</ele>
        <time>2009-07-11T08:47:10Z</time>
      </trkpt>
      <trkpt lat="44.57408" lon="3.90396">
        <ele>1096</ele>
        <time>2009-07-11T08:47:11Z</time>
      </trkpt>
      <trkpt lat="44.57512" lon="3.9037">
        <ele>1097</ele>
        <time>2009-07-11T08:47:29Z</time>
      </trkpt>
      <trkpt lat="44.57513" lon="3.90369">
        <ele>1097</ele>
        <time>2009-07-11T08:47:38Z</time>
      </trkpt>
      <trkpt lat="44.57513" lon="3.90369">
        <ele>1098</ele>
        <time>2009-07-11T08:48:14Z</time>
      </trkpt>
      <trkpt lat="44.57522" lon="3.90365">
        <ele>1096</ele>
        <time>2009-07-11T08:48:22Z</time>
      </trkpt>
      <trkpt lat="44.57527" lon="3.90364">
        <ele>1100</ele>
        <time>2009-07-11T08:48:24Z</time>
      </trkpt>
      <trkpt lat="44.57539" lon="3.90361">
        <ele>1097</ele>
        <time>2009-07-11T08:48:27Z</time>
      </trkpt>
      <trkpt lat="44.57592" lon="3.90348">
        <ele>1099</ele>
        <time>2009-07-11T08:48:38Z</time>
      </trkpt>
      <trkpt lat="44.57616" lon="3.90342">
        <ele>1096</ele>
        <time>2009-07-11T08:48:43Z</time>
      </trkpt>
      <trkpt lat="44.57635" lon="3.90337">
        <ele>1097</ele>
        <time>2009-07-11T08:48:47Z</time>
      </trkpt>
      <trkpt lat="44.57732" lon="3.90313">
        <ele>1100</ele>
        <time>2009-07-11T08:49:10Z</time>
      </trkpt>
      <trkpt lat="44.57795" lon="3.90303">
        <ele>1103</ele>
        <time>2009-07-11T08:49:25Z</time>
      </trkpt>
      <trkpt lat="44.57862" lon="3.90301">
        <ele>1107</ele>
        <time>2009-07-11T08:49:41Z</time>
      </trkpt>
      <trkpt lat="44.57867" lon="3.90301">
        <ele>1106</ele>
        <time>2009-07-11T08:49:42Z</time>
      </trkpt>
      <trkpt lat="44.57916" lon="3.90304">
        <ele>1104</ele>
        <time>2009-07-11T08:49:53Z</time>
      </trkpt>
      <trkpt lat="44.57933" lon="3.90306">
        <ele>1107</ele>
        <time>2009-07-11T08:49:57Z</time>
      </trkpt>
      <trkpt lat="44.58012" lon="3.90324">
        <ele>1107</ele>
        <time>2009-07-11T08:50:14Z</time>
      </trkpt>
      <trkpt lat="44.58118" lon="3.90361">
        <ele>1106</ele>
        <time>2009-07-11T08:50:35Z</time>
      </trkpt>
      <trkpt lat="44.5817" lon="3.90386">
        <ele>1101</ele>
        <time>2009-07-11T08:50:44Z</time>
      </trkpt>
      <trkpt lat="44.58176" lon="3.90389">
        <ele>1102</ele>
        <time>2009-07-11T08:50:45Z</time>
      </trkpt>
      <trkpt lat="44.58255" lon="3.9044">
        <ele>1099</ele>
        <time>2009-07-11T08:50:58Z</time>
      </trkpt>
      <trkpt lat="44.58282" lon="3.90465">
        <ele>1099</ele>
        <time>2009-07-11T08:51:04Z</time>
      </trkpt>
      <trkpt lat="44.58284" lon="3.90467">
        <ele>1099</ele>
        <time>2009-07-11T08:51:13Z</time>
      </trkpt>
      <trkpt lat="44.58283" lon="3.90461">
        <ele>1098</ele>
        <time>2009-07-11T08:51:51Z</time>
      </trkpt>
      <trkpt lat="44.58297" lon="3.90454">
        <ele>1098</ele>
        <time>2009-07-11T08:51:58Z</time>
      </trkpt>
      <trkpt lat="44.58314" lon="3.90466">
        <ele>1098</ele>
        <time>2009-07-11T08:52:07Z</time>
      </trkpt>
      <trkpt lat="44.58319" lon="3.90472">
        <ele>1097</ele>
        <time>2009-07-11T08:52:25Z</time>
      </trkpt>
      <trkpt lat="44.58356" lon="3.9051">
        <ele>1095</ele>
        <time>2009-07-11T08:52:38Z</time>
      </trkpt>
      <trkpt lat="44.58364" lon="3.90518">
        <ele>1095</ele>
        <time>2009-07-11T08:52:40Z</time>
      </trkpt>
      <trkpt lat="44.58427" lon="3.90589">
        <ele>1092</ele>
        <time>2009-07-11T08:52:54Z</time>
      </trkpt>
      <trkpt lat="44.58449" lon="3.90616">
        <ele>1088</ele>
        <time>2009-07-11T08:52:58Z</time>
      </trkpt>
      <trkpt lat="44.58468" lon="3.90638">
        <ele>1086</ele>
        <time>2009-07-11T08:53:01Z</time>
      </trkpt>
      <trkpt lat="44.58482" lon="3.9065">
        <ele>1085</ele>
        <time>2009-07-11T08:53:03Z</time>
      </trkpt>
      <trkpt lat="44.58514" lon="3.90668">
        <ele>1082</ele>
        <time>2009-07-11T08:53:07Z</time>
      </trkpt>
      <trkpt lat="44.58557" lon="3.90692">
        <ele>1078</ele>
        <time>2009-07-11T08:53:12Z</time>
      </trkpt>
      <trkpt lat="44.58593" lon="3.90711">
        <ele>1075</ele>
        <time>2009-07-11T08:53:16Z</time>
      </trkpt>
      <trkpt lat="44.58619" lon="3.90724">
        <ele>1072</ele>
        <time>2009-07-11T08:53:19Z</time>
      </trkpt>
      <trkpt lat="44.58626" lon="3.90727">
        <ele>1072</ele>
        <time>2009-07-11T08:53:20Z</time>
      </trkpt>
      <trkpt lat="44.5864" lon="3.90731">
        <ele>1071</ele>
        <time>2009-07-11T08:53:22Z</time>
      </trkpt>
      <trkpt lat="44.58667" lon="3.90743">
        <ele>1066</ele>
        <time>2009-07-11T08:53:26Z</time>
      </trkpt>
      <trkpt lat="44.5872" lon="3.90722">
        <ele>1065</ele>
        <time>2009-07-11T08:53:33Z</time>
      </trkpt>
      <trkpt lat="44.58744" lon="3.907">
        <ele>1065</ele>
        <time>2009-07-11T08:53:39Z</time>
      </trkpt>
      <trkpt lat="44.58772" lon="3.90678">
        <ele>1059</ele>
        <time>2009-07-11T08:53:44Z</time>
      </trkpt>
      <trkpt lat="44.58784" lon="3.90668">
        <ele>1058</ele>
        <time>2009-07-11T08:53:46Z</time>
      </trkpt>
      <trkpt lat="44.58815" lon="3.90654">
        <ele>1054</ele>
        <time>2009-07-11T08:53:50Z</time>
      </trkpt>
      <trkpt lat="44.58854" lon="3.90646">
        <ele>1051</ele>
        <time>2009-07-11T08:53:54Z</time>
      </trkpt>
      <trkpt lat="44.58887" lon="3.90639">
        <ele>1045</ele>
        <time>2009-07-11T08:53:57Z</time>
      </trkpt>
      <trkpt lat="44.5891" lon="3.90631">
        <ele>1044</ele>
        <time>2009-07-11T08:53:59Z</time>
      </trkpt>
      <trkpt lat="44.58954" lon="3.90612">
        <ele>1041</ele>
        <time>2009-07-11T08:54:03Z</time>
      </trkpt>
      <trkpt lat="44.58992" lon="3.90595">
        <ele>1035</ele>
        <time>2009-07-11T08:54:07Z</time>
      </trkpt>
      <trkpt lat="44.59002" lon="3.90591">
        <ele>1037</ele>
        <time>2009-07-11T08:54:08Z</time>
      </trkpt>
      <trkpt lat="44.59022" lon="3.90582">
        <ele>1033</ele>
        <time>2009-07-11T08:54:10Z</time>
      </trkpt>
      <trkpt lat="44.59051" lon="3.90565">
        <ele>1030</ele>
        <time>2009-07-11T08:54:13Z</time>
      </trkpt>
      <trkpt lat="44.59084" lon="3.9055">
        <ele>1028</ele>
        <time>2009-07-11T08:54:17Z</time>
      </trkpt>
      <trkpt lat="44.59109" lon="3.90546">
        <ele>1023</ele>
        <time>2009-07-11T08:54:20Z</time>
      </trkpt>
      <trkpt lat="44.59117" lon="3.90546">
        <ele>1023</ele>
        <time>2009-07-11T08:54:21Z</time>
      </trkpt>
      <trkpt lat="44.59136" lon="3.90547">
        <ele>1027</ele>
        <time>2009-07-11T08:54:24Z</time>
      </trkpt>
      <trkpt lat="44.59144" lon="3.90549">
        <ele>1027</ele>
        <time>2009-07-11T08:54:26Z</time>
      </trkpt>
      <trkpt lat="44.59165" lon="3.90552">
        <ele>1025</ele>
        <time>2009-07-11T08:54:32Z</time>
      </trkpt>
      <trkpt lat="44.59181" lon="3.90557">
        <ele>1024</ele>
        <time>2009-07-11T08:54:36Z</time>
      </trkpt>
      <trkpt lat="44.5919" lon="3.90532">
        <ele>1024</ele>
        <time>2009-07-11T08:54:44Z</time>
      </trkpt>
      <trkpt lat="44.592" lon="3.90475">
        <ele>1025</ele>
        <time>2009-07-11T08:54:58Z</time>
      </trkpt>
      <trkpt lat="44.59225" lon="3.90443">
        <ele>1027</ele>
        <time>2009-07-11T08:55:10Z</time>
      </trkpt>
      <trkpt lat="44.5927" lon="3.90453">
        <ele>1029</ele>
        <time>2009-07-11T08:55:24Z</time>
      </trkpt>
      <trkpt lat="44.59289" lon="3.90461">
        <ele>1029</ele>
        <time>2009-07-11T08:55:36Z</time>
      </trkpt>
      <trkpt lat="44.5929" lon="3.90461">
        <ele>1030</ele>
        <time>2009-07-11T08:56:03Z</time>
      </trkpt>
      <trkpt lat="44.59289" lon="3.90459">
        <ele>1028</ele>
        <time>2009-07-11T08:57:03Z</time>
      </trkpt>
      <trkpt lat="44.59305" lon="3.90461">
        <ele>1029</ele>
        <time>2009-07-11T08:57:12Z</time>
      </trkpt>
      <trkpt lat="44.59325" lon="3.90465">
        <ele>1029</ele>
        <time>2009-07-11T08:57:26Z</time>
      </trkpt>
      <trkpt lat="44.59338" lon="3.90464">
        <ele>1029</ele>
        <time>2009-07-11T08:57:51Z</time>
      </trkpt>
      <trkpt lat="44.59362" lon="3.90446">
        <ele>1028</ele>
        <time>2009-07-11T08:58:02Z</time>
      </trkpt>
      <trkpt lat="44.59408" lon="3.9043">
        <ele>1029</ele>
        <time>2009-07-11T08:58:15Z</time>
      </trkpt>
      <trkpt lat="44.59424" lon="3.90428">
        <ele>1029</ele>
        <time>2009-07-11T08:58:21Z</time>
      </trkpt>
      <trkpt lat="44.59431" lon="3.9043">
        <ele>1029</ele>
        <time>2009-07-11T08:58:27Z</time>
      </trkpt>
      <trkpt lat="44.59442" lon="3.9042">
        <ele>1029</ele>
        <time>2009-07-11T08:58:42Z</time>
      </trkpt>
      <trkpt lat="44.59442" lon="3.90418">
        <ele>1029</ele>
        <time>2009-07-11T08:59:03Z</time>
      </trkpt>
      <trkpt lat="44.5943" lon="3.90388">
        <ele>1030</ele>
        <time>2009-07-11T08:59:14Z</time>
      </trkpt>
      <trkpt lat="44.594" lon="3.90375">
        <ele>1032</ele>
        <time>2009-07-11T08:59:29Z</time>
      </trkpt>
      <trkpt lat="44.59397" lon="3.90361">
        <ele>1034</ele>
        <time>2009-07-11T08:59:35Z</time>
      </trkpt>
      <trkpt lat="44.59397" lon="3.90329">
        <ele>1038</ele>
        <time>2009-07-11T08:59:51Z</time>
      </trkpt>
      <trkpt lat="44.59398" lon="3.90328">
        <ele>1038</ele>
        <time>2009-07-11T08:59:52Z</time>
      </trkpt>
      <trkpt lat="44.59426" lon="3.90313">
        <ele>1040</ele>
        <time>2009-07-11T09:00:09Z</time>
      </trkpt>
      <trkpt lat="44.59447" lon="3.90308">
        <ele>1043</ele>
        <time>2009-07-11T09:00:20Z</time>
      </trkpt>
      <trkpt lat="44.5948" lon="3.90299">
        <ele>1045</ele>
        <time>2009-07-11T09:00:39Z</time>
      </trkpt>
      <trkpt lat="44.59508" lon="3.90297">
        <ele>1047</ele>
        <time>2009-07-11T09:00:54Z</time>
      </trkpt>
      <trkpt lat="44.5952" lon="3.90297">
        <ele>1049</ele>
        <time>2009-07-11T09:01:00Z</time>
      </trkpt>
      <trkpt lat="44.59549" lon="3.90301">
        <ele>1049</ele>
        <time>2009-07-11T09:01:14Z</time>
      </trkpt>
      <trkpt lat="44.59576" lon="3.90302">
        <ele>1050</ele>
        <time>2009-07-11T09:01:29Z</time>
      </trkpt>
      <trkpt lat="44.59576" lon="3.90303">
        <ele>1049</ele>
        <time>2009-07-11T09:01:46Z</time>
      </trkpt>
      <trkpt lat="44.59575" lon="3.90303">
        <ele>1049</ele>
        <time>2009-07-11T09:01:49Z</time>
      </trkpt>
      <trkpt lat="44.5957" lon="3.90303">
        <ele>1049</ele>
        <time>2009-07-11T09:02:03Z</time>
      </trkpt>
      <trkpt lat="44.59571" lon="3.90305">
        <ele>1049</ele>
        <time>2009-07-11T09:02:19Z</time>
      </trkpt>
      <trkpt lat="44.59572" lon="3.90304">
        <ele>1045</ele>
        <time>2009-07-11T09:02:27Z</time>
      </trkpt>
      <trkpt lat="44.59572" lon="3.90303">
        <ele>1049</ele>
        <time>2009-07-11T09:02:28Z</time>
      </trkpt>
      <trkpt lat="44.59572" lon="3.90305">
        <ele>1052</ele>
        <time>2009-07-11T09:02:30Z</time>
      </trkpt>
      <trkpt lat="44.59571" lon="3.90307">
        <ele>1049</ele>
        <time>2009-07-11T09:02:35Z</time>
      </trkpt>
      <trkpt lat="44.59568" lon="3.90308">
        <ele>1048</ele>
        <time>2009-07-11T09:02:51Z</time>
      </trkpt>
      <trkpt lat="44.59569" lon="3.90306">
        <ele>1046</ele>
        <time>2009-07-11T09:03:44Z</time>
      </trkpt>
      <trkpt lat="44.59569" lon="3.90306">
        <ele>1051</ele>
        <time>2009-07-11T09:03:46Z</time>
      </trkpt>
      <trkpt lat="44.59569" lon="3.90306">
        <ele>1048</ele>
        <time>2009-07-11T09:03:47Z</time>
      </trkpt>
      <trkpt lat="44.59568" lon="3.90306">
        <ele>1051</ele>
        <time>2009-07-11T09:03:50Z</time>
      </trkpt>
      <trkpt lat="44.59568" lon="3.90306">
        <ele>1047</ele>
        <time>2009-07-11T09:03:53Z</time>
      </trkpt>
      <trkpt lat="44.59568" lon="3.90306">
        <ele>1050</ele>
        <time>2009-07-11T09:03:54Z</time>
      </trkpt>
      <trkpt lat="44.59568" lon="3.90306">
        <ele>1047</ele>
        <time>2009-07-11T09:03:55Z</time>
      </trkpt>
      <trkpt lat="44.59568" lon="3.90306">
        <ele>1050</ele>
        <time>2009-07-11T09:03:56Z</time>
      </trkpt>
      <trkpt lat="44.59568" lon="3.90306">
        <ele>1053</ele>
        <time>2009-07-11T09:04:05Z</time>
      </trkpt>
      <trkpt lat="44.59568" lon="3.90306">
        <ele>1049</ele>
        <time>2009-07-11T09:04:06Z</time>
      </trkpt>
      <trkpt lat="44.59567" lon="3.90306">
        <ele>1052</ele>
        <time>2009-07-11T09:04:21Z</time>
      </trkpt>
      <trkpt lat="44.59567" lon="3.90306">
        <ele>1049</ele>
        <time>2009-07-11T09:04:22Z</time>
      </trkpt>
      <trkpt lat="44.59567" lon="3.90304">
        <ele>1046</ele>
        <time>2009-07-11T09:04:44Z</time>
      </trkpt>
      <trkpt lat="44.59567" lon="3.90304">
        <ele>1050</ele>
        <time>2009-07-11T09:04:46Z</time>
      </trkpt>
      <trkpt lat="44.59568" lon="3.90306">
        <ele>1048</ele>
        <time>2009-07-11T09:05:34Z</time>
      </trkpt>
      <trkpt lat="44.59568" lon="3.90308">
        <ele>1049</ele>
        <time>2009-07-11T09:05:50Z</time>
      </trkpt>
      <trkpt lat="44.5957" lon="3.90309">
        <ele>1049</ele>
        <time>2009-07-11T09:06:15Z</time>
      </trkpt>
      <trkpt lat="44.59594" lon="3.90313">
        <ele>1049</ele>
        <time>2009-07-11T09:06:29Z</time>
      </trkpt>
      <trkpt lat="44.59636" lon="3.90311">
        <ele>1047</ele>
        <time>2009-07-11T09:06:44Z</time>
      </trkpt>
      <trkpt lat="44.59688" lon="3.90302">
        <ele>1046</ele>
        <time>2009-07-11T09:06:59Z</time>
      </trkpt>
      <trkpt lat="44.59719" lon="3.90296">
        <ele>1047</ele>
        <time>2009-07-11T09:07:07Z</time>
      </trkpt>
      <trkpt lat="44.59735" lon="3.90292">
        <ele>1048</ele>
        <time>2009-07-11T09:07:11Z</time>
      </trkpt>
      <trkpt lat="44.59801" lon="3.90293">
        <ele>1047</ele>
        <time>2009-07-11T09:07:28Z</time>
      </trkpt>
      <trkpt lat="44.59821" lon="3.90254">
        <ele>1047</ele>
        <time>2009-07-11T09:07:37Z</time>
      </trkpt>
      <trkpt lat="44.59838" lon="3.90218">
        <ele>1046</ele>
        <time>2009-07-11T09:07:45Z</time>
      </trkpt>
      <trkpt lat="44.59849" lon="3.90227">
        <ele>1046</ele>
        <time>2009-07-11T09:07:50Z</time>
      </trkpt>
      <trkpt lat="44.59852" lon="3.90254">
        <ele>1045</ele>
        <time>2009-07-11T09:07:55Z</time>
      </trkpt>
      <trkpt lat="44.59865" lon="3.90312">
        <ele>1045</ele>
        <time>2009-07-11T09:08:08Z</time>
      </trkpt>
      <trkpt lat="44.59863" lon="3.90313">
        <ele>1044</ele>
        <time>2009-07-11T09:08:29Z</time>
      </trkpt>
      <trkpt lat="44.5988" lon="3.90334">
        <ele>1044</ele>
        <time>2009-07-11T09:09:09Z</time>
      </trkpt>
      <trkpt lat="44.59892" lon="3.9034">
        <ele>1045</ele>
        <time>2009-07-11T09:09:12Z</time>
      </trkpt>
      <trkpt lat="44.59946" lon="3.90364">
        <ele>1045</ele>
        <time>2009-07-11T09:09:28Z</time>
      </trkpt>
      <trkpt lat="44.5995" lon="3.90367">
        <ele>1044</ele>
        <time>2009-07-11T09:10:12Z</time>
      </trkpt>
      <trkpt lat="44.59969" lon="3.90391">
        <ele>1041</ele>
        <time>2009-07-11T09:10:23Z</time>
      </trkpt>
      <trkpt lat="44.60003" lon="3.90421">
        <ele>1040</ele>
        <time>2009-07-11T09:10:32Z</time>
      </trkpt>
      <trkpt lat="44.60023" lon="3.9043">
        <ele>1039</ele>
        <time>2009-07-11T09:10:36Z</time>
      </trkpt>
      <trkpt lat="44.60065" lon="3.90454">
        <ele>1036</ele>
        <time>2009-07-11T09:10:44Z</time>
      </trkpt>
      <trkpt lat="44.6007" lon="3.90456">
        <ele>1036</ele>
        <time>2009-07-11T09:10:45Z</time>
      </trkpt>
      <trkpt lat="44.60089" lon="3.90459">
        <ele>1034</ele>
        <time>2009-07-11T09:10:48Z</time>
      </trkpt>
      <trkpt lat="44.60111" lon="3.9045">
        <ele>1035</ele>
        <time>2009-07-11T09:10:52Z</time>
      </trkpt>
      <trkpt lat="44.6012" lon="3.90441">
        <ele>1035</ele>
        <time>2009-07-11T09:10:54Z</time>
      </trkpt>
      <trkpt lat="44.60138" lon="3.90442">
        <ele>1034</ele>
        <time>2009-07-11T09:10:58Z</time>
      </trkpt>
      <trkpt lat="44.60175" lon="3.9046">
        <ele>1035</ele>
        <time>2009-07-11T09:11:07Z</time>
      </trkpt>
      <trkpt lat="44.60217" lon="3.90453">
        <ele>1033</ele>
        <time>2009-07-11T09:11:16Z</time>
      </trkpt>
      <trkpt lat="44.6025" lon="3.90451">
        <ele>1033</ele>
        <time>2009-07-11T09:11:23Z</time>
      </trkpt>
      <trkpt lat="44.60266" lon="3.90453">
        <ele>1032</ele>
        <time>2009-07-11T09:11:26Z</time>
      </trkpt>
      <trkpt lat="44.60283" lon="3.90451">
        <ele>1033</ele>
        <time>2009-07-11T09:11:29Z</time>
      </trkpt>
      <trkpt lat="44.60342" lon="3.90457">
        <ele>1031</ele>
        <time>2009-07-11T09:11:42Z</time>
      </trkpt>
      <trkpt lat="44.60347" lon="3.90458">
        <ele>1030</ele>
        <time>2009-07-11T09:11:43Z</time>
      </trkpt>
      <trkpt lat="44.60417" lon="3.90486">
        <ele>1028</ele>
        <time>2009-07-11T09:11:57Z</time>
      </trkpt>
      <trkpt lat="44.60442" lon="3.90495">
        <ele>1027</ele>
        <time>2009-07-11T09:12:02Z</time>
      </trkpt>
      <trkpt lat="44.60451" lon="3.90498">
        <ele>1028</ele>
        <time>2009-07-11T09:12:04Z</time>
      </trkpt>
      <trkpt lat="44.60472" lon="3.90505">
        <ele>1028</ele>
        <time>2009-07-11T09:12:08Z</time>
      </trkpt>
      <trkpt lat="44.6053" lon="3.90518">
        <ele>1025</ele>
        <time>2009-07-11T09:12:19Z</time>
      </trkpt>
      <trkpt lat="44.60562" lon="3.90522">
        <ele>1024</ele>
        <time>2009-07-11T09:12:25Z</time>
      </trkpt>
      <trkpt lat="44.60603" lon="3.90517">
        <ele>1023</ele>
        <time>2009-07-11T09:12:33Z</time>
      </trkpt>
      <trkpt lat="44.60622" lon="3.9051">
        <ele>1023</ele>
        <time>2009-07-11T09:12:37Z</time>
      </trkpt>
      <trkpt lat="44.60634" lon="3.90495">
        <ele>1023</ele>
        <time>2009-07-11T09:12:44Z</time>
      </trkpt>
      <trkpt lat="44.60634" lon="3.90494">
        <ele>1028</ele>
        <time>2009-07-11T09:12:57Z</time>
      </trkpt>
      <trkpt lat="44.60634" lon="3.90494">
        <ele>1025</ele>
        <time>2009-07-11T09:12:58Z</time>
      </trkpt>
      <trkpt lat="44.60637" lon="3.9049">
        <ele>1025</ele>
        <time>2009-07-11T09:13:15Z</time>
      </trkpt>
      <trkpt lat="44.60655" lon="3.90501">
        <ele>1022</ele>
        <time>2009-07-11T09:13:22Z</time>
      </trkpt>
      <trkpt lat="44.60665" lon="3.90513">
        <ele>1018</ele>
        <time>2009-07-11T09:13:27Z</time>
      </trkpt>
      <trkpt lat="44.60672" lon="3.90521">
        <ele>1017</ele>
        <time>2009-07-11T09:13:29Z</time>
      </trkpt>
      <trkpt lat="44.60684" lon="3.90536">
        <ele>1013</ele>
        <time>2009-07-11T09:13:32Z</time>
      </trkpt>
      <trkpt lat="44.60693" lon="3.90544">
        <ele>1013</ele>
        <time>2009-07-11T09:13:34Z</time>
      </trkpt>
      <trkpt lat="44.60696" lon="3.90547">
        <ele>1012</ele>
        <time>2009-07-11T09:13:35Z</time>
      </trkpt>
      <trkpt lat="44.60699" lon="3.90575">
        <ele>1014</ele>
        <time>2009-07-11T09:13:42Z</time>
      </trkpt>
      <trkpt lat="44.60707" lon="3.90584">
        <ele>1014</ele>
        <time>2009-07-11T09:13:47Z</time>
      </trkpt>
      <trkpt lat="44.6072" lon="3.90588">
        <ele>1012</ele>
        <time>2009-07-11T09:13:53Z</time>
      </trkpt>
      <trkpt lat="44.60738" lon="3.90616">
        <ele>1008</ele>
        <time>2009-07-11T09:13:59Z</time>
      </trkpt>
      <trkpt lat="44.60746" lon="3.90635">
        <ele>1007</ele>
        <time>2009-07-11T09:14:09Z</time>
      </trkpt>
      <trkpt lat="44.60746" lon="3.90635">
        <ele>1007</ele>
        <time>2009-07-11T09:14:16Z</time>
      </trkpt>
      <trkpt lat="44.60749" lon="3.90666">
        <ele>1007</ele>
        <time>2009-07-11T09:14:28Z</time>
      </trkpt>
      <trkpt lat="44.60749" lon="3.90667">
        <ele>1006</ele>
        <time>2009-07-11T09:14:38Z</time>
      </trkpt>
      <trkpt lat="44.60753" lon="3.90666">
        <ele>1005</ele>
        <time>2009-07-11T09:14:47Z</time>
      </trkpt>
      <trkpt lat="44.60756" lon="3.9066">
        <ele>1005</ele>
        <time>2009-07-11T09:14:50Z</time>
      </trkpt>
      <trkpt lat="44.60788" lon="3.90641">
        <ele>1005</ele>
        <time>2009-07-11T09:15:05Z</time>
      </trkpt>
      <trkpt lat="44.60798" lon="3.90641">
        <ele>1004</ele>
        <time>2009-07-11T09:15:09Z</time>
      </trkpt>
      <trkpt lat="44.60807" lon="3.90647">
        <ele>1007</ele>
        <time>2009-07-11T09:15:13Z</time>
      </trkpt>
      <trkpt lat="44.60834" lon="3.90674">
        <ele>1009</ele>
        <time>2009-07-11T09:15:31Z</time>
      </trkpt>
      <trkpt lat="44.60839" lon="3.90675">
        <ele>1011</ele>
        <time>2009-07-11T09:15:34Z</time>
      </trkpt>
      <trkpt lat="44.60845" lon="3.90674">
        <ele>1010</ele>
        <time>2009-07-11T09:15:46Z</time>
      </trkpt>
      <trkpt lat="44.60845" lon="3.90672">
        <ele>1010</ele>
        <time>2009-07-11T09:16:09Z</time>
      </trkpt>
      <trkpt lat="44.60844" lon="3.90673">
        <ele>1011</ele>
        <time>2009-07-11T09:16:36Z</time>
      </trkpt>
      <trkpt lat="44.60842" lon="3.90675">
        <ele>1012</ele>
        <time>2009-07-11T09:16:42Z</time>
      </trkpt>
      <trkpt lat="44.60838" lon="3.90676">
        <ele>1010</ele>
        <time>2009-07-11T09:16:45Z</time>
      </trkpt>
      <trkpt lat="44.60833" lon="3.90675">
        <ele>1010</ele>
        <time>2009-07-11T09:16:47Z</time>
      </trkpt>
      <trkpt lat="44.60825" lon="3.90665">
        <ele>1009</ele>
        <time>2009-07-11T09:16:52Z</time>
      </trkpt>
      <trkpt lat="44.60815" lon="3.90655">
        <ele>1007</ele>
        <time>2009-07-11T09:16:56Z</time>
      </trkpt>
      <trkpt lat="44.60806" lon="3.90642">
        <ele>1005</ele>
        <time>2009-07-11T09:16:59Z</time>
      </trkpt>
      <trkpt lat="44.60802" lon="3.90617">
        <ele>1007</ele>
        <time>2009-07-11T09:17:06Z</time>
      </trkpt>
      <trkpt lat="44.608" lon="3.90586">
        <ele>1010</ele>
        <time>2009-07-11T09:17:21Z</time>
      </trkpt>
      <trkpt lat="44.60801" lon="3.90587">
        <ele>1010</ele>
        <time>2009-07-11T09:17:32Z</time>
      </trkpt>
      <trkpt lat="44.60801" lon="3.90587">
        <ele>1010</ele>
        <time>2009-07-11T09:17:34Z</time>
      </trkpt>
      <trkpt lat="44.60802" lon="3.90606">
        <ele>1007</ele>
        <time>2009-07-11T09:17:39Z</time>
      </trkpt>
      <trkpt lat="44.60803" lon="3.90611">
        <ele>1008</ele>
        <time>2009-07-11T09:17:40Z</time>
      </trkpt>
      <trkpt lat="44.60804" lon="3.9063">
        <ele>1007</ele>
        <time>2009-07-11T09:17:43Z</time>
      </trkpt>
      <trkpt lat="44.60811" lon="3.90648">
        <ele>1004</ele>
        <time>2009-07-11T09:17:47Z</time>
      </trkpt>
      <trkpt lat="44.60829" lon="3.90668">
        <ele>1009</ele>
        <time>2009-07-11T09:17:57Z</time>
      </trkpt>
      <trkpt lat="44.60838" lon="3.90675">
        <ele>1010</ele>
        <time>2009-07-11T09:18:03Z</time>
      </trkpt>
      <trkpt lat="44.60847" lon="3.90672">
        <ele>1010</ele>
        <time>2009-07-11T09:18:16Z</time>
      </trkpt>
      <trkpt lat="44.60848" lon="3.90672">
        <ele>1005</ele>
        <time>2009-07-11T09:18:20Z</time>
      </trkpt>
      <trkpt lat="44.60848" lon="3.90672">
        <ele>1010</ele>
        <time>2009-07-11T09:18:21Z</time>
      </trkpt>
      <trkpt lat="44.60848" lon="3.90672">
        <ele>1005</ele>
        <time>2009-07-11T09:18:26Z</time>
      </trkpt>
      <trkpt lat="44.60848" lon="3.90672">
        <ele>1010</ele>
        <time>2009-07-11T09:18:27Z</time>
      </trkpt>
      <trkpt lat="44.60863" lon="3.9067">
        <ele>1009</ele>
        <time>2009-07-11T09:19:13Z</time>
      </trkpt>
      <trkpt lat="44.60913" lon="3.90648">
        <ele>1008</ele>
        <time>2009-07-11T09:19:29Z</time>
      </trkpt>
      <trkpt lat="44.60964" lon="3.90618">
        <ele>1008</ele>
        <time>2009-07-11T09:19:45Z</time>
      </trkpt>
      <trkpt lat="44.6102" lon="3.90567">
        <ele>1008</ele>
        <time>2009-07-11T09:20:04Z</time>
      </trkpt>
      <trkpt lat="44.61072" lon="3.90513">
        <ele>1008</ele>
        <time>2009-07-11T09:20:21Z</time>
      </trkpt>
      <trkpt lat="44.61078" lon="3.90508">
        <ele>1007</ele>
        <time>2009-07-11T09:20:23Z</time>
      </trkpt>
      <trkpt lat="44.61132" lon="3.90454">
        <ele>1008</ele>
        <time>2009-07-11T09:20:40Z</time>
      </trkpt>
      <trkpt lat="44.61143" lon="3.90445">
        <ele>1007</ele>
        <time>2009-07-11T09:20:43Z</time>
      </trkpt>
      <trkpt lat="44.61171" lon="3.90414">
        <ele>1010</ele>
        <time>2009-07-11T09:20:52Z</time>
      </trkpt>
      <trkpt lat="44.61176" lon="3.90406">
        <ele>1011</ele>
        <time>2009-07-11T09:20:54Z</time>
      </trkpt>
      <trkpt lat="44.61181" lon="3.90398">
        <ele>1008</ele>
        <time>2009-07-11T09:20:56Z</time>
      </trkpt>
      <trkpt lat="44.61183" lon="3.90394">
        <ele>1007</ele>
        <time>2009-07-11T09:20:57Z</time>
      </trkpt>
      <trkpt lat="44.61195" lon="3.90369">
        <ele>1007</ele>
        <time>2009-07-11T09:21:02Z</time>
      </trkpt>
      <trkpt lat="44.61206" lon="3.90353">
        <ele>1005</ele>
        <time>2009-07-11T09:21:05Z</time>
      </trkpt>
      <trkpt lat="44.61214" lon="3.90343">
        <ele>1005</ele>
        <time>2009-07-11T09:21:07Z</time>
      </trkpt>
      <trkpt lat="44.61221" lon="3.90331">
        <ele>1003</ele>
        <time>2009-07-11T09:21:09Z</time>
      </trkpt>
      <trkpt lat="44.61224" lon="3.90315">
        <ele>1004</ele>
        <time>2009-07-11T09:21:11Z</time>
      </trkpt>
      <trkpt lat="44.6122" lon="3.90276">
        <ele>1006</ele>
        <time>2009-07-11T09:21:20Z</time>
      </trkpt>
      <trkpt lat="44.61219" lon="3.90276">
        <ele>1007</ele>
        <time>2009-07-11T09:21:29Z</time>
      </trkpt>
      <trkpt lat="44.61219" lon="3.90277">
        <ele>1002</ele>
        <time>2009-07-11T09:21:52Z</time>
      </trkpt>
      <trkpt lat="44.61219" lon="3.90277">
        <ele>1005</ele>
        <time>2009-07-11T09:21:53Z</time>
      </trkpt>
      <trkpt lat="44.61218" lon="3.90277">
        <ele>1002</ele>
        <time>2009-07-11T09:22:07Z</time>
      </trkpt>
      <trkpt lat="44.61218" lon="3.90277">
        <ele>1006</ele>
        <time>2009-07-11T09:22:08Z</time>
      </trkpt>
      <trkpt lat="44.61217" lon="3.90276">
        <ele>1003</ele>
        <time>2009-07-11T09:22:23Z</time>
      </trkpt>
      <trkpt lat="44.61216" lon="3.90273">
        <ele>1005</ele>
        <time>2009-07-11T09:22:38Z</time>
      </trkpt>
      <trkpt lat="44.61217" lon="3.90274">
        <ele>1006</ele>
        <time>2009-07-11T09:23:09Z</time>
      </trkpt>
      <trkpt lat="44.61218" lon="3.90273">
        <ele>1006</ele>
        <time>2009-07-11T09:23:16Z</time>
      </trkpt>
      <trkpt lat="44.61227" lon="3.90267">
        <ele>1003</ele>
        <time>2009-07-11T09:23:20Z</time>
      </trkpt>
      <trkpt lat="44.61236" lon="3.90265">
        <ele>1002</ele>
        <time>2009-07-11T09:23:22Z</time>
      </trkpt>
      <trkpt lat="44.61247" lon="3.90259">
        <ele>1001</ele>
        <time>2009-07-11T09:23:24Z</time>
      </trkpt>
      <trkpt lat="44.61278" lon="3.90238">
        <ele>996</ele>
        <time>2009-07-11T09:23:29Z</time>
      </trkpt>
      <trkpt lat="44.61285" lon="3.90233">
        <ele>996</ele>
        <time>2009-07-11T09:23:30Z</time>
      </trkpt>
      <trkpt lat="44.61311" lon="3.90227">
        <ele>1000</ele>
        <time>2009-07-11T09:23:34Z</time>
      </trkpt>
      <trkpt lat="44.61317" lon="3.90226">
        <ele>1000</ele>
        <time>2009-07-11T09:23:35Z</time>
      </trkpt>
      <trkpt lat="44.61331" lon="3.90226">
        <ele>1001</ele>
        <time>2009-07-11T09:23:38Z</time>
      </trkpt>
      <trkpt lat="44.61343" lon="3.90219">
        <ele>1001</ele>
        <time>2009-07-11T09:23:42Z</time>
      </trkpt>
      <trkpt lat="44.61348" lon="3.902">
        <ele>1001</ele>
        <time>2009-07-11T09:23:47Z</time>
      </trkpt>
      <trkpt lat="44.61348" lon="3.90197">
        <ele>998</ele>
        <time>2009-07-11T09:24:06Z</time>
      </trkpt>
      <trkpt lat="44.61348" lon="3.90197">
        <ele>1005</ele>
        <time>2009-07-11T09:24:07Z</time>
      </trkpt>
      <trkpt lat="44.61348" lon="3.90197">
        <ele>1002</ele>
        <time>2009-07-11T09:24:08Z</time>
      </trkpt>
      <trkpt lat="44.6135" lon="3.90192">
        <ele>1002</ele>
        <time>2009-07-11T09:24:40Z</time>
      </trkpt>
      <trkpt lat="44.61352" lon="3.90189">
        <ele>1003</ele>
        <time>2009-07-11T09:24:46Z</time>
      </trkpt>
      <trkpt lat="44.61365" lon="3.9016">
        <ele>1003</ele>
        <time>2009-07-11T09:24:59Z</time>
      </trkpt>
      <trkpt lat="44.61376" lon="3.90121">
        <ele>1007</ele>
        <time>2009-07-11T09:25:11Z</time>
      </trkpt>
      <trkpt lat="44.6138" lon="3.90108">
        <ele>1008</ele>
        <time>2009-07-11T09:25:15Z</time>
      </trkpt>
      <trkpt lat="44.61396" lon="3.90077">
        <ele>1006</ele>
        <time>2009-07-11T09:25:27Z</time>
      </trkpt>
      <trkpt lat="44.61427" lon="3.901">
        <ele>1005</ele>
        <time>2009-07-11T09:25:37Z</time>
      </trkpt>
      <trkpt lat="44.61442" lon="3.90123">
        <ele>1005</ele>
        <time>2009-07-11T09:25:42Z</time>
      </trkpt>
      <trkpt lat="44.61463" lon="3.90183">
        <ele>1005</ele>
        <time>2009-07-11T09:25:55Z</time>
      </trkpt>
      <trkpt lat="44.61471" lon="3.90218">
        <ele>1006</ele>
        <time>2009-07-11T09:26:02Z</time>
      </trkpt>
      <trkpt lat="44.61476" lon="3.90234">
        <ele>1006</ele>
        <time>2009-07-11T09:26:05Z</time>
      </trkpt>
      <trkpt lat="44.61502" lon="3.90292">
        <ele>1008</ele>
        <time>2009-07-11T09:26:18Z</time>
      </trkpt>
      <trkpt lat="44.61506" lon="3.90299">
        <ele>1009</ele>
        <time>2009-07-11T09:26:20Z</time>
      </trkpt>
      <trkpt lat="44.6151" lon="3.90319">
        <ele>1010</ele>
        <time>2009-07-11T09:26:26Z</time>
      </trkpt>
      <trkpt lat="44.61543" lon="3.90358">
        <ele>1012</ele>
        <time>2009-07-11T09:26:40Z</time>
      </trkpt>
      <trkpt lat="44.61554" lon="3.90391">
        <ele>1013</ele>
        <time>2009-07-11T09:26:48Z</time>
      </trkpt>
      <trkpt lat="44.61559" lon="3.90384">
        <ele>1011</ele>
        <time>2009-07-11T09:26:54Z</time>
      </trkpt>
      <trkpt lat="44.61554" lon="3.9036">
        <ele>1007</ele>
        <time>2009-07-11T09:26:58Z</time>
      </trkpt>
      <trkpt lat="44.61542" lon="3.90322">
        <ele>1004</ele>
        <time>2009-07-11T09:27:03Z</time>
      </trkpt>
      <trkpt lat="44.61529" lon="3.90262">
        <ele>1001</ele>
        <time>2009-07-11T09:27:09Z</time>
      </trkpt>
      <trkpt lat="44.61513" lon="3.9022">
        <ele>1002</ele>
        <time>2009-07-11T09:27:16Z</time>
      </trkpt>
      <trkpt lat="44.6151" lon="3.90205">
        <ele>1006</ele>
        <time>2009-07-11T09:27:20Z</time>
      </trkpt>
      <trkpt lat="44.61511" lon="3.90203">
        <ele>1006</ele>
        <time>2009-07-11T09:27:21Z</time>
      </trkpt>
      <trkpt lat="44.61518" lon="3.90201">
        <ele>1006</ele>
        <time>2009-07-11T09:27:31Z</time>
      </trkpt>
      <trkpt lat="44.61524" lon="3.90192">
        <ele>1008</ele>
        <time>2009-07-11T09:27:43Z</time>
      </trkpt>
      <trkpt lat="44.61527" lon="3.90189">
        <ele>1009</ele>
        <time>2009-07-11T09:27:58Z</time>
      </trkpt>
      <trkpt lat="44.61532" lon="3.90182">
        <ele>1009</ele>
        <time>2009-07-11T09:28:13Z</time>
      </trkpt>
      <trkpt lat="44.61539" lon="3.90175">
        <ele>1010</ele>
        <time>2009-07-11T09:28:18Z</time>
      </trkpt>
      <trkpt lat="44.61551" lon="3.90165">
        <ele>1012</ele>
        <time>2009-07-11T09:28:30Z</time>
      </trkpt>
      <trkpt lat="44.61553" lon="3.90162">
        <ele>1011</ele>
        <time>2009-07-11T09:28:35Z</time>
      </trkpt>
      <trkpt lat="44.61562" lon="3.90154">
        <ele>1013</ele>
        <time>2009-07-11T09:28:49Z</time>
      </trkpt>
      <trkpt lat="44.61571" lon="3.90142">
        <ele>1015</ele>
        <time>2009-07-11T09:29:05Z</time>
      </trkpt>
      <trkpt lat="44.61573" lon="3.90139">
        <ele>1014</ele>
        <time>2009-07-11T09:29:09Z</time>
      </trkpt>
      <trkpt lat="44.61574" lon="3.90127">
        <ele>1015</ele>
        <time>2009-07-11T09:29:20Z</time>
      </trkpt>
      <trkpt lat="44.61574" lon="3.90114">
        <ele>1017</ele>
        <time>2009-07-11T09:29:33Z</time>
      </trkpt>
      <trkpt lat="44.61575" lon="3.90107">
        <ele>1018</ele>
        <time>2009-07-11T09:29:43Z</time>
      </trkpt>
      <trkpt lat="44.61576" lon="3.90099">
        <ele>1018</ele>
        <time>2009-07-11T09:29:53Z</time>
      </trkpt>
      <trkpt lat="44.61577" lon="3.90088">
        <ele>1019</ele>
        <time>2009-07-11T09:30:06Z</time>
      </trkpt>
      <trkpt lat="44.6158" lon="3.90072">
        <ele>1019</ele>
        <time>2009-07-11T09:30:14Z</time>
      </trkpt>
      <trkpt lat="44.61587" lon="3.90032">
        <ele>1022</ele>
        <time>2009-07-11T09:30:30Z</time>
      </trkpt>
      <trkpt lat="44.6159" lon="3.90016">
        <ele>1024</ele>
        <time>2009-07-11T09:30:43Z</time>
      </trkpt>
      <trkpt lat="44.61591" lon="3.90016">
        <ele>1026</ele>
        <time>2009-07-11T09:31:17Z</time>
      </trkpt>
      <trkpt lat="44.61591" lon="3.90016">
        <ele>1022</ele>
        <time>2009-07-11T09:31:20Z</time>
      </trkpt>
      <trkpt lat="44.61591" lon="3.90016">
        <ele>1025</ele>
        <time>2009-07-11T09:31:21Z</time>
      </trkpt>
      <trkpt lat="44.61591" lon="3.90016">
        <ele>1021</ele>
        <time>2009-07-11T09:31:34Z</time>
      </trkpt>
      <trkpt lat="44.61591" lon="3.90016">
        <ele>1025</ele>
        <time>2009-07-11T09:31:35Z</time>
      </trkpt>
      <trkpt lat="44.61591" lon="3.90016">
        <ele>1023</ele>
        <time>2009-07-11T09:31:40Z</time>
      </trkpt>
      <trkpt lat="44.61592" lon="3.90016">
        <ele>1026</ele>
        <time>2009-07-11T09:32:09Z</time>
      </trkpt>
      <trkpt lat="44.61592" lon="3.90016">
        <ele>1022</ele>
        <time>2009-07-11T09:32:10Z</time>
      </trkpt>
      <trkpt lat="44.61593" lon="3.90016">
        <ele>1022</ele>
        <time>2009-07-11T09:32:11Z</time>
      </trkpt>
      <trkpt lat="44.61593" lon="3.90016">
        <ele>1024</ele>
        <time>2009-07-11T09:32:13Z</time>
      </trkpt>
      <trkpt lat="44.61593" lon="3.90016">
        <ele>1027</ele>
        <time>2009-07-11T09:32:19Z</time>
      </trkpt>
      <trkpt lat="44.61593" lon="3.90016">
        <ele>1024</ele>
        <time>2009-07-11T09:32:20Z</time>
      </trkpt>
      <trkpt lat="44.61594" lon="3.90016">
        <ele>1024</ele>
        <time>2009-07-11T09:32:39Z</time>
      </trkpt>
      <trkpt lat="44.61592" lon="3.90016">
        <ele>1027</ele>
        <time>2009-07-11T09:33:20Z</time>
      </trkpt>
      <trkpt lat="44.61592" lon="3.90016">
        <ele>1024</ele>
        <time>2009-07-11T09:33:22Z</time>
      </trkpt>
      <trkpt lat="44.61593" lon="3.90016">
        <ele>1020</ele>
        <time>2009-07-11T09:33:42Z</time>
      </trkpt>
      <trkpt lat="44.61593" lon="3.90016">
        <ele>1024</ele>
        <time>2009-07-11T09:33:43Z</time>
      </trkpt>
      <trkpt lat="44.61594" lon="3.90016">
        <ele>1023</ele>
        <time>2009-07-11T09:33:50Z</time>
      </trkpt>
      <trkpt lat="44.61594" lon="3.90016">
        <ele>1024</ele>
        <time>2009-07-11T09:34:00Z</time>
      </trkpt>
      <trkpt lat="44.61594" lon="3.90016">
        <ele>1023</ele>
        <time>2009-07-11T09:34:04Z</time>
      </trkpt>
      <trkpt lat="44.61594" lon="3.90016">
        <ele>1026</ele>
        <time>2009-07-11T09:34:12Z</time>
      </trkpt>
      <trkpt lat="44.61594" lon="3.90016">
        <ele>1023</ele>
        <time>2009-07-11T09:34:15Z</time>
      </trkpt>
      <trkpt lat="44.61597" lon="3.89998">
        <ele>1025</ele>
        <time>2009-07-11T09:34:49Z</time>
      </trkpt>
      <trkpt lat="44.61617" lon="3.89952">
        <ele>1029</ele>
        <time>2009-07-11T09:35:06Z</time>
      </trkpt>
      <trkpt lat="44.61619" lon="3.89947">
        <ele>1030</ele>
        <time>2009-07-11T09:35:08Z</time>
      </trkpt>
      <trkpt lat="44.61641" lon="3.89904">
        <ele>1032</ele>
        <time>2009-07-11T09:35:24Z</time>
      </trkpt>
      <trkpt lat="44.61656" lon="3.89874">
        <ele>1035</ele>
        <time>2009-07-11T09:35:35Z</time>
      </trkpt>
      <trkpt lat="44.61691" lon="3.89833">
        <ele>1035</ele>
        <time>2009-07-11T09:35:50Z</time>
      </trkpt>
      <trkpt lat="44.61705" lon="3.89821">
        <ele>1032</ele>
        <time>2009-07-11T09:35:55Z</time>
      </trkpt>
      <trkpt lat="44.61711" lon="3.89814">
        <ele>1032</ele>
        <time>2009-07-11T09:35:57Z</time>
      </trkpt>
      <trkpt lat="44.61729" lon="3.89804">
        <ele>1030</ele>
        <time>2009-07-11T09:36:01Z</time>
      </trkpt>
      <trkpt lat="44.61758" lon="3.89788">
        <ele>1029</ele>
        <time>2009-07-11T09:36:06Z</time>
      </trkpt>
      <trkpt lat="44.61797" lon="3.89755">
        <ele>1027</ele>
        <time>2009-07-11T09:36:14Z</time>
      </trkpt>
      <trkpt lat="44.6183" lon="3.89716">
        <ele>1026</ele>
        <time>2009-07-11T09:36:22Z</time>
      </trkpt>
      <trkpt lat="44.61916" lon="3.89658">
        <ele>1024</ele>
        <time>2009-07-11T09:36:38Z</time>
      </trkpt>
      <trkpt lat="44.61942" lon="3.89648">
        <ele>1022</ele>
        <time>2009-07-11T09:36:42Z</time>
      </trkpt>
      <trkpt lat="44.62039" lon="3.89601">
        <ele>1020</ele>
        <time>2009-07-11T09:36:59Z</time>
      </trkpt>
      <trkpt lat="44.62075" lon="3.89587">
        <ele>1023</ele>
        <time>2009-07-11T09:37:06Z</time>
      </trkpt>
      <trkpt lat="44.62085" lon="3.89584">
        <ele>1019</ele>
        <time>2009-07-11T09:37:08Z</time>
      </trkpt>
      <trkpt lat="44.62128" lon="3.89574">
        <ele>1025</ele>
        <time>2009-07-11T09:37:17Z</time>
      </trkpt>
      <trkpt lat="44.62132" lon="3.89573">
        <ele>1019</ele>
        <time>2009-07-11T09:37:18Z</time>
      </trkpt>
      <trkpt lat="44.62176" lon="3.89572">
        <ele>1017</ele>
        <time>2009-07-11T09:37:28Z</time>
      </trkpt>
      <trkpt lat="44.62209" lon="3.89574">
        <ele>1014</ele>
        <time>2009-07-11T09:37:35Z</time>
      </trkpt>
      <trkpt lat="44.62218" lon="3.89576">
        <ele>1017</ele>
        <time>2009-07-11T09:37:37Z</time>
      </trkpt>
      <trkpt lat="44.62224" lon="3.89576">
        <ele>1013</ele>
        <time>2009-07-11T09:37:38Z</time>
      </trkpt>
      <trkpt lat="44.6224" lon="3.89578">
        <ele>1009</ele>
        <time>2009-07-11T09:37:41Z</time>
      </trkpt>
      <trkpt lat="44.62253" lon="3.8958">
        <ele>1008</ele>
        <time>2009-07-11T09:37:43Z</time>
      </trkpt>
      <trkpt lat="44.62267" lon="3.8958">
        <ele>1006</ele>
        <time>2009-07-11T09:37:45Z</time>
      </trkpt>
      <trkpt lat="44.62306" lon="3.89564">
        <ele>1003</ele>
        <time>2009-07-11T09:37:50Z</time>
      </trkpt>
      <trkpt lat="44.62328" lon="3.89547">
        <ele>998</ele>
        <time>2009-07-11T09:37:53Z</time>
      </trkpt>
      <trkpt lat="44.62353" lon="3.8954">
        <ele>996</ele>
        <time>2009-07-11T09:37:56Z</time>
      </trkpt>
      <trkpt lat="44.62371" lon="3.89543">
        <ele>994</ele>
        <time>2009-07-11T09:37:58Z</time>
      </trkpt>
      <trkpt lat="44.62408" lon="3.89559">
        <ele>993</ele>
        <time>2009-07-11T09:38:02Z</time>
      </trkpt>
      <trkpt lat="44.6248" lon="3.89572">
        <ele>986</ele>
        <time>2009-07-11T09:38:09Z</time>
      </trkpt>
      <trkpt lat="44.62502" lon="3.89567">
        <ele>986</ele>
        <time>2009-07-11T09:38:11Z</time>
      </trkpt>
      <trkpt lat="44.62512" lon="3.89563">
        <ele>982</ele>
        <time>2009-07-11T09:38:12Z</time>
      </trkpt>
      <trkpt lat="44.62617" lon="3.89509">
        <ele>982</ele>
        <time>2009-07-11T09:38:24Z</time>
      </trkpt>
      <trkpt lat="44.62656" lon="3.89489">
        <ele>984</ele>
        <time>2009-07-11T09:38:31Z</time>
      </trkpt>
      <trkpt lat="44.62725" lon="3.89455">
        <ele>982</ele>
        <time>2009-07-11T09:38:44Z</time>
      </trkpt>
      <trkpt lat="44.62748" lon="3.89449">
        <ele>982</ele>
        <time>2009-07-11T09:38:48Z</time>
      </trkpt>
      <trkpt lat="44.62773" lon="3.8945">
        <ele>980</ele>
        <time>2009-07-11T09:38:52Z</time>
      </trkpt>
      <trkpt lat="44.62875" lon="3.89468">
        <ele>982</ele>
        <time>2009-07-11T09:39:10Z</time>
      </trkpt>
      <trkpt lat="44.62949" lon="3.8948">
        <ele>982</ele>
        <time>2009-07-11T09:39:25Z</time>
      </trkpt>
      <trkpt lat="44.62991" lon="3.89487">
        <ele>980</ele>
        <time>2009-07-11T09:39:33Z</time>
      </trkpt>
      <trkpt lat="44.63018" lon="3.89491">
        <ele>979</ele>
        <time>2009-07-11T09:39:38Z</time>
      </trkpt>
      <trkpt lat="44.63082" lon="3.89493">
        <ele>979</ele>
        <time>2009-07-11T09:39:50Z</time>
      </trkpt>
      <trkpt lat="44.63181" lon="3.89482">
        <ele>980</ele>
        <time>2009-07-11T09:40:09Z</time>
      </trkpt>
      <trkpt lat="44.63272" lon="3.89452">
        <ele>977</ele>
        <time>2009-07-11T09:40:25Z</time>
      </trkpt>
      <trkpt lat="44.63351" lon="3.89448">
        <ele>977</ele>
        <time>2009-07-11T09:40:38Z</time>
      </trkpt>
      <trkpt lat="44.63388" lon="3.89459">
        <ele>978</ele>
        <time>2009-07-11T09:40:44Z</time>
      </trkpt>
      <trkpt lat="44.63399" lon="3.89464">
        <ele>977</ele>
        <time>2009-07-11T09:40:46Z</time>
      </trkpt>
      <trkpt lat="44.6344" lon="3.89482">
        <ele>979</ele>
        <time>2009-07-11T09:40:54Z</time>
      </trkpt>
      <trkpt lat="44.63476" lon="3.89494">
        <ele>981</ele>
        <time>2009-07-11T09:41:04Z</time>
      </trkpt>
      <trkpt lat="44.63479" lon="3.89481">
        <ele>982</ele>
        <time>2009-07-11T09:41:08Z</time>
      </trkpt>
      <trkpt lat="44.63481" lon="3.89473">
        <ele>982</ele>
        <time>2009-07-11T09:41:10Z</time>
      </trkpt>
      <trkpt lat="44.6348" lon="3.89455">
        <ele>981</ele>
        <time>2009-07-11T09:41:13Z</time>
      </trkpt>
      <trkpt lat="44.6349" lon="3.89422">
        <ele>981</ele>
        <time>2009-07-11T09:41:19Z</time>
      </trkpt>
      <trkpt lat="44.63516" lon="3.89417">
        <ele>982</ele>
        <time>2009-07-11T09:41:32Z</time>
      </trkpt>
      <trkpt lat="44.63532" lon="3.89413">
        <ele>983</ele>
        <time>2009-07-11T09:41:43Z</time>
      </trkpt>
      <trkpt lat="44.63514" lon="3.89418">
        <ele>983</ele>
        <time>2009-07-11T09:41:54Z</time>
      </trkpt>
      <trkpt lat="44.63508" lon="3.89417">
        <ele>983</ele>
        <time>2009-07-11T09:41:56Z</time>
      </trkpt>
      <trkpt lat="44.63505" lon="3.89421">
        <ele>982</ele>
        <time>2009-07-11T09:41:59Z</time>
      </trkpt>
      <trkpt lat="44.63517" lon="3.89423">
        <ele>980</ele>
        <time>2009-07-11T09:42:03Z</time>
      </trkpt>
      <trkpt lat="44.63528" lon="3.89423">
        <ele>980</ele>
        <time>2009-07-11T09:42:06Z</time>
      </trkpt>
      <trkpt lat="44.63537" lon="3.89434">
        <ele>979</ele>
        <time>2009-07-11T09:42:09Z</time>
      </trkpt>
      <trkpt lat="44.63542" lon="3.89446">
        <ele>977</ele>
        <time>2009-07-11T09:42:11Z</time>
      </trkpt>
      <trkpt lat="44.63553" lon="3.89477">
        <ele>976</ele>
        <time>2009-07-11T09:42:19Z</time>
      </trkpt>
      <trkpt lat="44.63634" lon="3.89472">
        <ele>976</ele>
        <time>2009-07-11T09:42:36Z</time>
      </trkpt>
      <trkpt lat="44.63646" lon="3.89471">
        <ele>976</ele>
        <time>2009-07-11T09:42:39Z</time>
      </trkpt>
      <trkpt lat="44.63702" lon="3.89469">
        <ele>976</ele>
        <time>2009-07-11T09:42:52Z</time>
      </trkpt>
      <trkpt lat="44.63722" lon="3.89463">
        <ele>977</ele>
        <time>2009-07-11T09:42:57Z</time>
      </trkpt>
      <trkpt lat="44.63742" lon="3.89467">
        <ele>976</ele>
        <time>2009-07-11T09:43:02Z</time>
      </trkpt>
      <trkpt lat="44.63826" lon="3.89459">
        <ele>974</ele>
        <time>2009-07-11T09:43:20Z</time>
      </trkpt>
      <trkpt lat="44.63864" lon="3.89451">
        <ele>975</ele>
        <time>2009-07-11T09:43:28Z</time>
      </trkpt>
      <trkpt lat="44.63885" lon="3.89445">
        <ele>974</ele>
        <time>2009-07-11T09:43:37Z</time>
      </trkpt>
      <trkpt lat="44.63885" lon="3.89446">
        <ele>974</ele>
        <time>2009-07-11T09:43:39Z</time>
      </trkpt>
      <trkpt lat="44.63892" lon="3.89447">
        <ele>974</ele>
        <time>2009-07-11T09:43:48Z</time>
      </trkpt>
      <trkpt lat="44.63898" lon="3.89444">
        <ele>974</ele>
        <time>2009-07-11T09:44:08Z</time>
      </trkpt>
      <trkpt lat="44.63901" lon="3.89444">
        <ele>974</ele>
        <time>2009-07-11T09:44:22Z</time>
      </trkpt>
      <trkpt lat="44.63902" lon="3.89446">
        <ele>974</ele>
        <time>2009-07-11T09:44:24Z</time>
      </trkpt>
      <trkpt lat="44.63909" lon="3.8946">
        <ele>974</ele>
        <time>2009-07-11T09:44:40Z</time>
      </trkpt>
      <trkpt lat="44.63907" lon="3.89462">
        <ele>973</ele>
        <time>2009-07-11T09:45:18Z</time>
      </trkpt>
      <trkpt lat="44.6391" lon="3.89464">
        <ele>974</ele>
        <time>2009-07-11T09:46:01Z</time>
      </trkpt>
      <trkpt lat="44.6391" lon="3.89464">
        <ele>974</ele>
        <time>2009-07-11T09:46:05Z</time>
      </trkpt>
      <trkpt lat="44.63938" lon="3.89471">
        <ele>974</ele>
        <time>2009-07-11T09:46:21Z</time>
      </trkpt>
      <trkpt lat="44.63985" lon="3.89446">
        <ele>973</ele>
        <time>2009-07-11T09:46:35Z</time>
      </trkpt>
      <trkpt lat="44.64047" lon="3.89419">
        <ele>973</ele>
        <time>2009-07-11T09:46:51Z</time>
      </trkpt>
      <trkpt lat="44.6406" lon="3.89418">
        <ele>974</ele>
        <time>2009-07-11T09:46:55Z</time>
      </trkpt>
      <trkpt lat="44.64101" lon="3.89434">
        <ele>973</ele>
        <time>2009-07-11T09:47:10Z</time>
      </trkpt>
      <trkpt lat="44.64112" lon="3.8944">
        <ele>973</ele>
        <time>2009-07-11T09:47:13Z</time>
      </trkpt>
      <trkpt lat="44.64128" lon="3.8945">
        <ele>973</ele>
        <time>2009-07-11T09:47:17Z</time>
      </trkpt>
      <trkpt lat="44.64166" lon="3.89468">
        <ele>971</ele>
        <time>2009-07-11T09:47:29Z</time>
      </trkpt>
      <trkpt lat="44.642" lon="3.89504">
        <ele>971</ele>
        <time>2009-07-11T09:47:45Z</time>
      </trkpt>
      <trkpt lat="44.64214" lon="3.89522">
        <ele>971</ele>
        <time>2009-07-11T09:47:57Z</time>
      </trkpt>
      <trkpt lat="44.64231" lon="3.89549">
        <ele>970</ele>
        <time>2009-07-11T09:48:12Z</time>
      </trkpt>
      <trkpt lat="44.6424" lon="3.89584">
        <ele>971</ele>
        <time>2009-07-11T09:48:25Z</time>
      </trkpt>
      <trkpt lat="44.64236" lon="3.8961">
        <ele>972</ele>
        <time>2009-07-11T09:48:38Z</time>
      </trkpt>
      <trkpt lat="44.64236" lon="3.89615">
        <ele>973</ele>
        <time>2009-07-11T09:48:40Z</time>
      </trkpt>
      <trkpt lat="44.64253" lon="3.89665">
        <ele>974</ele>
        <time>2009-07-11T09:48:55Z</time>
      </trkpt>
      <trkpt lat="44.64281" lon="3.89698">
        <ele>976</ele>
        <time>2009-07-11T09:49:09Z</time>
      </trkpt>
      <trkpt lat="44.64315" lon="3.89746">
        <ele>980</ele>
        <time>2009-07-11T09:49:27Z</time>
      </trkpt>
      <trkpt lat="44.6434" lon="3.89801">
        <ele>982</ele>
        <time>2009-07-11T09:49:43Z</time>
      </trkpt>
      <trkpt lat="44.64364" lon="3.89858">
        <ele>984</ele>
        <time>2009-07-11T09:50:00Z</time>
      </trkpt>
      <trkpt lat="44.64391" lon="3.89905">
        <ele>985</ele>
        <time>2009-07-11T09:50:15Z</time>
      </trkpt>
      <trkpt lat="44.64447" lon="3.89931">
        <ele>986</ele>
        <time>2009-07-11T09:50:35Z</time>
      </trkpt>
      <trkpt lat="44.64473" lon="3.89943">
        <ele>989</ele>
        <time>2009-07-11T09:50:44Z</time>
      </trkpt>
      <trkpt lat="44.64476" lon="3.89944">
        <ele>989</ele>
        <time>2009-07-11T09:50:45Z</time>
      </trkpt>
      <trkpt lat="44.64525" lon="3.89976">
        <ele>991</ele>
        <time>2009-07-11T09:51:04Z</time>
      </trkpt>
      <trkpt lat="44.64551" lon="3.89995">
        <ele>993</ele>
        <time>2009-07-11T09:51:20Z</time>
      </trkpt>
      <trkpt lat="44.64551" lon="3.89995">
        <ele>993</ele>
        <time>2009-07-11T09:52:02Z</time>
      </trkpt>
      <trkpt lat="44.64552" lon="3.89994">
        <ele>993</ele>
        <time>2009-07-11T09:52:46Z</time>
      </trkpt>
      <trkpt lat="44.64585" lon="3.90001">
        <ele>991</ele>
        <time>2009-07-11T09:53:00Z</time>
      </trkpt>
      <trkpt lat="44.64623" lon="3.89973">
        <ele>990</ele>
        <time>2009-07-11T09:53:12Z</time>
      </trkpt>
      <trkpt lat="44.64628" lon="3.8997">
        <ele>990</ele>
        <time>2009-07-11T09:53:13Z</time>
      </trkpt>
      <trkpt lat="44.64655" lon="3.89973">
        <ele>987</ele>
        <time>2009-07-11T09:53:18Z</time>
      </trkpt>
      <trkpt lat="44.64667" lon="3.89982">
        <ele>984</ele>
        <time>2009-07-11T09:53:20Z</time>
      </trkpt>
      <trkpt lat="44.64679" lon="3.89994">
        <ele>983</ele>
        <time>2009-07-11T09:53:22Z</time>
      </trkpt>
      <trkpt lat="44.64702" lon="3.90038">
        <ele>983</ele>
        <time>2009-07-11T09:53:31Z</time>
      </trkpt>
      <trkpt lat="44.64701" lon="3.90039">
        <ele>983</ele>
        <time>2009-07-11T09:53:43Z</time>
      </trkpt>
      <trkpt lat="44.64721" lon="3.90036">
        <ele>981</ele>
        <time>2009-07-11T09:53:49Z</time>
      </trkpt>
      <trkpt lat="44.6474" lon="3.90052">
        <ele>979</ele>
        <time>2009-07-11T09:53:53Z</time>
      </trkpt>
      <trkpt lat="44.64771" lon="3.90105">
        <ele>975</ele>
        <time>2009-07-11T09:54:00Z</time>
      </trkpt>
      <trkpt lat="44.64818" lon="3.90184">
        <ele>972</ele>
        <time>2009-07-11T09:54:10Z</time>
      </trkpt>
      <trkpt lat="44.6481" lon="3.90208">
        <ele>973</ele>
        <time>2009-07-11T09:54:14Z</time>
      </trkpt>
      <trkpt lat="44.64778" lon="3.90259">
        <ele>974</ele>
        <time>2009-07-11T09:54:26Z</time>
      </trkpt>
      <trkpt lat="44.64784" lon="3.90276">
        <ele>976</ele>
        <time>2009-07-11T09:54:30Z</time>
      </trkpt>
      <trkpt lat="44.64821" lon="3.90346">
        <ele>976</ele>
        <time>2009-07-11T09:54:48Z</time>
      </trkpt>
      <trkpt lat="44.64828" lon="3.90355">
        <ele>979</ele>
        <time>2009-07-11T09:54:52Z</time>
      </trkpt>
      <trkpt lat="44.64849" lon="3.90379">
        <ele>979</ele>
        <time>2009-07-11T09:55:02Z</time>
      </trkpt>
      <trkpt lat="44.64892" lon="3.90368">
        <ele>982</ele>
        <time>2009-07-11T09:55:16Z</time>
      </trkpt>
      <trkpt lat="44.64928" lon="3.90319">
        <ele>982</ele>
        <time>2009-07-11T09:55:32Z</time>
      </trkpt>
      <trkpt lat="44.64943" lon="3.90322">
        <ele>984</ele>
        <time>2009-07-11T09:55:40Z</time>
      </trkpt>
      <trkpt lat="44.64945" lon="3.90326">
        <ele>985</ele>
        <time>2009-07-11T09:55:42Z</time>
      </trkpt>
      <trkpt lat="44.64953" lon="3.90346">
        <ele>986</ele>
        <time>2009-07-11T09:55:54Z</time>
      </trkpt>
      <trkpt lat="44.64965" lon="3.90382">
        <ele>986</ele>
        <time>2009-07-11T09:56:09Z</time>
      </trkpt>
      <trkpt lat="44.64986" lon="3.90421">
        <ele>988</ele>
        <time>2009-07-11T09:56:25Z</time>
      </trkpt>
      <trkpt lat="44.65012" lon="3.90446">
        <ele>991</ele>
        <time>2009-07-11T09:56:41Z</time>
      </trkpt>
      <trkpt lat="44.65032" lon="3.90456">
        <ele>994</ele>
        <time>2009-07-11T09:56:55Z</time>
      </trkpt>
      <trkpt lat="44.65036" lon="3.90459">
        <ele>996</ele>
        <time>2009-07-11T09:56:58Z</time>
      </trkpt>
      <trkpt lat="44.65049" lon="3.90461">
        <ele>999</ele>
        <time>2009-07-11T09:57:07Z</time>
      </trkpt>
      <trkpt lat="44.65077" lon="3.90452">
        <ele>1001</ele>
        <time>2009-07-11T09:57:25Z</time>
      </trkpt>
      <trkpt lat="44.65083" lon="3.9045">
        <ele>1001</ele>
        <time>2009-07-11T09:57:29Z</time>
      </trkpt>
      <trkpt lat="44.65082" lon="3.90442">
        <ele>1001</ele>
        <time>2009-07-11T09:57:41Z</time>
      </trkpt>
      <trkpt lat="44.65074" lon="3.90437">
        <ele>1003</ele>
        <time>2009-07-11T09:57:47Z</time>
      </trkpt>
      <trkpt lat="44.65064" lon="3.90414">
        <ele>1005</ele>
        <time>2009-07-11T09:58:01Z</time>
      </trkpt>
      <trkpt lat="44.65064" lon="3.90414">
        <ele>1004</ele>
        <time>2009-07-11T09:58:08Z</time>
      </trkpt>
      <trkpt lat="44.65079" lon="3.90437">
        <ele>1003</ele>
        <time>2009-07-11T09:58:20Z</time>
      </trkpt>
      <trkpt lat="44.65086" lon="3.90446">
        <ele>1001</ele>
        <time>2009-07-11T09:58:23Z</time>
      </trkpt>
      <trkpt lat="44.65098" lon="3.90472">
        <ele>1002</ele>
        <time>2009-07-11T09:58:35Z</time>
      </trkpt>
      <trkpt lat="44.65098" lon="3.90475">
        <ele>1002</ele>
        <time>2009-07-11T09:58:47Z</time>
      </trkpt>
      <trkpt lat="44.65086" lon="3.90449">
        <ele>1001</ele>
        <time>2009-07-11T09:59:02Z</time>
      </trkpt>
      <trkpt lat="44.65072" lon="3.90433">
        <ele>1005</ele>
        <time>2009-07-11T09:59:11Z</time>
      </trkpt>
      <trkpt lat="44.65062" lon="3.90403">
        <ele>1006</ele>
        <time>2009-07-11T09:59:26Z</time>
      </trkpt>
      <trkpt lat="44.65064" lon="3.904">
        <ele>1006</ele>
        <time>2009-07-11T10:00:10Z</time>
      </trkpt>
      <trkpt lat="44.65064" lon="3.904">
        <ele>1006</ele>
        <time>2009-07-11T10:00:32Z</time>
      </trkpt>
      <trkpt lat="44.65065" lon="3.90406">
        <ele>1007</ele>
        <time>2009-07-11T10:00:49Z</time>
      </trkpt>
      <trkpt lat="44.65073" lon="3.90431">
        <ele>1006</ele>
        <time>2009-07-11T10:01:00Z</time>
      </trkpt>
      <trkpt lat="44.65079" lon="3.90441">
        <ele>1004</ele>
        <time>2009-07-11T10:01:03Z</time>
      </trkpt>
      <trkpt lat="44.65066" lon="3.90458">
        <ele>1000</ele>
        <time>2009-07-11T10:01:09Z</time>
      </trkpt>
      <trkpt lat="44.65039" lon="3.90458">
        <ele>996</ele>
        <time>2009-07-11T10:01:15Z</time>
      </trkpt>
      <trkpt lat="44.65034" lon="3.90456">
        <ele>995</ele>
        <time>2009-07-11T10:01:16Z</time>
      </trkpt>
      <trkpt lat="44.65017" lon="3.90446">
        <ele>991</ele>
        <time>2009-07-11T10:01:19Z</time>
      </trkpt>
      <trkpt lat="44.64998" lon="3.90431">
        <ele>990</ele>
        <time>2009-07-11T10:01:22Z</time>
      </trkpt>
      <trkpt lat="44.64979" lon="3.90402">
        <ele>986</ele>
        <time>2009-07-11T10:01:26Z</time>
      </trkpt>
      <trkpt lat="44.64958" lon="3.90367">
        <ele>987</ele>
        <time>2009-07-11T10:01:34Z</time>
      </trkpt>
      <trkpt lat="44.64949" lon="3.90343">
        <ele>987</ele>
        <time>2009-07-11T10:01:43Z</time>
      </trkpt>
      <trkpt lat="44.64955" lon="3.90343">
        <ele>987</ele>
        <time>2009-07-11T10:01:48Z</time>
      </trkpt>
      <trkpt lat="44.6497" lon="3.90358">
        <ele>991</ele>
        <time>2009-07-11T10:02:00Z</time>
      </trkpt>
      <trkpt lat="44.64973" lon="3.90359">
        <ele>992</ele>
        <time>2009-07-11T10:02:02Z</time>
      </trkpt>
      <trkpt lat="44.64988" lon="3.90345">
        <ele>996</ele>
        <time>2009-07-11T10:02:15Z</time>
      </trkpt>
      <trkpt lat="44.65005" lon="3.90327">
        <ele>999</ele>
        <time>2009-07-11T10:02:30Z</time>
      </trkpt>
      <trkpt lat="44.65022" lon="3.90312">
        <ele>1002</ele>
        <time>2009-07-11T10:02:45Z</time>
      </trkpt>
      <trkpt lat="44.65029" lon="3.90292">
        <ele>1005</ele>
        <time>2009-07-11T10:02:56Z</time>
      </trkpt>
      <trkpt lat="44.6503" lon="3.90289">
        <ele>1006</ele>
        <time>2009-07-11T10:02:58Z</time>
      </trkpt>
      <trkpt lat="44.65034" lon="3.90276">
        <ele>1008</ele>
        <time>2009-07-11T10:03:06Z</time>
      </trkpt>
      <trkpt lat="44.65042" lon="3.90259">
        <ele>1010</ele>
        <time>2009-07-11T10:03:17Z</time>
      </trkpt>
      <trkpt lat="44.65046" lon="3.90253">
        <ele>1011</ele>
        <time>2009-07-11T10:03:29Z</time>
      </trkpt>
      <trkpt lat="44.65051" lon="3.90245">
        <ele>1013</ele>
        <time>2009-07-11T10:03:46Z</time>
      </trkpt>
      <trkpt lat="44.65057" lon="3.90237">
        <ele>1015</ele>
        <time>2009-07-11T10:03:53Z</time>
      </trkpt>
      <trkpt lat="44.65074" lon="3.90226">
        <ele>1018</ele>
        <time>2009-07-11T10:04:07Z</time>
      </trkpt>
      <trkpt lat="44.65084" lon="3.90226">
        <ele>1020</ele>
        <time>2009-07-11T10:04:22Z</time>
      </trkpt>
      <trkpt lat="44.65092" lon="3.9022">
        <ele>1023</ele>
        <time>2009-07-11T10:04:36Z</time>
      </trkpt>
      <trkpt lat="44.65106" lon="3.90211">
        <ele>1025</ele>
        <time>2009-07-11T10:04:53Z</time>
      </trkpt>
      <trkpt lat="44.65129" lon="3.902">
        <ele>1028</ele>
        <time>2009-07-11T10:05:07Z</time>
      </trkpt>
      <trkpt lat="44.65132" lon="3.90199">
        <ele>1029</ele>
        <time>2009-07-11T10:05:09Z</time>
      </trkpt>
      <trkpt lat="44.65158" lon="3.90187">
        <ele>1031</ele>
        <time>2009-07-11T10:05:24Z</time>
      </trkpt>
      <trkpt lat="44.65189" lon="3.90171">
        <ele>1033</ele>
        <time>2009-07-11T10:05:41Z</time>
      </trkpt>
      <trkpt lat="44.65215" lon="3.90162">
        <ele>1036</ele>
        <time>2009-07-11T10:05:55Z</time>
      </trkpt>
      <trkpt lat="44.65239" lon="3.90158">
        <ele>1037</ele>
        <time>2009-07-11T10:06:07Z</time>
      </trkpt>
      <trkpt lat="44.65257" lon="3.90168">
        <ele>1038</ele>
        <time>2009-07-11T10:06:18Z</time>
      </trkpt>
      <trkpt lat="44.65269" lon="3.90176">
        <ele>1041</ele>
        <time>2009-07-11T10:06:26Z</time>
      </trkpt>
      <trkpt lat="44.65279" lon="3.90178">
        <ele>1042</ele>
        <time>2009-07-11T10:06:33Z</time>
      </trkpt>
      <trkpt lat="44.65288" lon="3.90178">
        <ele>1043</ele>
        <time>2009-07-11T10:06:40Z</time>
      </trkpt>
      <trkpt lat="44.653" lon="3.90181">
        <ele>1047</ele>
        <time>2009-07-11T10:06:49Z</time>
      </trkpt>
      <trkpt lat="44.65313" lon="3.90188">
        <ele>1050</ele>
        <time>2009-07-11T10:06:59Z</time>
      </trkpt>
      <trkpt lat="44.65326" lon="3.90192">
        <ele>1054</ele>
        <time>2009-07-11T10:07:09Z</time>
      </trkpt>
      <trkpt lat="44.65328" lon="3.90193">
        <ele>1054</ele>
        <time>2009-07-11T10:07:10Z</time>
      </trkpt>
      <trkpt lat="44.65359" lon="3.9019">
        <ele>1056</ele>
        <time>2009-07-11T10:07:32Z</time>
      </trkpt>
      <trkpt lat="44.65381" lon="3.90181">
        <ele>1058</ele>
        <time>2009-07-11T10:07:47Z</time>
      </trkpt>
      <trkpt lat="44.65385" lon="3.90182">
        <ele>1059</ele>
        <time>2009-07-11T10:07:50Z</time>
      </trkpt>
      <trkpt lat="44.65397" lon="3.90192">
        <ele>1062</ele>
        <time>2009-07-11T10:08:00Z</time>
      </trkpt>
      <trkpt lat="44.65408" lon="3.90199">
        <ele>1064</ele>
        <time>2009-07-11T10:08:08Z</time>
      </trkpt>
      <trkpt lat="44.65421" lon="3.902">
        <ele>1065</ele>
        <time>2009-07-11T10:08:17Z</time>
      </trkpt>
      <trkpt lat="44.65436" lon="3.90205">
        <ele>1068</ele>
        <time>2009-07-11T10:08:28Z</time>
      </trkpt>
      <trkpt lat="44.65447" lon="3.90209">
        <ele>1072</ele>
        <time>2009-07-11T10:08:35Z</time>
      </trkpt>
      <trkpt lat="44.65448" lon="3.9021">
        <ele>1072</ele>
        <time>2009-07-11T10:08:36Z</time>
      </trkpt>
      <trkpt lat="44.65476" lon="3.9022">
        <ele>1075</ele>
        <time>2009-07-11T10:08:54Z</time>
      </trkpt>
      <trkpt lat="44.65502" lon="3.9022">
        <ele>1075</ele>
        <time>2009-07-11T10:09:08Z</time>
      </trkpt>
      <trkpt lat="44.6553" lon="3.90216">
        <ele>1078</ele>
        <time>2009-07-11T10:09:22Z</time>
      </trkpt>
      <trkpt lat="44.65575" lon="3.90223">
        <ele>1079</ele>
        <time>2009-07-11T10:09:38Z</time>
      </trkpt>
      <trkpt lat="44.65588" lon="3.90222">
        <ele>1082</ele>
        <time>2009-07-11T10:09:43Z</time>
      </trkpt>
      <trkpt lat="44.65627" lon="3.9024">
        <ele>1085</ele>
        <time>2009-07-11T10:09:58Z</time>
      </trkpt>
      <trkpt lat="44.65667" lon="3.90256">
        <ele>1084</ele>
        <time>2009-07-11T10:10:14Z</time>
      </trkpt>
      <trkpt lat="44.65674" lon="3.90263">
        <ele>1084</ele>
        <time>2009-07-11T10:10:25Z</time>
      </trkpt>
      <trkpt lat="44.65674" lon="3.90263">
        <ele>1087</ele>
        <time>2009-07-11T10:10:36Z</time>
      </trkpt>
      <trkpt lat="44.65674" lon="3.90263">
        <ele>1085</ele>
        <time>2009-07-11T10:10:37Z</time>
      </trkpt>
      <trkpt lat="44.65673" lon="3.90263">
        <ele>1083</ele>
        <time>2009-07-11T10:10:40Z</time>
      </trkpt>
      <trkpt lat="44.65673" lon="3.90263">
        <ele>1086</ele>
        <time>2009-07-11T10:10:41Z</time>
      </trkpt>
      <trkpt lat="44.65673" lon="3.90263">
        <ele>1083</ele>
        <time>2009-07-11T10:11:35Z</time>
      </trkpt>
      <trkpt lat="44.65673" lon="3.90263">
        <ele>1087</ele>
        <time>2009-07-11T10:12:14Z</time>
      </trkpt>
      <trkpt lat="44.65673" lon="3.90263">
        <ele>1083</ele>
        <time>2009-07-11T10:12:27Z</time>
      </trkpt>
      <trkpt lat="44.65673" lon="3.90263">
        <ele>1084</ele>
        <time>2009-07-11T10:12:33Z</time>
      </trkpt>
      <trkpt lat="44.65673" lon="3.90263">
        <ele>1085</ele>
        <time>2009-07-11T10:14:31Z</time>
      </trkpt>
      <trkpt lat="44.65673" lon="3.90263">
        <ele>1084</ele>
        <time>2009-07-11T10:14:33Z</time>
      </trkpt>
      <trkpt lat="44.65673" lon="3.90263">
        <ele>1085</ele>
        <time>2009-07-11T10:14:42Z</time>
      </trkpt>
      <trkpt lat="44.65673" lon="3.90263">
        <ele>1083</ele>
        <time>2009-07-11T10:14:45Z</time>
      </trkpt>
      <trkpt lat="44.65673" lon="3.90263">
        <ele>1084</ele>
        <time>2009-07-11T10:14:50Z</time>
      </trkpt>
      <trkpt lat="44.65674" lon="3.90262">
        <ele>1084</ele>
        <time>2009-07-11T10:16:07Z</time>
      </trkpt>
      <trkpt lat="44.65684" lon="3.90263">
        <ele>1084</ele>
        <time>2009-07-11T10:16:13Z</time>
      </trkpt>
      <trkpt lat="44.65697" lon="3.90273">
        <ele>1084</ele>
        <time>2009-07-11T10:16:18Z</time>
      </trkpt>
      <trkpt lat="44.65737" lon="3.90316">
        <ele>1086</ele>
        <time>2009-07-11T10:16:35Z</time>
      </trkpt>
      <trkpt lat="44.65772" lon="3.90359">
        <ele>1086</ele>
        <time>2009-07-11T10:16:52Z</time>
      </trkpt>
      <trkpt lat="44.65813" lon="3.9038">
        <ele>1087</ele>
        <time>2009-07-11T10:17:07Z</time>
      </trkpt>
      <trkpt lat="44.6586" lon="3.9039">
        <ele>1089</ele>
        <time>2009-07-11T10:17:23Z</time>
      </trkpt>
      <trkpt lat="44.65895" lon="3.90399">
        <ele>1089</ele>
        <time>2009-07-11T10:17:35Z</time>
      </trkpt>
      <trkpt lat="44.65933" lon="3.90392">
        <ele>1091</ele>
        <time>2009-07-11T10:17:48Z</time>
      </trkpt>
      <trkpt lat="44.65965" lon="3.90363">
        <ele>1094</ele>
        <time>2009-07-11T10:18:02Z</time>
      </trkpt>
      <trkpt lat="44.65984" lon="3.90346">
        <ele>1095</ele>
        <time>2009-07-11T10:18:12Z</time>
      </trkpt>
      <trkpt lat="44.6599" lon="3.90345">
        <ele>1096</ele>
        <time>2009-07-11T10:18:15Z</time>
      </trkpt>
      <trkpt lat="44.66011" lon="3.90337">
        <ele>1099</ele>
        <time>2009-07-11T10:18:26Z</time>
      </trkpt>
      <trkpt lat="44.66031" lon="3.90333">
        <ele>1101</ele>
        <time>2009-07-11T10:18:42Z</time>
      </trkpt>
      <trkpt lat="44.66032" lon="3.90335">
        <ele>1100</ele>
        <time>2009-07-11T10:19:07Z</time>
      </trkpt>
      <trkpt lat="44.66032" lon="3.90334">
        <ele>1100</ele>
        <time>2009-07-11T10:19:08Z</time>
      </trkpt>
      <trkpt lat="44.66059" lon="3.90309">
        <ele>1097</ele>
        <time>2009-07-11T10:19:19Z</time>
      </trkpt>
      <trkpt lat="44.66084" lon="3.90287">
        <ele>1096</ele>
        <time>2009-07-11T10:19:26Z</time>
      </trkpt>
      <trkpt lat="44.66107" lon="3.90262">
        <ele>1095</ele>
        <time>2009-07-11T10:19:33Z</time>
      </trkpt>
      <trkpt lat="44.6612" lon="3.90254">
        <ele>1096</ele>
        <time>2009-07-11T10:19:36Z</time>
      </trkpt>
      <trkpt lat="44.66139" lon="3.90249">
        <ele>1094</ele>
        <time>2009-07-11T10:19:40Z</time>
      </trkpt>
      <trkpt lat="44.66151" lon="3.90249">
        <ele>1093</ele>
        <time>2009-07-11T10:19:42Z</time>
      </trkpt>
      <trkpt lat="44.66162" lon="3.90249">
        <ele>1092</ele>
        <time>2009-07-11T10:19:44Z</time>
      </trkpt>
      <trkpt lat="44.66174" lon="3.90248">
        <ele>1091</ele>
        <time>2009-07-11T10:19:46Z</time>
      </trkpt>
      <trkpt lat="44.66186" lon="3.90243">
        <ele>1091</ele>
        <time>2009-07-11T10:19:48Z</time>
      </trkpt>
      <trkpt lat="44.66229" lon="3.9022">
        <ele>1087</ele>
        <time>2009-07-11T10:19:55Z</time>
      </trkpt>
      <trkpt lat="44.66245" lon="3.90214">
        <ele>1086</ele>
        <time>2009-07-11T10:19:57Z</time>
      </trkpt>
      <trkpt lat="44.66282" lon="3.90213">
        <ele>1081</ele>
        <time>2009-07-11T10:20:01Z</time>
      </trkpt>
      <trkpt lat="44.66299" lon="3.9022">
        <ele>1079</ele>
        <time>2009-07-11T10:20:03Z</time>
      </trkpt>
      <trkpt lat="44.66335" lon="3.90244">
        <ele>1077</ele>
        <time>2009-07-11T10:20:08Z</time>
      </trkpt>
      <trkpt lat="44.66358" lon="3.90259">
        <ele>1071</ele>
        <time>2009-07-11T10:20:11Z</time>
      </trkpt>
      <trkpt lat="44.66367" lon="3.90264">
        <ele>1071</ele>
        <time>2009-07-11T10:20:12Z</time>
      </trkpt>
      <trkpt lat="44.66384" lon="3.90274">
        <ele>1069</ele>
        <time>2009-07-11T10:20:14Z</time>
      </trkpt>
      <trkpt lat="44.66436" lon="3.90293">
        <ele>1068</ele>
        <time>2009-07-11T10:20:20Z</time>
      </trkpt>
      <trkpt lat="44.66476" lon="3.90298">
        <ele>1068</ele>
        <time>2009-07-11T10:20:25Z</time>
      </trkpt>
      <trkpt lat="44.66505" lon="3.90309">
        <ele>1069</ele>
        <time>2009-07-11T10:20:29Z</time>
      </trkpt>
      <trkpt lat="44.66516" lon="3.90319">
        <ele>1068</ele>
        <time>2009-07-11T10:20:31Z</time>
      </trkpt>
      <trkpt lat="44.66543" lon="3.90328">
        <ele>1066</ele>
        <time>2009-07-11T10:20:35Z</time>
      </trkpt>
      <trkpt lat="44.66585" lon="3.90353">
        <ele>1061</ele>
        <time>2009-07-11T10:20:42Z</time>
      </trkpt>
      <trkpt lat="44.66597" lon="3.90362">
        <ele>1059</ele>
        <time>2009-07-11T10:20:44Z</time>
      </trkpt>
      <trkpt lat="44.66612" lon="3.90371">
        <ele>1058</ele>
        <time>2009-07-11T10:20:46Z</time>
      </trkpt>
      <trkpt lat="44.66628" lon="3.90377">
        <ele>1055</ele>
        <time>2009-07-11T10:20:48Z</time>
      </trkpt>
      <trkpt lat="44.66637" lon="3.9038">
        <ele>1055</ele>
        <time>2009-07-11T10:20:49Z</time>
      </trkpt>
      <trkpt lat="44.66672" lon="3.90397">
        <ele>1051</ele>
        <time>2009-07-11T10:20:53Z</time>
      </trkpt>
      <trkpt lat="44.6672" lon="3.90417">
        <ele>1047</ele>
        <time>2009-07-11T10:20:58Z</time>
      </trkpt>
      <trkpt lat="44.66752" lon="3.90426">
        <ele>1042</ele>
        <time>2009-07-11T10:21:01Z</time>
      </trkpt>
      <trkpt lat="44.66774" lon="3.90429">
        <ele>1038</ele>
        <time>2009-07-11T10:21:03Z</time>
      </trkpt>
      <trkpt lat="44.66785" lon="3.9043">
        <ele>1040</ele>
        <time>2009-07-11T10:21:04Z</time>
      </trkpt>
      <trkpt lat="44.66849" lon="3.90424">
        <ele>1038</ele>
        <time>2009-07-11T10:21:10Z</time>
      </trkpt>
      <trkpt lat="44.66902" lon="3.90417">
        <ele>1039</ele>
        <time>2009-07-11T10:21:16Z</time>
      </trkpt>
      <trkpt lat="44.6692" lon="3.90422">
        <ele>1041</ele>
        <time>2009-07-11T10:21:19Z</time>
      </trkpt>
      <trkpt lat="44.66926" lon="3.90425">
        <ele>1042</ele>
        <time>2009-07-11T10:21:21Z</time>
      </trkpt>
      <trkpt lat="44.66941" lon="3.90432">
        <ele>1041</ele>
        <time>2009-07-11T10:21:29Z</time>
      </trkpt>
      <trkpt lat="44.66986" lon="3.90438">
        <ele>1043</ele>
        <time>2009-07-11T10:21:44Z</time>
      </trkpt>
      <trkpt lat="44.66989" lon="3.90438">
        <ele>1043</ele>
        <time>2009-07-11T10:21:45Z</time>
      </trkpt>
      <trkpt lat="44.67043" lon="3.90423">
        <ele>1043</ele>
        <time>2009-07-11T10:22:00Z</time>
      </trkpt>
      <trkpt lat="44.67055" lon="3.90418">
        <ele>1042</ele>
        <time>2009-07-11T10:22:03Z</time>
      </trkpt>
      <trkpt lat="44.67102" lon="3.90401">
        <ele>1042</ele>
        <time>2009-07-11T10:22:16Z</time>
      </trkpt>
      <trkpt lat="44.67155" lon="3.90371">
        <ele>1043</ele>
        <time>2009-07-11T10:22:29Z</time>
      </trkpt>
      <trkpt lat="44.67162" lon="3.90366">
        <ele>1042</ele>
        <time>2009-07-11T10:22:31Z</time>
      </trkpt>
      <trkpt lat="44.6719" lon="3.90335">
        <ele>1041</ele>
        <time>2009-07-11T10:22:39Z</time>
      </trkpt>
      <trkpt lat="44.6721" lon="3.90303">
        <ele>1038</ele>
        <time>2009-07-11T10:22:45Z</time>
      </trkpt>
      <trkpt lat="44.67222" lon="3.90285">
        <ele>1035</ele>
        <time>2009-07-11T10:22:48Z</time>
      </trkpt>
      <trkpt lat="44.67226" lon="3.90277">
        <ele>1034</ele>
        <time>2009-07-11T10:22:49Z</time>
      </trkpt>
      <trkpt lat="44.67243" lon="3.90261">
        <ele>1032</ele>
        <time>2009-07-11T10:22:52Z</time>
      </trkpt>
      <trkpt lat="44.67249" lon="3.9026">
        <ele>1031</ele>
        <time>2009-07-11T10:22:53Z</time>
      </trkpt>
      <trkpt lat="44.67312" lon="3.90256">
        <ele>1028</ele>
        <time>2009-07-11T10:23:04Z</time>
      </trkpt>
      <trkpt lat="44.67338" lon="3.90255">
        <ele>1029</ele>
        <time>2009-07-11T10:23:09Z</time>
      </trkpt>
      <trkpt lat="44.67368" lon="3.90257">
        <ele>1028</ele>
        <time>2009-07-11T10:23:15Z</time>
      </trkpt>
      <trkpt lat="44.67395" lon="3.90259">
        <ele>1025</ele>
        <time>2009-07-11T10:23:20Z</time>
      </trkpt>
      <trkpt lat="44.67407" lon="3.90259">
        <ele>1025</ele>
        <time>2009-07-11T10:23:22Z</time>
      </trkpt>
      <trkpt lat="44.67446" lon="3.90248">
        <ele>1021</ele>
        <time>2009-07-11T10:23:28Z</time>
      </trkpt>
      <trkpt lat="44.67467" lon="3.9024">
        <ele>1018</ele>
        <time>2009-07-11T10:23:31Z</time>
      </trkpt>
      <trkpt lat="44.67481" lon="3.90236">
        <ele>1017</ele>
        <time>2009-07-11T10:23:33Z</time>
      </trkpt>
      <trkpt lat="44.67499" lon="3.90231">
        <ele>1012</ele>
        <time>2009-07-11T10:23:36Z</time>
      </trkpt>
      <trkpt lat="44.67511" lon="3.90226">
        <ele>1011</ele>
        <time>2009-07-11T10:23:38Z</time>
      </trkpt>
      <trkpt lat="44.67532" lon="3.90212">
        <ele>1008</ele>
        <time>2009-07-11T10:23:44Z</time>
      </trkpt>
      <trkpt lat="44.67542" lon="3.90209">
        <ele>1005</ele>
        <time>2009-07-11T10:23:46Z</time>
      </trkpt>
      <trkpt lat="44.67554" lon="3.90203">
        <ele>1004</ele>
        <time>2009-07-11T10:23:48Z</time>
      </trkpt>
      <trkpt lat="44.67565" lon="3.90196">
        <ele>1003</ele>
        <time>2009-07-11T10:23:50Z</time>
      </trkpt>
      <trkpt lat="44.67579" lon="3.90171">
        <ele>1001</ele>
        <time>2009-07-11T10:23:54Z</time>
      </trkpt>
      <trkpt lat="44.67593" lon="3.90147">
        <ele>999</ele>
        <time>2009-07-11T10:23:58Z</time>
      </trkpt>
      <trkpt lat="44.67605" lon="3.90143">
        <ele>995</ele>
        <time>2009-07-11T10:24:00Z</time>
      </trkpt>
      <trkpt lat="44.67623" lon="3.90142">
        <ele>994</ele>
        <time>2009-07-11T10:24:03Z</time>
      </trkpt>
      <trkpt lat="44.67629" lon="3.90144">
        <ele>995</ele>
        <time>2009-07-11T10:24:08Z</time>
      </trkpt>
      <trkpt lat="44.67629" lon="3.90144">
        <ele>995</ele>
        <time>2009-07-11T10:24:31Z</time>
      </trkpt>
      <trkpt lat="44.67628" lon="3.90144">
        <ele>994</ele>
        <time>2009-07-11T10:25:44Z</time>
      </trkpt>
      <trkpt lat="44.67629" lon="3.90145">
        <ele>994</ele>
        <time>2009-07-11T10:26:02Z</time>
      </trkpt>
      <trkpt lat="44.67644" lon="3.90146">
        <ele>991</ele>
        <time>2009-07-11T10:26:07Z</time>
      </trkpt>
      <trkpt lat="44.67651" lon="3.9015">
        <ele>989</ele>
        <time>2009-07-11T10:26:09Z</time>
      </trkpt>
      <trkpt lat="44.6766" lon="3.90158">
        <ele>987</ele>
        <time>2009-07-11T10:26:12Z</time>
      </trkpt>
      <trkpt lat="44.67672" lon="3.90154">
        <ele>986</ele>
        <time>2009-07-11T10:26:17Z</time>
      </trkpt>
      <trkpt lat="44.677" lon="3.90155">
        <ele>985</ele>
        <time>2009-07-11T10:26:24Z</time>
      </trkpt>
      <trkpt lat="44.67713" lon="3.90155">
        <ele>985</ele>
        <time>2009-07-11T10:26:27Z</time>
      </trkpt>
      <trkpt lat="44.67761" lon="3.90138">
        <ele>984</ele>
        <time>2009-07-11T10:26:40Z</time>
      </trkpt>
      <trkpt lat="44.67777" lon="3.90129">
        <ele>984</ele>
        <time>2009-07-11T10:26:44Z</time>
      </trkpt>
      <trkpt lat="44.6779" lon="3.90123">
        <ele>983</ele>
        <time>2009-07-11T10:26:47Z</time>
      </trkpt>
      <trkpt lat="44.67812" lon="3.90114">
        <ele>983</ele>
        <time>2009-07-11T10:26:52Z</time>
      </trkpt>
      <trkpt lat="44.67834" lon="3.90117">
        <ele>983</ele>
        <time>2009-07-11T10:26:57Z</time>
      </trkpt>
      <trkpt lat="44.67843" lon="3.90121">
        <ele>982</ele>
        <time>2009-07-11T10:26:59Z</time>
      </trkpt>
      <trkpt lat="44.67853" lon="3.9013">
        <ele>981</ele>
        <time>2009-07-11T10:27:01Z</time>
      </trkpt>
      <trkpt lat="44.67879" lon="3.90144">
        <ele>979</ele>
        <time>2009-07-11T10:27:06Z</time>
      </trkpt>
      <trkpt lat="44.67918" lon="3.90143">
        <ele>983</ele>
        <time>2009-07-11T10:27:18Z</time>
      </trkpt>
      <trkpt lat="44.67945" lon="3.90166">
        <ele>986</ele>
        <time>2009-07-11T10:27:32Z</time>
      </trkpt>
      <trkpt lat="44.67954" lon="3.90152">
        <ele>989</ele>
        <time>2009-07-11T10:27:40Z</time>
      </trkpt>
      <trkpt lat="44.67977" lon="3.90134">
        <ele>993</ele>
        <time>2009-07-11T10:27:54Z</time>
      </trkpt>
      <trkpt lat="44.68013" lon="3.90119">
        <ele>994</ele>
        <time>2009-07-11T10:28:13Z</time>
      </trkpt>
      <trkpt lat="44.68019" lon="3.90116">
        <ele>996</ele>
        <time>2009-07-11T10:28:17Z</time>
      </trkpt>
      <trkpt lat="44.68032" lon="3.90106">
        <ele>997</ele>
        <time>2009-07-11T10:28:25Z</time>
      </trkpt>
      <trkpt lat="44.68039" lon="3.90106">
        <ele>997</ele>
        <time>2009-07-11T10:28:29Z</time>
      </trkpt>
      <trkpt lat="44.6808" lon="3.9012">
        <ele>999</ele>
        <time>2009-07-11T10:28:46Z</time>
      </trkpt>
      <trkpt lat="44.68107" lon="3.90143">
        <ele>1000</ele>
        <time>2009-07-11T10:28:59Z</time>
      </trkpt>
      <trkpt lat="44.68136" lon="3.90122">
        <ele>1002</ele>
        <time>2009-07-11T10:29:12Z</time>
      </trkpt>
      <trkpt lat="44.68166" lon="3.90114">
        <ele>1005</ele>
        <time>2009-07-11T10:29:26Z</time>
      </trkpt>
      <trkpt lat="44.6817" lon="3.90113">
        <ele>1006</ele>
        <time>2009-07-11T10:29:28Z</time>
      </trkpt>
      <trkpt lat="44.68214" lon="3.90109">
        <ele>1009</ele>
        <time>2009-07-11T10:29:50Z</time>
      </trkpt>
      <trkpt lat="44.68217" lon="3.90109">
        <ele>1009</ele>
        <time>2009-07-11T10:29:51Z</time>
      </trkpt>
      <trkpt lat="44.68223" lon="3.9011">
        <ele>1011</ele>
        <time>2009-07-11T10:29:54Z</time>
      </trkpt>
      <trkpt lat="44.68235" lon="3.9011">
        <ele>1012</ele>
        <time>2009-07-11T10:30:00Z</time>
      </trkpt>
      <trkpt lat="44.68264" lon="3.9011">
        <ele>1015</ele>
        <time>2009-07-11T10:30:14Z</time>
      </trkpt>
      <trkpt lat="44.68294" lon="3.90113">
        <ele>1019</ele>
        <time>2009-07-11T10:30:28Z</time>
      </trkpt>
      <trkpt lat="44.68334" lon="3.90122">
        <ele>1020</ele>
        <time>2009-07-11T10:30:45Z</time>
      </trkpt>
      <trkpt lat="44.68371" lon="3.90135">
        <ele>1024</ele>
        <time>2009-07-11T10:31:01Z</time>
      </trkpt>
      <trkpt lat="44.6839" lon="3.90143">
        <ele>1027</ele>
        <time>2009-07-11T10:31:10Z</time>
      </trkpt>
      <trkpt lat="44.68441" lon="3.90164">
        <ele>1028</ele>
        <time>2009-07-11T10:31:30Z</time>
      </trkpt>
      <trkpt lat="44.68469" lon="3.9017">
        <ele>1031</ele>
        <time>2009-07-11T10:31:41Z</time>
      </trkpt>
      <trkpt lat="44.68508" lon="3.90163">
        <ele>1034</ele>
        <time>2009-07-11T10:31:57Z</time>
      </trkpt>
      <trkpt lat="44.68546" lon="3.90152">
        <ele>1038</ele>
        <time>2009-07-11T10:32:11Z</time>
      </trkpt>
      <trkpt lat="44.68601" lon="3.90121">
        <ele>1039</ele>
        <time>2009-07-11T10:32:32Z</time>
      </trkpt>
      <trkpt lat="44.68624" lon="3.90109">
        <ele>1042</ele>
        <time>2009-07-11T10:32:47Z</time>
      </trkpt>
      <trkpt lat="44.68622" lon="3.90109">
        <ele>1041</ele>
        <time>2009-07-11T10:33:09Z</time>
      </trkpt>
      <trkpt lat="44.68621" lon="3.90108">
        <ele>1041</ele>
        <time>2009-07-11T10:34:52Z</time>
      </trkpt>
      <trkpt lat="44.68639" lon="3.90098">
        <ele>1040</ele>
        <time>2009-07-11T10:35:14Z</time>
      </trkpt>
      <trkpt lat="44.68698" lon="3.90075">
        <ele>1036</ele>
        <time>2009-07-11T10:35:26Z</time>
      </trkpt>
      <trkpt lat="44.68703" lon="3.90074">
        <ele>1037</ele>
        <time>2009-07-11T10:35:27Z</time>
      </trkpt>
      <trkpt lat="44.68783" lon="3.90041">
        <ele>1035</ele>
        <time>2009-07-11T10:35:43Z</time>
      </trkpt>
      <trkpt lat="44.6884" lon="3.90031">
        <ele>1030</ele>
        <time>2009-07-11T10:35:55Z</time>
      </trkpt>
      <trkpt lat="44.68861" lon="3.90029">
        <ele>1027</ele>
        <time>2009-07-11T10:35:58Z</time>
      </trkpt>
      <trkpt lat="44.68902" lon="3.90027">
        <ele>1023</ele>
        <time>2009-07-11T10:36:03Z</time>
      </trkpt>
      <trkpt lat="44.68965" lon="3.90016">
        <ele>1020</ele>
        <time>2009-07-11T10:36:10Z</time>
      </trkpt>
      <trkpt lat="44.69024" lon="3.90009">
        <ele>1016</ele>
        <time>2009-07-11T10:36:17Z</time>
      </trkpt>
      <trkpt lat="44.6907" lon="3.90005">
        <ele>1015</ele>
        <time>2009-07-11T10:36:22Z</time>
      </trkpt>
      <trkpt lat="44.69105" lon="3.90001">
        <ele>1013</ele>
        <time>2009-07-11T10:36:26Z</time>
      </trkpt>
      <trkpt lat="44.69139" lon="3.90007">
        <ele>1009</ele>
        <time>2009-07-11T10:36:30Z</time>
      </trkpt>
      <trkpt lat="44.69149" lon="3.90008">
        <ele>1009</ele>
        <time>2009-07-11T10:36:31Z</time>
      </trkpt>
      <trkpt lat="44.69174" lon="3.90013">
        <ele>1006</ele>
        <time>2009-07-11T10:36:34Z</time>
      </trkpt>
      <trkpt lat="44.6919" lon="3.90012">
        <ele>1004</ele>
        <time>2009-07-11T10:36:36Z</time>
      </trkpt>
      <trkpt lat="44.69215" lon="3.90005">
        <ele>1001</ele>
        <time>2009-07-11T10:36:39Z</time>
      </trkpt>
      <trkpt lat="44.69242" lon="3.89991">
        <ele>997</ele>
        <time>2009-07-11T10:36:42Z</time>
      </trkpt>
      <trkpt lat="44.69277" lon="3.8997">
        <ele>994</ele>
        <time>2009-07-11T10:36:46Z</time>
      </trkpt>
      <trkpt lat="44.69311" lon="3.89955">
        <ele>991</ele>
        <time>2009-07-11T10:36:50Z</time>
      </trkpt>
      <trkpt lat="44.69337" lon="3.89941">
        <ele>987</ele>
        <time>2009-07-11T10:36:53Z</time>
      </trkpt>
      <trkpt lat="44.69353" lon="3.8993">
        <ele>983</ele>
        <time>2009-07-11T10:36:55Z</time>
      </trkpt>
      <trkpt lat="44.69362" lon="3.89924">
        <ele>983</ele>
        <time>2009-07-11T10:36:56Z</time>
      </trkpt>
      <trkpt lat="44.6938" lon="3.89912">
        <ele>982</ele>
        <time>2009-07-11T10:36:58Z</time>
      </trkpt>
      <trkpt lat="44.69406" lon="3.89889">
        <ele>978</ele>
        <time>2009-07-11T10:37:01Z</time>
      </trkpt>
      <trkpt lat="44.6944" lon="3.89859">
        <ele>975</ele>
        <time>2009-07-11T10:37:05Z</time>
      </trkpt>
      <trkpt lat="44.69466" lon="3.89842">
        <ele>974</ele>
        <time>2009-07-11T10:37:08Z</time>
      </trkpt>
      <trkpt lat="44.69491" lon="3.89823">
        <ele>970</ele>
        <time>2009-07-11T10:37:11Z</time>
      </trkpt>
      <trkpt lat="44.69512" lon="3.89801">
        <ele>967</ele>
        <time>2009-07-11T10:37:14Z</time>
      </trkpt>
      <trkpt lat="44.69539" lon="3.89758">
        <ele>962</ele>
        <time>2009-07-11T10:37:19Z</time>
      </trkpt>
      <trkpt lat="44.69555" lon="3.89732">
        <ele>960</ele>
        <time>2009-07-11T10:37:22Z</time>
      </trkpt>
      <trkpt lat="44.69566" lon="3.89716">
        <ele>957</ele>
        <time>2009-07-11T10:37:24Z</time>
      </trkpt>
      <trkpt lat="44.69586" lon="3.89694">
        <ele>954</ele>
        <time>2009-07-11T10:37:27Z</time>
      </trkpt>
      <trkpt lat="44.69618" lon="3.89672">
        <ele>952</ele>
        <time>2009-07-11T10:37:31Z</time>
      </trkpt>
      <trkpt lat="44.69657" lon="3.89662">
        <ele>953</ele>
        <time>2009-07-11T10:37:37Z</time>
      </trkpt>
      <trkpt lat="44.6969" lon="3.89673">
        <ele>954</ele>
        <time>2009-07-11T10:37:46Z</time>
      </trkpt>
      <trkpt lat="44.69713" lon="3.89688">
        <ele>954</ele>
        <time>2009-07-11T10:37:52Z</time>
      </trkpt>
      <trkpt lat="44.6973" lon="3.89692">
        <ele>954</ele>
        <time>2009-07-11T10:37:56Z</time>
      </trkpt>
      <trkpt lat="44.69751" lon="3.89696">
        <ele>954</ele>
        <time>2009-07-11T10:38:02Z</time>
      </trkpt>
      <trkpt lat="44.69755" lon="3.89695">
        <ele>954</ele>
        <time>2009-07-11T10:38:05Z</time>
      </trkpt>
      <trkpt lat="44.69765" lon="3.89692">
        <ele>954</ele>
        <time>2009-07-11T10:38:13Z</time>
      </trkpt>
      <trkpt lat="44.69782" lon="3.89663">
        <ele>954</ele>
        <time>2009-07-11T10:38:24Z</time>
      </trkpt>
      <trkpt lat="44.69819" lon="3.89614">
        <ele>954</ele>
        <time>2009-07-11T10:38:39Z</time>
      </trkpt>
      <trkpt lat="44.69866" lon="3.8958">
        <ele>952</ele>
        <time>2009-07-11T10:38:54Z</time>
      </trkpt>
      <trkpt lat="44.69892" lon="3.89568">
        <ele>951</ele>
        <time>2009-07-11T10:39:02Z</time>
      </trkpt>
      <trkpt lat="44.69921" lon="3.89559">
        <ele>953</ele>
        <time>2009-07-11T10:39:09Z</time>
      </trkpt>
      <trkpt lat="44.69978" lon="3.89554">
        <ele>954</ele>
        <time>2009-07-11T10:39:25Z</time>
      </trkpt>
      <trkpt lat="44.70021" lon="3.89557">
        <ele>956</ele>
        <time>2009-07-11T10:39:38Z</time>
      </trkpt>
      <trkpt lat="44.70078" lon="3.8957">
        <ele>956</ele>
        <time>2009-07-11T10:39:55Z</time>
      </trkpt>
      <trkpt lat="44.70102" lon="3.89577">
        <ele>957</ele>
        <time>2009-07-11T10:40:02Z</time>
      </trkpt>
      <trkpt lat="44.70135" lon="3.89581">
        <ele>957</ele>
        <time>2009-07-11T10:40:13Z</time>
      </trkpt>
      <trkpt lat="44.70176" lon="3.89552">
        <ele>956</ele>
        <time>2009-07-11T10:40:27Z</time>
      </trkpt>
      <trkpt lat="44.70195" lon="3.89538">
        <ele>955</ele>
        <time>2009-07-11T10:40:33Z</time>
      </trkpt>
      <trkpt lat="44.70229" lon="3.8953">
        <ele>956</ele>
        <time>2009-07-11T10:40:45Z</time>
      </trkpt>
      <trkpt lat="44.70274" lon="3.8954">
        <ele>959</ele>
        <time>2009-07-11T10:41:03Z</time>
      </trkpt>
      <trkpt lat="44.70278" lon="3.89541">
        <ele>960</ele>
        <time>2009-07-11T10:41:05Z</time>
      </trkpt>
      <trkpt lat="44.70284" lon="3.89549">
        <ele>960</ele>
        <time>2009-07-11T10:41:19Z</time>
      </trkpt>
      <trkpt lat="44.70282" lon="3.89543">
        <ele>960</ele>
        <time>2009-07-11T10:41:37Z</time>
      </trkpt>
      <trkpt lat="44.7028" lon="3.89543">
        <ele>960</ele>
        <time>2009-07-11T10:41:40Z</time>
      </trkpt>
      <trkpt lat="44.70276" lon="3.89536">
        <ele>959</ele>
        <time>2009-07-11T10:41:59Z</time>
      </trkpt>
      <trkpt lat="44.70269" lon="3.89534">
        <ele>959</ele>
        <time>2009-07-11T10:42:13Z</time>
      </trkpt>
      <trkpt lat="44.70261" lon="3.89537">
        <ele>958</ele>
        <time>2009-07-11T10:42:24Z</time>
      </trkpt>
      <trkpt lat="44.70238" lon="3.89537">
        <ele>957</ele>
        <time>2009-07-11T10:42:37Z</time>
      </trkpt>
      <trkpt lat="44.70207" lon="3.89531">
        <ele>955</ele>
        <time>2009-07-11T10:42:49Z</time>
      </trkpt>
      <trkpt lat="44.702" lon="3.89535">
        <ele>956</ele>
        <time>2009-07-11T10:43:01Z</time>
      </trkpt>
      <trkpt lat="44.70182" lon="3.89547">
        <ele>955</ele>
        <time>2009-07-11T10:43:19Z</time>
      </trkpt>
      <trkpt lat="44.70183" lon="3.89546">
        <ele>950</ele>
        <time>2009-07-11T10:43:36Z</time>
      </trkpt>
      <trkpt lat="44.70183" lon="3.89546">
        <ele>954</ele>
        <time>2009-07-11T10:43:37Z</time>
      </trkpt>
      <trkpt lat="44.70183" lon="3.89546">
        <ele>958</ele>
        <time>2009-07-11T10:43:38Z</time>
      </trkpt>
      <trkpt lat="44.70183" lon="3.89545">
        <ele>955</ele>
        <time>2009-07-11T10:43:39Z</time>
      </trkpt>
      <trkpt lat="44.70177" lon="3.8955">
        <ele>954</ele>
        <time>2009-07-11T10:43:55Z</time>
      </trkpt>
      <trkpt lat="44.70162" lon="3.89564">
        <ele>958</ele>
        <time>2009-07-11T10:44:06Z</time>
      </trkpt>
      <trkpt lat="44.70143" lon="3.89576">
        <ele>956</ele>
        <time>2009-07-11T10:44:18Z</time>
      </trkpt>
      <trkpt lat="44.70119" lon="3.89585">
        <ele>956</ele>
        <time>2009-07-11T10:44:28Z</time>
      </trkpt>
      <trkpt lat="44.70083" lon="3.89569">
        <ele>955</ele>
        <time>2009-07-11T10:44:41Z</time>
      </trkpt>
      <trkpt lat="44.70038" lon="3.89557">
        <ele>955</ele>
        <time>2009-07-11T10:44:58Z</time>
      </trkpt>
      <trkpt lat="44.69996" lon="3.89552">
        <ele>953</ele>
        <time>2009-07-11T10:45:13Z</time>
      </trkpt>
      <trkpt lat="44.69943" lon="3.89553">
        <ele>953</ele>
        <time>2009-07-11T10:45:28Z</time>
      </trkpt>
      <trkpt lat="44.69885" lon="3.89568">
        <ele>952</ele>
        <time>2009-07-11T10:45:44Z</time>
      </trkpt>
      <trkpt lat="44.69833" lon="3.89596">
        <ele>952</ele>
        <time>2009-07-11T10:45:59Z</time>
      </trkpt>
      <trkpt lat="44.6979" lon="3.8964">
        <ele>952</ele>
        <time>2009-07-11T10:46:14Z</time>
      </trkpt>
      <trkpt lat="44.69763" lon="3.89688">
        <ele>953</ele>
        <time>2009-07-11T10:46:27Z</time>
      </trkpt>
      <trkpt lat="44.6976" lon="3.89693">
        <ele>952</ele>
        <time>2009-07-11T10:46:29Z</time>
      </trkpt>
      <trkpt lat="44.69738" lon="3.89695">
        <ele>954</ele>
        <time>2009-07-11T10:46:39Z</time>
      </trkpt>
      <trkpt lat="44.69733" lon="3.89693">
        <ele>954</ele>
        <time>2009-07-11T10:46:53Z</time>
      </trkpt>
      <trkpt lat="44.69706" lon="3.89688">
        <ele>954</ele>
        <time>2009-07-11T10:47:04Z</time>
      </trkpt>
      <trkpt lat="44.69702" lon="3.89684">
        <ele>954</ele>
        <time>2009-07-11T10:47:12Z</time>
      </trkpt>
      <trkpt lat="44.69718" lon="3.89689">
        <ele>954</ele>
        <time>2009-07-11T10:47:22Z</time>
      </trkpt>
      <trkpt lat="44.6974" lon="3.8969">
        <ele>953</ele>
        <time>2009-07-11T10:47:31Z</time>
      </trkpt>
      <trkpt lat="44.69741" lon="3.8968">
        <ele>953</ele>
        <time>2009-07-11T10:47:38Z</time>
      </trkpt>
      <trkpt lat="44.69719" lon="3.8964">
        <ele>951</ele>
        <time>2009-07-11T10:47:53Z</time>
      </trkpt>
      <trkpt lat="44.69707" lon="3.89624">
        <ele>951</ele>
        <time>2009-07-11T10:48:04Z</time>
      </trkpt>
      <trkpt lat="44.69697" lon="3.89597">
        <ele>951</ele>
        <time>2009-07-11T10:48:17Z</time>
      </trkpt>
      <trkpt lat="44.69693" lon="3.8959">
        <ele>952</ele>
        <time>2009-07-11T10:48:23Z</time>
      </trkpt>
      <trkpt lat="44.69691" lon="3.89589">
        <ele>950</ele>
        <time>2009-07-11T10:48:25Z</time>
      </trkpt>
      <trkpt lat="44.6969" lon="3.89587">
        <ele>952</ele>
        <time>2009-07-11T10:48:28Z</time>
      </trkpt>
      <trkpt lat="44.69692" lon="3.89586">
        <ele>951</ele>
        <time>2009-07-11T10:48:30Z</time>
      </trkpt>
      <trkpt lat="44.69698" lon="3.89593">
        <ele>951</ele>
        <time>2009-07-11T10:48:34Z</time>
      </trkpt>
      <trkpt lat="44.69716" lon="3.89635">
        <ele>953</ele>
        <time>2009-07-11T10:48:49Z</time>
      </trkpt>
      <trkpt lat="44.69737" lon="3.89668">
        <ele>953</ele>
        <time>2009-07-11T10:49:02Z</time>
      </trkpt>
      <trkpt lat="44.69745" lon="3.89693">
        <ele>954</ele>
        <time>2009-07-11T10:49:11Z</time>
      </trkpt>
      <trkpt lat="44.69756" lon="3.89696">
        <ele>952</ele>
        <time>2009-07-11T10:49:18Z</time>
      </trkpt>
      <trkpt lat="44.69761" lon="3.89695">
        <ele>952</ele>
        <time>2009-07-11T10:49:20Z</time>
      </trkpt>
      <trkpt lat="44.69768" lon="3.89686">
        <ele>953</ele>
        <time>2009-07-11T10:49:24Z</time>
      </trkpt>
      <trkpt lat="44.69789" lon="3.89648">
        <ele>955</ele>
        <time>2009-07-11T10:49:39Z</time>
      </trkpt>
      <trkpt lat="44.69817" lon="3.89615">
        <ele>954</ele>
        <time>2009-07-11T10:49:52Z</time>
      </trkpt>
      <trkpt lat="44.69837" lon="3.89597">
        <ele>953</ele>
        <time>2009-07-11T10:49:58Z</time>
      </trkpt>
      <trkpt lat="44.69889" lon="3.8957">
        <ele>953</ele>
        <time>2009-07-11T10:50:13Z</time>
      </trkpt>
      <trkpt lat="44.69919" lon="3.8956">
        <ele>953</ele>
        <time>2009-07-11T10:50:22Z</time>
      </trkpt>
      <trkpt lat="44.69966" lon="3.89555">
        <ele>955</ele>
        <time>2009-07-11T10:50:37Z</time>
      </trkpt>
      <trkpt lat="44.70013" lon="3.89557">
        <ele>954</ele>
        <time>2009-07-11T10:50:52Z</time>
      </trkpt>
      <trkpt lat="44.70045" lon="3.89561">
        <ele>954</ele>
        <time>2009-07-11T10:51:04Z</time>
      </trkpt>
      <trkpt lat="44.70048" lon="3.89562">
        <ele>954</ele>
        <time>2009-07-11T10:51:30Z</time>
      </trkpt>
      <trkpt lat="44.7004" lon="3.89562">
        <ele>954</ele>
        <time>2009-07-11T10:51:41Z</time>
      </trkpt>
      <trkpt lat="44.7004" lon="3.89562">
        <ele>954</ele>
        <time>2009-07-11T10:51:42Z</time>
      </trkpt>
      <trkpt lat="44.70006" lon="3.89557">
        <ele>954</ele>
        <time>2009-07-11T10:51:55Z</time>
      </trkpt>
      <trkpt lat="44.69966" lon="3.89554">
        <ele>953</ele>
        <time>2009-07-11T10:52:09Z</time>
      </trkpt>
      <trkpt lat="44.69967" lon="3.8955">
        <ele>953</ele>
        <time>2009-07-11T10:52:22Z</time>
      </trkpt>
      <trkpt lat="44.69966" lon="3.89548">
        <ele>952</ele>
        <time>2009-07-11T10:52:36Z</time>
      </trkpt>
      <trkpt lat="44.69958" lon="3.89522">
        <ele>953</ele>
        <time>2009-07-11T10:52:51Z</time>
      </trkpt>
      <trkpt lat="44.69956" lon="3.89519">
        <ele>953</ele>
        <time>2009-07-11T10:53:04Z</time>
      </trkpt>
      <trkpt lat="44.69954" lon="3.89516">
        <ele>951</ele>
        <time>2009-07-11T10:53:16Z</time>
      </trkpt>
      <trkpt lat="44.69952" lon="3.89515">
        <ele>950</ele>
        <time>2009-07-11T10:53:30Z</time>
      </trkpt>
      <trkpt lat="44.6995" lon="3.89511">
        <ele>950</ele>
        <time>2009-07-11T10:53:36Z</time>
      </trkpt>
      <trkpt lat="44.69946" lon="3.89493">
        <ele>950</ele>
        <time>2009-07-11T10:53:48Z</time>
      </trkpt>
      <trkpt lat="44.69952" lon="3.89489">
        <ele>951</ele>
        <time>2009-07-11T10:53:55Z</time>
      </trkpt>
      <trkpt lat="44.69974" lon="3.89484">
        <ele>952</ele>
        <time>2009-07-11T10:54:13Z</time>
      </trkpt>
      <trkpt lat="44.69976" lon="3.89485">
        <ele>951</ele>
        <time>2009-07-11T10:54:34Z</time>
      </trkpt>
      <trkpt lat="44.69982" lon="3.89484">
        <ele>949</ele>
        <time>2009-07-11T10:55:02Z</time>
      </trkpt>
      <trkpt lat="44.6999" lon="3.89483">
        <ele>952</ele>
        <time>2009-07-11T10:55:06Z</time>
      </trkpt>
      <trkpt lat="44.69993" lon="3.89483">
        <ele>952</ele>
        <time>2009-07-11T10:55:07Z</time>
      </trkpt>
      <trkpt lat="44.70038" lon="3.89482">
        <ele>952</ele>
        <time>2009-07-11T10:55:24Z</time>
      </trkpt>
      <trkpt lat="44.70081" lon="3.89467">
        <ele>951</ele>
        <time>2009-07-11T10:55:41Z</time>
      </trkpt>
      <trkpt lat="44.7012" lon="3.89473">
        <ele>953</ele>
        <time>2009-07-11T10:55:56Z</time>
      </trkpt>
      <trkpt lat="44.70169" lon="3.89473">
        <ele>953</ele>
        <time>2009-07-11T10:56:14Z</time>
      </trkpt>
      <trkpt lat="44.7019" lon="3.89465">
        <ele>955</ele>
        <time>2009-07-11T10:56:23Z</time>
      </trkpt>
      <trkpt lat="44.70208" lon="3.89453">
        <ele>956</ele>
        <time>2009-07-11T10:56:32Z</time>
      </trkpt>
      <trkpt lat="44.7024" lon="3.89432">
        <ele>957</ele>
        <time>2009-07-11T10:56:48Z</time>
      </trkpt>
      <trkpt lat="44.70264" lon="3.8942">
        <ele>958</ele>
        <time>2009-07-11T10:56:59Z</time>
      </trkpt>
      <trkpt lat="44.70286" lon="3.89402">
        <ele>958</ele>
        <time>2009-07-11T10:57:14Z</time>
      </trkpt>
      <trkpt lat="44.70286" lon="3.89402">
        <ele>958</ele>
        <time>2009-07-11T10:57:15Z</time>
      </trkpt>
      <trkpt lat="44.70283" lon="3.89388">
        <ele>959</ele>
        <time>2009-07-11T10:57:28Z</time>
      </trkpt>
      <trkpt lat="44.70276" lon="3.89371">
        <ele>958</ele>
        <time>2009-07-11T10:57:35Z</time>
      </trkpt>
      <trkpt lat="44.70255" lon="3.89324">
        <ele>960</ele>
        <time>2009-07-11T10:57:51Z</time>
      </trkpt>
      <trkpt lat="44.70239" lon="3.89307">
        <ele>961</ele>
        <time>2009-07-11T10:58:00Z</time>
      </trkpt>
      <trkpt lat="44.70236" lon="3.89299">
        <ele>960</ele>
        <time>2009-07-11T10:58:04Z</time>
      </trkpt>
      <trkpt lat="44.70212" lon="3.89279">
        <ele>961</ele>
        <time>2009-07-11T10:58:18Z</time>
      </trkpt>
      <trkpt lat="44.70186" lon="3.89271">
        <ele>962</ele>
        <time>2009-07-11T10:58:34Z</time>
      </trkpt>
      <trkpt lat="44.70185" lon="3.89269">
        <ele>962</ele>
        <time>2009-07-11T10:58:49Z</time>
      </trkpt>
      <trkpt lat="44.7017" lon="3.89258">
        <ele>966</ele>
        <time>2009-07-11T10:59:00Z</time>
      </trkpt>
      <trkpt lat="44.70157" lon="3.89244">
        <ele>968</ele>
        <time>2009-07-11T10:59:13Z</time>
      </trkpt>
      <trkpt lat="44.7015" lon="3.89234">
        <ele>969</ele>
        <time>2009-07-11T10:59:27Z</time>
      </trkpt>
      <trkpt lat="44.70145" lon="3.89223">
        <ele>970</ele>
        <time>2009-07-11T10:59:40Z</time>
      </trkpt>
      <trkpt lat="44.7014" lon="3.89211">
        <ele>971</ele>
        <time>2009-07-11T10:59:59Z</time>
      </trkpt>
      <trkpt lat="44.70142" lon="3.89209">
        <ele>971</ele>
        <time>2009-07-11T11:00:02Z</time>
      </trkpt>
      <trkpt lat="44.70149" lon="3.89203">
        <ele>975</ele>
        <time>2009-07-11T11:00:11Z</time>
      </trkpt>
      <trkpt lat="44.7015" lon="3.89202">
        <ele>974</ele>
        <time>2009-07-11T11:00:12Z</time>
      </trkpt>
      <trkpt lat="44.70161" lon="3.89195">
        <ele>978</ele>
        <time>2009-07-11T11:00:25Z</time>
      </trkpt>
      <trkpt lat="44.70165" lon="3.89184">
        <ele>981</ele>
        <time>2009-07-11T11:00:36Z</time>
      </trkpt>
      <trkpt lat="44.70168" lon="3.89178">
        <ele>982</ele>
        <time>2009-07-11T11:00:43Z</time>
      </trkpt>
      <trkpt lat="44.70177" lon="3.89167">
        <ele>984</ele>
        <time>2009-07-11T11:00:57Z</time>
      </trkpt>
      <trkpt lat="44.7019" lon="3.8916">
        <ele>987</ele>
        <time>2009-07-11T11:01:15Z</time>
      </trkpt>
      <trkpt lat="44.70202" lon="3.89162">
        <ele>987</ele>
        <time>2009-07-11T11:02:57Z</time>
      </trkpt>
      <trkpt lat="44.702" lon="3.89165">
        <ele>987</ele>
        <time>2009-07-11T11:03:10Z</time>
      </trkpt>
      <trkpt lat="44.70196" lon="3.89169">
        <ele>987</ele>
        <time>2009-07-11T11:04:48Z</time>
      </trkpt>
      <trkpt lat="44.70208" lon="3.89174">
        <ele>988</ele>
        <time>2009-07-11T11:04:56Z</time>
      </trkpt>
      <trkpt lat="44.70235" lon="3.89186">
        <ele>986</ele>
        <time>2009-07-11T11:05:09Z</time>
      </trkpt>
      <trkpt lat="44.70236" lon="3.89186">
        <ele>986</ele>
        <time>2009-07-11T11:05:21Z</time>
      </trkpt>
      <trkpt lat="44.70248" lon="3.89194">
        <ele>984</ele>
        <time>2009-07-11T11:05:27Z</time>
      </trkpt>
      <trkpt lat="44.70253" lon="3.89196">
        <ele>983</ele>
        <time>2009-07-11T11:05:42Z</time>
      </trkpt>
      <trkpt lat="44.70256" lon="3.89198">
        <ele>986</ele>
        <time>2009-07-11T11:06:53Z</time>
      </trkpt>
      <trkpt lat="44.70254" lon="3.89194">
        <ele>986</ele>
        <time>2009-07-11T11:07:04Z</time>
      </trkpt>
      <trkpt lat="44.70244" lon="3.8919">
        <ele>985</ele>
        <time>2009-07-11T11:07:14Z</time>
      </trkpt>
      <trkpt lat="44.70252" lon="3.89191">
        <ele>984</ele>
        <time>2009-07-11T11:07:59Z</time>
      </trkpt>
      <trkpt lat="44.70246" lon="3.89182">
        <ele>983</ele>
        <time>2009-07-11T11:08:46Z</time>
      </trkpt>
      <trkpt lat="44.70247" lon="3.89177">
        <ele>980</ele>
        <time>2009-07-11T11:09:22Z</time>
      </trkpt>
      <trkpt lat="44.70245" lon="3.89184">
        <ele>981</ele>
        <time>2009-07-11T11:10:19Z</time>
      </trkpt>
      <trkpt lat="44.70244" lon="3.89188">
        <ele>979</ele>
        <time>2009-07-11T11:10:35Z</time>
      </trkpt>
      <trkpt lat="44.70239" lon="3.89192">
        <ele>980</ele>
        <time>2009-07-11T11:11:21Z</time>
      </trkpt>
      <trkpt lat="44.70238" lon="3.8919">
        <ele>981</ele>
        <time>2009-07-11T11:11:27Z</time>
      </trkpt>
      <trkpt lat="44.70231" lon="3.89184">
        <ele>981</ele>
        <time>2009-07-11T11:11:33Z</time>
      </trkpt>
      <trkpt lat="44.7021" lon="3.89162">
        <ele>984</ele>
        <time>2009-07-11T11:11:48Z</time>
      </trkpt>
      <trkpt lat="44.70207" lon="3.89156">
        <ele>985</ele>
        <time>2009-07-11T11:11:51Z</time>
      </trkpt>
      <trkpt lat="44.70208" lon="3.89147">
        <ele>986</ele>
        <time>2009-07-11T11:11:55Z</time>
      </trkpt>
      <trkpt lat="44.70236" lon="3.89136">
        <ele>987</ele>
        <time>2009-07-11T11:12:11Z</time>
      </trkpt>
      <trkpt lat="44.7025" lon="3.89132">
        <ele>989</ele>
        <time>2009-07-11T11:12:21Z</time>
      </trkpt>
      <trkpt lat="44.70263" lon="3.89129">
        <ele>991</ele>
        <time>2009-07-11T11:12:30Z</time>
      </trkpt>
      <trkpt lat="44.70272" lon="3.89129">
        <ele>993</ele>
        <time>2009-07-11T11:12:37Z</time>
      </trkpt>
      <trkpt lat="44.70284" lon="3.89127">
        <ele>994</ele>
        <time>2009-07-11T11:12:46Z</time>
      </trkpt>
      <trkpt lat="44.70298" lon="3.89126">
        <ele>995</ele>
        <time>2009-07-11T11:12:54Z</time>
      </trkpt>
      <trkpt lat="44.70308" lon="3.89127">
        <ele>996</ele>
        <time>2009-07-11T11:13:00Z</time>
      </trkpt>
      <trkpt lat="44.70327" lon="3.89129">
        <ele>999</ele>
        <time>2009-07-11T11:13:11Z</time>
      </trkpt>
      <trkpt lat="44.70342" lon="3.8913">
        <ele>1002</ele>
        <time>2009-07-11T11:13:21Z</time>
      </trkpt>
      <trkpt lat="44.70367" lon="3.89134">
        <ele>1005</ele>
        <time>2009-07-11T11:13:36Z</time>
      </trkpt>
      <trkpt lat="44.7038" lon="3.89136">
        <ele>1006</ele>
        <time>2009-07-11T11:13:43Z</time>
      </trkpt>
      <trkpt lat="44.70396" lon="3.89139">
        <ele>1008</ele>
        <time>2009-07-11T11:13:53Z</time>
      </trkpt>
      <trkpt lat="44.70404" lon="3.8914">
        <ele>1009</ele>
        <time>2009-07-11T11:13:58Z</time>
      </trkpt>
      <trkpt lat="44.70427" lon="3.89145">
        <ele>1013</ele>
        <time>2009-07-11T11:14:12Z</time>
      </trkpt>
      <trkpt lat="44.70444" lon="3.89149">
        <ele>1016</ele>
        <time>2009-07-11T11:14:25Z</time>
      </trkpt>
      <trkpt lat="44.70463" lon="3.89152">
        <ele>1018</ele>
        <time>2009-07-11T11:14:38Z</time>
      </trkpt>
      <trkpt lat="44.70484" lon="3.89156">
        <ele>1020</ele>
        <time>2009-07-11T11:14:50Z</time>
      </trkpt>
      <trkpt lat="44.70511" lon="3.89167">
        <ele>1021</ele>
        <time>2009-07-11T11:15:02Z</time>
      </trkpt>
      <trkpt lat="44.70546" lon="3.89182">
        <ele>1022</ele>
        <time>2009-07-11T11:15:15Z</time>
      </trkpt>
      <trkpt lat="44.70552" lon="3.89184">
        <ele>1021</ele>
        <time>2009-07-11T11:15:17Z</time>
      </trkpt>
      <trkpt lat="44.70582" lon="3.89198">
        <ele>1023</ele>
        <time>2009-07-11T11:15:28Z</time>
      </trkpt>
      <trkpt lat="44.7062" lon="3.89215">
        <ele>1024</ele>
        <time>2009-07-11T11:15:40Z</time>
      </trkpt>
      <trkpt lat="44.70652" lon="3.89233">
        <ele>1025</ele>
        <time>2009-07-11T11:15:52Z</time>
      </trkpt>
      <trkpt lat="44.70679" lon="3.89245">
        <ele>1025</ele>
        <time>2009-07-11T11:16:03Z</time>
      </trkpt>
      <trkpt lat="44.70711" lon="3.89263">
        <ele>1026</ele>
        <time>2009-07-11T11:16:15Z</time>
      </trkpt>
      <trkpt lat="44.70748" lon="3.89286">
        <ele>1026</ele>
        <time>2009-07-11T11:16:29Z</time>
      </trkpt>
      <trkpt lat="44.70775" lon="3.89301">
        <ele>1027</ele>
        <time>2009-07-11T11:16:38Z</time>
      </trkpt>
      <trkpt lat="44.70826" lon="3.89327">
        <ele>1026</ele>
        <time>2009-07-11T11:16:50Z</time>
      </trkpt>
      <trkpt lat="44.70856" lon="3.89345">
        <ele>1026</ele>
        <time>2009-07-11T11:16:59Z</time>
      </trkpt>
      <trkpt lat="44.70906" lon="3.89373">
        <ele>1027</ele>
        <time>2009-07-11T11:17:12Z</time>
      </trkpt>
      <trkpt lat="44.70956" lon="3.89399">
        <ele>1027</ele>
        <time>2009-07-11T11:17:26Z</time>
      </trkpt>
      <trkpt lat="44.70981" lon="3.8941">
        <ele>1029</ele>
        <time>2009-07-11T11:17:33Z</time>
      </trkpt>
      <trkpt lat="44.7103" lon="3.89442">
        <ele>1031</ele>
        <time>2009-07-11T11:17:49Z</time>
      </trkpt>
      <trkpt lat="44.71088" lon="3.89458">
        <ele>1033</ele>
        <time>2009-07-11T11:18:07Z</time>
      </trkpt>
      <trkpt lat="44.71127" lon="3.89469">
        <ele>1032</ele>
        <time>2009-07-11T11:18:19Z</time>
      </trkpt>
      <trkpt lat="44.71149" lon="3.89479">
        <ele>1032</ele>
        <time>2009-07-11T11:18:31Z</time>
      </trkpt>
      <trkpt lat="44.7115" lon="3.89479">
        <ele>1029</ele>
        <time>2009-07-11T11:18:48Z</time>
      </trkpt>
      <trkpt lat="44.7115" lon="3.89479">
        <ele>1035</ele>
        <time>2009-07-11T11:18:49Z</time>
      </trkpt>
      <trkpt lat="44.7115" lon="3.89479">
        <ele>1032</ele>
        <time>2009-07-11T11:18:50Z</time>
      </trkpt>
      <trkpt lat="44.7115" lon="3.89479">
        <ele>1035</ele>
        <time>2009-07-11T11:18:54Z</time>
      </trkpt>
      <trkpt lat="44.7115" lon="3.89479">
        <ele>1031</ele>
        <time>2009-07-11T11:18:55Z</time>
      </trkpt>
      <trkpt lat="44.7115" lon="3.89479">
        <ele>1035</ele>
        <time>2009-07-11T11:18:56Z</time>
      </trkpt>
      <trkpt lat="44.7115" lon="3.89479">
        <ele>1034</ele>
        <time>2009-07-11T11:19:01Z</time>
      </trkpt>
      <trkpt lat="44.7115" lon="3.89479">
        <ele>1032</ele>
        <time>2009-07-11T11:19:03Z</time>
      </trkpt>
      <trkpt lat="44.71148" lon="3.8948">
        <ele>1034</ele>
        <time>2009-07-11T11:20:16Z</time>
      </trkpt>
      <trkpt lat="44.71148" lon="3.8948">
        <ele>1033</ele>
        <time>2009-07-11T11:20:32Z</time>
      </trkpt>
      <trkpt lat="44.71148" lon="3.8948">
        <ele>1034</ele>
        <time>2009-07-11T11:20:34Z</time>
      </trkpt>
      <trkpt lat="44.7115" lon="3.8948">
        <ele>1033</ele>
        <time>2009-07-11T11:20:54Z</time>
      </trkpt>
      <trkpt lat="44.71162" lon="3.89463">
        <ele>1034</ele>
        <time>2009-07-11T11:21:01Z</time>
      </trkpt>
      <trkpt lat="44.71165" lon="3.89448">
        <ele>1030</ele>
        <time>2009-07-11T11:21:04Z</time>
      </trkpt>
      <trkpt lat="44.71166" lon="3.89443">
        <ele>1035</ele>
        <time>2009-07-11T11:21:05Z</time>
      </trkpt>
      <trkpt lat="44.71173" lon="3.89391">
        <ele>1033</ele>
        <time>2009-07-11T11:21:14Z</time>
      </trkpt>
      <trkpt lat="44.71184" lon="3.89326">
        <ele>1030</ele>
        <time>2009-07-11T11:21:24Z</time>
      </trkpt>
      <trkpt lat="44.71197" lon="3.89289">
        <ele>1028</ele>
        <time>2009-07-11T11:21:29Z</time>
      </trkpt>
      <trkpt lat="44.71228" lon="3.8924">
        <ele>1024</ele>
        <time>2009-07-11T11:21:36Z</time>
      </trkpt>
      <trkpt lat="44.71232" lon="3.89232">
        <ele>1024</ele>
        <time>2009-07-11T11:21:37Z</time>
      </trkpt>
      <trkpt lat="44.71257" lon="3.89189">
        <ele>1020</ele>
        <time>2009-07-11T11:21:42Z</time>
      </trkpt>
      <trkpt lat="44.71267" lon="3.8917">
        <ele>1019</ele>
        <time>2009-07-11T11:21:44Z</time>
      </trkpt>
      <trkpt lat="44.71275" lon="3.89153">
        <ele>1020</ele>
        <time>2009-07-11T11:21:46Z</time>
      </trkpt>
      <trkpt lat="44.71282" lon="3.89125">
        <ele>1018</ele>
        <time>2009-07-11T11:21:49Z</time>
      </trkpt>
      <trkpt lat="44.71281" lon="3.89096">
        <ele>1016</ele>
        <time>2009-07-11T11:21:52Z</time>
      </trkpt>
      <trkpt lat="44.71274" lon="3.89053">
        <ele>1013</ele>
        <time>2009-07-11T11:21:56Z</time>
      </trkpt>
      <trkpt lat="44.71271" lon="3.89029">
        <ele>1011</ele>
        <time>2009-07-11T11:21:58Z</time>
      </trkpt>
      <trkpt lat="44.7127" lon="3.89016">
        <ele>1009</ele>
        <time>2009-07-11T11:21:59Z</time>
      </trkpt>
      <trkpt lat="44.71273" lon="3.88976">
        <ele>1005</ele>
        <time>2009-07-11T11:22:02Z</time>
      </trkpt>
      <trkpt lat="44.71277" lon="3.88963">
        <ele>1006</ele>
        <time>2009-07-11T11:22:03Z</time>
      </trkpt>
      <trkpt lat="44.71282" lon="3.8895">
        <ele>1005</ele>
        <time>2009-07-11T11:22:04Z</time>
      </trkpt>
      <trkpt lat="44.71311" lon="3.88879">
        <ele>1001</ele>
        <time>2009-07-11T11:22:10Z</time>
      </trkpt>
      <trkpt lat="44.71328" lon="3.88791">
        <ele>998</ele>
        <time>2009-07-11T11:22:17Z</time>
      </trkpt>
      <trkpt lat="44.71338" lon="3.88719">
        <ele>995</ele>
        <time>2009-07-11T11:22:23Z</time>
      </trkpt>
      <trkpt lat="44.7135" lon="3.88632">
        <ele>994</ele>
        <time>2009-07-11T11:22:31Z</time>
      </trkpt>
      <trkpt lat="44.71364" lon="3.88535">
        <ele>991</ele>
        <time>2009-07-11T11:22:40Z</time>
      </trkpt>
      <trkpt lat="44.71393" lon="3.8833">
        <ele>988</ele>
        <time>2009-07-11T11:23:00Z</time>
      </trkpt>
      <trkpt lat="44.71418" lon="3.88153">
        <ele>986</ele>
        <time>2009-07-11T11:23:19Z</time>
      </trkpt>
      <trkpt lat="44.71427" lon="3.88094">
        <ele>984</ele>
        <time>2009-07-11T11:23:25Z</time>
      </trkpt>
      <trkpt lat="44.71432" lon="3.88054">
        <ele>982</ele>
        <time>2009-07-11T11:23:29Z</time>
      </trkpt>
      <trkpt lat="44.71438" lon="3.88013">
        <ele>981</ele>
        <time>2009-07-11T11:23:33Z</time>
      </trkpt>
      <trkpt lat="44.71455" lon="3.87896">
        <ele>978</ele>
        <time>2009-07-11T11:23:44Z</time>
      </trkpt>
      <trkpt lat="44.71461" lon="3.87851">
        <ele>975</ele>
        <time>2009-07-11T11:23:48Z</time>
      </trkpt>
      <trkpt lat="44.71487" lon="3.87672">
        <ele>974</ele>
        <time>2009-07-11T11:24:05Z</time>
      </trkpt>
      <trkpt lat="44.71548" lon="3.87549">
        <ele>973</ele>
        <time>2009-07-11T11:24:19Z</time>
      </trkpt>
      <trkpt lat="44.71667" lon="3.87345">
        <ele>971</ele>
        <time>2009-07-11T11:24:44Z</time>
      </trkpt>
      <trkpt lat="44.7175" lon="3.87238">
        <ele>969</ele>
        <time>2009-07-11T11:25:00Z</time>
      </trkpt>
      <trkpt lat="44.71872" lon="3.87165">
        <ele>966</ele>
        <time>2009-07-11T11:25:19Z</time>
      </trkpt>
      <trkpt lat="44.71919" lon="3.87153">
        <ele>966</ele>
        <time>2009-07-11T11:25:26Z</time>
      </trkpt>
      <trkpt lat="44.71953" lon="3.87165">
        <ele>965</ele>
        <time>2009-07-11T11:25:31Z</time>
      </trkpt>
      <trkpt lat="44.71966" lon="3.87176">
        <ele>964</ele>
        <time>2009-07-11T11:25:33Z</time>
      </trkpt>
      <trkpt lat="44.71984" lon="3.87198">
        <ele>962</ele>
        <time>2009-07-11T11:25:36Z</time>
      </trkpt>
      <trkpt lat="44.7199" lon="3.87205">
        <ele>960</ele>
        <time>2009-07-11T11:25:37Z</time>
      </trkpt>
      <trkpt lat="44.72009" lon="3.87215">
        <ele>958</ele>
        <time>2009-07-11T11:25:40Z</time>
      </trkpt>
      <trkpt lat="44.72026" lon="3.872">
        <ele>956</ele>
        <time>2009-07-11T11:25:43Z</time>
      </trkpt>
      <trkpt lat="44.72028" lon="3.87193">
        <ele>957</ele>
        <time>2009-07-11T11:25:44Z</time>
      </trkpt>
      <trkpt lat="44.7203" lon="3.87184">
        <ele>958</ele>
        <time>2009-07-11T11:25:46Z</time>
      </trkpt>
      <trkpt lat="44.7203" lon="3.87176">
        <ele>959</ele>
        <time>2009-07-11T11:25:56Z</time>
      </trkpt>
      <trkpt lat="44.72032" lon="3.87153">
        <ele>957</ele>
        <time>2009-07-11T11:26:02Z</time>
      </trkpt>
      <trkpt lat="44.72036" lon="3.87134">
        <ele>954</ele>
        <time>2009-07-11T11:26:05Z</time>
      </trkpt>
      <trkpt lat="44.72049" lon="3.87108">
        <ele>952</ele>
        <time>2009-07-11T11:26:09Z</time>
      </trkpt>
      <trkpt lat="44.7208" lon="3.87079">
        <ele>949</ele>
        <time>2009-07-11T11:26:15Z</time>
      </trkpt>
      <trkpt lat="44.72146" lon="3.87036">
        <ele>946</ele>
        <time>2009-07-11T11:26:25Z</time>
      </trkpt>
      <trkpt lat="44.72233" lon="3.8698">
        <ele>943</ele>
        <time>2009-07-11T11:26:38Z</time>
      </trkpt>
      <trkpt lat="44.7224" lon="3.86975">
        <ele>942</ele>
        <time>2009-07-11T11:26:39Z</time>
      </trkpt>
      <trkpt lat="44.7228" lon="3.8692">
        <ele>940</ele>
        <time>2009-07-11T11:26:46Z</time>
      </trkpt>
      <trkpt lat="44.72285" lon="3.8691">
        <ele>940</ele>
        <time>2009-07-11T11:26:47Z</time>
      </trkpt>
      <trkpt lat="44.72296" lon="3.86873">
        <ele>936</ele>
        <time>2009-07-11T11:26:50Z</time>
      </trkpt>
      <trkpt lat="44.72299" lon="3.8686">
        <ele>936</ele>
        <time>2009-07-11T11:26:51Z</time>
      </trkpt>
      <trkpt lat="44.72301" lon="3.86847">
        <ele>935</ele>
        <time>2009-07-11T11:26:52Z</time>
      </trkpt>
      <trkpt lat="44.72301" lon="3.86804">
        <ele>934</ele>
        <time>2009-07-11T11:26:55Z</time>
      </trkpt>
      <trkpt lat="44.72295" lon="3.86762">
        <ele>932</ele>
        <time>2009-07-11T11:26:58Z</time>
      </trkpt>
      <trkpt lat="44.72288" lon="3.86735">
        <ele>930</ele>
        <time>2009-07-11T11:27:00Z</time>
      </trkpt>
      <trkpt lat="44.7228" lon="3.8671">
        <ele>930</ele>
        <time>2009-07-11T11:27:02Z</time>
      </trkpt>
      <trkpt lat="44.72282" lon="3.86645">
        <ele>925</ele>
        <time>2009-07-11T11:27:07Z</time>
      </trkpt>
      <trkpt lat="44.72307" lon="3.86619">
        <ele>922</ele>
        <time>2009-07-11T11:27:10Z</time>
      </trkpt>
      <trkpt lat="44.7233" lon="3.86617">
        <ele>919</ele>
        <time>2009-07-11T11:27:12Z</time>
      </trkpt>
      <trkpt lat="44.72353" lon="3.8662">
        <ele>917</ele>
        <time>2009-07-11T11:27:14Z</time>
      </trkpt>
      <trkpt lat="44.72389" lon="3.86623">
        <ele>914</ele>
        <time>2009-07-11T11:27:17Z</time>
      </trkpt>
      <trkpt lat="44.72425" lon="3.86623">
        <ele>912</ele>
        <time>2009-07-11T11:27:20Z</time>
      </trkpt>
      <trkpt lat="44.72517" lon="3.86614">
        <ele>912</ele>
        <time>2009-07-11T11:27:29Z</time>
      </trkpt>
      <trkpt lat="44.72545" lon="3.86588">
        <ele>917</ele>
        <time>2009-07-11T11:27:34Z</time>
      </trkpt>
      <trkpt lat="44.72548" lon="3.86581">
        <ele>916</ele>
        <time>2009-07-11T11:27:35Z</time>
      </trkpt>
      <trkpt lat="44.72578" lon="3.86501">
        <ele>916</ele>
        <time>2009-07-11T11:27:48Z</time>
      </trkpt>
      <trkpt lat="44.72593" lon="3.86486">
        <ele>917</ele>
        <time>2009-07-11T11:27:52Z</time>
      </trkpt>
      <trkpt lat="44.72635" lon="3.86489">
        <ele>919</ele>
        <time>2009-07-11T11:28:01Z</time>
      </trkpt>
      <trkpt lat="44.72666" lon="3.86488">
        <ele>921</ele>
        <time>2009-07-11T11:28:10Z</time>
      </trkpt>
      <trkpt lat="44.72672" lon="3.86488">
        <ele>922</ele>
        <time>2009-07-11T11:28:12Z</time>
      </trkpt>
      <trkpt lat="44.72671" lon="3.86469">
        <ele>923</ele>
        <time>2009-07-11T11:28:20Z</time>
      </trkpt>
      <trkpt lat="44.72671" lon="3.86424">
        <ele>925</ele>
        <time>2009-07-11T11:28:34Z</time>
      </trkpt>
      <trkpt lat="44.72674" lon="3.86384">
        <ele>928</ele>
        <time>2009-07-11T11:28:49Z</time>
      </trkpt>
      <trkpt lat="44.72675" lon="3.86338">
        <ele>931</ele>
        <time>2009-07-11T11:29:05Z</time>
      </trkpt>
      <trkpt lat="44.72675" lon="3.86297">
        <ele>934</ele>
        <time>2009-07-11T11:29:19Z</time>
      </trkpt>
      <trkpt lat="44.72676" lon="3.86294">
        <ele>934</ele>
        <time>2009-07-11T11:29:20Z</time>
      </trkpt>
      <trkpt lat="44.72672" lon="3.86239">
        <ele>935</ele>
        <time>2009-07-11T11:29:35Z</time>
      </trkpt>
      <trkpt lat="44.72662" lon="3.86176">
        <ele>937</ele>
        <time>2009-07-11T11:29:51Z</time>
      </trkpt>
      <trkpt lat="44.72649" lon="3.86097">
        <ele>941</ele>
        <time>2009-07-11T11:30:11Z</time>
      </trkpt>
      <trkpt lat="44.72642" lon="3.86056">
        <ele>940</ele>
        <time>2009-07-11T11:30:25Z</time>
      </trkpt>
      <trkpt lat="44.72638" lon="3.86046">
        <ele>940</ele>
        <time>2009-07-11T11:30:36Z</time>
      </trkpt>
      <trkpt lat="44.7264" lon="3.86045">
        <ele>940</ele>
        <time>2009-07-11T11:30:56Z</time>
      </trkpt>
      <trkpt lat="44.7262" lon="3.8599">
        <ele>937</ele>
        <time>2009-07-11T11:31:09Z</time>
      </trkpt>
      <trkpt lat="44.72605" lon="3.85948">
        <ele>934</ele>
        <time>2009-07-11T11:31:14Z</time>
      </trkpt>
      <trkpt lat="44.72601" lon="3.85939">
        <ele>934</ele>
        <time>2009-07-11T11:31:15Z</time>
      </trkpt>
      <trkpt lat="44.72591" lon="3.85905">
        <ele>932</ele>
        <time>2009-07-11T11:31:19Z</time>
      </trkpt>
      <trkpt lat="44.72579" lon="3.85866">
        <ele>928</ele>
        <time>2009-07-11T11:31:24Z</time>
      </trkpt>
      <trkpt lat="44.72578" lon="3.85848">
        <ele>927</ele>
        <time>2009-07-11T11:31:26Z</time>
      </trkpt>
      <trkpt lat="44.7258" lon="3.85834">
        <ele>926</ele>
        <time>2009-07-11T11:31:28Z</time>
      </trkpt>
      <trkpt lat="44.72583" lon="3.85796">
        <ele>922</ele>
        <time>2009-07-11T11:31:33Z</time>
      </trkpt>
      <trkpt lat="44.72585" lon="3.85778">
        <ele>920</ele>
        <time>2009-07-11T11:31:35Z</time>
      </trkpt>
      <trkpt lat="44.72595" lon="3.8574">
        <ele>917</ele>
        <time>2009-07-11T11:31:41Z</time>
      </trkpt>
      <trkpt lat="44.72605" lon="3.85725">
        <ele>917</ele>
        <time>2009-07-11T11:31:49Z</time>
      </trkpt>
      <trkpt lat="44.72578" lon="3.85704">
        <ele>916</ele>
        <time>2009-07-11T11:32:00Z</time>
      </trkpt>
      <trkpt lat="44.72539" lon="3.85658">
        <ele>919</ele>
        <time>2009-07-11T11:32:16Z</time>
      </trkpt>
      <trkpt lat="44.72538" lon="3.85653">
        <ele>918</ele>
        <time>2009-07-11T11:32:18Z</time>
      </trkpt>
      <trkpt lat="44.72552" lon="3.85636">
        <ele>918</ele>
        <time>2009-07-11T11:32:27Z</time>
      </trkpt>
      <trkpt lat="44.72554" lon="3.85636">
        <ele>918</ele>
        <time>2009-07-11T11:32:35Z</time>
      </trkpt>
      <trkpt lat="44.72569" lon="3.85632">
        <ele>917</ele>
        <time>2009-07-11T11:32:40Z</time>
      </trkpt>
      <trkpt lat="44.7258" lon="3.8562">
        <ele>917</ele>
        <time>2009-07-11T11:32:42Z</time>
      </trkpt>
      <trkpt lat="44.72612" lon="3.85587">
        <ele>917</ele>
        <time>2009-07-11T11:32:52Z</time>
      </trkpt>
      <trkpt lat="44.72617" lon="3.85582">
        <ele>917</ele>
        <time>2009-07-11T11:32:54Z</time>
      </trkpt>
      <trkpt lat="44.72627" lon="3.85568">
        <ele>918</ele>
        <time>2009-07-11T11:32:59Z</time>
      </trkpt>
      <trkpt lat="44.72632" lon="3.85559">
        <ele>918</ele>
        <time>2009-07-11T11:33:04Z</time>
      </trkpt>
      <trkpt lat="44.72629" lon="3.85533">
        <ele>921</ele>
        <time>2009-07-11T11:33:15Z</time>
      </trkpt>
      <trkpt lat="44.72625" lon="3.85527">
        <ele>921</ele>
        <time>2009-07-11T11:33:29Z</time>
      </trkpt>
      <trkpt lat="44.72616" lon="3.85506">
        <ele>921</ele>
        <time>2009-07-11T11:33:41Z</time>
      </trkpt>
      <trkpt lat="44.72591" lon="3.8548">
        <ele>922</ele>
        <time>2009-07-11T11:33:52Z</time>
      </trkpt>
      <trkpt lat="44.72573" lon="3.85467">
        <ele>923</ele>
        <time>2009-07-11T11:34:04Z</time>
      </trkpt>
      <trkpt lat="44.72578" lon="3.85475">
        <ele>922</ele>
        <time>2009-07-11T11:34:08Z</time>
      </trkpt>
      <trkpt lat="44.72599" lon="3.85507">
        <ele>922</ele>
        <time>2009-07-11T11:34:17Z</time>
      </trkpt>
      <trkpt lat="44.72607" lon="3.85512">
        <ele>921</ele>
        <time>2009-07-11T11:34:22Z</time>
      </trkpt>
      <trkpt lat="44.72639" lon="3.85489">
        <ele>924</ele>
        <time>2009-07-11T11:34:34Z</time>
      </trkpt>
      <trkpt lat="44.72652" lon="3.85464">
        <ele>926</ele>
        <time>2009-07-11T11:34:45Z</time>
      </trkpt>
      <trkpt lat="44.72649" lon="3.85459">
        <ele>926</ele>
        <time>2009-07-11T11:34:50Z</time>
      </trkpt>
      <trkpt lat="44.72643" lon="3.85465">
        <ele>925</ele>
        <time>2009-07-11T11:34:54Z</time>
      </trkpt>
      <trkpt lat="44.72634" lon="3.85474">
        <ele>925</ele>
        <time>2009-07-11T11:34:58Z</time>
      </trkpt>
      <trkpt lat="44.7263" lon="3.85471">
        <ele>925</ele>
        <time>2009-07-11T11:35:04Z</time>
      </trkpt>
      <trkpt lat="44.7263" lon="3.85466">
        <ele>926</ele>
        <time>2009-07-11T11:35:07Z</time>
      </trkpt>
      <trkpt lat="44.72637" lon="3.85442">
        <ele>927</ele>
        <time>2009-07-11T11:35:15Z</time>
      </trkpt>
      <trkpt lat="44.72636" lon="3.85433">
        <ele>927</ele>
        <time>2009-07-11T11:35:19Z</time>
      </trkpt>
      <trkpt lat="44.72636" lon="3.85429">
        <ele>927</ele>
        <time>2009-07-11T11:35:21Z</time>
      </trkpt>
      <trkpt lat="44.72638" lon="3.85413">
        <ele>929</ele>
        <time>2009-07-11T11:35:27Z</time>
      </trkpt>
      <trkpt lat="44.72638" lon="3.85399">
        <ele>931</ele>
        <time>2009-07-11T11:35:32Z</time>
      </trkpt>
      <trkpt lat="44.72639" lon="3.85384">
        <ele>932</ele>
        <time>2009-07-11T11:35:38Z</time>
      </trkpt>
      <trkpt lat="44.7264" lon="3.85373">
        <ele>934</ele>
        <time>2009-07-11T11:35:42Z</time>
      </trkpt>
      <trkpt lat="44.72641" lon="3.85359">
        <ele>936</ele>
        <time>2009-07-11T11:35:48Z</time>
      </trkpt>
      <trkpt lat="44.7264" lon="3.85314">
        <ele>938</ele>
        <time>2009-07-11T11:36:05Z</time>
      </trkpt>
      <trkpt lat="44.7263" lon="3.85289">
        <ele>941</ele>
        <time>2009-07-11T11:36:15Z</time>
      </trkpt>
      <trkpt lat="44.7263" lon="3.85242">
        <ele>944</ele>
        <time>2009-07-11T11:36:32Z</time>
      </trkpt>
      <trkpt lat="44.72626" lon="3.852">
        <ele>946</ele>
        <time>2009-07-11T11:36:46Z</time>
      </trkpt>
      <trkpt lat="44.72622" lon="3.85186">
        <ele>948</ele>
        <time>2009-07-11T11:36:51Z</time>
      </trkpt>
      <trkpt lat="44.72618" lon="3.85167">
        <ele>950</ele>
        <time>2009-07-11T11:37:06Z</time>
      </trkpt>
      <trkpt lat="44.72619" lon="3.85128">
        <ele>951</ele>
        <time>2009-07-11T11:37:16Z</time>
      </trkpt>
      <trkpt lat="44.72632" lon="3.85055">
        <ele>952</ele>
        <time>2009-07-11T11:37:31Z</time>
      </trkpt>
      <trkpt lat="44.72645" lon="3.85013">
        <ele>953</ele>
        <time>2009-07-11T11:37:46Z</time>
      </trkpt>
      <trkpt lat="44.72645" lon="3.85015">
        <ele>953</ele>
        <time>2009-07-11T11:38:09Z</time>
      </trkpt>
      <trkpt lat="44.72644" lon="3.85015">
        <ele>953</ele>
        <time>2009-07-11T11:38:27Z</time>
      </trkpt>
      <trkpt lat="44.72634" lon="3.84993">
        <ele>953</ele>
        <time>2009-07-11T11:38:36Z</time>
      </trkpt>
      <trkpt lat="44.72592" lon="3.84918">
        <ele>953</ele>
        <time>2009-07-11T11:38:53Z</time>
      </trkpt>
      <trkpt lat="44.72567" lon="3.84863">
        <ele>956</ele>
        <time>2009-07-11T11:39:07Z</time>
      </trkpt>
      <trkpt lat="44.72545" lon="3.84839">
        <ele>959</ele>
        <time>2009-07-11T11:39:18Z</time>
      </trkpt>
      <trkpt lat="44.72521" lon="3.84824">
        <ele>962</ele>
        <time>2009-07-11T11:39:29Z</time>
      </trkpt>
      <trkpt lat="44.72492" lon="3.84801">
        <ele>964</ele>
        <time>2009-07-11T11:39:44Z</time>
      </trkpt>
      <trkpt lat="44.72485" lon="3.84758">
        <ele>967</ele>
        <time>2009-07-11T11:39:59Z</time>
      </trkpt>
      <trkpt lat="44.72483" lon="3.84717">
        <ele>970</ele>
        <time>2009-07-11T11:40:12Z</time>
      </trkpt>
      <trkpt lat="44.72478" lon="3.84693">
        <ele>973</ele>
        <time>2009-07-11T11:40:20Z</time>
      </trkpt>
      <trkpt lat="44.72471" lon="3.8466">
        <ele>975</ele>
        <time>2009-07-11T11:40:32Z</time>
      </trkpt>
      <trkpt lat="44.72469" lon="3.84619">
        <ele>975</ele>
        <time>2009-07-11T11:40:47Z</time>
      </trkpt>
      <trkpt lat="44.72474" lon="3.84573">
        <ele>972</ele>
        <time>2009-07-11T11:40:57Z</time>
      </trkpt>
      <trkpt lat="44.72486" lon="3.84507">
        <ele>971</ele>
        <time>2009-07-11T11:41:06Z</time>
      </trkpt>
      <trkpt lat="44.72488" lon="3.84483">
        <ele>967</ele>
        <time>2009-07-11T11:41:09Z</time>
      </trkpt>
      <trkpt lat="44.7249" lon="3.84465">
        <ele>967</ele>
        <time>2009-07-11T11:41:11Z</time>
      </trkpt>
      <trkpt lat="44.72485" lon="3.84343">
        <ele>966</ele>
        <time>2009-07-11T11:41:24Z</time>
      </trkpt>
      <trkpt lat="44.72465" lon="3.84236">
        <ele>967</ele>
        <time>2009-07-11T11:41:39Z</time>
      </trkpt>
      <trkpt lat="44.72452" lon="3.84141">
        <ele>970</ele>
        <time>2009-07-11T11:41:54Z</time>
      </trkpt>
      <trkpt lat="44.7245" lon="3.84035">
        <ele>973</ele>
        <time>2009-07-11T11:42:13Z</time>
      </trkpt>
      <trkpt lat="44.72442" lon="3.83993">
        <ele>974</ele>
        <time>2009-07-11T11:42:26Z</time>
      </trkpt>
      <trkpt lat="44.72424" lon="3.83949">
        <ele>971</ele>
        <time>2009-07-11T11:42:36Z</time>
      </trkpt>
      <trkpt lat="44.72416" lon="3.83928">
        <ele>970</ele>
        <time>2009-07-11T11:42:39Z</time>
      </trkpt>
      <trkpt lat="44.72385" lon="3.83866">
        <ele>967</ele>
        <time>2009-07-11T11:42:49Z</time>
      </trkpt>
      <trkpt lat="44.72381" lon="3.83859">
        <ele>967</ele>
        <time>2009-07-11T11:42:50Z</time>
      </trkpt>
      <trkpt lat="44.72358" lon="3.83813">
        <ele>964</ele>
        <time>2009-07-11T11:42:57Z</time>
      </trkpt>
      <trkpt lat="44.72335" lon="3.83751">
        <ele>961</ele>
        <time>2009-07-11T11:43:05Z</time>
      </trkpt>
      <trkpt lat="44.72324" lon="3.83662">
        <ele>958</ele>
        <time>2009-07-11T11:43:15Z</time>
      </trkpt>
      <trkpt lat="44.72321" lon="3.83635">
        <ele>959</ele>
        <time>2009-07-11T11:43:23Z</time>
      </trkpt>
      <trkpt lat="44.72321" lon="3.83636">
        <ele>959</ele>
        <time>2009-07-11T11:43:30Z</time>
      </trkpt>
      <trkpt lat="44.72318" lon="3.83641">
        <ele>958</ele>
        <time>2009-07-11T11:43:35Z</time>
      </trkpt>
      <trkpt lat="44.72327" lon="3.83711">
        <ele>960</ele>
        <time>2009-07-11T11:43:50Z</time>
      </trkpt>
      <trkpt lat="44.72344" lon="3.83795">
        <ele>963</ele>
        <time>2009-07-11T11:44:08Z</time>
      </trkpt>
      <trkpt lat="44.7236" lon="3.83829">
        <ele>965</ele>
        <time>2009-07-11T11:44:17Z</time>
      </trkpt>
      <trkpt lat="44.72393" lon="3.83894">
        <ele>968</ele>
        <time>2009-07-11T11:44:35Z</time>
      </trkpt>
      <trkpt lat="44.72419" lon="3.83947">
        <ele>971</ele>
        <time>2009-07-11T11:44:50Z</time>
      </trkpt>
      <trkpt lat="44.72443" lon="3.83998">
        <ele>973</ele>
        <time>2009-07-11T11:45:05Z</time>
      </trkpt>
      <trkpt lat="44.72447" lon="3.84">
        <ele>973</ele>
        <time>2009-07-11T11:45:09Z</time>
      </trkpt>
      <trkpt lat="44.72462" lon="3.83984">
        <ele>973</ele>
        <time>2009-07-11T11:45:16Z</time>
      </trkpt>
      <trkpt lat="44.72487" lon="3.83936">
        <ele>973</ele>
        <time>2009-07-11T11:45:30Z</time>
      </trkpt>
      <trkpt lat="44.72507" lon="3.83906">
        <ele>973</ele>
        <time>2009-07-11T11:45:38Z</time>
      </trkpt>
      <trkpt lat="44.72512" lon="3.83877">
        <ele>970</ele>
        <time>2009-07-11T11:45:43Z</time>
      </trkpt>
      <trkpt lat="44.72519" lon="3.83861">
        <ele>968</ele>
        <time>2009-07-11T11:45:45Z</time>
      </trkpt>
      <trkpt lat="44.72524" lon="3.83854">
        <ele>968</ele>
        <time>2009-07-11T11:45:46Z</time>
      </trkpt>
      <trkpt lat="44.72536" lon="3.83836">
        <ele>968</ele>
        <time>2009-07-11T11:45:49Z</time>
      </trkpt>
      <trkpt lat="44.72546" lon="3.83828">
        <ele>968</ele>
        <time>2009-07-11T11:45:51Z</time>
      </trkpt>
      <trkpt lat="44.7256" lon="3.83812">
        <ele>968</ele>
        <time>2009-07-11T11:45:55Z</time>
      </trkpt>
      <trkpt lat="44.72567" lon="3.83797">
        <ele>968</ele>
        <time>2009-07-11T11:45:58Z</time>
      </trkpt>
      <trkpt lat="44.72594" lon="3.83769">
        <ele>970</ele>
        <time>2009-07-11T11:46:10Z</time>
      </trkpt>
      <trkpt lat="44.72622" lon="3.8376">
        <ele>970</ele>
        <time>2009-07-11T11:46:22Z</time>
      </trkpt>
      <trkpt lat="44.72663" lon="3.83746">
        <ele>971</ele>
        <time>2009-07-11T11:46:35Z</time>
      </trkpt>
      <trkpt lat="44.72691" lon="3.83728">
        <ele>971</ele>
        <time>2009-07-11T11:46:49Z</time>
      </trkpt>
      <trkpt lat="44.7272" lon="3.83718">
        <ele>970</ele>
        <time>2009-07-11T11:47:00Z</time>
      </trkpt>
      <trkpt lat="44.72742" lon="3.83709">
        <ele>969</ele>
        <time>2009-07-11T11:47:08Z</time>
      </trkpt>
      <trkpt lat="44.72746" lon="3.8371">
        <ele>970</ele>
        <time>2009-07-11T11:47:23Z</time>
      </trkpt>
      <trkpt lat="44.72744" lon="3.8371">
        <ele>969</ele>
        <time>2009-07-11T11:47:49Z</time>
      </trkpt>
      <trkpt lat="44.72745" lon="3.83709">
        <ele>969</ele>
        <time>2009-07-11T11:48:11Z</time>
      </trkpt>
      <trkpt lat="44.72745" lon="3.8371">
        <ele>970</ele>
        <time>2009-07-11T11:48:18Z</time>
      </trkpt>
      <trkpt lat="44.72744" lon="3.8371">
        <ele>970</ele>
        <time>2009-07-11T11:48:54Z</time>
      </trkpt>
      <trkpt lat="44.7275" lon="3.8372">
        <ele>971</ele>
        <time>2009-07-11T11:49:14Z</time>
      </trkpt>
      <trkpt lat="44.72754" lon="3.83728">
        <ele>973</ele>
        <time>2009-07-11T11:49:24Z</time>
      </trkpt>
      <trkpt lat="44.72759" lon="3.83729">
        <ele>972</ele>
        <time>2009-07-11T11:49:40Z</time>
      </trkpt>
      <trkpt lat="44.72759" lon="3.83728">
        <ele>972</ele>
        <time>2009-07-11T11:49:42Z</time>
      </trkpt>
      <trkpt lat="44.72771" lon="3.83725">
        <ele>971</ele>
        <time>2009-07-11T11:49:50Z</time>
      </trkpt>
      <trkpt lat="44.72819" lon="3.83713">
        <ele>968</ele>
        <time>2009-07-11T11:50:05Z</time>
      </trkpt>
      <trkpt lat="44.72823" lon="3.83712">
        <ele>971</ele>
        <time>2009-07-11T11:50:06Z</time>
      </trkpt>
      <trkpt lat="44.72891" lon="3.83698">
        <ele>970</ele>
        <time>2009-07-11T11:50:24Z</time>
      </trkpt>
      <trkpt lat="44.72941" lon="3.83684">
        <ele>969</ele>
        <time>2009-07-11T11:50:38Z</time>
      </trkpt>
      <trkpt lat="44.73002" lon="3.83665">
        <ele>970</ele>
        <time>2009-07-11T11:50:54Z</time>
      </trkpt>
      <trkpt lat="44.73072" lon="3.83645">
        <ele>967</ele>
        <time>2009-07-11T11:51:09Z</time>
      </trkpt>
      <trkpt lat="44.73126" lon="3.83634">
        <ele>964</ele>
        <time>2009-07-11T11:51:19Z</time>
      </trkpt>
      <trkpt lat="44.73159" lon="3.83626">
        <ele>965</ele>
        <time>2009-07-11T11:51:25Z</time>
      </trkpt>
      <trkpt lat="44.7321" lon="3.83616">
        <ele>965</ele>
        <time>2009-07-11T11:51:37Z</time>
      </trkpt>
      <trkpt lat="44.73219" lon="3.83613">
        <ele>964</ele>
        <time>2009-07-11T11:51:43Z</time>
      </trkpt>
      <trkpt lat="44.73253" lon="3.83602">
        <ele>964</ele>
        <time>2009-07-11T11:51:56Z</time>
      </trkpt>
      <trkpt lat="44.73284" lon="3.8359">
        <ele>963</ele>
        <time>2009-07-11T11:52:08Z</time>
      </trkpt>
      <trkpt lat="44.73344" lon="3.83569">
        <ele>962</ele>
        <time>2009-07-11T11:52:25Z</time>
      </trkpt>
      <trkpt lat="44.73364" lon="3.83564">
        <ele>962</ele>
        <time>2009-07-11T11:52:31Z</time>
      </trkpt>
      <trkpt lat="44.73366" lon="3.83558">
        <ele>963</ele>
        <time>2009-07-11T11:52:38Z</time>
      </trkpt>
      <trkpt lat="44.73364" lon="3.83557">
        <ele>963</ele>
        <time>2009-07-11T11:52:57Z</time>
      </trkpt>
    </trkseg>
  </trk>
  <trk>
    <name><![CDATA[F02]]></name>
    <trkseg>
      <trkpt lat="44.73363" lon="3.83555">
        <ele>962</ele>
        <time>2009-07-11T12:34:53Z</time>
      </trkpt>
      <trkpt lat="44.73362" lon="3.83554">
        <ele>957</ele>
        <time>2009-07-11T12:35:01Z</time>
      </trkpt>
      <trkpt lat="44.73362" lon="3.83554">
        <ele>963</ele>
        <time>2009-07-11T12:35:02Z</time>
      </trkpt>
      <trkpt lat="44.73362" lon="3.83555">
        <ele>965</ele>
        <time>2009-07-11T12:35:07Z</time>
      </trkpt>
      <trkpt lat="44.73362" lon="3.83555">
        <ele>961</ele>
        <time>2009-07-11T12:35:11Z</time>
      </trkpt>
      <trkpt lat="44.73362" lon="3.83555">
        <ele>962</ele>
        <time>2009-07-11T12:35:12Z</time>
      </trkpt>
      <trkpt lat="44.73362" lon="3.83557">
        <ele>958</ele>
        <time>2009-07-11T12:35:37Z</time>
      </trkpt>
      <trkpt lat="44.73362" lon="3.83557">
        <ele>964</ele>
        <time>2009-07-11T12:35:38Z</time>
      </trkpt>
      <trkpt lat="44.73362" lon="3.83557">
        <ele>960</ele>
        <time>2009-07-11T12:35:39Z</time>
      </trkpt>
      <trkpt lat="44.73362" lon="3.83557">
        <ele>961</ele>
        <time>2009-07-11T12:35:55Z</time>
      </trkpt>
      <trkpt lat="44.73363" lon="3.83559">
        <ele>962</ele>
        <time>2009-07-11T12:36:40Z</time>
      </trkpt>
      <trkpt lat="44.73364" lon="3.83559">
        <ele>961</ele>
        <time>2009-07-11T12:37:13Z</time>
      </trkpt>
      <trkpt lat="44.7336" lon="3.8356">
        <ele>961</ele>
        <time>2009-07-11T12:37:30Z</time>
      </trkpt>
      <trkpt lat="44.73361" lon="3.8356">
        <ele>962</ele>
        <time>2009-07-11T12:38:06Z</time>
      </trkpt>
      <trkpt lat="44.73361" lon="3.8356">
        <ele>962</ele>
        <time>2009-07-11T12:39:11Z</time>
      </trkpt>
      <trkpt lat="44.73361" lon="3.8356">
        <ele>962</ele>
        <time>2009-07-11T12:39:59Z</time>
      </trkpt>
      <trkpt lat="44.7336" lon="3.8356">
        <ele>962</ele>
        <time>2009-07-11T12:40:26Z</time>
      </trkpt>
      <trkpt lat="44.73361" lon="3.8356">
        <ele>960</ele>
        <time>2009-07-11T12:40:41Z</time>
      </trkpt>
      <trkpt lat="44.73337" lon="3.8357">
        <ele>962</ele>
        <time>2009-07-11T12:40:53Z</time>
      </trkpt>
      <trkpt lat="44.73302" lon="3.83584">
        <ele>962</ele>
        <time>2009-07-11T12:41:07Z</time>
      </trkpt>
      <trkpt lat="44.73262" lon="3.836">
        <ele>962</ele>
        <time>2009-07-11T12:41:20Z</time>
      </trkpt>
      <trkpt lat="44.7321" lon="3.83617">
        <ele>964</ele>
        <time>2009-07-11T12:41:37Z</time>
      </trkpt>
      <trkpt lat="44.73202" lon="3.83616">
        <ele>966</ele>
        <time>2009-07-11T12:41:40Z</time>
      </trkpt>
      <trkpt lat="44.73145" lon="3.83627">
        <ele>966</ele>
        <time>2009-07-11T12:41:57Z</time>
      </trkpt>
      <trkpt lat="44.73077" lon="3.83641">
        <ele>967</ele>
        <time>2009-07-11T12:42:17Z</time>
      </trkpt>
      <trkpt lat="44.73007" lon="3.83659">
        <ele>971</ele>
        <time>2009-07-11T12:42:38Z</time>
      </trkpt>
      <trkpt lat="44.72938" lon="3.83682">
        <ele>970</ele>
        <time>2009-07-11T12:42:58Z</time>
      </trkpt>
      <trkpt lat="44.72863" lon="3.837">
        <ele>972</ele>
        <time>2009-07-11T12:43:18Z</time>
      </trkpt>
      <trkpt lat="44.72789" lon="3.83717">
        <ele>971</ele>
        <time>2009-07-11T12:43:38Z</time>
      </trkpt>
      <trkpt lat="44.72771" lon="3.83722">
        <ele>972</ele>
        <time>2009-07-11T12:43:43Z</time>
      </trkpt>
      <trkpt lat="44.72701" lon="3.83739">
        <ele>973</ele>
        <time>2009-07-11T12:44:03Z</time>
      </trkpt>
      <trkpt lat="44.72624" lon="3.83779">
        <ele>972</ele>
        <time>2009-07-11T12:44:24Z</time>
      </trkpt>
      <trkpt lat="44.72559" lon="3.83839">
        <ele>972</ele>
        <time>2009-07-11T12:44:44Z</time>
      </trkpt>
      <trkpt lat="44.72521" lon="3.83881">
        <ele>973</ele>
        <time>2009-07-11T12:44:57Z</time>
      </trkpt>
      <trkpt lat="44.72521" lon="3.83885">
        <ele>973</ele>
        <time>2009-07-11T12:44:59Z</time>
      </trkpt>
      <trkpt lat="44.72514" lon="3.83895">
        <ele>973</ele>
        <time>2009-07-11T12:45:03Z</time>
      </trkpt>
      <trkpt lat="44.72468" lon="3.83961">
        <ele>974</ele>
        <time>2009-07-11T12:45:21Z</time>
      </trkpt>
      <trkpt lat="44.72455" lon="3.83982">
        <ele>972</ele>
        <time>2009-07-11T12:45:26Z</time>
      </trkpt>
      <trkpt lat="44.72432" lon="3.83969">
        <ele>971</ele>
        <time>2009-07-11T12:45:32Z</time>
      </trkpt>
      <trkpt lat="44.7242" lon="3.83939">
        <ele>968</ele>
        <time>2009-07-11T12:45:36Z</time>
      </trkpt>
      <trkpt lat="44.72406" lon="3.83905">
        <ele>966</ele>
        <time>2009-07-11T12:45:40Z</time>
      </trkpt>
      <trkpt lat="44.72388" lon="3.8387">
        <ele>963</ele>
        <time>2009-07-11T12:45:44Z</time>
      </trkpt>
      <trkpt lat="44.72345" lon="3.83783">
        <ele>960</ele>
        <time>2009-07-11T12:45:53Z</time>
      </trkpt>
      <trkpt lat="44.72334" lon="3.83735">
        <ele>959</ele>
        <time>2009-07-11T12:45:58Z</time>
      </trkpt>
      <trkpt lat="44.72332" lon="3.83716">
        <ele>959</ele>
        <time>2009-07-11T12:46:07Z</time>
      </trkpt>
      <trkpt lat="44.7233" lon="3.83709">
        <ele>958</ele>
        <time>2009-07-11T12:46:40Z</time>
      </trkpt>
      <trkpt lat="44.72322" lon="3.83637">
        <ele>958</ele>
        <time>2009-07-11T12:46:53Z</time>
      </trkpt>
      <trkpt lat="44.72298" lon="3.83564">
        <ele>960</ele>
        <time>2009-07-11T12:47:09Z</time>
      </trkpt>
      <trkpt lat="44.72269" lon="3.83512">
        <ele>962</ele>
        <time>2009-07-11T12:47:25Z</time>
      </trkpt>
      <trkpt lat="44.72245" lon="3.83474">
        <ele>966</ele>
        <time>2009-07-11T12:47:38Z</time>
      </trkpt>
      <trkpt lat="44.72216" lon="3.83428">
        <ele>968</ele>
        <time>2009-07-11T12:47:54Z</time>
      </trkpt>
      <trkpt lat="44.72178" lon="3.83365">
        <ele>971</ele>
        <time>2009-07-11T12:48:15Z</time>
      </trkpt>
      <trkpt lat="44.72177" lon="3.83362">
        <ele>971</ele>
        <time>2009-07-11T12:48:16Z</time>
      </trkpt>
      <trkpt lat="44.72154" lon="3.83312">
        <ele>975</ele>
        <time>2009-07-11T12:48:31Z</time>
      </trkpt>
      <trkpt lat="44.72138" lon="3.83234">
        <ele>977</ele>
        <time>2009-07-11T12:48:51Z</time>
      </trkpt>
      <trkpt lat="44.72107" lon="3.83153">
        <ele>977</ele>
        <time>2009-07-11T12:49:10Z</time>
      </trkpt>
      <trkpt lat="44.72084" lon="3.83111">
        <ele>978</ele>
        <time>2009-07-11T12:49:20Z</time>
      </trkpt>
      <trkpt lat="44.72028" lon="3.83011">
        <ele>980</ele>
        <time>2009-07-11T12:49:43Z</time>
      </trkpt>
      <trkpt lat="44.71976" lon="3.82921">
        <ele>983</ele>
        <time>2009-07-11T12:50:03Z</time>
      </trkpt>
      <trkpt lat="44.71915" lon="3.8282">
        <ele>985</ele>
        <time>2009-07-11T12:50:26Z</time>
      </trkpt>
      <trkpt lat="44.71867" lon="3.82734">
        <ele>989</ele>
        <time>2009-07-11T12:50:46Z</time>
      </trkpt>
      <trkpt lat="44.71866" lon="3.8273">
        <ele>989</ele>
        <time>2009-07-11T12:50:47Z</time>
      </trkpt>
      <trkpt lat="44.71861" lon="3.827">
        <ele>991</ele>
        <time>2009-07-11T12:50:54Z</time>
      </trkpt>
      <trkpt lat="44.71867" lon="3.82628">
        <ele>992</ele>
        <time>2009-07-11T12:51:12Z</time>
      </trkpt>
      <trkpt lat="44.71867" lon="3.82624">
        <ele>993</ele>
        <time>2009-07-11T12:51:13Z</time>
      </trkpt>
      <trkpt lat="44.7188" lon="3.82554">
        <ele>996</ele>
        <time>2009-07-11T12:51:31Z</time>
      </trkpt>
      <trkpt lat="44.71905" lon="3.82469">
        <ele>998</ele>
        <time>2009-07-11T12:51:54Z</time>
      </trkpt>
      <trkpt lat="44.71925" lon="3.82399">
        <ele>1001</ele>
        <time>2009-07-11T12:52:13Z</time>
      </trkpt>
      <trkpt lat="44.7195" lon="3.82371">
        <ele>997</ele>
        <time>2009-07-11T12:52:23Z</time>
      </trkpt>
      <trkpt lat="44.71955" lon="3.82368">
        <ele>997</ele>
        <time>2009-07-11T12:52:24Z</time>
      </trkpt>
      <trkpt lat="44.7196" lon="3.82365">
        <ele>997</ele>
        <time>2009-07-11T12:52:25Z</time>
      </trkpt>
      <trkpt lat="44.7199" lon="3.82327">
        <ele>996</ele>
        <time>2009-07-11T12:52:32Z</time>
      </trkpt>
      <trkpt lat="44.71998" lon="3.82314">
        <ele>996</ele>
        <time>2009-07-11T12:52:34Z</time>
      </trkpt>
      <trkpt lat="44.72039" lon="3.82309">
        <ele>996</ele>
        <time>2009-07-11T12:52:43Z</time>
      </trkpt>
      <trkpt lat="44.72041" lon="3.82321">
        <ele>995</ele>
        <time>2009-07-11T12:52:46Z</time>
      </trkpt>
      <trkpt lat="44.72047" lon="3.82357">
        <ele>993</ele>
        <time>2009-07-11T12:52:57Z</time>
      </trkpt>
      <trkpt lat="44.72047" lon="3.82359">
        <ele>992</ele>
        <time>2009-07-11T12:53:19Z</time>
      </trkpt>
      <trkpt lat="44.72047" lon="3.82357">
        <ele>992</ele>
        <time>2009-07-11T12:53:21Z</time>
      </trkpt>
      <trkpt lat="44.72044" lon="3.82345">
        <ele>993</ele>
        <time>2009-07-11T12:53:29Z</time>
      </trkpt>
      <trkpt lat="44.72041" lon="3.82334">
        <ele>994</ele>
        <time>2009-07-11T12:53:37Z</time>
      </trkpt>
      <trkpt lat="44.7204" lon="3.82322">
        <ele>995</ele>
        <time>2009-07-11T12:53:57Z</time>
      </trkpt>
      <trkpt lat="44.72041" lon="3.82319">
        <ele>995</ele>
        <time>2009-07-11T12:54:12Z</time>
      </trkpt>
      <trkpt lat="44.72046" lon="3.82353">
        <ele>992</ele>
        <time>2009-07-11T12:54:21Z</time>
      </trkpt>
      <trkpt lat="44.72068" lon="3.82378">
        <ele>989</ele>
        <time>2009-07-11T12:54:29Z</time>
      </trkpt>
      <trkpt lat="44.72084" lon="3.82401">
        <ele>986</ele>
        <time>2009-07-11T12:54:34Z</time>
      </trkpt>
      <trkpt lat="44.72087" lon="3.82408">
        <ele>985</ele>
        <time>2009-07-11T12:54:35Z</time>
      </trkpt>
      <trkpt lat="44.72096" lon="3.82428">
        <ele>985</ele>
        <time>2009-07-11T12:54:38Z</time>
      </trkpt>
      <trkpt lat="44.72116" lon="3.82441">
        <ele>982</ele>
        <time>2009-07-11T12:54:42Z</time>
      </trkpt>
      <trkpt lat="44.72158" lon="3.82446">
        <ele>978</ele>
        <time>2009-07-11T12:54:48Z</time>
      </trkpt>
      <trkpt lat="44.72166" lon="3.82448">
        <ele>978</ele>
        <time>2009-07-11T12:54:49Z</time>
      </trkpt>
      <trkpt lat="44.72244" lon="3.82447">
        <ele>977</ele>
        <time>2009-07-11T12:55:00Z</time>
      </trkpt>
      <trkpt lat="44.72265" lon="3.82445">
        <ele>976</ele>
        <time>2009-07-11T12:55:03Z</time>
      </trkpt>
      <trkpt lat="44.7231" lon="3.82435">
        <ele>973</ele>
        <time>2009-07-11T12:55:09Z</time>
      </trkpt>
      <trkpt lat="44.72332" lon="3.8243">
        <ele>972</ele>
        <time>2009-07-11T12:55:12Z</time>
      </trkpt>
      <trkpt lat="44.72354" lon="3.82424">
        <ele>971</ele>
        <time>2009-07-11T12:55:15Z</time>
      </trkpt>
      <trkpt lat="44.72369" lon="3.82426">
        <ele>970</ele>
        <time>2009-07-11T12:55:17Z</time>
      </trkpt>
      <trkpt lat="44.72399" lon="3.8244">
        <ele>968</ele>
        <time>2009-07-11T12:55:21Z</time>
      </trkpt>
      <trkpt lat="44.72425" lon="3.82406">
        <ele>968</ele>
        <time>2009-07-11T12:55:27Z</time>
      </trkpt>
      <trkpt lat="44.72441" lon="3.82394">
        <ele>966</ele>
        <time>2009-07-11T12:55:30Z</time>
      </trkpt>
      <trkpt lat="44.72458" lon="3.82384">
        <ele>966</ele>
        <time>2009-07-11T12:55:33Z</time>
      </trkpt>
      <trkpt lat="44.7247" lon="3.82373">
        <ele>964</ele>
        <time>2009-07-11T12:55:35Z</time>
      </trkpt>
      <trkpt lat="44.72495" lon="3.82366">
        <ele>962</ele>
        <time>2009-07-11T12:55:39Z</time>
      </trkpt>
      <trkpt lat="44.72528" lon="3.82366">
        <ele>961</ele>
        <time>2009-07-11T12:55:47Z</time>
      </trkpt>
      <trkpt lat="44.72531" lon="3.82341">
        <ele>961</ele>
        <time>2009-07-11T12:55:54Z</time>
      </trkpt>
      <trkpt lat="44.72533" lon="3.82274">
        <ele>962</ele>
        <time>2009-07-11T12:56:08Z</time>
      </trkpt>
      <trkpt lat="44.72539" lon="3.82178">
        <ele>963</ele>
        <time>2009-07-11T12:56:25Z</time>
      </trkpt>
      <trkpt lat="44.72544" lon="3.82105">
        <ele>965</ele>
        <time>2009-07-11T12:56:38Z</time>
      </trkpt>
      <trkpt lat="44.72545" lon="3.82073">
        <ele>965</ele>
        <time>2009-07-11T12:56:43Z</time>
      </trkpt>
      <trkpt lat="44.72546" lon="3.82056">
        <ele>965</ele>
        <time>2009-07-11T12:56:46Z</time>
      </trkpt>
      <trkpt lat="44.72548" lon="3.82034">
        <ele>964</ele>
        <time>2009-07-11T12:56:50Z</time>
      </trkpt>
      <trkpt lat="44.72546" lon="3.81983">
        <ele>961</ele>
        <time>2009-07-11T12:56:58Z</time>
      </trkpt>
      <trkpt lat="44.72544" lon="3.81966">
        <ele>959</ele>
        <time>2009-07-11T12:57:00Z</time>
      </trkpt>
      <trkpt lat="44.72536" lon="3.81918">
        <ele>955</ele>
        <time>2009-07-11T12:57:06Z</time>
      </trkpt>
      <trkpt lat="44.72549" lon="3.81908">
        <ele>953</ele>
        <time>2009-07-11T12:57:09Z</time>
      </trkpt>
      <trkpt lat="44.72573" lon="3.81895">
        <ele>955</ele>
        <time>2009-07-11T12:57:15Z</time>
      </trkpt>
      <trkpt lat="44.7258" lon="3.8189">
        <ele>955</ele>
        <time>2009-07-11T12:57:17Z</time>
      </trkpt>
      <trkpt lat="44.72612" lon="3.81856">
        <ele>956</ele>
        <time>2009-07-11T12:57:27Z</time>
      </trkpt>
      <trkpt lat="44.7261" lon="3.8181">
        <ele>955</ele>
        <time>2009-07-11T12:57:35Z</time>
      </trkpt>
      <trkpt lat="44.7259" lon="3.81765">
        <ele>958</ele>
        <time>2009-07-11T12:57:45Z</time>
      </trkpt>
      <trkpt lat="44.72586" lon="3.81736">
        <ele>958</ele>
        <time>2009-07-11T12:57:50Z</time>
      </trkpt>
      <trkpt lat="44.72585" lon="3.81712">
        <ele>957</ele>
        <time>2009-07-11T12:57:54Z</time>
      </trkpt>
      <trkpt lat="44.72597" lon="3.81677">
        <ele>960</ele>
        <time>2009-07-11T12:58:03Z</time>
      </trkpt>
      <trkpt lat="44.72626" lon="3.81692">
        <ele>963</ele>
        <time>2009-07-11T12:58:14Z</time>
      </trkpt>
      <trkpt lat="44.72643" lon="3.81711">
        <ele>961</ele>
        <time>2009-07-11T12:58:20Z</time>
      </trkpt>
      <trkpt lat="44.72667" lon="3.81729">
        <ele>958</ele>
        <time>2009-07-11T12:58:25Z</time>
      </trkpt>
      <trkpt lat="44.72685" lon="3.81735">
        <ele>957</ele>
        <time>2009-07-11T12:58:28Z</time>
      </trkpt>
      <trkpt lat="44.72708" lon="3.81734">
        <ele>956</ele>
        <time>2009-07-11T12:58:32Z</time>
      </trkpt>
      <trkpt lat="44.72729" lon="3.81718">
        <ele>957</ele>
        <time>2009-07-11T12:58:38Z</time>
      </trkpt>
      <trkpt lat="44.72762" lon="3.81672">
        <ele>957</ele>
        <time>2009-07-11T12:58:50Z</time>
      </trkpt>
      <trkpt lat="44.72782" lon="3.81621">
        <ele>957</ele>
        <time>2009-07-11T12:59:01Z</time>
      </trkpt>
      <trkpt lat="44.72787" lon="3.81601">
        <ele>957</ele>
        <time>2009-07-11T12:59:05Z</time>
      </trkpt>
      <trkpt lat="44.72789" lon="3.81578">
        <ele>956</ele>
        <time>2009-07-11T12:59:09Z</time>
      </trkpt>
      <trkpt lat="44.72788" lon="3.81551">
        <ele>954</ele>
        <time>2009-07-11T12:59:13Z</time>
      </trkpt>
      <trkpt lat="44.72775" lon="3.81528">
        <ele>954</ele>
        <time>2009-07-11T12:59:17Z</time>
      </trkpt>
      <trkpt lat="44.72755" lon="3.81507">
        <ele>955</ele>
        <time>2009-07-11T12:59:23Z</time>
      </trkpt>
      <trkpt lat="44.72753" lon="3.81439">
        <ele>955</ele>
        <time>2009-07-11T12:59:36Z</time>
      </trkpt>
      <trkpt lat="44.72759" lon="3.81398">
        <ele>954</ele>
        <time>2009-07-11T12:59:45Z</time>
      </trkpt>
      <trkpt lat="44.72783" lon="3.81378">
        <ele>955</ele>
        <time>2009-07-11T12:59:55Z</time>
      </trkpt>
      <trkpt lat="44.72829" lon="3.81331">
        <ele>954</ele>
        <time>2009-07-11T13:00:10Z</time>
      </trkpt>
      <trkpt lat="44.72892" lon="3.81256">
        <ele>953</ele>
        <time>2009-07-11T13:00:30Z</time>
      </trkpt>
      <trkpt lat="44.72901" lon="3.81244">
        <ele>953</ele>
        <time>2009-07-11T13:00:33Z</time>
      </trkpt>
      <trkpt lat="44.72898" lon="3.81215">
        <ele>954</ele>
        <time>2009-07-11T13:00:41Z</time>
      </trkpt>
      <trkpt lat="44.72865" lon="3.81213">
        <ele>954</ele>
        <time>2009-07-11T13:00:49Z</time>
      </trkpt>
      <trkpt lat="44.72844" lon="3.81217">
        <ele>954</ele>
        <time>2009-07-11T13:00:54Z</time>
      </trkpt>
      <trkpt lat="44.72816" lon="3.81222">
        <ele>954</ele>
        <time>2009-07-11T13:01:01Z</time>
      </trkpt>
      <trkpt lat="44.72783" lon="3.81226">
        <ele>955</ele>
        <time>2009-07-11T13:01:10Z</time>
      </trkpt>
      <trkpt lat="44.7277" lon="3.81229">
        <ele>956</ele>
        <time>2009-07-11T13:01:14Z</time>
      </trkpt>
      <trkpt lat="44.72744" lon="3.81222">
        <ele>955</ele>
        <time>2009-07-11T13:01:25Z</time>
      </trkpt>
      <trkpt lat="44.72738" lon="3.81223">
        <ele>955</ele>
        <time>2009-07-11T13:01:49Z</time>
      </trkpt>
      <trkpt lat="44.72731" lon="3.81221">
        <ele>954</ele>
        <time>2009-07-11T13:01:59Z</time>
      </trkpt>
      <trkpt lat="44.72714" lon="3.81216">
        <ele>955</ele>
        <time>2009-07-11T13:02:06Z</time>
      </trkpt>
      <trkpt lat="44.72689" lon="3.81208">
        <ele>955</ele>
        <time>2009-07-11T13:02:16Z</time>
      </trkpt>
      <trkpt lat="44.72668" lon="3.81191">
        <ele>957</ele>
        <time>2009-07-11T13:02:25Z</time>
      </trkpt>
      <trkpt lat="44.72665" lon="3.81183">
        <ele>956</ele>
        <time>2009-07-11T13:02:27Z</time>
      </trkpt>
      <trkpt lat="44.72655" lon="3.81172">
        <ele>957</ele>
        <time>2009-07-11T13:02:31Z</time>
      </trkpt>
      <trkpt lat="44.72638" lon="3.8115">
        <ele>956</ele>
        <time>2009-07-11T13:02:37Z</time>
      </trkpt>
      <trkpt lat="44.72605" lon="3.81164">
        <ele>956</ele>
        <time>2009-07-11T13:02:49Z</time>
      </trkpt>
      <trkpt lat="44.72585" lon="3.81166">
        <ele>953</ele>
        <time>2009-07-11T13:02:55Z</time>
      </trkpt>
      <trkpt lat="44.72582" lon="3.81165">
        <ele>954</ele>
        <time>2009-07-11T13:02:56Z</time>
      </trkpt>
      <trkpt lat="44.72578" lon="3.81165">
        <ele>954</ele>
        <time>2009-07-11T13:02:57Z</time>
      </trkpt>
      <trkpt lat="44.7255" lon="3.81146">
        <ele>954</ele>
        <time>2009-07-11T13:03:07Z</time>
      </trkpt>
      <trkpt lat="44.72527" lon="3.81119">
        <ele>955</ele>
        <time>2009-07-11T13:03:19Z</time>
      </trkpt>
      <trkpt lat="44.7252" lon="3.8111">
        <ele>956</ele>
        <time>2009-07-11T13:03:33Z</time>
      </trkpt>
      <trkpt lat="44.72518" lon="3.81108">
        <ele>954</ele>
        <time>2009-07-11T13:03:36Z</time>
      </trkpt>
      <trkpt lat="44.72515" lon="3.81104">
        <ele>955</ele>
        <time>2009-07-11T13:03:40Z</time>
      </trkpt>
      <trkpt lat="44.72508" lon="3.81099">
        <ele>958</ele>
        <time>2009-07-11T13:03:51Z</time>
      </trkpt>
      <trkpt lat="44.72506" lon="3.81091">
        <ele>958</ele>
        <time>2009-07-11T13:04:08Z</time>
      </trkpt>
      <trkpt lat="44.72506" lon="3.81086">
        <ele>957</ele>
        <time>2009-07-11T13:04:18Z</time>
      </trkpt>
      <trkpt lat="44.72499" lon="3.81075">
        <ele>957</ele>
        <time>2009-07-11T13:04:28Z</time>
      </trkpt>
      <trkpt lat="44.72492" lon="3.81076">
        <ele>957</ele>
        <time>2009-07-11T13:04:39Z</time>
      </trkpt>
      <trkpt lat="44.72483" lon="3.81057">
        <ele>957</ele>
        <time>2009-07-11T13:04:47Z</time>
      </trkpt>
      <trkpt lat="44.72483" lon="3.81039">
        <ele>956</ele>
        <time>2009-07-11T13:05:04Z</time>
      </trkpt>
      <trkpt lat="44.72485" lon="3.8104">
        <ele>957</ele>
        <time>2009-07-11T13:05:07Z</time>
      </trkpt>
      <trkpt lat="44.72494" lon="3.81046">
        <ele>957</ele>
        <time>2009-07-11T13:05:18Z</time>
      </trkpt>
      <trkpt lat="44.72506" lon="3.81049">
        <ele>956</ele>
        <time>2009-07-11T13:05:31Z</time>
      </trkpt>
      <trkpt lat="44.72508" lon="3.8105">
        <ele>956</ele>
        <time>2009-07-11T13:05:35Z</time>
      </trkpt>
      <trkpt lat="44.72517" lon="3.81051">
        <ele>956</ele>
        <time>2009-07-11T13:05:41Z</time>
      </trkpt>
      <trkpt lat="44.72525" lon="3.81049">
        <ele>956</ele>
        <time>2009-07-11T13:05:52Z</time>
      </trkpt>
      <trkpt lat="44.72536" lon="3.81047">
        <ele>956</ele>
        <time>2009-07-11T13:06:06Z</time>
      </trkpt>
      <trkpt lat="44.72544" lon="3.81045">
        <ele>955</ele>
        <time>2009-07-11T13:06:19Z</time>
      </trkpt>
      <trkpt lat="44.72554" lon="3.81041">
        <ele>954</ele>
        <time>2009-07-11T13:06:32Z</time>
      </trkpt>
      <trkpt lat="44.72561" lon="3.81039">
        <ele>955</ele>
        <time>2009-07-11T13:06:43Z</time>
      </trkpt>
      <trkpt lat="44.72571" lon="3.81033">
        <ele>957</ele>
        <time>2009-07-11T13:06:56Z</time>
      </trkpt>
      <trkpt lat="44.72573" lon="3.81032">
        <ele>958</ele>
        <time>2009-07-11T13:06:58Z</time>
      </trkpt>
      <trkpt lat="44.72584" lon="3.81029">
        <ele>959</ele>
        <time>2009-07-11T13:07:07Z</time>
      </trkpt>
      <trkpt lat="44.72587" lon="3.81026">
        <ele>960</ele>
        <time>2009-07-11T13:07:10Z</time>
      </trkpt>
      <trkpt lat="44.72594" lon="3.81021">
        <ele>961</ele>
        <time>2009-07-11T13:07:16Z</time>
      </trkpt>
      <trkpt lat="44.72602" lon="3.81011">
        <ele>963</ele>
        <time>2009-07-11T13:07:24Z</time>
      </trkpt>
      <trkpt lat="44.72608" lon="3.81007">
        <ele>965</ele>
        <time>2009-07-11T13:07:37Z</time>
      </trkpt>
      <trkpt lat="44.72614" lon="3.81005">
        <ele>966</ele>
        <time>2009-07-11T13:07:50Z</time>
      </trkpt>
      <trkpt lat="44.72621" lon="3.81003">
        <ele>968</ele>
        <time>2009-07-11T13:08:02Z</time>
      </trkpt>
      <trkpt lat="44.7263" lon="3.80999">
        <ele>968</ele>
        <time>2009-07-11T13:08:16Z</time>
      </trkpt>
      <trkpt lat="44.72635" lon="3.80999">
        <ele>968</ele>
        <time>2009-07-11T13:08:25Z</time>
      </trkpt>
      <trkpt lat="44.72645" lon="3.80996">
        <ele>968</ele>
        <time>2009-07-11T13:08:33Z</time>
      </trkpt>
      <trkpt lat="44.72651" lon="3.80999">
        <ele>966</ele>
        <time>2009-07-11T13:08:44Z</time>
      </trkpt>
      <trkpt lat="44.72662" lon="3.81006">
        <ele>965</ele>
        <time>2009-07-11T13:08:59Z</time>
      </trkpt>
      <trkpt lat="44.72669" lon="3.81007">
        <ele>963</ele>
        <time>2009-07-11T13:09:10Z</time>
      </trkpt>
      <trkpt lat="44.72674" lon="3.81009">
        <ele>960</ele>
        <time>2009-07-11T13:09:21Z</time>
      </trkpt>
      <trkpt lat="44.72674" lon="3.81009">
        <ele>960</ele>
        <time>2009-07-11T13:09:22Z</time>
      </trkpt>
      <trkpt lat="44.72683" lon="3.81012">
        <ele>957</ele>
        <time>2009-07-11T13:09:35Z</time>
      </trkpt>
      <trkpt lat="44.72688" lon="3.81012">
        <ele>955</ele>
        <time>2009-07-11T13:09:45Z</time>
      </trkpt>
      <trkpt lat="44.72707" lon="3.80995">
        <ele>956</ele>
        <time>2009-07-11T13:09:59Z</time>
      </trkpt>
      <trkpt lat="44.72733" lon="3.80984">
        <ele>954</ele>
        <time>2009-07-11T13:10:10Z</time>
      </trkpt>
      <trkpt lat="44.7276" lon="3.80962">
        <ele>955</ele>
        <time>2009-07-11T13:10:22Z</time>
      </trkpt>
      <trkpt lat="44.72777" lon="3.80945">
        <ele>955</ele>
        <time>2009-07-11T13:10:31Z</time>
      </trkpt>
      <trkpt lat="44.728" lon="3.80932">
        <ele>954</ele>
        <time>2009-07-11T13:10:41Z</time>
      </trkpt>
      <trkpt lat="44.72829" lon="3.80915">
        <ele>955</ele>
        <time>2009-07-11T13:10:53Z</time>
      </trkpt>
      <trkpt lat="44.72839" lon="3.80903">
        <ele>955</ele>
        <time>2009-07-11T13:10:58Z</time>
      </trkpt>
      <trkpt lat="44.7285" lon="3.80898">
        <ele>956</ele>
        <time>2009-07-11T13:11:03Z</time>
      </trkpt>
      <trkpt lat="44.72877" lon="3.80879">
        <ele>955</ele>
        <time>2009-07-11T13:11:14Z</time>
      </trkpt>
      <trkpt lat="44.72879" lon="3.80878">
        <ele>956</ele>
        <time>2009-07-11T13:11:15Z</time>
      </trkpt>
      <trkpt lat="44.729" lon="3.80873">
        <ele>953</ele>
        <time>2009-07-11T13:11:22Z</time>
      </trkpt>
      <trkpt lat="44.72934" lon="3.80853">
        <ele>953</ele>
        <time>2009-07-11T13:11:35Z</time>
      </trkpt>
      <trkpt lat="44.72968" lon="3.80842">
        <ele>952</ele>
        <time>2009-07-11T13:11:48Z</time>
      </trkpt>
      <trkpt lat="44.72979" lon="3.80834">
        <ele>953</ele>
        <time>2009-07-11T13:11:59Z</time>
      </trkpt>
      <trkpt lat="44.72981" lon="3.80835">
        <ele>953</ele>
        <time>2009-07-11T13:12:33Z</time>
      </trkpt>
      <trkpt lat="44.73001" lon="3.80817">
        <ele>953</ele>
        <time>2009-07-11T13:12:47Z</time>
      </trkpt>
      <trkpt lat="44.73008" lon="3.80805">
        <ele>953</ele>
        <time>2009-07-11T13:12:52Z</time>
      </trkpt>
      <trkpt lat="44.73007" lon="3.80795">
        <ele>954</ele>
        <time>2009-07-11T13:13:11Z</time>
      </trkpt>
      <trkpt lat="44.73007" lon="3.80796">
        <ele>953</ele>
        <time>2009-07-11T13:13:32Z</time>
      </trkpt>
      <trkpt lat="44.73009" lon="3.80804">
        <ele>953</ele>
        <time>2009-07-11T13:13:35Z</time>
      </trkpt>
      <trkpt lat="44.73004" lon="3.80813">
        <ele>953</ele>
        <time>2009-07-11T13:13:39Z</time>
      </trkpt>
      <trkpt lat="44.72994" lon="3.80822">
        <ele>953</ele>
        <time>2009-07-11T13:13:51Z</time>
      </trkpt>
      <trkpt lat="44.73" lon="3.80815">
        <ele>953</ele>
        <time>2009-07-11T13:13:56Z</time>
      </trkpt>
      <trkpt lat="44.73003" lon="3.80784">
        <ele>953</ele>
        <time>2009-07-11T13:14:06Z</time>
      </trkpt>
      <trkpt lat="44.72963" lon="3.80757">
        <ele>954</ele>
        <time>2009-07-11T13:14:21Z</time>
      </trkpt>
      <trkpt lat="44.72937" lon="3.80748">
        <ele>953</ele>
        <time>2009-07-11T13:14:30Z</time>
      </trkpt>
      <trkpt lat="44.72924" lon="3.80747">
        <ele>953</ele>
        <time>2009-07-11T13:14:35Z</time>
      </trkpt>
      <trkpt lat="44.72894" lon="3.80721">
        <ele>952</ele>
        <time>2009-07-11T13:14:46Z</time>
      </trkpt>
      <trkpt lat="44.72872" lon="3.80681">
        <ele>952</ele>
        <time>2009-07-11T13:14:57Z</time>
      </trkpt>
      <trkpt lat="44.72884" lon="3.80653">
        <ele>954</ele>
        <time>2009-07-11T13:15:06Z</time>
      </trkpt>
      <trkpt lat="44.72912" lon="3.80644">
        <ele>954</ele>
        <time>2009-07-11T13:15:18Z</time>
      </trkpt>
      <trkpt lat="44.72936" lon="3.80641">
        <ele>954</ele>
        <time>2009-07-11T13:15:26Z</time>
      </trkpt>
      <trkpt lat="44.72949" lon="3.80635">
        <ele>953</ele>
        <time>2009-07-11T13:15:30Z</time>
      </trkpt>
      <trkpt lat="44.72954" lon="3.80621">
        <ele>954</ele>
        <time>2009-07-11T13:15:34Z</time>
      </trkpt>
      <trkpt lat="44.72946" lon="3.80594">
        <ele>954</ele>
        <time>2009-07-11T13:15:41Z</time>
      </trkpt>
      <trkpt lat="44.72931" lon="3.80574">
        <ele>953</ele>
        <time>2009-07-11T13:15:48Z</time>
      </trkpt>
      <trkpt lat="44.72924" lon="3.80566">
        <ele>952</ele>
        <time>2009-07-11T13:15:50Z</time>
      </trkpt>
      <trkpt lat="44.72914" lon="3.8056">
        <ele>954</ele>
        <time>2009-07-11T13:15:57Z</time>
      </trkpt>
      <trkpt lat="44.72905" lon="3.80551">
        <ele>956</ele>
        <time>2009-07-11T13:16:04Z</time>
      </trkpt>
      <trkpt lat="44.72904" lon="3.80549">
        <ele>955</ele>
        <time>2009-07-11T13:16:07Z</time>
      </trkpt>
      <trkpt lat="44.72901" lon="3.80532">
        <ele>953</ele>
        <time>2009-07-11T13:16:11Z</time>
      </trkpt>
      <trkpt lat="44.72895" lon="3.80522">
        <ele>954</ele>
        <time>2009-07-11T13:16:14Z</time>
      </trkpt>
      <trkpt lat="44.72892" lon="3.80506">
        <ele>952</ele>
        <time>2009-07-11T13:16:18Z</time>
      </trkpt>
      <trkpt lat="44.72884" lon="3.80487">
        <ele>953</ele>
        <time>2009-07-11T13:16:23Z</time>
      </trkpt>
      <trkpt lat="44.72876" lon="3.80447">
        <ele>954</ele>
        <time>2009-07-11T13:16:34Z</time>
      </trkpt>
      <trkpt lat="44.72875" lon="3.80403">
        <ele>952</ele>
        <time>2009-07-11T13:16:45Z</time>
      </trkpt>
      <trkpt lat="44.72872" lon="3.80378">
        <ele>956</ele>
        <time>2009-07-11T13:16:54Z</time>
      </trkpt>
      <trkpt lat="44.72869" lon="3.80362">
        <ele>959</ele>
        <time>2009-07-11T13:17:08Z</time>
      </trkpt>
      <trkpt lat="44.72869" lon="3.80351">
        <ele>961</ele>
        <time>2009-07-11T13:17:23Z</time>
      </trkpt>
      <trkpt lat="44.72871" lon="3.80345">
        <ele>961</ele>
        <time>2009-07-11T13:17:36Z</time>
      </trkpt>
      <trkpt lat="44.72873" lon="3.80342">
        <ele>959</ele>
        <time>2009-07-11T13:17:44Z</time>
      </trkpt>
      <trkpt lat="44.72886" lon="3.80328">
        <ele>958</ele>
        <time>2009-07-11T13:17:58Z</time>
      </trkpt>
      <trkpt lat="44.72894" lon="3.80329">
        <ele>961</ele>
        <time>2009-07-11T13:18:10Z</time>
      </trkpt>
      <trkpt lat="44.72904" lon="3.80332">
        <ele>963</ele>
        <time>2009-07-11T13:18:25Z</time>
      </trkpt>
      <trkpt lat="44.72913" lon="3.80337">
        <ele>964</ele>
        <time>2009-07-11T13:18:37Z</time>
      </trkpt>
      <trkpt lat="44.72921" lon="3.80346">
        <ele>964</ele>
        <time>2009-07-11T13:18:50Z</time>
      </trkpt>
      <trkpt lat="44.7293" lon="3.8036">
        <ele>961</ele>
        <time>2009-07-11T13:18:57Z</time>
      </trkpt>
      <trkpt lat="44.7294" lon="3.80379">
        <ele>957</ele>
        <time>2009-07-11T13:19:03Z</time>
      </trkpt>
      <trkpt lat="44.72945" lon="3.80387">
        <ele>953</ele>
        <time>2009-07-11T13:19:05Z</time>
      </trkpt>
      <trkpt lat="44.72948" lon="3.80392">
        <ele>953</ele>
        <time>2009-07-11T13:19:06Z</time>
      </trkpt>
      <trkpt lat="44.72972" lon="3.80414">
        <ele>953</ele>
        <time>2009-07-11T13:19:15Z</time>
      </trkpt>
      <trkpt lat="44.72974" lon="3.80418">
        <ele>954</ele>
        <time>2009-07-11T13:19:17Z</time>
      </trkpt>
      <trkpt lat="44.72975" lon="3.80422">
        <ele>954</ele>
        <time>2009-07-11T13:19:19Z</time>
      </trkpt>
      <trkpt lat="44.72979" lon="3.80431">
        <ele>954</ele>
        <time>2009-07-11T13:19:23Z</time>
      </trkpt>
      <trkpt lat="44.72985" lon="3.8044">
        <ele>956</ele>
        <time>2009-07-11T13:19:27Z</time>
      </trkpt>
      <trkpt lat="44.72991" lon="3.80455">
        <ele>956</ele>
        <time>2009-07-11T13:19:32Z</time>
      </trkpt>
      <trkpt lat="44.73002" lon="3.80473">
        <ele>955</ele>
        <time>2009-07-11T13:19:38Z</time>
      </trkpt>
      <trkpt lat="44.73015" lon="3.80485">
        <ele>957</ele>
        <time>2009-07-11T13:19:45Z</time>
      </trkpt>
      <trkpt lat="44.73021" lon="3.80503">
        <ele>954</ele>
        <time>2009-07-11T13:19:51Z</time>
      </trkpt>
      <trkpt lat="44.73022" lon="3.80506">
        <ele>953</ele>
        <time>2009-07-11T13:19:52Z</time>
      </trkpt>
      <trkpt lat="44.7303" lon="3.80514">
        <ele>953</ele>
        <time>2009-07-11T13:19:56Z</time>
      </trkpt>
      <trkpt lat="44.73045" lon="3.80526">
        <ele>953</ele>
        <time>2009-07-11T13:20:03Z</time>
      </trkpt>
      <trkpt lat="44.73058" lon="3.80531">
        <ele>954</ele>
        <time>2009-07-11T13:20:09Z</time>
      </trkpt>
      <trkpt lat="44.73078" lon="3.8055">
        <ele>953</ele>
        <time>2009-07-11T13:20:17Z</time>
      </trkpt>
      <trkpt lat="44.73081" lon="3.80557">
        <ele>954</ele>
        <time>2009-07-11T13:20:19Z</time>
      </trkpt>
      <trkpt lat="44.73088" lon="3.80581">
        <ele>954</ele>
        <time>2009-07-11T13:20:26Z</time>
      </trkpt>
      <trkpt lat="44.73109" lon="3.80609">
        <ele>953</ele>
        <time>2009-07-11T13:20:37Z</time>
      </trkpt>
      <trkpt lat="44.73134" lon="3.80623">
        <ele>953</ele>
        <time>2009-07-11T13:20:48Z</time>
      </trkpt>
      <trkpt lat="44.7315" lon="3.8063">
        <ele>955</ele>
        <time>2009-07-11T13:20:55Z</time>
      </trkpt>
      <trkpt lat="44.73158" lon="3.80645">
        <ele>953</ele>
        <time>2009-07-11T13:21:01Z</time>
      </trkpt>
      <trkpt lat="44.73174" lon="3.80659">
        <ele>953</ele>
        <time>2009-07-11T13:21:08Z</time>
      </trkpt>
      <trkpt lat="44.73185" lon="3.80663">
        <ele>953</ele>
        <time>2009-07-11T13:21:13Z</time>
      </trkpt>
      <trkpt lat="44.73196" lon="3.80666">
        <ele>951</ele>
        <time>2009-07-11T13:21:20Z</time>
      </trkpt>
      <trkpt lat="44.73214" lon="3.80679">
        <ele>953</ele>
        <time>2009-07-11T13:21:30Z</time>
      </trkpt>
      <trkpt lat="44.73218" lon="3.8068">
        <ele>953</ele>
        <time>2009-07-11T13:22:01Z</time>
      </trkpt>
      <trkpt lat="44.73214" lon="3.80671">
        <ele>954</ele>
        <time>2009-07-11T13:24:01Z</time>
      </trkpt>
      <trkpt lat="44.73216" lon="3.80673">
        <ele>954</ele>
        <time>2009-07-11T13:24:41Z</time>
      </trkpt>
      <trkpt lat="44.7322" lon="3.80652">
        <ele>956</ele>
        <time>2009-07-11T13:24:53Z</time>
      </trkpt>
      <trkpt lat="44.73221" lon="3.80618">
        <ele>960</ele>
        <time>2009-07-11T13:25:12Z</time>
      </trkpt>
      <trkpt lat="44.73221" lon="3.80616">
        <ele>960</ele>
        <time>2009-07-11T13:25:13Z</time>
      </trkpt>
      <trkpt lat="44.73216" lon="3.80585">
        <ele>962</ele>
        <time>2009-07-11T13:25:29Z</time>
      </trkpt>
      <trkpt lat="44.73215" lon="3.80579">
        <ele>963</ele>
        <time>2009-07-11T13:25:32Z</time>
      </trkpt>
      <trkpt lat="44.73205" lon="3.80545">
        <ele>968</ele>
        <time>2009-07-11T13:25:46Z</time>
      </trkpt>
      <trkpt lat="44.73204" lon="3.80543">
        <ele>968</ele>
        <time>2009-07-11T13:25:47Z</time>
      </trkpt>
      <trkpt lat="44.73203" lon="3.80541">
        <ele>968</ele>
        <time>2009-07-11T13:25:48Z</time>
      </trkpt>
      <trkpt lat="44.73203" lon="3.80538">
        <ele>969</ele>
        <time>2009-07-11T13:25:50Z</time>
      </trkpt>
      <trkpt lat="44.73201" lon="3.8053">
        <ele>970</ele>
        <time>2009-07-11T13:25:55Z</time>
      </trkpt>
      <trkpt lat="44.73191" lon="3.80496">
        <ele>972</ele>
        <time>2009-07-11T13:26:11Z</time>
      </trkpt>
      <trkpt lat="44.73189" lon="3.80488">
        <ele>973</ele>
        <time>2009-07-11T13:26:15Z</time>
      </trkpt>
      <trkpt lat="44.73181" lon="3.80436">
        <ele>975</ele>
        <time>2009-07-11T13:26:36Z</time>
      </trkpt>
      <trkpt lat="44.73175" lon="3.80393">
        <ele>978</ele>
        <time>2009-07-11T13:26:54Z</time>
      </trkpt>
      <trkpt lat="44.73174" lon="3.80387">
        <ele>979</ele>
        <time>2009-07-11T13:26:57Z</time>
      </trkpt>
      <trkpt lat="44.73165" lon="3.80349">
        <ele>982</ele>
        <time>2009-07-11T13:27:14Z</time>
      </trkpt>
      <trkpt lat="44.73158" lon="3.80316">
        <ele>984</ele>
        <time>2009-07-11T13:27:29Z</time>
      </trkpt>
      <trkpt lat="44.73164" lon="3.80294">
        <ele>986</ele>
        <time>2009-07-11T13:27:39Z</time>
      </trkpt>
      <trkpt lat="44.73163" lon="3.80282">
        <ele>986</ele>
        <time>2009-07-11T13:27:44Z</time>
      </trkpt>
      <trkpt lat="44.73162" lon="3.80264">
        <ele>986</ele>
        <time>2009-07-11T13:27:52Z</time>
      </trkpt>
      <trkpt lat="44.73159" lon="3.80254">
        <ele>988</ele>
        <time>2009-07-11T13:28:00Z</time>
      </trkpt>
      <trkpt lat="44.73161" lon="3.80248">
        <ele>989</ele>
        <time>2009-07-11T13:28:04Z</time>
      </trkpt>
      <trkpt lat="44.73162" lon="3.80243">
        <ele>989</ele>
        <time>2009-07-11T13:28:06Z</time>
      </trkpt>
      <trkpt lat="44.7316" lon="3.80228">
        <ele>990</ele>
        <time>2009-07-11T13:28:12Z</time>
      </trkpt>
      <trkpt lat="44.7316" lon="3.80213">
        <ele>992</ele>
        <time>2009-07-11T13:28:19Z</time>
      </trkpt>
      <trkpt lat="44.73159" lon="3.80206">
        <ele>993</ele>
        <time>2009-07-11T13:28:23Z</time>
      </trkpt>
      <trkpt lat="44.73151" lon="3.80176">
        <ele>996</ele>
        <time>2009-07-11T13:28:39Z</time>
      </trkpt>
      <trkpt lat="44.73149" lon="3.80169">
        <ele>998</ele>
        <time>2009-07-11T13:28:43Z</time>
      </trkpt>
      <trkpt lat="44.73144" lon="3.8015">
        <ele>1001</ele>
        <time>2009-07-11T13:28:55Z</time>
      </trkpt>
      <trkpt lat="44.73144" lon="3.80148">
        <ele>1001</ele>
        <time>2009-07-11T13:28:56Z</time>
      </trkpt>
      <trkpt lat="44.73137" lon="3.80123">
        <ele>1003</ele>
        <time>2009-07-11T13:29:10Z</time>
      </trkpt>
      <trkpt lat="44.73125" lon="3.80103">
        <ele>1006</ele>
        <time>2009-07-11T13:29:23Z</time>
      </trkpt>
      <trkpt lat="44.7313" lon="3.80071">
        <ele>1008</ele>
        <time>2009-07-11T13:29:39Z</time>
      </trkpt>
      <trkpt lat="44.73131" lon="3.80028">
        <ele>1010</ele>
        <time>2009-07-11T13:29:55Z</time>
      </trkpt>
      <trkpt lat="44.73118" lon="3.79979">
        <ele>1012</ele>
        <time>2009-07-11T13:30:11Z</time>
      </trkpt>
      <trkpt lat="44.73113" lon="3.79909">
        <ele>1012</ele>
        <time>2009-07-11T13:30:32Z</time>
      </trkpt>
      <trkpt lat="44.73111" lon="3.79899">
        <ele>1014</ele>
        <time>2009-07-11T13:30:35Z</time>
      </trkpt>
      <trkpt lat="44.73127" lon="3.79863">
        <ele>1015</ele>
        <time>2009-07-11T13:30:47Z</time>
      </trkpt>
      <trkpt lat="44.73128" lon="3.79856">
        <ele>1015</ele>
        <time>2009-07-11T13:30:49Z</time>
      </trkpt>
      <trkpt lat="44.73122" lon="3.79809">
        <ele>1016</ele>
        <time>2009-07-11T13:31:02Z</time>
      </trkpt>
      <trkpt lat="44.73114" lon="3.79789">
        <ele>1017</ele>
        <time>2009-07-11T13:31:08Z</time>
      </trkpt>
      <trkpt lat="44.73107" lon="3.79739">
        <ele>1018</ele>
        <time>2009-07-11T13:31:24Z</time>
      </trkpt>
      <trkpt lat="44.7311" lon="3.79706">
        <ele>1021</ele>
        <time>2009-07-11T13:31:35Z</time>
      </trkpt>
      <trkpt lat="44.73104" lon="3.79663">
        <ele>1022</ele>
        <time>2009-07-11T13:31:49Z</time>
      </trkpt>
      <trkpt lat="44.731" lon="3.79604">
        <ele>1022</ele>
        <time>2009-07-11T13:32:02Z</time>
      </trkpt>
      <trkpt lat="44.7309" lon="3.7953">
        <ele>1021</ele>
        <time>2009-07-11T13:32:16Z</time>
      </trkpt>
      <trkpt lat="44.73081" lon="3.79472">
        <ele>1020</ele>
        <time>2009-07-11T13:32:29Z</time>
      </trkpt>
      <trkpt lat="44.7308" lon="3.79469">
        <ele>1020</ele>
        <time>2009-07-11T13:32:44Z</time>
      </trkpt>
      <trkpt lat="44.73079" lon="3.79465">
        <ele>1020</ele>
        <time>2009-07-11T13:33:03Z</time>
      </trkpt>
      <trkpt lat="44.73075" lon="3.79456">
        <ele>1020</ele>
        <time>2009-07-11T13:34:43Z</time>
      </trkpt>
      <trkpt lat="44.73071" lon="3.79411">
        <ele>1022</ele>
        <time>2009-07-11T13:34:56Z</time>
      </trkpt>
      <trkpt lat="44.73066" lon="3.79396">
        <ele>1020</ele>
        <time>2009-07-11T13:35:00Z</time>
      </trkpt>
      <trkpt lat="44.73068" lon="3.79373">
        <ele>1021</ele>
        <time>2009-07-11T13:35:05Z</time>
      </trkpt>
      <trkpt lat="44.73082" lon="3.79321">
        <ele>1022</ele>
        <time>2009-07-11T13:35:18Z</time>
      </trkpt>
      <trkpt lat="44.73103" lon="3.79246">
        <ele>1024</ele>
        <time>2009-07-11T13:35:37Z</time>
      </trkpt>
      <trkpt lat="44.73116" lon="3.79185">
        <ele>1027</ele>
        <time>2009-07-11T13:35:54Z</time>
      </trkpt>
      <trkpt lat="44.73121" lon="3.79121">
        <ele>1029</ele>
        <time>2009-07-11T13:36:11Z</time>
      </trkpt>
      <trkpt lat="44.73118" lon="3.79081">
        <ele>1032</ele>
        <time>2009-07-11T13:36:24Z</time>
      </trkpt>
      <trkpt lat="44.7312" lon="3.79028">
        <ele>1032</ele>
        <time>2009-07-11T13:36:39Z</time>
      </trkpt>
      <trkpt lat="44.73119" lon="3.79008">
        <ele>1032</ele>
        <time>2009-07-11T13:36:42Z</time>
      </trkpt>
      <trkpt lat="44.73107" lon="3.78951">
        <ele>1032</ele>
        <time>2009-07-11T13:36:54Z</time>
      </trkpt>
      <trkpt lat="44.73107" lon="3.78879">
        <ele>1032</ele>
        <time>2009-07-11T13:37:09Z</time>
      </trkpt>
      <trkpt lat="44.73115" lon="3.78842">
        <ele>1033</ele>
        <time>2009-07-11T13:37:21Z</time>
      </trkpt>
      <trkpt lat="44.73115" lon="3.78843">
        <ele>1035</ele>
        <time>2009-07-11T13:38:17Z</time>
      </trkpt>
      <trkpt lat="44.73114" lon="3.78845">
        <ele>1035</ele>
        <time>2009-07-11T13:38:53Z</time>
      </trkpt>
      <trkpt lat="44.73122" lon="3.78822">
        <ele>1035</ele>
        <time>2009-07-11T13:39:07Z</time>
      </trkpt>
      <trkpt lat="44.73129" lon="3.78794">
        <ele>1035</ele>
        <time>2009-07-11T13:39:14Z</time>
      </trkpt>
      <trkpt lat="44.73138" lon="3.78732">
        <ele>1039</ele>
        <time>2009-07-11T13:39:29Z</time>
      </trkpt>
      <trkpt lat="44.73154" lon="3.78676">
        <ele>1040</ele>
        <time>2009-07-11T13:39:43Z</time>
      </trkpt>
      <trkpt lat="44.73161" lon="3.78632">
        <ele>1040</ele>
        <time>2009-07-11T13:39:53Z</time>
      </trkpt>
      <trkpt lat="44.73165" lon="3.78579">
        <ele>1041</ele>
        <time>2009-07-11T13:40:04Z</time>
      </trkpt>
      <trkpt lat="44.73183" lon="3.78502">
        <ele>1042</ele>
        <time>2009-07-11T13:40:22Z</time>
      </trkpt>
      <trkpt lat="44.7318" lon="3.78432">
        <ele>1043</ele>
        <time>2009-07-11T13:40:38Z</time>
      </trkpt>
      <trkpt lat="44.73182" lon="3.78357">
        <ele>1041</ele>
        <time>2009-07-11T13:40:48Z</time>
      </trkpt>
      <trkpt lat="44.7319" lon="3.78292">
        <ele>1043</ele>
        <time>2009-07-11T13:40:59Z</time>
      </trkpt>
      <trkpt lat="44.73207" lon="3.78221">
        <ele>1044</ele>
        <time>2009-07-11T13:41:13Z</time>
      </trkpt>
      <trkpt lat="44.73209" lon="3.78203">
        <ele>1044</ele>
        <time>2009-07-11T13:41:16Z</time>
      </trkpt>
      <trkpt lat="44.73209" lon="3.78186">
        <ele>1044</ele>
        <time>2009-07-11T13:41:19Z</time>
      </trkpt>
      <trkpt lat="44.73215" lon="3.7812">
        <ele>1045</ele>
        <time>2009-07-11T13:41:33Z</time>
      </trkpt>
      <trkpt lat="44.73224" lon="3.7811">
        <ele>1046</ele>
        <time>2009-07-11T13:41:39Z</time>
      </trkpt>
      <trkpt lat="44.73225" lon="3.78095">
        <ele>1047</ele>
        <time>2009-07-11T13:41:47Z</time>
      </trkpt>
      <trkpt lat="44.73226" lon="3.7809">
        <ele>1048</ele>
        <time>2009-07-11T13:41:49Z</time>
      </trkpt>
      <trkpt lat="44.73247" lon="3.78028">
        <ele>1051</ele>
        <time>2009-07-11T13:42:07Z</time>
      </trkpt>
      <trkpt lat="44.73257" lon="3.77976">
        <ele>1051</ele>
        <time>2009-07-11T13:42:20Z</time>
      </trkpt>
      <trkpt lat="44.73265" lon="3.77903">
        <ele>1051</ele>
        <time>2009-07-11T13:42:35Z</time>
      </trkpt>
      <trkpt lat="44.73281" lon="3.77834">
        <ele>1051</ele>
        <time>2009-07-11T13:42:49Z</time>
      </trkpt>
      <trkpt lat="44.73302" lon="3.77778">
        <ele>1049</ele>
        <time>2009-07-11T13:43:01Z</time>
      </trkpt>
      <trkpt lat="44.73323" lon="3.77716">
        <ele>1046</ele>
        <time>2009-07-11T13:43:13Z</time>
      </trkpt>
      <trkpt lat="44.73343" lon="3.77661">
        <ele>1046</ele>
        <time>2009-07-11T13:43:25Z</time>
      </trkpt>
      <trkpt lat="44.73367" lon="3.77598">
        <ele>1049</ele>
        <time>2009-07-11T13:43:39Z</time>
      </trkpt>
      <trkpt lat="44.73388" lon="3.77526">
        <ele>1049</ele>
        <time>2009-07-11T13:43:54Z</time>
      </trkpt>
      <trkpt lat="44.7341" lon="3.77462">
        <ele>1048</ele>
        <time>2009-07-11T13:44:09Z</time>
      </trkpt>
      <trkpt lat="44.73426" lon="3.77418">
        <ele>1046</ele>
        <time>2009-07-11T13:44:19Z</time>
      </trkpt>
      <trkpt lat="44.73428" lon="3.77405">
        <ele>1046</ele>
        <time>2009-07-11T13:44:21Z</time>
      </trkpt>
      <trkpt lat="44.73433" lon="3.77382">
        <ele>1043</ele>
        <time>2009-07-11T13:44:24Z</time>
      </trkpt>
      <trkpt lat="44.73441" lon="3.77359">
        <ele>1041</ele>
        <time>2009-07-11T13:44:27Z</time>
      </trkpt>
      <trkpt lat="44.73494" lon="3.77249">
        <ele>1039</ele>
        <time>2009-07-11T13:44:41Z</time>
      </trkpt>
      <trkpt lat="44.73545" lon="3.77169">
        <ele>1038</ele>
        <time>2009-07-11T13:44:56Z</time>
      </trkpt>
      <trkpt lat="44.73564" lon="3.77144">
        <ele>1036</ele>
        <time>2009-07-11T13:45:01Z</time>
      </trkpt>
      <trkpt lat="44.73617" lon="3.77092">
        <ele>1036</ele>
        <time>2009-07-11T13:45:14Z</time>
      </trkpt>
      <trkpt lat="44.73717" lon="3.77012">
        <ele>1034</ele>
        <time>2009-07-11T13:45:35Z</time>
      </trkpt>
      <trkpt lat="44.73785" lon="3.76956">
        <ele>1031</ele>
        <time>2009-07-11T13:45:50Z</time>
      </trkpt>
      <trkpt lat="44.73801" lon="3.76929">
        <ele>1031</ele>
        <time>2009-07-11T13:45:55Z</time>
      </trkpt>
      <trkpt lat="44.73802" lon="3.7692">
        <ele>1031</ele>
        <time>2009-07-11T13:45:57Z</time>
      </trkpt>
      <trkpt lat="44.73798" lon="3.76912">
        <ele>1031</ele>
        <time>2009-07-11T13:46:01Z</time>
      </trkpt>
      <trkpt lat="44.73788" lon="3.76893">
        <ele>1029</ele>
        <time>2009-07-11T13:46:06Z</time>
      </trkpt>
      <trkpt lat="44.73773" lon="3.76848">
        <ele>1025</ele>
        <time>2009-07-11T13:46:16Z</time>
      </trkpt>
      <trkpt lat="44.73773" lon="3.76843">
        <ele>1025</ele>
        <time>2009-07-11T13:46:17Z</time>
      </trkpt>
      <trkpt lat="44.73779" lon="3.76828">
        <ele>1022</ele>
        <time>2009-07-11T13:46:20Z</time>
      </trkpt>
      <trkpt lat="44.73795" lon="3.7681">
        <ele>1025</ele>
        <time>2009-07-11T13:46:26Z</time>
      </trkpt>
      <trkpt lat="44.7381" lon="3.76788">
        <ele>1024</ele>
        <time>2009-07-11T13:46:32Z</time>
      </trkpt>
      <trkpt lat="44.73813" lon="3.76782">
        <ele>1023</ele>
        <time>2009-07-11T13:46:33Z</time>
      </trkpt>
      <trkpt lat="44.7382" lon="3.76753">
        <ele>1019</ele>
        <time>2009-07-11T13:46:37Z</time>
      </trkpt>
      <trkpt lat="44.73831" lon="3.76699">
        <ele>1017</ele>
        <time>2009-07-11T13:46:42Z</time>
      </trkpt>
      <trkpt lat="44.7386" lon="3.76636">
        <ele>1017</ele>
        <time>2009-07-11T13:46:49Z</time>
      </trkpt>
      <trkpt lat="44.73897" lon="3.76593">
        <ele>1013</ele>
        <time>2009-07-11T13:46:55Z</time>
      </trkpt>
      <trkpt lat="44.73967" lon="3.76515">
        <ele>1012</ele>
        <time>2009-07-11T13:47:07Z</time>
      </trkpt>
      <trkpt lat="44.73986" lon="3.76501">
        <ele>1014</ele>
        <time>2009-07-11T13:47:11Z</time>
      </trkpt>
      <trkpt lat="44.7402" lon="3.76461">
        <ele>1017</ele>
        <time>2009-07-11T13:47:23Z</time>
      </trkpt>
      <trkpt lat="44.74075" lon="3.76393">
        <ele>1014</ele>
        <time>2009-07-11T13:47:39Z</time>
      </trkpt>
      <trkpt lat="44.74138" lon="3.76322">
        <ele>1013</ele>
        <time>2009-07-11T13:47:53Z</time>
      </trkpt>
      <trkpt lat="44.74208" lon="3.7625">
        <ele>1015</ele>
        <time>2009-07-11T13:48:12Z</time>
      </trkpt>
      <trkpt lat="44.74225" lon="3.76232">
        <ele>1018</ele>
        <time>2009-07-11T13:48:17Z</time>
      </trkpt>
      <trkpt lat="44.74264" lon="3.76172">
        <ele>1015</ele>
        <time>2009-07-11T13:48:31Z</time>
      </trkpt>
      <trkpt lat="44.74289" lon="3.76143">
        <ele>1013</ele>
        <time>2009-07-11T13:48:38Z</time>
      </trkpt>
      <trkpt lat="44.74319" lon="3.76109">
        <ele>1009</ele>
        <time>2009-07-11T13:48:45Z</time>
      </trkpt>
      <trkpt lat="44.74324" lon="3.76103">
        <ele>1010</ele>
        <time>2009-07-11T13:48:46Z</time>
      </trkpt>
      <trkpt lat="44.74341" lon="3.76084">
        <ele>1007</ele>
        <time>2009-07-11T13:48:49Z</time>
      </trkpt>
      <trkpt lat="44.74354" lon="3.7607">
        <ele>1006</ele>
        <time>2009-07-11T13:48:51Z</time>
      </trkpt>
      <trkpt lat="44.74374" lon="3.76045">
        <ele>1002</ele>
        <time>2009-07-11T13:48:54Z</time>
      </trkpt>
      <trkpt lat="44.74397" lon="3.76016">
        <ele>999</ele>
        <time>2009-07-11T13:48:57Z</time>
      </trkpt>
      <trkpt lat="44.74484" lon="3.75912">
        <ele>998</ele>
        <time>2009-07-11T13:49:09Z</time>
      </trkpt>
      <trkpt lat="44.74497" lon="3.75877">
        <ele>998</ele>
        <time>2009-07-11T13:49:13Z</time>
      </trkpt>
      <trkpt lat="44.74507" lon="3.75781">
        <ele>1001</ele>
        <time>2009-07-11T13:49:28Z</time>
      </trkpt>
      <trkpt lat="44.74508" lon="3.7577">
        <ele>1001</ele>
        <time>2009-07-11T13:49:30Z</time>
      </trkpt>
      <trkpt lat="44.74523" lon="3.75696">
        <ele>1004</ele>
        <time>2009-07-11T13:49:47Z</time>
      </trkpt>
      <trkpt lat="44.74536" lon="3.75631">
        <ele>1004</ele>
        <time>2009-07-11T13:50:03Z</time>
      </trkpt>
      <trkpt lat="44.7455" lon="3.7555">
        <ele>1006</ele>
        <time>2009-07-11T13:50:22Z</time>
      </trkpt>
      <trkpt lat="44.74555" lon="3.75499">
        <ele>1009</ele>
        <time>2009-07-11T13:50:34Z</time>
      </trkpt>
      <trkpt lat="44.74561" lon="3.75433">
        <ele>1013</ele>
        <time>2009-07-11T13:50:50Z</time>
      </trkpt>
      <trkpt lat="44.74577" lon="3.75343">
        <ele>1016</ele>
        <time>2009-07-11T13:51:14Z</time>
      </trkpt>
      <trkpt lat="44.74592" lon="3.75313">
        <ele>1019</ele>
        <time>2009-07-11T13:51:24Z</time>
      </trkpt>
      <trkpt lat="44.74593" lon="3.7531">
        <ele>1019</ele>
        <time>2009-07-11T13:51:25Z</time>
      </trkpt>
      <trkpt lat="44.74617" lon="3.7526">
        <ele>1022</ele>
        <time>2009-07-11T13:51:41Z</time>
      </trkpt>
      <trkpt lat="44.74651" lon="3.75195">
        <ele>1023</ele>
        <time>2009-07-11T13:52:01Z</time>
      </trkpt>
      <trkpt lat="44.74677" lon="3.75116">
        <ele>1024</ele>
        <time>2009-07-11T13:52:20Z</time>
      </trkpt>
      <trkpt lat="44.74684" lon="3.75035">
        <ele>1024</ele>
        <time>2009-07-11T13:52:35Z</time>
      </trkpt>
      <trkpt lat="44.74701" lon="3.74996">
        <ele>1024</ele>
        <time>2009-07-11T13:52:46Z</time>
      </trkpt>
      <trkpt lat="44.74735" lon="3.74974">
        <ele>1023</ele>
        <time>2009-07-11T13:52:55Z</time>
      </trkpt>
      <trkpt lat="44.74747" lon="3.74943">
        <ele>1023</ele>
        <time>2009-07-11T13:53:01Z</time>
      </trkpt>
      <trkpt lat="44.74763" lon="3.74902">
        <ele>1023</ele>
        <time>2009-07-11T13:53:11Z</time>
      </trkpt>
      <trkpt lat="44.74802" lon="3.74855">
        <ele>1025</ele>
        <time>2009-07-11T13:53:26Z</time>
      </trkpt>
      <trkpt lat="44.74831" lon="3.74855">
        <ele>1027</ele>
        <time>2009-07-11T13:53:39Z</time>
      </trkpt>
      <trkpt lat="44.74841" lon="3.74861">
        <ele>1025</ele>
        <time>2009-07-11T13:53:42Z</time>
      </trkpt>
      <trkpt lat="44.74864" lon="3.74891">
        <ele>1024</ele>
        <time>2009-07-11T13:53:50Z</time>
      </trkpt>
      <trkpt lat="44.74868" lon="3.74932">
        <ele>1021</ele>
        <time>2009-07-11T13:53:55Z</time>
      </trkpt>
      <trkpt lat="44.74869" lon="3.74941">
        <ele>1019</ele>
        <time>2009-07-11T13:53:56Z</time>
      </trkpt>
      <trkpt lat="44.74883" lon="3.74967">
        <ele>1016</ele>
        <time>2009-07-11T13:54:00Z</time>
      </trkpt>
      <trkpt lat="44.74889" lon="3.7497">
        <ele>1016</ele>
        <time>2009-07-11T13:54:01Z</time>
      </trkpt>
      <trkpt lat="44.74901" lon="3.74974">
        <ele>1016</ele>
        <time>2009-07-11T13:54:03Z</time>
      </trkpt>
      <trkpt lat="44.74949" lon="3.74973">
        <ele>1015</ele>
        <time>2009-07-11T13:54:10Z</time>
      </trkpt>
      <trkpt lat="44.74975" lon="3.74982">
        <ele>1013</ele>
        <time>2009-07-11T13:54:14Z</time>
      </trkpt>
      <trkpt lat="44.74993" lon="3.74989">
        <ele>1012</ele>
        <time>2009-07-11T13:54:17Z</time>
      </trkpt>
      <trkpt lat="44.75037" lon="3.75029">
        <ele>1011</ele>
        <time>2009-07-11T13:54:26Z</time>
      </trkpt>
      <trkpt lat="44.75067" lon="3.75057">
        <ele>1010</ele>
        <time>2009-07-11T13:54:34Z</time>
      </trkpt>
      <trkpt lat="44.75075" lon="3.75065">
        <ele>1008</ele>
        <time>2009-07-11T13:54:36Z</time>
      </trkpt>
      <trkpt lat="44.75096" lon="3.75078">
        <ele>1006</ele>
        <time>2009-07-11T13:54:40Z</time>
      </trkpt>
      <trkpt lat="44.75107" lon="3.75084">
        <ele>1005</ele>
        <time>2009-07-11T13:54:42Z</time>
      </trkpt>
      <trkpt lat="44.75137" lon="3.75106">
        <ele>1003</ele>
        <time>2009-07-11T13:54:48Z</time>
      </trkpt>
      <trkpt lat="44.75188" lon="3.7515">
        <ele>1004</ele>
        <time>2009-07-11T13:55:00Z</time>
      </trkpt>
      <trkpt lat="44.75212" lon="3.75143">
        <ele>1004</ele>
        <time>2009-07-11T13:55:06Z</time>
      </trkpt>
      <trkpt lat="44.75248" lon="3.7509">
        <ele>1004</ele>
        <time>2009-07-11T13:55:19Z</time>
      </trkpt>
      <trkpt lat="44.75273" lon="3.75081">
        <ele>1003</ele>
        <time>2009-07-11T13:55:25Z</time>
      </trkpt>
      <trkpt lat="44.75331" lon="3.75106">
        <ele>1003</ele>
        <time>2009-07-11T13:55:40Z</time>
      </trkpt>
      <trkpt lat="44.75379" lon="3.75166">
        <ele>1004</ele>
        <time>2009-07-11T13:55:56Z</time>
      </trkpt>
      <trkpt lat="44.75417" lon="3.75202">
        <ele>1007</ele>
        <time>2009-07-11T13:56:09Z</time>
      </trkpt>
      <trkpt lat="44.7546" lon="3.75237">
        <ele>1010</ele>
        <time>2009-07-11T13:56:24Z</time>
      </trkpt>
      <trkpt lat="44.75463" lon="3.75238">
        <ele>1010</ele>
        <time>2009-07-11T13:56:25Z</time>
      </trkpt>
      <trkpt lat="44.75477" lon="3.75247">
        <ele>1012</ele>
        <time>2009-07-11T13:56:30Z</time>
      </trkpt>
      <trkpt lat="44.75527" lon="3.75268">
        <ele>1013</ele>
        <time>2009-07-11T13:56:49Z</time>
      </trkpt>
      <trkpt lat="44.75548" lon="3.75276">
        <ele>1015</ele>
        <time>2009-07-11T13:56:57Z</time>
      </trkpt>
      <trkpt lat="44.75592" lon="3.753">
        <ele>1017</ele>
        <time>2009-07-11T13:57:13Z</time>
      </trkpt>
      <trkpt lat="44.75635" lon="3.75329">
        <ele>1018</ele>
        <time>2009-07-11T13:57:28Z</time>
      </trkpt>
      <trkpt lat="44.75695" lon="3.75358">
        <ele>1019</ele>
        <time>2009-07-11T13:57:48Z</time>
      </trkpt>
      <trkpt lat="44.75743" lon="3.75371">
        <ele>1022</ele>
        <time>2009-07-11T13:58:02Z</time>
      </trkpt>
      <trkpt lat="44.75763" lon="3.75372">
        <ele>1023</ele>
        <time>2009-07-11T13:58:08Z</time>
      </trkpt>
      <trkpt lat="44.75806" lon="3.75382">
        <ele>1025</ele>
        <time>2009-07-11T13:58:23Z</time>
      </trkpt>
      <trkpt lat="44.75808" lon="3.75382">
        <ele>1025</ele>
        <time>2009-07-11T13:58:24Z</time>
      </trkpt>
      <trkpt lat="44.75836" lon="3.75338">
        <ele>1025</ele>
        <time>2009-07-11T13:58:37Z</time>
      </trkpt>
      <trkpt lat="44.75849" lon="3.75306">
        <ele>1024</ele>
        <time>2009-07-11T13:58:48Z</time>
      </trkpt>
      <trkpt lat="44.75858" lon="3.75288">
        <ele>1025</ele>
        <time>2009-07-11T13:59:06Z</time>
      </trkpt>
      <trkpt lat="44.75887" lon="3.7524">
        <ele>1025</ele>
        <time>2009-07-11T13:59:18Z</time>
      </trkpt>
      <trkpt lat="44.75933" lon="3.75187">
        <ele>1027</ele>
        <time>2009-07-11T13:59:34Z</time>
      </trkpt>
      <trkpt lat="44.7596" lon="3.75172">
        <ele>1027</ele>
        <time>2009-07-11T13:59:42Z</time>
      </trkpt>
      <trkpt lat="44.76001" lon="3.75146">
        <ele>1030</ele>
        <time>2009-07-11T13:59:56Z</time>
      </trkpt>
      <trkpt lat="44.76011" lon="3.75136">
        <ele>1032</ele>
        <time>2009-07-11T14:00:00Z</time>
      </trkpt>
      <trkpt lat="44.76054" lon="3.75082">
        <ele>1033</ele>
        <time>2009-07-11T14:00:19Z</time>
      </trkpt>
      <trkpt lat="44.76079" lon="3.75058">
        <ele>1036</ele>
        <time>2009-07-11T14:00:30Z</time>
      </trkpt>
      <trkpt lat="44.76083" lon="3.75053">
        <ele>1037</ele>
        <time>2009-07-11T14:00:32Z</time>
      </trkpt>
      <trkpt lat="44.7611" lon="3.75008">
        <ele>1039</ele>
        <time>2009-07-11T14:00:47Z</time>
      </trkpt>
      <trkpt lat="44.76141" lon="3.74964">
        <ele>1042</ele>
        <time>2009-07-11T14:01:03Z</time>
      </trkpt>
      <trkpt lat="44.76153" lon="3.74949">
        <ele>1044</ele>
        <time>2009-07-11T14:01:09Z</time>
      </trkpt>
      <trkpt lat="44.76183" lon="3.74907">
        <ele>1047</ele>
        <time>2009-07-11T14:01:25Z</time>
      </trkpt>
      <trkpt lat="44.76215" lon="3.74861">
        <ele>1049</ele>
        <time>2009-07-11T14:01:41Z</time>
      </trkpt>
      <trkpt lat="44.76236" lon="3.74824">
        <ele>1052</ele>
        <time>2009-07-11T14:01:53Z</time>
      </trkpt>
      <trkpt lat="44.76263" lon="3.74783">
        <ele>1054</ele>
        <time>2009-07-11T14:02:06Z</time>
      </trkpt>
      <trkpt lat="44.76311" lon="3.7474">
        <ele>1054</ele>
        <time>2009-07-11T14:02:24Z</time>
      </trkpt>
      <trkpt lat="44.7634" lon="3.74687">
        <ele>1055</ele>
        <time>2009-07-11T14:02:38Z</time>
      </trkpt>
      <trkpt lat="44.76368" lon="3.74614">
        <ele>1056</ele>
        <time>2009-07-11T14:02:55Z</time>
      </trkpt>
      <trkpt lat="44.76394" lon="3.7453">
        <ele>1057</ele>
        <time>2009-07-11T14:03:13Z</time>
      </trkpt>
      <trkpt lat="44.76401" lon="3.74503">
        <ele>1057</ele>
        <time>2009-07-11T14:03:18Z</time>
      </trkpt>
      <trkpt lat="44.76433" lon="3.74394">
        <ele>1058</ele>
        <time>2009-07-11T14:03:38Z</time>
      </trkpt>
      <trkpt lat="44.76466" lon="3.74308">
        <ele>1060</ele>
        <time>2009-07-11T14:03:56Z</time>
      </trkpt>
      <trkpt lat="44.76504" lon="3.74221">
        <ele>1060</ele>
        <time>2009-07-11T14:04:15Z</time>
      </trkpt>
      <trkpt lat="44.76506" lon="3.74216">
        <ele>1061</ele>
        <time>2009-07-11T14:04:16Z</time>
      </trkpt>
      <trkpt lat="44.7652" lon="3.74167">
        <ele>1060</ele>
        <time>2009-07-11T14:04:24Z</time>
      </trkpt>
      <trkpt lat="44.76526" lon="3.74143">
        <ele>1060</ele>
        <time>2009-07-11T14:04:28Z</time>
      </trkpt>
      <trkpt lat="44.76531" lon="3.74125">
        <ele>1060</ele>
        <time>2009-07-11T14:04:31Z</time>
      </trkpt>
      <trkpt lat="44.76537" lon="3.74108">
        <ele>1060</ele>
        <time>2009-07-11T14:04:34Z</time>
      </trkpt>
      <trkpt lat="44.7656" lon="3.74013">
        <ele>1061</ele>
        <time>2009-07-11T14:04:51Z</time>
      </trkpt>
      <trkpt lat="44.76569" lon="3.73993">
        <ele>1061</ele>
        <time>2009-07-11T14:04:55Z</time>
      </trkpt>
      <trkpt lat="44.76596" lon="3.73955">
        <ele>1061</ele>
        <time>2009-07-11T14:05:04Z</time>
      </trkpt>
      <trkpt lat="44.76641" lon="3.7389">
        <ele>1061</ele>
        <time>2009-07-11T14:05:17Z</time>
      </trkpt>
      <trkpt lat="44.7665" lon="3.7388">
        <ele>1061</ele>
        <time>2009-07-11T14:05:19Z</time>
      </trkpt>
      <trkpt lat="44.76713" lon="3.73802">
        <ele>1061</ele>
        <time>2009-07-11T14:05:36Z</time>
      </trkpt>
      <trkpt lat="44.76798" lon="3.73739">
        <ele>1062</ele>
        <time>2009-07-11T14:05:56Z</time>
      </trkpt>
      <trkpt lat="44.76836" lon="3.73705">
        <ele>1062</ele>
        <time>2009-07-11T14:06:06Z</time>
      </trkpt>
      <trkpt lat="44.7686" lon="3.73688">
        <ele>1063</ele>
        <time>2009-07-11T14:06:12Z</time>
      </trkpt>
      <trkpt lat="44.7692" lon="3.73665">
        <ele>1063</ele>
        <time>2009-07-11T14:06:26Z</time>
      </trkpt>
      <trkpt lat="44.76949" lon="3.73642">
        <ele>1062</ele>
        <time>2009-07-11T14:06:33Z</time>
      </trkpt>
      <trkpt lat="44.76967" lon="3.73628">
        <ele>1062</ele>
        <time>2009-07-11T14:06:37Z</time>
      </trkpt>
      <trkpt lat="44.76987" lon="3.7362">
        <ele>1061</ele>
        <time>2009-07-11T14:06:41Z</time>
      </trkpt>
      <trkpt lat="44.76999" lon="3.7362">
        <ele>1060</ele>
        <time>2009-07-11T14:06:43Z</time>
      </trkpt>
      <trkpt lat="44.77059" lon="3.73615">
        <ele>1056</ele>
        <time>2009-07-11T14:06:52Z</time>
      </trkpt>
      <trkpt lat="44.77132" lon="3.73608">
        <ele>1053</ele>
        <time>2009-07-11T14:07:01Z</time>
      </trkpt>
      <trkpt lat="44.77184" lon="3.73598">
        <ele>1051</ele>
        <time>2009-07-11T14:07:07Z</time>
      </trkpt>
      <trkpt lat="44.77217" lon="3.73591">
        <ele>1048</ele>
        <time>2009-07-11T14:07:11Z</time>
      </trkpt>
      <trkpt lat="44.77255" lon="3.73584">
        <ele>1045</ele>
        <time>2009-07-11T14:07:16Z</time>
      </trkpt>
      <trkpt lat="44.77286" lon="3.73581">
        <ele>1043</ele>
        <time>2009-07-11T14:07:20Z</time>
      </trkpt>
      <trkpt lat="44.77377" lon="3.73577">
        <ele>1040</ele>
        <time>2009-07-11T14:07:32Z</time>
      </trkpt>
      <trkpt lat="44.77433" lon="3.73566">
        <ele>1041</ele>
        <time>2009-07-11T14:07:41Z</time>
      </trkpt>
      <trkpt lat="44.77476" lon="3.73583">
        <ele>1044</ele>
        <time>2009-07-11T14:07:54Z</time>
      </trkpt>
      <trkpt lat="44.77516" lon="3.73616">
        <ele>1047</ele>
        <time>2009-07-11T14:08:10Z</time>
      </trkpt>
      <trkpt lat="44.77521" lon="3.7362">
        <ele>1048</ele>
        <time>2009-07-11T14:08:12Z</time>
      </trkpt>
      <trkpt lat="44.77549" lon="3.73641">
        <ele>1051</ele>
        <time>2009-07-11T14:08:24Z</time>
      </trkpt>
      <trkpt lat="44.77579" lon="3.73663">
        <ele>1054</ele>
        <time>2009-07-11T14:08:38Z</time>
      </trkpt>
      <trkpt lat="44.77593" lon="3.73676">
        <ele>1056</ele>
        <time>2009-07-11T14:08:45Z</time>
      </trkpt>
      <trkpt lat="44.77622" lon="3.73698">
        <ele>1059</ele>
        <time>2009-07-11T14:08:59Z</time>
      </trkpt>
      <trkpt lat="44.77664" lon="3.73696">
        <ele>1063</ele>
        <time>2009-07-11T14:09:17Z</time>
      </trkpt>
      <trkpt lat="44.77669" lon="3.73694">
        <ele>1063</ele>
        <time>2009-07-11T14:09:19Z</time>
      </trkpt>
      <trkpt lat="44.77706" lon="3.73705">
        <ele>1064</ele>
        <time>2009-07-11T14:09:36Z</time>
      </trkpt>
      <trkpt lat="44.77715" lon="3.73713">
        <ele>1065</ele>
        <time>2009-07-11T14:09:40Z</time>
      </trkpt>
      <trkpt lat="44.7776" lon="3.73749">
        <ele>1062</ele>
        <time>2009-07-11T14:09:55Z</time>
      </trkpt>
      <trkpt lat="44.77835" lon="3.73799">
        <ele>1061</ele>
        <time>2009-07-11T14:10:07Z</time>
      </trkpt>
      <trkpt lat="44.77894" lon="3.73838">
        <ele>1060</ele>
        <time>2009-07-11T14:10:21Z</time>
      </trkpt>
      <trkpt lat="44.77953" lon="3.73902">
        <ele>1060</ele>
        <time>2009-07-11T14:10:37Z</time>
      </trkpt>
      <trkpt lat="44.78008" lon="3.73965">
        <ele>1061</ele>
        <time>2009-07-11T14:10:53Z</time>
      </trkpt>
      <trkpt lat="44.78031" lon="3.73991">
        <ele>1064</ele>
        <time>2009-07-11T14:11:00Z</time>
      </trkpt>
      <trkpt lat="44.78077" lon="3.74043">
        <ele>1066</ele>
        <time>2009-07-11T14:11:16Z</time>
      </trkpt>
      <trkpt lat="44.78098" lon="3.74065">
        <ele>1070</ele>
        <time>2009-07-11T14:11:24Z</time>
      </trkpt>
      <trkpt lat="44.78102" lon="3.7407">
        <ele>1070</ele>
        <time>2009-07-11T14:11:26Z</time>
      </trkpt>
      <trkpt lat="44.78138" lon="3.7411">
        <ele>1074</ele>
        <time>2009-07-11T14:11:42Z</time>
      </trkpt>
      <trkpt lat="44.78141" lon="3.74112">
        <ele>1074</ele>
        <time>2009-07-11T14:11:43Z</time>
      </trkpt>
      <trkpt lat="44.78184" lon="3.74161">
        <ele>1077</ele>
        <time>2009-07-11T14:12:03Z</time>
      </trkpt>
      <trkpt lat="44.78193" lon="3.7417">
        <ele>1079</ele>
        <time>2009-07-11T14:12:07Z</time>
      </trkpt>
      <trkpt lat="44.78203" lon="3.74178">
        <ele>1080</ele>
        <time>2009-07-11T14:12:11Z</time>
      </trkpt>
      <trkpt lat="44.7825" lon="3.74215">
        <ele>1084</ele>
        <time>2009-07-11T14:12:30Z</time>
      </trkpt>
      <trkpt lat="44.78252" lon="3.74216">
        <ele>1083</ele>
        <time>2009-07-11T14:12:31Z</time>
      </trkpt>
      <trkpt lat="44.78296" lon="3.74224">
        <ele>1083</ele>
        <time>2009-07-11T14:12:47Z</time>
      </trkpt>
      <trkpt lat="44.78336" lon="3.74229">
        <ele>1083</ele>
        <time>2009-07-11T14:13:04Z</time>
      </trkpt>
      <trkpt lat="44.7835" lon="3.74232">
        <ele>1083</ele>
        <time>2009-07-11T14:13:18Z</time>
      </trkpt>
      <trkpt lat="44.78351" lon="3.74234">
        <ele>1082</ele>
        <time>2009-07-11T14:13:50Z</time>
      </trkpt>
      <trkpt lat="44.78354" lon="3.74234">
        <ele>1082</ele>
        <time>2009-07-11T14:15:51Z</time>
      </trkpt>
      <trkpt lat="44.78373" lon="3.74234">
        <ele>1080</ele>
        <time>2009-07-11T14:15:58Z</time>
      </trkpt>
      <trkpt lat="44.7839" lon="3.74234">
        <ele>1077</ele>
        <time>2009-07-11T14:16:02Z</time>
      </trkpt>
      <trkpt lat="44.78406" lon="3.74236">
        <ele>1076</ele>
        <time>2009-07-11T14:16:05Z</time>
      </trkpt>
      <trkpt lat="44.78425" lon="3.74241">
        <ele>1075</ele>
        <time>2009-07-11T14:16:08Z</time>
      </trkpt>
      <trkpt lat="44.78469" lon="3.74239">
        <ele>1070</ele>
        <time>2009-07-11T14:16:14Z</time>
      </trkpt>
      <trkpt lat="44.78487" lon="3.74234">
        <ele>1069</ele>
        <time>2009-07-11T14:16:16Z</time>
      </trkpt>
      <trkpt lat="44.78516" lon="3.74227">
        <ele>1066</ele>
        <time>2009-07-11T14:16:19Z</time>
      </trkpt>
      <trkpt lat="44.78532" lon="3.74224">
        <ele>1065</ele>
        <time>2009-07-11T14:16:21Z</time>
      </trkpt>
      <trkpt lat="44.78554" lon="3.74212">
        <ele>1061</ele>
        <time>2009-07-11T14:16:24Z</time>
      </trkpt>
      <trkpt lat="44.78561" lon="3.74205">
        <ele>1061</ele>
        <time>2009-07-11T14:16:25Z</time>
      </trkpt>
      <trkpt lat="44.78569" lon="3.74198">
        <ele>1058</ele>
        <time>2009-07-11T14:16:26Z</time>
      </trkpt>
      <trkpt lat="44.78578" lon="3.74193">
        <ele>1056</ele>
        <time>2009-07-11T14:16:27Z</time>
      </trkpt>
      <trkpt lat="44.78626" lon="3.7417">
        <ele>1051</ele>
        <time>2009-07-11T14:16:32Z</time>
      </trkpt>
      <trkpt lat="44.78646" lon="3.74162">
        <ele>1050</ele>
        <time>2009-07-11T14:16:34Z</time>
      </trkpt>
      <trkpt lat="44.78678" lon="3.74153">
        <ele>1047</ele>
        <time>2009-07-11T14:16:37Z</time>
      </trkpt>
      <trkpt lat="44.78699" lon="3.74151">
        <ele>1045</ele>
        <time>2009-07-11T14:16:39Z</time>
      </trkpt>
      <trkpt lat="44.78721" lon="3.74154">
        <ele>1043</ele>
        <time>2009-07-11T14:16:41Z</time>
      </trkpt>
      <trkpt lat="44.78754" lon="3.74167">
        <ele>1039</ele>
        <time>2009-07-11T14:16:44Z</time>
      </trkpt>
      <trkpt lat="44.78776" lon="3.74174">
        <ele>1038</ele>
        <time>2009-07-11T14:16:46Z</time>
      </trkpt>
      <trkpt lat="44.78807" lon="3.74183">
        <ele>1036</ele>
        <time>2009-07-11T14:16:49Z</time>
      </trkpt>
      <trkpt lat="44.78838" lon="3.74194">
        <ele>1034</ele>
        <time>2009-07-11T14:16:52Z</time>
      </trkpt>
      <trkpt lat="44.78916" lon="3.74215">
        <ele>1032</ele>
        <time>2009-07-11T14:17:01Z</time>
      </trkpt>
      <trkpt lat="44.7893" lon="3.7422">
        <ele>1033</ele>
        <time>2009-07-11T14:17:03Z</time>
      </trkpt>
      <trkpt lat="44.7895" lon="3.74231">
        <ele>1030</ele>
        <time>2009-07-11T14:17:06Z</time>
      </trkpt>
      <trkpt lat="44.7902" lon="3.74253">
        <ele>1030</ele>
        <time>2009-07-11T14:17:18Z</time>
      </trkpt>
      <trkpt lat="44.79068" lon="3.74264">
        <ele>1032</ele>
        <time>2009-07-11T14:17:31Z</time>
      </trkpt>
      <trkpt lat="44.79122" lon="3.74273">
        <ele>1034</ele>
        <time>2009-07-11T14:17:47Z</time>
      </trkpt>
      <trkpt lat="44.7915" lon="3.74271">
        <ele>1037</ele>
        <time>2009-07-11T14:17:57Z</time>
      </trkpt>
      <trkpt lat="44.79193" lon="3.74274">
        <ele>1037</ele>
        <time>2009-07-11T14:18:11Z</time>
      </trkpt>
      <trkpt lat="44.79233" lon="3.74271">
        <ele>1035</ele>
        <time>2009-07-11T14:18:18Z</time>
      </trkpt>
      <trkpt lat="44.79259" lon="3.7428">
        <ele>1032</ele>
        <time>2009-07-11T14:18:22Z</time>
      </trkpt>
      <trkpt lat="44.79283" lon="3.74285">
        <ele>1028</ele>
        <time>2009-07-11T14:18:25Z</time>
      </trkpt>
      <trkpt lat="44.79301" lon="3.74287">
        <ele>1026</ele>
        <time>2009-07-11T14:18:27Z</time>
      </trkpt>
      <trkpt lat="44.79328" lon="3.7429">
        <ele>1024</ele>
        <time>2009-07-11T14:18:30Z</time>
      </trkpt>
      <trkpt lat="44.79376" lon="3.74292">
        <ele>1024</ele>
        <time>2009-07-11T14:18:36Z</time>
      </trkpt>
      <trkpt lat="44.79401" lon="3.74295">
        <ele>1025</ele>
        <time>2009-07-11T14:18:40Z</time>
      </trkpt>
      <trkpt lat="44.79429" lon="3.74307">
        <ele>1022</ele>
        <time>2009-07-11T14:18:44Z</time>
      </trkpt>
      <trkpt lat="44.79445" lon="3.74314">
        <ele>1021</ele>
        <time>2009-07-11T14:18:46Z</time>
      </trkpt>
      <trkpt lat="44.79481" lon="3.74315">
        <ele>1015</ele>
        <time>2009-07-11T14:18:50Z</time>
      </trkpt>
      <trkpt lat="44.79509" lon="3.74309">
        <ele>1015</ele>
        <time>2009-07-11T14:18:53Z</time>
      </trkpt>
      <trkpt lat="44.79561" lon="3.74321">
        <ele>1012</ele>
        <time>2009-07-11T14:18:59Z</time>
      </trkpt>
      <trkpt lat="44.79579" lon="3.74323">
        <ele>1011</ele>
        <time>2009-07-11T14:19:01Z</time>
      </trkpt>
      <trkpt lat="44.7962" lon="3.74306">
        <ele>1008</ele>
        <time>2009-07-11T14:19:06Z</time>
      </trkpt>
      <trkpt lat="44.79639" lon="3.74298">
        <ele>1005</ele>
        <time>2009-07-11T14:19:08Z</time>
      </trkpt>
      <trkpt lat="44.79659" lon="3.74295">
        <ele>1003</ele>
        <time>2009-07-11T14:19:10Z</time>
      </trkpt>
      <trkpt lat="44.79699" lon="3.74296">
        <ele>998</ele>
        <time>2009-07-11T14:19:14Z</time>
      </trkpt>
      <trkpt lat="44.7975" lon="3.74304">
        <ele>994</ele>
        <time>2009-07-11T14:19:19Z</time>
      </trkpt>
      <trkpt lat="44.7976" lon="3.74307">
        <ele>994</ele>
        <time>2009-07-11T14:19:20Z</time>
      </trkpt>
      <trkpt lat="44.79779" lon="3.74312">
        <ele>995</ele>
        <time>2009-07-11T14:19:22Z</time>
      </trkpt>
      <trkpt lat="44.79798" lon="3.74313">
        <ele>995</ele>
        <time>2009-07-11T14:19:24Z</time>
      </trkpt>
      <trkpt lat="44.79832" lon="3.74327">
        <ele>994</ele>
        <time>2009-07-11T14:19:28Z</time>
      </trkpt>
      <trkpt lat="44.79881" lon="3.74319">
        <ele>990</ele>
        <time>2009-07-11T14:19:34Z</time>
      </trkpt>
      <trkpt lat="44.79889" lon="3.74316">
        <ele>988</ele>
        <time>2009-07-11T14:19:35Z</time>
      </trkpt>
      <trkpt lat="44.79915" lon="3.7431">
        <ele>987</ele>
        <time>2009-07-11T14:19:38Z</time>
      </trkpt>
      <trkpt lat="44.79972" lon="3.74284">
        <ele>984</ele>
        <time>2009-07-11T14:19:45Z</time>
      </trkpt>
      <trkpt lat="44.79984" lon="3.74268">
        <ele>984</ele>
        <time>2009-07-11T14:19:47Z</time>
      </trkpt>
      <trkpt lat="44.80004" lon="3.74249">
        <ele>982</ele>
        <time>2009-07-11T14:19:50Z</time>
      </trkpt>
      <trkpt lat="44.8007" lon="3.74215">
        <ele>983</ele>
        <time>2009-07-11T14:20:00Z</time>
      </trkpt>
      <trkpt lat="44.80107" lon="3.74218">
        <ele>979</ele>
        <time>2009-07-11T14:20:05Z</time>
      </trkpt>
      <trkpt lat="44.80139" lon="3.74237">
        <ele>977</ele>
        <time>2009-07-11T14:20:09Z</time>
      </trkpt>
      <trkpt lat="44.8022" lon="3.7427">
        <ele>976</ele>
        <time>2009-07-11T14:20:20Z</time>
      </trkpt>
      <trkpt lat="44.80235" lon="3.7427">
        <ele>974</ele>
        <time>2009-07-11T14:20:28Z</time>
      </trkpt>
      <trkpt lat="44.80234" lon="3.7427">
        <ele>975</ele>
        <time>2009-07-11T14:20:54Z</time>
      </trkpt>
      <trkpt lat="44.80249" lon="3.74267">
        <ele>974</ele>
        <time>2009-07-11T14:21:06Z</time>
      </trkpt>
      <trkpt lat="44.80264" lon="3.74267">
        <ele>971</ele>
        <time>2009-07-11T14:21:10Z</time>
      </trkpt>
      <trkpt lat="44.80285" lon="3.74264">
        <ele>970</ele>
        <time>2009-07-11T14:21:14Z</time>
      </trkpt>
      <trkpt lat="44.80316" lon="3.74246">
        <ele>967</ele>
        <time>2009-07-11T14:21:20Z</time>
      </trkpt>
      <trkpt lat="44.80328" lon="3.74238">
        <ele>966</ele>
        <time>2009-07-11T14:21:22Z</time>
      </trkpt>
      <trkpt lat="44.80354" lon="3.74222">
        <ele>964</ele>
        <time>2009-07-11T14:21:26Z</time>
      </trkpt>
      <trkpt lat="44.80366" lon="3.74213">
        <ele>965</ele>
        <time>2009-07-11T14:21:28Z</time>
      </trkpt>
      <trkpt lat="44.80378" lon="3.74202">
        <ele>964</ele>
        <time>2009-07-11T14:21:30Z</time>
      </trkpt>
      <trkpt lat="44.80412" lon="3.74155">
        <ele>964</ele>
        <time>2009-07-11T14:21:38Z</time>
      </trkpt>
      <trkpt lat="44.80423" lon="3.74147">
        <ele>963</ele>
        <time>2009-07-11T14:21:40Z</time>
      </trkpt>
      <trkpt lat="44.80475" lon="3.7414">
        <ele>959</ele>
        <time>2009-07-11T14:21:48Z</time>
      </trkpt>
      <trkpt lat="44.80482" lon="3.7414">
        <ele>959</ele>
        <time>2009-07-11T14:21:49Z</time>
      </trkpt>
      <trkpt lat="44.80522" lon="3.74132">
        <ele>958</ele>
        <time>2009-07-11T14:21:55Z</time>
      </trkpt>
      <trkpt lat="44.80565" lon="3.7413">
        <ele>954</ele>
        <time>2009-07-11T14:22:01Z</time>
      </trkpt>
      <trkpt lat="44.80589" lon="3.74143">
        <ele>952</ele>
        <time>2009-07-11T14:22:04Z</time>
      </trkpt>
      <trkpt lat="44.80609" lon="3.7415">
        <ele>947</ele>
        <time>2009-07-11T14:22:07Z</time>
      </trkpt>
      <trkpt lat="44.80634" lon="3.74115">
        <ele>945</ele>
        <time>2009-07-11T14:22:13Z</time>
      </trkpt>
      <trkpt lat="44.80635" lon="3.74106">
        <ele>945</ele>
        <time>2009-07-11T14:22:14Z</time>
      </trkpt>
      <trkpt lat="44.80663" lon="3.74061">
        <ele>942</ele>
        <time>2009-07-11T14:22:22Z</time>
      </trkpt>
      <trkpt lat="44.80699" lon="3.74095">
        <ele>938</ele>
        <time>2009-07-11T14:22:28Z</time>
      </trkpt>
      <trkpt lat="44.80707" lon="3.74099">
        <ele>937</ele>
        <time>2009-07-11T14:22:29Z</time>
      </trkpt>
      <trkpt lat="44.80737" lon="3.74104">
        <ele>929</ele>
        <time>2009-07-11T14:22:32Z</time>
      </trkpt>
      <trkpt lat="44.80823" lon="3.7413">
        <ele>934</ele>
        <time>2009-07-11T14:22:42Z</time>
      </trkpt>
      <trkpt lat="44.80886" lon="3.74171">
        <ele>933</ele>
        <time>2009-07-11T14:22:53Z</time>
      </trkpt>
      <trkpt lat="44.80921" lon="3.74196">
        <ele>932</ele>
        <time>2009-07-11T14:23:00Z</time>
      </trkpt>
      <trkpt lat="44.80937" lon="3.74212">
        <ele>931</ele>
        <time>2009-07-11T14:23:03Z</time>
      </trkpt>
      <trkpt lat="44.80941" lon="3.74219">
        <ele>930</ele>
        <time>2009-07-11T14:23:04Z</time>
      </trkpt>
      <trkpt lat="44.80955" lon="3.74231">
        <ele>928</ele>
        <time>2009-07-11T14:23:07Z</time>
      </trkpt>
      <trkpt lat="44.8097" lon="3.74223">
        <ele>926</ele>
        <time>2009-07-11T14:23:10Z</time>
      </trkpt>
      <trkpt lat="44.81004" lon="3.74205">
        <ele>921</ele>
        <time>2009-07-11T14:23:15Z</time>
      </trkpt>
      <trkpt lat="44.81029" lon="3.74202">
        <ele>917</ele>
        <time>2009-07-11T14:23:18Z</time>
      </trkpt>
      <trkpt lat="44.81046" lon="3.74198">
        <ele>915</ele>
        <time>2009-07-11T14:23:20Z</time>
      </trkpt>
      <trkpt lat="44.8109" lon="3.74149">
        <ele>914</ele>
        <time>2009-07-11T14:23:28Z</time>
      </trkpt>
      <trkpt lat="44.81118" lon="3.74156">
        <ele>910</ele>
        <time>2009-07-11T14:23:34Z</time>
      </trkpt>
      <trkpt lat="44.81136" lon="3.74176">
        <ele>912</ele>
        <time>2009-07-11T14:23:39Z</time>
      </trkpt>
      <trkpt lat="44.81138" lon="3.74183">
        <ele>912</ele>
        <time>2009-07-11T14:23:50Z</time>
      </trkpt>
      <trkpt lat="44.81144" lon="3.74198">
        <ele>910</ele>
        <time>2009-07-11T14:24:17Z</time>
      </trkpt>
      <trkpt lat="44.81176" lon="3.74266">
        <ele>910</ele>
        <time>2009-07-11T14:24:31Z</time>
      </trkpt>
      <trkpt lat="44.81241" lon="3.74358">
        <ele>908</ele>
        <time>2009-07-11T14:24:48Z</time>
      </trkpt>
      <trkpt lat="44.81328" lon="3.74419">
        <ele>907</ele>
        <time>2009-07-11T14:25:06Z</time>
      </trkpt>
      <trkpt lat="44.8136" lon="3.74439">
        <ele>908</ele>
        <time>2009-07-11T14:25:13Z</time>
      </trkpt>
      <trkpt lat="44.81366" lon="3.74463">
        <ele>909</ele>
        <time>2009-07-11T14:25:18Z</time>
      </trkpt>
      <trkpt lat="44.81364" lon="3.74476">
        <ele>910</ele>
        <time>2009-07-11T14:25:21Z</time>
      </trkpt>
      <trkpt lat="44.81373" lon="3.74483">
        <ele>910</ele>
        <time>2009-07-11T14:25:25Z</time>
      </trkpt>
      <trkpt lat="44.81399" lon="3.74478">
        <ele>912</ele>
        <time>2009-07-11T14:25:33Z</time>
      </trkpt>
      <trkpt lat="44.81429" lon="3.74475">
        <ele>914</ele>
        <time>2009-07-11T14:25:43Z</time>
      </trkpt>
      <trkpt lat="44.81492" lon="3.74473">
        <ele>915</ele>
        <time>2009-07-11T14:26:02Z</time>
      </trkpt>
      <trkpt lat="44.81549" lon="3.74474">
        <ele>918</ele>
        <time>2009-07-11T14:26:19Z</time>
      </trkpt>
      <trkpt lat="44.81584" lon="3.74479">
        <ele>917</ele>
        <time>2009-07-11T14:26:29Z</time>
      </trkpt>
      <trkpt lat="44.81599" lon="3.74476">
        <ele>915</ele>
        <time>2009-07-11T14:26:32Z</time>
      </trkpt>
      <trkpt lat="44.81639" lon="3.74488">
        <ele>911</ele>
        <time>2009-07-11T14:26:38Z</time>
      </trkpt>
      <trkpt lat="44.81654" lon="3.74491">
        <ele>908</ele>
        <time>2009-07-11T14:26:40Z</time>
      </trkpt>
      <trkpt lat="44.8168" lon="3.74494">
        <ele>907</ele>
        <time>2009-07-11T14:26:43Z</time>
      </trkpt>
      <trkpt lat="44.81738" lon="3.74519">
        <ele>904</ele>
        <time>2009-07-11T14:26:50Z</time>
      </trkpt>
      <trkpt lat="44.81788" lon="3.74547">
        <ele>903</ele>
        <time>2009-07-11T14:26:57Z</time>
      </trkpt>
      <trkpt lat="44.8184" lon="3.74547">
        <ele>902</ele>
        <time>2009-07-11T14:27:04Z</time>
      </trkpt>
      <trkpt lat="44.81863" lon="3.74541">
        <ele>900</ele>
        <time>2009-07-11T14:27:07Z</time>
      </trkpt>
      <trkpt lat="44.81888" lon="3.74537">
        <ele>897</ele>
        <time>2009-07-11T14:27:10Z</time>
      </trkpt>
      <trkpt lat="44.81897" lon="3.74536">
        <ele>897</ele>
        <time>2009-07-11T14:27:11Z</time>
      </trkpt>
      <trkpt lat="44.81926" lon="3.74547">
        <ele>893</ele>
        <time>2009-07-11T14:27:14Z</time>
      </trkpt>
      <trkpt lat="44.81968" lon="3.74569">
        <ele>893</ele>
        <time>2009-07-11T14:27:19Z</time>
      </trkpt>
      <trkpt lat="44.82005" lon="3.7458">
        <ele>892</ele>
        <time>2009-07-11T14:27:24Z</time>
      </trkpt>
      <trkpt lat="44.82024" lon="3.7459">
        <ele>892</ele>
        <time>2009-07-11T14:27:27Z</time>
      </trkpt>
      <trkpt lat="44.82056" lon="3.74594">
        <ele>897</ele>
        <time>2009-07-11T14:27:35Z</time>
      </trkpt>
      <trkpt lat="44.82095" lon="3.74591">
        <ele>898</ele>
        <time>2009-07-11T14:27:51Z</time>
      </trkpt>
      <trkpt lat="44.82108" lon="3.74566">
        <ele>900</ele>
        <time>2009-07-11T14:28:02Z</time>
      </trkpt>
      <trkpt lat="44.82117" lon="3.74554">
        <ele>903</ele>
        <time>2009-07-11T14:28:10Z</time>
      </trkpt>
      <trkpt lat="44.82125" lon="3.74552">
        <ele>903</ele>
        <time>2009-07-11T14:28:23Z</time>
      </trkpt>
      <trkpt lat="44.82127" lon="3.74553">
        <ele>903</ele>
        <time>2009-07-11T14:28:44Z</time>
      </trkpt>
      <trkpt lat="44.8216" lon="3.74538">
        <ele>902</ele>
        <time>2009-07-11T14:28:56Z</time>
      </trkpt>
      <trkpt lat="44.82219" lon="3.74529">
        <ele>901</ele>
        <time>2009-07-11T14:29:11Z</time>
      </trkpt>
      <trkpt lat="44.82248" lon="3.7453">
        <ele>901</ele>
        <time>2009-07-11T14:29:17Z</time>
      </trkpt>
      <trkpt lat="44.82282" lon="3.74519">
        <ele>901</ele>
        <time>2009-07-11T14:29:25Z</time>
      </trkpt>
      <trkpt lat="44.82339" lon="3.74487">
        <ele>904</ele>
        <time>2009-07-11T14:29:42Z</time>
      </trkpt>
      <trkpt lat="44.82392" lon="3.74446">
        <ele>906</ele>
        <time>2009-07-11T14:30:01Z</time>
      </trkpt>
      <trkpt lat="44.82424" lon="3.74422">
        <ele>910</ele>
        <time>2009-07-11T14:30:14Z</time>
      </trkpt>
      <trkpt lat="44.82426" lon="3.74419">
        <ele>910</ele>
        <time>2009-07-11T14:30:15Z</time>
      </trkpt>
      <trkpt lat="44.82454" lon="3.74403">
        <ele>912</ele>
        <time>2009-07-11T14:30:29Z</time>
      </trkpt>
      <trkpt lat="44.82483" lon="3.74423">
        <ele>915</ele>
        <time>2009-07-11T14:30:44Z</time>
      </trkpt>
      <trkpt lat="44.82505" lon="3.74409">
        <ele>918</ele>
        <time>2009-07-11T14:30:54Z</time>
      </trkpt>
      <trkpt lat="44.82531" lon="3.74372">
        <ele>917</ele>
        <time>2009-07-11T14:31:06Z</time>
      </trkpt>
      <trkpt lat="44.82535" lon="3.74347">
        <ele>914</ele>
        <time>2009-07-11T14:31:10Z</time>
      </trkpt>
      <trkpt lat="44.82536" lon="3.74333">
        <ele>914</ele>
        <time>2009-07-11T14:31:12Z</time>
      </trkpt>
      <trkpt lat="44.82542" lon="3.74307">
        <ele>913</ele>
        <time>2009-07-11T14:31:16Z</time>
      </trkpt>
      <trkpt lat="44.82552" lon="3.74264">
        <ele>912</ele>
        <time>2009-07-11T14:31:22Z</time>
      </trkpt>
      <trkpt lat="44.8257" lon="3.74241">
        <ele>911</ele>
        <time>2009-07-11T14:31:27Z</time>
      </trkpt>
      <trkpt lat="44.82588" lon="3.74235">
        <ele>910</ele>
        <time>2009-07-11T14:31:31Z</time>
      </trkpt>
      <trkpt lat="44.82655" lon="3.74214">
        <ele>911</ele>
        <time>2009-07-11T14:31:47Z</time>
      </trkpt>
      <trkpt lat="44.82663" lon="3.74211">
        <ele>912</ele>
        <time>2009-07-11T14:31:49Z</time>
      </trkpt>
      <trkpt lat="44.82714" lon="3.7416">
        <ele>915</ele>
        <time>2009-07-11T14:32:06Z</time>
      </trkpt>
      <trkpt lat="44.82723" lon="3.74146">
        <ele>916</ele>
        <time>2009-07-11T14:32:11Z</time>
      </trkpt>
      <trkpt lat="44.82748" lon="3.74125">
        <ele>919</ele>
        <time>2009-07-11T14:32:26Z</time>
      </trkpt>
      <trkpt lat="44.82748" lon="3.74125">
        <ele>919</ele>
        <time>2009-07-11T14:32:30Z</time>
      </trkpt>
      <trkpt lat="44.8275" lon="3.74126">
        <ele>920</ele>
        <time>2009-07-11T14:32:32Z</time>
      </trkpt>
      <trkpt lat="44.82754" lon="3.74123">
        <ele>920</ele>
        <time>2009-07-11T14:32:45Z</time>
      </trkpt>
      <trkpt lat="44.82756" lon="3.74122">
        <ele>920</ele>
        <time>2009-07-11T14:32:47Z</time>
      </trkpt>
      <trkpt lat="44.82758" lon="3.74119">
        <ele>921</ele>
        <time>2009-07-11T14:32:50Z</time>
      </trkpt>
      <trkpt lat="44.82769" lon="3.74115">
        <ele>923</ele>
        <time>2009-07-11T14:33:05Z</time>
      </trkpt>
      <trkpt lat="44.82769" lon="3.74116">
        <ele>922</ele>
        <time>2009-07-11T14:33:07Z</time>
      </trkpt>
      <trkpt lat="44.82797" lon="3.74111">
        <ele>922</ele>
        <time>2009-07-11T14:33:21Z</time>
      </trkpt>
      <trkpt lat="44.82831" lon="3.74091">
        <ele>924</ele>
        <time>2009-07-11T14:33:37Z</time>
      </trkpt>
      <trkpt lat="44.82845" lon="3.74086">
        <ele>922</ele>
        <time>2009-07-11T14:33:41Z</time>
      </trkpt>
      <trkpt lat="44.82886" lon="3.74055">
        <ele>923</ele>
        <time>2009-07-11T14:33:56Z</time>
      </trkpt>
      <trkpt lat="44.82912" lon="3.74034">
        <ele>926</ele>
        <time>2009-07-11T14:34:09Z</time>
      </trkpt>
      <trkpt lat="44.82948" lon="3.74051">
        <ele>926</ele>
        <time>2009-07-11T14:34:23Z</time>
      </trkpt>
      <trkpt lat="44.82975" lon="3.74074">
        <ele>924</ele>
        <time>2009-07-11T14:34:30Z</time>
      </trkpt>
      <trkpt lat="44.8298" lon="3.74076">
        <ele>924</ele>
        <time>2009-07-11T14:34:31Z</time>
      </trkpt>
      <trkpt lat="44.83001" lon="3.74092">
        <ele>924</ele>
        <time>2009-07-11T14:34:36Z</time>
      </trkpt>
      <trkpt lat="44.83016" lon="3.74097">
        <ele>922</ele>
        <time>2009-07-11T14:34:39Z</time>
      </trkpt>
      <trkpt lat="44.83037" lon="3.74104">
        <ele>921</ele>
        <time>2009-07-11T14:34:43Z</time>
      </trkpt>
      <trkpt lat="44.83063" lon="3.74116">
        <ele>919</ele>
        <time>2009-07-11T14:34:48Z</time>
      </trkpt>
      <trkpt lat="44.83073" lon="3.74117">
        <ele>919</ele>
        <time>2009-07-11T14:34:50Z</time>
      </trkpt>
      <trkpt lat="44.83083" lon="3.74114">
        <ele>918</ele>
        <time>2009-07-11T14:34:52Z</time>
      </trkpt>
      <trkpt lat="44.83106" lon="3.74099">
        <ele>916</ele>
        <time>2009-07-11T14:34:57Z</time>
      </trkpt>
      <trkpt lat="44.83127" lon="3.74087">
        <ele>912</ele>
        <time>2009-07-11T14:35:01Z</time>
      </trkpt>
      <trkpt lat="44.83143" lon="3.74071">
        <ele>907</ele>
        <time>2009-07-11T14:35:04Z</time>
      </trkpt>
      <trkpt lat="44.83165" lon="3.74057">
        <ele>903</ele>
        <time>2009-07-11T14:35:08Z</time>
      </trkpt>
      <trkpt lat="44.8318" lon="3.74055">
        <ele>902</ele>
        <time>2009-07-11T14:35:10Z</time>
      </trkpt>
      <trkpt lat="44.83257" lon="3.74039">
        <ele>898</ele>
        <time>2009-07-11T14:35:21Z</time>
      </trkpt>
      <trkpt lat="44.83273" lon="3.74034">
        <ele>892</ele>
        <time>2009-07-11T14:35:23Z</time>
      </trkpt>
      <trkpt lat="44.83292" lon="3.74027">
        <ele>891</ele>
        <time>2009-07-11T14:35:25Z</time>
      </trkpt>
      <trkpt lat="44.83321" lon="3.74037">
        <ele>892</ele>
        <time>2009-07-11T14:35:30Z</time>
      </trkpt>
      <trkpt lat="44.83357" lon="3.7407">
        <ele>895</ele>
        <time>2009-07-11T14:35:41Z</time>
      </trkpt>
      <trkpt lat="44.8336" lon="3.74072">
        <ele>895</ele>
        <time>2009-07-11T14:35:42Z</time>
      </trkpt>
      <trkpt lat="44.83369" lon="3.74076">
        <ele>896</ele>
        <time>2009-07-11T14:35:45Z</time>
      </trkpt>
      <trkpt lat="44.83416" lon="3.74103">
        <ele>898</ele>
        <time>2009-07-11T14:36:02Z</time>
      </trkpt>
      <trkpt lat="44.8346" lon="3.74131">
        <ele>897</ele>
        <time>2009-07-11T14:36:16Z</time>
      </trkpt>
      <trkpt lat="44.83479" lon="3.74144">
        <ele>895</ele>
        <time>2009-07-11T14:36:22Z</time>
      </trkpt>
      <trkpt lat="44.83497" lon="3.74126">
        <ele>893</ele>
        <time>2009-07-11T14:36:29Z</time>
      </trkpt>
      <trkpt lat="44.83506" lon="3.7411">
        <ele>891</ele>
        <time>2009-07-11T14:36:32Z</time>
      </trkpt>
      <trkpt lat="44.83513" lon="3.74092">
        <ele>893</ele>
        <time>2009-07-11T14:36:35Z</time>
      </trkpt>
      <trkpt lat="44.8353" lon="3.74098">
        <ele>892</ele>
        <time>2009-07-11T14:36:41Z</time>
      </trkpt>
      <trkpt lat="44.83538" lon="3.74133">
        <ele>889</ele>
        <time>2009-07-11T14:36:47Z</time>
      </trkpt>
      <trkpt lat="44.83539" lon="3.74139">
        <ele>888</ele>
        <time>2009-07-11T14:36:48Z</time>
      </trkpt>
      <trkpt lat="44.83544" lon="3.74159">
        <ele>886</ele>
        <time>2009-07-11T14:36:51Z</time>
      </trkpt>
      <trkpt lat="44.83544" lon="3.74187">
        <ele>881</ele>
        <time>2009-07-11T14:36:56Z</time>
      </trkpt>
      <trkpt lat="44.83546" lon="3.74205">
        <ele>877</ele>
        <time>2009-07-11T14:37:00Z</time>
      </trkpt>
      <trkpt lat="44.8355" lon="3.74222">
        <ele>874</ele>
        <time>2009-07-11T14:37:03Z</time>
      </trkpt>
      <trkpt lat="44.83559" lon="3.74233">
        <ele>871</ele>
        <time>2009-07-11T14:37:05Z</time>
      </trkpt>
      <trkpt lat="44.83576" lon="3.74253">
        <ele>866</ele>
        <time>2009-07-11T14:37:10Z</time>
      </trkpt>
      <trkpt lat="44.83594" lon="3.74262">
        <ele>862</ele>
        <time>2009-07-11T14:37:15Z</time>
      </trkpt>
      <trkpt lat="44.83603" lon="3.74255">
        <ele>859</ele>
        <time>2009-07-11T14:37:20Z</time>
      </trkpt>
      <trkpt lat="44.83602" lon="3.74255">
        <ele>860</ele>
        <time>2009-07-11T14:37:21Z</time>
      </trkpt>
      <trkpt lat="44.836" lon="3.74254">
        <ele>861</ele>
        <time>2009-07-11T14:37:25Z</time>
      </trkpt>
      <trkpt lat="44.83611" lon="3.74233">
        <ele>856</ele>
        <time>2009-07-11T14:37:33Z</time>
      </trkpt>
      <trkpt lat="44.83614" lon="3.7423">
        <ele>855</ele>
        <time>2009-07-11T14:37:34Z</time>
      </trkpt>
      <trkpt lat="44.83621" lon="3.74223">
        <ele>852</ele>
        <time>2009-07-11T14:37:36Z</time>
      </trkpt>
      <trkpt lat="44.83637" lon="3.74205">
        <ele>848</ele>
        <time>2009-07-11T14:37:40Z</time>
      </trkpt>
      <trkpt lat="44.8365" lon="3.74205">
        <ele>845</ele>
        <time>2009-07-11T14:37:45Z</time>
      </trkpt>
      <trkpt lat="44.83649" lon="3.74214">
        <ele>842</ele>
        <time>2009-07-11T14:37:47Z</time>
      </trkpt>
      <trkpt lat="44.83649" lon="3.74233">
        <ele>840</ele>
        <time>2009-07-11T14:37:50Z</time>
      </trkpt>
      <trkpt lat="44.83646" lon="3.7426">
        <ele>835</ele>
        <time>2009-07-11T14:37:55Z</time>
      </trkpt>
      <trkpt lat="44.83657" lon="3.74268">
        <ele>835</ele>
        <time>2009-07-11T14:38:03Z</time>
      </trkpt>
      <trkpt lat="44.83659" lon="3.74279">
        <ele>835</ele>
        <time>2009-07-11T14:38:29Z</time>
      </trkpt>
      <trkpt lat="44.83662" lon="3.74277">
        <ele>835</ele>
        <time>2009-07-11T14:38:50Z</time>
      </trkpt>
      <trkpt lat="44.83658" lon="3.74276">
        <ele>835</ele>
        <time>2009-07-11T14:39:26Z</time>
      </trkpt>
      <trkpt lat="44.83654" lon="3.7428">
        <ele>834</ele>
        <time>2009-07-11T14:39:53Z</time>
      </trkpt>
      <trkpt lat="44.83657" lon="3.74278">
        <ele>833</ele>
        <time>2009-07-11T14:40:58Z</time>
      </trkpt>
      <trkpt lat="44.83658" lon="3.74278">
        <ele>834</ele>
        <time>2009-07-11T14:40:59Z</time>
      </trkpt>
      <trkpt lat="44.83671" lon="3.74266">
        <ele>832</ele>
        <time>2009-07-11T14:41:08Z</time>
      </trkpt>
      <trkpt lat="44.83673" lon="3.74263">
        <ele>831</ele>
        <time>2009-07-11T14:41:10Z</time>
      </trkpt>
      <trkpt lat="44.83676" lon="3.74257">
        <ele>832</ele>
        <time>2009-07-11T14:41:15Z</time>
      </trkpt>
      <trkpt lat="44.83679" lon="3.74252">
        <ele>830</ele>
        <time>2009-07-11T14:41:18Z</time>
      </trkpt>
      <trkpt lat="44.83689" lon="3.74235">
        <ele>828</ele>
        <time>2009-07-11T14:41:22Z</time>
      </trkpt>
      <trkpt lat="44.83695" lon="3.74223">
        <ele>827</ele>
        <time>2009-07-11T14:41:24Z</time>
      </trkpt>
      <trkpt lat="44.83699" lon="3.74209">
        <ele>826</ele>
        <time>2009-07-11T14:41:26Z</time>
      </trkpt>
      <trkpt lat="44.83709" lon="3.74178">
        <ele>821</ele>
        <time>2009-07-11T14:41:31Z</time>
      </trkpt>
      <trkpt lat="44.83711" lon="3.74163">
        <ele>819</ele>
        <time>2009-07-11T14:41:33Z</time>
      </trkpt>
      <trkpt lat="44.83714" lon="3.7414">
        <ele>817</ele>
        <time>2009-07-11T14:41:36Z</time>
      </trkpt>
      <trkpt lat="44.83715" lon="3.74111">
        <ele>814</ele>
        <time>2009-07-11T14:41:40Z</time>
      </trkpt>
      <trkpt lat="44.8372" lon="3.74073">
        <ele>811</ele>
        <time>2009-07-11T14:41:47Z</time>
      </trkpt>
      <trkpt lat="44.8372" lon="3.74069">
        <ele>810</ele>
        <time>2009-07-11T14:41:48Z</time>
      </trkpt>
      <trkpt lat="44.83722" lon="3.74055">
        <ele>807</ele>
        <time>2009-07-11T14:41:51Z</time>
      </trkpt>
      <trkpt lat="44.83724" lon="3.74034">
        <ele>806</ele>
        <time>2009-07-11T14:41:54Z</time>
      </trkpt>
      <trkpt lat="44.83723" lon="3.73995">
        <ele>802</ele>
        <time>2009-07-11T14:42:01Z</time>
      </trkpt>
      <trkpt lat="44.83721" lon="3.73989">
        <ele>802</ele>
        <time>2009-07-11T14:42:02Z</time>
      </trkpt>
      <trkpt lat="44.83721" lon="3.73952">
        <ele>798</ele>
        <time>2009-07-11T14:42:10Z</time>
      </trkpt>
      <trkpt lat="44.83721" lon="3.73948">
        <ele>798</ele>
        <time>2009-07-11T14:42:11Z</time>
      </trkpt>
      <trkpt lat="44.83721" lon="3.73939">
        <ele>798</ele>
        <time>2009-07-11T14:42:13Z</time>
      </trkpt>
      <trkpt lat="44.83722" lon="3.73903">
        <ele>794</ele>
        <time>2009-07-11T14:42:18Z</time>
      </trkpt>
      <trkpt lat="44.83719" lon="3.73879">
        <ele>792</ele>
        <time>2009-07-11T14:42:21Z</time>
      </trkpt>
      <trkpt lat="44.83714" lon="3.73844">
        <ele>789</ele>
        <time>2009-07-11T14:42:27Z</time>
      </trkpt>
      <trkpt lat="44.83722" lon="3.73849">
        <ele>788</ele>
        <time>2009-07-11T14:42:30Z</time>
      </trkpt>
      <trkpt lat="44.83727" lon="3.73857">
        <ele>786</ele>
        <time>2009-07-11T14:42:32Z</time>
      </trkpt>
      <trkpt lat="44.83736" lon="3.73876">
        <ele>784</ele>
        <time>2009-07-11T14:42:35Z</time>
      </trkpt>
      <trkpt lat="44.83738" lon="3.73883">
        <ele>783</ele>
        <time>2009-07-11T14:42:36Z</time>
      </trkpt>
      <trkpt lat="44.83743" lon="3.73909">
        <ele>781</ele>
        <time>2009-07-11T14:42:40Z</time>
      </trkpt>
      <trkpt lat="44.83758" lon="3.73943">
        <ele>779</ele>
        <time>2009-07-11T14:42:45Z</time>
      </trkpt>
      <trkpt lat="44.8376" lon="3.73949">
        <ele>779</ele>
        <time>2009-07-11T14:42:46Z</time>
      </trkpt>
      <trkpt lat="44.83769" lon="3.73953">
        <ele>778</ele>
        <time>2009-07-11T14:42:56Z</time>
      </trkpt>
      <trkpt lat="44.83764" lon="3.7395">
        <ele>777</ele>
        <time>2009-07-11T14:45:17Z</time>
      </trkpt>
      <trkpt lat="44.83768" lon="3.73906">
        <ele>774</ele>
        <time>2009-07-11T14:45:27Z</time>
      </trkpt>
      <trkpt lat="44.83768" lon="3.73881">
        <ele>770</ele>
        <time>2009-07-11T14:45:30Z</time>
      </trkpt>
      <trkpt lat="44.83771" lon="3.73844">
        <ele>767</ele>
        <time>2009-07-11T14:45:35Z</time>
      </trkpt>
      <trkpt lat="44.83758" lon="3.7381">
        <ele>766</ele>
        <time>2009-07-11T14:45:41Z</time>
      </trkpt>
      <trkpt lat="44.83741" lon="3.73777">
        <ele>761</ele>
        <time>2009-07-11T14:45:47Z</time>
      </trkpt>
      <trkpt lat="44.83738" lon="3.73774">
        <ele>762</ele>
        <time>2009-07-11T14:45:48Z</time>
      </trkpt>
      <trkpt lat="44.83744" lon="3.7377">
        <ele>760</ele>
        <time>2009-07-11T14:45:53Z</time>
      </trkpt>
      <trkpt lat="44.83795" lon="3.73822">
        <ele>758</ele>
        <time>2009-07-11T14:46:07Z</time>
      </trkpt>
      <trkpt lat="44.83892" lon="3.73878">
        <ele>757</ele>
        <time>2009-07-11T14:46:28Z</time>
      </trkpt>
      <trkpt lat="44.83994" lon="3.73938">
        <ele>758</ele>
        <time>2009-07-11T14:46:51Z</time>
      </trkpt>
      <trkpt lat="44.84009" lon="3.73924">
        <ele>757</ele>
        <time>2009-07-11T14:46:56Z</time>
      </trkpt>
      <trkpt lat="44.84027" lon="3.73876">
        <ele>760</ele>
        <time>2009-07-11T14:47:09Z</time>
      </trkpt>
      <trkpt lat="44.84034" lon="3.73863">
        <ele>760</ele>
        <time>2009-07-11T14:47:25Z</time>
      </trkpt>
      <trkpt lat="44.84068" lon="3.73826">
        <ele>759</ele>
        <time>2009-07-11T14:47:41Z</time>
      </trkpt>
      <trkpt lat="44.84072" lon="3.73822">
        <ele>760</ele>
        <time>2009-07-11T14:47:43Z</time>
      </trkpt>
      <trkpt lat="44.84105" lon="3.73809">
        <ele>760</ele>
        <time>2009-07-11T14:47:56Z</time>
      </trkpt>
      <trkpt lat="44.84116" lon="3.73829">
        <ele>762</ele>
        <time>2009-07-11T14:48:02Z</time>
      </trkpt>
      <trkpt lat="44.84118" lon="3.73835">
        <ele>762</ele>
        <time>2009-07-11T14:48:12Z</time>
      </trkpt>
      <trkpt lat="44.84124" lon="3.73844">
        <ele>761</ele>
        <time>2009-07-11T14:49:07Z</time>
      </trkpt>
      <trkpt lat="44.8414" lon="3.73902">
        <ele>763</ele>
        <time>2009-07-11T14:49:25Z</time>
      </trkpt>
      <trkpt lat="44.84143" lon="3.73912">
        <ele>765</ele>
        <time>2009-07-11T14:49:28Z</time>
      </trkpt>
      <trkpt lat="44.84153" lon="3.73945">
        <ele>768</ele>
        <time>2009-07-11T14:49:40Z</time>
      </trkpt>
      <trkpt lat="44.84169" lon="3.73986">
        <ele>771</ele>
        <time>2009-07-11T14:49:56Z</time>
      </trkpt>
      <trkpt lat="44.84185" lon="3.74014">
        <ele>772</ele>
        <time>2009-07-11T14:50:10Z</time>
      </trkpt>
      <trkpt lat="44.84182" lon="3.74006">
        <ele>772</ele>
        <time>2009-07-11T14:50:14Z</time>
      </trkpt>
      <trkpt lat="44.84179" lon="3.74001">
        <ele>771</ele>
        <time>2009-07-11T14:50:16Z</time>
      </trkpt>
      <trkpt lat="44.84159" lon="3.73954">
        <ele>768</ele>
        <time>2009-07-11T14:50:30Z</time>
      </trkpt>
      <trkpt lat="44.84155" lon="3.73955">
        <ele>767</ele>
        <time>2009-07-11T14:50:39Z</time>
      </trkpt>
      <trkpt lat="44.84154" lon="3.73957">
        <ele>767</ele>
        <time>2009-07-11T14:51:01Z</time>
      </trkpt>
      <trkpt lat="44.84156" lon="3.73955">
        <ele>768</ele>
        <time>2009-07-11T14:51:19Z</time>
      </trkpt>
      <trkpt lat="44.84154" lon="3.73946">
        <ele>767</ele>
        <time>2009-07-11T14:51:23Z</time>
      </trkpt>
      <trkpt lat="44.84149" lon="3.73925">
        <ele>765</ele>
        <time>2009-07-11T14:51:27Z</time>
      </trkpt>
      <trkpt lat="44.84147" lon="3.73909">
        <ele>765</ele>
        <time>2009-07-11T14:51:35Z</time>
      </trkpt>
      <trkpt lat="44.84143" lon="3.73912">
        <ele>764</ele>
        <time>2009-07-11T14:55:28Z</time>
      </trkpt>
      <trkpt lat="44.84144" lon="3.73913">
        <ele>764</ele>
        <time>2009-07-11T14:55:38Z</time>
      </trkpt>
      <trkpt lat="44.84148" lon="3.73935">
        <ele>766</ele>
        <time>2009-07-11T14:55:50Z</time>
      </trkpt>
      <trkpt lat="44.84155" lon="3.73955">
        <ele>768</ele>
        <time>2009-07-11T14:55:58Z</time>
      </trkpt>
      <trkpt lat="44.84173" lon="3.73998">
        <ele>772</ele>
        <time>2009-07-11T14:56:17Z</time>
      </trkpt>
      <trkpt lat="44.84205" lon="3.74038">
        <ele>775</ele>
        <time>2009-07-11T14:56:38Z</time>
      </trkpt>
      <trkpt lat="44.84206" lon="3.74039">
        <ele>775</ele>
        <time>2009-07-11T14:56:39Z</time>
      </trkpt>
      <trkpt lat="44.84232" lon="3.74067">
        <ele>776</ele>
        <time>2009-07-11T14:56:55Z</time>
      </trkpt>
      <trkpt lat="44.84262" lon="3.74096">
        <ele>780</ele>
        <time>2009-07-11T14:57:13Z</time>
      </trkpt>
      <trkpt lat="44.84249" lon="3.74109">
        <ele>782</ele>
        <time>2009-07-11T14:57:24Z</time>
      </trkpt>
      <trkpt lat="44.84218" lon="3.74081">
        <ele>785</ele>
        <time>2009-07-11T14:57:42Z</time>
      </trkpt>
      <trkpt lat="44.84181" lon="3.74061">
        <ele>788</ele>
        <time>2009-07-11T14:58:01Z</time>
      </trkpt>
      <trkpt lat="44.84147" lon="3.74043">
        <ele>791</ele>
        <time>2009-07-11T14:58:19Z</time>
      </trkpt>
      <trkpt lat="44.84119" lon="3.74019">
        <ele>794</ele>
        <time>2009-07-11T14:58:35Z</time>
      </trkpt>
      <trkpt lat="44.84118" lon="3.74017">
        <ele>794</ele>
        <time>2009-07-11T14:58:36Z</time>
      </trkpt>
      <trkpt lat="44.84094" lon="3.73973">
        <ele>798</ele>
        <time>2009-07-11T14:58:55Z</time>
      </trkpt>
      <trkpt lat="44.84093" lon="3.73972">
        <ele>798</ele>
        <time>2009-07-11T14:58:56Z</time>
      </trkpt>
      <trkpt lat="44.84075" lon="3.73982">
        <ele>801</ele>
        <time>2009-07-11T14:59:07Z</time>
      </trkpt>
      <trkpt lat="44.84081" lon="3.74026">
        <ele>803</ele>
        <time>2009-07-11T14:59:22Z</time>
      </trkpt>
      <trkpt lat="44.84091" lon="3.74078">
        <ele>806</ele>
        <time>2009-07-11T14:59:40Z</time>
      </trkpt>
      <trkpt lat="44.84087" lon="3.74129">
        <ele>809</ele>
        <time>2009-07-11T14:59:57Z</time>
      </trkpt>
      <trkpt lat="44.84082" lon="3.74187">
        <ele>812</ele>
        <time>2009-07-11T15:00:17Z</time>
      </trkpt>
      <trkpt lat="44.84084" lon="3.74238">
        <ele>815</ele>
        <time>2009-07-11T15:00:33Z</time>
      </trkpt>
      <trkpt lat="44.84062" lon="3.74289">
        <ele>818</ele>
        <time>2009-07-11T15:00:51Z</time>
      </trkpt>
      <trkpt lat="44.8404" lon="3.74323">
        <ele>821</ele>
        <time>2009-07-11T15:01:06Z</time>
      </trkpt>
      <trkpt lat="44.84017" lon="3.74364">
        <ele>824</ele>
        <time>2009-07-11T15:01:22Z</time>
      </trkpt>
      <trkpt lat="44.84001" lon="3.74396">
        <ele>827</ele>
        <time>2009-07-11T15:01:34Z</time>
      </trkpt>
      <trkpt lat="44.8399" lon="3.74448">
        <ele>831</ele>
        <time>2009-07-11T15:01:50Z</time>
      </trkpt>
      <trkpt lat="44.83983" lon="3.74503">
        <ele>834</ele>
        <time>2009-07-11T15:02:06Z</time>
      </trkpt>
      <trkpt lat="44.83972" lon="3.74521">
        <ele>837</ele>
        <time>2009-07-11T15:02:13Z</time>
      </trkpt>
      <trkpt lat="44.83971" lon="3.74524">
        <ele>836</ele>
        <time>2009-07-11T15:02:14Z</time>
      </trkpt>
      <trkpt lat="44.8397" lon="3.74578">
        <ele>839</ele>
        <time>2009-07-11T15:02:31Z</time>
      </trkpt>
      <trkpt lat="44.83959" lon="3.74621">
        <ele>842</ele>
        <time>2009-07-11T15:02:45Z</time>
      </trkpt>
      <trkpt lat="44.83946" lon="3.74652">
        <ele>845</ele>
        <time>2009-07-11T15:02:56Z</time>
      </trkpt>
      <trkpt lat="44.83907" lon="3.7471">
        <ele>848</ele>
        <time>2009-07-11T15:03:20Z</time>
      </trkpt>
      <trkpt lat="44.83869" lon="3.74734">
        <ele>851</ele>
        <time>2009-07-11T15:03:38Z</time>
      </trkpt>
      <trkpt lat="44.83853" lon="3.7474">
        <ele>854</ele>
        <time>2009-07-11T15:03:45Z</time>
      </trkpt>
      <trkpt lat="44.83817" lon="3.74748">
        <ele>857</ele>
        <time>2009-07-11T15:04:00Z</time>
      </trkpt>
      <trkpt lat="44.83788" lon="3.74745">
        <ele>860</ele>
        <time>2009-07-11T15:04:12Z</time>
      </trkpt>
      <trkpt lat="44.83749" lon="3.74743">
        <ele>863</ele>
        <time>2009-07-11T15:04:28Z</time>
      </trkpt>
      <trkpt lat="44.83704" lon="3.74752">
        <ele>866</ele>
        <time>2009-07-11T15:04:47Z</time>
      </trkpt>
      <trkpt lat="44.83671" lon="3.74771">
        <ele>869</ele>
        <time>2009-07-11T15:05:02Z</time>
      </trkpt>
      <trkpt lat="44.8365" lon="3.74806">
        <ele>873</ele>
        <time>2009-07-11T15:05:16Z</time>
      </trkpt>
      <trkpt lat="44.83634" lon="3.7484">
        <ele>876</ele>
        <time>2009-07-11T15:05:28Z</time>
      </trkpt>
      <trkpt lat="44.83633" lon="3.74843">
        <ele>876</ele>
        <time>2009-07-11T15:05:29Z</time>
      </trkpt>
      <trkpt lat="44.83609" lon="3.74886">
        <ele>878</ele>
        <time>2009-07-11T15:05:45Z</time>
      </trkpt>
      <trkpt lat="44.83594" lon="3.74922">
        <ele>882</ele>
        <time>2009-07-11T15:05:57Z</time>
      </trkpt>
      <trkpt lat="44.83585" lon="3.74977">
        <ele>885</ele>
        <time>2009-07-11T15:06:12Z</time>
      </trkpt>
      <trkpt lat="44.83586" lon="3.75042">
        <ele>888</ele>
        <time>2009-07-11T15:06:30Z</time>
      </trkpt>
      <trkpt lat="44.83592" lon="3.75047">
        <ele>890</ele>
        <time>2009-07-11T15:06:33Z</time>
      </trkpt>
      <trkpt lat="44.83641" lon="3.75064">
        <ele>892</ele>
        <time>2009-07-11T15:06:51Z</time>
      </trkpt>
      <trkpt lat="44.83679" lon="3.75108">
        <ele>893</ele>
        <time>2009-07-11T15:07:07Z</time>
      </trkpt>
      <trkpt lat="44.83698" lon="3.75126">
        <ele>896</ele>
        <time>2009-07-11T15:07:15Z</time>
      </trkpt>
      <trkpt lat="44.8372" lon="3.75152">
        <ele>899</ele>
        <time>2009-07-11T15:07:25Z</time>
      </trkpt>
      <trkpt lat="44.83758" lon="3.75176">
        <ele>901</ele>
        <time>2009-07-11T15:07:41Z</time>
      </trkpt>
      <trkpt lat="44.8379" lon="3.75194">
        <ele>904</ele>
        <time>2009-07-11T15:07:54Z</time>
      </trkpt>
      <trkpt lat="44.83793" lon="3.75195">
        <ele>904</ele>
        <time>2009-07-11T15:07:55Z</time>
      </trkpt>
      <trkpt lat="44.83823" lon="3.75207">
        <ele>907</ele>
        <time>2009-07-11T15:08:07Z</time>
      </trkpt>
      <trkpt lat="44.83864" lon="3.75235">
        <ele>911</ele>
        <time>2009-07-11T15:08:25Z</time>
      </trkpt>
      <trkpt lat="44.83869" lon="3.75238">
        <ele>911</ele>
        <time>2009-07-11T15:08:27Z</time>
      </trkpt>
      <trkpt lat="44.839" lon="3.75257">
        <ele>915</ele>
        <time>2009-07-11T15:08:40Z</time>
      </trkpt>
      <trkpt lat="44.83926" lon="3.7528">
        <ele>918</ele>
        <time>2009-07-11T15:08:52Z</time>
      </trkpt>
      <trkpt lat="44.83968" lon="3.75303">
        <ele>920</ele>
        <time>2009-07-11T15:09:09Z</time>
      </trkpt>
      <trkpt lat="44.84003" lon="3.75311">
        <ele>923</ele>
        <time>2009-07-11T15:09:22Z</time>
      </trkpt>
      <trkpt lat="44.84051" lon="3.75352">
        <ele>924</ele>
        <time>2009-07-11T15:09:41Z</time>
      </trkpt>
      <trkpt lat="44.84091" lon="3.75391">
        <ele>927</ele>
        <time>2009-07-11T15:09:54Z</time>
      </trkpt>
      <trkpt lat="44.84151" lon="3.75387">
        <ele>927</ele>
        <time>2009-07-11T15:10:08Z</time>
      </trkpt>
      <trkpt lat="44.84235" lon="3.7537">
        <ele>929</ele>
        <time>2009-07-11T15:10:26Z</time>
      </trkpt>
      <trkpt lat="44.84255" lon="3.7537">
        <ele>928</ele>
        <time>2009-07-11T15:10:30Z</time>
      </trkpt>
      <trkpt lat="44.84269" lon="3.75374">
        <ele>929</ele>
        <time>2009-07-11T15:10:33Z</time>
      </trkpt>
      <trkpt lat="44.84286" lon="3.75389">
        <ele>928</ele>
        <time>2009-07-11T15:10:37Z</time>
      </trkpt>
      <trkpt lat="44.84307" lon="3.75418">
        <ele>930</ele>
        <time>2009-07-11T15:10:43Z</time>
      </trkpt>
      <trkpt lat="44.84367" lon="3.75466">
        <ele>933</ele>
        <time>2009-07-11T15:11:00Z</time>
      </trkpt>
      <trkpt lat="44.84407" lon="3.75475">
        <ele>936</ele>
        <time>2009-07-11T15:11:13Z</time>
      </trkpt>
      <trkpt lat="44.84441" lon="3.75488">
        <ele>939</ele>
        <time>2009-07-11T15:11:26Z</time>
      </trkpt>
      <trkpt lat="44.84466" lon="3.755">
        <ele>942</ele>
        <time>2009-07-11T15:11:37Z</time>
      </trkpt>
      <trkpt lat="44.84484" lon="3.75499">
        <ele>945</ele>
        <time>2009-07-11T15:11:45Z</time>
      </trkpt>
      <trkpt lat="44.84505" lon="3.75497">
        <ele>947</ele>
        <time>2009-07-11T15:11:54Z</time>
      </trkpt>
      <trkpt lat="44.84534" lon="3.75506">
        <ele>950</ele>
        <time>2009-07-11T15:12:07Z</time>
      </trkpt>
      <trkpt lat="44.84575" lon="3.75523">
        <ele>954</ele>
        <time>2009-07-11T15:12:26Z</time>
      </trkpt>
      <trkpt lat="44.84597" lon="3.75519">
        <ele>957</ele>
        <time>2009-07-11T15:12:36Z</time>
      </trkpt>
      <trkpt lat="44.84643" lon="3.75501">
        <ele>960</ele>
        <time>2009-07-11T15:12:57Z</time>
      </trkpt>
      <trkpt lat="44.84681" lon="3.75487">
        <ele>963</ele>
        <time>2009-07-11T15:13:14Z</time>
      </trkpt>
      <trkpt lat="44.84694" lon="3.75483">
        <ele>966</ele>
        <time>2009-07-11T15:13:20Z</time>
      </trkpt>
      <trkpt lat="44.84731" lon="3.7548">
        <ele>969</ele>
        <time>2009-07-11T15:13:37Z</time>
      </trkpt>
      <trkpt lat="44.84762" lon="3.75511">
        <ele>970</ele>
        <time>2009-07-11T15:13:55Z</time>
      </trkpt>
      <trkpt lat="44.84756" lon="3.75565">
        <ele>973</ele>
        <time>2009-07-11T15:14:12Z</time>
      </trkpt>
      <trkpt lat="44.84749" lon="3.75604">
        <ele>976</ele>
        <time>2009-07-11T15:14:24Z</time>
      </trkpt>
      <trkpt lat="44.84745" lon="3.75652">
        <ele>980</ele>
        <time>2009-07-11T15:14:38Z</time>
      </trkpt>
      <trkpt lat="44.84761" lon="3.7573">
        <ele>983</ele>
        <time>2009-07-11T15:15:01Z</time>
      </trkpt>
      <trkpt lat="44.84787" lon="3.75796">
        <ele>987</ele>
        <time>2009-07-11T15:15:20Z</time>
      </trkpt>
      <trkpt lat="44.84815" lon="3.75868">
        <ele>989</ele>
        <time>2009-07-11T15:15:40Z</time>
      </trkpt>
      <trkpt lat="44.84834" lon="3.75912">
        <ele>990</ele>
        <time>2009-07-11T15:15:54Z</time>
      </trkpt>
      <trkpt lat="44.84833" lon="3.75918">
        <ele>991</ele>
        <time>2009-07-11T15:16:06Z</time>
      </trkpt>
      <trkpt lat="44.84834" lon="3.75919">
        <ele>990</ele>
        <time>2009-07-11T15:16:30Z</time>
      </trkpt>
      <trkpt lat="44.84823" lon="3.75921">
        <ele>993</ele>
        <time>2009-07-11T15:17:33Z</time>
      </trkpt>
      <trkpt lat="44.84817" lon="3.75925">
        <ele>992</ele>
        <time>2009-07-11T15:18:11Z</time>
      </trkpt>
      <trkpt lat="44.84823" lon="3.7592">
        <ele>992</ele>
        <time>2009-07-11T15:19:18Z</time>
      </trkpt>
      <trkpt lat="44.84824" lon="3.75916">
        <ele>993</ele>
        <time>2009-07-11T15:21:57Z</time>
      </trkpt>
      <trkpt lat="44.84825" lon="3.75918">
        <ele>992</ele>
        <time>2009-07-11T15:23:05Z</time>
      </trkpt>
      <trkpt lat="44.84823" lon="3.75919">
        <ele>993</ele>
        <time>2009-07-11T15:24:15Z</time>
      </trkpt>
      <trkpt lat="44.84826" lon="3.75921">
        <ele>993</ele>
        <time>2009-07-11T15:24:23Z</time>
      </trkpt>
      <trkpt lat="44.84833" lon="3.75958">
        <ele>994</ele>
        <time>2009-07-11T15:24:35Z</time>
      </trkpt>
      <trkpt lat="44.84865" lon="3.76016">
        <ele>995</ele>
        <time>2009-07-11T15:24:52Z</time>
      </trkpt>
      <trkpt lat="44.84912" lon="3.7605">
        <ele>995</ele>
        <time>2009-07-11T15:25:09Z</time>
      </trkpt>
      <trkpt lat="44.8492" lon="3.76048">
        <ele>995</ele>
        <time>2009-07-11T15:25:11Z</time>
      </trkpt>
      <trkpt lat="44.84952" lon="3.76013">
        <ele>997</ele>
        <time>2009-07-11T15:25:23Z</time>
      </trkpt>
      <trkpt lat="44.84952" lon="3.76005">
        <ele>997</ele>
        <time>2009-07-11T15:25:25Z</time>
      </trkpt>
      <trkpt lat="44.84948" lon="3.75935">
        <ele>999</ele>
        <time>2009-07-11T15:25:44Z</time>
      </trkpt>
      <trkpt lat="44.84945" lon="3.75876">
        <ele>1002</ele>
        <time>2009-07-11T15:26:02Z</time>
      </trkpt>
      <trkpt lat="44.84944" lon="3.75844">
        <ele>1006</ele>
        <time>2009-07-11T15:26:12Z</time>
      </trkpt>
      <trkpt lat="44.84944" lon="3.75784">
        <ele>1009</ele>
        <time>2009-07-11T15:26:30Z</time>
      </trkpt>
      <trkpt lat="44.84954" lon="3.75743">
        <ele>1011</ele>
        <time>2009-07-11T15:26:46Z</time>
      </trkpt>
      <trkpt lat="44.84957" lon="3.75736">
        <ele>1011</ele>
        <time>2009-07-11T15:26:51Z</time>
      </trkpt>
      <trkpt lat="44.84963" lon="3.7574">
        <ele>1012</ele>
        <time>2009-07-11T15:26:55Z</time>
      </trkpt>
      <trkpt lat="44.84987" lon="3.7577">
        <ele>1014</ele>
        <time>2009-07-11T15:27:11Z</time>
      </trkpt>
      <trkpt lat="44.85018" lon="3.75802">
        <ele>1018</ele>
        <time>2009-07-11T15:27:29Z</time>
      </trkpt>
      <trkpt lat="44.85044" lon="3.75825">
        <ele>1021</ele>
        <time>2009-07-11T15:27:43Z</time>
      </trkpt>
      <trkpt lat="44.8508" lon="3.75858">
        <ele>1024</ele>
        <time>2009-07-11T15:28:03Z</time>
      </trkpt>
      <trkpt lat="44.85116" lon="3.7589">
        <ele>1027</ele>
        <time>2009-07-11T15:28:23Z</time>
      </trkpt>
      <trkpt lat="44.85142" lon="3.75916">
        <ele>1030</ele>
        <time>2009-07-11T15:28:38Z</time>
      </trkpt>
      <trkpt lat="44.85171" lon="3.75953">
        <ele>1033</ele>
        <time>2009-07-11T15:28:57Z</time>
      </trkpt>
      <trkpt lat="44.85186" lon="3.75983">
        <ele>1036</ele>
        <time>2009-07-11T15:29:09Z</time>
      </trkpt>
      <trkpt lat="44.85218" lon="3.76028">
        <ele>1038</ele>
        <time>2009-07-11T15:29:30Z</time>
      </trkpt>
      <trkpt lat="44.85238" lon="3.76051">
        <ele>1041</ele>
        <time>2009-07-11T15:29:42Z</time>
      </trkpt>
      <trkpt lat="44.85273" lon="3.76079">
        <ele>1044</ele>
        <time>2009-07-11T15:30:01Z</time>
      </trkpt>
      <trkpt lat="44.853" lon="3.76105">
        <ele>1048</ele>
        <time>2009-07-11T15:30:16Z</time>
      </trkpt>
      <trkpt lat="44.85334" lon="3.76136">
        <ele>1051</ele>
        <time>2009-07-11T15:30:35Z</time>
      </trkpt>
      <trkpt lat="44.85356" lon="3.76154">
        <ele>1053</ele>
        <time>2009-07-11T15:30:47Z</time>
      </trkpt>
      <trkpt lat="44.85374" lon="3.76171">
        <ele>1056</ele>
        <time>2009-07-11T15:30:57Z</time>
      </trkpt>
      <trkpt lat="44.85405" lon="3.76211">
        <ele>1057</ele>
        <time>2009-07-11T15:31:17Z</time>
      </trkpt>
      <trkpt lat="44.85407" lon="3.76216">
        <ele>1058</ele>
        <time>2009-07-11T15:31:19Z</time>
      </trkpt>
      <trkpt lat="44.85417" lon="3.76243">
        <ele>1060</ele>
        <time>2009-07-11T15:31:29Z</time>
      </trkpt>
      <trkpt lat="44.85431" lon="3.76277">
        <ele>1063</ele>
        <time>2009-07-11T15:31:42Z</time>
      </trkpt>
      <trkpt lat="44.85452" lon="3.76314">
        <ele>1067</ele>
        <time>2009-07-11T15:31:58Z</time>
      </trkpt>
      <trkpt lat="44.85477" lon="3.76364">
        <ele>1070</ele>
        <time>2009-07-11T15:32:18Z</time>
      </trkpt>
      <trkpt lat="44.85499" lon="3.76401">
        <ele>1073</ele>
        <time>2009-07-11T15:32:34Z</time>
      </trkpt>
      <trkpt lat="44.85502" lon="3.76406">
        <ele>1074</ele>
        <time>2009-07-11T15:32:36Z</time>
      </trkpt>
      <trkpt lat="44.85513" lon="3.76433">
        <ele>1077</ele>
        <time>2009-07-11T15:32:47Z</time>
      </trkpt>
      <trkpt lat="44.85525" lon="3.76483">
        <ele>1079</ele>
        <time>2009-07-11T15:33:07Z</time>
      </trkpt>
      <trkpt lat="44.85527" lon="3.76493">
        <ele>1080</ele>
        <time>2009-07-11T15:33:12Z</time>
      </trkpt>
      <trkpt lat="44.85536" lon="3.76512">
        <ele>1083</ele>
        <time>2009-07-11T15:33:23Z</time>
      </trkpt>
      <trkpt lat="44.85551" lon="3.7653">
        <ele>1087</ele>
        <time>2009-07-11T15:33:36Z</time>
      </trkpt>
      <trkpt lat="44.85555" lon="3.76535">
        <ele>1088</ele>
        <time>2009-07-11T15:33:40Z</time>
      </trkpt>
      <trkpt lat="44.8557" lon="3.76552">
        <ele>1091</ele>
        <time>2009-07-11T15:33:53Z</time>
      </trkpt>
      <trkpt lat="44.85594" lon="3.76579">
        <ele>1094</ele>
        <time>2009-07-11T15:34:13Z</time>
      </trkpt>
      <trkpt lat="44.85605" lon="3.76593">
        <ele>1097</ele>
        <time>2009-07-11T15:34:23Z</time>
      </trkpt>
      <trkpt lat="44.85614" lon="3.76604">
        <ele>1100</ele>
        <time>2009-07-11T15:34:31Z</time>
      </trkpt>
      <trkpt lat="44.85634" lon="3.76629">
        <ele>1103</ele>
        <time>2009-07-11T15:34:49Z</time>
      </trkpt>
      <trkpt lat="44.85652" lon="3.76647">
        <ele>1106</ele>
        <time>2009-07-11T15:35:04Z</time>
      </trkpt>
      <trkpt lat="44.85671" lon="3.76662">
        <ele>1109</ele>
        <time>2009-07-11T15:35:18Z</time>
      </trkpt>
      <trkpt lat="44.85692" lon="3.76674">
        <ele>1113</ele>
        <time>2009-07-11T15:35:32Z</time>
      </trkpt>
      <trkpt lat="44.85716" lon="3.76691">
        <ele>1116</ele>
        <time>2009-07-11T15:35:48Z</time>
      </trkpt>
      <trkpt lat="44.85744" lon="3.7671">
        <ele>1119</ele>
        <time>2009-07-11T15:36:05Z</time>
      </trkpt>
      <trkpt lat="44.85775" lon="3.76739">
        <ele>1119</ele>
        <time>2009-07-11T15:36:24Z</time>
      </trkpt>
      <trkpt lat="44.858" lon="3.76767">
        <ele>1122</ele>
        <time>2009-07-11T15:36:40Z</time>
      </trkpt>
      <trkpt lat="44.85823" lon="3.76794">
        <ele>1124</ele>
        <time>2009-07-11T15:36:55Z</time>
      </trkpt>
      <trkpt lat="44.85848" lon="3.76825">
        <ele>1127</ele>
        <time>2009-07-11T15:37:11Z</time>
      </trkpt>
      <trkpt lat="44.85882" lon="3.7685">
        <ele>1130</ele>
        <time>2009-07-11T15:37:29Z</time>
      </trkpt>
      <trkpt lat="44.85884" lon="3.76851">
        <ele>1130</ele>
        <time>2009-07-11T15:37:30Z</time>
      </trkpt>
      <trkpt lat="44.85886" lon="3.76855">
        <ele>1131</ele>
        <time>2009-07-11T15:37:41Z</time>
      </trkpt>
      <trkpt lat="44.85886" lon="3.76856">
        <ele>1128</ele>
        <time>2009-07-11T15:38:11Z</time>
      </trkpt>
      <trkpt lat="44.85886" lon="3.76856">
        <ele>1132</ele>
        <time>2009-07-11T15:38:13Z</time>
      </trkpt>
      <trkpt lat="44.85886" lon="3.76856">
        <ele>1131</ele>
        <time>2009-07-11T15:39:08Z</time>
      </trkpt>
      <trkpt lat="44.85886" lon="3.76857">
        <ele>1132</ele>
        <time>2009-07-11T15:39:51Z</time>
      </trkpt>
      <trkpt lat="44.85881" lon="3.76894">
        <ele>1133</ele>
        <time>2009-07-11T15:40:06Z</time>
      </trkpt>
      <trkpt lat="44.85873" lon="3.76933">
        <ele>1137</ele>
        <time>2009-07-11T15:40:22Z</time>
      </trkpt>
      <trkpt lat="44.8588" lon="3.76968">
        <ele>1140</ele>
        <time>2009-07-11T15:40:37Z</time>
      </trkpt>
      <trkpt lat="44.85901" lon="3.77008">
        <ele>1143</ele>
        <time>2009-07-11T15:40:58Z</time>
      </trkpt>
      <trkpt lat="44.85911" lon="3.77042">
        <ele>1146</ele>
        <time>2009-07-11T15:41:14Z</time>
      </trkpt>
      <trkpt lat="44.85915" lon="3.77069">
        <ele>1147</ele>
        <time>2009-07-11T15:41:26Z</time>
      </trkpt>
      <trkpt lat="44.85918" lon="3.77107">
        <ele>1149</ele>
        <time>2009-07-11T15:41:42Z</time>
      </trkpt>
      <trkpt lat="44.85919" lon="3.77117">
        <ele>1148</ele>
        <time>2009-07-11T15:41:46Z</time>
      </trkpt>
      <trkpt lat="44.85938" lon="3.77142">
        <ele>1150</ele>
        <time>2009-07-11T15:42:01Z</time>
      </trkpt>
      <trkpt lat="44.85971" lon="3.77155">
        <ele>1153</ele>
        <time>2009-07-11T15:42:19Z</time>
      </trkpt>
      <trkpt lat="44.86002" lon="3.77179">
        <ele>1156</ele>
        <time>2009-07-11T15:42:37Z</time>
      </trkpt>
      <trkpt lat="44.86029" lon="3.77205">
        <ele>1158</ele>
        <time>2009-07-11T15:42:53Z</time>
      </trkpt>
      <trkpt lat="44.86065" lon="3.77247">
        <ele>1161</ele>
        <time>2009-07-11T15:43:14Z</time>
      </trkpt>
      <trkpt lat="44.86103" lon="3.77272">
        <ele>1163</ele>
        <time>2009-07-11T15:43:33Z</time>
      </trkpt>
      <trkpt lat="44.86142" lon="3.77308">
        <ele>1165</ele>
        <time>2009-07-11T15:43:52Z</time>
      </trkpt>
      <trkpt lat="44.86191" lon="3.77334">
        <ele>1166</ele>
        <time>2009-07-11T15:44:10Z</time>
      </trkpt>
      <trkpt lat="44.86252" lon="3.7737">
        <ele>1167</ele>
        <time>2009-07-11T15:44:30Z</time>
      </trkpt>
      <trkpt lat="44.86306" lon="3.77404">
        <ele>1169</ele>
        <time>2009-07-11T15:44:48Z</time>
      </trkpt>
      <trkpt lat="44.86351" lon="3.77447">
        <ele>1172</ele>
        <time>2009-07-11T15:45:06Z</time>
      </trkpt>
      <trkpt lat="44.86407" lon="3.77501">
        <ele>1174</ele>
        <time>2009-07-11T15:45:28Z</time>
      </trkpt>
      <trkpt lat="44.86457" lon="3.77548">
        <ele>1175</ele>
        <time>2009-07-11T15:45:47Z</time>
      </trkpt>
      <trkpt lat="44.86492" lon="3.77617">
        <ele>1175</ele>
        <time>2009-07-11T15:46:05Z</time>
      </trkpt>
      <trkpt lat="44.86541" lon="3.77683">
        <ele>1176</ele>
        <time>2009-07-11T15:46:25Z</time>
      </trkpt>
      <trkpt lat="44.86581" lon="3.77726">
        <ele>1176</ele>
        <time>2009-07-11T15:46:39Z</time>
      </trkpt>
      <trkpt lat="44.86617" lon="3.77778">
        <ele>1177</ele>
        <time>2009-07-11T15:46:54Z</time>
      </trkpt>
      <trkpt lat="44.86651" lon="3.77833">
        <ele>1181</ele>
        <time>2009-07-11T15:47:13Z</time>
      </trkpt>
      <trkpt lat="44.86664" lon="3.77862">
        <ele>1184</ele>
        <time>2009-07-11T15:47:23Z</time>
      </trkpt>
      <trkpt lat="44.86665" lon="3.77865">
        <ele>1184</ele>
        <time>2009-07-11T15:47:24Z</time>
      </trkpt>
      <trkpt lat="44.8667" lon="3.77876">
        <ele>1185</ele>
        <time>2009-07-11T15:47:28Z</time>
      </trkpt>
      <trkpt lat="44.86674" lon="3.77885">
        <ele>1187</ele>
        <time>2009-07-11T15:47:31Z</time>
      </trkpt>
      <trkpt lat="44.86695" lon="3.77957">
        <ele>1189</ele>
        <time>2009-07-11T15:47:52Z</time>
      </trkpt>
      <trkpt lat="44.86724" lon="3.78027">
        <ele>1191</ele>
        <time>2009-07-11T15:48:12Z</time>
      </trkpt>
      <trkpt lat="44.86755" lon="3.78081">
        <ele>1194</ele>
        <time>2009-07-11T15:48:28Z</time>
      </trkpt>
      <trkpt lat="44.86789" lon="3.78121">
        <ele>1196</ele>
        <time>2009-07-11T15:48:42Z</time>
      </trkpt>
      <trkpt lat="44.86813" lon="3.78155">
        <ele>1198</ele>
        <time>2009-07-11T15:48:57Z</time>
      </trkpt>
      <trkpt lat="44.86821" lon="3.78181">
        <ele>1199</ele>
        <time>2009-07-11T15:49:09Z</time>
      </trkpt>
      <trkpt lat="44.8683" lon="3.78215">
        <ele>1200</ele>
        <time>2009-07-11T15:49:27Z</time>
      </trkpt>
      <trkpt lat="44.86831" lon="3.78217">
        <ele>1200</ele>
        <time>2009-07-11T15:49:28Z</time>
      </trkpt>
      <trkpt lat="44.86841" lon="3.78222">
        <ele>1200</ele>
        <time>2009-07-11T15:49:39Z</time>
      </trkpt>
      <trkpt lat="44.86842" lon="3.78224">
        <ele>1201</ele>
        <time>2009-07-11T15:49:41Z</time>
      </trkpt>
      <trkpt lat="44.86845" lon="3.78225">
        <ele>1199</ele>
        <time>2009-07-11T15:50:00Z</time>
      </trkpt>
      <trkpt lat="44.86853" lon="3.78229">
        <ele>1200</ele>
        <time>2009-07-11T15:50:16Z</time>
      </trkpt>
      <trkpt lat="44.86881" lon="3.7824">
        <ele>1200</ele>
        <time>2009-07-11T15:50:31Z</time>
      </trkpt>
      <trkpt lat="44.86907" lon="3.78255">
        <ele>1197</ele>
        <time>2009-07-11T15:50:43Z</time>
      </trkpt>
      <trkpt lat="44.8694" lon="3.78273">
        <ele>1199</ele>
        <time>2009-07-11T15:50:58Z</time>
      </trkpt>
      <trkpt lat="44.86967" lon="3.78294">
        <ele>1199</ele>
        <time>2009-07-11T15:51:10Z</time>
      </trkpt>
      <trkpt lat="44.87016" lon="3.78327">
        <ele>1201</ele>
        <time>2009-07-11T15:51:29Z</time>
      </trkpt>
      <trkpt lat="44.87078" lon="3.78368">
        <ele>1203</ele>
        <time>2009-07-11T15:51:53Z</time>
      </trkpt>
      <trkpt lat="44.87115" lon="3.78392">
        <ele>1205</ele>
        <time>2009-07-11T15:52:09Z</time>
      </trkpt>
      <trkpt lat="44.87152" lon="3.78388">
        <ele>1207</ele>
        <time>2009-07-11T15:52:26Z</time>
      </trkpt>
      <trkpt lat="44.87161" lon="3.7838">
        <ele>1208</ele>
        <time>2009-07-11T15:52:40Z</time>
      </trkpt>
      <trkpt lat="44.87161" lon="3.78381">
        <ele>1208</ele>
        <time>2009-07-11T15:52:44Z</time>
      </trkpt>
      <trkpt lat="44.87152" lon="3.78389">
        <ele>1206</ele>
        <time>2009-07-11T15:52:51Z</time>
      </trkpt>
      <trkpt lat="44.87114" lon="3.78392">
        <ele>1207</ele>
        <time>2009-07-11T15:53:06Z</time>
      </trkpt>
      <trkpt lat="44.87082" lon="3.78372">
        <ele>1205</ele>
        <time>2009-07-11T15:53:19Z</time>
      </trkpt>
      <trkpt lat="44.87079" lon="3.7837">
        <ele>1206</ele>
        <time>2009-07-11T15:53:33Z</time>
      </trkpt>
      <trkpt lat="44.87079" lon="3.7837">
        <ele>1206</ele>
        <time>2009-07-11T15:53:43Z</time>
      </trkpt>
      <trkpt lat="44.87079" lon="3.7837">
        <ele>1202</ele>
        <time>2009-07-11T15:53:44Z</time>
      </trkpt>
      <trkpt lat="44.87079" lon="3.7837">
        <ele>1206</ele>
        <time>2009-07-11T15:53:45Z</time>
      </trkpt>
      <trkpt lat="44.87079" lon="3.7837">
        <ele>1205</ele>
        <time>2009-07-11T15:54:02Z</time>
      </trkpt>
      <trkpt lat="44.87067" lon="3.78363">
        <ele>1204</ele>
        <time>2009-07-11T15:54:09Z</time>
      </trkpt>
      <trkpt lat="44.87031" lon="3.78336">
        <ele>1203</ele>
        <time>2009-07-11T15:54:22Z</time>
      </trkpt>
      <trkpt lat="44.87022" lon="3.78349">
        <ele>1203</ele>
        <time>2009-07-11T15:54:27Z</time>
      </trkpt>
      <trkpt lat="44.87021" lon="3.78399">
        <ele>1202</ele>
        <time>2009-07-11T15:54:41Z</time>
      </trkpt>
      <trkpt lat="44.87021" lon="3.78406">
        <ele>1203</ele>
        <time>2009-07-11T15:54:43Z</time>
      </trkpt>
      <trkpt lat="44.87019" lon="3.7845">
        <ele>1203</ele>
        <time>2009-07-11T15:54:55Z</time>
      </trkpt>
      <trkpt lat="44.87017" lon="3.78462">
        <ele>1203</ele>
        <time>2009-07-11T15:54:58Z</time>
      </trkpt>
      <trkpt lat="44.87023" lon="3.78476">
        <ele>1204</ele>
        <time>2009-07-11T15:55:04Z</time>
      </trkpt>
      <trkpt lat="44.87063" lon="3.78484">
        <ele>1204</ele>
        <time>2009-07-11T15:55:22Z</time>
      </trkpt>
      <trkpt lat="44.87098" lon="3.78492">
        <ele>1205</ele>
        <time>2009-07-11T15:55:39Z</time>
      </trkpt>
      <trkpt lat="44.87121" lon="3.7849">
        <ele>1206</ele>
        <time>2009-07-11T15:55:51Z</time>
      </trkpt>
      <trkpt lat="44.87154" lon="3.78497">
        <ele>1208</ele>
        <time>2009-07-11T15:56:09Z</time>
      </trkpt>
      <trkpt lat="44.87177" lon="3.78504">
        <ele>1209</ele>
        <time>2009-07-11T15:56:21Z</time>
      </trkpt>
      <trkpt lat="44.87213" lon="3.78521">
        <ele>1210</ele>
        <time>2009-07-11T15:56:42Z</time>
      </trkpt>
      <trkpt lat="44.87246" lon="3.78545">
        <ele>1213</ele>
        <time>2009-07-11T15:57:02Z</time>
      </trkpt>
      <trkpt lat="44.87256" lon="3.78553">
        <ele>1213</ele>
        <time>2009-07-11T15:57:09Z</time>
      </trkpt>
      <trkpt lat="44.87286" lon="3.78571">
        <ele>1215</ele>
        <time>2009-07-11T15:57:26Z</time>
      </trkpt>
      <trkpt lat="44.87331" lon="3.78614">
        <ele>1216</ele>
        <time>2009-07-11T15:57:50Z</time>
      </trkpt>
      <trkpt lat="44.87372" lon="3.78654">
        <ele>1217</ele>
        <time>2009-07-11T15:58:12Z</time>
      </trkpt>
      <trkpt lat="44.87398" lon="3.78673">
        <ele>1218</ele>
        <time>2009-07-11T15:58:24Z</time>
      </trkpt>
      <trkpt lat="44.87442" lon="3.78692">
        <ele>1221</ele>
        <time>2009-07-11T15:58:42Z</time>
      </trkpt>
      <trkpt lat="44.87483" lon="3.78703">
        <ele>1222</ele>
        <time>2009-07-11T15:59:00Z</time>
      </trkpt>
      <trkpt lat="44.87519" lon="3.78731">
        <ele>1224</ele>
        <time>2009-07-11T15:59:18Z</time>
      </trkpt>
      <trkpt lat="44.87551" lon="3.78751">
        <ele>1227</ele>
        <time>2009-07-11T15:59:33Z</time>
      </trkpt>
      <trkpt lat="44.87562" lon="3.7876">
        <ele>1229</ele>
        <time>2009-07-11T15:59:39Z</time>
      </trkpt>
      <trkpt lat="44.876" lon="3.78785">
        <ele>1230</ele>
        <time>2009-07-11T15:59:57Z</time>
      </trkpt>
      <trkpt lat="44.87646" lon="3.78804">
        <ele>1232</ele>
        <time>2009-07-11T16:00:16Z</time>
      </trkpt>
      <trkpt lat="44.87693" lon="3.78802">
        <ele>1233</ele>
        <time>2009-07-11T16:00:33Z</time>
      </trkpt>
      <trkpt lat="44.87753" lon="3.78819">
        <ele>1235</ele>
        <time>2009-07-11T16:00:55Z</time>
      </trkpt>
      <trkpt lat="44.87811" lon="3.78837">
        <ele>1237</ele>
        <time>2009-07-11T16:01:16Z</time>
      </trkpt>
      <trkpt lat="44.87858" lon="3.78848">
        <ele>1237</ele>
        <time>2009-07-11T16:01:32Z</time>
      </trkpt>
      <trkpt lat="44.87922" lon="3.78871">
        <ele>1238</ele>
        <time>2009-07-11T16:01:52Z</time>
      </trkpt>
      <trkpt lat="44.87984" lon="3.78887">
        <ele>1238</ele>
        <time>2009-07-11T16:02:10Z</time>
      </trkpt>
      <trkpt lat="44.88044" lon="3.78899">
        <ele>1236</ele>
        <time>2009-07-11T16:02:26Z</time>
      </trkpt>
      <trkpt lat="44.88114" lon="3.7891">
        <ele>1237</ele>
        <time>2009-07-11T16:02:44Z</time>
      </trkpt>
      <trkpt lat="44.8816" lon="3.78903">
        <ele>1238</ele>
        <time>2009-07-11T16:02:58Z</time>
      </trkpt>
      <trkpt lat="44.88162" lon="3.78904">
        <ele>1238</ele>
        <time>2009-07-11T16:03:12Z</time>
      </trkpt>
      <trkpt lat="44.88166" lon="3.78905">
        <ele>1237</ele>
        <time>2009-07-11T16:03:51Z</time>
      </trkpt>
      <trkpt lat="44.88167" lon="3.78905">
        <ele>1237</ele>
        <time>2009-07-11T16:04:53Z</time>
      </trkpt>
      <trkpt lat="44.88167" lon="3.78903">
        <ele>1238</ele>
        <time>2009-07-11T16:05:07Z</time>
      </trkpt>
      <trkpt lat="44.88169" lon="3.789">
        <ele>1238</ele>
        <time>2009-07-11T16:05:24Z</time>
      </trkpt>
      <trkpt lat="44.882" lon="3.78887">
        <ele>1235</ele>
        <time>2009-07-11T16:05:33Z</time>
      </trkpt>
      <trkpt lat="44.88212" lon="3.78883">
        <ele>1232</ele>
        <time>2009-07-11T16:05:35Z</time>
      </trkpt>
      <trkpt lat="44.88244" lon="3.78874">
        <ele>1229</ele>
        <time>2009-07-11T16:05:39Z</time>
      </trkpt>
      <trkpt lat="44.8827" lon="3.78861">
        <ele>1225</ele>
        <time>2009-07-11T16:05:42Z</time>
      </trkpt>
      <trkpt lat="44.88278" lon="3.78857">
        <ele>1226</ele>
        <time>2009-07-11T16:05:43Z</time>
      </trkpt>
      <trkpt lat="44.88296" lon="3.7885">
        <ele>1225</ele>
        <time>2009-07-11T16:05:45Z</time>
      </trkpt>
      <trkpt lat="44.88391" lon="3.78823">
        <ele>1225</ele>
        <time>2009-07-11T16:05:57Z</time>
      </trkpt>
      <trkpt lat="44.88398" lon="3.7882">
        <ele>1225</ele>
        <time>2009-07-11T16:05:58Z</time>
      </trkpt>
      <trkpt lat="44.88494" lon="3.78788">
        <ele>1223</ele>
        <time>2009-07-11T16:06:15Z</time>
      </trkpt>
      <trkpt lat="44.88582" lon="3.78752">
        <ele>1220</ele>
        <time>2009-07-11T16:06:32Z</time>
      </trkpt>
      <trkpt lat="44.88675" lon="3.78706">
        <ele>1221</ele>
        <time>2009-07-11T16:06:53Z</time>
      </trkpt>
      <trkpt lat="44.88694" lon="3.78699">
        <ele>1221</ele>
        <time>2009-07-11T16:06:59Z</time>
      </trkpt>
      <trkpt lat="44.88703" lon="3.78713">
        <ele>1220</ele>
        <time>2009-07-11T16:07:04Z</time>
      </trkpt>
      <trkpt lat="44.88742" lon="3.7881">
        <ele>1220</ele>
        <time>2009-07-11T16:07:24Z</time>
      </trkpt>
      <trkpt lat="44.88772" lon="3.78883">
        <ele>1220</ele>
        <time>2009-07-11T16:07:41Z</time>
      </trkpt>
      <trkpt lat="44.88781" lon="3.78938">
        <ele>1220</ele>
        <time>2009-07-11T16:07:54Z</time>
      </trkpt>
      <trkpt lat="44.88792" lon="3.79012">
        <ele>1219</ele>
        <time>2009-07-11T16:08:10Z</time>
      </trkpt>
      <trkpt lat="44.88814" lon="3.7902">
        <ele>1218</ele>
        <time>2009-07-11T16:08:18Z</time>
      </trkpt>
      <trkpt lat="44.88849" lon="3.79024">
        <ele>1219</ele>
        <time>2009-07-11T16:08:31Z</time>
      </trkpt>
      <trkpt lat="44.88858" lon="3.79015">
        <ele>1219</ele>
        <time>2009-07-11T16:08:42Z</time>
      </trkpt>
      <trkpt lat="44.88858" lon="3.79015">
        <ele>1220</ele>
        <time>2009-07-11T16:08:52Z</time>
      </trkpt>
      <trkpt lat="44.88866" lon="3.7902">
        <ele>1219</ele>
        <time>2009-07-11T16:08:57Z</time>
      </trkpt>
      <trkpt lat="44.88874" lon="3.79018">
        <ele>1219</ele>
        <time>2009-07-11T16:09:01Z</time>
      </trkpt>
      <trkpt lat="44.88902" lon="3.7898">
        <ele>1221</ele>
        <time>2009-07-11T16:09:13Z</time>
      </trkpt>
      <trkpt lat="44.88919" lon="3.78961">
        <ele>1220</ele>
        <time>2009-07-11T16:09:19Z</time>
      </trkpt>
      <trkpt lat="44.88969" lon="3.78922">
        <ele>1223</ele>
        <time>2009-07-11T16:09:35Z</time>
      </trkpt>
      <trkpt lat="44.88972" lon="3.7892">
        <ele>1223</ele>
        <time>2009-07-11T16:09:36Z</time>
      </trkpt>
      <trkpt lat="44.88985" lon="3.7893">
        <ele>1223</ele>
        <time>2009-07-11T16:09:41Z</time>
      </trkpt>
      <trkpt lat="44.89023" lon="3.78978">
        <ele>1227</ele>
        <time>2009-07-11T16:10:00Z</time>
      </trkpt>
      <trkpt lat="44.89043" lon="3.78951">
        <ele>1229</ele>
        <time>2009-07-11T16:10:12Z</time>
      </trkpt>
      <trkpt lat="44.89077" lon="3.78934">
        <ele>1230</ele>
        <time>2009-07-11T16:10:25Z</time>
      </trkpt>
      <trkpt lat="44.89092" lon="3.78935">
        <ele>1229</ele>
        <time>2009-07-11T16:10:31Z</time>
      </trkpt>
      <trkpt lat="44.89099" lon="3.78929">
        <ele>1230</ele>
        <time>2009-07-11T16:10:35Z</time>
      </trkpt>
      <trkpt lat="44.89124" lon="3.78872">
        <ele>1230</ele>
        <time>2009-07-11T16:10:51Z</time>
      </trkpt>
      <trkpt lat="44.89124" lon="3.78866">
        <ele>1230</ele>
        <time>2009-07-11T16:10:53Z</time>
      </trkpt>
      <trkpt lat="44.89127" lon="3.78859">
        <ele>1229</ele>
        <time>2009-07-11T16:11:03Z</time>
      </trkpt>
      <trkpt lat="44.89128" lon="3.78859">
        <ele>1230</ele>
        <time>2009-07-11T16:11:08Z</time>
      </trkpt>
    </trkseg>
  </trk>
  <trk>
    <name><![CDATA[G01]]></name>
    <trkseg>
      <trkpt lat="44.89126" lon="3.7885">
        <ele>1213</ele>
        <time>2009-07-12T06:20:04Z</time>
      </trkpt>
      <trkpt lat="44.89126" lon="3.7885">
        <ele>1212</ele>
        <time>2009-07-12T06:20:08Z</time>
      </trkpt>
      <trkpt lat="44.89126" lon="3.7885">
        <ele>1214</ele>
        <time>2009-07-12T06:20:14Z</time>
      </trkpt>
      <trkpt lat="44.89126" lon="3.78851">
        <ele>1217</ele>
        <time>2009-07-12T06:20:19Z</time>
      </trkpt>
      <trkpt lat="44.89126" lon="3.78851">
        <ele>1220</ele>
        <time>2009-07-12T06:20:28Z</time>
      </trkpt>
      <trkpt lat="44.89127" lon="3.78851">
        <ele>1221</ele>
        <time>2009-07-12T06:20:30Z</time>
      </trkpt>
      <trkpt lat="44.89128" lon="3.78852">
        <ele>1225</ele>
        <time>2009-07-12T06:20:37Z</time>
      </trkpt>
      <trkpt lat="44.89126" lon="3.78843">
        <ele>1230</ele>
        <time>2009-07-12T06:21:03Z</time>
      </trkpt>
      <trkpt lat="44.89126" lon="3.78843">
        <ele>1228</ele>
        <time>2009-07-12T06:21:04Z</time>
      </trkpt>
      <trkpt lat="44.89126" lon="3.78842">
        <ele>1225</ele>
        <time>2009-07-12T06:21:05Z</time>
      </trkpt>
      <trkpt lat="44.89126" lon="3.7884">
        <ele>1230</ele>
        <time>2009-07-12T06:21:06Z</time>
      </trkpt>
      <trkpt lat="44.89126" lon="3.7884">
        <ele>1226</ele>
        <time>2009-07-12T06:21:07Z</time>
      </trkpt>
      <trkpt lat="44.89125" lon="3.78834">
        <ele>1227</ele>
        <time>2009-07-12T06:21:17Z</time>
      </trkpt>
      <trkpt lat="44.89126" lon="3.78833">
        <ele>1228</ele>
        <time>2009-07-12T06:21:22Z</time>
      </trkpt>
      <trkpt lat="44.89127" lon="3.78845">
        <ele>1227</ele>
        <time>2009-07-12T06:22:11Z</time>
      </trkpt>
      <trkpt lat="44.89125" lon="3.78847">
        <ele>1227</ele>
        <time>2009-07-12T06:22:33Z</time>
      </trkpt>
      <trkpt lat="44.89124" lon="3.78851">
        <ele>1228</ele>
        <time>2009-07-12T06:22:36Z</time>
      </trkpt>
      <trkpt lat="44.89125" lon="3.78871">
        <ele>1228</ele>
        <time>2009-07-12T06:22:53Z</time>
      </trkpt>
      <trkpt lat="44.89127" lon="3.78872">
        <ele>1232</ele>
        <time>2009-07-12T06:24:51Z</time>
      </trkpt>
      <trkpt lat="44.89127" lon="3.78872">
        <ele>1229</ele>
        <time>2009-07-12T06:24:52Z</time>
      </trkpt>
      <trkpt lat="44.89127" lon="3.78872">
        <ele>1225</ele>
        <time>2009-07-12T06:24:53Z</time>
      </trkpt>
      <trkpt lat="44.89127" lon="3.78872">
        <ele>1229</ele>
        <time>2009-07-12T06:24:54Z</time>
      </trkpt>
      <trkpt lat="44.89127" lon="3.78873">
        <ele>1225</ele>
        <time>2009-07-12T06:25:09Z</time>
      </trkpt>
      <trkpt lat="44.89127" lon="3.78873">
        <ele>1229</ele>
        <time>2009-07-12T06:25:10Z</time>
      </trkpt>
      <trkpt lat="44.89127" lon="3.78873">
        <ele>1230</ele>
        <time>2009-07-12T06:25:28Z</time>
      </trkpt>
      <trkpt lat="44.89127" lon="3.78873">
        <ele>1228</ele>
        <time>2009-07-12T06:25:30Z</time>
      </trkpt>
      <trkpt lat="44.89127" lon="3.78875">
        <ele>1229</ele>
        <time>2009-07-12T06:26:37Z</time>
      </trkpt>
      <trkpt lat="44.89127" lon="3.78872">
        <ele>1230</ele>
        <time>2009-07-12T06:26:56Z</time>
      </trkpt>
      <trkpt lat="44.89127" lon="3.78872">
        <ele>1229</ele>
        <time>2009-07-12T06:27:02Z</time>
      </trkpt>
      <trkpt lat="44.89121" lon="3.78882">
        <ele>1230</ele>
        <time>2009-07-12T06:27:13Z</time>
      </trkpt>
      <trkpt lat="44.89121" lon="3.78882">
        <ele>1231</ele>
        <time>2009-07-12T06:27:34Z</time>
      </trkpt>
      <trkpt lat="44.89123" lon="3.78885">
        <ele>1231</ele>
        <time>2009-07-12T06:27:37Z</time>
      </trkpt>
      <trkpt lat="44.8914" lon="3.78862">
        <ele>1230</ele>
        <time>2009-07-12T06:27:48Z</time>
      </trkpt>
      <trkpt lat="44.89145" lon="3.78857">
        <ele>1230</ele>
        <time>2009-07-12T06:27:51Z</time>
      </trkpt>
      <trkpt lat="44.89173" lon="3.78824">
        <ele>1230</ele>
        <time>2009-07-12T06:28:07Z</time>
      </trkpt>
      <trkpt lat="44.89189" lon="3.78806">
        <ele>1230</ele>
        <time>2009-07-12T06:28:18Z</time>
      </trkpt>
      <trkpt lat="44.89186" lon="3.78804">
        <ele>1229</ele>
        <time>2009-07-12T06:28:22Z</time>
      </trkpt>
      <trkpt lat="44.8916" lon="3.78839">
        <ele>1228</ele>
        <time>2009-07-12T06:28:38Z</time>
      </trkpt>
      <trkpt lat="44.89131" lon="3.78873">
        <ele>1230</ele>
        <time>2009-07-12T06:28:51Z</time>
      </trkpt>
      <trkpt lat="44.89106" lon="3.78911">
        <ele>1230</ele>
        <time>2009-07-12T06:29:05Z</time>
      </trkpt>
      <trkpt lat="44.89119" lon="3.78915">
        <ele>1230</ele>
        <time>2009-07-12T06:29:12Z</time>
      </trkpt>
      <trkpt lat="44.8915" lon="3.78931">
        <ele>1230</ele>
        <time>2009-07-12T06:29:25Z</time>
      </trkpt>
      <trkpt lat="44.89151" lon="3.78931">
        <ele>1230</ele>
        <time>2009-07-12T06:29:33Z</time>
      </trkpt>
      <trkpt lat="44.89163" lon="3.7894">
        <ele>1229</ele>
        <time>2009-07-12T06:29:39Z</time>
      </trkpt>
      <trkpt lat="44.89188" lon="3.7897">
        <ele>1228</ele>
        <time>2009-07-12T06:29:48Z</time>
      </trkpt>
      <trkpt lat="44.89178" lon="3.79017">
        <ele>1226</ele>
        <time>2009-07-12T06:29:57Z</time>
      </trkpt>
      <trkpt lat="44.8917" lon="3.79038">
        <ele>1226</ele>
        <time>2009-07-12T06:30:01Z</time>
      </trkpt>
      <trkpt lat="44.89183" lon="3.79081">
        <ele>1224</ele>
        <time>2009-07-12T06:30:09Z</time>
      </trkpt>
      <trkpt lat="44.89188" lon="3.79082">
        <ele>1225</ele>
        <time>2009-07-12T06:30:10Z</time>
      </trkpt>
      <trkpt lat="44.89258" lon="3.79103">
        <ele>1225</ele>
        <time>2009-07-12T06:30:29Z</time>
      </trkpt>
      <trkpt lat="44.89273" lon="3.79108">
        <ele>1225</ele>
        <time>2009-07-12T06:30:33Z</time>
      </trkpt>
      <trkpt lat="44.89346" lon="3.79136">
        <ele>1227</ele>
        <time>2009-07-12T06:30:52Z</time>
      </trkpt>
      <trkpt lat="44.89419" lon="3.79172">
        <ele>1230</ele>
        <time>2009-07-12T06:31:12Z</time>
      </trkpt>
      <trkpt lat="44.89493" lon="3.79223">
        <ele>1232</ele>
        <time>2009-07-12T06:31:35Z</time>
      </trkpt>
      <trkpt lat="44.89559" lon="3.79254">
        <ele>1233</ele>
        <time>2009-07-12T06:31:55Z</time>
      </trkpt>
      <trkpt lat="44.89634" lon="3.79276">
        <ele>1233</ele>
        <time>2009-07-12T06:32:17Z</time>
      </trkpt>
      <trkpt lat="44.897" lon="3.79289">
        <ele>1236</ele>
        <time>2009-07-12T06:32:38Z</time>
      </trkpt>
      <trkpt lat="44.8976" lon="3.79289">
        <ele>1237</ele>
        <time>2009-07-12T06:32:57Z</time>
      </trkpt>
      <trkpt lat="44.89836" lon="3.79294">
        <ele>1239</ele>
        <time>2009-07-12T06:33:19Z</time>
      </trkpt>
      <trkpt lat="44.89904" lon="3.79329">
        <ele>1241</ele>
        <time>2009-07-12T06:33:40Z</time>
      </trkpt>
      <trkpt lat="44.89976" lon="3.7938">
        <ele>1243</ele>
        <time>2009-07-12T06:34:02Z</time>
      </trkpt>
      <trkpt lat="44.90047" lon="3.79405">
        <ele>1246</ele>
        <time>2009-07-12T06:34:23Z</time>
      </trkpt>
      <trkpt lat="44.90088" lon="3.79417">
        <ele>1249</ele>
        <time>2009-07-12T06:34:37Z</time>
      </trkpt>
      <trkpt lat="44.90131" lon="3.79433">
        <ele>1252</ele>
        <time>2009-07-12T06:34:52Z</time>
      </trkpt>
      <trkpt lat="44.90187" lon="3.79443">
        <ele>1254</ele>
        <time>2009-07-12T06:35:14Z</time>
      </trkpt>
      <trkpt lat="44.90213" lon="3.79444">
        <ele>1257</ele>
        <time>2009-07-12T06:35:25Z</time>
      </trkpt>
      <trkpt lat="44.90215" lon="3.79444">
        <ele>1257</ele>
        <time>2009-07-12T06:35:26Z</time>
      </trkpt>
      <trkpt lat="44.90243" lon="3.79445">
        <ele>1261</ele>
        <time>2009-07-12T06:35:39Z</time>
      </trkpt>
      <trkpt lat="44.90272" lon="3.79442">
        <ele>1264</ele>
        <time>2009-07-12T06:35:54Z</time>
      </trkpt>
      <trkpt lat="44.90304" lon="3.79434">
        <ele>1268</ele>
        <time>2009-07-12T06:36:13Z</time>
      </trkpt>
      <trkpt lat="44.90308" lon="3.79442">
        <ele>1267</ele>
        <time>2009-07-12T06:36:32Z</time>
      </trkpt>
      <trkpt lat="44.90308" lon="3.79439">
        <ele>1267</ele>
        <time>2009-07-12T06:36:53Z</time>
      </trkpt>
      <trkpt lat="44.90308" lon="3.79437">
        <ele>1268</ele>
        <time>2009-07-12T06:37:28Z</time>
      </trkpt>
      <trkpt lat="44.90305" lon="3.79433">
        <ele>1268</ele>
        <time>2009-07-12T06:38:05Z</time>
      </trkpt>
      <trkpt lat="44.90306" lon="3.79432">
        <ele>1268</ele>
        <time>2009-07-12T06:38:13Z</time>
      </trkpt>
      <trkpt lat="44.90311" lon="3.79414">
        <ele>1267</ele>
        <time>2009-07-12T06:38:23Z</time>
      </trkpt>
      <trkpt lat="44.90318" lon="3.79416">
        <ele>1265</ele>
        <time>2009-07-12T06:38:25Z</time>
      </trkpt>
      <trkpt lat="44.90326" lon="3.79421">
        <ele>1265</ele>
        <time>2009-07-12T06:38:27Z</time>
      </trkpt>
      <trkpt lat="44.90339" lon="3.7943">
        <ele>1261</ele>
        <time>2009-07-12T06:38:30Z</time>
      </trkpt>
      <trkpt lat="44.90344" lon="3.79433">
        <ele>1261</ele>
        <time>2009-07-12T06:38:31Z</time>
      </trkpt>
      <trkpt lat="44.90372" lon="3.7942">
        <ele>1256</ele>
        <time>2009-07-12T06:38:37Z</time>
      </trkpt>
      <trkpt lat="44.90369" lon="3.79386">
        <ele>1253</ele>
        <time>2009-07-12T06:38:41Z</time>
      </trkpt>
      <trkpt lat="44.90358" lon="3.79323">
        <ele>1251</ele>
        <time>2009-07-12T06:38:48Z</time>
      </trkpt>
      <trkpt lat="44.90361" lon="3.79289">
        <ele>1247</ele>
        <time>2009-07-12T06:38:51Z</time>
      </trkpt>
      <trkpt lat="44.90365" lon="3.79248">
        <ele>1242</ele>
        <time>2009-07-12T06:38:54Z</time>
      </trkpt>
      <trkpt lat="44.90378" lon="3.7917">
        <ele>1239</ele>
        <time>2009-07-12T06:39:02Z</time>
      </trkpt>
      <trkpt lat="44.90387" lon="3.79158">
        <ele>1239</ele>
        <time>2009-07-12T06:39:09Z</time>
      </trkpt>
      <trkpt lat="44.90385" lon="3.79168">
        <ele>1239</ele>
        <time>2009-07-12T06:39:16Z</time>
      </trkpt>
      <trkpt lat="44.90392" lon="3.79181">
        <ele>1237</ele>
        <time>2009-07-12T06:39:19Z</time>
      </trkpt>
      <trkpt lat="44.90399" lon="3.79208">
        <ele>1236</ele>
        <time>2009-07-12T06:39:23Z</time>
      </trkpt>
      <trkpt lat="44.90402" lon="3.79222">
        <ele>1235</ele>
        <time>2009-07-12T06:39:25Z</time>
      </trkpt>
      <trkpt lat="44.90417" lon="3.79268">
        <ele>1233</ele>
        <time>2009-07-12T06:39:31Z</time>
      </trkpt>
      <trkpt lat="44.90419" lon="3.79276">
        <ele>1233</ele>
        <time>2009-07-12T06:39:32Z</time>
      </trkpt>
      <trkpt lat="44.90459" lon="3.79363">
        <ele>1233</ele>
        <time>2009-07-12T06:39:47Z</time>
      </trkpt>
      <trkpt lat="44.90461" lon="3.79367">
        <ele>1233</ele>
        <time>2009-07-12T06:39:48Z</time>
      </trkpt>
      <trkpt lat="44.90477" lon="3.79364">
        <ele>1232</ele>
        <time>2009-07-12T06:39:52Z</time>
      </trkpt>
      <trkpt lat="44.905" lon="3.79354">
        <ele>1230</ele>
        <time>2009-07-12T06:39:57Z</time>
      </trkpt>
      <trkpt lat="44.90526" lon="3.79358">
        <ele>1225</ele>
        <time>2009-07-12T06:40:02Z</time>
      </trkpt>
      <trkpt lat="44.90537" lon="3.79344">
        <ele>1225</ele>
        <time>2009-07-12T06:40:05Z</time>
      </trkpt>
      <trkpt lat="44.90543" lon="3.79327">
        <ele>1224</ele>
        <time>2009-07-12T06:40:07Z</time>
      </trkpt>
      <trkpt lat="44.90554" lon="3.79295">
        <ele>1223</ele>
        <time>2009-07-12T06:40:11Z</time>
      </trkpt>
      <trkpt lat="44.90561" lon="3.79273">
        <ele>1222</ele>
        <time>2009-07-12T06:40:14Z</time>
      </trkpt>
      <trkpt lat="44.90563" lon="3.79266">
        <ele>1221</ele>
        <time>2009-07-12T06:40:15Z</time>
      </trkpt>
      <trkpt lat="44.90572" lon="3.79239">
        <ele>1218</ele>
        <time>2009-07-12T06:40:18Z</time>
      </trkpt>
      <trkpt lat="44.90588" lon="3.79213">
        <ele>1216</ele>
        <time>2009-07-12T06:40:22Z</time>
      </trkpt>
      <trkpt lat="44.9061" lon="3.79219">
        <ele>1213</ele>
        <time>2009-07-12T06:40:26Z</time>
      </trkpt>
      <trkpt lat="44.90616" lon="3.79229">
        <ele>1213</ele>
        <time>2009-07-12T06:40:28Z</time>
      </trkpt>
      <trkpt lat="44.90632" lon="3.79281">
        <ele>1213</ele>
        <time>2009-07-12T06:40:40Z</time>
      </trkpt>
      <trkpt lat="44.90644" lon="3.79325">
        <ele>1211</ele>
        <time>2009-07-12T06:40:49Z</time>
      </trkpt>
      <trkpt lat="44.90663" lon="3.79381">
        <ele>1212</ele>
        <time>2009-07-12T06:41:00Z</time>
      </trkpt>
      <trkpt lat="44.90671" lon="3.79396">
        <ele>1212</ele>
        <time>2009-07-12T06:41:03Z</time>
      </trkpt>
      <trkpt lat="44.9069" lon="3.79431">
        <ele>1212</ele>
        <time>2009-07-12T06:41:10Z</time>
      </trkpt>
      <trkpt lat="44.907" lon="3.79443">
        <ele>1213</ele>
        <time>2009-07-12T06:41:13Z</time>
      </trkpt>
      <trkpt lat="44.90708" lon="3.7945">
        <ele>1212</ele>
        <time>2009-07-12T06:41:15Z</time>
      </trkpt>
      <trkpt lat="44.90741" lon="3.79469">
        <ele>1212</ele>
        <time>2009-07-12T06:41:22Z</time>
      </trkpt>
      <trkpt lat="44.90799" lon="3.79497">
        <ele>1211</ele>
        <time>2009-07-12T06:41:32Z</time>
      </trkpt>
      <trkpt lat="44.90884" lon="3.79522">
        <ele>1212</ele>
        <time>2009-07-12T06:41:45Z</time>
      </trkpt>
      <trkpt lat="44.90913" lon="3.79533">
        <ele>1212</ele>
        <time>2009-07-12T06:41:50Z</time>
      </trkpt>
      <trkpt lat="44.90936" lon="3.79536">
        <ele>1211</ele>
        <time>2009-07-12T06:41:54Z</time>
      </trkpt>
      <trkpt lat="44.90988" lon="3.79526">
        <ele>1210</ele>
        <time>2009-07-12T06:42:03Z</time>
      </trkpt>
      <trkpt lat="44.91001" lon="3.79522">
        <ele>1212</ele>
        <time>2009-07-12T06:42:06Z</time>
      </trkpt>
      <trkpt lat="44.91016" lon="3.79516">
        <ele>1212</ele>
        <time>2009-07-12T06:42:18Z</time>
      </trkpt>
      <trkpt lat="44.91013" lon="3.79508">
        <ele>1212</ele>
        <time>2009-07-12T06:42:41Z</time>
      </trkpt>
      <trkpt lat="44.91023" lon="3.79505">
        <ele>1212</ele>
        <time>2009-07-12T06:42:47Z</time>
      </trkpt>
      <trkpt lat="44.91059" lon="3.79497">
        <ele>1212</ele>
        <time>2009-07-12T06:42:58Z</time>
      </trkpt>
      <trkpt lat="44.91097" lon="3.79477">
        <ele>1212</ele>
        <time>2009-07-12T06:43:08Z</time>
      </trkpt>
      <trkpt lat="44.91114" lon="3.79464">
        <ele>1212</ele>
        <time>2009-07-12T06:43:12Z</time>
      </trkpt>
      <trkpt lat="44.91135" lon="3.79445">
        <ele>1211</ele>
        <time>2009-07-12T06:43:17Z</time>
      </trkpt>
      <trkpt lat="44.91146" lon="3.79436">
        <ele>1212</ele>
        <time>2009-07-12T06:43:20Z</time>
      </trkpt>
      <trkpt lat="44.91171" lon="3.79401">
        <ele>1211</ele>
        <time>2009-07-12T06:43:28Z</time>
      </trkpt>
      <trkpt lat="44.91197" lon="3.79339">
        <ele>1213</ele>
        <time>2009-07-12T06:43:42Z</time>
      </trkpt>
      <trkpt lat="44.91208" lon="3.79315">
        <ele>1214</ele>
        <time>2009-07-12T06:43:53Z</time>
      </trkpt>
      <trkpt lat="44.91203" lon="3.79271">
        <ele>1212</ele>
        <time>2009-07-12T06:44:04Z</time>
      </trkpt>
      <trkpt lat="44.91199" lon="3.79262">
        <ele>1213</ele>
        <time>2009-07-12T06:44:15Z</time>
      </trkpt>
      <trkpt lat="44.91197" lon="3.79261">
        <ele>1212</ele>
        <time>2009-07-12T06:44:41Z</time>
      </trkpt>
      <trkpt lat="44.91198" lon="3.79264">
        <ele>1212</ele>
        <time>2009-07-12T06:44:50Z</time>
      </trkpt>
      <trkpt lat="44.91205" lon="3.79298">
        <ele>1214</ele>
        <time>2009-07-12T06:45:02Z</time>
      </trkpt>
      <trkpt lat="44.91201" lon="3.79325">
        <ele>1214</ele>
        <time>2009-07-12T06:45:10Z</time>
      </trkpt>
      <trkpt lat="44.91205" lon="3.79325">
        <ele>1213</ele>
        <time>2009-07-12T06:45:14Z</time>
      </trkpt>
      <trkpt lat="44.91213" lon="3.79312">
        <ele>1217</ele>
        <time>2009-07-12T06:45:20Z</time>
      </trkpt>
      <trkpt lat="44.91214" lon="3.7931">
        <ele>1217</ele>
        <time>2009-07-12T06:45:21Z</time>
      </trkpt>
      <trkpt lat="44.91223" lon="3.79268">
        <ele>1218</ele>
        <time>2009-07-12T06:45:35Z</time>
      </trkpt>
      <trkpt lat="44.91237" lon="3.79218">
        <ele>1220</ele>
        <time>2009-07-12T06:45:51Z</time>
      </trkpt>
      <trkpt lat="44.91257" lon="3.79169">
        <ele>1223</ele>
        <time>2009-07-12T06:46:07Z</time>
      </trkpt>
      <trkpt lat="44.91273" lon="3.79127">
        <ele>1224</ele>
        <time>2009-07-12T06:46:21Z</time>
      </trkpt>
      <trkpt lat="44.91291" lon="3.7908">
        <ele>1227</ele>
        <time>2009-07-12T06:46:38Z</time>
      </trkpt>
      <trkpt lat="44.91302" lon="3.79052">
        <ele>1230</ele>
        <time>2009-07-12T06:46:49Z</time>
      </trkpt>
      <trkpt lat="44.91316" lon="3.79028">
        <ele>1233</ele>
        <time>2009-07-12T06:47:02Z</time>
      </trkpt>
      <trkpt lat="44.91332" lon="3.7901">
        <ele>1236</ele>
        <time>2009-07-12T06:47:15Z</time>
      </trkpt>
      <trkpt lat="44.91348" lon="3.78995">
        <ele>1239</ele>
        <time>2009-07-12T06:47:28Z</time>
      </trkpt>
      <trkpt lat="44.91371" lon="3.7898">
        <ele>1240</ele>
        <time>2009-07-12T06:47:44Z</time>
      </trkpt>
      <trkpt lat="44.91372" lon="3.78977">
        <ele>1240</ele>
        <time>2009-07-12T06:47:46Z</time>
      </trkpt>
      <trkpt lat="44.91373" lon="3.78969">
        <ele>1241</ele>
        <time>2009-07-12T06:47:50Z</time>
      </trkpt>
      <trkpt lat="44.91376" lon="3.78958">
        <ele>1241</ele>
        <time>2009-07-12T06:47:57Z</time>
      </trkpt>
      <trkpt lat="44.91392" lon="3.7896">
        <ele>1241</ele>
        <time>2009-07-12T06:48:09Z</time>
      </trkpt>
      <trkpt lat="44.91398" lon="3.78954">
        <ele>1241</ele>
        <time>2009-07-12T06:48:16Z</time>
      </trkpt>
      <trkpt lat="44.91405" lon="3.78932">
        <ele>1241</ele>
        <time>2009-07-12T06:48:29Z</time>
      </trkpt>
      <trkpt lat="44.91418" lon="3.78911">
        <ele>1240</ele>
        <time>2009-07-12T06:48:57Z</time>
      </trkpt>
      <trkpt lat="44.91437" lon="3.78856">
        <ele>1238</ele>
        <time>2009-07-12T06:49:09Z</time>
      </trkpt>
      <trkpt lat="44.91451" lon="3.78795">
        <ele>1237</ele>
        <time>2009-07-12T06:49:21Z</time>
      </trkpt>
      <trkpt lat="44.91468" lon="3.78721">
        <ele>1237</ele>
        <time>2009-07-12T06:49:35Z</time>
      </trkpt>
      <trkpt lat="44.91485" lon="3.78677">
        <ele>1237</ele>
        <time>2009-07-12T06:49:44Z</time>
      </trkpt>
      <trkpt lat="44.91515" lon="3.78598">
        <ele>1235</ele>
        <time>2009-07-12T06:50:00Z</time>
      </trkpt>
      <trkpt lat="44.91532" lon="3.78559">
        <ele>1235</ele>
        <time>2009-07-12T06:50:08Z</time>
      </trkpt>
      <trkpt lat="44.91554" lon="3.7848">
        <ele>1233</ele>
        <time>2009-07-12T06:50:22Z</time>
      </trkpt>
      <trkpt lat="44.91565" lon="3.7844">
        <ele>1233</ele>
        <time>2009-07-12T06:50:30Z</time>
      </trkpt>
      <trkpt lat="44.91579" lon="3.78378">
        <ele>1234</ele>
        <time>2009-07-12T06:50:42Z</time>
      </trkpt>
      <trkpt lat="44.91593" lon="3.78337">
        <ele>1235</ele>
        <time>2009-07-12T06:50:51Z</time>
      </trkpt>
      <trkpt lat="44.91605" lon="3.7828">
        <ele>1238</ele>
        <time>2009-07-12T06:51:04Z</time>
      </trkpt>
      <trkpt lat="44.91619" lon="3.78225">
        <ele>1239</ele>
        <time>2009-07-12T06:51:17Z</time>
      </trkpt>
      <trkpt lat="44.91635" lon="3.78169">
        <ele>1241</ele>
        <time>2009-07-12T06:51:31Z</time>
      </trkpt>
      <trkpt lat="44.91651" lon="3.78109">
        <ele>1240</ele>
        <time>2009-07-12T06:51:45Z</time>
      </trkpt>
      <trkpt lat="44.91654" lon="3.78094">
        <ele>1241</ele>
        <time>2009-07-12T06:51:48Z</time>
      </trkpt>
      <trkpt lat="44.9166" lon="3.78052">
        <ele>1240</ele>
        <time>2009-07-12T06:51:55Z</time>
      </trkpt>
      <trkpt lat="44.91664" lon="3.77981">
        <ele>1240</ele>
        <time>2009-07-12T06:52:08Z</time>
      </trkpt>
      <trkpt lat="44.91663" lon="3.77906">
        <ele>1241</ele>
        <time>2009-07-12T06:52:21Z</time>
      </trkpt>
      <trkpt lat="44.91665" lon="3.77846">
        <ele>1241</ele>
        <time>2009-07-12T06:52:32Z</time>
      </trkpt>
      <trkpt lat="44.91667" lon="3.77775">
        <ele>1240</ele>
        <time>2009-07-12T06:52:44Z</time>
      </trkpt>
      <trkpt lat="44.91672" lon="3.77696">
        <ele>1239</ele>
        <time>2009-07-12T06:52:59Z</time>
      </trkpt>
      <trkpt lat="44.91675" lon="3.77671">
        <ele>1239</ele>
        <time>2009-07-12T06:53:04Z</time>
      </trkpt>
      <trkpt lat="44.91698" lon="3.77615">
        <ele>1237</ele>
        <time>2009-07-12T06:53:15Z</time>
      </trkpt>
      <trkpt lat="44.91703" lon="3.77572">
        <ele>1238</ele>
        <time>2009-07-12T06:53:23Z</time>
      </trkpt>
      <trkpt lat="44.91712" lon="3.77544">
        <ele>1238</ele>
        <time>2009-07-12T06:53:28Z</time>
      </trkpt>
      <trkpt lat="44.9172" lon="3.7752">
        <ele>1238</ele>
        <time>2009-07-12T06:53:33Z</time>
      </trkpt>
      <trkpt lat="44.91738" lon="3.77474">
        <ele>1238</ele>
        <time>2009-07-12T06:53:44Z</time>
      </trkpt>
      <trkpt lat="44.9175" lon="3.77418">
        <ele>1240</ele>
        <time>2009-07-12T06:53:57Z</time>
      </trkpt>
      <trkpt lat="44.91773" lon="3.77385">
        <ele>1241</ele>
        <time>2009-07-12T06:54:08Z</time>
      </trkpt>
      <trkpt lat="44.918" lon="3.77356">
        <ele>1243</ele>
        <time>2009-07-12T06:54:20Z</time>
      </trkpt>
      <trkpt lat="44.91805" lon="3.77321">
        <ele>1244</ele>
        <time>2009-07-12T06:54:30Z</time>
      </trkpt>
      <trkpt lat="44.91805" lon="3.77316">
        <ele>1244</ele>
        <time>2009-07-12T06:54:32Z</time>
      </trkpt>
      <trkpt lat="44.91807" lon="3.77309">
        <ele>1245</ele>
        <time>2009-07-12T06:54:36Z</time>
      </trkpt>
      <trkpt lat="44.91806" lon="3.77303">
        <ele>1245</ele>
        <time>2009-07-12T06:54:50Z</time>
      </trkpt>
      <trkpt lat="44.91806" lon="3.77303">
        <ele>1245</ele>
        <time>2009-07-12T06:55:45Z</time>
      </trkpt>
      <trkpt lat="44.91805" lon="3.77303">
        <ele>1243</ele>
        <time>2009-07-12T06:56:27Z</time>
      </trkpt>
      <trkpt lat="44.91799" lon="3.77287">
        <ele>1243</ele>
        <time>2009-07-12T06:56:34Z</time>
      </trkpt>
      <trkpt lat="44.91799" lon="3.7723">
        <ele>1246</ele>
        <time>2009-07-12T06:56:50Z</time>
      </trkpt>
      <trkpt lat="44.91798" lon="3.77179">
        <ele>1249</ele>
        <time>2009-07-12T06:57:06Z</time>
      </trkpt>
      <trkpt lat="44.918" lon="3.77147">
        <ele>1252</ele>
        <time>2009-07-12T06:57:17Z</time>
      </trkpt>
      <trkpt lat="44.91799" lon="3.77104">
        <ele>1254</ele>
        <time>2009-07-12T06:57:33Z</time>
      </trkpt>
      <trkpt lat="44.91802" lon="3.77065">
        <ele>1258</ele>
        <time>2009-07-12T06:57:48Z</time>
      </trkpt>
      <trkpt lat="44.91802" lon="3.77057">
        <ele>1259</ele>
        <time>2009-07-12T06:57:51Z</time>
      </trkpt>
      <trkpt lat="44.91803" lon="3.77042">
        <ele>1261</ele>
        <time>2009-07-12T06:57:57Z</time>
      </trkpt>
      <trkpt lat="44.91809" lon="3.77001">
        <ele>1261</ele>
        <time>2009-07-12T06:58:13Z</time>
      </trkpt>
      <trkpt lat="44.91813" lon="3.76955">
        <ele>1263</ele>
        <time>2009-07-12T06:58:31Z</time>
      </trkpt>
      <trkpt lat="44.91812" lon="3.76953">
        <ele>1264</ele>
        <time>2009-07-12T06:58:32Z</time>
      </trkpt>
      <trkpt lat="44.91799" lon="3.76932">
        <ele>1267</ele>
        <time>2009-07-12T06:58:46Z</time>
      </trkpt>
      <trkpt lat="44.918" lon="3.7693">
        <ele>1267</ele>
        <time>2009-07-12T06:58:47Z</time>
      </trkpt>
      <trkpt lat="44.91803" lon="3.7691">
        <ele>1267</ele>
        <time>2009-07-12T06:58:56Z</time>
      </trkpt>
      <trkpt lat="44.91797" lon="3.76886">
        <ele>1267</ele>
        <time>2009-07-12T06:59:11Z</time>
      </trkpt>
      <trkpt lat="44.91793" lon="3.76876">
        <ele>1267</ele>
        <time>2009-07-12T06:59:16Z</time>
      </trkpt>
      <trkpt lat="44.91781" lon="3.7684">
        <ele>1269</ele>
        <time>2009-07-12T06:59:33Z</time>
      </trkpt>
      <trkpt lat="44.91777" lon="3.76827">
        <ele>1269</ele>
        <time>2009-07-12T06:59:50Z</time>
      </trkpt>
      <trkpt lat="44.9177" lon="3.76803">
        <ele>1266</ele>
        <time>2009-07-12T07:00:11Z</time>
      </trkpt>
      <trkpt lat="44.91762" lon="3.76738">
        <ele>1266</ele>
        <time>2009-07-12T07:00:26Z</time>
      </trkpt>
      <trkpt lat="44.91759" lon="3.76708">
        <ele>1264</ele>
        <time>2009-07-12T07:00:31Z</time>
      </trkpt>
      <trkpt lat="44.9176" lon="3.76693">
        <ele>1263</ele>
        <time>2009-07-12T07:00:33Z</time>
      </trkpt>
      <trkpt lat="44.91759" lon="3.76676">
        <ele>1261</ele>
        <time>2009-07-12T07:00:35Z</time>
      </trkpt>
      <trkpt lat="44.91757" lon="3.76631">
        <ele>1258</ele>
        <time>2009-07-12T07:00:40Z</time>
      </trkpt>
      <trkpt lat="44.91756" lon="3.76612">
        <ele>1257</ele>
        <time>2009-07-12T07:00:42Z</time>
      </trkpt>
      <trkpt lat="44.91756" lon="3.76541">
        <ele>1256</ele>
        <time>2009-07-12T07:00:49Z</time>
      </trkpt>
      <trkpt lat="44.91767" lon="3.76499">
        <ele>1256</ele>
        <time>2009-07-12T07:00:55Z</time>
      </trkpt>
      <trkpt lat="44.91775" lon="3.76494">
        <ele>1256</ele>
        <time>2009-07-12T07:01:07Z</time>
      </trkpt>
      <trkpt lat="44.91775" lon="3.76497">
        <ele>1257</ele>
        <time>2009-07-12T07:01:40Z</time>
      </trkpt>
      <trkpt lat="44.91777" lon="3.76498">
        <ele>1258</ele>
        <time>2009-07-12T07:03:01Z</time>
      </trkpt>
      <trkpt lat="44.91777" lon="3.76498">
        <ele>1258</ele>
        <time>2009-07-12T07:03:07Z</time>
      </trkpt>
      <trkpt lat="44.91806" lon="3.76497">
        <ele>1258</ele>
        <time>2009-07-12T07:03:19Z</time>
      </trkpt>
      <trkpt lat="44.91878" lon="3.76473">
        <ele>1260</ele>
        <time>2009-07-12T07:03:41Z</time>
      </trkpt>
      <trkpt lat="44.91933" lon="3.76448">
        <ele>1262</ele>
        <time>2009-07-12T07:03:58Z</time>
      </trkpt>
      <trkpt lat="44.91963" lon="3.76437">
        <ele>1262</ele>
        <time>2009-07-12T07:04:10Z</time>
      </trkpt>
      <trkpt lat="44.92015" lon="3.76417">
        <ele>1263</ele>
        <time>2009-07-12T07:04:28Z</time>
      </trkpt>
      <trkpt lat="44.92048" lon="3.76406">
        <ele>1266</ele>
        <time>2009-07-12T07:04:39Z</time>
      </trkpt>
      <trkpt lat="44.92087" lon="3.76394">
        <ele>1268</ele>
        <time>2009-07-12T07:04:52Z</time>
      </trkpt>
      <trkpt lat="44.9215" lon="3.76379">
        <ele>1269</ele>
        <time>2009-07-12T07:05:13Z</time>
      </trkpt>
      <trkpt lat="44.92192" lon="3.76367">
        <ele>1270</ele>
        <time>2009-07-12T07:05:27Z</time>
      </trkpt>
      <trkpt lat="44.9225" lon="3.76347">
        <ele>1273</ele>
        <time>2009-07-12T07:05:47Z</time>
      </trkpt>
      <trkpt lat="44.92272" lon="3.7634">
        <ele>1274</ele>
        <time>2009-07-12T07:05:58Z</time>
      </trkpt>
      <trkpt lat="44.92331" lon="3.76322">
        <ele>1277</ele>
        <time>2009-07-12T07:06:20Z</time>
      </trkpt>
      <trkpt lat="44.92354" lon="3.76316">
        <ele>1281</ele>
        <time>2009-07-12T07:06:29Z</time>
      </trkpt>
      <trkpt lat="44.92357" lon="3.76315">
        <ele>1280</ele>
        <time>2009-07-12T07:06:30Z</time>
      </trkpt>
      <trkpt lat="44.92399" lon="3.763">
        <ele>1284</ele>
        <time>2009-07-12T07:06:47Z</time>
      </trkpt>
      <trkpt lat="44.9244" lon="3.76282">
        <ele>1287</ele>
        <time>2009-07-12T07:07:04Z</time>
      </trkpt>
      <trkpt lat="44.92476" lon="3.76269">
        <ele>1290</ele>
        <time>2009-07-12T07:07:19Z</time>
      </trkpt>
      <trkpt lat="44.92527" lon="3.76243">
        <ele>1292</ele>
        <time>2009-07-12T07:07:40Z</time>
      </trkpt>
      <trkpt lat="44.92574" lon="3.76216">
        <ele>1295</ele>
        <time>2009-07-12T07:07:58Z</time>
      </trkpt>
      <trkpt lat="44.92634" lon="3.76181">
        <ele>1297</ele>
        <time>2009-07-12T07:08:20Z</time>
      </trkpt>
      <trkpt lat="44.92691" lon="3.7616">
        <ele>1298</ele>
        <time>2009-07-12T07:08:40Z</time>
      </trkpt>
      <trkpt lat="44.9276" lon="3.76135">
        <ele>1300</ele>
        <time>2009-07-12T07:09:04Z</time>
      </trkpt>
      <trkpt lat="44.92828" lon="3.76113">
        <ele>1301</ele>
        <time>2009-07-12T07:09:25Z</time>
      </trkpt>
      <trkpt lat="44.92876" lon="3.76096">
        <ele>1300</ele>
        <time>2009-07-12T07:09:40Z</time>
      </trkpt>
      <trkpt lat="44.92916" lon="3.76082">
        <ele>1300</ele>
        <time>2009-07-12T07:09:53Z</time>
      </trkpt>
      <trkpt lat="44.92977" lon="3.76061">
        <ele>1299</ele>
        <time>2009-07-12T07:10:11Z</time>
      </trkpt>
      <trkpt lat="44.93039" lon="3.7604">
        <ele>1299</ele>
        <time>2009-07-12T07:10:27Z</time>
      </trkpt>
      <trkpt lat="44.93123" lon="3.76011">
        <ele>1299</ele>
        <time>2009-07-12T07:10:46Z</time>
      </trkpt>
      <trkpt lat="44.93168" lon="3.75995">
        <ele>1298</ele>
        <time>2009-07-12T07:10:56Z</time>
      </trkpt>
      <trkpt lat="44.93231" lon="3.75974">
        <ele>1297</ele>
        <time>2009-07-12T07:11:10Z</time>
      </trkpt>
      <trkpt lat="44.93315" lon="3.75946">
        <ele>1294</ele>
        <time>2009-07-12T07:11:27Z</time>
      </trkpt>
      <trkpt lat="44.93374" lon="3.75929">
        <ele>1293</ele>
        <time>2009-07-12T07:11:42Z</time>
      </trkpt>
      <trkpt lat="44.9341" lon="3.75918">
        <ele>1293</ele>
        <time>2009-07-12T07:11:54Z</time>
      </trkpt>
      <trkpt lat="44.93459" lon="3.759">
        <ele>1294</ele>
        <time>2009-07-12T07:12:09Z</time>
      </trkpt>
      <trkpt lat="44.93474" lon="3.75895">
        <ele>1294</ele>
        <time>2009-07-12T07:12:13Z</time>
      </trkpt>
      <trkpt lat="44.93536" lon="3.75871">
        <ele>1295</ele>
        <time>2009-07-12T07:12:30Z</time>
      </trkpt>
      <trkpt lat="44.93607" lon="3.75846">
        <ele>1295</ele>
        <time>2009-07-12T07:12:49Z</time>
      </trkpt>
      <trkpt lat="44.93682" lon="3.75822">
        <ele>1295</ele>
        <time>2009-07-12T07:13:07Z</time>
      </trkpt>
      <trkpt lat="44.93759" lon="3.75794">
        <ele>1296</ele>
        <time>2009-07-12T07:13:25Z</time>
      </trkpt>
      <trkpt lat="44.93805" lon="3.75775">
        <ele>1296</ele>
        <time>2009-07-12T07:13:36Z</time>
      </trkpt>
      <trkpt lat="44.93823" lon="3.7577">
        <ele>1295</ele>
        <time>2009-07-12T07:13:40Z</time>
      </trkpt>
      <trkpt lat="44.93842" lon="3.75762">
        <ele>1294</ele>
        <time>2009-07-12T07:13:44Z</time>
      </trkpt>
      <trkpt lat="44.93901" lon="3.75747">
        <ele>1290</ele>
        <time>2009-07-12T07:13:55Z</time>
      </trkpt>
      <trkpt lat="44.93928" lon="3.75741">
        <ele>1290</ele>
        <time>2009-07-12T07:14:00Z</time>
      </trkpt>
      <trkpt lat="44.93938" lon="3.75737">
        <ele>1289</ele>
        <time>2009-07-12T07:14:02Z</time>
      </trkpt>
      <trkpt lat="44.94023" lon="3.75705">
        <ele>1286</ele>
        <time>2009-07-12T07:14:17Z</time>
      </trkpt>
      <trkpt lat="44.94133" lon="3.75671">
        <ele>1284</ele>
        <time>2009-07-12T07:14:35Z</time>
      </trkpt>
      <trkpt lat="44.94139" lon="3.75669">
        <ele>1283</ele>
        <time>2009-07-12T07:14:36Z</time>
      </trkpt>
      <trkpt lat="44.94183" lon="3.75652">
        <ele>1283</ele>
        <time>2009-07-12T07:14:43Z</time>
      </trkpt>
      <trkpt lat="44.94281" lon="3.75622">
        <ele>1282</ele>
        <time>2009-07-12T07:14:59Z</time>
      </trkpt>
      <trkpt lat="44.94387" lon="3.75584">
        <ele>1282</ele>
        <time>2009-07-12T07:15:18Z</time>
      </trkpt>
      <trkpt lat="44.94471" lon="3.75555">
        <ele>1279</ele>
        <time>2009-07-12T07:15:33Z</time>
      </trkpt>
      <trkpt lat="44.94477" lon="3.75553">
        <ele>1279</ele>
        <time>2009-07-12T07:15:34Z</time>
      </trkpt>
      <trkpt lat="44.94552" lon="3.75529">
        <ele>1277</ele>
        <time>2009-07-12T07:15:47Z</time>
      </trkpt>
      <trkpt lat="44.9461" lon="3.7551">
        <ele>1275</ele>
        <time>2009-07-12T07:15:57Z</time>
      </trkpt>
      <trkpt lat="44.94679" lon="3.75485">
        <ele>1273</ele>
        <time>2009-07-12T07:16:08Z</time>
      </trkpt>
      <trkpt lat="44.94776" lon="3.75451">
        <ele>1272</ele>
        <time>2009-07-12T07:16:24Z</time>
      </trkpt>
      <trkpt lat="44.94796" lon="3.75443">
        <ele>1270</ele>
        <time>2009-07-12T07:16:27Z</time>
      </trkpt>
      <trkpt lat="44.94951" lon="3.75395">
        <ele>1267</ele>
        <time>2009-07-12T07:16:51Z</time>
      </trkpt>
      <trkpt lat="44.94982" lon="3.75383">
        <ele>1267</ele>
        <time>2009-07-12T07:16:56Z</time>
      </trkpt>
      <trkpt lat="44.95059" lon="3.75355">
        <ele>1269</ele>
        <time>2009-07-12T07:17:10Z</time>
      </trkpt>
      <trkpt lat="44.95101" lon="3.7534">
        <ele>1270</ele>
        <time>2009-07-12T07:17:19Z</time>
      </trkpt>
      <trkpt lat="44.95109" lon="3.75337">
        <ele>1269</ele>
        <time>2009-07-12T07:17:21Z</time>
      </trkpt>
      <trkpt lat="44.95127" lon="3.75332">
        <ele>1270</ele>
        <time>2009-07-12T07:17:25Z</time>
      </trkpt>
      <trkpt lat="44.95191" lon="3.75311">
        <ele>1270</ele>
        <time>2009-07-12T07:17:41Z</time>
      </trkpt>
      <trkpt lat="44.95262" lon="3.75286">
        <ele>1270</ele>
        <time>2009-07-12T07:17:58Z</time>
      </trkpt>
      <trkpt lat="44.95364" lon="3.75251">
        <ele>1271</ele>
        <time>2009-07-12T07:18:18Z</time>
      </trkpt>
      <trkpt lat="44.95437" lon="3.75227">
        <ele>1273</ele>
        <time>2009-07-12T07:18:33Z</time>
      </trkpt>
      <trkpt lat="44.95461" lon="3.75216">
        <ele>1273</ele>
        <time>2009-07-12T07:18:38Z</time>
      </trkpt>
      <trkpt lat="44.95482" lon="3.75211">
        <ele>1273</ele>
        <time>2009-07-12T07:18:42Z</time>
      </trkpt>
      <trkpt lat="44.95571" lon="3.75175">
        <ele>1274</ele>
        <time>2009-07-12T07:19:00Z</time>
      </trkpt>
      <trkpt lat="44.95597" lon="3.75164">
        <ele>1274</ele>
        <time>2009-07-12T07:19:05Z</time>
      </trkpt>
      <trkpt lat="44.95611" lon="3.75156">
        <ele>1274</ele>
        <time>2009-07-12T07:19:08Z</time>
      </trkpt>
      <trkpt lat="44.95678" lon="3.75138">
        <ele>1275</ele>
        <time>2009-07-12T07:19:24Z</time>
      </trkpt>
      <trkpt lat="44.95719" lon="3.75129">
        <ele>1275</ele>
        <time>2009-07-12T07:19:35Z</time>
      </trkpt>
      <trkpt lat="44.95731" lon="3.75128">
        <ele>1274</ele>
        <time>2009-07-12T07:19:38Z</time>
      </trkpt>
      <trkpt lat="44.95772" lon="3.75119">
        <ele>1275</ele>
        <time>2009-07-12T07:19:47Z</time>
      </trkpt>
      <trkpt lat="44.95781" lon="3.75118">
        <ele>1274</ele>
        <time>2009-07-12T07:19:49Z</time>
      </trkpt>
      <trkpt lat="44.95805" lon="3.75115">
        <ele>1275</ele>
        <time>2009-07-12T07:19:54Z</time>
      </trkpt>
      <trkpt lat="44.95859" lon="3.75104">
        <ele>1275</ele>
        <time>2009-07-12T07:20:06Z</time>
      </trkpt>
      <trkpt lat="44.95904" lon="3.7508">
        <ele>1274</ele>
        <time>2009-07-12T07:20:16Z</time>
      </trkpt>
      <trkpt lat="44.95952" lon="3.75047">
        <ele>1273</ele>
        <time>2009-07-12T07:20:26Z</time>
      </trkpt>
      <trkpt lat="44.95973" lon="3.75036">
        <ele>1273</ele>
        <time>2009-07-12T07:20:30Z</time>
      </trkpt>
      <trkpt lat="44.95992" lon="3.75024">
        <ele>1270</ele>
        <time>2009-07-12T07:20:34Z</time>
      </trkpt>
      <trkpt lat="44.96028" lon="3.74995">
        <ele>1269</ele>
        <time>2009-07-12T07:20:43Z</time>
      </trkpt>
      <trkpt lat="44.96031" lon="3.74985">
        <ele>1269</ele>
        <time>2009-07-12T07:20:52Z</time>
      </trkpt>
      <trkpt lat="44.96034" lon="3.74979">
        <ele>1269</ele>
        <time>2009-07-12T07:21:04Z</time>
      </trkpt>
      <trkpt lat="44.96039" lon="3.74973">
        <ele>1269</ele>
        <time>2009-07-12T07:21:14Z</time>
      </trkpt>
      <trkpt lat="44.96036" lon="3.74968">
        <ele>1268</ele>
        <time>2009-07-12T07:21:38Z</time>
      </trkpt>
      <trkpt lat="44.96034" lon="3.74966">
        <ele>1269</ele>
        <time>2009-07-12T07:21:50Z</time>
      </trkpt>
      <trkpt lat="44.96036" lon="3.74973">
        <ele>1270</ele>
        <time>2009-07-12T07:22:22Z</time>
      </trkpt>
      <trkpt lat="44.96036" lon="3.74974">
        <ele>1270</ele>
        <time>2009-07-12T07:22:56Z</time>
      </trkpt>
      <trkpt lat="44.96047" lon="3.74969">
        <ele>1271</ele>
        <time>2009-07-12T07:24:47Z</time>
      </trkpt>
      <trkpt lat="44.96081" lon="3.7494">
        <ele>1270</ele>
        <time>2009-07-12T07:24:59Z</time>
      </trkpt>
      <trkpt lat="44.96095" lon="3.74934">
        <ele>1270</ele>
        <time>2009-07-12T07:25:08Z</time>
      </trkpt>
      <trkpt lat="44.96116" lon="3.74918">
        <ele>1270</ele>
        <time>2009-07-12T07:25:18Z</time>
      </trkpt>
      <trkpt lat="44.9614" lon="3.74898">
        <ele>1268</ele>
        <time>2009-07-12T07:25:25Z</time>
      </trkpt>
      <trkpt lat="44.96165" lon="3.74872">
        <ele>1266</ele>
        <time>2009-07-12T07:25:32Z</time>
      </trkpt>
      <trkpt lat="44.96213" lon="3.74828">
        <ele>1263</ele>
        <time>2009-07-12T07:25:44Z</time>
      </trkpt>
      <trkpt lat="44.96217" lon="3.74824">
        <ele>1263</ele>
        <time>2009-07-12T07:25:45Z</time>
      </trkpt>
      <trkpt lat="44.96261" lon="3.74782">
        <ele>1259</ele>
        <time>2009-07-12T07:25:55Z</time>
      </trkpt>
      <trkpt lat="44.9631" lon="3.74732">
        <ele>1255</ele>
        <time>2009-07-12T07:26:04Z</time>
      </trkpt>
      <trkpt lat="44.96325" lon="3.74716">
        <ele>1255</ele>
        <time>2009-07-12T07:26:07Z</time>
      </trkpt>
      <trkpt lat="44.96342" lon="3.74697">
        <ele>1253</ele>
        <time>2009-07-12T07:26:10Z</time>
      </trkpt>
      <trkpt lat="44.96359" lon="3.74677">
        <ele>1251</ele>
        <time>2009-07-12T07:26:13Z</time>
      </trkpt>
      <trkpt lat="44.96377" lon="3.74657">
        <ele>1248</ele>
        <time>2009-07-12T07:26:16Z</time>
      </trkpt>
      <trkpt lat="44.96407" lon="3.74619">
        <ele>1243</ele>
        <time>2009-07-12T07:26:21Z</time>
      </trkpt>
      <trkpt lat="44.96413" lon="3.74612">
        <ele>1243</ele>
        <time>2009-07-12T07:26:22Z</time>
      </trkpt>
      <trkpt lat="44.96449" lon="3.74586">
        <ele>1242</ele>
        <time>2009-07-12T07:26:27Z</time>
      </trkpt>
      <trkpt lat="44.9648" lon="3.74551">
        <ele>1238</ele>
        <time>2009-07-12T07:26:31Z</time>
      </trkpt>
      <trkpt lat="44.96505" lon="3.74523">
        <ele>1235</ele>
        <time>2009-07-12T07:26:35Z</time>
      </trkpt>
      <trkpt lat="44.96532" lon="3.74499">
        <ele>1232</ele>
        <time>2009-07-12T07:26:39Z</time>
      </trkpt>
      <trkpt lat="44.96548" lon="3.74487">
        <ele>1230</ele>
        <time>2009-07-12T07:26:41Z</time>
      </trkpt>
      <trkpt lat="44.96564" lon="3.74473">
        <ele>1229</ele>
        <time>2009-07-12T07:26:43Z</time>
      </trkpt>
      <trkpt lat="44.96597" lon="3.74456">
        <ele>1226</ele>
        <time>2009-07-12T07:26:47Z</time>
      </trkpt>
      <trkpt lat="44.96614" lon="3.74447">
        <ele>1225</ele>
        <time>2009-07-12T07:26:49Z</time>
      </trkpt>
      <trkpt lat="44.96656" lon="3.74415">
        <ele>1221</ele>
        <time>2009-07-12T07:26:54Z</time>
      </trkpt>
      <trkpt lat="44.9669" lon="3.74388">
        <ele>1218</ele>
        <time>2009-07-12T07:26:58Z</time>
      </trkpt>
      <trkpt lat="44.96716" lon="3.74367">
        <ele>1217</ele>
        <time>2009-07-12T07:27:01Z</time>
      </trkpt>
      <trkpt lat="44.96766" lon="3.74323">
        <ele>1214</ele>
        <time>2009-07-12T07:27:07Z</time>
      </trkpt>
      <trkpt lat="44.96774" lon="3.74316">
        <ele>1213</ele>
        <time>2009-07-12T07:27:08Z</time>
      </trkpt>
      <trkpt lat="44.96844" lon="3.74256">
        <ele>1212</ele>
        <time>2009-07-12T07:27:17Z</time>
      </trkpt>
      <trkpt lat="44.96925" lon="3.74205">
        <ele>1210</ele>
        <time>2009-07-12T07:27:27Z</time>
      </trkpt>
      <trkpt lat="44.96997" lon="3.74156">
        <ele>1209</ele>
        <time>2009-07-12T07:27:37Z</time>
      </trkpt>
      <trkpt lat="44.97014" lon="3.74138">
        <ele>1209</ele>
        <time>2009-07-12T07:27:40Z</time>
      </trkpt>
      <trkpt lat="44.97095" lon="3.741">
        <ele>1208</ele>
        <time>2009-07-12T07:27:53Z</time>
      </trkpt>
      <trkpt lat="44.97157" lon="3.74075">
        <ele>1204</ele>
        <time>2009-07-12T07:28:02Z</time>
      </trkpt>
      <trkpt lat="44.97229" lon="3.74053">
        <ele>1200</ele>
        <time>2009-07-12T07:28:11Z</time>
      </trkpt>
      <trkpt lat="44.97254" lon="3.7405">
        <ele>1196</ele>
        <time>2009-07-12T07:28:14Z</time>
      </trkpt>
      <trkpt lat="44.97292" lon="3.74054">
        <ele>1193</ele>
        <time>2009-07-12T07:28:18Z</time>
      </trkpt>
      <trkpt lat="44.97323" lon="3.7406">
        <ele>1190</ele>
        <time>2009-07-12T07:28:21Z</time>
      </trkpt>
      <trkpt lat="44.97365" lon="3.74064">
        <ele>1185</ele>
        <time>2009-07-12T07:28:25Z</time>
      </trkpt>
      <trkpt lat="44.97397" lon="3.74063">
        <ele>1183</ele>
        <time>2009-07-12T07:28:28Z</time>
      </trkpt>
      <trkpt lat="44.97441" lon="3.74059">
        <ele>1179</ele>
        <time>2009-07-12T07:28:32Z</time>
      </trkpt>
      <trkpt lat="44.9751" lon="3.74057">
        <ele>1175</ele>
        <time>2009-07-12T07:28:38Z</time>
      </trkpt>
      <trkpt lat="44.97521" lon="3.74057">
        <ele>1175</ele>
        <time>2009-07-12T07:28:39Z</time>
      </trkpt>
      <trkpt lat="44.97539" lon="3.74056">
        <ele>1177</ele>
        <time>2009-07-12T07:28:41Z</time>
      </trkpt>
      <trkpt lat="44.9755" lon="3.74056">
        <ele>1178</ele>
        <time>2009-07-12T07:28:47Z</time>
      </trkpt>
      <trkpt lat="44.97547" lon="3.74057">
        <ele>1177</ele>
        <time>2009-07-12T07:29:13Z</time>
      </trkpt>
      <trkpt lat="44.97545" lon="3.74057">
        <ele>1178</ele>
        <time>2009-07-12T07:29:23Z</time>
      </trkpt>
      <trkpt lat="44.9754" lon="3.74057">
        <ele>1178</ele>
        <time>2009-07-12T07:29:27Z</time>
      </trkpt>
      <trkpt lat="44.9753" lon="3.74058">
        <ele>1177</ele>
        <time>2009-07-12T07:29:46Z</time>
      </trkpt>
      <trkpt lat="44.9753" lon="3.74057">
        <ele>1178</ele>
        <time>2009-07-12T07:29:54Z</time>
      </trkpt>
      <trkpt lat="44.9753" lon="3.74057">
        <ele>1177</ele>
        <time>2009-07-12T07:30:03Z</time>
      </trkpt>
      <trkpt lat="44.97514" lon="3.74058">
        <ele>1178</ele>
        <time>2009-07-12T07:30:16Z</time>
      </trkpt>
      <trkpt lat="44.97493" lon="3.74058">
        <ele>1179</ele>
        <time>2009-07-12T07:30:25Z</time>
      </trkpt>
      <trkpt lat="44.97445" lon="3.74061">
        <ele>1182</ele>
        <time>2009-07-12T07:30:42Z</time>
      </trkpt>
      <trkpt lat="44.97426" lon="3.74061">
        <ele>1184</ele>
        <time>2009-07-12T07:30:49Z</time>
      </trkpt>
      <trkpt lat="44.97396" lon="3.74064">
        <ele>1187</ele>
        <time>2009-07-12T07:31:01Z</time>
      </trkpt>
      <trkpt lat="44.9735" lon="3.74066">
        <ele>1188</ele>
        <time>2009-07-12T07:31:19Z</time>
      </trkpt>
      <trkpt lat="44.97325" lon="3.74064">
        <ele>1192</ele>
        <time>2009-07-12T07:31:29Z</time>
      </trkpt>
      <trkpt lat="44.9729" lon="3.74058">
        <ele>1195</ele>
        <time>2009-07-12T07:31:44Z</time>
      </trkpt>
      <trkpt lat="44.97258" lon="3.74057">
        <ele>1198</ele>
        <time>2009-07-12T07:31:59Z</time>
      </trkpt>
      <trkpt lat="44.97254" lon="3.74057">
        <ele>1199</ele>
        <time>2009-07-12T07:32:01Z</time>
      </trkpt>
      <trkpt lat="44.97247" lon="3.74055">
        <ele>1200</ele>
        <time>2009-07-12T07:32:05Z</time>
      </trkpt>
      <trkpt lat="44.97238" lon="3.74051">
        <ele>1201</ele>
        <time>2009-07-12T07:32:12Z</time>
      </trkpt>
      <trkpt lat="44.97245" lon="3.74042">
        <ele>1201</ele>
        <time>2009-07-12T07:32:27Z</time>
      </trkpt>
      <trkpt lat="44.97247" lon="3.74043">
        <ele>1202</ele>
        <time>2009-07-12T07:32:55Z</time>
      </trkpt>
      <trkpt lat="44.97249" lon="3.74046">
        <ele>1200</ele>
        <time>2009-07-12T07:33:36Z</time>
      </trkpt>
      <trkpt lat="44.9725" lon="3.74043">
        <ele>1200</ele>
        <time>2009-07-12T07:34:04Z</time>
      </trkpt>
      <trkpt lat="44.97253" lon="3.74042">
        <ele>1200</ele>
        <time>2009-07-12T07:34:21Z</time>
      </trkpt>
      <trkpt lat="44.97269" lon="3.74032">
        <ele>1198</ele>
        <time>2009-07-12T07:34:31Z</time>
      </trkpt>
      <trkpt lat="44.97274" lon="3.7403">
        <ele>1198</ele>
        <time>2009-07-12T07:34:32Z</time>
      </trkpt>
      <trkpt lat="44.9729" lon="3.74022">
        <ele>1196</ele>
        <time>2009-07-12T07:34:35Z</time>
      </trkpt>
      <trkpt lat="44.97301" lon="3.74014">
        <ele>1193</ele>
        <time>2009-07-12T07:34:37Z</time>
      </trkpt>
      <trkpt lat="44.97314" lon="3.74006">
        <ele>1193</ele>
        <time>2009-07-12T07:34:39Z</time>
      </trkpt>
      <trkpt lat="44.97336" lon="3.73998">
        <ele>1190</ele>
        <time>2009-07-12T07:34:42Z</time>
      </trkpt>
      <trkpt lat="44.97362" lon="3.73992">
        <ele>1188</ele>
        <time>2009-07-12T07:34:45Z</time>
      </trkpt>
      <trkpt lat="44.97419" lon="3.73969">
        <ele>1184</ele>
        <time>2009-07-12T07:34:51Z</time>
      </trkpt>
      <trkpt lat="44.97436" lon="3.73963">
        <ele>1181</ele>
        <time>2009-07-12T07:34:53Z</time>
      </trkpt>
      <trkpt lat="44.97478" lon="3.73943">
        <ele>1180</ele>
        <time>2009-07-12T07:34:58Z</time>
      </trkpt>
      <trkpt lat="44.97551" lon="3.7391">
        <ele>1177</ele>
        <time>2009-07-12T07:35:07Z</time>
      </trkpt>
      <trkpt lat="44.976" lon="3.7389">
        <ele>1175</ele>
        <time>2009-07-12T07:35:14Z</time>
      </trkpt>
      <trkpt lat="44.97622" lon="3.73882">
        <ele>1172</ele>
        <time>2009-07-12T07:35:17Z</time>
      </trkpt>
      <trkpt lat="44.9763" lon="3.7388">
        <ele>1172</ele>
        <time>2009-07-12T07:35:18Z</time>
      </trkpt>
      <trkpt lat="44.97705" lon="3.73858">
        <ele>1170</ele>
        <time>2009-07-12T07:35:29Z</time>
      </trkpt>
      <trkpt lat="44.97788" lon="3.73832">
        <ele>1168</ele>
        <time>2009-07-12T07:35:43Z</time>
      </trkpt>
      <trkpt lat="44.97909" lon="3.73793">
        <ele>1167</ele>
        <time>2009-07-12T07:36:02Z</time>
      </trkpt>
      <trkpt lat="44.9799" lon="3.7377">
        <ele>1167</ele>
        <time>2009-07-12T07:36:17Z</time>
      </trkpt>
      <trkpt lat="44.98011" lon="3.73765">
        <ele>1166</ele>
        <time>2009-07-12T07:36:22Z</time>
      </trkpt>
      <trkpt lat="44.98024" lon="3.73761">
        <ele>1166</ele>
        <time>2009-07-12T07:36:25Z</time>
      </trkpt>
      <trkpt lat="44.98046" lon="3.7375">
        <ele>1166</ele>
        <time>2009-07-12T07:36:30Z</time>
      </trkpt>
      <trkpt lat="44.98144" lon="3.73727">
        <ele>1162</ele>
        <time>2009-07-12T07:36:46Z</time>
      </trkpt>
      <trkpt lat="44.98279" lon="3.7372">
        <ele>1159</ele>
        <time>2009-07-12T07:37:05Z</time>
      </trkpt>
      <trkpt lat="44.98396" lon="3.73723">
        <ele>1156</ele>
        <time>2009-07-12T07:37:21Z</time>
      </trkpt>
      <trkpt lat="44.98531" lon="3.73749">
        <ele>1152</ele>
        <time>2009-07-12T07:37:39Z</time>
      </trkpt>
      <trkpt lat="44.98573" lon="3.73764">
        <ele>1151</ele>
        <time>2009-07-12T07:37:44Z</time>
      </trkpt>
      <trkpt lat="44.98649" lon="3.73794">
        <ele>1148</ele>
        <time>2009-07-12T07:37:53Z</time>
      </trkpt>
      <trkpt lat="44.98658" lon="3.73799">
        <ele>1148</ele>
        <time>2009-07-12T07:37:54Z</time>
      </trkpt>
      <trkpt lat="44.98684" lon="3.73818">
        <ele>1145</ele>
        <time>2009-07-12T07:37:57Z</time>
      </trkpt>
      <trkpt lat="44.98731" lon="3.73857">
        <ele>1141</ele>
        <time>2009-07-12T07:38:02Z</time>
      </trkpt>
      <trkpt lat="44.98741" lon="3.73864">
        <ele>1141</ele>
        <time>2009-07-12T07:38:03Z</time>
      </trkpt>
      <trkpt lat="44.98774" lon="3.73887">
        <ele>1141</ele>
        <time>2009-07-12T07:38:07Z</time>
      </trkpt>
      <trkpt lat="44.98794" lon="3.73904">
        <ele>1141</ele>
        <time>2009-07-12T07:38:11Z</time>
      </trkpt>
      <trkpt lat="44.98849" lon="3.74015">
        <ele>1139</ele>
        <time>2009-07-12T07:38:25Z</time>
      </trkpt>
      <trkpt lat="44.98872" lon="3.74055">
        <ele>1138</ele>
        <time>2009-07-12T07:38:30Z</time>
      </trkpt>
      <trkpt lat="44.98951" lon="3.74152">
        <ele>1135</ele>
        <time>2009-07-12T07:38:45Z</time>
      </trkpt>
      <trkpt lat="44.98979" lon="3.74183">
        <ele>1134</ele>
        <time>2009-07-12T07:38:52Z</time>
      </trkpt>
      <trkpt lat="44.98988" lon="3.74176">
        <ele>1134</ele>
        <time>2009-07-12T07:38:56Z</time>
      </trkpt>
      <trkpt lat="44.99014" lon="3.74124">
        <ele>1136</ele>
        <time>2009-07-12T07:39:13Z</time>
      </trkpt>
      <trkpt lat="44.99053" lon="3.74079">
        <ele>1137</ele>
        <time>2009-07-12T07:39:28Z</time>
      </trkpt>
      <trkpt lat="44.99086" lon="3.74012">
        <ele>1139</ele>
        <time>2009-07-12T07:39:46Z</time>
      </trkpt>
      <trkpt lat="44.99119" lon="3.73936">
        <ele>1142</ele>
        <time>2009-07-12T07:40:06Z</time>
      </trkpt>
      <trkpt lat="44.99154" lon="3.73875">
        <ele>1141</ele>
        <time>2009-07-12T07:40:22Z</time>
      </trkpt>
      <trkpt lat="44.99173" lon="3.73829">
        <ele>1140</ele>
        <time>2009-07-12T07:40:31Z</time>
      </trkpt>
      <trkpt lat="44.99182" lon="3.73798">
        <ele>1139</ele>
        <time>2009-07-12T07:40:37Z</time>
      </trkpt>
      <trkpt lat="44.99197" lon="3.73762">
        <ele>1138</ele>
        <time>2009-07-12T07:40:44Z</time>
      </trkpt>
      <trkpt lat="44.99204" lon="3.73696">
        <ele>1138</ele>
        <time>2009-07-12T07:40:56Z</time>
      </trkpt>
      <trkpt lat="44.99241" lon="3.7359">
        <ele>1139</ele>
        <time>2009-07-12T07:41:16Z</time>
      </trkpt>
      <trkpt lat="44.99253" lon="3.73558">
        <ele>1138</ele>
        <time>2009-07-12T07:41:22Z</time>
      </trkpt>
      <trkpt lat="44.99279" lon="3.73513">
        <ele>1137</ele>
        <time>2009-07-12T07:41:31Z</time>
      </trkpt>
      <trkpt lat="44.99293" lon="3.73476">
        <ele>1135</ele>
        <time>2009-07-12T07:41:37Z</time>
      </trkpt>
      <trkpt lat="44.99302" lon="3.73454">
        <ele>1133</ele>
        <time>2009-07-12T07:41:40Z</time>
      </trkpt>
      <trkpt lat="44.99308" lon="3.73439">
        <ele>1132</ele>
        <time>2009-07-12T07:41:42Z</time>
      </trkpt>
      <trkpt lat="44.99361" lon="3.7337">
        <ele>1130</ele>
        <time>2009-07-12T07:41:53Z</time>
      </trkpt>
      <trkpt lat="44.99362" lon="3.73339">
        <ele>1129</ele>
        <time>2009-07-12T07:41:58Z</time>
      </trkpt>
      <trkpt lat="44.9933" lon="3.73262">
        <ele>1130</ele>
        <time>2009-07-12T07:42:15Z</time>
      </trkpt>
      <trkpt lat="44.99324" lon="3.73227">
        <ele>1131</ele>
        <time>2009-07-12T07:42:22Z</time>
      </trkpt>
      <trkpt lat="44.99358" lon="3.73211">
        <ele>1133</ele>
        <time>2009-07-12T07:42:33Z</time>
      </trkpt>
      <trkpt lat="44.9941" lon="3.73184">
        <ele>1136</ele>
        <time>2009-07-12T07:42:53Z</time>
      </trkpt>
      <trkpt lat="44.99425" lon="3.7316">
        <ele>1137</ele>
        <time>2009-07-12T07:43:08Z</time>
      </trkpt>
      <trkpt lat="44.99424" lon="3.73159">
        <ele>1140</ele>
        <time>2009-07-12T07:44:08Z</time>
      </trkpt>
      <trkpt lat="44.99424" lon="3.73159">
        <ele>1138</ele>
        <time>2009-07-12T07:44:51Z</time>
      </trkpt>
      <trkpt lat="44.99433" lon="3.73143">
        <ele>1139</ele>
        <time>2009-07-12T07:44:59Z</time>
      </trkpt>
      <trkpt lat="44.99444" lon="3.73124">
        <ele>1141</ele>
        <time>2009-07-12T07:45:06Z</time>
      </trkpt>
      <trkpt lat="44.99466" lon="3.73089">
        <ele>1145</ele>
        <time>2009-07-12T07:45:21Z</time>
      </trkpt>
      <trkpt lat="44.99498" lon="3.73039">
        <ele>1147</ele>
        <time>2009-07-12T07:45:41Z</time>
      </trkpt>
      <trkpt lat="44.99514" lon="3.73011">
        <ele>1151</ele>
        <time>2009-07-12T07:45:52Z</time>
      </trkpt>
      <trkpt lat="44.99542" lon="3.72958">
        <ele>1153</ele>
        <time>2009-07-12T07:46:13Z</time>
      </trkpt>
      <trkpt lat="44.99543" lon="3.72955">
        <ele>1153</ele>
        <time>2009-07-12T07:46:14Z</time>
      </trkpt>
      <trkpt lat="44.99562" lon="3.72924">
        <ele>1157</ele>
        <time>2009-07-12T07:46:28Z</time>
      </trkpt>
      <trkpt lat="44.99584" lon="3.72916">
        <ele>1160</ele>
        <time>2009-07-12T07:46:39Z</time>
      </trkpt>
      <trkpt lat="44.9961" lon="3.72898">
        <ele>1163</ele>
        <time>2009-07-12T07:46:53Z</time>
      </trkpt>
      <trkpt lat="44.9963" lon="3.72876">
        <ele>1166</ele>
        <time>2009-07-12T07:47:06Z</time>
      </trkpt>
      <trkpt lat="44.99642" lon="3.72856">
        <ele>1169</ele>
        <time>2009-07-12T07:47:15Z</time>
      </trkpt>
      <trkpt lat="44.9966" lon="3.72811">
        <ele>1171</ele>
        <time>2009-07-12T07:47:33Z</time>
      </trkpt>
      <trkpt lat="44.99672" lon="3.72789">
        <ele>1174</ele>
        <time>2009-07-12T07:47:43Z</time>
      </trkpt>
      <trkpt lat="44.9969" lon="3.72746">
        <ele>1174</ele>
        <time>2009-07-12T07:48:00Z</time>
      </trkpt>
      <trkpt lat="44.99688" lon="3.72719">
        <ele>1177</ele>
        <time>2009-07-12T07:48:09Z</time>
      </trkpt>
      <trkpt lat="44.99681" lon="3.72661">
        <ele>1179</ele>
        <time>2009-07-12T07:48:28Z</time>
      </trkpt>
      <trkpt lat="44.99669" lon="3.72625">
        <ele>1182</ele>
        <time>2009-07-12T07:48:40Z</time>
      </trkpt>
      <trkpt lat="44.99671" lon="3.72578">
        <ele>1185</ele>
        <time>2009-07-12T07:48:55Z</time>
      </trkpt>
      <trkpt lat="44.99684" lon="3.72556">
        <ele>1188</ele>
        <time>2009-07-12T07:49:05Z</time>
      </trkpt>
      <trkpt lat="44.99685" lon="3.72554">
        <ele>1189</ele>
        <time>2009-07-12T07:49:06Z</time>
      </trkpt>
      <trkpt lat="44.99688" lon="3.72548">
        <ele>1190</ele>
        <time>2009-07-12T07:49:09Z</time>
      </trkpt>
      <trkpt lat="44.99701" lon="3.72534">
        <ele>1193</ele>
        <time>2009-07-12T07:49:19Z</time>
      </trkpt>
      <trkpt lat="44.99722" lon="3.7251">
        <ele>1196</ele>
        <time>2009-07-12T07:49:36Z</time>
      </trkpt>
      <trkpt lat="44.99729" lon="3.72484">
        <ele>1199</ele>
        <time>2009-07-12T07:49:48Z</time>
      </trkpt>
      <trkpt lat="44.9973" lon="3.72453">
        <ele>1202</ele>
        <time>2009-07-12T07:50:01Z</time>
      </trkpt>
      <trkpt lat="44.99721" lon="3.72401">
        <ele>1205</ele>
        <time>2009-07-12T07:50:21Z</time>
      </trkpt>
      <trkpt lat="44.99715" lon="3.7235">
        <ele>1209</ele>
        <time>2009-07-12T07:50:39Z</time>
      </trkpt>
      <trkpt lat="44.99715" lon="3.72316">
        <ele>1212</ele>
        <time>2009-07-12T07:50:53Z</time>
      </trkpt>
      <trkpt lat="44.99713" lon="3.72288">
        <ele>1215</ele>
        <time>2009-07-12T07:51:04Z</time>
      </trkpt>
      <trkpt lat="44.99709" lon="3.72261">
        <ele>1217</ele>
        <time>2009-07-12T07:51:13Z</time>
      </trkpt>
      <trkpt lat="44.9972" lon="3.72245">
        <ele>1217</ele>
        <time>2009-07-12T07:51:20Z</time>
      </trkpt>
      <trkpt lat="44.9974" lon="3.72218">
        <ele>1217</ele>
        <time>2009-07-12T07:51:32Z</time>
      </trkpt>
      <trkpt lat="44.99745" lon="3.7221">
        <ele>1217</ele>
        <time>2009-07-12T07:51:37Z</time>
      </trkpt>
      <trkpt lat="44.99749" lon="3.72211">
        <ele>1217</ele>
        <time>2009-07-12T07:51:39Z</time>
      </trkpt>
      <trkpt lat="44.99757" lon="3.72213">
        <ele>1217</ele>
        <time>2009-07-12T07:51:53Z</time>
      </trkpt>
      <trkpt lat="44.99756" lon="3.72213">
        <ele>1218</ele>
        <time>2009-07-12T07:52:43Z</time>
      </trkpt>
      <trkpt lat="44.99757" lon="3.72215">
        <ele>1216</ele>
        <time>2009-07-12T07:53:39Z</time>
      </trkpt>
      <trkpt lat="44.99756" lon="3.72215">
        <ele>1216</ele>
        <time>2009-07-12T07:54:27Z</time>
      </trkpt>
      <trkpt lat="44.99757" lon="3.72213">
        <ele>1216</ele>
        <time>2009-07-12T07:54:58Z</time>
      </trkpt>
      <trkpt lat="44.99756" lon="3.72215">
        <ele>1216</ele>
        <time>2009-07-12T07:55:28Z</time>
      </trkpt>
      <trkpt lat="44.99755" lon="3.72216">
        <ele>1216</ele>
        <time>2009-07-12T07:56:13Z</time>
      </trkpt>
      <trkpt lat="44.99758" lon="3.72221">
        <ele>1216</ele>
        <time>2009-07-12T07:56:19Z</time>
      </trkpt>
      <trkpt lat="44.9977" lon="3.72215">
        <ele>1216</ele>
        <time>2009-07-12T07:56:29Z</time>
      </trkpt>
      <trkpt lat="44.9977" lon="3.72208">
        <ele>1216</ele>
        <time>2009-07-12T07:56:31Z</time>
      </trkpt>
      <trkpt lat="44.99773" lon="3.72163">
        <ele>1216</ele>
        <time>2009-07-12T07:56:44Z</time>
      </trkpt>
      <trkpt lat="44.99789" lon="3.7211">
        <ele>1216</ele>
        <time>2009-07-12T07:56:58Z</time>
      </trkpt>
      <trkpt lat="44.99811" lon="3.72051">
        <ele>1216</ele>
        <time>2009-07-12T07:57:13Z</time>
      </trkpt>
      <trkpt lat="44.99836" lon="3.72005">
        <ele>1216</ele>
        <time>2009-07-12T07:57:26Z</time>
      </trkpt>
      <trkpt lat="44.99834" lon="3.7196">
        <ele>1216</ele>
        <time>2009-07-12T07:57:38Z</time>
      </trkpt>
      <trkpt lat="44.99807" lon="3.71929">
        <ele>1216</ele>
        <time>2009-07-12T07:57:49Z</time>
      </trkpt>
      <trkpt lat="44.99785" lon="3.71887">
        <ele>1216</ele>
        <time>2009-07-12T07:58:00Z</time>
      </trkpt>
      <trkpt lat="44.99763" lon="3.71838">
        <ele>1217</ele>
        <time>2009-07-12T07:58:12Z</time>
      </trkpt>
      <trkpt lat="44.99757" lon="3.71819">
        <ele>1216</ele>
        <time>2009-07-12T07:58:16Z</time>
      </trkpt>
      <trkpt lat="44.99754" lon="3.71802">
        <ele>1216</ele>
        <time>2009-07-12T07:58:19Z</time>
      </trkpt>
      <trkpt lat="44.99745" lon="3.71723">
        <ele>1216</ele>
        <time>2009-07-12T07:58:33Z</time>
      </trkpt>
      <trkpt lat="44.99716" lon="3.71674">
        <ele>1215</ele>
        <time>2009-07-12T07:58:46Z</time>
      </trkpt>
      <trkpt lat="44.99666" lon="3.71653">
        <ele>1215</ele>
        <time>2009-07-12T07:59:00Z</time>
      </trkpt>
      <trkpt lat="44.99655" lon="3.71648">
        <ele>1214</ele>
        <time>2009-07-12T07:59:03Z</time>
      </trkpt>
      <trkpt lat="44.99631" lon="3.71638">
        <ele>1213</ele>
        <time>2009-07-12T07:59:09Z</time>
      </trkpt>
      <trkpt lat="44.99608" lon="3.71633">
        <ele>1212</ele>
        <time>2009-07-12T07:59:14Z</time>
      </trkpt>
      <trkpt lat="44.99599" lon="3.7163">
        <ele>1212</ele>
        <time>2009-07-12T07:59:16Z</time>
      </trkpt>
      <trkpt lat="44.99585" lon="3.71615">
        <ele>1211</ele>
        <time>2009-07-12T07:59:20Z</time>
      </trkpt>
      <trkpt lat="44.99569" lon="3.71585">
        <ele>1207</ele>
        <time>2009-07-12T07:59:24Z</time>
      </trkpt>
      <trkpt lat="44.99524" lon="3.71467">
        <ele>1204</ele>
        <time>2009-07-12T07:59:36Z</time>
      </trkpt>
      <trkpt lat="44.99516" lon="3.71431">
        <ele>1202</ele>
        <time>2009-07-12T07:59:40Z</time>
      </trkpt>
      <trkpt lat="44.99506" lon="3.71393">
        <ele>1197</ele>
        <time>2009-07-12T07:59:44Z</time>
      </trkpt>
      <trkpt lat="44.99502" lon="3.71382">
        <ele>1195</ele>
        <time>2009-07-12T07:59:45Z</time>
      </trkpt>
      <trkpt lat="44.99494" lon="3.71343">
        <ele>1191</ele>
        <time>2009-07-12T07:59:48Z</time>
      </trkpt>
      <trkpt lat="44.99492" lon="3.71314">
        <ele>1187</ele>
        <time>2009-07-12T07:59:50Z</time>
      </trkpt>
      <trkpt lat="44.99486" lon="3.71287">
        <ele>1186</ele>
        <time>2009-07-12T07:59:52Z</time>
      </trkpt>
      <trkpt lat="44.99478" lon="3.71249">
        <ele>1181</ele>
        <time>2009-07-12T07:59:55Z</time>
      </trkpt>
      <trkpt lat="44.99472" lon="3.71225">
        <ele>1179</ele>
        <time>2009-07-12T07:59:57Z</time>
      </trkpt>
      <trkpt lat="44.99454" lon="3.71175">
        <ele>1176</ele>
        <time>2009-07-12T08:00:01Z</time>
      </trkpt>
      <trkpt lat="44.99438" lon="3.71116">
        <ele>1171</ele>
        <time>2009-07-12T08:00:05Z</time>
      </trkpt>
      <trkpt lat="44.99419" lon="3.71075">
        <ele>1169</ele>
        <time>2009-07-12T08:00:08Z</time>
      </trkpt>
      <trkpt lat="44.99405" lon="3.71052">
        <ele>1168</ele>
        <time>2009-07-12T08:00:10Z</time>
      </trkpt>
      <trkpt lat="44.99384" lon="3.71025">
        <ele>1166</ele>
        <time>2009-07-12T08:00:13Z</time>
      </trkpt>
      <trkpt lat="44.99332" lon="3.70939">
        <ele>1161</ele>
        <time>2009-07-12T08:00:24Z</time>
      </trkpt>
      <trkpt lat="44.99328" lon="3.7093">
        <ele>1161</ele>
        <time>2009-07-12T08:00:25Z</time>
      </trkpt>
      <trkpt lat="44.99305" lon="3.7088">
        <ele>1160</ele>
        <time>2009-07-12T08:00:32Z</time>
      </trkpt>
      <trkpt lat="44.99276" lon="3.70839">
        <ele>1157</ele>
        <time>2009-07-12T08:00:39Z</time>
      </trkpt>
      <trkpt lat="44.99232" lon="3.70781">
        <ele>1153</ele>
        <time>2009-07-12T08:00:50Z</time>
      </trkpt>
      <trkpt lat="44.99228" lon="3.70775">
        <ele>1153</ele>
        <time>2009-07-12T08:00:51Z</time>
      </trkpt>
      <trkpt lat="44.99217" lon="3.70762">
        <ele>1152</ele>
        <time>2009-07-12T08:00:53Z</time>
      </trkpt>
      <trkpt lat="44.99192" lon="3.70737">
        <ele>1148</ele>
        <time>2009-07-12T08:00:57Z</time>
      </trkpt>
      <trkpt lat="44.99177" lon="3.70724">
        <ele>1147</ele>
        <time>2009-07-12T08:00:59Z</time>
      </trkpt>
      <trkpt lat="44.99154" lon="3.70704">
        <ele>1142</ele>
        <time>2009-07-12T08:01:02Z</time>
      </trkpt>
      <trkpt lat="44.99109" lon="3.70653">
        <ele>1141</ele>
        <time>2009-07-12T08:01:09Z</time>
      </trkpt>
      <trkpt lat="44.99095" lon="3.70618">
        <ele>1137</ele>
        <time>2009-07-12T08:01:15Z</time>
      </trkpt>
      <trkpt lat="44.99091" lon="3.70602">
        <ele>1135</ele>
        <time>2009-07-12T08:01:18Z</time>
      </trkpt>
      <trkpt lat="44.99083" lon="3.70561">
        <ele>1131</ele>
        <time>2009-07-12T08:01:26Z</time>
      </trkpt>
      <trkpt lat="44.9908" lon="3.70534">
        <ele>1128</ele>
        <time>2009-07-12T08:01:29Z</time>
      </trkpt>
      <trkpt lat="44.99078" lon="3.70505">
        <ele>1124</ele>
        <time>2009-07-12T08:01:32Z</time>
      </trkpt>
      <trkpt lat="44.99075" lon="3.70486">
        <ele>1123</ele>
        <time>2009-07-12T08:01:34Z</time>
      </trkpt>
      <trkpt lat="44.99069" lon="3.70447">
        <ele>1119</ele>
        <time>2009-07-12T08:01:38Z</time>
      </trkpt>
      <trkpt lat="44.99067" lon="3.70436">
        <ele>1119</ele>
        <time>2009-07-12T08:01:39Z</time>
      </trkpt>
      <trkpt lat="44.99054" lon="3.70392">
        <ele>1116</ele>
        <time>2009-07-12T08:01:43Z</time>
      </trkpt>
      <trkpt lat="44.99044" lon="3.70362">
        <ele>1113</ele>
        <time>2009-07-12T08:01:46Z</time>
      </trkpt>
      <trkpt lat="44.99042" lon="3.70353">
        <ele>1113</ele>
        <time>2009-07-12T08:01:47Z</time>
      </trkpt>
      <trkpt lat="44.99044" lon="3.70305">
        <ele>1111</ele>
        <time>2009-07-12T08:01:52Z</time>
      </trkpt>
      <trkpt lat="44.99051" lon="3.70275">
        <ele>1108</ele>
        <time>2009-07-12T08:01:55Z</time>
      </trkpt>
      <trkpt lat="44.99049" lon="3.70237">
        <ele>1103</ele>
        <time>2009-07-12T08:01:59Z</time>
      </trkpt>
      <trkpt lat="44.99041" lon="3.70218">
        <ele>1101</ele>
        <time>2009-07-12T08:02:01Z</time>
      </trkpt>
      <trkpt lat="44.98999" lon="3.70131">
        <ele>1095</ele>
        <time>2009-07-12T08:02:09Z</time>
      </trkpt>
      <trkpt lat="44.98989" lon="3.70107">
        <ele>1094</ele>
        <time>2009-07-12T08:02:11Z</time>
      </trkpt>
      <trkpt lat="44.98965" lon="3.70059">
        <ele>1090</ele>
        <time>2009-07-12T08:02:15Z</time>
      </trkpt>
      <trkpt lat="44.98939" lon="3.69998">
        <ele>1089</ele>
        <time>2009-07-12T08:02:20Z</time>
      </trkpt>
      <trkpt lat="44.98922" lon="3.69969">
        <ele>1088</ele>
        <time>2009-07-12T08:02:23Z</time>
      </trkpt>
      <trkpt lat="44.98904" lon="3.69944">
        <ele>1086</ele>
        <time>2009-07-12T08:02:26Z</time>
      </trkpt>
      <trkpt lat="44.98887" lon="3.69911">
        <ele>1084</ele>
        <time>2009-07-12T08:02:30Z</time>
      </trkpt>
      <trkpt lat="44.98853" lon="3.69869">
        <ele>1079</ele>
        <time>2009-07-12T08:02:36Z</time>
      </trkpt>
      <trkpt lat="44.98826" lon="3.69842">
        <ele>1077</ele>
        <time>2009-07-12T08:02:40Z</time>
      </trkpt>
      <trkpt lat="44.98811" lon="3.69829">
        <ele>1076</ele>
        <time>2009-07-12T08:02:43Z</time>
      </trkpt>
      <trkpt lat="44.98785" lon="3.69813">
        <ele>1074</ele>
        <time>2009-07-12T08:02:54Z</time>
      </trkpt>
      <trkpt lat="44.98785" lon="3.69814">
        <ele>1074</ele>
        <time>2009-07-12T08:03:13Z</time>
      </trkpt>
      <trkpt lat="44.98778" lon="3.69788">
        <ele>1071</ele>
        <time>2009-07-12T08:03:20Z</time>
      </trkpt>
      <trkpt lat="44.98778" lon="3.69776">
        <ele>1070</ele>
        <time>2009-07-12T08:03:22Z</time>
      </trkpt>
      <trkpt lat="44.98778" lon="3.6975">
        <ele>1068</ele>
        <time>2009-07-12T08:03:25Z</time>
      </trkpt>
      <trkpt lat="44.9878" lon="3.6972">
        <ele>1065</ele>
        <time>2009-07-12T08:03:28Z</time>
      </trkpt>
      <trkpt lat="44.98781" lon="3.69685">
        <ele>1062</ele>
        <time>2009-07-12T08:03:31Z</time>
      </trkpt>
      <trkpt lat="44.98782" lon="3.69672">
        <ele>1062</ele>
        <time>2009-07-12T08:03:32Z</time>
      </trkpt>
      <trkpt lat="44.98783" lon="3.69632">
        <ele>1060</ele>
        <time>2009-07-12T08:03:35Z</time>
      </trkpt>
      <trkpt lat="44.98784" lon="3.6959">
        <ele>1057</ele>
        <time>2009-07-12T08:03:38Z</time>
      </trkpt>
      <trkpt lat="44.98776" lon="3.69486">
        <ele>1053</ele>
        <time>2009-07-12T08:03:48Z</time>
      </trkpt>
      <trkpt lat="44.98774" lon="3.69477">
        <ele>1054</ele>
        <time>2009-07-12T08:03:49Z</time>
      </trkpt>
      <trkpt lat="44.98764" lon="3.69443">
        <ele>1052</ele>
        <time>2009-07-12T08:03:54Z</time>
      </trkpt>
      <trkpt lat="44.98748" lon="3.6938">
        <ele>1049</ele>
        <time>2009-07-12T08:04:01Z</time>
      </trkpt>
      <trkpt lat="44.98746" lon="3.6935">
        <ele>1049</ele>
        <time>2009-07-12T08:04:04Z</time>
      </trkpt>
      <trkpt lat="44.98735" lon="3.69324">
        <ele>1046</ele>
        <time>2009-07-12T08:04:09Z</time>
      </trkpt>
      <trkpt lat="44.98732" lon="3.69314">
        <ele>1047</ele>
        <time>2009-07-12T08:04:11Z</time>
      </trkpt>
      <trkpt lat="44.98728" lon="3.69299">
        <ele>1047</ele>
        <time>2009-07-12T08:04:15Z</time>
      </trkpt>
      <trkpt lat="44.9873" lon="3.69293">
        <ele>1046</ele>
        <time>2009-07-12T08:04:28Z</time>
      </trkpt>
      <trkpt lat="44.98729" lon="3.69292">
        <ele>1046</ele>
        <time>2009-07-12T08:04:29Z</time>
      </trkpt>
      <trkpt lat="44.98723" lon="3.69249">
        <ele>1044</ele>
        <time>2009-07-12T08:04:42Z</time>
      </trkpt>
      <trkpt lat="44.98722" lon="3.69237">
        <ele>1043</ele>
        <time>2009-07-12T08:04:44Z</time>
      </trkpt>
      <trkpt lat="44.98719" lon="3.69211">
        <ele>1041</ele>
        <time>2009-07-12T08:04:48Z</time>
      </trkpt>
      <trkpt lat="44.98721" lon="3.6916">
        <ele>1041</ele>
        <time>2009-07-12T08:04:55Z</time>
      </trkpt>
      <trkpt lat="44.98728" lon="3.69091">
        <ele>1042</ele>
        <time>2009-07-12T08:05:08Z</time>
      </trkpt>
      <trkpt lat="44.98731" lon="3.69037">
        <ele>1040</ele>
        <time>2009-07-12T08:05:16Z</time>
      </trkpt>
      <trkpt lat="44.98731" lon="3.6901">
        <ele>1039</ele>
        <time>2009-07-12T08:05:20Z</time>
      </trkpt>
      <trkpt lat="44.9873" lon="3.68915">
        <ele>1035</ele>
        <time>2009-07-12T08:05:33Z</time>
      </trkpt>
      <trkpt lat="44.98731" lon="3.68887">
        <ele>1032</ele>
        <time>2009-07-12T08:05:36Z</time>
      </trkpt>
      <trkpt lat="44.98733" lon="3.68838">
        <ele>1030</ele>
        <time>2009-07-12T08:05:42Z</time>
      </trkpt>
      <trkpt lat="44.98726" lon="3.68789">
        <ele>1029</ele>
        <time>2009-07-12T08:05:50Z</time>
      </trkpt>
      <trkpt lat="44.98726" lon="3.68784">
        <ele>1029</ele>
        <time>2009-07-12T08:05:51Z</time>
      </trkpt>
      <trkpt lat="44.98735" lon="3.68737">
        <ele>1026</ele>
        <time>2009-07-12T08:05:59Z</time>
      </trkpt>
      <trkpt lat="44.98752" lon="3.68704">
        <ele>1021</ele>
        <time>2009-07-12T08:06:03Z</time>
      </trkpt>
      <trkpt lat="44.98758" lon="3.68697">
        <ele>1020</ele>
        <time>2009-07-12T08:06:04Z</time>
      </trkpt>
      <trkpt lat="44.98771" lon="3.68684">
        <ele>1018</ele>
        <time>2009-07-12T08:06:06Z</time>
      </trkpt>
      <trkpt lat="44.98781" lon="3.68668">
        <ele>1017</ele>
        <time>2009-07-12T08:06:08Z</time>
      </trkpt>
      <trkpt lat="44.98801" lon="3.68631">
        <ele>1014</ele>
        <time>2009-07-12T08:06:12Z</time>
      </trkpt>
      <trkpt lat="44.98825" lon="3.68605">
        <ele>1010</ele>
        <time>2009-07-12T08:06:16Z</time>
      </trkpt>
      <trkpt lat="44.9885" lon="3.68586">
        <ele>1007</ele>
        <time>2009-07-12T08:06:20Z</time>
      </trkpt>
      <trkpt lat="44.98856" lon="3.68582">
        <ele>1006</ele>
        <time>2009-07-12T08:06:21Z</time>
      </trkpt>
      <trkpt lat="44.98877" lon="3.68562">
        <ele>1001</ele>
        <time>2009-07-12T08:06:25Z</time>
      </trkpt>
      <trkpt lat="44.98887" lon="3.6855">
        <ele>997</ele>
        <time>2009-07-12T08:06:27Z</time>
      </trkpt>
      <trkpt lat="44.98897" lon="3.68538">
        <ele>996</ele>
        <time>2009-07-12T08:06:29Z</time>
      </trkpt>
      <trkpt lat="44.98916" lon="3.68523">
        <ele>990</ele>
        <time>2009-07-12T08:06:32Z</time>
      </trkpt>
      <trkpt lat="44.98945" lon="3.68527">
        <ele>986</ele>
        <time>2009-07-12T08:06:37Z</time>
      </trkpt>
      <trkpt lat="44.98969" lon="3.68521">
        <ele>984</ele>
        <time>2009-07-12T08:06:41Z</time>
      </trkpt>
      <trkpt lat="44.99015" lon="3.68487">
        <ele>976</ele>
        <time>2009-07-12T08:06:48Z</time>
      </trkpt>
      <trkpt lat="44.9904" lon="3.685">
        <ele>971</ele>
        <time>2009-07-12T08:06:53Z</time>
      </trkpt>
      <trkpt lat="44.99045" lon="3.68506">
        <ele>971</ele>
        <time>2009-07-12T08:06:54Z</time>
      </trkpt>
      <trkpt lat="44.99083" lon="3.68546">
        <ele>967</ele>
        <time>2009-07-12T08:07:01Z</time>
      </trkpt>
      <trkpt lat="44.9909" lon="3.68551">
        <ele>967</ele>
        <time>2009-07-12T08:07:02Z</time>
      </trkpt>
      <trkpt lat="44.99131" lon="3.68575">
        <ele>963</ele>
        <time>2009-07-12T08:07:08Z</time>
      </trkpt>
      <trkpt lat="44.99146" lon="3.68585">
        <ele>962</ele>
        <time>2009-07-12T08:07:10Z</time>
      </trkpt>
      <trkpt lat="44.99153" lon="3.68588">
        <ele>963</ele>
        <time>2009-07-12T08:07:11Z</time>
      </trkpt>
      <trkpt lat="44.99156" lon="3.68588">
        <ele>963</ele>
        <time>2009-07-12T08:07:17Z</time>
      </trkpt>
      <trkpt lat="44.99154" lon="3.68586">
        <ele>962</ele>
        <time>2009-07-12T08:07:48Z</time>
      </trkpt>
      <trkpt lat="44.99151" lon="3.68584">
        <ele>961</ele>
        <time>2009-07-12T08:08:29Z</time>
      </trkpt>
      <trkpt lat="44.99154" lon="3.68582">
        <ele>962</ele>
        <time>2009-07-12T08:09:26Z</time>
      </trkpt>
      <trkpt lat="44.99154" lon="3.68584">
        <ele>962</ele>
        <time>2009-07-12T08:09:45Z</time>
      </trkpt>
      <trkpt lat="44.99161" lon="3.68582">
        <ele>961</ele>
        <time>2009-07-12T08:09:50Z</time>
      </trkpt>
      <trkpt lat="44.99167" lon="3.68585">
        <ele>960</ele>
        <time>2009-07-12T08:09:53Z</time>
      </trkpt>
      <trkpt lat="44.99171" lon="3.68588">
        <ele>958</ele>
        <time>2009-07-12T08:09:55Z</time>
      </trkpt>
      <trkpt lat="44.99178" lon="3.68585">
        <ele>955</ele>
        <time>2009-07-12T08:09:58Z</time>
      </trkpt>
      <trkpt lat="44.99181" lon="3.68582">
        <ele>955</ele>
        <time>2009-07-12T08:09:59Z</time>
      </trkpt>
      <trkpt lat="44.99191" lon="3.68568">
        <ele>953</ele>
        <time>2009-07-12T08:10:02Z</time>
      </trkpt>
      <trkpt lat="44.99198" lon="3.68554">
        <ele>951</ele>
        <time>2009-07-12T08:10:05Z</time>
      </trkpt>
      <trkpt lat="44.99204" lon="3.68537">
        <ele>948</ele>
        <time>2009-07-12T08:10:08Z</time>
      </trkpt>
      <trkpt lat="44.99207" lon="3.68526">
        <ele>946</ele>
        <time>2009-07-12T08:10:10Z</time>
      </trkpt>
      <trkpt lat="44.99211" lon="3.68505">
        <ele>945</ele>
        <time>2009-07-12T08:10:14Z</time>
      </trkpt>
      <trkpt lat="44.99215" lon="3.68493">
        <ele>944</ele>
        <time>2009-07-12T08:10:16Z</time>
      </trkpt>
      <trkpt lat="44.99223" lon="3.68474">
        <ele>940</ele>
        <time>2009-07-12T08:10:19Z</time>
      </trkpt>
      <trkpt lat="44.99225" lon="3.68467">
        <ele>940</ele>
        <time>2009-07-12T08:10:20Z</time>
      </trkpt>
      <trkpt lat="44.99226" lon="3.68461">
        <ele>939</ele>
        <time>2009-07-12T08:10:21Z</time>
      </trkpt>
      <trkpt lat="44.9923" lon="3.68441">
        <ele>934</ele>
        <time>2009-07-12T08:10:25Z</time>
      </trkpt>
      <trkpt lat="44.99233" lon="3.68437">
        <ele>933</ele>
        <time>2009-07-12T08:10:27Z</time>
      </trkpt>
      <trkpt lat="44.99232" lon="3.6843">
        <ele>932</ele>
        <time>2009-07-12T08:10:30Z</time>
      </trkpt>
      <trkpt lat="44.99226" lon="3.68416">
        <ele>928</ele>
        <time>2009-07-12T08:10:33Z</time>
      </trkpt>
      <trkpt lat="44.99227" lon="3.684">
        <ele>924</ele>
        <time>2009-07-12T08:10:37Z</time>
      </trkpt>
      <trkpt lat="44.99228" lon="3.684">
        <ele>925</ele>
        <time>2009-07-12T08:10:38Z</time>
      </trkpt>
      <trkpt lat="44.99232" lon="3.68404">
        <ele>924</ele>
        <time>2009-07-12T08:10:40Z</time>
      </trkpt>
      <trkpt lat="44.99235" lon="3.68408">
        <ele>924</ele>
        <time>2009-07-12T08:10:42Z</time>
      </trkpt>
      <trkpt lat="44.99241" lon="3.68395">
        <ele>920</ele>
        <time>2009-07-12T08:10:50Z</time>
      </trkpt>
      <trkpt lat="44.99238" lon="3.68392">
        <ele>919</ele>
        <time>2009-07-12T08:10:52Z</time>
      </trkpt>
      <trkpt lat="44.99238" lon="3.68383">
        <ele>917</ele>
        <time>2009-07-12T08:11:02Z</time>
      </trkpt>
      <trkpt lat="44.99241" lon="3.68374">
        <ele>915</ele>
        <time>2009-07-12T08:11:14Z</time>
      </trkpt>
      <trkpt lat="44.99242" lon="3.6837">
        <ele>914</ele>
        <time>2009-07-12T08:11:25Z</time>
      </trkpt>
      <trkpt lat="44.99251" lon="3.68363">
        <ele>910</ele>
        <time>2009-07-12T08:11:30Z</time>
      </trkpt>
      <trkpt lat="44.99263" lon="3.68357">
        <ele>906</ele>
        <time>2009-07-12T08:11:35Z</time>
      </trkpt>
      <trkpt lat="44.99266" lon="3.68356">
        <ele>906</ele>
        <time>2009-07-12T08:11:36Z</time>
      </trkpt>
      <trkpt lat="44.99273" lon="3.68359">
        <ele>904</ele>
        <time>2009-07-12T08:11:39Z</time>
      </trkpt>
      <trkpt lat="44.99276" lon="3.68362">
        <ele>904</ele>
        <time>2009-07-12T08:11:40Z</time>
      </trkpt>
      <trkpt lat="44.99288" lon="3.68374">
        <ele>900</ele>
        <time>2009-07-12T08:11:46Z</time>
      </trkpt>
      <trkpt lat="44.99293" lon="3.68366">
        <ele>897</ele>
        <time>2009-07-12T08:11:51Z</time>
      </trkpt>
      <trkpt lat="44.99292" lon="3.68354">
        <ele>896</ele>
        <time>2009-07-12T08:11:53Z</time>
      </trkpt>
      <trkpt lat="44.99281" lon="3.68308">
        <ele>893</ele>
        <time>2009-07-12T08:12:02Z</time>
      </trkpt>
      <trkpt lat="44.99279" lon="3.68299">
        <ele>892</ele>
        <time>2009-07-12T08:12:04Z</time>
      </trkpt>
      <trkpt lat="44.99269" lon="3.68283">
        <ele>888</ele>
        <time>2009-07-12T08:12:09Z</time>
      </trkpt>
      <trkpt lat="44.9924" lon="3.68267">
        <ele>889</ele>
        <time>2009-07-12T08:12:21Z</time>
      </trkpt>
      <trkpt lat="44.99207" lon="3.68258">
        <ele>890</ele>
        <time>2009-07-12T08:12:34Z</time>
      </trkpt>
      <trkpt lat="44.99174" lon="3.68228">
        <ele>893</ele>
        <time>2009-07-12T08:12:48Z</time>
      </trkpt>
      <trkpt lat="44.99141" lon="3.68203">
        <ele>893</ele>
        <time>2009-07-12T08:13:01Z</time>
      </trkpt>
      <trkpt lat="44.99092" lon="3.68171">
        <ele>894</ele>
        <time>2009-07-12T08:13:18Z</time>
      </trkpt>
      <trkpt lat="44.99056" lon="3.68132">
        <ele>896</ele>
        <time>2009-07-12T08:13:33Z</time>
      </trkpt>
      <trkpt lat="44.99036" lon="3.68095">
        <ele>897</ele>
        <time>2009-07-12T08:13:46Z</time>
      </trkpt>
      <trkpt lat="44.99034" lon="3.68092">
        <ele>897</ele>
        <time>2009-07-12T08:13:48Z</time>
      </trkpt>
      <trkpt lat="44.99031" lon="3.68087">
        <ele>898</ele>
        <time>2009-07-12T08:14:06Z</time>
      </trkpt>
      <trkpt lat="44.99031" lon="3.68087">
        <ele>898</ele>
        <time>2009-07-12T08:14:51Z</time>
      </trkpt>
      <trkpt lat="44.9903" lon="3.68088">
        <ele>898</ele>
        <time>2009-07-12T08:15:21Z</time>
      </trkpt>
      <trkpt lat="44.99031" lon="3.68089">
        <ele>897</ele>
        <time>2009-07-12T08:16:56Z</time>
      </trkpt>
      <trkpt lat="44.99017" lon="3.68064">
        <ele>895</ele>
        <time>2009-07-12T08:17:15Z</time>
      </trkpt>
      <trkpt lat="44.98966" lon="3.67996">
        <ele>895</ele>
        <time>2009-07-12T08:17:33Z</time>
      </trkpt>
      <trkpt lat="44.9895" lon="3.67969">
        <ele>893</ele>
        <time>2009-07-12T08:17:38Z</time>
      </trkpt>
      <trkpt lat="44.98946" lon="3.67936">
        <ele>892</ele>
        <time>2009-07-12T08:17:44Z</time>
      </trkpt>
      <trkpt lat="44.98947" lon="3.67932">
        <ele>892</ele>
        <time>2009-07-12T08:17:45Z</time>
      </trkpt>
      <trkpt lat="44.98956" lon="3.67914">
        <ele>890</ele>
        <time>2009-07-12T08:17:50Z</time>
      </trkpt>
      <trkpt lat="44.98978" lon="3.67892">
        <ele>889</ele>
        <time>2009-07-12T08:17:56Z</time>
      </trkpt>
      <trkpt lat="44.98992" lon="3.67874">
        <ele>887</ele>
        <time>2009-07-12T08:18:00Z</time>
      </trkpt>
      <trkpt lat="44.99003" lon="3.67825">
        <ele>887</ele>
        <time>2009-07-12T08:18:11Z</time>
      </trkpt>
      <trkpt lat="44.98988" lon="3.67755">
        <ele>889</ele>
        <time>2009-07-12T08:18:28Z</time>
      </trkpt>
      <trkpt lat="44.98982" lon="3.67702">
        <ele>889</ele>
        <time>2009-07-12T08:18:43Z</time>
      </trkpt>
      <trkpt lat="44.98977" lon="3.67644">
        <ele>892</ele>
        <time>2009-07-12T08:19:00Z</time>
      </trkpt>
      <trkpt lat="44.98968" lon="3.67566">
        <ele>894</ele>
        <time>2009-07-12T08:19:20Z</time>
      </trkpt>
      <trkpt lat="44.98955" lon="3.67497">
        <ele>896</ele>
        <time>2009-07-12T08:19:37Z</time>
      </trkpt>
      <trkpt lat="44.98918" lon="3.67426">
        <ele>898</ele>
        <time>2009-07-12T08:19:59Z</time>
      </trkpt>
      <trkpt lat="44.98899" lon="3.67388">
        <ele>901</ele>
        <time>2009-07-12T08:20:12Z</time>
      </trkpt>
      <trkpt lat="44.98886" lon="3.67315">
        <ele>903</ele>
        <time>2009-07-12T08:20:31Z</time>
      </trkpt>
      <trkpt lat="44.98889" lon="3.67247">
        <ele>900</ele>
        <time>2009-07-12T08:20:46Z</time>
      </trkpt>
      <trkpt lat="44.98888" lon="3.67244">
        <ele>900</ele>
        <time>2009-07-12T08:21:01Z</time>
      </trkpt>
      <trkpt lat="44.98886" lon="3.67222">
        <ele>896</ele>
        <time>2009-07-12T08:21:09Z</time>
      </trkpt>
      <trkpt lat="44.98887" lon="3.67206">
        <ele>894</ele>
        <time>2009-07-12T08:21:13Z</time>
      </trkpt>
      <trkpt lat="44.9889" lon="3.67186">
        <ele>890</ele>
        <time>2009-07-12T08:21:18Z</time>
      </trkpt>
      <trkpt lat="44.98898" lon="3.67165">
        <ele>887</ele>
        <time>2009-07-12T08:21:23Z</time>
      </trkpt>
      <trkpt lat="44.98903" lon="3.67156">
        <ele>886</ele>
        <time>2009-07-12T08:21:25Z</time>
      </trkpt>
      <trkpt lat="44.98913" lon="3.67142">
        <ele>884</ele>
        <time>2009-07-12T08:21:29Z</time>
      </trkpt>
      <trkpt lat="44.98925" lon="3.67114">
        <ele>880</ele>
        <time>2009-07-12T08:21:36Z</time>
      </trkpt>
      <trkpt lat="44.98928" lon="3.671">
        <ele>878</ele>
        <time>2009-07-12T08:21:39Z</time>
      </trkpt>
      <trkpt lat="44.98934" lon="3.67086">
        <ele>875</ele>
        <time>2009-07-12T08:21:42Z</time>
      </trkpt>
      <trkpt lat="44.98941" lon="3.67055">
        <ele>872</ele>
        <time>2009-07-12T08:21:52Z</time>
      </trkpt>
      <trkpt lat="44.98941" lon="3.67053">
        <ele>872</ele>
        <time>2009-07-12T08:21:53Z</time>
      </trkpt>
      <trkpt lat="44.98935" lon="3.67047">
        <ele>871</ele>
        <time>2009-07-12T08:22:07Z</time>
      </trkpt>
      <trkpt lat="44.98931" lon="3.6705">
        <ele>871</ele>
        <time>2009-07-12T08:22:18Z</time>
      </trkpt>
      <trkpt lat="44.98928" lon="3.67053">
        <ele>871</ele>
        <time>2009-07-12T08:22:20Z</time>
      </trkpt>
      <trkpt lat="44.98912" lon="3.67052">
        <ele>876</ele>
        <time>2009-07-12T08:22:30Z</time>
      </trkpt>
      <trkpt lat="44.98904" lon="3.67052">
        <ele>877</ele>
        <time>2009-07-12T08:22:40Z</time>
      </trkpt>
      <trkpt lat="44.98902" lon="3.67052">
        <ele>877</ele>
        <time>2009-07-12T08:22:44Z</time>
      </trkpt>
      <trkpt lat="44.98896" lon="3.67052">
        <ele>877</ele>
        <time>2009-07-12T08:22:53Z</time>
      </trkpt>
      <trkpt lat="44.98883" lon="3.67052">
        <ele>878</ele>
        <time>2009-07-12T08:23:08Z</time>
      </trkpt>
      <trkpt lat="44.98882" lon="3.67052">
        <ele>879</ele>
        <time>2009-07-12T08:23:36Z</time>
      </trkpt>
      <trkpt lat="44.9888" lon="3.6705">
        <ele>879</ele>
        <time>2009-07-12T08:23:55Z</time>
      </trkpt>
      <trkpt lat="44.98866" lon="3.67032">
        <ele>882</ele>
        <time>2009-07-12T08:24:07Z</time>
      </trkpt>
      <trkpt lat="44.98855" lon="3.67021">
        <ele>884</ele>
        <time>2009-07-12T08:24:18Z</time>
      </trkpt>
      <trkpt lat="44.98849" lon="3.67016">
        <ele>886</ele>
        <time>2009-07-12T08:24:23Z</time>
      </trkpt>
      <trkpt lat="44.98848" lon="3.67007">
        <ele>886</ele>
        <time>2009-07-12T08:24:28Z</time>
      </trkpt>
      <trkpt lat="44.98833" lon="3.66984">
        <ele>888</ele>
        <time>2009-07-12T08:24:43Z</time>
      </trkpt>
      <trkpt lat="44.98816" lon="3.66956">
        <ele>891</ele>
        <time>2009-07-12T08:25:02Z</time>
      </trkpt>
      <trkpt lat="44.98814" lon="3.66945">
        <ele>894</ele>
        <time>2009-07-12T08:25:08Z</time>
      </trkpt>
      <trkpt lat="44.98816" lon="3.66939">
        <ele>894</ele>
        <time>2009-07-12T08:25:12Z</time>
      </trkpt>
      <trkpt lat="44.98832" lon="3.66927">
        <ele>898</ele>
        <time>2009-07-12T08:25:26Z</time>
      </trkpt>
      <trkpt lat="44.98842" lon="3.66904">
        <ele>900</ele>
        <time>2009-07-12T08:25:40Z</time>
      </trkpt>
      <trkpt lat="44.98841" lon="3.66872">
        <ele>902</ele>
        <time>2009-07-12T08:25:55Z</time>
      </trkpt>
      <trkpt lat="44.98844" lon="3.66837">
        <ele>904</ele>
        <time>2009-07-12T08:26:09Z</time>
      </trkpt>
      <trkpt lat="44.98833" lon="3.66803">
        <ele>907</ele>
        <time>2009-07-12T08:26:24Z</time>
      </trkpt>
      <trkpt lat="44.98813" lon="3.66778">
        <ele>909</ele>
        <time>2009-07-12T08:26:39Z</time>
      </trkpt>
      <trkpt lat="44.98809" lon="3.66771">
        <ele>910</ele>
        <time>2009-07-12T08:26:43Z</time>
      </trkpt>
      <trkpt lat="44.98805" lon="3.66765">
        <ele>911</ele>
        <time>2009-07-12T08:26:47Z</time>
      </trkpt>
      <trkpt lat="44.98801" lon="3.66758">
        <ele>913</ele>
        <time>2009-07-12T08:26:51Z</time>
      </trkpt>
      <trkpt lat="44.98784" lon="3.66732">
        <ele>915</ele>
        <time>2009-07-12T08:27:06Z</time>
      </trkpt>
      <trkpt lat="44.98781" lon="3.66722">
        <ele>917</ele>
        <time>2009-07-12T08:27:11Z</time>
      </trkpt>
      <trkpt lat="44.9878" lon="3.66708">
        <ele>920</ele>
        <time>2009-07-12T08:27:19Z</time>
      </trkpt>
      <trkpt lat="44.98785" lon="3.66678">
        <ele>923</ele>
        <time>2009-07-12T08:27:36Z</time>
      </trkpt>
      <trkpt lat="44.98792" lon="3.66656">
        <ele>926</ele>
        <time>2009-07-12T08:27:50Z</time>
      </trkpt>
      <trkpt lat="44.98787" lon="3.66631">
        <ele>927</ele>
        <time>2009-07-12T08:28:04Z</time>
      </trkpt>
      <trkpt lat="44.98783" lon="3.66622">
        <ele>928</ele>
        <time>2009-07-12T08:28:18Z</time>
      </trkpt>
      <trkpt lat="44.98783" lon="3.6662">
        <ele>928</ele>
        <time>2009-07-12T08:28:55Z</time>
      </trkpt>
      <trkpt lat="44.98782" lon="3.66619">
        <ele>928</ele>
        <time>2009-07-12T08:29:33Z</time>
      </trkpt>
      <trkpt lat="44.98783" lon="3.66618">
        <ele>928</ele>
        <time>2009-07-12T08:30:06Z</time>
      </trkpt>
      <trkpt lat="44.98784" lon="3.66616">
        <ele>929</ele>
        <time>2009-07-12T08:30:36Z</time>
      </trkpt>
      <trkpt lat="44.98772" lon="3.66584">
        <ele>929</ele>
        <time>2009-07-12T08:30:49Z</time>
      </trkpt>
      <trkpt lat="44.98762" lon="3.66528">
        <ele>930</ele>
        <time>2009-07-12T08:31:06Z</time>
      </trkpt>
      <trkpt lat="44.98729" lon="3.66469">
        <ele>931</ele>
        <time>2009-07-12T08:31:26Z</time>
      </trkpt>
      <trkpt lat="44.98702" lon="3.66452">
        <ele>931</ele>
        <time>2009-07-12T08:31:38Z</time>
      </trkpt>
      <trkpt lat="44.987" lon="3.6645">
        <ele>931</ele>
        <time>2009-07-12T08:32:00Z</time>
      </trkpt>
      <trkpt lat="44.98702" lon="3.6645">
        <ele>932</ele>
        <time>2009-07-12T08:32:46Z</time>
      </trkpt>
      <trkpt lat="44.987" lon="3.66449">
        <ele>931</ele>
        <time>2009-07-12T08:33:10Z</time>
      </trkpt>
      <trkpt lat="44.98672" lon="3.66426">
        <ele>933</ele>
        <time>2009-07-12T08:33:26Z</time>
      </trkpt>
      <trkpt lat="44.98634" lon="3.66411">
        <ele>935</ele>
        <time>2009-07-12T08:33:43Z</time>
      </trkpt>
      <trkpt lat="44.98609" lon="3.66397">
        <ele>937</ele>
        <time>2009-07-12T08:33:56Z</time>
      </trkpt>
      <trkpt lat="44.98601" lon="3.66395">
        <ele>938</ele>
        <time>2009-07-12T08:34:00Z</time>
      </trkpt>
      <trkpt lat="44.9859" lon="3.66386">
        <ele>942</ele>
        <time>2009-07-12T08:34:08Z</time>
      </trkpt>
      <trkpt lat="44.98589" lon="3.66384">
        <ele>944</ele>
        <time>2009-07-12T08:34:09Z</time>
      </trkpt>
      <trkpt lat="44.98578" lon="3.66372">
        <ele>946</ele>
        <time>2009-07-12T08:34:19Z</time>
      </trkpt>
      <trkpt lat="44.98576" lon="3.66348">
        <ele>948</ele>
        <time>2009-07-12T08:34:32Z</time>
      </trkpt>
      <trkpt lat="44.98571" lon="3.66317">
        <ele>951</ele>
        <time>2009-07-12T08:34:46Z</time>
      </trkpt>
      <trkpt lat="44.98567" lon="3.66295">
        <ele>953</ele>
        <time>2009-07-12T08:34:54Z</time>
      </trkpt>
      <trkpt lat="44.98565" lon="3.66283">
        <ele>951</ele>
        <time>2009-07-12T08:34:57Z</time>
      </trkpt>
      <trkpt lat="44.98563" lon="3.66247">
        <ele>949</ele>
        <time>2009-07-12T08:35:08Z</time>
      </trkpt>
      <trkpt lat="44.98577" lon="3.66228">
        <ele>949</ele>
        <time>2009-07-12T08:35:18Z</time>
      </trkpt>
      <trkpt lat="44.98601" lon="3.66191">
        <ele>948</ele>
        <time>2009-07-12T08:35:30Z</time>
      </trkpt>
      <trkpt lat="44.98615" lon="3.6617">
        <ele>947</ele>
        <time>2009-07-12T08:35:35Z</time>
      </trkpt>
      <trkpt lat="44.98623" lon="3.66156">
        <ele>946</ele>
        <time>2009-07-12T08:35:38Z</time>
      </trkpt>
      <trkpt lat="44.98635" lon="3.66092">
        <ele>948</ele>
        <time>2009-07-12T08:35:52Z</time>
      </trkpt>
      <trkpt lat="44.98634" lon="3.66038">
        <ele>949</ele>
        <time>2009-07-12T08:36:04Z</time>
      </trkpt>
      <trkpt lat="44.98639" lon="3.65949">
        <ele>949</ele>
        <time>2009-07-12T08:36:21Z</time>
      </trkpt>
      <trkpt lat="44.98637" lon="3.65897">
        <ele>947</ele>
        <time>2009-07-12T08:36:29Z</time>
      </trkpt>
      <trkpt lat="44.98619" lon="3.65861">
        <ele>947</ele>
        <time>2009-07-12T08:36:35Z</time>
      </trkpt>
      <trkpt lat="44.98563" lon="3.65824">
        <ele>948</ele>
        <time>2009-07-12T08:36:50Z</time>
      </trkpt>
      <trkpt lat="44.98516" lon="3.65783">
        <ele>948</ele>
        <time>2009-07-12T08:37:05Z</time>
      </trkpt>
      <trkpt lat="44.98501" lon="3.65766">
        <ele>949</ele>
        <time>2009-07-12T08:37:12Z</time>
      </trkpt>
      <trkpt lat="44.98505" lon="3.65777">
        <ele>949</ele>
        <time>2009-07-12T08:37:23Z</time>
      </trkpt>
      <trkpt lat="44.98502" lon="3.65774">
        <ele>949</ele>
        <time>2009-07-12T08:37:26Z</time>
      </trkpt>
      <trkpt lat="44.98502" lon="3.65763">
        <ele>950</ele>
        <time>2009-07-12T08:37:31Z</time>
      </trkpt>
      <trkpt lat="44.98499" lon="3.65729">
        <ele>952</ele>
        <time>2009-07-12T08:37:44Z</time>
      </trkpt>
      <trkpt lat="44.98503" lon="3.65682">
        <ele>952</ele>
        <time>2009-07-12T08:37:57Z</time>
      </trkpt>
      <trkpt lat="44.98507" lon="3.65667">
        <ele>952</ele>
        <time>2009-07-12T08:38:01Z</time>
      </trkpt>
      <trkpt lat="44.98502" lon="3.65607">
        <ele>951</ele>
        <time>2009-07-12T08:38:12Z</time>
      </trkpt>
      <trkpt lat="44.98504" lon="3.65524">
        <ele>951</ele>
        <time>2009-07-12T08:38:28Z</time>
      </trkpt>
      <trkpt lat="44.98507" lon="3.65496">
        <ele>947</ele>
        <time>2009-07-12T08:38:32Z</time>
      </trkpt>
      <trkpt lat="44.98507" lon="3.65487">
        <ele>947</ele>
        <time>2009-07-12T08:38:33Z</time>
      </trkpt>
      <trkpt lat="44.98518" lon="3.65434">
        <ele>947</ele>
        <time>2009-07-12T08:38:40Z</time>
      </trkpt>
      <trkpt lat="44.98526" lon="3.6541">
        <ele>947</ele>
        <time>2009-07-12T08:38:44Z</time>
      </trkpt>
      <trkpt lat="44.98536" lon="3.65392">
        <ele>947</ele>
        <time>2009-07-12T08:38:48Z</time>
      </trkpt>
      <trkpt lat="44.98548" lon="3.65372">
        <ele>948</ele>
        <time>2009-07-12T08:38:56Z</time>
      </trkpt>
      <trkpt lat="44.98553" lon="3.65355">
        <ele>946</ele>
        <time>2009-07-12T08:39:04Z</time>
      </trkpt>
      <trkpt lat="44.98575" lon="3.65325">
        <ele>944</ele>
        <time>2009-07-12T08:39:15Z</time>
      </trkpt>
      <trkpt lat="44.98595" lon="3.65296">
        <ele>940</ele>
        <time>2009-07-12T08:39:24Z</time>
      </trkpt>
      <trkpt lat="44.98599" lon="3.65292">
        <ele>940</ele>
        <time>2009-07-12T08:39:25Z</time>
      </trkpt>
      <trkpt lat="44.98612" lon="3.65275">
        <ele>937</ele>
        <time>2009-07-12T08:39:31Z</time>
      </trkpt>
      <trkpt lat="44.98619" lon="3.65268">
        <ele>936</ele>
        <time>2009-07-12T08:39:33Z</time>
      </trkpt>
      <trkpt lat="44.98639" lon="3.65235">
        <ele>934</ele>
        <time>2009-07-12T08:39:41Z</time>
      </trkpt>
      <trkpt lat="44.98622" lon="3.65189">
        <ele>933</ele>
        <time>2009-07-12T08:39:51Z</time>
      </trkpt>
      <trkpt lat="44.98605" lon="3.65143">
        <ele>934</ele>
        <time>2009-07-12T08:40:03Z</time>
      </trkpt>
      <trkpt lat="44.98601" lon="3.65104">
        <ele>937</ele>
        <time>2009-07-12T08:40:13Z</time>
      </trkpt>
      <trkpt lat="44.98603" lon="3.65063">
        <ele>938</ele>
        <time>2009-07-12T08:40:24Z</time>
      </trkpt>
      <trkpt lat="44.98613" lon="3.65005">
        <ele>940</ele>
        <time>2009-07-12T08:40:39Z</time>
      </trkpt>
      <trkpt lat="44.98619" lon="3.64959">
        <ele>941</ele>
        <time>2009-07-12T08:40:50Z</time>
      </trkpt>
      <trkpt lat="44.98624" lon="3.64922">
        <ele>944</ele>
        <time>2009-07-12T08:41:02Z</time>
      </trkpt>
      <trkpt lat="44.98622" lon="3.64894">
        <ele>946</ele>
        <time>2009-07-12T08:41:11Z</time>
      </trkpt>
      <trkpt lat="44.98621" lon="3.64886">
        <ele>948</ele>
        <time>2009-07-12T08:41:14Z</time>
      </trkpt>
      <trkpt lat="44.98619" lon="3.64849">
        <ele>951</ele>
        <time>2009-07-12T08:41:27Z</time>
      </trkpt>
      <trkpt lat="44.98625" lon="3.64832">
        <ele>952</ele>
        <time>2009-07-12T08:41:36Z</time>
      </trkpt>
      <trkpt lat="44.98627" lon="3.64823">
        <ele>951</ele>
        <time>2009-07-12T08:41:40Z</time>
      </trkpt>
      <trkpt lat="44.98623" lon="3.64802">
        <ele>949</ele>
        <time>2009-07-12T08:41:46Z</time>
      </trkpt>
      <trkpt lat="44.98621" lon="3.6479">
        <ele>948</ele>
        <time>2009-07-12T08:41:50Z</time>
      </trkpt>
      <trkpt lat="44.98619" lon="3.64787">
        <ele>948</ele>
        <time>2009-07-12T08:42:01Z</time>
      </trkpt>
      <trkpt lat="44.98612" lon="3.64783">
        <ele>948</ele>
        <time>2009-07-12T08:42:14Z</time>
      </trkpt>
      <trkpt lat="44.98611" lon="3.64784">
        <ele>948</ele>
        <time>2009-07-12T08:42:31Z</time>
      </trkpt>
      <trkpt lat="44.98615" lon="3.64787">
        <ele>948</ele>
        <time>2009-07-12T08:42:58Z</time>
      </trkpt>
      <trkpt lat="44.98616" lon="3.64787">
        <ele>948</ele>
        <time>2009-07-12T08:43:04Z</time>
      </trkpt>
      <trkpt lat="44.98611" lon="3.64778">
        <ele>948</ele>
        <time>2009-07-12T08:43:09Z</time>
      </trkpt>
      <trkpt lat="44.98588" lon="3.64756">
        <ele>951</ele>
        <time>2009-07-12T08:43:25Z</time>
      </trkpt>
      <trkpt lat="44.98585" lon="3.64755">
        <ele>951</ele>
        <time>2009-07-12T08:43:27Z</time>
      </trkpt>
      <trkpt lat="44.98575" lon="3.64742">
        <ele>955</ele>
        <time>2009-07-12T08:43:36Z</time>
      </trkpt>
      <trkpt lat="44.98574" lon="3.64742">
        <ele>956</ele>
        <time>2009-07-12T08:43:37Z</time>
      </trkpt>
      <trkpt lat="44.98567" lon="3.64737">
        <ele>958</ele>
        <time>2009-07-12T08:43:42Z</time>
      </trkpt>
      <trkpt lat="44.98561" lon="3.64728">
        <ele>959</ele>
        <time>2009-07-12T08:43:54Z</time>
      </trkpt>
      <trkpt lat="44.98562" lon="3.64729">
        <ele>958</ele>
        <time>2009-07-12T08:44:24Z</time>
      </trkpt>
      <trkpt lat="44.98563" lon="3.64732">
        <ele>958</ele>
        <time>2009-07-12T08:45:53Z</time>
      </trkpt>
      <trkpt lat="44.98563" lon="3.64732">
        <ele>958</ele>
        <time>2009-07-12T08:47:09Z</time>
      </trkpt>
      <trkpt lat="44.98563" lon="3.64732">
        <ele>958</ele>
        <time>2009-07-12T08:47:57Z</time>
      </trkpt>
      <trkpt lat="44.98564" lon="3.64738">
        <ele>958</ele>
        <time>2009-07-12T08:48:11Z</time>
      </trkpt>
      <trkpt lat="44.98565" lon="3.64739">
        <ele>958</ele>
        <time>2009-07-12T08:48:19Z</time>
      </trkpt>
      <trkpt lat="44.98574" lon="3.64746">
        <ele>956</ele>
        <time>2009-07-12T08:48:24Z</time>
      </trkpt>
      <trkpt lat="44.98593" lon="3.64762">
        <ele>952</ele>
        <time>2009-07-12T08:48:29Z</time>
      </trkpt>
      <trkpt lat="44.98594" lon="3.64765">
        <ele>952</ele>
        <time>2009-07-12T08:48:30Z</time>
      </trkpt>
      <trkpt lat="44.98598" lon="3.64764">
        <ele>951</ele>
        <time>2009-07-12T08:48:33Z</time>
      </trkpt>
      <trkpt lat="44.98599" lon="3.64769">
        <ele>951</ele>
        <time>2009-07-12T08:48:37Z</time>
      </trkpt>
      <trkpt lat="44.9859" lon="3.64788">
        <ele>948</ele>
        <time>2009-07-12T08:48:42Z</time>
      </trkpt>
      <trkpt lat="44.9856" lon="3.64779">
        <ele>945</ele>
        <time>2009-07-12T08:48:51Z</time>
      </trkpt>
      <trkpt lat="44.98536" lon="3.64754">
        <ele>944</ele>
        <time>2009-07-12T08:49:00Z</time>
      </trkpt>
      <trkpt lat="44.98521" lon="3.64743">
        <ele>941</ele>
        <time>2009-07-12T08:49:05Z</time>
      </trkpt>
      <trkpt lat="44.98518" lon="3.64741">
        <ele>940</ele>
        <time>2009-07-12T08:49:06Z</time>
      </trkpt>
      <trkpt lat="44.98507" lon="3.64735">
        <ele>937</ele>
        <time>2009-07-12T08:49:14Z</time>
      </trkpt>
      <trkpt lat="44.985" lon="3.6474">
        <ele>933</ele>
        <time>2009-07-12T08:49:17Z</time>
      </trkpt>
      <trkpt lat="44.9849" lon="3.64746">
        <ele>930</ele>
        <time>2009-07-12T08:49:20Z</time>
      </trkpt>
      <trkpt lat="44.98469" lon="3.64746">
        <ele>927</ele>
        <time>2009-07-12T08:49:25Z</time>
      </trkpt>
      <trkpt lat="44.98444" lon="3.6475">
        <ele>925</ele>
        <time>2009-07-12T08:49:33Z</time>
      </trkpt>
      <trkpt lat="44.98434" lon="3.64748">
        <ele>922</ele>
        <time>2009-07-12T08:49:38Z</time>
      </trkpt>
      <trkpt lat="44.9843" lon="3.64748">
        <ele>919</ele>
        <time>2009-07-12T08:49:40Z</time>
      </trkpt>
      <trkpt lat="44.98425" lon="3.64749">
        <ele>917</ele>
        <time>2009-07-12T08:49:43Z</time>
      </trkpt>
      <trkpt lat="44.98422" lon="3.6475">
        <ele>916</ele>
        <time>2009-07-12T08:49:46Z</time>
      </trkpt>
      <trkpt lat="44.98409" lon="3.6475">
        <ele>913</ele>
        <time>2009-07-12T08:49:52Z</time>
      </trkpt>
      <trkpt lat="44.98406" lon="3.64749">
        <ele>912</ele>
        <time>2009-07-12T08:49:53Z</time>
      </trkpt>
      <trkpt lat="44.98376" lon="3.6475">
        <ele>910</ele>
        <time>2009-07-12T08:50:01Z</time>
      </trkpt>
      <trkpt lat="44.98346" lon="3.64754">
        <ele>908</ele>
        <time>2009-07-12T08:50:10Z</time>
      </trkpt>
      <trkpt lat="44.98344" lon="3.64754">
        <ele>908</ele>
        <time>2009-07-12T08:50:11Z</time>
      </trkpt>
      <trkpt lat="44.98337" lon="3.64751">
        <ele>906</ele>
        <time>2009-07-12T08:50:26Z</time>
      </trkpt>
      <trkpt lat="44.98333" lon="3.64749">
        <ele>904</ele>
        <time>2009-07-12T08:50:46Z</time>
      </trkpt>
      <trkpt lat="44.9833" lon="3.64752">
        <ele>903</ele>
        <time>2009-07-12T08:50:50Z</time>
      </trkpt>
      <trkpt lat="44.98324" lon="3.64749">
        <ele>903</ele>
        <time>2009-07-12T08:51:02Z</time>
      </trkpt>
      <trkpt lat="44.98321" lon="3.64744">
        <ele>903</ele>
        <time>2009-07-12T08:51:06Z</time>
      </trkpt>
      <trkpt lat="44.98316" lon="3.64737">
        <ele>902</ele>
        <time>2009-07-12T08:51:17Z</time>
      </trkpt>
      <trkpt lat="44.9831" lon="3.64732">
        <ele>899</ele>
        <time>2009-07-12T08:51:41Z</time>
      </trkpt>
      <trkpt lat="44.98304" lon="3.64735">
        <ele>897</ele>
        <time>2009-07-12T08:51:52Z</time>
      </trkpt>
      <trkpt lat="44.98302" lon="3.64742">
        <ele>895</ele>
        <time>2009-07-12T08:52:06Z</time>
      </trkpt>
      <trkpt lat="44.98299" lon="3.64739">
        <ele>894</ele>
        <time>2009-07-12T08:52:13Z</time>
      </trkpt>
      <trkpt lat="44.98293" lon="3.6474">
        <ele>892</ele>
        <time>2009-07-12T08:52:25Z</time>
      </trkpt>
      <trkpt lat="44.98288" lon="3.6474">
        <ele>890</ele>
        <time>2009-07-12T08:52:36Z</time>
      </trkpt>
      <trkpt lat="44.98279" lon="3.64742">
        <ele>887</ele>
        <time>2009-07-12T08:52:45Z</time>
      </trkpt>
      <trkpt lat="44.98276" lon="3.64743">
        <ele>886</ele>
        <time>2009-07-12T08:52:48Z</time>
      </trkpt>
      <trkpt lat="44.98272" lon="3.64755">
        <ele>884</ele>
        <time>2009-07-12T08:52:59Z</time>
      </trkpt>
      <trkpt lat="44.98271" lon="3.64762">
        <ele>883</ele>
        <time>2009-07-12T08:53:11Z</time>
      </trkpt>
      <trkpt lat="44.98269" lon="3.64761">
        <ele>884</ele>
        <time>2009-07-12T08:53:18Z</time>
      </trkpt>
      <trkpt lat="44.98266" lon="3.6476">
        <ele>882</ele>
        <time>2009-07-12T08:53:20Z</time>
      </trkpt>
      <trkpt lat="44.9826" lon="3.64757">
        <ele>881</ele>
        <time>2009-07-12T08:53:22Z</time>
      </trkpt>
      <trkpt lat="44.98257" lon="3.64757">
        <ele>879</ele>
        <time>2009-07-12T08:53:23Z</time>
      </trkpt>
      <trkpt lat="44.98252" lon="3.64756">
        <ele>877</ele>
        <time>2009-07-12T08:53:25Z</time>
      </trkpt>
      <trkpt lat="44.98241" lon="3.64753">
        <ele>874</ele>
        <time>2009-07-12T08:53:30Z</time>
      </trkpt>
      <trkpt lat="44.98219" lon="3.64754">
        <ele>872</ele>
        <time>2009-07-12T08:53:38Z</time>
      </trkpt>
      <trkpt lat="44.98218" lon="3.64751">
        <ele>872</ele>
        <time>2009-07-12T08:53:55Z</time>
      </trkpt>
      <trkpt lat="44.98215" lon="3.64751">
        <ele>870</ele>
        <time>2009-07-12T08:54:20Z</time>
      </trkpt>
      <trkpt lat="44.98223" lon="3.64751">
        <ele>870</ele>
        <time>2009-07-12T08:54:51Z</time>
      </trkpt>
      <trkpt lat="44.98225" lon="3.6475">
        <ele>871</ele>
        <time>2009-07-12T08:55:04Z</time>
      </trkpt>
      <trkpt lat="44.9822" lon="3.64755">
        <ele>872</ele>
        <time>2009-07-12T08:57:09Z</time>
      </trkpt>
      <trkpt lat="44.98218" lon="3.64756">
        <ele>872</ele>
        <time>2009-07-12T08:58:51Z</time>
      </trkpt>
      <trkpt lat="44.98213" lon="3.64758">
        <ele>871</ele>
        <time>2009-07-12T08:58:54Z</time>
      </trkpt>
      <trkpt lat="44.98204" lon="3.64758">
        <ele>870</ele>
        <time>2009-07-12T08:58:58Z</time>
      </trkpt>
      <trkpt lat="44.982" lon="3.64766">
        <ele>868</ele>
        <time>2009-07-12T08:59:02Z</time>
      </trkpt>
      <trkpt lat="44.98197" lon="3.64781">
        <ele>864</ele>
        <time>2009-07-12T08:59:07Z</time>
      </trkpt>
      <trkpt lat="44.98196" lon="3.64784">
        <ele>864</ele>
        <time>2009-07-12T08:59:08Z</time>
      </trkpt>
      <trkpt lat="44.98183" lon="3.64776">
        <ele>861</ele>
        <time>2009-07-12T08:59:13Z</time>
      </trkpt>
      <trkpt lat="44.98169" lon="3.64766">
        <ele>856</ele>
        <time>2009-07-12T08:59:18Z</time>
      </trkpt>
      <trkpt lat="44.98167" lon="3.64763">
        <ele>856</ele>
        <time>2009-07-12T08:59:19Z</time>
      </trkpt>
      <trkpt lat="44.98165" lon="3.6476">
        <ele>856</ele>
        <time>2009-07-12T08:59:21Z</time>
      </trkpt>
      <trkpt lat="44.98162" lon="3.64759">
        <ele>855</ele>
        <time>2009-07-12T08:59:24Z</time>
      </trkpt>
      <trkpt lat="44.98152" lon="3.6476">
        <ele>852</ele>
        <time>2009-07-12T08:59:28Z</time>
      </trkpt>
      <trkpt lat="44.98145" lon="3.64765">
        <ele>849</ele>
        <time>2009-07-12T08:59:32Z</time>
      </trkpt>
      <trkpt lat="44.98139" lon="3.64766">
        <ele>849</ele>
        <time>2009-07-12T08:59:41Z</time>
      </trkpt>
      <trkpt lat="44.98136" lon="3.64762">
        <ele>849</ele>
        <time>2009-07-12T08:59:56Z</time>
      </trkpt>
      <trkpt lat="44.98135" lon="3.64761">
        <ele>849</ele>
        <time>2009-07-12T08:59:59Z</time>
      </trkpt>
      <trkpt lat="44.98132" lon="3.64755">
        <ele>848</ele>
        <time>2009-07-12T09:00:12Z</time>
      </trkpt>
      <trkpt lat="44.98132" lon="3.64758">
        <ele>848</ele>
        <time>2009-07-12T09:00:28Z</time>
      </trkpt>
      <trkpt lat="44.98131" lon="3.64759">
        <ele>848</ele>
        <time>2009-07-12T09:00:57Z</time>
      </trkpt>
      <trkpt lat="44.98128" lon="3.64756">
        <ele>848</ele>
        <time>2009-07-12T09:01:46Z</time>
      </trkpt>
      <trkpt lat="44.98132" lon="3.64756">
        <ele>846</ele>
        <time>2009-07-12T09:02:34Z</time>
      </trkpt>
      <trkpt lat="44.98131" lon="3.64757">
        <ele>846</ele>
        <time>2009-07-12T09:02:48Z</time>
      </trkpt>
      <trkpt lat="44.98131" lon="3.64743">
        <ele>846</ele>
        <time>2009-07-12T09:02:53Z</time>
      </trkpt>
      <trkpt lat="44.98124" lon="3.64748">
        <ele>843</ele>
        <time>2009-07-12T09:03:01Z</time>
      </trkpt>
      <trkpt lat="44.9812" lon="3.64754">
        <ele>841</ele>
        <time>2009-07-12T09:03:14Z</time>
      </trkpt>
      <trkpt lat="44.98116" lon="3.64763">
        <ele>839</ele>
        <time>2009-07-12T09:03:24Z</time>
      </trkpt>
      <trkpt lat="44.98113" lon="3.64767">
        <ele>837</ele>
        <time>2009-07-12T09:03:27Z</time>
      </trkpt>
      <trkpt lat="44.98112" lon="3.64769">
        <ele>836</ele>
        <time>2009-07-12T09:03:28Z</time>
      </trkpt>
      <trkpt lat="44.98109" lon="3.64775">
        <ele>835</ele>
        <time>2009-07-12T09:03:30Z</time>
      </trkpt>
      <trkpt lat="44.98103" lon="3.64772">
        <ele>834</ele>
        <time>2009-07-12T09:03:32Z</time>
      </trkpt>
      <trkpt lat="44.98089" lon="3.64767">
        <ele>830</ele>
        <time>2009-07-12T09:03:37Z</time>
      </trkpt>
      <trkpt lat="44.98074" lon="3.64773">
        <ele>828</ele>
        <time>2009-07-12T09:03:44Z</time>
      </trkpt>
      <trkpt lat="44.98066" lon="3.64779">
        <ele>826</ele>
        <time>2009-07-12T09:03:48Z</time>
      </trkpt>
      <trkpt lat="44.98051" lon="3.64795">
        <ele>823</ele>
        <time>2009-07-12T09:03:55Z</time>
      </trkpt>
      <trkpt lat="44.98049" lon="3.64798">
        <ele>822</ele>
        <time>2009-07-12T09:03:56Z</time>
      </trkpt>
      <trkpt lat="44.98038" lon="3.64812">
        <ele>818</ele>
        <time>2009-07-12T09:04:01Z</time>
      </trkpt>
      <trkpt lat="44.98022" lon="3.64827">
        <ele>814</ele>
        <time>2009-07-12T09:04:08Z</time>
      </trkpt>
      <trkpt lat="44.98011" lon="3.64839">
        <ele>810</ele>
        <time>2009-07-12T09:04:12Z</time>
      </trkpt>
      <trkpt lat="44.98004" lon="3.64843">
        <ele>809</ele>
        <time>2009-07-12T09:04:14Z</time>
      </trkpt>
      <trkpt lat="44.97976" lon="3.6486">
        <ele>807</ele>
        <time>2009-07-12T09:04:23Z</time>
      </trkpt>
      <trkpt lat="44.97966" lon="3.64864">
        <ele>805</ele>
        <time>2009-07-12T09:04:26Z</time>
      </trkpt>
      <trkpt lat="44.97945" lon="3.64877">
        <ele>800</ele>
        <time>2009-07-12T09:04:33Z</time>
      </trkpt>
      <trkpt lat="44.97934" lon="3.64879">
        <ele>801</ele>
        <time>2009-07-12T09:04:38Z</time>
      </trkpt>
      <trkpt lat="44.97925" lon="3.64879">
        <ele>801</ele>
        <time>2009-07-12T09:04:52Z</time>
      </trkpt>
      <trkpt lat="44.9792" lon="3.64881">
        <ele>799</ele>
        <time>2009-07-12T09:05:01Z</time>
      </trkpt>
      <trkpt lat="44.97915" lon="3.64887">
        <ele>796</ele>
        <time>2009-07-12T09:05:09Z</time>
      </trkpt>
      <trkpt lat="44.97916" lon="3.64889">
        <ele>796</ele>
        <time>2009-07-12T09:08:15Z</time>
      </trkpt>
      <trkpt lat="44.97905" lon="3.64893">
        <ele>793</ele>
        <time>2009-07-12T09:08:20Z</time>
      </trkpt>
      <trkpt lat="44.979" lon="3.64893">
        <ele>791</ele>
        <time>2009-07-12T09:08:22Z</time>
      </trkpt>
      <trkpt lat="44.97892" lon="3.64894">
        <ele>790</ele>
        <time>2009-07-12T09:08:25Z</time>
      </trkpt>
      <trkpt lat="44.97879" lon="3.64893">
        <ele>788</ele>
        <time>2009-07-12T09:08:36Z</time>
      </trkpt>
      <trkpt lat="44.97877" lon="3.64895">
        <ele>786</ele>
        <time>2009-07-12T09:08:40Z</time>
      </trkpt>
      <trkpt lat="44.97871" lon="3.64896">
        <ele>784</ele>
        <time>2009-07-12T09:08:44Z</time>
      </trkpt>
      <trkpt lat="44.9786" lon="3.64888">
        <ele>783</ele>
        <time>2009-07-12T09:08:52Z</time>
      </trkpt>
      <trkpt lat="44.97857" lon="3.64881">
        <ele>783</ele>
        <time>2009-07-12T09:09:02Z</time>
      </trkpt>
      <trkpt lat="44.97854" lon="3.64882">
        <ele>781</ele>
        <time>2009-07-12T09:09:11Z</time>
      </trkpt>
      <trkpt lat="44.97853" lon="3.64881">
        <ele>781</ele>
        <time>2009-07-12T09:09:14Z</time>
      </trkpt>
      <trkpt lat="44.97852" lon="3.64879">
        <ele>781</ele>
        <time>2009-07-12T09:09:16Z</time>
      </trkpt>
      <trkpt lat="44.97839" lon="3.64879">
        <ele>780</ele>
        <time>2009-07-12T09:09:26Z</time>
      </trkpt>
      <trkpt lat="44.97836" lon="3.64878">
        <ele>779</ele>
        <time>2009-07-12T09:09:42Z</time>
      </trkpt>
      <trkpt lat="44.97838" lon="3.6488">
        <ele>779</ele>
        <time>2009-07-12T09:09:59Z</time>
      </trkpt>
      <trkpt lat="44.97837" lon="3.64878">
        <ele>778</ele>
        <time>2009-07-12T09:10:33Z</time>
      </trkpt>
      <trkpt lat="44.97838" lon="3.64875">
        <ele>778</ele>
        <time>2009-07-12T09:11:06Z</time>
      </trkpt>
      <trkpt lat="44.97839" lon="3.64875">
        <ele>777</ele>
        <time>2009-07-12T09:11:39Z</time>
      </trkpt>
      <trkpt lat="44.97838" lon="3.64876">
        <ele>778</ele>
        <time>2009-07-12T09:11:53Z</time>
      </trkpt>
      <trkpt lat="44.97837" lon="3.64874">
        <ele>775</ele>
        <time>2009-07-12T09:12:24Z</time>
      </trkpt>
      <trkpt lat="44.97837" lon="3.64874">
        <ele>779</ele>
        <time>2009-07-12T09:12:25Z</time>
      </trkpt>
      <trkpt lat="44.97837" lon="3.64874">
        <ele>783</ele>
        <time>2009-07-12T09:12:26Z</time>
      </trkpt>
      <trkpt lat="44.97837" lon="3.64874">
        <ele>779</ele>
        <time>2009-07-12T09:12:27Z</time>
      </trkpt>
      <trkpt lat="44.97836" lon="3.64874">
        <ele>775</ele>
        <time>2009-07-12T09:12:37Z</time>
      </trkpt>
      <trkpt lat="44.97836" lon="3.64874">
        <ele>779</ele>
        <time>2009-07-12T09:12:38Z</time>
      </trkpt>
      <trkpt lat="44.97836" lon="3.64874">
        <ele>783</ele>
        <time>2009-07-12T09:12:39Z</time>
      </trkpt>
      <trkpt lat="44.97836" lon="3.64874">
        <ele>776</ele>
        <time>2009-07-12T09:12:40Z</time>
      </trkpt>
      <trkpt lat="44.97836" lon="3.64874">
        <ele>780</ele>
        <time>2009-07-12T09:12:43Z</time>
      </trkpt>
      <trkpt lat="44.97839" lon="3.64877">
        <ele>779</ele>
        <time>2009-07-12T09:13:31Z</time>
      </trkpt>
      <trkpt lat="44.97839" lon="3.64877">
        <ele>778</ele>
        <time>2009-07-12T09:13:39Z</time>
      </trkpt>
      <trkpt lat="44.97841" lon="3.64876">
        <ele>778</ele>
        <time>2009-07-12T09:15:40Z</time>
      </trkpt>
      <trkpt lat="44.97834" lon="3.64874">
        <ele>777</ele>
        <time>2009-07-12T09:16:23Z</time>
      </trkpt>
      <trkpt lat="44.97845" lon="3.64882">
        <ele>776</ele>
        <time>2009-07-12T09:17:53Z</time>
      </trkpt>
      <trkpt lat="44.97841" lon="3.64883">
        <ele>776</ele>
        <time>2009-07-12T09:19:53Z</time>
      </trkpt>
      <trkpt lat="44.9784" lon="3.64883">
        <ele>777</ele>
        <time>2009-07-12T09:23:15Z</time>
      </trkpt>
      <trkpt lat="44.9784" lon="3.64874">
        <ele>778</ele>
        <time>2009-07-12T09:23:54Z</time>
      </trkpt>
      <trkpt lat="44.97841" lon="3.64872">
        <ele>778</ele>
        <time>2009-07-12T09:23:56Z</time>
      </trkpt>
      <trkpt lat="44.9784" lon="3.64869">
        <ele>778</ele>
        <time>2009-07-12T09:23:58Z</time>
      </trkpt>
      <trkpt lat="44.97831" lon="3.64861">
        <ele>778</ele>
        <time>2009-07-12T09:24:10Z</time>
      </trkpt>
      <trkpt lat="44.97831" lon="3.64862">
        <ele>779</ele>
        <time>2009-07-12T09:24:11Z</time>
      </trkpt>
      <trkpt lat="44.97836" lon="3.64865">
        <ele>778</ele>
        <time>2009-07-12T09:24:22Z</time>
      </trkpt>
      <trkpt lat="44.97835" lon="3.6487">
        <ele>778</ele>
        <time>2009-07-12T09:24:28Z</time>
      </trkpt>
      <trkpt lat="44.97836" lon="3.64877">
        <ele>778</ele>
        <time>2009-07-12T09:24:44Z</time>
      </trkpt>
      <trkpt lat="44.97837" lon="3.64878">
        <ele>778</ele>
        <time>2009-07-12T09:24:46Z</time>
      </trkpt>
      <trkpt lat="44.97839" lon="3.64877">
        <ele>778</ele>
        <time>2009-07-12T09:24:50Z</time>
      </trkpt>
      <trkpt lat="44.97837" lon="3.64878">
        <ele>779</ele>
        <time>2009-07-12T09:24:57Z</time>
      </trkpt>
      <trkpt lat="44.97838" lon="3.6488">
        <ele>777</ele>
        <time>2009-07-12T09:25:11Z</time>
      </trkpt>
      <trkpt lat="44.9784" lon="3.64878">
        <ele>777</ele>
        <time>2009-07-12T09:25:22Z</time>
      </trkpt>
      <trkpt lat="44.97839" lon="3.64881">
        <ele>778</ele>
        <time>2009-07-12T09:25:26Z</time>
      </trkpt>
      <trkpt lat="44.9784" lon="3.64883">
        <ele>778</ele>
        <time>2009-07-12T09:25:41Z</time>
      </trkpt>
      <trkpt lat="44.97844" lon="3.64884">
        <ele>777</ele>
        <time>2009-07-12T09:26:08Z</time>
      </trkpt>
      <trkpt lat="44.9785" lon="3.6489">
        <ele>777</ele>
        <time>2009-07-12T09:26:12Z</time>
      </trkpt>
      <trkpt lat="44.97861" lon="3.64905">
        <ele>776</ele>
        <time>2009-07-12T09:26:17Z</time>
      </trkpt>
      <trkpt lat="44.97873" lon="3.64924">
        <ele>775</ele>
        <time>2009-07-12T09:26:21Z</time>
      </trkpt>
      <trkpt lat="44.9788" lon="3.64959">
        <ele>775</ele>
        <time>2009-07-12T09:26:26Z</time>
      </trkpt>
      <trkpt lat="44.97881" lon="3.65006">
        <ele>777</ele>
        <time>2009-07-12T09:26:38Z</time>
      </trkpt>
      <trkpt lat="44.97881" lon="3.65008">
        <ele>778</ele>
        <time>2009-07-12T09:26:39Z</time>
      </trkpt>
      <trkpt lat="44.97882" lon="3.65021">
        <ele>778</ele>
        <time>2009-07-12T09:26:45Z</time>
      </trkpt>
      <trkpt lat="44.97885" lon="3.65045">
        <ele>781</ele>
        <time>2009-07-12T09:26:58Z</time>
      </trkpt>
      <trkpt lat="44.97891" lon="3.65069">
        <ele>784</ele>
        <time>2009-07-12T09:27:12Z</time>
      </trkpt>
      <trkpt lat="44.97896" lon="3.65085">
        <ele>787</ele>
        <time>2009-07-12T09:27:21Z</time>
      </trkpt>
      <trkpt lat="44.97901" lon="3.65088">
        <ele>788</ele>
        <time>2009-07-12T09:27:25Z</time>
      </trkpt>
      <trkpt lat="44.97904" lon="3.65088">
        <ele>788</ele>
        <time>2009-07-12T09:27:27Z</time>
      </trkpt>
      <trkpt lat="44.97909" lon="3.65087">
        <ele>788</ele>
        <time>2009-07-12T09:27:31Z</time>
      </trkpt>
      <trkpt lat="44.97921" lon="3.65096">
        <ele>790</ele>
        <time>2009-07-12T09:27:41Z</time>
      </trkpt>
      <trkpt lat="44.97915" lon="3.6513">
        <ele>793</ele>
        <time>2009-07-12T09:27:58Z</time>
      </trkpt>
      <trkpt lat="44.97902" lon="3.6517">
        <ele>794</ele>
        <time>2009-07-12T09:28:13Z</time>
      </trkpt>
      <trkpt lat="44.97898" lon="3.65181">
        <ele>796</ele>
        <time>2009-07-12T09:28:17Z</time>
      </trkpt>
      <trkpt lat="44.97879" lon="3.65232">
        <ele>797</ele>
        <time>2009-07-12T09:28:35Z</time>
      </trkpt>
      <trkpt lat="44.97858" lon="3.65282">
        <ele>800</ele>
        <time>2009-07-12T09:28:52Z</time>
      </trkpt>
      <trkpt lat="44.97826" lon="3.65332">
        <ele>799</ele>
        <time>2009-07-12T09:29:12Z</time>
      </trkpt>
      <trkpt lat="44.97792" lon="3.65369">
        <ele>798</ele>
        <time>2009-07-12T09:29:26Z</time>
      </trkpt>
      <trkpt lat="44.97759" lon="3.65403">
        <ele>794</ele>
        <time>2009-07-12T09:29:34Z</time>
      </trkpt>
      <trkpt lat="44.97753" lon="3.65408">
        <ele>792</ele>
        <time>2009-07-12T09:29:35Z</time>
      </trkpt>
      <trkpt lat="44.97734" lon="3.65441">
        <ele>789</ele>
        <time>2009-07-12T09:29:39Z</time>
      </trkpt>
      <trkpt lat="44.97696" lon="3.65549">
        <ele>785</ele>
        <time>2009-07-12T09:29:50Z</time>
      </trkpt>
      <trkpt lat="44.97686" lon="3.65602">
        <ele>783</ele>
        <time>2009-07-12T09:30:01Z</time>
      </trkpt>
      <trkpt lat="44.97687" lon="3.65606">
        <ele>784</ele>
        <time>2009-07-12T09:30:03Z</time>
      </trkpt>
      <trkpt lat="44.97687" lon="3.65611">
        <ele>785</ele>
        <time>2009-07-12T09:30:05Z</time>
      </trkpt>
      <trkpt lat="44.97684" lon="3.65614">
        <ele>784</ele>
        <time>2009-07-12T09:30:07Z</time>
      </trkpt>
      <trkpt lat="44.97672" lon="3.65613">
        <ele>782</ele>
        <time>2009-07-12T09:30:11Z</time>
      </trkpt>
      <trkpt lat="44.97633" lon="3.65587">
        <ele>783</ele>
        <time>2009-07-12T09:30:25Z</time>
      </trkpt>
      <trkpt lat="44.97603" lon="3.6557">
        <ele>783</ele>
        <time>2009-07-12T09:30:39Z</time>
      </trkpt>
      <trkpt lat="44.97568" lon="3.65549">
        <ele>782</ele>
        <time>2009-07-12T09:30:51Z</time>
      </trkpt>
      <trkpt lat="44.97498" lon="3.65511">
        <ele>780</ele>
        <time>2009-07-12T09:31:09Z</time>
      </trkpt>
      <trkpt lat="44.97475" lon="3.65514">
        <ele>779</ele>
        <time>2009-07-12T09:31:14Z</time>
      </trkpt>
      <trkpt lat="44.97461" lon="3.65524">
        <ele>778</ele>
        <time>2009-07-12T09:31:17Z</time>
      </trkpt>
      <trkpt lat="44.97425" lon="3.65581">
        <ele>776</ele>
        <time>2009-07-12T09:31:27Z</time>
      </trkpt>
      <trkpt lat="44.97421" lon="3.65587">
        <ele>776</ele>
        <time>2009-07-12T09:31:28Z</time>
      </trkpt>
      <trkpt lat="44.97401" lon="3.656">
        <ele>775</ele>
        <time>2009-07-12T09:31:32Z</time>
      </trkpt>
      <trkpt lat="44.97355" lon="3.65606">
        <ele>771</ele>
        <time>2009-07-12T09:31:39Z</time>
      </trkpt>
      <trkpt lat="44.97281" lon="3.65613">
        <ele>769</ele>
        <time>2009-07-12T09:31:50Z</time>
      </trkpt>
      <trkpt lat="44.97254" lon="3.6561">
        <ele>768</ele>
        <time>2009-07-12T09:31:58Z</time>
      </trkpt>
      <trkpt lat="44.97243" lon="3.65577">
        <ele>765</ele>
        <time>2009-07-12T09:32:07Z</time>
      </trkpt>
      <trkpt lat="44.97238" lon="3.6555">
        <ele>762</ele>
        <time>2009-07-12T09:32:13Z</time>
      </trkpt>
      <trkpt lat="44.9723" lon="3.65507">
        <ele>759</ele>
        <time>2009-07-12T09:32:22Z</time>
      </trkpt>
      <trkpt lat="44.97229" lon="3.65504">
        <ele>759</ele>
        <time>2009-07-12T09:32:23Z</time>
      </trkpt>
      <trkpt lat="44.97228" lon="3.65497">
        <ele>757</ele>
        <time>2009-07-12T09:32:25Z</time>
      </trkpt>
      <trkpt lat="44.97224" lon="3.65487">
        <ele>756</ele>
        <time>2009-07-12T09:32:28Z</time>
      </trkpt>
      <trkpt lat="44.97215" lon="3.65459">
        <ele>753</ele>
        <time>2009-07-12T09:32:35Z</time>
      </trkpt>
      <trkpt lat="44.97212" lon="3.65438">
        <ele>751</ele>
        <time>2009-07-12T09:32:39Z</time>
      </trkpt>
      <trkpt lat="44.97209" lon="3.65407">
        <ele>750</ele>
        <time>2009-07-12T09:32:47Z</time>
      </trkpt>
      <trkpt lat="44.97207" lon="3.65395">
        <ele>747</ele>
        <time>2009-07-12T09:32:50Z</time>
      </trkpt>
      <trkpt lat="44.97205" lon="3.65387">
        <ele>746</ele>
        <time>2009-07-12T09:32:52Z</time>
      </trkpt>
      <trkpt lat="44.97198" lon="3.65404">
        <ele>744</ele>
        <time>2009-07-12T09:32:59Z</time>
      </trkpt>
      <trkpt lat="44.97197" lon="3.65413">
        <ele>744</ele>
        <time>2009-07-12T09:33:01Z</time>
      </trkpt>
      <trkpt lat="44.9719" lon="3.65419">
        <ele>743</ele>
        <time>2009-07-12T09:33:04Z</time>
      </trkpt>
      <trkpt lat="44.97185" lon="3.65406">
        <ele>741</ele>
        <time>2009-07-12T09:33:08Z</time>
      </trkpt>
      <trkpt lat="44.97182" lon="3.65391">
        <ele>738</ele>
        <time>2009-07-12T09:33:10Z</time>
      </trkpt>
      <trkpt lat="44.97179" lon="3.65375">
        <ele>737</ele>
        <time>2009-07-12T09:33:12Z</time>
      </trkpt>
      <trkpt lat="44.97172" lon="3.65326">
        <ele>733</ele>
        <time>2009-07-12T09:33:19Z</time>
      </trkpt>
      <trkpt lat="44.9717" lon="3.65307">
        <ele>731</ele>
        <time>2009-07-12T09:33:22Z</time>
      </trkpt>
      <trkpt lat="44.97168" lon="3.65274">
        <ele>728</ele>
        <time>2009-07-12T09:33:30Z</time>
      </trkpt>
      <trkpt lat="44.97165" lon="3.65277">
        <ele>728</ele>
        <time>2009-07-12T09:33:45Z</time>
      </trkpt>
      <trkpt lat="44.97162" lon="3.65289">
        <ele>727</ele>
        <time>2009-07-12T09:33:56Z</time>
      </trkpt>
      <trkpt lat="44.97162" lon="3.6529">
        <ele>728</ele>
        <time>2009-07-12T09:34:36Z</time>
      </trkpt>
      <trkpt lat="44.97162" lon="3.65301">
        <ele>727</ele>
        <time>2009-07-12T09:34:40Z</time>
      </trkpt>
      <trkpt lat="44.9715" lon="3.6534">
        <ele>724</ele>
        <time>2009-07-12T09:34:51Z</time>
      </trkpt>
      <trkpt lat="44.97136" lon="3.65362">
        <ele>716</ele>
        <time>2009-07-12T09:34:58Z</time>
      </trkpt>
      <trkpt lat="44.97123" lon="3.65372">
        <ele>712</ele>
        <time>2009-07-12T09:35:05Z</time>
      </trkpt>
      <trkpt lat="44.9712" lon="3.65376">
        <ele>711</ele>
        <time>2009-07-12T09:35:08Z</time>
      </trkpt>
      <trkpt lat="44.97117" lon="3.65377">
        <ele>710</ele>
        <time>2009-07-12T09:35:10Z</time>
      </trkpt>
      <trkpt lat="44.97113" lon="3.6538">
        <ele>708</ele>
        <time>2009-07-12T09:35:12Z</time>
      </trkpt>
      <trkpt lat="44.97103" lon="3.65392">
        <ele>703</ele>
        <time>2009-07-12T09:35:19Z</time>
      </trkpt>
      <trkpt lat="44.97095" lon="3.65401">
        <ele>699</ele>
        <time>2009-07-12T09:35:23Z</time>
      </trkpt>
      <trkpt lat="44.97091" lon="3.65406">
        <ele>698</ele>
        <time>2009-07-12T09:35:25Z</time>
      </trkpt>
      <trkpt lat="44.97087" lon="3.65418">
        <ele>695</ele>
        <time>2009-07-12T09:35:29Z</time>
      </trkpt>
      <trkpt lat="44.97083" lon="3.65436">
        <ele>694</ele>
        <time>2009-07-12T09:35:33Z</time>
      </trkpt>
      <trkpt lat="44.97077" lon="3.65437">
        <ele>692</ele>
        <time>2009-07-12T09:35:37Z</time>
      </trkpt>
      <trkpt lat="44.97077" lon="3.65434">
        <ele>692</ele>
        <time>2009-07-12T09:35:49Z</time>
      </trkpt>
      <trkpt lat="44.97077" lon="3.65433">
        <ele>693</ele>
        <time>2009-07-12T09:36:11Z</time>
      </trkpt>
      <trkpt lat="44.97075" lon="3.6543">
        <ele>691</ele>
        <time>2009-07-12T09:36:48Z</time>
      </trkpt>
      <trkpt lat="44.97075" lon="3.65405">
        <ele>690</ele>
        <time>2009-07-12T09:37:09Z</time>
      </trkpt>
      <trkpt lat="44.97075" lon="3.65391">
        <ele>689</ele>
        <time>2009-07-12T09:37:11Z</time>
      </trkpt>
      <trkpt lat="44.97074" lon="3.65368">
        <ele>687</ele>
        <time>2009-07-12T09:37:16Z</time>
      </trkpt>
      <trkpt lat="44.97073" lon="3.65343">
        <ele>684</ele>
        <time>2009-07-12T09:37:20Z</time>
      </trkpt>
      <trkpt lat="44.97071" lon="3.65336">
        <ele>685</ele>
        <time>2009-07-12T09:37:28Z</time>
      </trkpt>
      <trkpt lat="44.97071" lon="3.65336">
        <ele>685</ele>
        <time>2009-07-12T09:37:29Z</time>
      </trkpt>
      <trkpt lat="44.97067" lon="3.65358">
        <ele>683</ele>
        <time>2009-07-12T09:37:36Z</time>
      </trkpt>
      <trkpt lat="44.97062" lon="3.65352">
        <ele>681</ele>
        <time>2009-07-12T09:37:43Z</time>
      </trkpt>
      <trkpt lat="44.97055" lon="3.65343">
        <ele>678</ele>
        <time>2009-07-12T09:37:47Z</time>
      </trkpt>
      <trkpt lat="44.97048" lon="3.65342">
        <ele>674</ele>
        <time>2009-07-12T09:37:50Z</time>
      </trkpt>
      <trkpt lat="44.97046" lon="3.65343">
        <ele>674</ele>
        <time>2009-07-12T09:37:51Z</time>
      </trkpt>
      <trkpt lat="44.97037" lon="3.65348">
        <ele>670</ele>
        <time>2009-07-12T09:37:55Z</time>
      </trkpt>
      <trkpt lat="44.97034" lon="3.65349">
        <ele>668</ele>
        <time>2009-07-12T09:37:56Z</time>
      </trkpt>
      <trkpt lat="44.97026" lon="3.65342">
        <ele>665</ele>
        <time>2009-07-12T09:38:01Z</time>
      </trkpt>
      <trkpt lat="44.97024" lon="3.65335">
        <ele>662</ele>
        <time>2009-07-12T09:38:03Z</time>
      </trkpt>
      <trkpt lat="44.97022" lon="3.65326">
        <ele>660</ele>
        <time>2009-07-12T09:38:05Z</time>
      </trkpt>
      <trkpt lat="44.97014" lon="3.65321">
        <ele>659</ele>
        <time>2009-07-12T09:38:08Z</time>
      </trkpt>
      <trkpt lat="44.97008" lon="3.65311">
        <ele>657</ele>
        <time>2009-07-12T09:38:12Z</time>
      </trkpt>
      <trkpt lat="44.96999" lon="3.65312">
        <ele>652</ele>
        <time>2009-07-12T09:38:18Z</time>
      </trkpt>
      <trkpt lat="44.9699" lon="3.65321">
        <ele>649</ele>
        <time>2009-07-12T09:38:21Z</time>
      </trkpt>
      <trkpt lat="44.96982" lon="3.65331">
        <ele>646</ele>
        <time>2009-07-12T09:38:26Z</time>
      </trkpt>
      <trkpt lat="44.96981" lon="3.65334">
        <ele>646</ele>
        <time>2009-07-12T09:38:35Z</time>
      </trkpt>
      <trkpt lat="44.9698" lon="3.65332">
        <ele>646</ele>
        <time>2009-07-12T09:38:58Z</time>
      </trkpt>
      <trkpt lat="44.96978" lon="3.65331">
        <ele>646</ele>
        <time>2009-07-12T09:39:04Z</time>
      </trkpt>
      <trkpt lat="44.96973" lon="3.65325">
        <ele>646</ele>
        <time>2009-07-12T09:39:14Z</time>
      </trkpt>
      <trkpt lat="44.96973" lon="3.65323">
        <ele>646</ele>
        <time>2009-07-12T09:39:32Z</time>
      </trkpt>
      <trkpt lat="44.9698" lon="3.65271">
        <ele>643</ele>
        <time>2009-07-12T09:39:45Z</time>
      </trkpt>
      <trkpt lat="44.96982" lon="3.65255">
        <ele>642</ele>
        <time>2009-07-12T09:39:47Z</time>
      </trkpt>
      <trkpt lat="44.9699" lon="3.65222">
        <ele>640</ele>
        <time>2009-07-12T09:39:52Z</time>
      </trkpt>
      <trkpt lat="44.96998" lon="3.65176">
        <ele>639</ele>
        <time>2009-07-12T09:39:58Z</time>
      </trkpt>
      <trkpt lat="44.97001" lon="3.65159">
        <ele>637</ele>
        <time>2009-07-12T09:40:00Z</time>
      </trkpt>
      <trkpt lat="44.97006" lon="3.65063">
        <ele>634</ele>
        <time>2009-07-12T09:40:10Z</time>
      </trkpt>
      <trkpt lat="44.97007" lon="3.64977">
        <ele>632</ele>
        <time>2009-07-12T09:40:19Z</time>
      </trkpt>
      <trkpt lat="44.97007" lon="3.64958">
        <ele>632</ele>
        <time>2009-07-12T09:40:21Z</time>
      </trkpt>
      <trkpt lat="44.97006" lon="3.6494">
        <ele>632</ele>
        <time>2009-07-12T09:40:23Z</time>
      </trkpt>
      <trkpt lat="44.97002" lon="3.64912">
        <ele>630</ele>
        <time>2009-07-12T09:40:26Z</time>
      </trkpt>
      <trkpt lat="44.96988" lon="3.64876">
        <ele>630</ele>
        <time>2009-07-12T09:40:30Z</time>
      </trkpt>
      <trkpt lat="44.96945" lon="3.64823">
        <ele>627</ele>
        <time>2009-07-12T09:40:38Z</time>
      </trkpt>
      <trkpt lat="44.969" lon="3.64797">
        <ele>628</ele>
        <time>2009-07-12T09:40:45Z</time>
      </trkpt>
      <trkpt lat="44.96842" lon="3.64795">
        <ele>629</ele>
        <time>2009-07-12T09:40:57Z</time>
      </trkpt>
      <trkpt lat="44.96818" lon="3.64782">
        <ele>629</ele>
        <time>2009-07-12T09:41:10Z</time>
      </trkpt>
      <trkpt lat="44.96817" lon="3.64778">
        <ele>630</ele>
        <time>2009-07-12T09:41:24Z</time>
      </trkpt>
      <trkpt lat="44.96816" lon="3.64758">
        <ele>628</ele>
        <time>2009-07-12T09:41:46Z</time>
      </trkpt>
      <trkpt lat="44.96828" lon="3.64733">
        <ele>626</ele>
        <time>2009-07-12T09:41:51Z</time>
      </trkpt>
      <trkpt lat="44.96834" lon="3.64723">
        <ele>624</ele>
        <time>2009-07-12T09:41:53Z</time>
      </trkpt>
      <trkpt lat="44.96847" lon="3.64704">
        <ele>623</ele>
        <time>2009-07-12T09:42:02Z</time>
      </trkpt>
      <trkpt lat="44.96854" lon="3.64692">
        <ele>624</ele>
        <time>2009-07-12T09:42:14Z</time>
      </trkpt>
      <trkpt lat="44.96867" lon="3.64666">
        <ele>621</ele>
        <time>2009-07-12T09:42:21Z</time>
      </trkpt>
      <trkpt lat="44.96887" lon="3.64629">
        <ele>618</ele>
        <time>2009-07-12T09:42:27Z</time>
      </trkpt>
      <trkpt lat="44.96905" lon="3.64597">
        <ele>617</ele>
        <time>2009-07-12T09:42:31Z</time>
      </trkpt>
      <trkpt lat="44.9692" lon="3.64563">
        <ele>617</ele>
        <time>2009-07-12T09:42:35Z</time>
      </trkpt>
      <trkpt lat="44.96912" lon="3.6453">
        <ele>616</ele>
        <time>2009-07-12T09:42:40Z</time>
      </trkpt>
      <trkpt lat="44.96864" lon="3.64478">
        <ele>615</ele>
        <time>2009-07-12T09:42:53Z</time>
      </trkpt>
      <trkpt lat="44.96865" lon="3.6443">
        <ele>616</ele>
        <time>2009-07-12T09:43:03Z</time>
      </trkpt>
      <trkpt lat="44.96872" lon="3.64403">
        <ele>616</ele>
        <time>2009-07-12T09:43:12Z</time>
      </trkpt>
      <trkpt lat="44.96855" lon="3.64384">
        <ele>620</ele>
        <time>2009-07-12T09:43:25Z</time>
      </trkpt>
      <trkpt lat="44.96845" lon="3.64366">
        <ele>622</ele>
        <time>2009-07-12T09:43:39Z</time>
      </trkpt>
      <trkpt lat="44.96843" lon="3.64357">
        <ele>622</ele>
        <time>2009-07-12T09:43:54Z</time>
      </trkpt>
      <trkpt lat="44.96841" lon="3.64326">
        <ele>624</ele>
        <time>2009-07-12T09:44:09Z</time>
      </trkpt>
      <trkpt lat="44.96837" lon="3.6432">
        <ele>623</ele>
        <time>2009-07-12T09:44:55Z</time>
      </trkpt>
      <trkpt lat="44.96836" lon="3.64319">
        <ele>622</ele>
        <time>2009-07-12T09:45:41Z</time>
      </trkpt>
      <trkpt lat="44.9686" lon="3.64303">
        <ele>621</ele>
        <time>2009-07-12T09:45:52Z</time>
      </trkpt>
      <trkpt lat="44.96882" lon="3.64292">
        <ele>619</ele>
        <time>2009-07-12T09:45:57Z</time>
      </trkpt>
      <trkpt lat="44.96894" lon="3.64291">
        <ele>617</ele>
        <time>2009-07-12T09:46:00Z</time>
      </trkpt>
      <trkpt lat="44.96905" lon="3.64291">
        <ele>617</ele>
        <time>2009-07-12T09:46:07Z</time>
      </trkpt>
      <trkpt lat="44.96903" lon="3.64271">
        <ele>616</ele>
        <time>2009-07-12T09:46:13Z</time>
      </trkpt>
      <trkpt lat="44.96889" lon="3.64214">
        <ele>616</ele>
        <time>2009-07-12T09:46:27Z</time>
      </trkpt>
      <trkpt lat="44.96886" lon="3.64192">
        <ele>613</ele>
        <time>2009-07-12T09:46:34Z</time>
      </trkpt>
      <trkpt lat="44.96883" lon="3.64173">
        <ele>612</ele>
        <time>2009-07-12T09:46:38Z</time>
      </trkpt>
      <trkpt lat="44.96906" lon="3.64144">
        <ele>610</ele>
        <time>2009-07-12T09:46:45Z</time>
      </trkpt>
      <trkpt lat="44.96933" lon="3.64142">
        <ele>612</ele>
        <time>2009-07-12T09:46:54Z</time>
      </trkpt>
      <trkpt lat="44.96948" lon="3.64142">
        <ele>615</ele>
        <time>2009-07-12T09:47:04Z</time>
      </trkpt>
      <trkpt lat="44.96966" lon="3.64138">
        <ele>618</ele>
        <time>2009-07-12T09:47:15Z</time>
      </trkpt>
      <trkpt lat="44.96987" lon="3.64129">
        <ele>620</ele>
        <time>2009-07-12T09:47:29Z</time>
      </trkpt>
      <trkpt lat="44.96998" lon="3.64117">
        <ele>624</ele>
        <time>2009-07-12T09:47:39Z</time>
      </trkpt>
      <trkpt lat="44.96999" lon="3.64116">
        <ele>624</ele>
        <time>2009-07-12T09:47:40Z</time>
      </trkpt>
      <trkpt lat="44.97021" lon="3.64093">
        <ele>626</ele>
        <time>2009-07-12T09:47:58Z</time>
      </trkpt>
      <trkpt lat="44.97038" lon="3.64075">
        <ele>627</ele>
        <time>2009-07-12T09:48:15Z</time>
      </trkpt>
      <trkpt lat="44.97047" lon="3.64066">
        <ele>628</ele>
        <time>2009-07-12T09:49:16Z</time>
      </trkpt>
      <trkpt lat="44.97062" lon="3.64052">
        <ele>632</ele>
        <time>2009-07-12T09:49:29Z</time>
      </trkpt>
      <trkpt lat="44.97063" lon="3.64051">
        <ele>632</ele>
        <time>2009-07-12T09:49:30Z</time>
      </trkpt>
      <trkpt lat="44.97073" lon="3.64036">
        <ele>633</ele>
        <time>2009-07-12T09:49:42Z</time>
      </trkpt>
      <trkpt lat="44.97067" lon="3.64028">
        <ele>634</ele>
        <time>2009-07-12T09:49:47Z</time>
      </trkpt>
      <trkpt lat="44.97046" lon="3.64028">
        <ele>638</ele>
        <time>2009-07-12T09:50:01Z</time>
      </trkpt>
      <trkpt lat="44.97022" lon="3.64042">
        <ele>640</ele>
        <time>2009-07-12T09:50:16Z</time>
      </trkpt>
      <trkpt lat="44.96993" lon="3.6405">
        <ele>643</ele>
        <time>2009-07-12T09:50:34Z</time>
      </trkpt>
      <trkpt lat="44.96975" lon="3.64045">
        <ele>646</ele>
        <time>2009-07-12T09:50:45Z</time>
      </trkpt>
      <trkpt lat="44.96968" lon="3.64007">
        <ele>647</ele>
        <time>2009-07-12T09:51:00Z</time>
      </trkpt>
      <trkpt lat="44.96976" lon="3.63995">
        <ele>649</ele>
        <time>2009-07-12T09:51:07Z</time>
      </trkpt>
      <trkpt lat="44.96995" lon="3.63982">
        <ele>650</ele>
        <time>2009-07-12T09:51:23Z</time>
      </trkpt>
      <trkpt lat="44.97008" lon="3.63976">
        <ele>651</ele>
        <time>2009-07-12T09:51:34Z</time>
      </trkpt>
      <trkpt lat="44.97029" lon="3.63971">
        <ele>655</ele>
        <time>2009-07-12T09:51:49Z</time>
      </trkpt>
      <trkpt lat="44.97049" lon="3.63967">
        <ele>657</ele>
        <time>2009-07-12T09:52:04Z</time>
      </trkpt>
      <trkpt lat="44.97061" lon="3.63963">
        <ele>659</ele>
        <time>2009-07-12T09:52:14Z</time>
      </trkpt>
      <trkpt lat="44.97066" lon="3.63958">
        <ele>659</ele>
        <time>2009-07-12T09:52:18Z</time>
      </trkpt>
      <trkpt lat="44.97071" lon="3.63958">
        <ele>660</ele>
        <time>2009-07-12T09:52:24Z</time>
      </trkpt>
      <trkpt lat="44.97073" lon="3.63956">
        <ele>661</ele>
        <time>2009-07-12T09:52:26Z</time>
      </trkpt>
      <trkpt lat="44.97078" lon="3.63956">
        <ele>661</ele>
        <time>2009-07-12T09:52:30Z</time>
      </trkpt>
      <trkpt lat="44.97086" lon="3.63962">
        <ele>662</ele>
        <time>2009-07-12T09:52:38Z</time>
      </trkpt>
      <trkpt lat="44.97092" lon="3.63971">
        <ele>662</ele>
        <time>2009-07-12T09:52:43Z</time>
      </trkpt>
      <trkpt lat="44.97099" lon="3.63965">
        <ele>664</ele>
        <time>2009-07-12T09:52:49Z</time>
      </trkpt>
      <trkpt lat="44.971" lon="3.63965">
        <ele>664</ele>
        <time>2009-07-12T09:52:50Z</time>
      </trkpt>
      <trkpt lat="44.97106" lon="3.63961">
        <ele>666</ele>
        <time>2009-07-12T09:52:55Z</time>
      </trkpt>
      <trkpt lat="44.97115" lon="3.63952">
        <ele>667</ele>
        <time>2009-07-12T09:53:02Z</time>
      </trkpt>
      <trkpt lat="44.97129" lon="3.63948">
        <ele>670</ele>
        <time>2009-07-12T09:53:14Z</time>
      </trkpt>
      <trkpt lat="44.97134" lon="3.6396">
        <ele>670</ele>
        <time>2009-07-12T09:53:18Z</time>
      </trkpt>
      <trkpt lat="44.97153" lon="3.63933">
        <ele>672</ele>
        <time>2009-07-12T09:53:32Z</time>
      </trkpt>
      <trkpt lat="44.97165" lon="3.63924">
        <ele>676</ele>
        <time>2009-07-12T09:53:42Z</time>
      </trkpt>
      <trkpt lat="44.97185" lon="3.63917">
        <ele>679</ele>
        <time>2009-07-12T09:53:57Z</time>
      </trkpt>
      <trkpt lat="44.97208" lon="3.63914">
        <ele>682</ele>
        <time>2009-07-12T09:54:13Z</time>
      </trkpt>
      <trkpt lat="44.9723" lon="3.63919">
        <ele>684</ele>
        <time>2009-07-12T09:54:28Z</time>
      </trkpt>
      <trkpt lat="44.97253" lon="3.63923">
        <ele>687</ele>
        <time>2009-07-12T09:54:44Z</time>
      </trkpt>
      <trkpt lat="44.97268" lon="3.63925">
        <ele>690</ele>
        <time>2009-07-12T09:54:55Z</time>
      </trkpt>
      <trkpt lat="44.97285" lon="3.63929">
        <ele>693</ele>
        <time>2009-07-12T09:55:07Z</time>
      </trkpt>
      <trkpt lat="44.97303" lon="3.63935">
        <ele>696</ele>
        <time>2009-07-12T09:55:20Z</time>
      </trkpt>
      <trkpt lat="44.97316" lon="3.63957">
        <ele>698</ele>
        <time>2009-07-12T09:55:35Z</time>
      </trkpt>
      <trkpt lat="44.97329" lon="3.63971">
        <ele>700</ele>
        <time>2009-07-12T09:55:48Z</time>
      </trkpt>
      <trkpt lat="44.97335" lon="3.63967">
        <ele>701</ele>
        <time>2009-07-12T09:55:58Z</time>
      </trkpt>
      <trkpt lat="44.97334" lon="3.6397">
        <ele>701</ele>
        <time>2009-07-12T09:56:07Z</time>
      </trkpt>
      <trkpt lat="44.97327" lon="3.63954">
        <ele>704</ele>
        <time>2009-07-12T09:56:25Z</time>
      </trkpt>
      <trkpt lat="44.97328" lon="3.63953">
        <ele>704</ele>
        <time>2009-07-12T09:56:28Z</time>
      </trkpt>
      <trkpt lat="44.97329" lon="3.63941">
        <ele>705</ele>
        <time>2009-07-12T09:56:35Z</time>
      </trkpt>
      <trkpt lat="44.97326" lon="3.63921">
        <ele>709</ele>
        <time>2009-07-12T09:56:45Z</time>
      </trkpt>
      <trkpt lat="44.97325" lon="3.63905">
        <ele>712</ele>
        <time>2009-07-12T09:56:53Z</time>
      </trkpt>
      <trkpt lat="44.97323" lon="3.63896">
        <ele>713</ele>
        <time>2009-07-12T09:56:58Z</time>
      </trkpt>
      <trkpt lat="44.97311" lon="3.63876">
        <ele>716</ele>
        <time>2009-07-12T09:57:13Z</time>
      </trkpt>
      <trkpt lat="44.97307" lon="3.63872">
        <ele>718</ele>
        <time>2009-07-12T09:57:18Z</time>
      </trkpt>
      <trkpt lat="44.97297" lon="3.63869">
        <ele>720</ele>
        <time>2009-07-12T09:57:28Z</time>
      </trkpt>
      <trkpt lat="44.97295" lon="3.63862">
        <ele>721</ele>
        <time>2009-07-12T09:57:56Z</time>
      </trkpt>
      <trkpt lat="44.97293" lon="3.6386">
        <ele>722</ele>
        <time>2009-07-12T09:58:19Z</time>
      </trkpt>
      <trkpt lat="44.97288" lon="3.6385">
        <ele>725</ele>
        <time>2009-07-12T09:58:35Z</time>
      </trkpt>
      <trkpt lat="44.97284" lon="3.63846">
        <ele>728</ele>
        <time>2009-07-12T09:58:51Z</time>
      </trkpt>
      <trkpt lat="44.97282" lon="3.63841">
        <ele>729</ele>
        <time>2009-07-12T09:59:06Z</time>
      </trkpt>
      <trkpt lat="44.97279" lon="3.63829">
        <ele>732</ele>
        <time>2009-07-12T09:59:26Z</time>
      </trkpt>
      <trkpt lat="44.97279" lon="3.63828">
        <ele>733</ele>
        <time>2009-07-12T09:59:27Z</time>
      </trkpt>
      <trkpt lat="44.97273" lon="3.63819">
        <ele>736</ele>
        <time>2009-07-12T09:59:40Z</time>
      </trkpt>
      <trkpt lat="44.97272" lon="3.63819">
        <ele>736</ele>
        <time>2009-07-12T09:59:41Z</time>
      </trkpt>
      <trkpt lat="44.97265" lon="3.63819">
        <ele>738</ele>
        <time>2009-07-12T09:59:52Z</time>
      </trkpt>
      <trkpt lat="44.97255" lon="3.63811">
        <ele>738</ele>
        <time>2009-07-12T10:00:04Z</time>
      </trkpt>
      <trkpt lat="44.9725" lon="3.63804">
        <ele>741</ele>
        <time>2009-07-12T10:00:12Z</time>
      </trkpt>
      <trkpt lat="44.97242" lon="3.63797">
        <ele>743</ele>
        <time>2009-07-12T10:00:23Z</time>
      </trkpt>
      <trkpt lat="44.9723" lon="3.63785">
        <ele>745</ele>
        <time>2009-07-12T10:00:38Z</time>
      </trkpt>
      <trkpt lat="44.97223" lon="3.63781">
        <ele>746</ele>
        <time>2009-07-12T10:00:46Z</time>
      </trkpt>
      <trkpt lat="44.97208" lon="3.63786">
        <ele>749</ele>
        <time>2009-07-12T10:01:04Z</time>
      </trkpt>
      <trkpt lat="44.972" lon="3.63783">
        <ele>751</ele>
        <time>2009-07-12T10:01:15Z</time>
      </trkpt>
      <trkpt lat="44.97196" lon="3.63776">
        <ele>752</ele>
        <time>2009-07-12T10:01:19Z</time>
      </trkpt>
      <trkpt lat="44.97202" lon="3.6376">
        <ele>754</ele>
        <time>2009-07-12T10:01:28Z</time>
      </trkpt>
      <trkpt lat="44.97206" lon="3.63749">
        <ele>753</ele>
        <time>2009-07-12T10:01:33Z</time>
      </trkpt>
      <trkpt lat="44.97227" lon="3.63754">
        <ele>754</ele>
        <time>2009-07-12T10:01:47Z</time>
      </trkpt>
      <trkpt lat="44.97251" lon="3.63738">
        <ele>756</ele>
        <time>2009-07-12T10:02:04Z</time>
      </trkpt>
      <trkpt lat="44.97267" lon="3.63702">
        <ele>759</ele>
        <time>2009-07-12T10:02:20Z</time>
      </trkpt>
      <trkpt lat="44.97283" lon="3.63659">
        <ele>760</ele>
        <time>2009-07-12T10:02:42Z</time>
      </trkpt>
      <trkpt lat="44.97283" lon="3.63659">
        <ele>764</ele>
        <time>2009-07-12T10:02:58Z</time>
      </trkpt>
      <trkpt lat="44.97283" lon="3.63659">
        <ele>759</ele>
        <time>2009-07-12T10:02:59Z</time>
      </trkpt>
      <trkpt lat="44.97284" lon="3.6366">
        <ele>762</ele>
        <time>2009-07-12T10:03:10Z</time>
      </trkpt>
      <trkpt lat="44.97284" lon="3.6366">
        <ele>760</ele>
        <time>2009-07-12T10:03:13Z</time>
      </trkpt>
      <trkpt lat="44.97284" lon="3.6366">
        <ele>764</ele>
        <time>2009-07-12T10:03:14Z</time>
      </trkpt>
      <trkpt lat="44.97284" lon="3.6366">
        <ele>758</ele>
        <time>2009-07-12T10:03:15Z</time>
      </trkpt>
      <trkpt lat="44.97284" lon="3.6366">
        <ele>762</ele>
        <time>2009-07-12T10:03:16Z</time>
      </trkpt>
      <trkpt lat="44.97284" lon="3.6366">
        <ele>760</ele>
        <time>2009-07-12T10:03:19Z</time>
      </trkpt>
      <trkpt lat="44.97284" lon="3.6366">
        <ele>764</ele>
        <time>2009-07-12T10:03:21Z</time>
      </trkpt>
      <trkpt lat="44.97284" lon="3.6366">
        <ele>761</ele>
        <time>2009-07-12T10:03:22Z</time>
      </trkpt>
      <trkpt lat="44.97284" lon="3.6366">
        <ele>762</ele>
        <time>2009-07-12T10:03:26Z</time>
      </trkpt>
      <trkpt lat="44.97285" lon="3.63661">
        <ele>759</ele>
        <time>2009-07-12T10:03:33Z</time>
      </trkpt>
      <trkpt lat="44.97285" lon="3.63661">
        <ele>760</ele>
        <time>2009-07-12T10:03:34Z</time>
      </trkpt>
      <trkpt lat="44.97285" lon="3.63661">
        <ele>763</ele>
        <time>2009-07-12T10:03:35Z</time>
      </trkpt>
      <trkpt lat="44.97285" lon="3.63661">
        <ele>759</ele>
        <time>2009-07-12T10:03:36Z</time>
      </trkpt>
      <trkpt lat="44.97286" lon="3.63661">
        <ele>765</ele>
        <time>2009-07-12T10:03:38Z</time>
      </trkpt>
      <trkpt lat="44.97286" lon="3.63661">
        <ele>762</ele>
        <time>2009-07-12T10:03:39Z</time>
      </trkpt>
      <trkpt lat="44.97285" lon="3.63659">
        <ele>761</ele>
        <time>2009-07-12T10:04:51Z</time>
      </trkpt>
      <trkpt lat="44.97286" lon="3.63656">
        <ele>761</ele>
        <time>2009-07-12T10:05:27Z</time>
      </trkpt>
      <trkpt lat="44.97289" lon="3.63643">
        <ele>762</ele>
        <time>2009-07-12T10:06:58Z</time>
      </trkpt>
      <trkpt lat="44.97302" lon="3.63606">
        <ele>763</ele>
        <time>2009-07-12T10:07:11Z</time>
      </trkpt>
      <trkpt lat="44.97313" lon="3.63561">
        <ele>766</ele>
        <time>2009-07-12T10:07:26Z</time>
      </trkpt>
      <trkpt lat="44.97319" lon="3.63532">
        <ele>769</ele>
        <time>2009-07-12T10:07:35Z</time>
      </trkpt>
      <trkpt lat="44.97325" lon="3.63501">
        <ele>770</ele>
        <time>2009-07-12T10:07:51Z</time>
      </trkpt>
      <trkpt lat="44.97329" lon="3.63474">
        <ele>772</ele>
        <time>2009-07-12T10:08:06Z</time>
      </trkpt>
      <trkpt lat="44.97334" lon="3.63422">
        <ele>774</ele>
        <time>2009-07-12T10:08:27Z</time>
      </trkpt>
      <trkpt lat="44.97338" lon="3.63403">
        <ele>778</ele>
        <time>2009-07-12T10:08:35Z</time>
      </trkpt>
      <trkpt lat="44.97339" lon="3.63401">
        <ele>778</ele>
        <time>2009-07-12T10:08:36Z</time>
      </trkpt>
      <trkpt lat="44.97341" lon="3.63372">
        <ele>781</ele>
        <time>2009-07-12T10:08:49Z</time>
      </trkpt>
      <trkpt lat="44.97339" lon="3.63361">
        <ele>781</ele>
        <time>2009-07-12T10:08:54Z</time>
      </trkpt>
      <trkpt lat="44.97342" lon="3.6335">
        <ele>783</ele>
        <time>2009-07-12T10:09:00Z</time>
      </trkpt>
      <trkpt lat="44.97343" lon="3.63348">
        <ele>783</ele>
        <time>2009-07-12T10:09:01Z</time>
      </trkpt>
      <trkpt lat="44.97348" lon="3.63345">
        <ele>785</ele>
        <time>2009-07-12T10:09:05Z</time>
      </trkpt>
      <trkpt lat="44.97368" lon="3.63353">
        <ele>788</ele>
        <time>2009-07-12T10:09:20Z</time>
      </trkpt>
      <trkpt lat="44.97395" lon="3.6334">
        <ele>791</ele>
        <time>2009-07-12T10:09:39Z</time>
      </trkpt>
      <trkpt lat="44.97422" lon="3.63314">
        <ele>794</ele>
        <time>2009-07-12T10:09:57Z</time>
      </trkpt>
      <trkpt lat="44.97447" lon="3.63276">
        <ele>794</ele>
        <time>2009-07-12T10:10:14Z</time>
      </trkpt>
      <trkpt lat="44.9745" lon="3.63264">
        <ele>797</ele>
        <time>2009-07-12T10:10:18Z</time>
      </trkpt>
      <trkpt lat="44.97456" lon="3.63217">
        <ele>800</ele>
        <time>2009-07-12T10:10:38Z</time>
      </trkpt>
      <trkpt lat="44.97459" lon="3.63202">
        <ele>803</ele>
        <time>2009-07-12T10:10:45Z</time>
      </trkpt>
      <trkpt lat="44.97462" lon="3.63193">
        <ele>804</ele>
        <time>2009-07-12T10:10:49Z</time>
      </trkpt>
      <trkpt lat="44.97465" lon="3.63173">
        <ele>807</ele>
        <time>2009-07-12T10:10:58Z</time>
      </trkpt>
      <trkpt lat="44.9747" lon="3.63143">
        <ele>808</ele>
        <time>2009-07-12T10:11:12Z</time>
      </trkpt>
      <trkpt lat="44.97472" lon="3.63116">
        <ele>811</ele>
        <time>2009-07-12T10:11:24Z</time>
      </trkpt>
      <trkpt lat="44.97476" lon="3.63091">
        <ele>812</ele>
        <time>2009-07-12T10:11:35Z</time>
      </trkpt>
      <trkpt lat="44.97478" lon="3.63082">
        <ele>812</ele>
        <time>2009-07-12T10:11:47Z</time>
      </trkpt>
      <trkpt lat="44.97478" lon="3.63082">
        <ele>813</ele>
        <time>2009-07-12T10:12:03Z</time>
      </trkpt>
      <trkpt lat="44.97475" lon="3.63084">
        <ele>813</ele>
        <time>2009-07-12T10:12:21Z</time>
      </trkpt>
      <trkpt lat="44.97467" lon="3.63103">
        <ele>813</ele>
        <time>2009-07-12T10:12:45Z</time>
      </trkpt>
      <trkpt lat="44.97453" lon="3.63141">
        <ele>816</ele>
        <time>2009-07-12T10:13:01Z</time>
      </trkpt>
      <trkpt lat="44.97445" lon="3.63154">
        <ele>817</ele>
        <time>2009-07-12T10:13:08Z</time>
      </trkpt>
      <trkpt lat="44.97427" lon="3.63169">
        <ele>819</ele>
        <time>2009-07-12T10:13:19Z</time>
      </trkpt>
      <trkpt lat="44.97403" lon="3.63169">
        <ele>821</ele>
        <time>2009-07-12T10:13:34Z</time>
      </trkpt>
      <trkpt lat="44.97402" lon="3.6316">
        <ele>822</ele>
        <time>2009-07-12T10:13:39Z</time>
      </trkpt>
      <trkpt lat="44.97403" lon="3.63154">
        <ele>824</ele>
        <time>2009-07-12T10:13:42Z</time>
      </trkpt>
      <trkpt lat="44.97422" lon="3.63131">
        <ele>826</ele>
        <time>2009-07-12T10:13:58Z</time>
      </trkpt>
      <trkpt lat="44.97427" lon="3.63119">
        <ele>826</ele>
        <time>2009-07-12T10:14:04Z</time>
      </trkpt>
      <trkpt lat="44.97418" lon="3.63118">
        <ele>827</ele>
        <time>2009-07-12T10:14:13Z</time>
      </trkpt>
      <trkpt lat="44.97415" lon="3.63124">
        <ele>827</ele>
        <time>2009-07-12T10:14:16Z</time>
      </trkpt>
      <trkpt lat="44.97388" lon="3.63129">
        <ele>831</ele>
        <time>2009-07-12T10:14:32Z</time>
      </trkpt>
      <trkpt lat="44.97384" lon="3.63122">
        <ele>831</ele>
        <time>2009-07-12T10:14:35Z</time>
      </trkpt>
      <trkpt lat="44.97389" lon="3.63107">
        <ele>832</ele>
        <time>2009-07-12T10:14:42Z</time>
      </trkpt>
      <trkpt lat="44.9741" lon="3.63081">
        <ele>834</ele>
        <time>2009-07-12T10:14:56Z</time>
      </trkpt>
      <trkpt lat="44.97417" lon="3.63057">
        <ele>834</ele>
        <time>2009-07-12T10:15:06Z</time>
      </trkpt>
      <trkpt lat="44.97421" lon="3.63019">
        <ele>839</ele>
        <time>2009-07-12T10:15:23Z</time>
      </trkpt>
      <trkpt lat="44.97426" lon="3.62986">
        <ele>841</ele>
        <time>2009-07-12T10:15:39Z</time>
      </trkpt>
      <trkpt lat="44.97428" lon="3.62978">
        <ele>841</ele>
        <time>2009-07-12T10:15:43Z</time>
      </trkpt>
      <trkpt lat="44.9743" lon="3.6297">
        <ele>841</ele>
        <time>2009-07-12T10:15:47Z</time>
      </trkpt>
      <trkpt lat="44.97431" lon="3.62962">
        <ele>844</ele>
        <time>2009-07-12T10:15:51Z</time>
      </trkpt>
      <trkpt lat="44.97434" lon="3.62952">
        <ele>843</ele>
        <time>2009-07-12T10:15:55Z</time>
      </trkpt>
      <trkpt lat="44.97426" lon="3.62949">
        <ele>847</ele>
        <time>2009-07-12T10:16:02Z</time>
      </trkpt>
      <trkpt lat="44.97423" lon="3.62955">
        <ele>848</ele>
        <time>2009-07-12T10:16:05Z</time>
      </trkpt>
      <trkpt lat="44.97419" lon="3.62963">
        <ele>849</ele>
        <time>2009-07-12T10:16:10Z</time>
      </trkpt>
      <trkpt lat="44.97412" lon="3.62977">
        <ele>849</ele>
        <time>2009-07-12T10:16:17Z</time>
      </trkpt>
      <trkpt lat="44.97388" lon="3.62988">
        <ele>849</ele>
        <time>2009-07-12T10:16:31Z</time>
      </trkpt>
      <trkpt lat="44.9736" lon="3.62981">
        <ele>852</ele>
        <time>2009-07-12T10:16:46Z</time>
      </trkpt>
      <trkpt lat="44.97334" lon="3.6298">
        <ele>854</ele>
        <time>2009-07-12T10:17:01Z</time>
      </trkpt>
      <trkpt lat="44.97321" lon="3.62979">
        <ele>857</ele>
        <time>2009-07-12T10:17:09Z</time>
      </trkpt>
      <trkpt lat="44.9732" lon="3.6298">
        <ele>856</ele>
        <time>2009-07-12T10:17:25Z</time>
      </trkpt>
      <trkpt lat="44.97323" lon="3.6298">
        <ele>856</ele>
        <time>2009-07-12T10:18:42Z</time>
      </trkpt>
      <trkpt lat="44.97323" lon="3.6298">
        <ele>856</ele>
        <time>2009-07-12T10:19:09Z</time>
      </trkpt>
      <trkpt lat="44.97311" lon="3.6295">
        <ele>858</ele>
        <time>2009-07-12T10:19:25Z</time>
      </trkpt>
      <trkpt lat="44.97307" lon="3.62944">
        <ele>859</ele>
        <time>2009-07-12T10:19:29Z</time>
      </trkpt>
      <trkpt lat="44.97314" lon="3.62938">
        <ele>860</ele>
        <time>2009-07-12T10:19:37Z</time>
      </trkpt>
      <trkpt lat="44.97327" lon="3.62943">
        <ele>863</ele>
        <time>2009-07-12T10:19:46Z</time>
      </trkpt>
      <trkpt lat="44.97347" lon="3.62936">
        <ele>866</ele>
        <time>2009-07-12T10:20:01Z</time>
      </trkpt>
      <trkpt lat="44.97371" lon="3.62916">
        <ele>868</ele>
        <time>2009-07-12T10:20:19Z</time>
      </trkpt>
      <trkpt lat="44.97383" lon="3.62887">
        <ele>872</ele>
        <time>2009-07-12T10:20:34Z</time>
      </trkpt>
      <trkpt lat="44.97395" lon="3.62859">
        <ele>874</ele>
        <time>2009-07-12T10:20:49Z</time>
      </trkpt>
      <trkpt lat="44.97405" lon="3.62828">
        <ele>877</ele>
        <time>2009-07-12T10:21:04Z</time>
      </trkpt>
      <trkpt lat="44.97409" lon="3.62812">
        <ele>879</ele>
        <time>2009-07-12T10:21:12Z</time>
      </trkpt>
      <trkpt lat="44.97418" lon="3.62783">
        <ele>879</ele>
        <time>2009-07-12T10:21:26Z</time>
      </trkpt>
      <trkpt lat="44.97412" lon="3.62777">
        <ele>881</ele>
        <time>2009-07-12T10:21:31Z</time>
      </trkpt>
      <trkpt lat="44.97407" lon="3.62786">
        <ele>882</ele>
        <time>2009-07-12T10:21:36Z</time>
      </trkpt>
      <trkpt lat="44.97384" lon="3.62811">
        <ele>885</ele>
        <time>2009-07-12T10:21:51Z</time>
      </trkpt>
      <trkpt lat="44.97363" lon="3.62834">
        <ele>888</ele>
        <time>2009-07-12T10:22:04Z</time>
      </trkpt>
      <trkpt lat="44.97345" lon="3.62849">
        <ele>890</ele>
        <time>2009-07-12T10:22:16Z</time>
      </trkpt>
      <trkpt lat="44.9733" lon="3.6285">
        <ele>892</ele>
        <time>2009-07-12T10:22:25Z</time>
      </trkpt>
      <trkpt lat="44.97337" lon="3.62838">
        <ele>894</ele>
        <time>2009-07-12T10:22:35Z</time>
      </trkpt>
      <trkpt lat="44.9736" lon="3.62812">
        <ele>895</ele>
        <time>2009-07-12T10:22:51Z</time>
      </trkpt>
      <trkpt lat="44.97374" lon="3.62773">
        <ele>897</ele>
        <time>2009-07-12T10:23:05Z</time>
      </trkpt>
      <trkpt lat="44.9738" lon="3.62756">
        <ele>898</ele>
        <time>2009-07-12T10:23:11Z</time>
      </trkpt>
      <trkpt lat="44.97392" lon="3.6272">
        <ele>901</ele>
        <time>2009-07-12T10:23:24Z</time>
      </trkpt>
      <trkpt lat="44.97393" lon="3.62717">
        <ele>901</ele>
        <time>2009-07-12T10:23:25Z</time>
      </trkpt>
      <trkpt lat="44.97402" lon="3.627">
        <ele>902</ele>
        <time>2009-07-12T10:23:32Z</time>
      </trkpt>
      <trkpt lat="44.97392" lon="3.62694">
        <ele>904</ele>
        <time>2009-07-12T10:23:41Z</time>
      </trkpt>
      <trkpt lat="44.97375" lon="3.62723">
        <ele>905</ele>
        <time>2009-07-12T10:23:54Z</time>
      </trkpt>
      <trkpt lat="44.97356" lon="3.62753">
        <ele>907</ele>
        <time>2009-07-12T10:24:07Z</time>
      </trkpt>
      <trkpt lat="44.97328" lon="3.62777">
        <ele>909</ele>
        <time>2009-07-12T10:24:22Z</time>
      </trkpt>
      <trkpt lat="44.97298" lon="3.62771">
        <ele>911</ele>
        <time>2009-07-12T10:24:36Z</time>
      </trkpt>
      <trkpt lat="44.97286" lon="3.62731">
        <ele>914</ele>
        <time>2009-07-12T10:24:49Z</time>
      </trkpt>
      <trkpt lat="44.97281" lon="3.62689">
        <ele>918</ele>
        <time>2009-07-12T10:25:02Z</time>
      </trkpt>
      <trkpt lat="44.9728" lon="3.62679">
        <ele>919</ele>
        <time>2009-07-12T10:25:05Z</time>
      </trkpt>
      <trkpt lat="44.97265" lon="3.62634">
        <ele>921</ele>
        <time>2009-07-12T10:25:22Z</time>
      </trkpt>
      <trkpt lat="44.97257" lon="3.62627">
        <ele>921</ele>
        <time>2009-07-12T10:25:27Z</time>
      </trkpt>
      <trkpt lat="44.97266" lon="3.62621">
        <ele>922</ele>
        <time>2009-07-12T10:25:36Z</time>
      </trkpt>
      <trkpt lat="44.97284" lon="3.62637">
        <ele>925</ele>
        <time>2009-07-12T10:25:46Z</time>
      </trkpt>
      <trkpt lat="44.97309" lon="3.62651">
        <ele>928</ele>
        <time>2009-07-12T10:26:00Z</time>
      </trkpt>
      <trkpt lat="44.97323" lon="3.62621">
        <ele>930</ele>
        <time>2009-07-12T10:26:13Z</time>
      </trkpt>
      <trkpt lat="44.97327" lon="3.62606">
        <ele>933</ele>
        <time>2009-07-12T10:26:19Z</time>
      </trkpt>
      <trkpt lat="44.97333" lon="3.62577">
        <ele>935</ele>
        <time>2009-07-12T10:26:30Z</time>
      </trkpt>
      <trkpt lat="44.97335" lon="3.62572">
        <ele>935</ele>
        <time>2009-07-12T10:26:32Z</time>
      </trkpt>
      <trkpt lat="44.97341" lon="3.62539">
        <ele>939</ele>
        <time>2009-07-12T10:26:44Z</time>
      </trkpt>
      <trkpt lat="44.97358" lon="3.62494">
        <ele>941</ele>
        <time>2009-07-12T10:27:02Z</time>
      </trkpt>
      <trkpt lat="44.97373" lon="3.62458">
        <ele>944</ele>
        <time>2009-07-12T10:27:17Z</time>
      </trkpt>
      <trkpt lat="44.97381" lon="3.62439">
        <ele>945</ele>
        <time>2009-07-12T10:27:25Z</time>
      </trkpt>
      <trkpt lat="44.97389" lon="3.6242">
        <ele>948</ele>
        <time>2009-07-12T10:27:33Z</time>
      </trkpt>
      <trkpt lat="44.974" lon="3.62392">
        <ele>951</ele>
        <time>2009-07-12T10:27:45Z</time>
      </trkpt>
      <trkpt lat="44.97404" lon="3.62356">
        <ele>953</ele>
        <time>2009-07-12T10:27:58Z</time>
      </trkpt>
      <trkpt lat="44.97406" lon="3.62338">
        <ele>955</ele>
        <time>2009-07-12T10:28:06Z</time>
      </trkpt>
      <trkpt lat="44.97399" lon="3.62336">
        <ele>957</ele>
        <time>2009-07-12T10:28:13Z</time>
      </trkpt>
      <trkpt lat="44.97394" lon="3.62348">
        <ele>958</ele>
        <time>2009-07-12T10:28:18Z</time>
      </trkpt>
      <trkpt lat="44.97374" lon="3.62371">
        <ele>961</ele>
        <time>2009-07-12T10:28:30Z</time>
      </trkpt>
      <trkpt lat="44.97343" lon="3.62403">
        <ele>964</ele>
        <time>2009-07-12T10:28:47Z</time>
      </trkpt>
      <trkpt lat="44.97313" lon="3.62421">
        <ele>967</ele>
        <time>2009-07-12T10:29:02Z</time>
      </trkpt>
      <trkpt lat="44.97307" lon="3.62418">
        <ele>969</ele>
        <time>2009-07-12T10:29:05Z</time>
      </trkpt>
      <trkpt lat="44.9729" lon="3.62384">
        <ele>969</ele>
        <time>2009-07-12T10:29:20Z</time>
      </trkpt>
      <trkpt lat="44.97296" lon="3.62349">
        <ele>969</ele>
        <time>2009-07-12T10:29:32Z</time>
      </trkpt>
      <trkpt lat="44.97298" lon="3.62342">
        <ele>972</ele>
        <time>2009-07-12T10:29:35Z</time>
      </trkpt>
      <trkpt lat="44.97301" lon="3.62335">
        <ele>974</ele>
        <time>2009-07-12T10:29:38Z</time>
      </trkpt>
      <trkpt lat="44.97324" lon="3.62306">
        <ele>977</ele>
        <time>2009-07-12T10:29:54Z</time>
      </trkpt>
      <trkpt lat="44.97333" lon="3.62275">
        <ele>981</ele>
        <time>2009-07-12T10:30:06Z</time>
      </trkpt>
      <trkpt lat="44.97336" lon="3.62248">
        <ele>983</ele>
        <time>2009-07-12T10:30:17Z</time>
      </trkpt>
      <trkpt lat="44.97338" lon="3.62237">
        <ele>984</ele>
        <time>2009-07-12T10:30:21Z</time>
      </trkpt>
      <trkpt lat="44.97341" lon="3.62212">
        <ele>986</ele>
        <time>2009-07-12T10:30:31Z</time>
      </trkpt>
      <trkpt lat="44.97344" lon="3.62179">
        <ele>989</ele>
        <time>2009-07-12T10:30:45Z</time>
      </trkpt>
      <trkpt lat="44.97349" lon="3.62135">
        <ele>992</ele>
        <time>2009-07-12T10:31:04Z</time>
      </trkpt>
      <trkpt lat="44.97352" lon="3.62115">
        <ele>995</ele>
        <time>2009-07-12T10:31:13Z</time>
      </trkpt>
      <trkpt lat="44.97356" lon="3.62093">
        <ele>998</ele>
        <time>2009-07-12T10:31:23Z</time>
      </trkpt>
      <trkpt lat="44.97366" lon="3.62057">
        <ele>1000</ele>
        <time>2009-07-12T10:31:40Z</time>
      </trkpt>
      <trkpt lat="44.97369" lon="3.62049">
        <ele>1002</ele>
        <time>2009-07-12T10:31:44Z</time>
      </trkpt>
      <trkpt lat="44.97376" lon="3.62025">
        <ele>1005</ele>
        <time>2009-07-12T10:31:56Z</time>
      </trkpt>
      <trkpt lat="44.97378" lon="3.61984">
        <ele>1008</ele>
        <time>2009-07-12T10:32:15Z</time>
      </trkpt>
      <trkpt lat="44.97378" lon="3.61982">
        <ele>1009</ele>
        <time>2009-07-12T10:32:16Z</time>
      </trkpt>
      <trkpt lat="44.97379" lon="3.61965">
        <ele>1011</ele>
        <time>2009-07-12T10:32:25Z</time>
      </trkpt>
      <trkpt lat="44.97381" lon="3.61954">
        <ele>1013</ele>
        <time>2009-07-12T10:32:31Z</time>
      </trkpt>
      <trkpt lat="44.9739" lon="3.61922">
        <ele>1015</ele>
        <time>2009-07-12T10:32:50Z</time>
      </trkpt>
      <trkpt lat="44.97388" lon="3.61923">
        <ele>1015</ele>
        <time>2009-07-12T10:33:20Z</time>
      </trkpt>
      <trkpt lat="44.97393" lon="3.61918">
        <ele>1017</ele>
        <time>2009-07-12T10:34:09Z</time>
      </trkpt>
      <trkpt lat="44.97383" lon="3.61924">
        <ele>1018</ele>
        <time>2009-07-12T10:34:44Z</time>
      </trkpt>
      <trkpt lat="44.97375" lon="3.61927">
        <ele>1016</ele>
        <time>2009-07-12T10:35:42Z</time>
      </trkpt>
      <trkpt lat="44.97377" lon="3.61929">
        <ele>1015</ele>
        <time>2009-07-12T10:36:33Z</time>
      </trkpt>
      <trkpt lat="44.97377" lon="3.6193">
        <ele>1016</ele>
        <time>2009-07-12T10:37:15Z</time>
      </trkpt>
      <trkpt lat="44.97379" lon="3.6193">
        <ele>1016</ele>
        <time>2009-07-12T10:38:17Z</time>
      </trkpt>
      <trkpt lat="44.97379" lon="3.61926">
        <ele>1016</ele>
        <time>2009-07-12T10:38:58Z</time>
      </trkpt>
      <trkpt lat="44.97389" lon="3.61922">
        <ele>1017</ele>
        <time>2009-07-12T10:40:30Z</time>
      </trkpt>
      <trkpt lat="44.97384" lon="3.61924">
        <ele>1017</ele>
        <time>2009-07-12T10:40:59Z</time>
      </trkpt>
      <trkpt lat="44.97386" lon="3.61924">
        <ele>1016</ele>
        <time>2009-07-12T10:41:15Z</time>
      </trkpt>
      <trkpt lat="44.97386" lon="3.61922">
        <ele>1016</ele>
        <time>2009-07-12T10:41:34Z</time>
      </trkpt>
      <trkpt lat="44.97384" lon="3.61915">
        <ele>1017</ele>
        <time>2009-07-12T10:41:39Z</time>
      </trkpt>
      <trkpt lat="44.9737" lon="3.61884">
        <ele>1018</ele>
        <time>2009-07-12T10:41:54Z</time>
      </trkpt>
      <trkpt lat="44.97352" lon="3.61809">
        <ele>1019</ele>
        <time>2009-07-12T10:42:14Z</time>
      </trkpt>
      <trkpt lat="44.97324" lon="3.61735">
        <ele>1021</ele>
        <time>2009-07-12T10:42:33Z</time>
      </trkpt>
      <trkpt lat="44.97294" lon="3.61694">
        <ele>1024</ele>
        <time>2009-07-12T10:42:48Z</time>
      </trkpt>
      <trkpt lat="44.97288" lon="3.61665">
        <ele>1022</ele>
        <time>2009-07-12T10:42:54Z</time>
      </trkpt>
      <trkpt lat="44.97277" lon="3.61635">
        <ele>1021</ele>
        <time>2009-07-12T10:42:59Z</time>
      </trkpt>
      <trkpt lat="44.97258" lon="3.61612">
        <ele>1021</ele>
        <time>2009-07-12T10:43:04Z</time>
      </trkpt>
      <trkpt lat="44.97242" lon="3.61606">
        <ele>1021</ele>
        <time>2009-07-12T10:43:08Z</time>
      </trkpt>
      <trkpt lat="44.97198" lon="3.61589">
        <ele>1022</ele>
        <time>2009-07-12T10:43:20Z</time>
      </trkpt>
      <trkpt lat="44.97177" lon="3.61586">
        <ele>1021</ele>
        <time>2009-07-12T10:43:25Z</time>
      </trkpt>
      <trkpt lat="44.97173" lon="3.61586">
        <ele>1021</ele>
        <time>2009-07-12T10:43:26Z</time>
      </trkpt>
      <trkpt lat="44.97156" lon="3.61582">
        <ele>1021</ele>
        <time>2009-07-12T10:43:30Z</time>
      </trkpt>
      <trkpt lat="44.97118" lon="3.61568">
        <ele>1020</ele>
        <time>2009-07-12T10:43:38Z</time>
      </trkpt>
      <trkpt lat="44.97108" lon="3.61565">
        <ele>1021</ele>
        <time>2009-07-12T10:43:40Z</time>
      </trkpt>
      <trkpt lat="44.97098" lon="3.61563">
        <ele>1021</ele>
        <time>2009-07-12T10:43:42Z</time>
      </trkpt>
      <trkpt lat="44.97074" lon="3.61564">
        <ele>1021</ele>
        <time>2009-07-12T10:43:47Z</time>
      </trkpt>
      <trkpt lat="44.97054" lon="3.61577">
        <ele>1021</ele>
        <time>2009-07-12T10:43:52Z</time>
      </trkpt>
      <trkpt lat="44.97031" lon="3.616">
        <ele>1025</ele>
        <time>2009-07-12T10:44:00Z</time>
      </trkpt>
      <trkpt lat="44.97011" lon="3.61602">
        <ele>1028</ele>
        <time>2009-07-12T10:44:06Z</time>
      </trkpt>
      <trkpt lat="44.96993" lon="3.61603">
        <ele>1030</ele>
        <time>2009-07-12T10:44:11Z</time>
      </trkpt>
      <trkpt lat="44.96935" lon="3.61609">
        <ele>1031</ele>
        <time>2009-07-12T10:44:28Z</time>
      </trkpt>
      <trkpt lat="44.96903" lon="3.61605">
        <ele>1031</ele>
        <time>2009-07-12T10:44:36Z</time>
      </trkpt>
      <trkpt lat="44.96877" lon="3.61604">
        <ele>1031</ele>
        <time>2009-07-12T10:44:42Z</time>
      </trkpt>
      <trkpt lat="44.9685" lon="3.61604">
        <ele>1032</ele>
        <time>2009-07-12T10:44:48Z</time>
      </trkpt>
      <trkpt lat="44.96823" lon="3.616">
        <ele>1032</ele>
        <time>2009-07-12T10:44:54Z</time>
      </trkpt>
      <trkpt lat="44.96801" lon="3.61604">
        <ele>1031</ele>
        <time>2009-07-12T10:44:59Z</time>
      </trkpt>
      <trkpt lat="44.96767" lon="3.61615">
        <ele>1032</ele>
        <time>2009-07-12T10:45:07Z</time>
      </trkpt>
      <trkpt lat="44.96739" lon="3.61623">
        <ele>1033</ele>
        <time>2009-07-12T10:45:14Z</time>
      </trkpt>
      <trkpt lat="44.96713" lon="3.6161">
        <ele>1033</ele>
        <time>2009-07-12T10:45:21Z</time>
      </trkpt>
      <trkpt lat="44.96694" lon="3.61595">
        <ele>1034</ele>
        <time>2009-07-12T10:45:26Z</time>
      </trkpt>
      <trkpt lat="44.96681" lon="3.6159">
        <ele>1035</ele>
        <time>2009-07-12T10:45:29Z</time>
      </trkpt>
      <trkpt lat="44.96637" lon="3.61574">
        <ele>1039</ele>
        <time>2009-07-12T10:45:40Z</time>
      </trkpt>
      <trkpt lat="44.96606" lon="3.61567">
        <ele>1043</ele>
        <time>2009-07-12T10:45:53Z</time>
      </trkpt>
      <trkpt lat="44.96604" lon="3.61567">
        <ele>1043</ele>
        <time>2009-07-12T10:45:54Z</time>
      </trkpt>
      <trkpt lat="44.96562" lon="3.61549">
        <ele>1045</ele>
        <time>2009-07-12T10:46:11Z</time>
      </trkpt>
      <trkpt lat="44.96536" lon="3.6153">
        <ele>1045</ele>
        <time>2009-07-12T10:46:23Z</time>
      </trkpt>
      <trkpt lat="44.96526" lon="3.61524">
        <ele>1047</ele>
        <time>2009-07-12T10:46:27Z</time>
      </trkpt>
      <trkpt lat="44.96472" lon="3.615">
        <ele>1047</ele>
        <time>2009-07-12T10:46:44Z</time>
      </trkpt>
      <trkpt lat="44.96427" lon="3.61476">
        <ele>1048</ele>
        <time>2009-07-12T10:46:58Z</time>
      </trkpt>
      <trkpt lat="44.9638" lon="3.61442">
        <ele>1050</ele>
        <time>2009-07-12T10:47:15Z</time>
      </trkpt>
      <trkpt lat="44.96376" lon="3.6144">
        <ele>1050</ele>
        <time>2009-07-12T10:47:16Z</time>
      </trkpt>
      <trkpt lat="44.96361" lon="3.61438">
        <ele>1053</ele>
        <time>2009-07-12T10:47:21Z</time>
      </trkpt>
      <trkpt lat="44.96291" lon="3.61438">
        <ele>1055</ele>
        <time>2009-07-12T10:47:42Z</time>
      </trkpt>
      <trkpt lat="44.96241" lon="3.61432">
        <ele>1055</ele>
        <time>2009-07-12T10:47:56Z</time>
      </trkpt>
      <trkpt lat="44.96192" lon="3.61392">
        <ele>1054</ele>
        <time>2009-07-12T10:48:11Z</time>
      </trkpt>
      <trkpt lat="44.9615" lon="3.61356">
        <ele>1053</ele>
        <time>2009-07-12T10:48:23Z</time>
      </trkpt>
      <trkpt lat="44.96137" lon="3.61344">
        <ele>1053</ele>
        <time>2009-07-12T10:48:27Z</time>
      </trkpt>
      <trkpt lat="44.96118" lon="3.61326">
        <ele>1054</ele>
        <time>2009-07-12T10:48:32Z</time>
      </trkpt>
      <trkpt lat="44.96085" lon="3.61308">
        <ele>1049</ele>
        <time>2009-07-12T10:48:38Z</time>
      </trkpt>
      <trkpt lat="44.9607" lon="3.61301">
        <ele>1047</ele>
        <time>2009-07-12T10:48:40Z</time>
      </trkpt>
      <trkpt lat="44.96048" lon="3.61294">
        <ele>1051</ele>
        <time>2009-07-12T10:48:44Z</time>
      </trkpt>
      <trkpt lat="44.9602" lon="3.61262">
        <ele>1053</ele>
        <time>2009-07-12T10:48:55Z</time>
      </trkpt>
      <trkpt lat="44.96012" lon="3.61229">
        <ele>1056</ele>
        <time>2009-07-12T10:49:03Z</time>
      </trkpt>
      <trkpt lat="44.95985" lon="3.61179">
        <ele>1058</ele>
        <time>2009-07-12T10:49:19Z</time>
      </trkpt>
      <trkpt lat="44.95941" lon="3.61149">
        <ele>1058</ele>
        <time>2009-07-12T10:49:31Z</time>
      </trkpt>
      <trkpt lat="44.95888" lon="3.6111">
        <ele>1059</ele>
        <time>2009-07-12T10:49:46Z</time>
      </trkpt>
      <trkpt lat="44.95869" lon="3.61071">
        <ele>1059</ele>
        <time>2009-07-12T10:49:55Z</time>
      </trkpt>
      <trkpt lat="44.95838" lon="3.60979">
        <ele>1061</ele>
        <time>2009-07-12T10:50:14Z</time>
      </trkpt>
      <trkpt lat="44.95814" lon="3.60941">
        <ele>1062</ele>
        <time>2009-07-12T10:50:23Z</time>
      </trkpt>
      <trkpt lat="44.9575" lon="3.60856">
        <ele>1066</ele>
        <time>2009-07-12T10:50:45Z</time>
      </trkpt>
      <trkpt lat="44.95682" lon="3.60783">
        <ele>1068</ele>
        <time>2009-07-12T10:51:08Z</time>
      </trkpt>
      <trkpt lat="44.95662" lon="3.60762">
        <ele>1069</ele>
        <time>2009-07-12T10:51:21Z</time>
      </trkpt>
      <trkpt lat="44.95662" lon="3.60763">
        <ele>1070</ele>
        <time>2009-07-12T10:52:53Z</time>
      </trkpt>
      <trkpt lat="44.95662" lon="3.60763">
        <ele>1066</ele>
        <time>2009-07-12T10:52:58Z</time>
      </trkpt>
      <trkpt lat="44.95662" lon="3.60763">
        <ele>1066</ele>
        <time>2009-07-12T10:52:59Z</time>
      </trkpt>
      <trkpt lat="44.95662" lon="3.60763">
        <ele>1072</ele>
        <time>2009-07-12T10:53:01Z</time>
      </trkpt>
      <trkpt lat="44.95662" lon="3.60763">
        <ele>1068</ele>
        <time>2009-07-12T10:53:03Z</time>
      </trkpt>
      <trkpt lat="44.95662" lon="3.60763">
        <ele>1072</ele>
        <time>2009-07-12T10:53:04Z</time>
      </trkpt>
      <trkpt lat="44.95662" lon="3.60763">
        <ele>1067</ele>
        <time>2009-07-12T10:53:07Z</time>
      </trkpt>
      <trkpt lat="44.95662" lon="3.60763">
        <ele>1071</ele>
        <time>2009-07-12T10:53:08Z</time>
      </trkpt>
      <trkpt lat="44.95662" lon="3.60763">
        <ele>1069</ele>
        <time>2009-07-12T10:53:11Z</time>
      </trkpt>
      <trkpt lat="44.95662" lon="3.60763">
        <ele>1072</ele>
        <time>2009-07-12T10:53:15Z</time>
      </trkpt>
      <trkpt lat="44.95662" lon="3.60763">
        <ele>1069</ele>
        <time>2009-07-12T10:53:17Z</time>
      </trkpt>
      <trkpt lat="44.95662" lon="3.60763">
        <ele>1070</ele>
        <time>2009-07-12T10:53:21Z</time>
      </trkpt>
      <trkpt lat="44.95662" lon="3.60763">
        <ele>1067</ele>
        <time>2009-07-12T10:53:23Z</time>
      </trkpt>
      <trkpt lat="44.95662" lon="3.60763">
        <ele>1070</ele>
        <time>2009-07-12T10:53:24Z</time>
      </trkpt>
      <trkpt lat="44.95662" lon="3.60763">
        <ele>1066</ele>
        <time>2009-07-12T10:53:56Z</time>
      </trkpt>
      <trkpt lat="44.95662" lon="3.60763">
        <ele>1072</ele>
        <time>2009-07-12T10:53:57Z</time>
      </trkpt>
      <trkpt lat="44.95662" lon="3.60763">
        <ele>1069</ele>
        <time>2009-07-12T10:53:59Z</time>
      </trkpt>
      <trkpt lat="44.95662" lon="3.60763">
        <ele>1072</ele>
        <time>2009-07-12T10:54:00Z</time>
      </trkpt>
      <trkpt lat="44.95662" lon="3.60763">
        <ele>1069</ele>
        <time>2009-07-12T10:54:01Z</time>
      </trkpt>
      <trkpt lat="44.95662" lon="3.60763">
        <ele>1073</ele>
        <time>2009-07-12T10:54:09Z</time>
      </trkpt>
      <trkpt lat="44.95662" lon="3.60763">
        <ele>1068</ele>
        <time>2009-07-12T10:54:10Z</time>
      </trkpt>
      <trkpt lat="44.95662" lon="3.60763">
        <ele>1073</ele>
        <time>2009-07-12T10:54:11Z</time>
      </trkpt>
      <trkpt lat="44.95662" lon="3.60763">
        <ele>1068</ele>
        <time>2009-07-12T10:54:12Z</time>
      </trkpt>
      <trkpt lat="44.95662" lon="3.60763">
        <ele>1073</ele>
        <time>2009-07-12T10:54:13Z</time>
      </trkpt>
      <trkpt lat="44.95662" lon="3.60763">
        <ele>1069</ele>
        <time>2009-07-12T10:54:15Z</time>
      </trkpt>
    </trkseg>
  </trk>
  <trk>
    <name><![CDATA[G02]]></name>
    <trkseg>
      <trkpt lat="44.95659" lon="3.60759">
        <ele>1072</ele>
        <time>2009-07-12T11:50:28Z</time>
      </trkpt>
      <trkpt lat="44.95659" lon="3.60766">
        <ele>1076</ele>
        <time>2009-07-12T11:50:51Z</time>
      </trkpt>
      <trkpt lat="44.95659" lon="3.60766">
        <ele>1074</ele>
        <time>2009-07-12T11:50:54Z</time>
      </trkpt>
      <trkpt lat="44.95659" lon="3.60765">
        <ele>1077</ele>
        <time>2009-07-12T11:51:08Z</time>
      </trkpt>
      <trkpt lat="44.95659" lon="3.60765">
        <ele>1074</ele>
        <time>2009-07-12T11:51:14Z</time>
      </trkpt>
      <trkpt lat="44.95659" lon="3.60765">
        <ele>1075</ele>
        <time>2009-07-12T11:51:18Z</time>
      </trkpt>
      <trkpt lat="44.9566" lon="3.60766">
        <ele>1075</ele>
        <time>2009-07-12T11:52:11Z</time>
      </trkpt>
      <trkpt lat="44.95661" lon="3.60766">
        <ele>1075</ele>
        <time>2009-07-12T11:52:34Z</time>
      </trkpt>
      <trkpt lat="44.95662" lon="3.60767">
        <ele>1074</ele>
        <time>2009-07-12T11:53:19Z</time>
      </trkpt>
      <trkpt lat="44.95663" lon="3.60758">
        <ele>1073</ele>
        <time>2009-07-12T11:53:23Z</time>
      </trkpt>
      <trkpt lat="44.9566" lon="3.60729">
        <ele>1070</ele>
        <time>2009-07-12T11:53:29Z</time>
      </trkpt>
      <trkpt lat="44.95653" lon="3.60694">
        <ele>1069</ele>
        <time>2009-07-12T11:53:34Z</time>
      </trkpt>
      <trkpt lat="44.95652" lon="3.60686">
        <ele>1069</ele>
        <time>2009-07-12T11:53:35Z</time>
      </trkpt>
      <trkpt lat="44.95648" lon="3.60669">
        <ele>1067</ele>
        <time>2009-07-12T11:53:37Z</time>
      </trkpt>
      <trkpt lat="44.95635" lon="3.60636">
        <ele>1064</ele>
        <time>2009-07-12T11:53:41Z</time>
      </trkpt>
      <trkpt lat="44.95622" lon="3.60602">
        <ele>1064</ele>
        <time>2009-07-12T11:53:45Z</time>
      </trkpt>
      <trkpt lat="44.95615" lon="3.60573">
        <ele>1062</ele>
        <time>2009-07-12T11:53:48Z</time>
      </trkpt>
      <trkpt lat="44.95602" lon="3.60504">
        <ele>1059</ele>
        <time>2009-07-12T11:53:55Z</time>
      </trkpt>
      <trkpt lat="44.95599" lon="3.60481">
        <ele>1058</ele>
        <time>2009-07-12T11:53:57Z</time>
      </trkpt>
      <trkpt lat="44.95592" lon="3.60422">
        <ele>1056</ele>
        <time>2009-07-12T11:54:02Z</time>
      </trkpt>
      <trkpt lat="44.95577" lon="3.60352">
        <ele>1052</ele>
        <time>2009-07-12T11:54:08Z</time>
      </trkpt>
      <trkpt lat="44.9557" lon="3.60327">
        <ele>1050</ele>
        <time>2009-07-12T11:54:10Z</time>
      </trkpt>
      <trkpt lat="44.95562" lon="3.60287">
        <ele>1046</ele>
        <time>2009-07-12T11:54:13Z</time>
      </trkpt>
      <trkpt lat="44.95559" lon="3.60256">
        <ele>1043</ele>
        <time>2009-07-12T11:54:15Z</time>
      </trkpt>
      <trkpt lat="44.95559" lon="3.60223">
        <ele>1039</ele>
        <time>2009-07-12T11:54:17Z</time>
      </trkpt>
      <trkpt lat="44.95575" lon="3.60137">
        <ele>1042</ele>
        <time>2009-07-12T11:54:23Z</time>
      </trkpt>
      <trkpt lat="44.95585" lon="3.60109">
        <ele>1046</ele>
        <time>2009-07-12T11:54:26Z</time>
      </trkpt>
      <trkpt lat="44.95589" lon="3.60103">
        <ele>1046</ele>
        <time>2009-07-12T11:54:27Z</time>
      </trkpt>
      <trkpt lat="44.95604" lon="3.60083">
        <ele>1050</ele>
        <time>2009-07-12T11:54:33Z</time>
      </trkpt>
      <trkpt lat="44.95606" lon="3.60081">
        <ele>1051</ele>
        <time>2009-07-12T11:54:34Z</time>
      </trkpt>
      <trkpt lat="44.95625" lon="3.6004">
        <ele>1053</ele>
        <time>2009-07-12T11:54:50Z</time>
      </trkpt>
      <trkpt lat="44.95628" lon="3.59975">
        <ele>1055</ele>
        <time>2009-07-12T11:55:08Z</time>
      </trkpt>
      <trkpt lat="44.95622" lon="3.59928">
        <ele>1055</ele>
        <time>2009-07-12T11:55:19Z</time>
      </trkpt>
      <trkpt lat="44.95617" lon="3.5986">
        <ele>1054</ele>
        <time>2009-07-12T11:55:34Z</time>
      </trkpt>
      <trkpt lat="44.95612" lon="3.5978">
        <ele>1055</ele>
        <time>2009-07-12T11:55:52Z</time>
      </trkpt>
      <trkpt lat="44.95606" lon="3.59691">
        <ele>1057</ele>
        <time>2009-07-12T11:56:10Z</time>
      </trkpt>
      <trkpt lat="44.95605" lon="3.59595">
        <ele>1057</ele>
        <time>2009-07-12T11:56:29Z</time>
      </trkpt>
      <trkpt lat="44.95608" lon="3.59578">
        <ele>1056</ele>
        <time>2009-07-12T11:56:32Z</time>
      </trkpt>
      <trkpt lat="44.95616" lon="3.59543">
        <ele>1055</ele>
        <time>2009-07-12T11:56:38Z</time>
      </trkpt>
      <trkpt lat="44.95626" lon="3.59525">
        <ele>1051</ele>
        <time>2009-07-12T11:56:41Z</time>
      </trkpt>
      <trkpt lat="44.95645" lon="3.59512">
        <ele>1050</ele>
        <time>2009-07-12T11:56:44Z</time>
      </trkpt>
      <trkpt lat="44.95675" lon="3.595">
        <ele>1048</ele>
        <time>2009-07-12T11:56:48Z</time>
      </trkpt>
      <trkpt lat="44.95715" lon="3.59481">
        <ele>1049</ele>
        <time>2009-07-12T11:56:53Z</time>
      </trkpt>
      <trkpt lat="44.95736" lon="3.59476">
        <ele>1049</ele>
        <time>2009-07-12T11:56:56Z</time>
      </trkpt>
      <trkpt lat="44.95757" lon="3.59481">
        <ele>1051</ele>
        <time>2009-07-12T11:57:00Z</time>
      </trkpt>
      <trkpt lat="44.95763" lon="3.59486">
        <ele>1052</ele>
        <time>2009-07-12T11:57:02Z</time>
      </trkpt>
      <trkpt lat="44.95785" lon="3.59504">
        <ele>1054</ele>
        <time>2009-07-12T11:57:13Z</time>
      </trkpt>
      <trkpt lat="44.95789" lon="3.59496">
        <ele>1054</ele>
        <time>2009-07-12T11:57:18Z</time>
      </trkpt>
      <trkpt lat="44.95789" lon="3.59491">
        <ele>1055</ele>
        <time>2009-07-12T11:57:20Z</time>
      </trkpt>
      <trkpt lat="44.95788" lon="3.59484">
        <ele>1057</ele>
        <time>2009-07-12T11:57:23Z</time>
      </trkpt>
      <trkpt lat="44.95791" lon="3.59448">
        <ele>1058</ele>
        <time>2009-07-12T11:57:38Z</time>
      </trkpt>
      <trkpt lat="44.958" lon="3.59425">
        <ele>1060</ele>
        <time>2009-07-12T11:57:47Z</time>
      </trkpt>
      <trkpt lat="44.95812" lon="3.59386">
        <ele>1063</ele>
        <time>2009-07-12T11:58:03Z</time>
      </trkpt>
      <trkpt lat="44.95816" lon="3.5935">
        <ele>1066</ele>
        <time>2009-07-12T11:58:16Z</time>
      </trkpt>
      <trkpt lat="44.95812" lon="3.59307">
        <ele>1066</ele>
        <time>2009-07-12T11:58:30Z</time>
      </trkpt>
      <trkpt lat="44.95779" lon="3.59249">
        <ele>1065</ele>
        <time>2009-07-12T11:58:44Z</time>
      </trkpt>
      <trkpt lat="44.95731" lon="3.592">
        <ele>1066</ele>
        <time>2009-07-12T11:59:00Z</time>
      </trkpt>
      <trkpt lat="44.95679" lon="3.59148">
        <ele>1069</ele>
        <time>2009-07-12T11:59:20Z</time>
      </trkpt>
      <trkpt lat="44.9563" lon="3.59137">
        <ele>1071</ele>
        <time>2009-07-12T11:59:37Z</time>
      </trkpt>
      <trkpt lat="44.95593" lon="3.59105">
        <ele>1071</ele>
        <time>2009-07-12T11:59:52Z</time>
      </trkpt>
      <trkpt lat="44.9556" lon="3.5905">
        <ele>1070</ele>
        <time>2009-07-12T12:00:07Z</time>
      </trkpt>
      <trkpt lat="44.9552" lon="3.5901">
        <ele>1073</ele>
        <time>2009-07-12T12:00:24Z</time>
      </trkpt>
      <trkpt lat="44.9547" lon="3.5897">
        <ele>1075</ele>
        <time>2009-07-12T12:00:46Z</time>
      </trkpt>
      <trkpt lat="44.95442" lon="3.5894">
        <ele>1076</ele>
        <time>2009-07-12T12:01:00Z</time>
      </trkpt>
      <trkpt lat="44.9541" lon="3.58913">
        <ele>1079</ele>
        <time>2009-07-12T12:01:16Z</time>
      </trkpt>
      <trkpt lat="44.95377" lon="3.58871">
        <ele>1082</ele>
        <time>2009-07-12T12:01:35Z</time>
      </trkpt>
      <trkpt lat="44.95348" lon="3.58805">
        <ele>1081</ele>
        <time>2009-07-12T12:01:54Z</time>
      </trkpt>
      <trkpt lat="44.95336" lon="3.5878">
        <ele>1078</ele>
        <time>2009-07-12T12:02:01Z</time>
      </trkpt>
      <trkpt lat="44.95329" lon="3.58769">
        <ele>1081</ele>
        <time>2009-07-12T12:02:04Z</time>
      </trkpt>
      <trkpt lat="44.95327" lon="3.58765">
        <ele>1081</ele>
        <time>2009-07-12T12:02:05Z</time>
      </trkpt>
      <trkpt lat="44.95316" lon="3.58749">
        <ele>1079</ele>
        <time>2009-07-12T12:02:09Z</time>
      </trkpt>
      <trkpt lat="44.95283" lon="3.58721">
        <ele>1080</ele>
        <time>2009-07-12T12:02:20Z</time>
      </trkpt>
      <trkpt lat="44.95224" lon="3.58704">
        <ele>1080</ele>
        <time>2009-07-12T12:02:36Z</time>
      </trkpt>
      <trkpt lat="44.95166" lon="3.58668">
        <ele>1079</ele>
        <time>2009-07-12T12:02:53Z</time>
      </trkpt>
      <trkpt lat="44.95107" lon="3.58624">
        <ele>1078</ele>
        <time>2009-07-12T12:03:11Z</time>
      </trkpt>
      <trkpt lat="44.95067" lon="3.58594">
        <ele>1077</ele>
        <time>2009-07-12T12:03:25Z</time>
      </trkpt>
      <trkpt lat="44.95059" lon="3.58589">
        <ele>1077</ele>
        <time>2009-07-12T12:03:27Z</time>
      </trkpt>
      <trkpt lat="44.95023" lon="3.58553">
        <ele>1078</ele>
        <time>2009-07-12T12:03:40Z</time>
      </trkpt>
      <trkpt lat="44.95014" lon="3.58493">
        <ele>1080</ele>
        <time>2009-07-12T12:03:54Z</time>
      </trkpt>
      <trkpt lat="44.95004" lon="3.58449">
        <ele>1082</ele>
        <time>2009-07-12T12:04:06Z</time>
      </trkpt>
      <trkpt lat="44.94989" lon="3.58407">
        <ele>1085</ele>
        <time>2009-07-12T12:04:19Z</time>
      </trkpt>
      <trkpt lat="44.94976" lon="3.58346">
        <ele>1087</ele>
        <time>2009-07-12T12:04:35Z</time>
      </trkpt>
      <trkpt lat="44.94956" lon="3.58295">
        <ele>1085</ele>
        <time>2009-07-12T12:04:49Z</time>
      </trkpt>
      <trkpt lat="44.9495" lon="3.58285">
        <ele>1084</ele>
        <time>2009-07-12T12:04:51Z</time>
      </trkpt>
      <trkpt lat="44.94929" lon="3.5825">
        <ele>1084</ele>
        <time>2009-07-12T12:05:02Z</time>
      </trkpt>
      <trkpt lat="44.94914" lon="3.58209">
        <ele>1084</ele>
        <time>2009-07-12T12:05:13Z</time>
      </trkpt>
      <trkpt lat="44.94904" lon="3.58138">
        <ele>1087</ele>
        <time>2009-07-12T12:05:29Z</time>
      </trkpt>
      <trkpt lat="44.94893" lon="3.58072">
        <ele>1086</ele>
        <time>2009-07-12T12:05:42Z</time>
      </trkpt>
      <trkpt lat="44.94889" lon="3.58042">
        <ele>1086</ele>
        <time>2009-07-12T12:05:48Z</time>
      </trkpt>
      <trkpt lat="44.94892" lon="3.57951">
        <ele>1085</ele>
        <time>2009-07-12T12:06:03Z</time>
      </trkpt>
      <trkpt lat="44.94893" lon="3.57905">
        <ele>1085</ele>
        <time>2009-07-12T12:06:11Z</time>
      </trkpt>
      <trkpt lat="44.949" lon="3.57884">
        <ele>1085</ele>
        <time>2009-07-12T12:06:15Z</time>
      </trkpt>
      <trkpt lat="44.94935" lon="3.57831">
        <ele>1088</ele>
        <time>2009-07-12T12:06:29Z</time>
      </trkpt>
      <trkpt lat="44.94965" lon="3.57783">
        <ele>1090</ele>
        <time>2009-07-12T12:06:44Z</time>
      </trkpt>
      <trkpt lat="44.94998" lon="3.5774">
        <ele>1094</ele>
        <time>2009-07-12T12:06:58Z</time>
      </trkpt>
      <trkpt lat="44.95006" lon="3.57681">
        <ele>1095</ele>
        <time>2009-07-12T12:07:12Z</time>
      </trkpt>
      <trkpt lat="44.95006" lon="3.57614">
        <ele>1098</ele>
        <time>2009-07-12T12:07:28Z</time>
      </trkpt>
      <trkpt lat="44.95009" lon="3.5757">
        <ele>1101</ele>
        <time>2009-07-12T12:07:39Z</time>
      </trkpt>
      <trkpt lat="44.9501" lon="3.57566">
        <ele>1101</ele>
        <time>2009-07-12T12:07:40Z</time>
      </trkpt>
      <trkpt lat="44.95017" lon="3.57487">
        <ele>1103</ele>
        <time>2009-07-12T12:07:59Z</time>
      </trkpt>
      <trkpt lat="44.95033" lon="3.5739">
        <ele>1104</ele>
        <time>2009-07-12T12:08:22Z</time>
      </trkpt>
      <trkpt lat="44.95055" lon="3.57304">
        <ele>1106</ele>
        <time>2009-07-12T12:08:42Z</time>
      </trkpt>
      <trkpt lat="44.95086" lon="3.57216">
        <ele>1105</ele>
        <time>2009-07-12T12:09:00Z</time>
      </trkpt>
      <trkpt lat="44.95099" lon="3.5717">
        <ele>1101</ele>
        <time>2009-07-12T12:09:07Z</time>
      </trkpt>
      <trkpt lat="44.95109" lon="3.5713">
        <ele>1098</ele>
        <time>2009-07-12T12:09:12Z</time>
      </trkpt>
      <trkpt lat="44.95111" lon="3.57121">
        <ele>1099</ele>
        <time>2009-07-12T12:09:13Z</time>
      </trkpt>
      <trkpt lat="44.95146" lon="3.56993">
        <ele>1099</ele>
        <time>2009-07-12T12:09:30Z</time>
      </trkpt>
      <trkpt lat="44.95155" lon="3.56962">
        <ele>1100</ele>
        <time>2009-07-12T12:09:36Z</time>
      </trkpt>
      <trkpt lat="44.95177" lon="3.56921">
        <ele>1101</ele>
        <time>2009-07-12T12:09:45Z</time>
      </trkpt>
      <trkpt lat="44.95204" lon="3.56827">
        <ele>1102</ele>
        <time>2009-07-12T12:10:03Z</time>
      </trkpt>
      <trkpt lat="44.95206" lon="3.56822">
        <ele>1102</ele>
        <time>2009-07-12T12:10:04Z</time>
      </trkpt>
      <trkpt lat="44.95226" lon="3.56783">
        <ele>1102</ele>
        <time>2009-07-12T12:10:12Z</time>
      </trkpt>
      <trkpt lat="44.95238" lon="3.56767">
        <ele>1101</ele>
        <time>2009-07-12T12:10:16Z</time>
      </trkpt>
      <trkpt lat="44.95257" lon="3.56739">
        <ele>1098</ele>
        <time>2009-07-12T12:10:22Z</time>
      </trkpt>
      <trkpt lat="44.95262" lon="3.56727">
        <ele>1097</ele>
        <time>2009-07-12T12:10:24Z</time>
      </trkpt>
      <trkpt lat="44.9528" lon="3.56702">
        <ele>1094</ele>
        <time>2009-07-12T12:10:30Z</time>
      </trkpt>
      <trkpt lat="44.95289" lon="3.56691">
        <ele>1091</ele>
        <time>2009-07-12T12:10:33Z</time>
      </trkpt>
      <trkpt lat="44.95295" lon="3.56676">
        <ele>1088</ele>
        <time>2009-07-12T12:10:36Z</time>
      </trkpt>
      <trkpt lat="44.95304" lon="3.56663">
        <ele>1086</ele>
        <time>2009-07-12T12:10:39Z</time>
      </trkpt>
      <trkpt lat="44.9533" lon="3.5662">
        <ele>1081</ele>
        <time>2009-07-12T12:10:50Z</time>
      </trkpt>
      <trkpt lat="44.95352" lon="3.56594">
        <ele>1078</ele>
        <time>2009-07-12T12:10:59Z</time>
      </trkpt>
      <trkpt lat="44.95371" lon="3.56559">
        <ele>1076</ele>
        <time>2009-07-12T12:11:05Z</time>
      </trkpt>
      <trkpt lat="44.95398" lon="3.56498">
        <ele>1074</ele>
        <time>2009-07-12T12:11:13Z</time>
      </trkpt>
      <trkpt lat="44.95403" lon="3.56463">
        <ele>1071</ele>
        <time>2009-07-12T12:11:17Z</time>
      </trkpt>
      <trkpt lat="44.95405" lon="3.56411">
        <ele>1069</ele>
        <time>2009-07-12T12:11:23Z</time>
      </trkpt>
      <trkpt lat="44.95407" lon="3.56386">
        <ele>1067</ele>
        <time>2009-07-12T12:11:26Z</time>
      </trkpt>
      <trkpt lat="44.95411" lon="3.56371">
        <ele>1067</ele>
        <time>2009-07-12T12:11:28Z</time>
      </trkpt>
      <trkpt lat="44.95419" lon="3.56348">
        <ele>1065</ele>
        <time>2009-07-12T12:11:31Z</time>
      </trkpt>
      <trkpt lat="44.9543" lon="3.56314">
        <ele>1064</ele>
        <time>2009-07-12T12:11:35Z</time>
      </trkpt>
      <trkpt lat="44.95436" lon="3.56289">
        <ele>1063</ele>
        <time>2009-07-12T12:11:38Z</time>
      </trkpt>
      <trkpt lat="44.95452" lon="3.56251">
        <ele>1063</ele>
        <time>2009-07-12T12:11:43Z</time>
      </trkpt>
      <trkpt lat="44.95468" lon="3.56211">
        <ele>1062</ele>
        <time>2009-07-12T12:11:48Z</time>
      </trkpt>
      <trkpt lat="44.95484" lon="3.56173">
        <ele>1060</ele>
        <time>2009-07-12T12:11:53Z</time>
      </trkpt>
      <trkpt lat="44.9549" lon="3.56133">
        <ele>1059</ele>
        <time>2009-07-12T12:11:58Z</time>
      </trkpt>
      <trkpt lat="44.95492" lon="3.56111">
        <ele>1060</ele>
        <time>2009-07-12T12:12:01Z</time>
      </trkpt>
      <trkpt lat="44.95497" lon="3.56077">
        <ele>1059</ele>
        <time>2009-07-12T12:12:06Z</time>
      </trkpt>
      <trkpt lat="44.95501" lon="3.56064">
        <ele>1059</ele>
        <time>2009-07-12T12:12:08Z</time>
      </trkpt>
      <trkpt lat="44.95514" lon="3.56036">
        <ele>1059</ele>
        <time>2009-07-12T12:12:14Z</time>
      </trkpt>
      <trkpt lat="44.95519" lon="3.56024">
        <ele>1058</ele>
        <time>2009-07-12T12:12:16Z</time>
      </trkpt>
      <trkpt lat="44.95528" lon="3.56003">
        <ele>1056</ele>
        <time>2009-07-12T12:12:19Z</time>
      </trkpt>
      <trkpt lat="44.95535" lon="3.5599">
        <ele>1056</ele>
        <time>2009-07-12T12:12:21Z</time>
      </trkpt>
      <trkpt lat="44.95541" lon="3.55977">
        <ele>1055</ele>
        <time>2009-07-12T12:12:23Z</time>
      </trkpt>
      <trkpt lat="44.95555" lon="3.55951">
        <ele>1052</ele>
        <time>2009-07-12T12:12:27Z</time>
      </trkpt>
      <trkpt lat="44.95568" lon="3.55925">
        <ele>1049</ele>
        <time>2009-07-12T12:12:30Z</time>
      </trkpt>
      <trkpt lat="44.95578" lon="3.55909">
        <ele>1048</ele>
        <time>2009-07-12T12:12:32Z</time>
      </trkpt>
      <trkpt lat="44.95594" lon="3.55876">
        <ele>1047</ele>
        <time>2009-07-12T12:12:37Z</time>
      </trkpt>
      <trkpt lat="44.95612" lon="3.55852">
        <ele>1044</ele>
        <time>2009-07-12T12:12:43Z</time>
      </trkpt>
      <trkpt lat="44.95615" lon="3.55847">
        <ele>1043</ele>
        <time>2009-07-12T12:12:44Z</time>
      </trkpt>
      <trkpt lat="44.95621" lon="3.55836">
        <ele>1042</ele>
        <time>2009-07-12T12:12:46Z</time>
      </trkpt>
      <trkpt lat="44.95629" lon="3.55816">
        <ele>1038</ele>
        <time>2009-07-12T12:12:49Z</time>
      </trkpt>
      <trkpt lat="44.95654" lon="3.55777">
        <ele>1036</ele>
        <time>2009-07-12T12:12:58Z</time>
      </trkpt>
      <trkpt lat="44.95662" lon="3.55764">
        <ele>1032</ele>
        <time>2009-07-12T12:13:02Z</time>
      </trkpt>
      <trkpt lat="44.95665" lon="3.55758">
        <ele>1031</ele>
        <time>2009-07-12T12:13:03Z</time>
      </trkpt>
      <trkpt lat="44.95684" lon="3.55733">
        <ele>1031</ele>
        <time>2009-07-12T12:13:12Z</time>
      </trkpt>
      <trkpt lat="44.95685" lon="3.5573">
        <ele>1031</ele>
        <time>2009-07-12T12:13:27Z</time>
      </trkpt>
      <trkpt lat="44.95685" lon="3.55729">
        <ele>1030</ele>
        <time>2009-07-12T12:14:01Z</time>
      </trkpt>
      <trkpt lat="44.95684" lon="3.55729">
        <ele>1031</ele>
        <time>2009-07-12T12:14:30Z</time>
      </trkpt>
      <trkpt lat="44.95688" lon="3.55714">
        <ele>1030</ele>
        <time>2009-07-12T12:14:49Z</time>
      </trkpt>
      <trkpt lat="44.95697" lon="3.55699">
        <ele>1027</ele>
        <time>2009-07-12T12:14:54Z</time>
      </trkpt>
      <trkpt lat="44.95709" lon="3.55671">
        <ele>1022</ele>
        <time>2009-07-12T12:14:59Z</time>
      </trkpt>
      <trkpt lat="44.95716" lon="3.55649">
        <ele>1019</ele>
        <time>2009-07-12T12:15:02Z</time>
      </trkpt>
      <trkpt lat="44.95724" lon="3.55628">
        <ele>1016</ele>
        <time>2009-07-12T12:15:05Z</time>
      </trkpt>
      <trkpt lat="44.95729" lon="3.55615">
        <ele>1013</ele>
        <time>2009-07-12T12:15:07Z</time>
      </trkpt>
      <trkpt lat="44.95742" lon="3.55588">
        <ele>1009</ele>
        <time>2009-07-12T12:15:11Z</time>
      </trkpt>
      <trkpt lat="44.95745" lon="3.5558">
        <ele>1009</ele>
        <time>2009-07-12T12:15:12Z</time>
      </trkpt>
      <trkpt lat="44.95748" lon="3.55573">
        <ele>1008</ele>
        <time>2009-07-12T12:15:13Z</time>
      </trkpt>
      <trkpt lat="44.95755" lon="3.55539">
        <ele>1004</ele>
        <time>2009-07-12T12:15:17Z</time>
      </trkpt>
      <trkpt lat="44.95759" lon="3.5551">
        <ele>1001</ele>
        <time>2009-07-12T12:15:20Z</time>
      </trkpt>
      <trkpt lat="44.95761" lon="3.55483">
        <ele>998</ele>
        <time>2009-07-12T12:15:23Z</time>
      </trkpt>
      <trkpt lat="44.95761" lon="3.55465">
        <ele>997</ele>
        <time>2009-07-12T12:15:25Z</time>
      </trkpt>
      <trkpt lat="44.95768" lon="3.55432">
        <ele>991</ele>
        <time>2009-07-12T12:15:28Z</time>
      </trkpt>
      <trkpt lat="44.95777" lon="3.55406">
        <ele>985</ele>
        <time>2009-07-12T12:15:30Z</time>
      </trkpt>
      <trkpt lat="44.95787" lon="3.55379">
        <ele>984</ele>
        <time>2009-07-12T12:15:32Z</time>
      </trkpt>
      <trkpt lat="44.95813" lon="3.55299">
        <ele>982</ele>
        <time>2009-07-12T12:15:40Z</time>
      </trkpt>
      <trkpt lat="44.9583" lon="3.55256">
        <ele>979</ele>
        <time>2009-07-12T12:15:45Z</time>
      </trkpt>
      <trkpt lat="44.9584" lon="3.5524">
        <ele>975</ele>
        <time>2009-07-12T12:15:47Z</time>
      </trkpt>
      <trkpt lat="44.95855" lon="3.5522">
        <ele>971</ele>
        <time>2009-07-12T12:15:50Z</time>
      </trkpt>
      <trkpt lat="44.95869" lon="3.55198">
        <ele>968</ele>
        <time>2009-07-12T12:15:53Z</time>
      </trkpt>
      <trkpt lat="44.95876" lon="3.5518">
        <ele>965</ele>
        <time>2009-07-12T12:15:56Z</time>
      </trkpt>
      <trkpt lat="44.95877" lon="3.55154">
        <ele>965</ele>
        <time>2009-07-12T12:16:01Z</time>
      </trkpt>
      <trkpt lat="44.9587" lon="3.55128">
        <ele>964</ele>
        <time>2009-07-12T12:16:05Z</time>
      </trkpt>
      <trkpt lat="44.95845" lon="3.55044">
        <ele>966</ele>
        <time>2009-07-12T12:16:21Z</time>
      </trkpt>
      <trkpt lat="44.9587" lon="3.54987">
        <ele>966</ele>
        <time>2009-07-12T12:16:34Z</time>
      </trkpt>
      <trkpt lat="44.95902" lon="3.54928">
        <ele>968</ele>
        <time>2009-07-12T12:16:50Z</time>
      </trkpt>
      <trkpt lat="44.95912" lon="3.54914">
        <ele>970</ele>
        <time>2009-07-12T12:17:01Z</time>
      </trkpt>
      <trkpt lat="44.95913" lon="3.54914">
        <ele>969</ele>
        <time>2009-07-12T12:17:04Z</time>
      </trkpt>
      <trkpt lat="44.95914" lon="3.54915">
        <ele>972</ele>
        <time>2009-07-12T12:17:11Z</time>
      </trkpt>
      <trkpt lat="44.95915" lon="3.54918">
        <ele>971</ele>
        <time>2009-07-12T12:17:16Z</time>
      </trkpt>
      <trkpt lat="44.95911" lon="3.54926">
        <ele>970</ele>
        <time>2009-07-12T12:17:23Z</time>
      </trkpt>
      <trkpt lat="44.959" lon="3.54936">
        <ele>968</ele>
        <time>2009-07-12T12:17:30Z</time>
      </trkpt>
      <trkpt lat="44.95888" lon="3.54963">
        <ele>967</ele>
        <time>2009-07-12T12:17:40Z</time>
      </trkpt>
      <trkpt lat="44.95889" lon="3.54964">
        <ele>967</ele>
        <time>2009-07-12T12:18:03Z</time>
      </trkpt>
      <trkpt lat="44.95891" lon="3.54965">
        <ele>968</ele>
        <time>2009-07-12T12:18:58Z</time>
      </trkpt>
      <trkpt lat="44.95891" lon="3.5496">
        <ele>968</ele>
        <time>2009-07-12T12:19:28Z</time>
      </trkpt>
      <trkpt lat="44.9589" lon="3.54959">
        <ele>967</ele>
        <time>2009-07-12T12:19:37Z</time>
      </trkpt>
      <trkpt lat="44.95907" lon="3.54928">
        <ele>969</ele>
        <time>2009-07-12T12:19:49Z</time>
      </trkpt>
      <trkpt lat="44.95934" lon="3.5488">
        <ele>972</ele>
        <time>2009-07-12T12:20:04Z</time>
      </trkpt>
      <trkpt lat="44.95936" lon="3.54876">
        <ele>973</ele>
        <time>2009-07-12T12:20:05Z</time>
      </trkpt>
      <trkpt lat="44.95957" lon="3.54805">
        <ele>974</ele>
        <time>2009-07-12T12:20:23Z</time>
      </trkpt>
      <trkpt lat="44.95958" lon="3.54751">
        <ele>977</ele>
        <time>2009-07-12T12:20:37Z</time>
      </trkpt>
      <trkpt lat="44.95968" lon="3.54687">
        <ele>977</ele>
        <time>2009-07-12T12:20:53Z</time>
      </trkpt>
      <trkpt lat="44.95978" lon="3.54657">
        <ele>977</ele>
        <time>2009-07-12T12:21:05Z</time>
      </trkpt>
      <trkpt lat="44.9598" lon="3.54653">
        <ele>977</ele>
        <time>2009-07-12T12:21:08Z</time>
      </trkpt>
      <trkpt lat="44.95976" lon="3.54652">
        <ele>977</ele>
        <time>2009-07-12T12:21:12Z</time>
      </trkpt>
      <trkpt lat="44.95978" lon="3.54657">
        <ele>976</ele>
        <time>2009-07-12T12:21:20Z</time>
      </trkpt>
      <trkpt lat="44.95972" lon="3.54651">
        <ele>977</ele>
        <time>2009-07-12T12:21:40Z</time>
      </trkpt>
      <trkpt lat="44.9596" lon="3.54606">
        <ele>975</ele>
        <time>2009-07-12T12:21:51Z</time>
      </trkpt>
      <trkpt lat="44.95958" lon="3.54602">
        <ele>975</ele>
        <time>2009-07-12T12:21:52Z</time>
      </trkpt>
      <trkpt lat="44.95942" lon="3.54598">
        <ele>974</ele>
        <time>2009-07-12T12:22:01Z</time>
      </trkpt>
      <trkpt lat="44.95924" lon="3.54599">
        <ele>974</ele>
        <time>2009-07-12T12:22:14Z</time>
      </trkpt>
      <trkpt lat="44.95923" lon="3.54597">
        <ele>975</ele>
        <time>2009-07-12T12:22:26Z</time>
      </trkpt>
      <trkpt lat="44.95921" lon="3.54592">
        <ele>974</ele>
        <time>2009-07-12T12:22:53Z</time>
      </trkpt>
      <trkpt lat="44.95924" lon="3.54591">
        <ele>974</ele>
        <time>2009-07-12T12:23:10Z</time>
      </trkpt>
      <trkpt lat="44.95924" lon="3.54595">
        <ele>975</ele>
        <time>2009-07-12T12:25:14Z</time>
      </trkpt>
      <trkpt lat="44.95925" lon="3.54595">
        <ele>974</ele>
        <time>2009-07-12T12:25:56Z</time>
      </trkpt>
      <trkpt lat="44.95932" lon="3.546">
        <ele>976</ele>
        <time>2009-07-12T12:27:34Z</time>
      </trkpt>
      <trkpt lat="44.95929" lon="3.54604">
        <ele>975</ele>
        <time>2009-07-12T12:28:09Z</time>
      </trkpt>
      <trkpt lat="44.95925" lon="3.54599">
        <ele>976</ele>
        <time>2009-07-12T12:28:41Z</time>
      </trkpt>
      <trkpt lat="44.95917" lon="3.54591">
        <ele>976</ele>
        <time>2009-07-12T12:29:46Z</time>
      </trkpt>
      <trkpt lat="44.95917" lon="3.54588">
        <ele>975</ele>
        <time>2009-07-12T12:30:01Z</time>
      </trkpt>
      <trkpt lat="44.95919" lon="3.54575">
        <ele>974</ele>
        <time>2009-07-12T12:30:05Z</time>
      </trkpt>
      <trkpt lat="44.95923" lon="3.54573">
        <ele>973</ele>
        <time>2009-07-12T12:30:08Z</time>
      </trkpt>
      <trkpt lat="44.95916" lon="3.54556">
        <ele>971</ele>
        <time>2009-07-12T12:30:15Z</time>
      </trkpt>
      <trkpt lat="44.95913" lon="3.54552">
        <ele>971</ele>
        <time>2009-07-12T12:30:16Z</time>
      </trkpt>
      <trkpt lat="44.95907" lon="3.54544">
        <ele>970</ele>
        <time>2009-07-12T12:30:18Z</time>
      </trkpt>
      <trkpt lat="44.95898" lon="3.54522">
        <ele>968</ele>
        <time>2009-07-12T12:30:22Z</time>
      </trkpt>
      <trkpt lat="44.95889" lon="3.54488">
        <ele>967</ele>
        <time>2009-07-12T12:30:26Z</time>
      </trkpt>
      <trkpt lat="44.95882" lon="3.54452">
        <ele>964</ele>
        <time>2009-07-12T12:30:30Z</time>
      </trkpt>
      <trkpt lat="44.95864" lon="3.54419">
        <ele>963</ele>
        <time>2009-07-12T12:30:35Z</time>
      </trkpt>
      <trkpt lat="44.95855" lon="3.54406">
        <ele>962</ele>
        <time>2009-07-12T12:30:37Z</time>
      </trkpt>
      <trkpt lat="44.95846" lon="3.54391">
        <ele>959</ele>
        <time>2009-07-12T12:30:39Z</time>
      </trkpt>
      <trkpt lat="44.95833" lon="3.54366">
        <ele>955</ele>
        <time>2009-07-12T12:30:42Z</time>
      </trkpt>
      <trkpt lat="44.95829" lon="3.54356">
        <ele>955</ele>
        <time>2009-07-12T12:30:43Z</time>
      </trkpt>
      <trkpt lat="44.95795" lon="3.54282">
        <ele>956</ele>
        <time>2009-07-12T12:30:51Z</time>
      </trkpt>
      <trkpt lat="44.9576" lon="3.5424">
        <ele>952</ele>
        <time>2009-07-12T12:30:57Z</time>
      </trkpt>
      <trkpt lat="44.95753" lon="3.54234">
        <ele>949</ele>
        <time>2009-07-12T12:30:58Z</time>
      </trkpt>
      <trkpt lat="44.9571" lon="3.54208">
        <ele>946</ele>
        <time>2009-07-12T12:31:03Z</time>
      </trkpt>
      <trkpt lat="44.95675" lon="3.54187">
        <ele>942</ele>
        <time>2009-07-12T12:31:07Z</time>
      </trkpt>
      <trkpt lat="44.95629" lon="3.54152">
        <ele>941</ele>
        <time>2009-07-12T12:31:13Z</time>
      </trkpt>
      <trkpt lat="44.95603" lon="3.54097">
        <ele>941</ele>
        <time>2009-07-12T12:31:19Z</time>
      </trkpt>
      <trkpt lat="44.95591" lon="3.54003">
        <ele>942</ele>
        <time>2009-07-12T12:31:31Z</time>
      </trkpt>
      <trkpt lat="44.95572" lon="3.53924">
        <ele>941</ele>
        <time>2009-07-12T12:31:43Z</time>
      </trkpt>
      <trkpt lat="44.95555" lon="3.53867">
        <ele>942</ele>
        <time>2009-07-12T12:31:54Z</time>
      </trkpt>
      <trkpt lat="44.95545" lon="3.53859">
        <ele>943</ele>
        <time>2009-07-12T12:31:57Z</time>
      </trkpt>
      <trkpt lat="44.95537" lon="3.53859">
        <ele>942</ele>
        <time>2009-07-12T12:31:59Z</time>
      </trkpt>
      <trkpt lat="44.95462" lon="3.53839">
        <ele>941</ele>
        <time>2009-07-12T12:32:16Z</time>
      </trkpt>
      <trkpt lat="44.95436" lon="3.53824">
        <ele>942</ele>
        <time>2009-07-12T12:32:22Z</time>
      </trkpt>
      <trkpt lat="44.95384" lon="3.53768">
        <ele>944</ele>
        <time>2009-07-12T12:32:37Z</time>
      </trkpt>
      <trkpt lat="44.95329" lon="3.53727">
        <ele>945</ele>
        <time>2009-07-12T12:32:54Z</time>
      </trkpt>
      <trkpt lat="44.95284" lon="3.53709">
        <ele>944</ele>
        <time>2009-07-12T12:33:08Z</time>
      </trkpt>
      <trkpt lat="44.9525" lon="3.53658">
        <ele>945</ele>
        <time>2009-07-12T12:33:23Z</time>
      </trkpt>
      <trkpt lat="44.95223" lon="3.53572">
        <ele>949</ele>
        <time>2009-07-12T12:33:42Z</time>
      </trkpt>
      <trkpt lat="44.9518" lon="3.53479">
        <ele>949</ele>
        <time>2009-07-12T12:34:02Z</time>
      </trkpt>
      <trkpt lat="44.95163" lon="3.53441">
        <ele>950</ele>
        <time>2009-07-12T12:34:10Z</time>
      </trkpt>
      <trkpt lat="44.95141" lon="3.53403">
        <ele>948</ele>
        <time>2009-07-12T12:34:18Z</time>
      </trkpt>
      <trkpt lat="44.95127" lon="3.53374">
        <ele>948</ele>
        <time>2009-07-12T12:34:24Z</time>
      </trkpt>
      <trkpt lat="44.95117" lon="3.53355">
        <ele>949</ele>
        <time>2009-07-12T12:34:28Z</time>
      </trkpt>
      <trkpt lat="44.95103" lon="3.53333">
        <ele>949</ele>
        <time>2009-07-12T12:34:33Z</time>
      </trkpt>
      <trkpt lat="44.95096" lon="3.53326">
        <ele>949</ele>
        <time>2009-07-12T12:34:35Z</time>
      </trkpt>
      <trkpt lat="44.95079" lon="3.53309">
        <ele>949</ele>
        <time>2009-07-12T12:34:40Z</time>
      </trkpt>
      <trkpt lat="44.95056" lon="3.53292">
        <ele>949</ele>
        <time>2009-07-12T12:34:46Z</time>
      </trkpt>
      <trkpt lat="44.95041" lon="3.53283">
        <ele>951</ele>
        <time>2009-07-12T12:34:50Z</time>
      </trkpt>
      <trkpt lat="44.95029" lon="3.53277">
        <ele>951</ele>
        <time>2009-07-12T12:34:53Z</time>
      </trkpt>
      <trkpt lat="44.95008" lon="3.53255">
        <ele>951</ele>
        <time>2009-07-12T12:35:00Z</time>
      </trkpt>
      <trkpt lat="44.94926" lon="3.53251">
        <ele>953</ele>
        <time>2009-07-12T12:35:20Z</time>
      </trkpt>
      <trkpt lat="44.94865" lon="3.53229">
        <ele>956</ele>
        <time>2009-07-12T12:35:40Z</time>
      </trkpt>
      <trkpt lat="44.94838" lon="3.53216">
        <ele>959</ele>
        <time>2009-07-12T12:35:50Z</time>
      </trkpt>
      <trkpt lat="44.94802" lon="3.53188">
        <ele>962</ele>
        <time>2009-07-12T12:36:06Z</time>
      </trkpt>
      <trkpt lat="44.94771" lon="3.53161">
        <ele>966</ele>
        <time>2009-07-12T12:36:21Z</time>
      </trkpt>
      <trkpt lat="44.94767" lon="3.53158">
        <ele>966</ele>
        <time>2009-07-12T12:36:23Z</time>
      </trkpt>
      <trkpt lat="44.94723" lon="3.53127">
        <ele>969</ele>
        <time>2009-07-12T12:36:44Z</time>
      </trkpt>
      <trkpt lat="44.94719" lon="3.53124">
        <ele>970</ele>
        <time>2009-07-12T12:36:46Z</time>
      </trkpt>
      <trkpt lat="44.94668" lon="3.5309">
        <ele>973</ele>
        <time>2009-07-12T12:37:09Z</time>
      </trkpt>
      <trkpt lat="44.94661" lon="3.53086">
        <ele>974</ele>
        <time>2009-07-12T12:37:12Z</time>
      </trkpt>
      <trkpt lat="44.94623" lon="3.53059">
        <ele>977</ele>
        <time>2009-07-12T12:37:30Z</time>
      </trkpt>
      <trkpt lat="44.94621" lon="3.53057">
        <ele>977</ele>
        <time>2009-07-12T12:37:31Z</time>
      </trkpt>
      <trkpt lat="44.94585" lon="3.53026">
        <ele>980</ele>
        <time>2009-07-12T12:37:49Z</time>
      </trkpt>
      <trkpt lat="44.94532" lon="3.53006">
        <ele>982</ele>
        <time>2009-07-12T12:38:12Z</time>
      </trkpt>
      <trkpt lat="44.94495" lon="3.52982">
        <ele>985</ele>
        <time>2009-07-12T12:38:31Z</time>
      </trkpt>
      <trkpt lat="44.9448" lon="3.52963">
        <ele>988</ele>
        <time>2009-07-12T12:38:41Z</time>
      </trkpt>
      <trkpt lat="44.9446" lon="3.52924">
        <ele>991</ele>
        <time>2009-07-12T12:38:57Z</time>
      </trkpt>
      <trkpt lat="44.94421" lon="3.52876">
        <ele>993</ele>
        <time>2009-07-12T12:39:18Z</time>
      </trkpt>
      <trkpt lat="44.94377" lon="3.52825">
        <ele>995</ele>
        <time>2009-07-12T12:39:41Z</time>
      </trkpt>
      <trkpt lat="44.94343" lon="3.52798">
        <ele>998</ele>
        <time>2009-07-12T12:39:56Z</time>
      </trkpt>
      <trkpt lat="44.94309" lon="3.52797">
        <ele>1002</ele>
        <time>2009-07-12T12:40:10Z</time>
      </trkpt>
      <trkpt lat="44.94265" lon="3.52815">
        <ele>1003</ele>
        <time>2009-07-12T12:40:29Z</time>
      </trkpt>
      <trkpt lat="44.94221" lon="3.52834">
        <ele>1006</ele>
        <time>2009-07-12T12:40:47Z</time>
      </trkpt>
      <trkpt lat="44.94218" lon="3.52836">
        <ele>1006</ele>
        <time>2009-07-12T12:40:48Z</time>
      </trkpt>
      <trkpt lat="44.94183" lon="3.5285">
        <ele>1006</ele>
        <time>2009-07-12T12:41:01Z</time>
      </trkpt>
      <trkpt lat="44.94137" lon="3.52858">
        <ele>1005</ele>
        <time>2009-07-12T12:41:16Z</time>
      </trkpt>
      <trkpt lat="44.94118" lon="3.52851">
        <ele>1002</ele>
        <time>2009-07-12T12:41:20Z</time>
      </trkpt>
      <trkpt lat="44.94091" lon="3.52846">
        <ele>1001</ele>
        <time>2009-07-12T12:41:24Z</time>
      </trkpt>
      <trkpt lat="44.9403" lon="3.52873">
        <ele>1002</ele>
        <time>2009-07-12T12:41:35Z</time>
      </trkpt>
      <trkpt lat="44.94001" lon="3.52917">
        <ele>1004</ele>
        <time>2009-07-12T12:41:47Z</time>
      </trkpt>
      <trkpt lat="44.93991" lon="3.52954">
        <ele>1007</ele>
        <time>2009-07-12T12:41:56Z</time>
      </trkpt>
      <trkpt lat="44.93984" lon="3.52967">
        <ele>1011</ele>
        <time>2009-07-12T12:42:01Z</time>
      </trkpt>
      <trkpt lat="44.93954" lon="3.52986">
        <ele>1015</ele>
        <time>2009-07-12T12:42:17Z</time>
      </trkpt>
      <trkpt lat="44.93931" lon="3.52991">
        <ele>1018</ele>
        <time>2009-07-12T12:42:28Z</time>
      </trkpt>
      <trkpt lat="44.93895" lon="3.5298">
        <ele>1019</ele>
        <time>2009-07-12T12:42:44Z</time>
      </trkpt>
      <trkpt lat="44.93858" lon="3.52965">
        <ele>1020</ele>
        <time>2009-07-12T12:43:00Z</time>
      </trkpt>
      <trkpt lat="44.93842" lon="3.52949">
        <ele>1021</ele>
        <time>2009-07-12T12:43:08Z</time>
      </trkpt>
      <trkpt lat="44.93815" lon="3.52909">
        <ele>1025</ele>
        <time>2009-07-12T12:43:22Z</time>
      </trkpt>
      <trkpt lat="44.93797" lon="3.52881">
        <ele>1026</ele>
        <time>2009-07-12T12:43:31Z</time>
      </trkpt>
      <trkpt lat="44.9377" lon="3.52853">
        <ele>1026</ele>
        <time>2009-07-12T12:43:44Z</time>
      </trkpt>
      <trkpt lat="44.93718" lon="3.52857">
        <ele>1028</ele>
        <time>2009-07-12T12:44:02Z</time>
      </trkpt>
      <trkpt lat="44.93682" lon="3.52843">
        <ele>1030</ele>
        <time>2009-07-12T12:44:14Z</time>
      </trkpt>
      <trkpt lat="44.93661" lon="3.52811">
        <ele>1029</ele>
        <time>2009-07-12T12:44:22Z</time>
      </trkpt>
      <trkpt lat="44.93616" lon="3.52725">
        <ele>1030</ele>
        <time>2009-07-12T12:44:42Z</time>
      </trkpt>
      <trkpt lat="44.93595" lon="3.52686">
        <ele>1031</ele>
        <time>2009-07-12T12:44:51Z</time>
      </trkpt>
      <trkpt lat="44.93566" lon="3.52617">
        <ele>1033</ele>
        <time>2009-07-12T12:45:07Z</time>
      </trkpt>
      <trkpt lat="44.93557" lon="3.52582">
        <ele>1034</ele>
        <time>2009-07-12T12:45:14Z</time>
      </trkpt>
      <trkpt lat="44.93553" lon="3.52562">
        <ele>1032</ele>
        <time>2009-07-12T12:45:18Z</time>
      </trkpt>
      <trkpt lat="44.93533" lon="3.52507">
        <ele>1032</ele>
        <time>2009-07-12T12:45:30Z</time>
      </trkpt>
      <trkpt lat="44.93491" lon="3.52444">
        <ele>1033</ele>
        <time>2009-07-12T12:45:46Z</time>
      </trkpt>
      <trkpt lat="44.93488" lon="3.52441">
        <ele>1033</ele>
        <time>2009-07-12T12:45:47Z</time>
      </trkpt>
      <trkpt lat="44.93471" lon="3.52434">
        <ele>1032</ele>
        <time>2009-07-12T12:45:51Z</time>
      </trkpt>
      <trkpt lat="44.93406" lon="3.52447">
        <ele>1031</ele>
        <time>2009-07-12T12:46:06Z</time>
      </trkpt>
      <trkpt lat="44.93352" lon="3.52448">
        <ele>1031</ele>
        <time>2009-07-12T12:46:19Z</time>
      </trkpt>
      <trkpt lat="44.93331" lon="3.52447">
        <ele>1032</ele>
        <time>2009-07-12T12:46:24Z</time>
      </trkpt>
      <trkpt lat="44.93265" lon="3.52446">
        <ele>1035</ele>
        <time>2009-07-12T12:46:42Z</time>
      </trkpt>
      <trkpt lat="44.93228" lon="3.52431">
        <ele>1038</ele>
        <time>2009-07-12T12:46:54Z</time>
      </trkpt>
      <trkpt lat="44.93174" lon="3.52417">
        <ele>1040</ele>
        <time>2009-07-12T12:47:13Z</time>
      </trkpt>
      <trkpt lat="44.93138" lon="3.52412">
        <ele>1043</ele>
        <time>2009-07-12T12:47:27Z</time>
      </trkpt>
      <trkpt lat="44.93115" lon="3.52398">
        <ele>1047</ele>
        <time>2009-07-12T12:47:38Z</time>
      </trkpt>
      <trkpt lat="44.93094" lon="3.52354">
        <ele>1048</ele>
        <time>2009-07-12T12:47:54Z</time>
      </trkpt>
      <trkpt lat="44.93052" lon="3.52327">
        <ele>1049</ele>
        <time>2009-07-12T12:48:10Z</time>
      </trkpt>
      <trkpt lat="44.93027" lon="3.52308">
        <ele>1048</ele>
        <time>2009-07-12T12:48:18Z</time>
      </trkpt>
      <trkpt lat="44.92994" lon="3.52307">
        <ele>1047</ele>
        <time>2009-07-12T12:48:25Z</time>
      </trkpt>
      <trkpt lat="44.92932" lon="3.52279">
        <ele>1048</ele>
        <time>2009-07-12T12:48:42Z</time>
      </trkpt>
      <trkpt lat="44.92871" lon="3.52241">
        <ele>1049</ele>
        <time>2009-07-12T12:49:01Z</time>
      </trkpt>
      <trkpt lat="44.9285" lon="3.52232">
        <ele>1052</ele>
        <time>2009-07-12T12:49:08Z</time>
      </trkpt>
      <trkpt lat="44.92817" lon="3.52216">
        <ele>1055</ele>
        <time>2009-07-12T12:49:22Z</time>
      </trkpt>
      <trkpt lat="44.92804" lon="3.52186">
        <ele>1057</ele>
        <time>2009-07-12T12:49:32Z</time>
      </trkpt>
      <trkpt lat="44.92777" lon="3.52141">
        <ele>1058</ele>
        <time>2009-07-12T12:49:49Z</time>
      </trkpt>
      <trkpt lat="44.92749" lon="3.52122">
        <ele>1061</ele>
        <time>2009-07-12T12:50:02Z</time>
      </trkpt>
      <trkpt lat="44.9272" lon="3.52107">
        <ele>1064</ele>
        <time>2009-07-12T12:50:15Z</time>
      </trkpt>
      <trkpt lat="44.9268" lon="3.5208">
        <ele>1066</ele>
        <time>2009-07-12T12:50:34Z</time>
      </trkpt>
      <trkpt lat="44.92648" lon="3.52059">
        <ele>1069</ele>
        <time>2009-07-12T12:50:50Z</time>
      </trkpt>
      <trkpt lat="44.92626" lon="3.52016">
        <ele>1070</ele>
        <time>2009-07-12T12:51:05Z</time>
      </trkpt>
      <trkpt lat="44.92612" lon="3.51991">
        <ele>1073</ele>
        <time>2009-07-12T12:51:13Z</time>
      </trkpt>
      <trkpt lat="44.92579" lon="3.5194">
        <ele>1076</ele>
        <time>2009-07-12T12:51:31Z</time>
      </trkpt>
      <trkpt lat="44.92542" lon="3.51905">
        <ele>1077</ele>
        <time>2009-07-12T12:51:47Z</time>
      </trkpt>
      <trkpt lat="44.92502" lon="3.51854">
        <ele>1079</ele>
        <time>2009-07-12T12:52:07Z</time>
      </trkpt>
      <trkpt lat="44.92468" lon="3.51805">
        <ele>1080</ele>
        <time>2009-07-12T12:52:21Z</time>
      </trkpt>
      <trkpt lat="44.92441" lon="3.51769">
        <ele>1079</ele>
        <time>2009-07-12T12:52:33Z</time>
      </trkpt>
      <trkpt lat="44.92414" lon="3.51726">
        <ele>1077</ele>
        <time>2009-07-12T12:52:45Z</time>
      </trkpt>
      <trkpt lat="44.92401" lon="3.51703">
        <ele>1077</ele>
        <time>2009-07-12T12:52:54Z</time>
      </trkpt>
      <trkpt lat="44.92403" lon="3.51701">
        <ele>1077</ele>
        <time>2009-07-12T12:53:30Z</time>
      </trkpt>
      <trkpt lat="44.92399" lon="3.51705">
        <ele>1077</ele>
        <time>2009-07-12T12:54:25Z</time>
      </trkpt>
      <trkpt lat="44.92397" lon="3.51706">
        <ele>1077</ele>
        <time>2009-07-12T12:54:41Z</time>
      </trkpt>
      <trkpt lat="44.92399" lon="3.51703">
        <ele>1077</ele>
        <time>2009-07-12T12:55:23Z</time>
      </trkpt>
      <trkpt lat="44.92399" lon="3.51703">
        <ele>1077</ele>
        <time>2009-07-12T12:56:03Z</time>
      </trkpt>
      <trkpt lat="44.92399" lon="3.51701">
        <ele>1077</ele>
        <time>2009-07-12T12:56:24Z</time>
      </trkpt>
      <trkpt lat="44.92393" lon="3.51679">
        <ele>1077</ele>
        <time>2009-07-12T12:56:32Z</time>
      </trkpt>
      <trkpt lat="44.92387" lon="3.51665">
        <ele>1076</ele>
        <time>2009-07-12T12:56:35Z</time>
      </trkpt>
      <trkpt lat="44.92381" lon="3.51657">
        <ele>1076</ele>
        <time>2009-07-12T12:56:37Z</time>
      </trkpt>
      <trkpt lat="44.92373" lon="3.51653">
        <ele>1075</ele>
        <time>2009-07-12T12:56:39Z</time>
      </trkpt>
      <trkpt lat="44.92327" lon="3.51608">
        <ele>1072</ele>
        <time>2009-07-12T12:56:53Z</time>
      </trkpt>
      <trkpt lat="44.92319" lon="3.51591">
        <ele>1071</ele>
        <time>2009-07-12T12:56:56Z</time>
      </trkpt>
      <trkpt lat="44.92284" lon="3.51505">
        <ele>1069</ele>
        <time>2009-07-12T12:57:08Z</time>
      </trkpt>
      <trkpt lat="44.92249" lon="3.5143">
        <ele>1065</ele>
        <time>2009-07-12T12:57:17Z</time>
      </trkpt>
      <trkpt lat="44.92241" lon="3.51412">
        <ele>1065</ele>
        <time>2009-07-12T12:57:19Z</time>
      </trkpt>
      <trkpt lat="44.92208" lon="3.51303">
        <ele>1064</ele>
        <time>2009-07-12T12:57:32Z</time>
      </trkpt>
      <trkpt lat="44.92204" lon="3.51289">
        <ele>1064</ele>
        <time>2009-07-12T12:57:34Z</time>
      </trkpt>
      <trkpt lat="44.92199" lon="3.51261">
        <ele>1065</ele>
        <time>2009-07-12T12:57:39Z</time>
      </trkpt>
      <trkpt lat="44.92183" lon="3.51198">
        <ele>1066</ele>
        <time>2009-07-12T12:57:52Z</time>
      </trkpt>
      <trkpt lat="44.92165" lon="3.51129">
        <ele>1068</ele>
        <time>2009-07-12T12:58:07Z</time>
      </trkpt>
      <trkpt lat="44.92149" lon="3.51061">
        <ele>1070</ele>
        <time>2009-07-12T12:58:23Z</time>
      </trkpt>
      <trkpt lat="44.92126" lon="3.50991">
        <ele>1072</ele>
        <time>2009-07-12T12:58:40Z</time>
      </trkpt>
      <trkpt lat="44.92099" lon="3.50931">
        <ele>1070</ele>
        <time>2009-07-12T12:58:54Z</time>
      </trkpt>
      <trkpt lat="44.92094" lon="3.50921">
        <ele>1070</ele>
        <time>2009-07-12T12:58:56Z</time>
      </trkpt>
      <trkpt lat="44.92086" lon="3.50905">
        <ele>1068</ele>
        <time>2009-07-12T12:58:59Z</time>
      </trkpt>
      <trkpt lat="44.92064" lon="3.5085">
        <ele>1067</ele>
        <time>2009-07-12T12:59:08Z</time>
      </trkpt>
      <trkpt lat="44.92048" lon="3.50808">
        <ele>1066</ele>
        <time>2009-07-12T12:59:15Z</time>
      </trkpt>
      <trkpt lat="44.92039" lon="3.50781">
        <ele>1065</ele>
        <time>2009-07-12T12:59:19Z</time>
      </trkpt>
      <trkpt lat="44.92022" lon="3.50746">
        <ele>1062</ele>
        <time>2009-07-12T12:59:24Z</time>
      </trkpt>
      <trkpt lat="44.92006" lon="3.507">
        <ele>1059</ele>
        <time>2009-07-12T12:59:29Z</time>
      </trkpt>
      <trkpt lat="44.92003" lon="3.50692">
        <ele>1059</ele>
        <time>2009-07-12T12:59:30Z</time>
      </trkpt>
      <trkpt lat="44.91968" lon="3.50632">
        <ele>1058</ele>
        <time>2009-07-12T12:59:44Z</time>
      </trkpt>
      <trkpt lat="44.91965" lon="3.50628">
        <ele>1058</ele>
        <time>2009-07-12T12:59:45Z</time>
      </trkpt>
      <trkpt lat="44.91959" lon="3.5062">
        <ele>1056</ele>
        <time>2009-07-12T12:59:47Z</time>
      </trkpt>
      <trkpt lat="44.91933" lon="3.50599">
        <ele>1054</ele>
        <time>2009-07-12T12:59:54Z</time>
      </trkpt>
      <trkpt lat="44.91915" lon="3.5056">
        <ele>1053</ele>
        <time>2009-07-12T13:00:00Z</time>
      </trkpt>
      <trkpt lat="44.91908" lon="3.50525">
        <ele>1052</ele>
        <time>2009-07-12T13:00:04Z</time>
      </trkpt>
      <trkpt lat="44.91876" lon="3.50481">
        <ele>1053</ele>
        <time>2009-07-12T13:00:12Z</time>
      </trkpt>
      <trkpt lat="44.91867" lon="3.5048">
        <ele>1053</ele>
        <time>2009-07-12T13:00:14Z</time>
      </trkpt>
      <trkpt lat="44.91828" lon="3.50495">
        <ele>1054</ele>
        <time>2009-07-12T13:00:25Z</time>
      </trkpt>
      <trkpt lat="44.91806" lon="3.50518">
        <ele>1057</ele>
        <time>2009-07-12T13:00:35Z</time>
      </trkpt>
      <trkpt lat="44.91797" lon="3.50533">
        <ele>1058</ele>
        <time>2009-07-12T13:00:41Z</time>
      </trkpt>
      <trkpt lat="44.91776" lon="3.50559">
        <ele>1061</ele>
        <time>2009-07-12T13:00:54Z</time>
      </trkpt>
      <trkpt lat="44.91753" lon="3.50559">
        <ele>1065</ele>
        <time>2009-07-12T13:01:09Z</time>
      </trkpt>
      <trkpt lat="44.91743" lon="3.50533">
        <ele>1066</ele>
        <time>2009-07-12T13:01:23Z</time>
      </trkpt>
      <trkpt lat="44.91733" lon="3.50491">
        <ele>1068</ele>
        <time>2009-07-12T13:01:39Z</time>
      </trkpt>
      <trkpt lat="44.91727" lon="3.50469">
        <ele>1071</ele>
        <time>2009-07-12T13:01:48Z</time>
      </trkpt>
      <trkpt lat="44.91714" lon="3.50433">
        <ele>1073</ele>
        <time>2009-07-12T13:02:05Z</time>
      </trkpt>
      <trkpt lat="44.91691" lon="3.50411">
        <ele>1076</ele>
        <time>2009-07-12T13:02:20Z</time>
      </trkpt>
      <trkpt lat="44.91652" lon="3.50408">
        <ele>1079</ele>
        <time>2009-07-12T13:02:36Z</time>
      </trkpt>
      <trkpt lat="44.91634" lon="3.50411">
        <ele>1079</ele>
        <time>2009-07-12T13:02:43Z</time>
      </trkpt>
      <trkpt lat="44.91582" lon="3.50434">
        <ele>1080</ele>
        <time>2009-07-12T13:03:02Z</time>
      </trkpt>
      <trkpt lat="44.91518" lon="3.50465">
        <ele>1083</ele>
        <time>2009-07-12T13:03:23Z</time>
      </trkpt>
      <trkpt lat="44.91473" lon="3.50453">
        <ele>1086</ele>
        <time>2009-07-12T13:03:39Z</time>
      </trkpt>
      <trkpt lat="44.91434" lon="3.50433">
        <ele>1089</ele>
        <time>2009-07-12T13:03:56Z</time>
      </trkpt>
      <trkpt lat="44.91381" lon="3.50412">
        <ele>1092</ele>
        <time>2009-07-12T13:04:18Z</time>
      </trkpt>
      <trkpt lat="44.91351" lon="3.50397">
        <ele>1094</ele>
        <time>2009-07-12T13:04:30Z</time>
      </trkpt>
      <trkpt lat="44.91315" lon="3.50388">
        <ele>1096</ele>
        <time>2009-07-12T13:04:44Z</time>
      </trkpt>
      <trkpt lat="44.91263" lon="3.50386">
        <ele>1099</ele>
        <time>2009-07-12T13:05:03Z</time>
      </trkpt>
      <trkpt lat="44.91204" lon="3.50402">
        <ele>1101</ele>
        <time>2009-07-12T13:05:24Z</time>
      </trkpt>
      <trkpt lat="44.91152" lon="3.50417">
        <ele>1098</ele>
        <time>2009-07-12T13:05:38Z</time>
      </trkpt>
      <trkpt lat="44.91118" lon="3.50424">
        <ele>1098</ele>
        <time>2009-07-12T13:05:44Z</time>
      </trkpt>
      <trkpt lat="44.91096" lon="3.50447">
        <ele>1097</ele>
        <time>2009-07-12T13:05:49Z</time>
      </trkpt>
      <trkpt lat="44.91084" lon="3.50471">
        <ele>1096</ele>
        <time>2009-07-12T13:05:52Z</time>
      </trkpt>
      <trkpt lat="44.91073" lon="3.50486">
        <ele>1095</ele>
        <time>2009-07-12T13:05:54Z</time>
      </trkpt>
      <trkpt lat="44.9106" lon="3.50494">
        <ele>1097</ele>
        <time>2009-07-12T13:05:56Z</time>
      </trkpt>
      <trkpt lat="44.91025" lon="3.50512">
        <ele>1098</ele>
        <time>2009-07-12T13:06:08Z</time>
      </trkpt>
      <trkpt lat="44.91" lon="3.50525">
        <ele>1099</ele>
        <time>2009-07-12T13:06:22Z</time>
      </trkpt>
      <trkpt lat="44.90999" lon="3.50527">
        <ele>1100</ele>
        <time>2009-07-12T13:07:15Z</time>
      </trkpt>
      <trkpt lat="44.90976" lon="3.50509">
        <ele>1101</ele>
        <time>2009-07-12T13:07:27Z</time>
      </trkpt>
      <trkpt lat="44.90975" lon="3.50506">
        <ele>1101</ele>
        <time>2009-07-12T13:07:28Z</time>
      </trkpt>
      <trkpt lat="44.90968" lon="3.50444">
        <ele>1102</ele>
        <time>2009-07-12T13:07:44Z</time>
      </trkpt>
      <trkpt lat="44.90969" lon="3.50411">
        <ele>1105</ele>
        <time>2009-07-12T13:07:53Z</time>
      </trkpt>
      <trkpt lat="44.90944" lon="3.50379">
        <ele>1106</ele>
        <time>2009-07-12T13:08:08Z</time>
      </trkpt>
      <trkpt lat="44.90912" lon="3.50367">
        <ele>1109</ele>
        <time>2009-07-12T13:08:22Z</time>
      </trkpt>
      <trkpt lat="44.90894" lon="3.50361">
        <ele>1110</ele>
        <time>2009-07-12T13:08:29Z</time>
      </trkpt>
      <trkpt lat="44.90852" lon="3.50285">
        <ele>1109</ele>
        <time>2009-07-12T13:08:52Z</time>
      </trkpt>
      <trkpt lat="44.90824" lon="3.50242">
        <ele>1107</ele>
        <time>2009-07-12T13:09:03Z</time>
      </trkpt>
      <trkpt lat="44.90788" lon="3.50204">
        <ele>1105</ele>
        <time>2009-07-12T13:09:10Z</time>
      </trkpt>
      <trkpt lat="44.90775" lon="3.50194">
        <ele>1104</ele>
        <time>2009-07-12T13:09:12Z</time>
      </trkpt>
      <trkpt lat="44.90752" lon="3.50188">
        <ele>1102</ele>
        <time>2009-07-12T13:09:15Z</time>
      </trkpt>
      <trkpt lat="44.90658" lon="3.50188">
        <ele>1103</ele>
        <time>2009-07-12T13:09:29Z</time>
      </trkpt>
      <trkpt lat="44.90653" lon="3.50188">
        <ele>1102</ele>
        <time>2009-07-12T13:09:30Z</time>
      </trkpt>
      <trkpt lat="44.90597" lon="3.50193">
        <ele>1105</ele>
        <time>2009-07-12T13:09:42Z</time>
      </trkpt>
      <trkpt lat="44.90528" lon="3.502">
        <ele>1105</ele>
        <time>2009-07-12T13:10:00Z</time>
      </trkpt>
      <trkpt lat="44.90464" lon="3.50187">
        <ele>1105</ele>
        <time>2009-07-12T13:10:18Z</time>
      </trkpt>
      <trkpt lat="44.90396" lon="3.50183">
        <ele>1109</ele>
        <time>2009-07-12T13:10:38Z</time>
      </trkpt>
      <trkpt lat="44.90354" lon="3.50148">
        <ele>1112</ele>
        <time>2009-07-12T13:10:53Z</time>
      </trkpt>
      <trkpt lat="44.90326" lon="3.50116">
        <ele>1115</ele>
        <time>2009-07-12T13:11:06Z</time>
      </trkpt>
      <trkpt lat="44.90312" lon="3.50106">
        <ele>1117</ele>
        <time>2009-07-12T13:11:12Z</time>
      </trkpt>
      <trkpt lat="44.90256" lon="3.50078">
        <ele>1118</ele>
        <time>2009-07-12T13:11:33Z</time>
      </trkpt>
      <trkpt lat="44.90227" lon="3.50058">
        <ele>1121</ele>
        <time>2009-07-12T13:11:44Z</time>
      </trkpt>
      <trkpt lat="44.90169" lon="3.50036">
        <ele>1121</ele>
        <time>2009-07-12T13:12:03Z</time>
      </trkpt>
      <trkpt lat="44.90099" lon="3.50029">
        <ele>1121</ele>
        <time>2009-07-12T13:12:23Z</time>
      </trkpt>
      <trkpt lat="44.90036" lon="3.50039">
        <ele>1123</ele>
        <time>2009-07-12T13:12:44Z</time>
      </trkpt>
      <trkpt lat="44.90016" lon="3.50043">
        <ele>1125</ele>
        <time>2009-07-12T13:12:51Z</time>
      </trkpt>
      <trkpt lat="44.89976" lon="3.50051">
        <ele>1128</ele>
        <time>2009-07-12T13:13:05Z</time>
      </trkpt>
      <trkpt lat="44.89927" lon="3.50068">
        <ele>1132</ele>
        <time>2009-07-12T13:13:22Z</time>
      </trkpt>
      <trkpt lat="44.89871" lon="3.5009">
        <ele>1131</ele>
        <time>2009-07-12T13:13:39Z</time>
      </trkpt>
      <trkpt lat="44.89815" lon="3.50069">
        <ele>1132</ele>
        <time>2009-07-12T13:13:54Z</time>
      </trkpt>
      <trkpt lat="44.89759" lon="3.50042">
        <ele>1135</ele>
        <time>2009-07-12T13:14:11Z</time>
      </trkpt>
      <trkpt lat="44.89718" lon="3.50027">
        <ele>1138</ele>
        <time>2009-07-12T13:14:26Z</time>
      </trkpt>
      <trkpt lat="44.89672" lon="3.50013">
        <ele>1141</ele>
        <time>2009-07-12T13:14:45Z</time>
      </trkpt>
      <trkpt lat="44.89651" lon="3.50006">
        <ele>1144</ele>
        <time>2009-07-12T13:14:56Z</time>
      </trkpt>
      <trkpt lat="44.89635" lon="3.50001">
        <ele>1146</ele>
        <time>2009-07-12T13:15:04Z</time>
      </trkpt>
      <trkpt lat="44.89586" lon="3.49996">
        <ele>1149</ele>
        <time>2009-07-12T13:15:28Z</time>
      </trkpt>
      <trkpt lat="44.89547" lon="3.50004">
        <ele>1152</ele>
        <time>2009-07-12T13:15:46Z</time>
      </trkpt>
      <trkpt lat="44.89534" lon="3.50008">
        <ele>1155</ele>
        <time>2009-07-12T13:15:52Z</time>
      </trkpt>
      <trkpt lat="44.89487" lon="3.50025">
        <ele>1157</ele>
        <time>2009-07-12T13:16:12Z</time>
      </trkpt>
      <trkpt lat="44.89452" lon="3.5002">
        <ele>1157</ele>
        <time>2009-07-12T13:16:25Z</time>
      </trkpt>
      <trkpt lat="44.89411" lon="3.5">
        <ele>1154</ele>
        <time>2009-07-12T13:16:39Z</time>
      </trkpt>
      <trkpt lat="44.8938" lon="3.49984">
        <ele>1151</ele>
        <time>2009-07-12T13:16:45Z</time>
      </trkpt>
      <trkpt lat="44.89368" lon="3.49977">
        <ele>1149</ele>
        <time>2009-07-12T13:16:47Z</time>
      </trkpt>
      <trkpt lat="44.89355" lon="3.4997">
        <ele>1147</ele>
        <time>2009-07-12T13:16:49Z</time>
      </trkpt>
      <trkpt lat="44.89334" lon="3.49959">
        <ele>1146</ele>
        <time>2009-07-12T13:16:52Z</time>
      </trkpt>
      <trkpt lat="44.89313" lon="3.49944">
        <ele>1145</ele>
        <time>2009-07-12T13:16:55Z</time>
      </trkpt>
      <trkpt lat="44.89258" lon="3.49862">
        <ele>1144</ele>
        <time>2009-07-12T13:17:06Z</time>
      </trkpt>
      <trkpt lat="44.89246" lon="3.49845">
        <ele>1145</ele>
        <time>2009-07-12T13:17:09Z</time>
      </trkpt>
      <trkpt lat="44.89201" lon="3.49758">
        <ele>1146</ele>
        <time>2009-07-12T13:17:27Z</time>
      </trkpt>
      <trkpt lat="44.8918" lon="3.49727">
        <ele>1146</ele>
        <time>2009-07-12T13:17:34Z</time>
      </trkpt>
      <trkpt lat="44.8914" lon="3.49649">
        <ele>1145</ele>
        <time>2009-07-12T13:17:48Z</time>
      </trkpt>
      <trkpt lat="44.89122" lon="3.49632">
        <ele>1144</ele>
        <time>2009-07-12T13:17:52Z</time>
      </trkpt>
      <trkpt lat="44.8911" lon="3.49628">
        <ele>1144</ele>
        <time>2009-07-12T13:17:54Z</time>
      </trkpt>
      <trkpt lat="44.89098" lon="3.49629">
        <ele>1143</ele>
        <time>2009-07-12T13:17:56Z</time>
      </trkpt>
      <trkpt lat="44.89078" lon="3.49626">
        <ele>1143</ele>
        <time>2009-07-12T13:17:59Z</time>
      </trkpt>
      <trkpt lat="44.89047" lon="3.49613">
        <ele>1142</ele>
        <time>2009-07-12T13:18:04Z</time>
      </trkpt>
      <trkpt lat="44.89018" lon="3.4958">
        <ele>1139</ele>
        <time>2009-07-12T13:18:09Z</time>
      </trkpt>
      <trkpt lat="44.89002" lon="3.49541">
        <ele>1142</ele>
        <time>2009-07-12T13:18:14Z</time>
      </trkpt>
      <trkpt lat="44.89001" lon="3.49536">
        <ele>1142</ele>
        <time>2009-07-12T13:18:15Z</time>
      </trkpt>
      <trkpt lat="44.88982" lon="3.49506">
        <ele>1140</ele>
        <time>2009-07-12T13:18:21Z</time>
      </trkpt>
      <trkpt lat="44.88959" lon="3.4949">
        <ele>1141</ele>
        <time>2009-07-12T13:18:27Z</time>
      </trkpt>
      <trkpt lat="44.88937" lon="3.49491">
        <ele>1141</ele>
        <time>2009-07-12T13:18:32Z</time>
      </trkpt>
      <trkpt lat="44.88928" lon="3.49494">
        <ele>1141</ele>
        <time>2009-07-12T13:18:34Z</time>
      </trkpt>
      <trkpt lat="44.88912" lon="3.49493">
        <ele>1141</ele>
        <time>2009-07-12T13:18:38Z</time>
      </trkpt>
      <trkpt lat="44.8885" lon="3.49454">
        <ele>1144</ele>
        <time>2009-07-12T13:18:57Z</time>
      </trkpt>
      <trkpt lat="44.88813" lon="3.49436">
        <ele>1147</ele>
        <time>2009-07-12T13:19:12Z</time>
      </trkpt>
      <trkpt lat="44.88795" lon="3.49457">
        <ele>1146</ele>
        <time>2009-07-12T13:19:22Z</time>
      </trkpt>
      <trkpt lat="44.88768" lon="3.49513">
        <ele>1148</ele>
        <time>2009-07-12T13:19:40Z</time>
      </trkpt>
      <trkpt lat="44.88756" lon="3.49538">
        <ele>1150</ele>
        <time>2009-07-12T13:19:48Z</time>
      </trkpt>
      <trkpt lat="44.88726" lon="3.49582">
        <ele>1154</ele>
        <time>2009-07-12T13:20:05Z</time>
      </trkpt>
      <trkpt lat="44.88711" lon="3.49602">
        <ele>1157</ele>
        <time>2009-07-12T13:20:15Z</time>
      </trkpt>
      <trkpt lat="44.88676" lon="3.49642">
        <ele>1159</ele>
        <time>2009-07-12T13:20:32Z</time>
      </trkpt>
      <trkpt lat="44.88627" lon="3.49676">
        <ele>1159</ele>
        <time>2009-07-12T13:20:48Z</time>
      </trkpt>
      <trkpt lat="44.88607" lon="3.49683">
        <ele>1158</ele>
        <time>2009-07-12T13:20:53Z</time>
      </trkpt>
      <trkpt lat="44.88534" lon="3.4968">
        <ele>1158</ele>
        <time>2009-07-12T13:21:09Z</time>
      </trkpt>
      <trkpt lat="44.88451" lon="3.49671">
        <ele>1156</ele>
        <time>2009-07-12T13:21:27Z</time>
      </trkpt>
      <trkpt lat="44.88412" lon="3.49678">
        <ele>1156</ele>
        <time>2009-07-12T13:21:35Z</time>
      </trkpt>
      <trkpt lat="44.88387" lon="3.49705">
        <ele>1155</ele>
        <time>2009-07-12T13:21:41Z</time>
      </trkpt>
      <trkpt lat="44.88333" lon="3.49819">
        <ele>1154</ele>
        <time>2009-07-12T13:22:01Z</time>
      </trkpt>
      <trkpt lat="44.88328" lon="3.49829">
        <ele>1155</ele>
        <time>2009-07-12T13:22:03Z</time>
      </trkpt>
      <trkpt lat="44.88283" lon="3.49879">
        <ele>1151</ele>
        <time>2009-07-12T13:22:13Z</time>
      </trkpt>
      <trkpt lat="44.88271" lon="3.49887">
        <ele>1150</ele>
        <time>2009-07-12T13:22:15Z</time>
      </trkpt>
      <trkpt lat="44.88234" lon="3.49903">
        <ele>1147</ele>
        <time>2009-07-12T13:22:20Z</time>
      </trkpt>
      <trkpt lat="44.88227" lon="3.49905">
        <ele>1145</ele>
        <time>2009-07-12T13:22:21Z</time>
      </trkpt>
      <trkpt lat="44.88197" lon="3.49902">
        <ele>1140</ele>
        <time>2009-07-12T13:22:25Z</time>
      </trkpt>
      <trkpt lat="44.88166" lon="3.49903">
        <ele>1138</ele>
        <time>2009-07-12T13:22:30Z</time>
      </trkpt>
      <trkpt lat="44.88146" lon="3.49911">
        <ele>1137</ele>
        <time>2009-07-12T13:22:34Z</time>
      </trkpt>
      <trkpt lat="44.88122" lon="3.49928">
        <ele>1133</ele>
        <time>2009-07-12T13:22:40Z</time>
      </trkpt>
      <trkpt lat="44.88094" lon="3.49951">
        <ele>1135</ele>
        <time>2009-07-12T13:22:46Z</time>
      </trkpt>
      <trkpt lat="44.88077" lon="3.49958">
        <ele>1134</ele>
        <time>2009-07-12T13:22:51Z</time>
      </trkpt>
      <trkpt lat="44.8806" lon="3.49962">
        <ele>1133</ele>
        <time>2009-07-12T13:23:02Z</time>
      </trkpt>
      <trkpt lat="44.88053" lon="3.49966">
        <ele>1130</ele>
        <time>2009-07-12T13:23:16Z</time>
      </trkpt>
      <trkpt lat="44.88046" lon="3.49964">
        <ele>1129</ele>
        <time>2009-07-12T13:23:19Z</time>
      </trkpt>
      <trkpt lat="44.88034" lon="3.49965">
        <ele>1126</ele>
        <time>2009-07-12T13:23:23Z</time>
      </trkpt>
      <trkpt lat="44.88032" lon="3.49967">
        <ele>1125</ele>
        <time>2009-07-12T13:23:35Z</time>
      </trkpt>
      <trkpt lat="44.88032" lon="3.49968">
        <ele>1124</ele>
        <time>2009-07-12T13:24:04Z</time>
      </trkpt>
      <trkpt lat="44.88031" lon="3.49966">
        <ele>1125</ele>
        <time>2009-07-12T13:25:14Z</time>
      </trkpt>
      <trkpt lat="44.88029" lon="3.4995">
        <ele>1123</ele>
        <time>2009-07-12T13:25:20Z</time>
      </trkpt>
      <trkpt lat="44.88032" lon="3.49937">
        <ele>1123</ele>
        <time>2009-07-12T13:25:26Z</time>
      </trkpt>
      <trkpt lat="44.88023" lon="3.49945">
        <ele>1120</ele>
        <time>2009-07-12T13:25:31Z</time>
      </trkpt>
      <trkpt lat="44.88019" lon="3.49964">
        <ele>1122</ele>
        <time>2009-07-12T13:25:35Z</time>
      </trkpt>
      <trkpt lat="44.8802" lon="3.49973">
        <ele>1121</ele>
        <time>2009-07-12T13:25:47Z</time>
      </trkpt>
      <trkpt lat="44.88021" lon="3.49996">
        <ele>1117</ele>
        <time>2009-07-12T13:26:16Z</time>
      </trkpt>
      <trkpt lat="44.88012" lon="3.5001">
        <ele>1113</ele>
        <time>2009-07-12T13:26:20Z</time>
      </trkpt>
      <trkpt lat="44.88009" lon="3.5001">
        <ele>1112</ele>
        <time>2009-07-12T13:26:21Z</time>
      </trkpt>
      <trkpt lat="44.88002" lon="3.50007">
        <ele>1111</ele>
        <time>2009-07-12T13:26:23Z</time>
      </trkpt>
      <trkpt lat="44.87997" lon="3.50001">
        <ele>1111</ele>
        <time>2009-07-12T13:26:24Z</time>
      </trkpt>
      <trkpt lat="44.87988" lon="3.49995">
        <ele>1109</ele>
        <time>2009-07-12T13:26:26Z</time>
      </trkpt>
      <trkpt lat="44.8798" lon="3.49999">
        <ele>1107</ele>
        <time>2009-07-12T13:26:28Z</time>
      </trkpt>
      <trkpt lat="44.87953" lon="3.50016">
        <ele>1100</ele>
        <time>2009-07-12T13:26:33Z</time>
      </trkpt>
      <trkpt lat="44.87945" lon="3.50016">
        <ele>1102</ele>
        <time>2009-07-12T13:26:34Z</time>
      </trkpt>
      <trkpt lat="44.87929" lon="3.50017">
        <ele>1100</ele>
        <time>2009-07-12T13:26:36Z</time>
      </trkpt>
      <trkpt lat="44.87895" lon="3.50022">
        <ele>1096</ele>
        <time>2009-07-12T13:26:40Z</time>
      </trkpt>
      <trkpt lat="44.87851" lon="3.50005">
        <ele>1098</ele>
        <time>2009-07-12T13:26:47Z</time>
      </trkpt>
      <trkpt lat="44.87839" lon="3.50004">
        <ele>1100</ele>
        <time>2009-07-12T13:26:50Z</time>
      </trkpt>
      <trkpt lat="44.87826" lon="3.49996">
        <ele>1098</ele>
        <time>2009-07-12T13:26:54Z</time>
      </trkpt>
      <trkpt lat="44.87797" lon="3.4997">
        <ele>1101</ele>
        <time>2009-07-12T13:27:08Z</time>
      </trkpt>
      <trkpt lat="44.87773" lon="3.49952">
        <ele>1104</ele>
        <time>2009-07-12T13:27:20Z</time>
      </trkpt>
      <trkpt lat="44.87741" lon="3.49942">
        <ele>1106</ele>
        <time>2009-07-12T13:27:33Z</time>
      </trkpt>
      <trkpt lat="44.87705" lon="3.49921">
        <ele>1107</ele>
        <time>2009-07-12T13:27:47Z</time>
      </trkpt>
      <trkpt lat="44.87665" lon="3.49896">
        <ele>1109</ele>
        <time>2009-07-12T13:28:03Z</time>
      </trkpt>
      <trkpt lat="44.87616" lon="3.49878">
        <ele>1109</ele>
        <time>2009-07-12T13:28:20Z</time>
      </trkpt>
      <trkpt lat="44.87582" lon="3.49853">
        <ele>1112</ele>
        <time>2009-07-12T13:28:35Z</time>
      </trkpt>
      <trkpt lat="44.87541" lon="3.49821">
        <ele>1114</ele>
        <time>2009-07-12T13:28:55Z</time>
      </trkpt>
      <trkpt lat="44.87525" lon="3.49813">
        <ele>1118</ele>
        <time>2009-07-12T13:29:04Z</time>
      </trkpt>
      <trkpt lat="44.87524" lon="3.49813">
        <ele>1117</ele>
        <time>2009-07-12T13:29:07Z</time>
      </trkpt>
      <trkpt lat="44.87523" lon="3.49811">
        <ele>1117</ele>
        <time>2009-07-12T13:29:09Z</time>
      </trkpt>
      <trkpt lat="44.875" lon="3.49789">
        <ele>1117</ele>
        <time>2009-07-12T13:29:23Z</time>
      </trkpt>
      <trkpt lat="44.87474" lon="3.49764">
        <ele>1120</ele>
        <time>2009-07-12T13:29:38Z</time>
      </trkpt>
      <trkpt lat="44.87464" lon="3.49752">
        <ele>1123</ele>
        <time>2009-07-12T13:29:51Z</time>
      </trkpt>
      <trkpt lat="44.8746" lon="3.49746">
        <ele>1122</ele>
        <time>2009-07-12T13:30:03Z</time>
      </trkpt>
      <trkpt lat="44.87451" lon="3.49752">
        <ele>1123</ele>
        <time>2009-07-12T13:30:12Z</time>
      </trkpt>
      <trkpt lat="44.87446" lon="3.49757">
        <ele>1124</ele>
        <time>2009-07-12T13:30:18Z</time>
      </trkpt>
      <trkpt lat="44.87442" lon="3.49758">
        <ele>1123</ele>
        <time>2009-07-12T13:30:22Z</time>
      </trkpt>
      <trkpt lat="44.87442" lon="3.49757">
        <ele>1123</ele>
        <time>2009-07-12T13:30:26Z</time>
      </trkpt>
      <trkpt lat="44.87415" lon="3.49741">
        <ele>1127</ele>
        <time>2009-07-12T13:30:42Z</time>
      </trkpt>
      <trkpt lat="44.87398" lon="3.49731">
        <ele>1126</ele>
        <time>2009-07-12T13:30:51Z</time>
      </trkpt>
      <trkpt lat="44.87384" lon="3.49761">
        <ele>1127</ele>
        <time>2009-07-12T13:31:07Z</time>
      </trkpt>
      <trkpt lat="44.87371" lon="3.49765">
        <ele>1128</ele>
        <time>2009-07-12T13:31:15Z</time>
      </trkpt>
      <trkpt lat="44.87367" lon="3.49764">
        <ele>1129</ele>
        <time>2009-07-12T13:31:18Z</time>
      </trkpt>
      <trkpt lat="44.87358" lon="3.49764">
        <ele>1130</ele>
        <time>2009-07-12T13:31:27Z</time>
      </trkpt>
      <trkpt lat="44.87356" lon="3.49758">
        <ele>1128</ele>
        <time>2009-07-12T13:31:30Z</time>
      </trkpt>
      <trkpt lat="44.87356" lon="3.49755">
        <ele>1128</ele>
        <time>2009-07-12T13:31:48Z</time>
      </trkpt>
      <trkpt lat="44.87357" lon="3.49755">
        <ele>1128</ele>
        <time>2009-07-12T13:32:05Z</time>
      </trkpt>
      <trkpt lat="44.8735" lon="3.49751">
        <ele>1127</ele>
        <time>2009-07-12T13:32:14Z</time>
      </trkpt>
      <trkpt lat="44.87352" lon="3.49749">
        <ele>1128</ele>
        <time>2009-07-12T13:33:06Z</time>
      </trkpt>
      <trkpt lat="44.87352" lon="3.49749">
        <ele>1127</ele>
        <time>2009-07-12T13:33:09Z</time>
      </trkpt>
      <trkpt lat="44.87351" lon="3.49747">
        <ele>1127</ele>
        <time>2009-07-12T13:33:27Z</time>
      </trkpt>
      <trkpt lat="44.87331" lon="3.49713">
        <ele>1123</ele>
        <time>2009-07-12T13:33:37Z</time>
      </trkpt>
      <trkpt lat="44.87307" lon="3.49676">
        <ele>1120</ele>
        <time>2009-07-12T13:33:44Z</time>
      </trkpt>
      <trkpt lat="44.87302" lon="3.4967">
        <ele>1120</ele>
        <time>2009-07-12T13:33:45Z</time>
      </trkpt>
      <trkpt lat="44.87298" lon="3.49663">
        <ele>1119</ele>
        <time>2009-07-12T13:33:46Z</time>
      </trkpt>
      <trkpt lat="44.87273" lon="3.49644">
        <ele>1117</ele>
        <time>2009-07-12T13:33:50Z</time>
      </trkpt>
      <trkpt lat="44.87253" lon="3.49633">
        <ele>1114</ele>
        <time>2009-07-12T13:33:53Z</time>
      </trkpt>
      <trkpt lat="44.87239" lon="3.49626">
        <ele>1114</ele>
        <time>2009-07-12T13:33:55Z</time>
      </trkpt>
      <trkpt lat="44.87209" lon="3.49588">
        <ele>1108</ele>
        <time>2009-07-12T13:34:00Z</time>
      </trkpt>
      <trkpt lat="44.87205" lon="3.49577">
        <ele>1108</ele>
        <time>2009-07-12T13:34:01Z</time>
      </trkpt>
      <trkpt lat="44.87195" lon="3.49548">
        <ele>1108</ele>
        <time>2009-07-12T13:34:04Z</time>
      </trkpt>
      <trkpt lat="44.87181" lon="3.49522">
        <ele>1106</ele>
        <time>2009-07-12T13:34:08Z</time>
      </trkpt>
      <trkpt lat="44.87161" lon="3.49522">
        <ele>1107</ele>
        <time>2009-07-12T13:34:12Z</time>
      </trkpt>
      <trkpt lat="44.87124" lon="3.49545">
        <ele>1108</ele>
        <time>2009-07-12T13:34:25Z</time>
      </trkpt>
      <trkpt lat="44.87069" lon="3.49567">
        <ele>1110</ele>
        <time>2009-07-12T13:34:42Z</time>
      </trkpt>
      <trkpt lat="44.87052" lon="3.4958">
        <ele>1113</ele>
        <time>2009-07-12T13:34:49Z</time>
      </trkpt>
      <trkpt lat="44.87017" lon="3.49579">
        <ele>1117</ele>
        <time>2009-07-12T13:35:01Z</time>
      </trkpt>
      <trkpt lat="44.86976" lon="3.49575">
        <ele>1118</ele>
        <time>2009-07-12T13:35:16Z</time>
      </trkpt>
      <trkpt lat="44.86939" lon="3.49587">
        <ele>1120</ele>
        <time>2009-07-12T13:35:31Z</time>
      </trkpt>
      <trkpt lat="44.86898" lon="3.496">
        <ele>1122</ele>
        <time>2009-07-12T13:35:48Z</time>
      </trkpt>
      <trkpt lat="44.8685" lon="3.4961">
        <ele>1121</ele>
        <time>2009-07-12T13:36:04Z</time>
      </trkpt>
      <trkpt lat="44.86814" lon="3.4962">
        <ele>1120</ele>
        <time>2009-07-12T13:36:13Z</time>
      </trkpt>
      <trkpt lat="44.86774" lon="3.49618">
        <ele>1122</ele>
        <time>2009-07-12T13:36:25Z</time>
      </trkpt>
      <trkpt lat="44.86733" lon="3.49594">
        <ele>1124</ele>
        <time>2009-07-12T13:36:40Z</time>
      </trkpt>
      <trkpt lat="44.86692" lon="3.49588">
        <ele>1127</ele>
        <time>2009-07-12T13:36:54Z</time>
      </trkpt>
      <trkpt lat="44.86652" lon="3.49592">
        <ele>1130</ele>
        <time>2009-07-12T13:37:08Z</time>
      </trkpt>
      <trkpt lat="44.86601" lon="3.49589">
        <ele>1132</ele>
        <time>2009-07-12T13:37:27Z</time>
      </trkpt>
      <trkpt lat="44.86588" lon="3.49586">
        <ele>1133</ele>
        <time>2009-07-12T13:37:32Z</time>
      </trkpt>
      <trkpt lat="44.86551" lon="3.49558">
        <ele>1136</ele>
        <time>2009-07-12T13:37:47Z</time>
      </trkpt>
      <trkpt lat="44.86507" lon="3.49524">
        <ele>1139</ele>
        <time>2009-07-12T13:38:03Z</time>
      </trkpt>
      <trkpt lat="44.86446" lon="3.49513">
        <ele>1140</ele>
        <time>2009-07-12T13:38:22Z</time>
      </trkpt>
      <trkpt lat="44.86399" lon="3.49522">
        <ele>1141</ele>
        <time>2009-07-12T13:38:36Z</time>
      </trkpt>
      <trkpt lat="44.86367" lon="3.49529">
        <ele>1139</ele>
        <time>2009-07-12T13:38:43Z</time>
      </trkpt>
      <trkpt lat="44.86332" lon="3.49518">
        <ele>1134</ele>
        <time>2009-07-12T13:38:48Z</time>
      </trkpt>
      <trkpt lat="44.86324" lon="3.49517">
        <ele>1134</ele>
        <time>2009-07-12T13:38:49Z</time>
      </trkpt>
      <trkpt lat="44.86299" lon="3.49519">
        <ele>1133</ele>
        <time>2009-07-12T13:38:52Z</time>
      </trkpt>
      <trkpt lat="44.86273" lon="3.49513">
        <ele>1129</ele>
        <time>2009-07-12T13:38:55Z</time>
      </trkpt>
      <trkpt lat="44.86233" lon="3.495">
        <ele>1128</ele>
        <time>2009-07-12T13:39:00Z</time>
      </trkpt>
      <trkpt lat="44.86213" lon="3.49488">
        <ele>1128</ele>
        <time>2009-07-12T13:39:03Z</time>
      </trkpt>
      <trkpt lat="44.86184" lon="3.49471">
        <ele>1131</ele>
        <time>2009-07-12T13:39:09Z</time>
      </trkpt>
      <trkpt lat="44.8618" lon="3.4947">
        <ele>1133</ele>
        <time>2009-07-12T13:39:11Z</time>
      </trkpt>
      <trkpt lat="44.86153" lon="3.49475">
        <ele>1136</ele>
        <time>2009-07-12T13:39:23Z</time>
      </trkpt>
      <trkpt lat="44.86115" lon="3.49473">
        <ele>1138</ele>
        <time>2009-07-12T13:39:40Z</time>
      </trkpt>
      <trkpt lat="44.86089" lon="3.49463">
        <ele>1141</ele>
        <time>2009-07-12T13:39:53Z</time>
      </trkpt>
      <trkpt lat="44.8606" lon="3.49442">
        <ele>1145</ele>
        <time>2009-07-12T13:40:12Z</time>
      </trkpt>
      <trkpt lat="44.86039" lon="3.49431">
        <ele>1148</ele>
        <time>2009-07-12T13:40:25Z</time>
      </trkpt>
      <trkpt lat="44.86013" lon="3.49418">
        <ele>1151</ele>
        <time>2009-07-12T13:40:41Z</time>
      </trkpt>
      <trkpt lat="44.85983" lon="3.494">
        <ele>1151</ele>
        <time>2009-07-12T13:40:59Z</time>
      </trkpt>
      <trkpt lat="44.8595" lon="3.4938">
        <ele>1154</ele>
        <time>2009-07-12T13:41:15Z</time>
      </trkpt>
      <trkpt lat="44.85915" lon="3.49364">
        <ele>1157</ele>
        <time>2009-07-12T13:41:31Z</time>
      </trkpt>
      <trkpt lat="44.85882" lon="3.49363">
        <ele>1159</ele>
        <time>2009-07-12T13:41:47Z</time>
      </trkpt>
      <trkpt lat="44.85843" lon="3.49333">
        <ele>1160</ele>
        <time>2009-07-12T13:42:04Z</time>
      </trkpt>
      <trkpt lat="44.85817" lon="3.49303">
        <ele>1159</ele>
        <time>2009-07-12T13:42:14Z</time>
      </trkpt>
      <trkpt lat="44.85777" lon="3.49303">
        <ele>1158</ele>
        <time>2009-07-12T13:42:26Z</time>
      </trkpt>
      <trkpt lat="44.85758" lon="3.49306">
        <ele>1156</ele>
        <time>2009-07-12T13:42:30Z</time>
      </trkpt>
      <trkpt lat="44.85712" lon="3.49311">
        <ele>1157</ele>
        <time>2009-07-12T13:42:42Z</time>
      </trkpt>
      <trkpt lat="44.8569" lon="3.49322">
        <ele>1157</ele>
        <time>2009-07-12T13:42:49Z</time>
      </trkpt>
      <trkpt lat="44.85656" lon="3.49351">
        <ele>1158</ele>
        <time>2009-07-12T13:43:03Z</time>
      </trkpt>
      <trkpt lat="44.8564" lon="3.49345">
        <ele>1157</ele>
        <time>2009-07-12T13:43:08Z</time>
      </trkpt>
      <trkpt lat="44.8561" lon="3.49338">
        <ele>1158</ele>
        <time>2009-07-12T13:43:19Z</time>
      </trkpt>
      <trkpt lat="44.8561" lon="3.49339">
        <ele>1159</ele>
        <time>2009-07-12T13:43:20Z</time>
      </trkpt>
      <trkpt lat="44.8562" lon="3.49339">
        <ele>1157</ele>
        <time>2009-07-12T13:43:25Z</time>
      </trkpt>
      <trkpt lat="44.85643" lon="3.49347">
        <ele>1156</ele>
        <time>2009-07-12T13:43:34Z</time>
      </trkpt>
      <trkpt lat="44.85653" lon="3.49358">
        <ele>1158</ele>
        <time>2009-07-12T13:43:47Z</time>
      </trkpt>
      <trkpt lat="44.85651" lon="3.49359">
        <ele>1158</ele>
        <time>2009-07-12T13:44:24Z</time>
      </trkpt>
      <trkpt lat="44.8565" lon="3.49359">
        <ele>1158</ele>
        <time>2009-07-12T13:45:15Z</time>
      </trkpt>
      <trkpt lat="44.85649" lon="3.49359">
        <ele>1159</ele>
        <time>2009-07-12T13:45:22Z</time>
      </trkpt>
      <trkpt lat="44.85634" lon="3.49344">
        <ele>1157</ele>
        <time>2009-07-12T13:45:31Z</time>
      </trkpt>
      <trkpt lat="44.856" lon="3.49343">
        <ele>1158</ele>
        <time>2009-07-12T13:45:45Z</time>
      </trkpt>
      <trkpt lat="44.85585" lon="3.49347">
        <ele>1160</ele>
        <time>2009-07-12T13:45:52Z</time>
      </trkpt>
      <trkpt lat="44.8556" lon="3.49359">
        <ele>1162</ele>
        <time>2009-07-12T13:46:04Z</time>
      </trkpt>
      <trkpt lat="44.85519" lon="3.49374">
        <ele>1165</ele>
        <time>2009-07-12T13:46:23Z</time>
      </trkpt>
      <trkpt lat="44.85476" lon="3.49384">
        <ele>1167</ele>
        <time>2009-07-12T13:46:40Z</time>
      </trkpt>
      <trkpt lat="44.85446" lon="3.49412">
        <ele>1166</ele>
        <time>2009-07-12T13:46:50Z</time>
      </trkpt>
      <trkpt lat="44.85428" lon="3.49463">
        <ele>1168</ele>
        <time>2009-07-12T13:47:04Z</time>
      </trkpt>
      <trkpt lat="44.85418" lon="3.49494">
        <ele>1171</ele>
        <time>2009-07-12T13:47:14Z</time>
      </trkpt>
      <trkpt lat="44.85415" lon="3.49504">
        <ele>1173</ele>
        <time>2009-07-12T13:47:17Z</time>
      </trkpt>
      <trkpt lat="44.85406" lon="3.49554">
        <ele>1176</ele>
        <time>2009-07-12T13:47:33Z</time>
      </trkpt>
      <trkpt lat="44.85406" lon="3.49557">
        <ele>1176</ele>
        <time>2009-07-12T13:47:34Z</time>
      </trkpt>
      <trkpt lat="44.854" lon="3.49584">
        <ele>1177</ele>
        <time>2009-07-12T13:47:44Z</time>
      </trkpt>
      <trkpt lat="44.85399" lon="3.49586">
        <ele>1178</ele>
        <time>2009-07-12T13:47:47Z</time>
      </trkpt>
      <trkpt lat="44.85363" lon="3.49587">
        <ele>1175</ele>
        <time>2009-07-12T13:48:02Z</time>
      </trkpt>
      <trkpt lat="44.85326" lon="3.49572">
        <ele>1177</ele>
        <time>2009-07-12T13:48:16Z</time>
      </trkpt>
      <trkpt lat="44.85285" lon="3.49572">
        <ele>1181</ele>
        <time>2009-07-12T13:48:32Z</time>
      </trkpt>
      <trkpt lat="44.85283" lon="3.49572">
        <ele>1181</ele>
        <time>2009-07-12T13:48:33Z</time>
      </trkpt>
      <trkpt lat="44.85244" lon="3.49563">
        <ele>1184</ele>
        <time>2009-07-12T13:48:50Z</time>
      </trkpt>
      <trkpt lat="44.85207" lon="3.49566">
        <ele>1186</ele>
        <time>2009-07-12T13:49:05Z</time>
      </trkpt>
      <trkpt lat="44.85157" lon="3.49581">
        <ele>1186</ele>
        <time>2009-07-12T13:49:23Z</time>
      </trkpt>
      <trkpt lat="44.85142" lon="3.49585">
        <ele>1185</ele>
        <time>2009-07-12T13:49:27Z</time>
      </trkpt>
      <trkpt lat="44.85095" lon="3.49614">
        <ele>1185</ele>
        <time>2009-07-12T13:49:40Z</time>
      </trkpt>
      <trkpt lat="44.85066" lon="3.49661">
        <ele>1188</ele>
        <time>2009-07-12T13:49:53Z</time>
      </trkpt>
      <trkpt lat="44.85021" lon="3.49662">
        <ele>1188</ele>
        <time>2009-07-12T13:50:07Z</time>
      </trkpt>
      <trkpt lat="44.84983" lon="3.49662">
        <ele>1189</ele>
        <time>2009-07-12T13:50:21Z</time>
      </trkpt>
      <trkpt lat="44.84972" lon="3.49678">
        <ele>1191</ele>
        <time>2009-07-12T13:50:27Z</time>
      </trkpt>
      <trkpt lat="44.84966" lon="3.49686">
        <ele>1192</ele>
        <time>2009-07-12T13:50:30Z</time>
      </trkpt>
      <trkpt lat="44.84938" lon="3.49717">
        <ele>1195</ele>
        <time>2009-07-12T13:50:47Z</time>
      </trkpt>
      <trkpt lat="44.84919" lon="3.49745">
        <ele>1198</ele>
        <time>2009-07-12T13:51:01Z</time>
      </trkpt>
      <trkpt lat="44.84918" lon="3.49746">
        <ele>1198</ele>
        <time>2009-07-12T13:51:02Z</time>
      </trkpt>
      <trkpt lat="44.84887" lon="3.49733">
        <ele>1202</ele>
        <time>2009-07-12T13:51:18Z</time>
      </trkpt>
      <trkpt lat="44.84855" lon="3.49729">
        <ele>1204</ele>
        <time>2009-07-12T13:51:34Z</time>
      </trkpt>
      <trkpt lat="44.84837" lon="3.49708">
        <ele>1206</ele>
        <time>2009-07-12T13:51:44Z</time>
      </trkpt>
      <trkpt lat="44.8481" lon="3.49671">
        <ele>1206</ele>
        <time>2009-07-12T13:51:57Z</time>
      </trkpt>
      <trkpt lat="44.84784" lon="3.49666">
        <ele>1207</ele>
        <time>2009-07-12T13:52:07Z</time>
      </trkpt>
      <trkpt lat="44.8474" lon="3.49711">
        <ele>1207</ele>
        <time>2009-07-12T13:52:24Z</time>
      </trkpt>
      <trkpt lat="44.84727" lon="3.49725">
        <ele>1209</ele>
        <time>2009-07-12T13:52:29Z</time>
      </trkpt>
      <trkpt lat="44.84722" lon="3.4973">
        <ele>1207</ele>
        <time>2009-07-12T13:52:31Z</time>
      </trkpt>
      <trkpt lat="44.847" lon="3.49748">
        <ele>1209</ele>
        <time>2009-07-12T13:52:38Z</time>
      </trkpt>
      <trkpt lat="44.84656" lon="3.49784">
        <ele>1208</ele>
        <time>2009-07-12T13:52:52Z</time>
      </trkpt>
      <trkpt lat="44.84653" lon="3.49785">
        <ele>1209</ele>
        <time>2009-07-12T13:52:53Z</time>
      </trkpt>
      <trkpt lat="44.84599" lon="3.49805">
        <ele>1210</ele>
        <time>2009-07-12T13:53:09Z</time>
      </trkpt>
      <trkpt lat="44.84585" lon="3.49815">
        <ele>1211</ele>
        <time>2009-07-12T13:53:14Z</time>
      </trkpt>
      <trkpt lat="44.84544" lon="3.49824">
        <ele>1212</ele>
        <time>2009-07-12T13:53:28Z</time>
      </trkpt>
      <trkpt lat="44.84501" lon="3.49841">
        <ele>1215</ele>
        <time>2009-07-12T13:53:45Z</time>
      </trkpt>
      <trkpt lat="44.8449" lon="3.49848">
        <ele>1218</ele>
        <time>2009-07-12T13:53:51Z</time>
      </trkpt>
      <trkpt lat="44.84476" lon="3.49854">
        <ele>1221</ele>
        <time>2009-07-12T13:53:59Z</time>
      </trkpt>
      <trkpt lat="44.84474" lon="3.49855">
        <ele>1221</ele>
        <time>2009-07-12T13:54:00Z</time>
      </trkpt>
      <trkpt lat="44.84453" lon="3.49851">
        <ele>1223</ele>
        <time>2009-07-12T13:54:12Z</time>
      </trkpt>
      <trkpt lat="44.84427" lon="3.49839">
        <ele>1224</ele>
        <time>2009-07-12T13:54:24Z</time>
      </trkpt>
      <trkpt lat="44.84386" lon="3.49828">
        <ele>1225</ele>
        <time>2009-07-12T13:54:38Z</time>
      </trkpt>
      <trkpt lat="44.84354" lon="3.49814">
        <ele>1223</ele>
        <time>2009-07-12T13:54:46Z</time>
      </trkpt>
      <trkpt lat="44.84326" lon="3.4981">
        <ele>1222</ele>
        <time>2009-07-12T13:54:53Z</time>
      </trkpt>
      <trkpt lat="44.84301" lon="3.49818">
        <ele>1222</ele>
        <time>2009-07-12T13:55:01Z</time>
      </trkpt>
      <trkpt lat="44.84284" lon="3.49808">
        <ele>1223</ele>
        <time>2009-07-12T13:55:06Z</time>
      </trkpt>
      <trkpt lat="44.84275" lon="3.49788">
        <ele>1226</ele>
        <time>2009-07-12T13:55:13Z</time>
      </trkpt>
      <trkpt lat="44.84268" lon="3.49747">
        <ele>1229</ele>
        <time>2009-07-12T13:55:27Z</time>
      </trkpt>
      <trkpt lat="44.84263" lon="3.49734">
        <ele>1230</ele>
        <time>2009-07-12T13:55:37Z</time>
      </trkpt>
      <trkpt lat="44.84261" lon="3.49732">
        <ele>1230</ele>
        <time>2009-07-12T13:55:51Z</time>
      </trkpt>
      <trkpt lat="44.84261" lon="3.49735">
        <ele>1228</ele>
        <time>2009-07-12T13:56:22Z</time>
      </trkpt>
      <trkpt lat="44.84256" lon="3.49726">
        <ele>1230</ele>
        <time>2009-07-12T13:57:17Z</time>
      </trkpt>
      <trkpt lat="44.84258" lon="3.49723">
        <ele>1230</ele>
        <time>2009-07-12T13:57:50Z</time>
      </trkpt>
      <trkpt lat="44.84242" lon="3.49691">
        <ele>1229</ele>
        <time>2009-07-12T13:58:01Z</time>
      </trkpt>
      <trkpt lat="44.84225" lon="3.49652">
        <ele>1228</ele>
        <time>2009-07-12T13:58:12Z</time>
      </trkpt>
      <trkpt lat="44.84206" lon="3.49611">
        <ele>1231</ele>
        <time>2009-07-12T13:58:23Z</time>
      </trkpt>
      <trkpt lat="44.84179" lon="3.49574">
        <ele>1233</ele>
        <time>2009-07-12T13:58:38Z</time>
      </trkpt>
      <trkpt lat="44.84165" lon="3.49546">
        <ele>1235</ele>
        <time>2009-07-12T13:58:48Z</time>
      </trkpt>
      <trkpt lat="44.84156" lon="3.49524">
        <ele>1235</ele>
        <time>2009-07-12T13:58:55Z</time>
      </trkpt>
      <trkpt lat="44.8413" lon="3.49512">
        <ele>1238</ele>
        <time>2009-07-12T13:59:09Z</time>
      </trkpt>
      <trkpt lat="44.84117" lon="3.49515">
        <ele>1241</ele>
        <time>2009-07-12T13:59:18Z</time>
      </trkpt>
      <trkpt lat="44.84103" lon="3.49516">
        <ele>1244</ele>
        <time>2009-07-12T13:59:28Z</time>
      </trkpt>
      <trkpt lat="44.84092" lon="3.49521">
        <ele>1247</ele>
        <time>2009-07-12T13:59:38Z</time>
      </trkpt>
      <trkpt lat="44.84067" lon="3.49522">
        <ele>1249</ele>
        <time>2009-07-12T13:59:54Z</time>
      </trkpt>
      <trkpt lat="44.84053" lon="3.49534">
        <ele>1252</ele>
        <time>2009-07-12T14:00:05Z</time>
      </trkpt>
      <trkpt lat="44.8404" lon="3.4954">
        <ele>1254</ele>
        <time>2009-07-12T14:00:16Z</time>
      </trkpt>
      <trkpt lat="44.84037" lon="3.49542">
        <ele>1255</ele>
        <time>2009-07-12T14:00:18Z</time>
      </trkpt>
      <trkpt lat="44.84017" lon="3.49558">
        <ele>1258</ele>
        <time>2009-07-12T14:00:33Z</time>
      </trkpt>
      <trkpt lat="44.84016" lon="3.49559">
        <ele>1258</ele>
        <time>2009-07-12T14:00:34Z</time>
      </trkpt>
      <trkpt lat="44.84007" lon="3.49563">
        <ele>1260</ele>
        <time>2009-07-12T14:00:40Z</time>
      </trkpt>
      <trkpt lat="44.83996" lon="3.49563">
        <ele>1261</ele>
        <time>2009-07-12T14:00:47Z</time>
      </trkpt>
      <trkpt lat="44.83966" lon="3.49564">
        <ele>1264</ele>
        <time>2009-07-12T14:01:03Z</time>
      </trkpt>
      <trkpt lat="44.83936" lon="3.49554">
        <ele>1265</ele>
        <time>2009-07-12T14:01:17Z</time>
      </trkpt>
      <trkpt lat="44.8391" lon="3.4955">
        <ele>1269</ele>
        <time>2009-07-12T14:01:29Z</time>
      </trkpt>
      <trkpt lat="44.83889" lon="3.49545">
        <ele>1270</ele>
        <time>2009-07-12T14:01:41Z</time>
      </trkpt>
      <trkpt lat="44.83883" lon="3.4955">
        <ele>1271</ele>
        <time>2009-07-12T14:01:45Z</time>
      </trkpt>
      <trkpt lat="44.83861" lon="3.49564">
        <ele>1275</ele>
        <time>2009-07-12T14:02:00Z</time>
      </trkpt>
      <trkpt lat="44.83837" lon="3.49565">
        <ele>1276</ele>
        <time>2009-07-12T14:02:14Z</time>
      </trkpt>
      <trkpt lat="44.8381" lon="3.49568">
        <ele>1279</ele>
        <time>2009-07-12T14:02:29Z</time>
      </trkpt>
      <trkpt lat="44.83776" lon="3.49573">
        <ele>1282</ele>
        <time>2009-07-12T14:02:45Z</time>
      </trkpt>
      <trkpt lat="44.83773" lon="3.49574">
        <ele>1282</ele>
        <time>2009-07-12T14:02:47Z</time>
      </trkpt>
      <trkpt lat="44.83761" lon="3.49575">
        <ele>1284</ele>
        <time>2009-07-12T14:02:53Z</time>
      </trkpt>
      <trkpt lat="44.83759" lon="3.49575">
        <ele>1283</ele>
        <time>2009-07-12T14:02:54Z</time>
      </trkpt>
      <trkpt lat="44.83751" lon="3.49572">
        <ele>1284</ele>
        <time>2009-07-12T14:02:58Z</time>
      </trkpt>
      <trkpt lat="44.83742" lon="3.49574">
        <ele>1285</ele>
        <time>2009-07-12T14:03:02Z</time>
      </trkpt>
      <trkpt lat="44.83706" lon="3.49567">
        <ele>1287</ele>
        <time>2009-07-12T14:03:18Z</time>
      </trkpt>
      <trkpt lat="44.83667" lon="3.4956">
        <ele>1288</ele>
        <time>2009-07-12T14:03:32Z</time>
      </trkpt>
      <trkpt lat="44.8363" lon="3.49554">
        <ele>1290</ele>
        <time>2009-07-12T14:03:46Z</time>
      </trkpt>
      <trkpt lat="44.83585" lon="3.49545">
        <ele>1291</ele>
        <time>2009-07-12T14:04:03Z</time>
      </trkpt>
      <trkpt lat="44.83544" lon="3.49543">
        <ele>1293</ele>
        <time>2009-07-12T14:04:18Z</time>
      </trkpt>
      <trkpt lat="44.83522" lon="3.49551">
        <ele>1295</ele>
        <time>2009-07-12T14:04:31Z</time>
      </trkpt>
      <trkpt lat="44.83519" lon="3.49558">
        <ele>1295</ele>
        <time>2009-07-12T14:04:45Z</time>
      </trkpt>
      <trkpt lat="44.83519" lon="3.49562">
        <ele>1295</ele>
        <time>2009-07-12T14:05:05Z</time>
      </trkpt>
      <trkpt lat="44.83518" lon="3.49563">
        <ele>1296</ele>
        <time>2009-07-12T14:05:22Z</time>
      </trkpt>
      <trkpt lat="44.83519" lon="3.49563">
        <ele>1296</ele>
        <time>2009-07-12T14:06:14Z</time>
      </trkpt>
      <trkpt lat="44.83519" lon="3.49565">
        <ele>1296</ele>
        <time>2009-07-12T14:06:44Z</time>
      </trkpt>
      <trkpt lat="44.83519" lon="3.49565">
        <ele>1297</ele>
        <time>2009-07-12T14:07:22Z</time>
      </trkpt>
      <trkpt lat="44.83517" lon="3.49576">
        <ele>1297</ele>
        <time>2009-07-12T14:07:28Z</time>
      </trkpt>
      <trkpt lat="44.83517" lon="3.49599">
        <ele>1299</ele>
        <time>2009-07-12T14:07:38Z</time>
      </trkpt>
      <trkpt lat="44.83516" lon="3.49606">
        <ele>1300</ele>
        <time>2009-07-12T14:07:41Z</time>
      </trkpt>
      <trkpt lat="44.83514" lon="3.49629">
        <ele>1304</ele>
        <time>2009-07-12T14:07:51Z</time>
      </trkpt>
      <trkpt lat="44.83514" lon="3.49632">
        <ele>1304</ele>
        <time>2009-07-12T14:07:52Z</time>
      </trkpt>
      <trkpt lat="44.83511" lon="3.49669">
        <ele>1307</ele>
        <time>2009-07-12T14:08:09Z</time>
      </trkpt>
      <trkpt lat="44.8351" lon="3.497">
        <ele>1309</ele>
        <time>2009-07-12T14:08:23Z</time>
      </trkpt>
      <trkpt lat="44.83507" lon="3.49722">
        <ele>1312</ele>
        <time>2009-07-12T14:08:34Z</time>
      </trkpt>
      <trkpt lat="44.83508" lon="3.49724">
        <ele>1313</ele>
        <time>2009-07-12T14:08:35Z</time>
      </trkpt>
      <trkpt lat="44.83506" lon="3.49732">
        <ele>1314</ele>
        <time>2009-07-12T14:08:39Z</time>
      </trkpt>
      <trkpt lat="44.83506" lon="3.49736">
        <ele>1315</ele>
        <time>2009-07-12T14:08:41Z</time>
      </trkpt>
      <trkpt lat="44.83494" lon="3.49751">
        <ele>1316</ele>
        <time>2009-07-12T14:08:52Z</time>
      </trkpt>
      <trkpt lat="44.83466" lon="3.49751">
        <ele>1316</ele>
        <time>2009-07-12T14:09:06Z</time>
      </trkpt>
      <trkpt lat="44.83455" lon="3.49748">
        <ele>1316</ele>
        <time>2009-07-12T14:09:09Z</time>
      </trkpt>
      <trkpt lat="44.83443" lon="3.49744">
        <ele>1315</ele>
        <time>2009-07-12T14:09:12Z</time>
      </trkpt>
      <trkpt lat="44.83412" lon="3.49734">
        <ele>1314</ele>
        <time>2009-07-12T14:09:18Z</time>
      </trkpt>
      <trkpt lat="44.83372" lon="3.49719">
        <ele>1312</ele>
        <time>2009-07-12T14:09:26Z</time>
      </trkpt>
      <trkpt lat="44.83336" lon="3.49707">
        <ele>1313</ele>
        <time>2009-07-12T14:09:35Z</time>
      </trkpt>
      <trkpt lat="44.83301" lon="3.49698">
        <ele>1316</ele>
        <time>2009-07-12T14:09:45Z</time>
      </trkpt>
      <trkpt lat="44.83266" lon="3.49687">
        <ele>1317</ele>
        <time>2009-07-12T14:09:57Z</time>
      </trkpt>
      <trkpt lat="44.83227" lon="3.49676">
        <ele>1319</ele>
        <time>2009-07-12T14:10:11Z</time>
      </trkpt>
      <trkpt lat="44.83201" lon="3.49669">
        <ele>1320</ele>
        <time>2009-07-12T14:10:20Z</time>
      </trkpt>
      <trkpt lat="44.83161" lon="3.49653">
        <ele>1319</ele>
        <time>2009-07-12T14:10:33Z</time>
      </trkpt>
      <trkpt lat="44.83117" lon="3.49642">
        <ele>1320</ele>
        <time>2009-07-12T14:10:45Z</time>
      </trkpt>
      <trkpt lat="44.83052" lon="3.49622">
        <ele>1322</ele>
        <time>2009-07-12T14:11:03Z</time>
      </trkpt>
      <trkpt lat="44.83007" lon="3.49609">
        <ele>1324</ele>
        <time>2009-07-12T14:11:17Z</time>
      </trkpt>
      <trkpt lat="44.83001" lon="3.49607">
        <ele>1324</ele>
        <time>2009-07-12T14:11:28Z</time>
      </trkpt>
      <trkpt lat="44.83001" lon="3.49607">
        <ele>1322</ele>
        <time>2009-07-12T14:11:33Z</time>
      </trkpt>
      <trkpt lat="44.83001" lon="3.49608">
        <ele>1324</ele>
        <time>2009-07-12T14:12:00Z</time>
      </trkpt>
      <trkpt lat="44.83001" lon="3.49608">
        <ele>1322</ele>
        <time>2009-07-12T14:12:11Z</time>
      </trkpt>
      <trkpt lat="44.83002" lon="3.49596">
        <ele>1321</ele>
        <time>2009-07-12T14:12:16Z</time>
      </trkpt>
      <trkpt lat="44.83011" lon="3.49586">
        <ele>1320</ele>
        <time>2009-07-12T14:12:19Z</time>
      </trkpt>
      <trkpt lat="44.83046" lon="3.4956">
        <ele>1318</ele>
        <time>2009-07-12T14:12:27Z</time>
      </trkpt>
      <trkpt lat="44.83068" lon="3.49526">
        <ele>1318</ele>
        <time>2009-07-12T14:12:33Z</time>
      </trkpt>
      <trkpt lat="44.83077" lon="3.49495">
        <ele>1316</ele>
        <time>2009-07-12T14:12:37Z</time>
      </trkpt>
      <trkpt lat="44.83085" lon="3.49423">
        <ele>1315</ele>
        <time>2009-07-12T14:12:46Z</time>
      </trkpt>
      <trkpt lat="44.83082" lon="3.49397">
        <ele>1313</ele>
        <time>2009-07-12T14:12:49Z</time>
      </trkpt>
      <trkpt lat="44.8308" lon="3.49389">
        <ele>1313</ele>
        <time>2009-07-12T14:12:50Z</time>
      </trkpt>
      <trkpt lat="44.83051" lon="3.49326">
        <ele>1311</ele>
        <time>2009-07-12T14:12:58Z</time>
      </trkpt>
      <trkpt lat="44.83029" lon="3.49262">
        <ele>1307</ele>
        <time>2009-07-12T14:13:05Z</time>
      </trkpt>
      <trkpt lat="44.83021" lon="3.49243">
        <ele>1305</ele>
        <time>2009-07-12T14:13:07Z</time>
      </trkpt>
      <trkpt lat="44.83003" lon="3.49204">
        <ele>1299</ele>
        <time>2009-07-12T14:13:11Z</time>
      </trkpt>
      <trkpt lat="44.82998" lon="3.49194">
        <ele>1299</ele>
        <time>2009-07-12T14:13:12Z</time>
      </trkpt>
      <trkpt lat="44.82986" lon="3.49175">
        <ele>1296</ele>
        <time>2009-07-12T14:13:14Z</time>
      </trkpt>
      <trkpt lat="44.82965" lon="3.49147">
        <ele>1293</ele>
        <time>2009-07-12T14:13:17Z</time>
      </trkpt>
      <trkpt lat="44.82864" lon="3.4909">
        <ele>1292</ele>
        <time>2009-07-12T14:13:29Z</time>
      </trkpt>
      <trkpt lat="44.82815" lon="3.49069">
        <ele>1295</ele>
        <time>2009-07-12T14:13:38Z</time>
      </trkpt>
      <trkpt lat="44.82812" lon="3.49067">
        <ele>1295</ele>
        <time>2009-07-12T14:13:39Z</time>
      </trkpt>
      <trkpt lat="44.82799" lon="3.4906">
        <ele>1296</ele>
        <time>2009-07-12T14:13:43Z</time>
      </trkpt>
      <trkpt lat="44.82791" lon="3.49059">
        <ele>1299</ele>
        <time>2009-07-12T14:13:46Z</time>
      </trkpt>
      <trkpt lat="44.82762" lon="3.4908">
        <ele>1300</ele>
        <time>2009-07-12T14:13:59Z</time>
      </trkpt>
      <trkpt lat="44.82737" lon="3.49105">
        <ele>1303</ele>
        <time>2009-07-12T14:14:12Z</time>
      </trkpt>
      <trkpt lat="44.827" lon="3.49121">
        <ele>1303</ele>
        <time>2009-07-12T14:14:27Z</time>
      </trkpt>
      <trkpt lat="44.82645" lon="3.49104">
        <ele>1301</ele>
        <time>2009-07-12T14:14:43Z</time>
      </trkpt>
      <trkpt lat="44.82627" lon="3.49098">
        <ele>1300</ele>
        <time>2009-07-12T14:14:47Z</time>
      </trkpt>
      <trkpt lat="44.82609" lon="3.49089">
        <ele>1299</ele>
        <time>2009-07-12T14:14:51Z</time>
      </trkpt>
      <trkpt lat="44.8257" lon="3.49065">
        <ele>1298</ele>
        <time>2009-07-12T14:15:00Z</time>
      </trkpt>
      <trkpt lat="44.82505" lon="3.49028">
        <ele>1298</ele>
        <time>2009-07-12T14:15:16Z</time>
      </trkpt>
      <trkpt lat="44.82493" lon="3.49021">
        <ele>1298</ele>
        <time>2009-07-12T14:15:19Z</time>
      </trkpt>
      <trkpt lat="44.82467" lon="3.48991">
        <ele>1296</ele>
        <time>2009-07-12T14:15:28Z</time>
      </trkpt>
      <trkpt lat="44.82456" lon="3.4894">
        <ele>1299</ele>
        <time>2009-07-12T14:15:40Z</time>
      </trkpt>
      <trkpt lat="44.82449" lon="3.48873">
        <ele>1300</ele>
        <time>2009-07-12T14:15:54Z</time>
      </trkpt>
      <trkpt lat="44.82447" lon="3.48808">
        <ele>1299</ele>
        <time>2009-07-12T14:16:08Z</time>
      </trkpt>
      <trkpt lat="44.82446" lon="3.48767">
        <ele>1299</ele>
        <time>2009-07-12T14:16:20Z</time>
      </trkpt>
      <trkpt lat="44.82438" lon="3.48753">
        <ele>1298</ele>
        <time>2009-07-12T14:16:26Z</time>
      </trkpt>
      <trkpt lat="44.8242" lon="3.48745">
        <ele>1297</ele>
        <time>2009-07-12T14:16:37Z</time>
      </trkpt>
      <trkpt lat="44.82419" lon="3.48746">
        <ele>1298</ele>
        <time>2009-07-12T14:17:10Z</time>
      </trkpt>
      <trkpt lat="44.82419" lon="3.48747">
        <ele>1296</ele>
        <time>2009-07-12T14:17:37Z</time>
      </trkpt>
      <trkpt lat="44.82419" lon="3.48748">
        <ele>1297</ele>
        <time>2009-07-12T14:17:41Z</time>
      </trkpt>
      <trkpt lat="44.82411" lon="3.48752">
        <ele>1296</ele>
        <time>2009-07-12T14:17:46Z</time>
      </trkpt>
      <trkpt lat="44.82381" lon="3.48754">
        <ele>1295</ele>
        <time>2009-07-12T14:17:57Z</time>
      </trkpt>
      <trkpt lat="44.82363" lon="3.48758">
        <ele>1293</ele>
        <time>2009-07-12T14:18:01Z</time>
      </trkpt>
      <trkpt lat="44.82332" lon="3.48755">
        <ele>1293</ele>
        <time>2009-07-12T14:18:07Z</time>
      </trkpt>
      <trkpt lat="44.8231" lon="3.48746">
        <ele>1295</ele>
        <time>2009-07-12T14:18:13Z</time>
      </trkpt>
      <trkpt lat="44.82273" lon="3.4874">
        <ele>1298</ele>
        <time>2009-07-12T14:18:29Z</time>
      </trkpt>
      <trkpt lat="44.82248" lon="3.48732">
        <ele>1301</ele>
        <time>2009-07-12T14:18:43Z</time>
      </trkpt>
      <trkpt lat="44.82224" lon="3.48719">
        <ele>1304</ele>
        <time>2009-07-12T14:18:57Z</time>
      </trkpt>
      <trkpt lat="44.82223" lon="3.48718">
        <ele>1305</ele>
        <time>2009-07-12T14:18:58Z</time>
      </trkpt>
      <trkpt lat="44.82215" lon="3.4872">
        <ele>1306</ele>
        <time>2009-07-12T14:19:03Z</time>
      </trkpt>
      <trkpt lat="44.8221" lon="3.48719">
        <ele>1307</ele>
        <time>2009-07-12T14:19:07Z</time>
      </trkpt>
      <trkpt lat="44.82196" lon="3.48715">
        <ele>1309</ele>
        <time>2009-07-12T14:19:15Z</time>
      </trkpt>
      <trkpt lat="44.82168" lon="3.48709">
        <ele>1310</ele>
        <time>2009-07-12T14:19:29Z</time>
      </trkpt>
      <trkpt lat="44.82142" lon="3.48702">
        <ele>1312</ele>
        <time>2009-07-12T14:19:43Z</time>
      </trkpt>
      <trkpt lat="44.82112" lon="3.48679">
        <ele>1315</ele>
        <time>2009-07-12T14:20:01Z</time>
      </trkpt>
      <trkpt lat="44.82089" lon="3.48644">
        <ele>1318</ele>
        <time>2009-07-12T14:20:18Z</time>
      </trkpt>
      <trkpt lat="44.8207" lon="3.48609">
        <ele>1320</ele>
        <time>2009-07-12T14:20:35Z</time>
      </trkpt>
      <trkpt lat="44.82068" lon="3.48608">
        <ele>1321</ele>
        <time>2009-07-12T14:20:36Z</time>
      </trkpt>
      <trkpt lat="44.82041" lon="3.48563">
        <ele>1323</ele>
        <time>2009-07-12T14:20:58Z</time>
      </trkpt>
      <trkpt lat="44.82031" lon="3.48547">
        <ele>1323</ele>
        <time>2009-07-12T14:21:11Z</time>
      </trkpt>
      <trkpt lat="44.82029" lon="3.48545">
        <ele>1324</ele>
        <time>2009-07-12T14:21:29Z</time>
      </trkpt>
      <trkpt lat="44.82029" lon="3.4854">
        <ele>1324</ele>
        <time>2009-07-12T14:21:43Z</time>
      </trkpt>
      <trkpt lat="44.82023" lon="3.4854">
        <ele>1325</ele>
        <time>2009-07-12T14:22:34Z</time>
      </trkpt>
      <trkpt lat="44.82008" lon="3.48512">
        <ele>1327</ele>
        <time>2009-07-12T14:22:47Z</time>
      </trkpt>
      <trkpt lat="44.82005" lon="3.48508">
        <ele>1328</ele>
        <time>2009-07-12T14:22:49Z</time>
      </trkpt>
      <trkpt lat="44.8198" lon="3.48467">
        <ele>1330</ele>
        <time>2009-07-12T14:23:09Z</time>
      </trkpt>
      <trkpt lat="44.81959" lon="3.48435">
        <ele>1333</ele>
        <time>2009-07-12T14:23:26Z</time>
      </trkpt>
      <trkpt lat="44.81941" lon="3.48404">
        <ele>1334</ele>
        <time>2009-07-12T14:23:45Z</time>
      </trkpt>
      <trkpt lat="44.81925" lon="3.48377">
        <ele>1337</ele>
        <time>2009-07-12T14:24:03Z</time>
      </trkpt>
      <trkpt lat="44.8191" lon="3.48355">
        <ele>1341</ele>
        <time>2009-07-12T14:24:17Z</time>
      </trkpt>
      <trkpt lat="44.81909" lon="3.48353">
        <ele>1341</ele>
        <time>2009-07-12T14:24:19Z</time>
      </trkpt>
      <trkpt lat="44.81892" lon="3.48342">
        <ele>1345</ele>
        <time>2009-07-12T14:24:33Z</time>
      </trkpt>
      <trkpt lat="44.81871" lon="3.48331">
        <ele>1349</ele>
        <time>2009-07-12T14:24:48Z</time>
      </trkpt>
      <trkpt lat="44.81856" lon="3.48329">
        <ele>1351</ele>
        <time>2009-07-12T14:24:58Z</time>
      </trkpt>
      <trkpt lat="44.81855" lon="3.48326">
        <ele>1351</ele>
        <time>2009-07-12T14:25:09Z</time>
      </trkpt>
      <trkpt lat="44.81855" lon="3.48325">
        <ele>1351</ele>
        <time>2009-07-12T14:25:11Z</time>
      </trkpt>
      <trkpt lat="44.81861" lon="3.4831">
        <ele>1351</ele>
        <time>2009-07-12T14:25:27Z</time>
      </trkpt>
      <trkpt lat="44.81862" lon="3.48305">
        <ele>1351</ele>
        <time>2009-07-12T14:25:40Z</time>
      </trkpt>
      <trkpt lat="44.81872" lon="3.48289">
        <ele>1350</ele>
        <time>2009-07-12T14:26:00Z</time>
      </trkpt>
      <trkpt lat="44.81873" lon="3.48287">
        <ele>1350</ele>
        <time>2009-07-12T14:26:01Z</time>
      </trkpt>
      <trkpt lat="44.81875" lon="3.48277">
        <ele>1350</ele>
        <time>2009-07-12T14:26:06Z</time>
      </trkpt>
      <trkpt lat="44.81885" lon="3.4825">
        <ele>1349</ele>
        <time>2009-07-12T14:26:19Z</time>
      </trkpt>
      <trkpt lat="44.81889" lon="3.48233">
        <ele>1348</ele>
        <time>2009-07-12T14:26:26Z</time>
      </trkpt>
      <trkpt lat="44.81896" lon="3.48215">
        <ele>1348</ele>
        <time>2009-07-12T14:26:36Z</time>
      </trkpt>
      <trkpt lat="44.81897" lon="3.48212">
        <ele>1348</ele>
        <time>2009-07-12T14:26:37Z</time>
      </trkpt>
      <trkpt lat="44.81912" lon="3.4816">
        <ele>1347</ele>
        <time>2009-07-12T14:26:51Z</time>
      </trkpt>
      <trkpt lat="44.81918" lon="3.48135">
        <ele>1346</ele>
        <time>2009-07-12T14:27:00Z</time>
      </trkpt>
      <trkpt lat="44.81921" lon="3.48127">
        <ele>1345</ele>
        <time>2009-07-12T14:27:14Z</time>
      </trkpt>
      <trkpt lat="44.81927" lon="3.4812">
        <ele>1346</ele>
        <time>2009-07-12T14:27:48Z</time>
      </trkpt>
      <trkpt lat="44.81928" lon="3.48119">
        <ele>1346</ele>
        <time>2009-07-12T14:27:49Z</time>
      </trkpt>
      <trkpt lat="44.8193" lon="3.48109">
        <ele>1345</ele>
        <time>2009-07-12T14:28:01Z</time>
      </trkpt>
      <trkpt lat="44.8193" lon="3.48108">
        <ele>1344</ele>
        <time>2009-07-12T14:28:02Z</time>
      </trkpt>
      <trkpt lat="44.81933" lon="3.48101">
        <ele>1343</ele>
        <time>2009-07-12T14:28:06Z</time>
      </trkpt>
      <trkpt lat="44.81939" lon="3.48081">
        <ele>1342</ele>
        <time>2009-07-12T14:28:18Z</time>
      </trkpt>
      <trkpt lat="44.81946" lon="3.4806">
        <ele>1342</ele>
        <time>2009-07-12T14:28:29Z</time>
      </trkpt>
      <trkpt lat="44.81947" lon="3.48054">
        <ele>1342</ele>
        <time>2009-07-12T14:28:39Z</time>
      </trkpt>
      <trkpt lat="44.81949" lon="3.48045">
        <ele>1342</ele>
        <time>2009-07-12T14:28:48Z</time>
      </trkpt>
      <trkpt lat="44.81951" lon="3.4804">
        <ele>1343</ele>
        <time>2009-07-12T14:28:54Z</time>
      </trkpt>
      <trkpt lat="44.81953" lon="3.48034">
        <ele>1342</ele>
        <time>2009-07-12T14:28:57Z</time>
      </trkpt>
      <trkpt lat="44.81954" lon="3.48032">
        <ele>1342</ele>
        <time>2009-07-12T14:28:58Z</time>
      </trkpt>
      <trkpt lat="44.81957" lon="3.48021">
        <ele>1342</ele>
        <time>2009-07-12T14:29:02Z</time>
      </trkpt>
      <trkpt lat="44.81961" lon="3.48009">
        <ele>1341</ele>
        <time>2009-07-12T14:29:06Z</time>
      </trkpt>
      <trkpt lat="44.81963" lon="3.48004">
        <ele>1341</ele>
        <time>2009-07-12T14:29:08Z</time>
      </trkpt>
      <trkpt lat="44.81975" lon="3.48003">
        <ele>1340</ele>
        <time>2009-07-12T14:29:17Z</time>
      </trkpt>
      <trkpt lat="44.81975" lon="3.48002">
        <ele>1339</ele>
        <time>2009-07-12T14:29:57Z</time>
      </trkpt>
      <trkpt lat="44.81975" lon="3.48003">
        <ele>1338</ele>
        <time>2009-07-12T14:30:32Z</time>
      </trkpt>
      <trkpt lat="44.81978" lon="3.48003">
        <ele>1339</ele>
        <time>2009-07-12T14:31:17Z</time>
      </trkpt>
      <trkpt lat="44.81985" lon="3.48003">
        <ele>1339</ele>
        <time>2009-07-12T14:31:53Z</time>
      </trkpt>
      <trkpt lat="44.82014" lon="3.4802">
        <ele>1335</ele>
        <time>2009-07-12T14:32:01Z</time>
      </trkpt>
      <trkpt lat="44.82031" lon="3.48029">
        <ele>1332</ele>
        <time>2009-07-12T14:32:04Z</time>
      </trkpt>
      <trkpt lat="44.82052" lon="3.48023">
        <ele>1331</ele>
        <time>2009-07-12T14:32:08Z</time>
      </trkpt>
      <trkpt lat="44.8206" lon="3.48015">
        <ele>1331</ele>
        <time>2009-07-12T14:32:10Z</time>
      </trkpt>
      <trkpt lat="44.8207" lon="3.48011">
        <ele>1329</ele>
        <time>2009-07-12T14:32:12Z</time>
      </trkpt>
      <trkpt lat="44.82083" lon="3.48014">
        <ele>1326</ele>
        <time>2009-07-12T14:32:14Z</time>
      </trkpt>
      <trkpt lat="44.82102" lon="3.4802">
        <ele>1324</ele>
        <time>2009-07-12T14:32:17Z</time>
      </trkpt>
      <trkpt lat="44.82118" lon="3.48025">
        <ele>1322</ele>
        <time>2009-07-12T14:32:20Z</time>
      </trkpt>
      <trkpt lat="44.82137" lon="3.48038">
        <ele>1319</ele>
        <time>2009-07-12T14:32:25Z</time>
      </trkpt>
      <trkpt lat="44.82155" lon="3.48051">
        <ele>1315</ele>
        <time>2009-07-12T14:32:29Z</time>
      </trkpt>
      <trkpt lat="44.8216" lon="3.48056">
        <ele>1314</ele>
        <time>2009-07-12T14:32:30Z</time>
      </trkpt>
      <trkpt lat="44.82177" lon="3.48072">
        <ele>1310</ele>
        <time>2009-07-12T14:32:33Z</time>
      </trkpt>
      <trkpt lat="44.82182" lon="3.48077">
        <ele>1308</ele>
        <time>2009-07-12T14:32:34Z</time>
      </trkpt>
      <trkpt lat="44.82193" lon="3.48089">
        <ele>1306</ele>
        <time>2009-07-12T14:32:41Z</time>
      </trkpt>
      <trkpt lat="44.82193" lon="3.48089">
        <ele>1307</ele>
        <time>2009-07-12T14:32:53Z</time>
      </trkpt>
      <trkpt lat="44.82196" lon="3.48088">
        <ele>1305</ele>
        <time>2009-07-12T14:33:04Z</time>
      </trkpt>
      <trkpt lat="44.82199" lon="3.48087">
        <ele>1307</ele>
        <time>2009-07-12T14:33:47Z</time>
      </trkpt>
      <trkpt lat="44.82199" lon="3.48086">
        <ele>1305</ele>
        <time>2009-07-12T14:34:23Z</time>
      </trkpt>
      <trkpt lat="44.8221" lon="3.48062">
        <ele>1305</ele>
        <time>2009-07-12T14:34:40Z</time>
      </trkpt>
      <trkpt lat="44.82221" lon="3.48012">
        <ele>1306</ele>
        <time>2009-07-12T14:34:54Z</time>
      </trkpt>
      <trkpt lat="44.82228" lon="3.47959">
        <ele>1306</ele>
        <time>2009-07-12T14:35:06Z</time>
      </trkpt>
      <trkpt lat="44.82221" lon="3.47898">
        <ele>1307</ele>
        <time>2009-07-12T14:35:19Z</time>
      </trkpt>
      <trkpt lat="44.82221" lon="3.47828">
        <ele>1306</ele>
        <time>2009-07-12T14:35:32Z</time>
      </trkpt>
      <trkpt lat="44.82257" lon="3.47791">
        <ele>1308</ele>
        <time>2009-07-12T14:35:44Z</time>
      </trkpt>
      <trkpt lat="44.82301" lon="3.47744">
        <ele>1310</ele>
        <time>2009-07-12T14:35:59Z</time>
      </trkpt>
      <trkpt lat="44.8233" lon="3.47676">
        <ele>1312</ele>
        <time>2009-07-12T14:36:16Z</time>
      </trkpt>
      <trkpt lat="44.82333" lon="3.47601">
        <ele>1312</ele>
        <time>2009-07-12T14:36:31Z</time>
      </trkpt>
      <trkpt lat="44.82326" lon="3.47554">
        <ele>1314</ele>
        <time>2009-07-12T14:36:40Z</time>
      </trkpt>
      <trkpt lat="44.82326" lon="3.47541">
        <ele>1313</ele>
        <time>2009-07-12T14:36:42Z</time>
      </trkpt>
      <trkpt lat="44.82331" lon="3.47516">
        <ele>1312</ele>
        <time>2009-07-12T14:36:46Z</time>
      </trkpt>
      <trkpt lat="44.82337" lon="3.47497">
        <ele>1311</ele>
        <time>2009-07-12T14:36:49Z</time>
      </trkpt>
      <trkpt lat="44.82347" lon="3.47476">
        <ele>1312</ele>
        <time>2009-07-12T14:36:53Z</time>
      </trkpt>
      <trkpt lat="44.82379" lon="3.47433">
        <ele>1312</ele>
        <time>2009-07-12T14:37:04Z</time>
      </trkpt>
      <trkpt lat="44.82388" lon="3.47421">
        <ele>1313</ele>
        <time>2009-07-12T14:37:07Z</time>
      </trkpt>
      <trkpt lat="44.82401" lon="3.47397">
        <ele>1313</ele>
        <time>2009-07-12T14:37:12Z</time>
      </trkpt>
      <trkpt lat="44.82431" lon="3.47308">
        <ele>1316</ele>
        <time>2009-07-12T14:37:29Z</time>
      </trkpt>
      <trkpt lat="44.8245" lon="3.47248">
        <ele>1320</ele>
        <time>2009-07-12T14:37:42Z</time>
      </trkpt>
      <trkpt lat="44.82482" lon="3.47199">
        <ele>1323</ele>
        <time>2009-07-12T14:37:59Z</time>
      </trkpt>
      <trkpt lat="44.82515" lon="3.47175">
        <ele>1325</ele>
        <time>2009-07-12T14:38:13Z</time>
      </trkpt>
      <trkpt lat="44.82522" lon="3.47171">
        <ele>1327</ele>
        <time>2009-07-12T14:38:16Z</time>
      </trkpt>
      <trkpt lat="44.82551" lon="3.47133">
        <ele>1328</ele>
        <time>2009-07-12T14:38:29Z</time>
      </trkpt>
      <trkpt lat="44.82588" lon="3.47073">
        <ele>1328</ele>
        <time>2009-07-12T14:38:44Z</time>
      </trkpt>
      <trkpt lat="44.82595" lon="3.47058">
        <ele>1328</ele>
        <time>2009-07-12T14:38:47Z</time>
      </trkpt>
      <trkpt lat="44.82627" lon="3.46962">
        <ele>1324</ele>
        <time>2009-07-12T14:39:01Z</time>
      </trkpt>
      <trkpt lat="44.82646" lon="3.46859">
        <ele>1324</ele>
        <time>2009-07-12T14:39:13Z</time>
      </trkpt>
      <trkpt lat="44.82657" lon="3.46771">
        <ele>1322</ele>
        <time>2009-07-12T14:39:23Z</time>
      </trkpt>
      <trkpt lat="44.82669" lon="3.46731">
        <ele>1321</ele>
        <time>2009-07-12T14:39:28Z</time>
      </trkpt>
      <trkpt lat="44.82692" lon="3.46703">
        <ele>1319</ele>
        <time>2009-07-12T14:39:33Z</time>
      </trkpt>
      <trkpt lat="44.82776" lon="3.4665">
        <ele>1317</ele>
        <time>2009-07-12T14:39:49Z</time>
      </trkpt>
      <trkpt lat="44.82828" lon="3.46613">
        <ele>1314</ele>
        <time>2009-07-12T14:39:58Z</time>
      </trkpt>
      <trkpt lat="44.82875" lon="3.46617">
        <ele>1312</ele>
        <time>2009-07-12T14:40:05Z</time>
      </trkpt>
      <trkpt lat="44.82972" lon="3.46698">
        <ele>1312</ele>
        <time>2009-07-12T14:40:23Z</time>
      </trkpt>
      <trkpt lat="44.83021" lon="3.46718">
        <ele>1312</ele>
        <time>2009-07-12T14:40:32Z</time>
      </trkpt>
      <trkpt lat="44.83033" lon="3.46718">
        <ele>1312</ele>
        <time>2009-07-12T14:40:34Z</time>
      </trkpt>
      <trkpt lat="44.83052" lon="3.46714">
        <ele>1311</ele>
        <time>2009-07-12T14:40:37Z</time>
      </trkpt>
      <trkpt lat="44.83073" lon="3.46701">
        <ele>1312</ele>
        <time>2009-07-12T14:40:41Z</time>
      </trkpt>
      <trkpt lat="44.83095" lon="3.46673">
        <ele>1310</ele>
        <time>2009-07-12T14:40:46Z</time>
      </trkpt>
      <trkpt lat="44.83107" lon="3.46646">
        <ele>1311</ele>
        <time>2009-07-12T14:40:50Z</time>
      </trkpt>
      <trkpt lat="44.83122" lon="3.46586">
        <ele>1313</ele>
        <time>2009-07-12T14:40:58Z</time>
      </trkpt>
      <trkpt lat="44.83129" lon="3.46553">
        <ele>1311</ele>
        <time>2009-07-12T14:41:02Z</time>
      </trkpt>
      <trkpt lat="44.83151" lon="3.46476">
        <ele>1310</ele>
        <time>2009-07-12T14:41:12Z</time>
      </trkpt>
      <trkpt lat="44.83156" lon="3.46444">
        <ele>1310</ele>
        <time>2009-07-12T14:41:16Z</time>
      </trkpt>
      <trkpt lat="44.83164" lon="3.46378">
        <ele>1308</ele>
        <time>2009-07-12T14:41:24Z</time>
      </trkpt>
      <trkpt lat="44.83166" lon="3.46274">
        <ele>1309</ele>
        <time>2009-07-12T14:41:37Z</time>
      </trkpt>
      <trkpt lat="44.83172" lon="3.46246">
        <ele>1309</ele>
        <time>2009-07-12T14:41:41Z</time>
      </trkpt>
      <trkpt lat="44.83174" lon="3.46227">
        <ele>1309</ele>
        <time>2009-07-12T14:41:44Z</time>
      </trkpt>
      <trkpt lat="44.83173" lon="3.46214">
        <ele>1308</ele>
        <time>2009-07-12T14:41:46Z</time>
      </trkpt>
      <trkpt lat="44.83167" lon="3.46195">
        <ele>1309</ele>
        <time>2009-07-12T14:41:49Z</time>
      </trkpt>
      <trkpt lat="44.83162" lon="3.46183">
        <ele>1307</ele>
        <time>2009-07-12T14:41:51Z</time>
      </trkpt>
      <trkpt lat="44.83142" lon="3.4614">
        <ele>1309</ele>
        <time>2009-07-12T14:41:58Z</time>
      </trkpt>
      <trkpt lat="44.8311" lon="3.46049">
        <ele>1308</ele>
        <time>2009-07-12T14:42:12Z</time>
      </trkpt>
      <trkpt lat="44.83089" lon="3.45953">
        <ele>1305</ele>
        <time>2009-07-12T14:42:24Z</time>
      </trkpt>
      <trkpt lat="44.83077" lon="3.459">
        <ele>1301</ele>
        <time>2009-07-12T14:42:30Z</time>
      </trkpt>
      <trkpt lat="44.83061" lon="3.45843">
        <ele>1300</ele>
        <time>2009-07-12T14:42:36Z</time>
      </trkpt>
      <trkpt lat="44.83053" lon="3.4581">
        <ele>1297</ele>
        <time>2009-07-12T14:42:39Z</time>
      </trkpt>
      <trkpt lat="44.83048" lon="3.45746">
        <ele>1298</ele>
        <time>2009-07-12T14:42:45Z</time>
      </trkpt>
      <trkpt lat="44.83041" lon="3.4571">
        <ele>1299</ele>
        <time>2009-07-12T14:42:49Z</time>
      </trkpt>
      <trkpt lat="44.83024" lon="3.45674">
        <ele>1300</ele>
        <time>2009-07-12T14:42:54Z</time>
      </trkpt>
      <trkpt lat="44.82946" lon="3.45623">
        <ele>1299</ele>
        <time>2009-07-12T14:43:08Z</time>
      </trkpt>
      <trkpt lat="44.82916" lon="3.45613">
        <ele>1298</ele>
        <time>2009-07-12T14:43:13Z</time>
      </trkpt>
      <trkpt lat="44.82894" lon="3.45597">
        <ele>1298</ele>
        <time>2009-07-12T14:43:17Z</time>
      </trkpt>
      <trkpt lat="44.82879" lon="3.45582">
        <ele>1298</ele>
        <time>2009-07-12T14:43:20Z</time>
      </trkpt>
      <trkpt lat="44.82864" lon="3.45559">
        <ele>1299</ele>
        <time>2009-07-12T14:43:24Z</time>
      </trkpt>
      <trkpt lat="44.82842" lon="3.45548">
        <ele>1299</ele>
        <time>2009-07-12T14:43:29Z</time>
      </trkpt>
      <trkpt lat="44.82819" lon="3.45552">
        <ele>1294</ele>
        <time>2009-07-12T14:43:33Z</time>
      </trkpt>
      <trkpt lat="44.828" lon="3.45551">
        <ele>1292</ele>
        <time>2009-07-12T14:43:36Z</time>
      </trkpt>
      <trkpt lat="44.82795" lon="3.45547">
        <ele>1290</ele>
        <time>2009-07-12T14:43:37Z</time>
      </trkpt>
      <trkpt lat="44.82771" lon="3.45519">
        <ele>1290</ele>
        <time>2009-07-12T14:43:42Z</time>
      </trkpt>
      <trkpt lat="44.82757" lon="3.45502">
        <ele>1290</ele>
        <time>2009-07-12T14:43:45Z</time>
      </trkpt>
      <trkpt lat="44.82742" lon="3.45474">
        <ele>1289</ele>
        <time>2009-07-12T14:43:49Z</time>
      </trkpt>
      <trkpt lat="44.82731" lon="3.45451">
        <ele>1290</ele>
        <time>2009-07-12T14:43:57Z</time>
      </trkpt>
      <trkpt lat="44.82733" lon="3.45452">
        <ele>1290</ele>
        <time>2009-07-12T14:44:32Z</time>
      </trkpt>
      <trkpt lat="44.82733" lon="3.45448">
        <ele>1290</ele>
        <time>2009-07-12T14:45:21Z</time>
      </trkpt>
      <trkpt lat="44.82721" lon="3.45408">
        <ele>1286</ele>
        <time>2009-07-12T14:45:29Z</time>
      </trkpt>
      <trkpt lat="44.82716" lon="3.45393">
        <ele>1286</ele>
        <time>2009-07-12T14:45:31Z</time>
      </trkpt>
      <trkpt lat="44.8271" lon="3.45378">
        <ele>1285</ele>
        <time>2009-07-12T14:45:33Z</time>
      </trkpt>
      <trkpt lat="44.82699" lon="3.45348">
        <ele>1282</ele>
        <time>2009-07-12T14:45:40Z</time>
      </trkpt>
      <trkpt lat="44.82694" lon="3.45343">
        <ele>1281</ele>
        <time>2009-07-12T14:45:42Z</time>
      </trkpt>
      <trkpt lat="44.82688" lon="3.45335">
        <ele>1279</ele>
        <time>2009-07-12T14:45:44Z</time>
      </trkpt>
      <trkpt lat="44.82673" lon="3.45317">
        <ele>1275</ele>
        <time>2009-07-12T14:45:48Z</time>
      </trkpt>
      <trkpt lat="44.82668" lon="3.45312">
        <ele>1273</ele>
        <time>2009-07-12T14:45:49Z</time>
      </trkpt>
      <trkpt lat="44.82656" lon="3.45294">
        <ele>1271</ele>
        <time>2009-07-12T14:45:52Z</time>
      </trkpt>
      <trkpt lat="44.82647" lon="3.45284">
        <ele>1269</ele>
        <time>2009-07-12T14:45:54Z</time>
      </trkpt>
      <trkpt lat="44.82637" lon="3.4527">
        <ele>1268</ele>
        <time>2009-07-12T14:45:56Z</time>
      </trkpt>
      <trkpt lat="44.82627" lon="3.4524">
        <ele>1267</ele>
        <time>2009-07-12T14:46:00Z</time>
      </trkpt>
      <trkpt lat="44.82613" lon="3.45201">
        <ele>1266</ele>
        <time>2009-07-12T14:46:10Z</time>
      </trkpt>
      <trkpt lat="44.82605" lon="3.45159">
        <ele>1266</ele>
        <time>2009-07-12T14:46:21Z</time>
      </trkpt>
      <trkpt lat="44.82604" lon="3.45152">
        <ele>1267</ele>
        <time>2009-07-12T14:46:23Z</time>
      </trkpt>
      <trkpt lat="44.8259" lon="3.45143">
        <ele>1266</ele>
        <time>2009-07-12T14:46:28Z</time>
      </trkpt>
      <trkpt lat="44.82571" lon="3.45132">
        <ele>1263</ele>
        <time>2009-07-12T14:46:32Z</time>
      </trkpt>
      <trkpt lat="44.82557" lon="3.45118">
        <ele>1262</ele>
        <time>2009-07-12T14:46:35Z</time>
      </trkpt>
      <trkpt lat="44.82542" lon="3.45108">
        <ele>1262</ele>
        <time>2009-07-12T14:46:38Z</time>
      </trkpt>
      <trkpt lat="44.82518" lon="3.45087">
        <ele>1261</ele>
        <time>2009-07-12T14:46:43Z</time>
      </trkpt>
      <trkpt lat="44.82508" lon="3.4508">
        <ele>1260</ele>
        <time>2009-07-12T14:46:45Z</time>
      </trkpt>
      <trkpt lat="44.82472" lon="3.45055">
        <ele>1258</ele>
        <time>2009-07-12T14:46:53Z</time>
      </trkpt>
      <trkpt lat="44.82467" lon="3.4505">
        <ele>1257</ele>
        <time>2009-07-12T14:46:54Z</time>
      </trkpt>
      <trkpt lat="44.8245" lon="3.45027">
        <ele>1256</ele>
        <time>2009-07-12T14:46:58Z</time>
      </trkpt>
      <trkpt lat="44.82442" lon="3.45003">
        <ele>1256</ele>
        <time>2009-07-12T14:47:03Z</time>
      </trkpt>
      <trkpt lat="44.82436" lon="3.44981">
        <ele>1253</ele>
        <time>2009-07-12T14:47:07Z</time>
      </trkpt>
      <trkpt lat="44.82438" lon="3.44961">
        <ele>1250</ele>
        <time>2009-07-12T14:47:10Z</time>
      </trkpt>
      <trkpt lat="44.82442" lon="3.4491">
        <ele>1249</ele>
        <time>2009-07-12T14:47:20Z</time>
      </trkpt>
      <trkpt lat="44.8245" lon="3.44879">
        <ele>1246</ele>
        <time>2009-07-12T14:47:29Z</time>
      </trkpt>
      <trkpt lat="44.82454" lon="3.44871">
        <ele>1246</ele>
        <time>2009-07-12T14:47:31Z</time>
      </trkpt>
      <trkpt lat="44.82467" lon="3.44839">
        <ele>1245</ele>
        <time>2009-07-12T14:47:37Z</time>
      </trkpt>
      <trkpt lat="44.82464" lon="3.44779">
        <ele>1244</ele>
        <time>2009-07-12T14:47:46Z</time>
      </trkpt>
      <trkpt lat="44.8245" lon="3.44744">
        <ele>1243</ele>
        <time>2009-07-12T14:47:52Z</time>
      </trkpt>
      <trkpt lat="44.82428" lon="3.44718">
        <ele>1243</ele>
        <time>2009-07-12T14:47:58Z</time>
      </trkpt>
      <trkpt lat="44.8241" lon="3.44679">
        <ele>1239</ele>
        <time>2009-07-12T14:48:04Z</time>
      </trkpt>
      <trkpt lat="44.82407" lon="3.44671">
        <ele>1239</ele>
        <time>2009-07-12T14:48:05Z</time>
      </trkpt>
      <trkpt lat="44.82383" lon="3.44616">
        <ele>1237</ele>
        <time>2009-07-12T14:48:12Z</time>
      </trkpt>
      <trkpt lat="44.82364" lon="3.44596">
        <ele>1238</ele>
        <time>2009-07-12T14:48:16Z</time>
      </trkpt>
      <trkpt lat="44.82326" lon="3.44578">
        <ele>1240</ele>
        <time>2009-07-12T14:48:23Z</time>
      </trkpt>
      <trkpt lat="44.82317" lon="3.44574">
        <ele>1240</ele>
        <time>2009-07-12T14:48:25Z</time>
      </trkpt>
      <trkpt lat="44.82309" lon="3.44569">
        <ele>1242</ele>
        <time>2009-07-12T14:48:27Z</time>
      </trkpt>
      <trkpt lat="44.82267" lon="3.44533">
        <ele>1245</ele>
        <time>2009-07-12T14:48:39Z</time>
      </trkpt>
      <trkpt lat="44.82214" lon="3.44487">
        <ele>1244</ele>
        <time>2009-07-12T14:48:54Z</time>
      </trkpt>
      <trkpt lat="44.82186" lon="3.44449">
        <ele>1243</ele>
        <time>2009-07-12T14:49:07Z</time>
      </trkpt>
      <trkpt lat="44.8216" lon="3.44396">
        <ele>1242</ele>
        <time>2009-07-12T14:49:22Z</time>
      </trkpt>
      <trkpt lat="44.8216" lon="3.44396">
        <ele>1242</ele>
        <time>2009-07-12T14:49:45Z</time>
      </trkpt>
      <trkpt lat="44.8216" lon="3.44396">
        <ele>1242</ele>
        <time>2009-07-12T14:50:12Z</time>
      </trkpt>
      <trkpt lat="44.8216" lon="3.44397">
        <ele>1243</ele>
        <time>2009-07-12T14:50:44Z</time>
      </trkpt>
      <trkpt lat="44.82155" lon="3.44386">
        <ele>1243</ele>
        <time>2009-07-12T14:51:15Z</time>
      </trkpt>
      <trkpt lat="44.82137" lon="3.44351">
        <ele>1241</ele>
        <time>2009-07-12T14:51:23Z</time>
      </trkpt>
      <trkpt lat="44.82126" lon="3.4434">
        <ele>1241</ele>
        <time>2009-07-12T14:51:26Z</time>
      </trkpt>
      <trkpt lat="44.82114" lon="3.44327">
        <ele>1238</ele>
        <time>2009-07-12T14:51:29Z</time>
      </trkpt>
      <trkpt lat="44.82088" lon="3.44296">
        <ele>1238</ele>
        <time>2009-07-12T14:51:35Z</time>
      </trkpt>
      <trkpt lat="44.82063" lon="3.44263">
        <ele>1235</ele>
        <time>2009-07-12T14:51:41Z</time>
      </trkpt>
      <trkpt lat="44.8204" lon="3.44209">
        <ele>1230</ele>
        <time>2009-07-12T14:51:47Z</time>
      </trkpt>
      <trkpt lat="44.82025" lon="3.44182">
        <ele>1230</ele>
        <time>2009-07-12T14:51:50Z</time>
      </trkpt>
      <trkpt lat="44.82006" lon="3.44122">
        <ele>1226</ele>
        <time>2009-07-12T14:51:56Z</time>
      </trkpt>
      <trkpt lat="44.8199" lon="3.44068">
        <ele>1223</ele>
        <time>2009-07-12T14:52:01Z</time>
      </trkpt>
      <trkpt lat="44.81983" lon="3.44031">
        <ele>1221</ele>
        <time>2009-07-12T14:52:04Z</time>
      </trkpt>
      <trkpt lat="44.81981" lon="3.4402">
        <ele>1220</ele>
        <time>2009-07-12T14:52:05Z</time>
      </trkpt>
      <trkpt lat="44.81965" lon="3.43987">
        <ele>1216</ele>
        <time>2009-07-12T14:52:09Z</time>
      </trkpt>
      <trkpt lat="44.81959" lon="3.4398">
        <ele>1216</ele>
        <time>2009-07-12T14:52:10Z</time>
      </trkpt>
      <trkpt lat="44.81948" lon="3.43965">
        <ele>1214</ele>
        <time>2009-07-12T14:52:12Z</time>
      </trkpt>
      <trkpt lat="44.81935" lon="3.43948">
        <ele>1214</ele>
        <time>2009-07-12T14:52:15Z</time>
      </trkpt>
      <trkpt lat="44.81874" lon="3.43911">
        <ele>1213</ele>
        <time>2009-07-12T14:52:27Z</time>
      </trkpt>
      <trkpt lat="44.81864" lon="3.43902">
        <ele>1213</ele>
        <time>2009-07-12T14:52:29Z</time>
      </trkpt>
      <trkpt lat="44.81842" lon="3.43873">
        <ele>1211</ele>
        <time>2009-07-12T14:52:35Z</time>
      </trkpt>
      <trkpt lat="44.81822" lon="3.43843">
        <ele>1210</ele>
        <time>2009-07-12T14:52:41Z</time>
      </trkpt>
      <trkpt lat="44.81762" lon="3.43833">
        <ele>1209</ele>
        <time>2009-07-12T14:52:55Z</time>
      </trkpt>
      <trkpt lat="44.81741" lon="3.4383">
        <ele>1212</ele>
        <time>2009-07-12T14:53:00Z</time>
      </trkpt>
      <trkpt lat="44.81728" lon="3.43832">
        <ele>1212</ele>
        <time>2009-07-12T14:53:03Z</time>
      </trkpt>
      <trkpt lat="44.81698" lon="3.43841">
        <ele>1213</ele>
        <time>2009-07-12T14:53:10Z</time>
      </trkpt>
      <trkpt lat="44.81644" lon="3.43875">
        <ele>1209</ele>
        <time>2009-07-12T14:53:22Z</time>
      </trkpt>
      <trkpt lat="44.81621" lon="3.43895">
        <ele>1207</ele>
        <time>2009-07-12T14:53:27Z</time>
      </trkpt>
      <trkpt lat="44.81606" lon="3.4391">
        <ele>1205</ele>
        <time>2009-07-12T14:53:30Z</time>
      </trkpt>
      <trkpt lat="44.81592" lon="3.4393">
        <ele>1205</ele>
        <time>2009-07-12T14:53:34Z</time>
      </trkpt>
      <trkpt lat="44.81581" lon="3.43943">
        <ele>1203</ele>
        <time>2009-07-12T14:53:37Z</time>
      </trkpt>
      <trkpt lat="44.81562" lon="3.43971">
        <ele>1201</ele>
        <time>2009-07-12T14:53:42Z</time>
      </trkpt>
      <trkpt lat="44.81549" lon="3.43971">
        <ele>1199</ele>
        <time>2009-07-12T14:53:46Z</time>
      </trkpt>
      <trkpt lat="44.81532" lon="3.43964">
        <ele>1197</ele>
        <time>2009-07-12T14:53:49Z</time>
      </trkpt>
      <trkpt lat="44.81526" lon="3.43962">
        <ele>1195</ele>
        <time>2009-07-12T14:53:50Z</time>
      </trkpt>
      <trkpt lat="44.81505" lon="3.43962">
        <ele>1194</ele>
        <time>2009-07-12T14:53:53Z</time>
      </trkpt>
      <trkpt lat="44.8149" lon="3.43962">
        <ele>1191</ele>
        <time>2009-07-12T14:53:55Z</time>
      </trkpt>
      <trkpt lat="44.81483" lon="3.43979">
        <ele>1191</ele>
        <time>2009-07-12T14:54:01Z</time>
      </trkpt>
      <trkpt lat="44.81484" lon="3.43984">
        <ele>1191</ele>
        <time>2009-07-12T14:54:02Z</time>
      </trkpt>
      <trkpt lat="44.81496" lon="3.44061">
        <ele>1186</ele>
        <time>2009-07-12T14:54:11Z</time>
      </trkpt>
      <trkpt lat="44.81496" lon="3.44072">
        <ele>1186</ele>
        <time>2009-07-12T14:54:12Z</time>
      </trkpt>
      <trkpt lat="44.81492" lon="3.44111">
        <ele>1186</ele>
        <time>2009-07-12T14:54:19Z</time>
      </trkpt>
      <trkpt lat="44.81492" lon="3.44126">
        <ele>1185</ele>
        <time>2009-07-12T14:54:28Z</time>
      </trkpt>
      <trkpt lat="44.81482" lon="3.44128">
        <ele>1184</ele>
        <time>2009-07-12T14:54:38Z</time>
      </trkpt>
      <trkpt lat="44.81475" lon="3.44115">
        <ele>1184</ele>
        <time>2009-07-12T14:54:51Z</time>
      </trkpt>
      <trkpt lat="44.81476" lon="3.44114">
        <ele>1183</ele>
        <time>2009-07-12T14:55:24Z</time>
      </trkpt>
      <trkpt lat="44.81475" lon="3.44113">
        <ele>1181</ele>
        <time>2009-07-12T14:56:18Z</time>
      </trkpt>
    </trkseg>
  </trk>
</gpx>